<?xml version='1.0' encoding='UTF-8'?><gpx version="1.1" creator="JPX - https://github.com/jenetics/jpx" xmlns="http://www.topografix.com/GPX/1/1"><trk><trkseg><trkpt lat="45.690439073411454" lon="9.205771163114537"><ele>260.0</ele><time>2026-03-28T08:50:30.014Z</time></trkpt><trkpt lat="45.6905277120375" lon="9.205841990196337"><ele>260.0</ele><time>2026-03-28T08:50:31.013Z</time></trkpt><trkpt lat="45.69062666040444" lon="9.205906866126885"><ele>260.0</ele><time>2026-03-28T08:50:32.012Z</time></trkpt><trkpt lat="45.690721315787435" lon="9.205967729366504"><ele>260.0</ele><time>2026-03-28T08:50:33.011Z</time></trkpt><trkpt lat="45.690823007824854" lon="9.206035381700826"><ele>260.0</ele><time>2026-03-28T08:50:34.01Z</time></trkpt><trkpt lat="45.69091922417168" lon="9.206111562815115"><ele>260.0</ele><time>2026-03-28T08:50:35.01Z</time></trkpt><trkpt lat="45.691023102855844" lon="9.206165015019229"><ele>260.0</ele><time>2026-03-28T08:50:36.009Z</time></trkpt><trkpt lat="45.691106769238715" lon="9.20621874477715"><ele>260.0</ele><time>2026-03-28T08:50:37.008Z</time></trkpt><trkpt lat="45.691181490118495" lon="9.206265714135677"><ele>260.0</ele><time>2026-03-28T08:50:38.008Z</time></trkpt><trkpt lat="45.69128154115744" lon="9.206301092620874"><ele>260.0</ele><time>2026-03-28T08:50:39.007Z</time></trkpt><trkpt lat="45.69138823048367" lon="9.20635306819228"><ele>259.75</ele><time>2026-03-28T08:50:40.007Z</time></trkpt><trkpt lat="45.69152298353526" lon="9.20640421831531"><ele>259.5</ele><time>2026-03-28T08:50:41.006Z</time></trkpt><trkpt lat="45.69162741641391" lon="9.206474239781446"><ele>259.25</ele><time>2026-03-28T08:50:42.006Z</time></trkpt><trkpt lat="45.691731243237314" lon="9.206524383424927"><ele>259.0</ele><time>2026-03-28T08:50:43.005Z</time></trkpt><trkpt lat="45.69183598399312" lon="9.206588604148827"><ele>259.25</ele><time>2026-03-28T08:50:44.005Z</time></trkpt><trkpt lat="45.69195882457163" lon="9.206640022531653"><ele>259.5</ele><time>2026-03-28T08:50:45.005Z</time></trkpt><trkpt lat="45.69208097759611" lon="9.206713841989593"><ele>259.75</ele><time>2026-03-28T08:50:46.004Z</time></trkpt><trkpt lat="45.69218316864587" lon="9.20678428776188"><ele>260.0</ele><time>2026-03-28T08:50:47.004Z</time></trkpt><trkpt lat="45.69226929324957" lon="9.20683876928723"><ele>260.0</ele><time>2026-03-28T08:50:48.004Z</time></trkpt><trkpt lat="45.692350905645036" lon="9.20688939905893"><ele>260.0</ele><time>2026-03-28T08:50:49.003Z</time></trkpt><trkpt lat="45.69246094875894" lon="9.206942250286307"><ele>260.0</ele><time>2026-03-28T08:50:50.003Z</time></trkpt><trkpt lat="45.69257229369206" lon="9.207009177885043"><ele>260.0</ele><time>2026-03-28T08:50:51.003Z</time></trkpt><trkpt lat="45.692673462373136" lon="9.207062322136789"><ele>260.0</ele><time>2026-03-28T08:50:52.003Z</time></trkpt><trkpt lat="45.692772980581246" lon="9.207093780112787"><ele>260.5</ele><time>2026-03-28T08:50:53.002Z</time></trkpt><trkpt lat="45.6928882621167" lon="9.207164156716543"><ele>261.0</ele><time>2026-03-28T08:50:54.002Z</time></trkpt><trkpt lat="45.692993980808005" lon="9.207213775607196"><ele>261.5</ele><time>2026-03-28T08:50:55.002Z</time></trkpt><trkpt lat="45.69309435184096" lon="9.207264595945379"><ele>262.0</ele><time>2026-03-28T08:50:56.002Z</time></trkpt><trkpt lat="45.69319345208678" lon="9.207324286468321"><ele>262.0</ele><time>2026-03-28T08:50:57.002Z</time></trkpt><trkpt lat="45.69328169238835" lon="9.207374495057241"><ele>262.0</ele><time>2026-03-28T08:50:58.001Z</time></trkpt><trkpt lat="45.6933745673634" lon="9.207422299163127"><ele>262.0</ele><time>2026-03-28T08:50:59.001Z</time></trkpt><trkpt lat="45.69346413667929" lon="9.207463828512173"><ele>262.0</ele><time>2026-03-28T08:51:00.001Z</time></trkpt><trkpt lat="45.693556239046046" lon="9.20751268595859"><ele>262.0</ele><time>2026-03-28T08:51:01.001Z</time></trkpt><trkpt lat="45.693649424719766" lon="9.2075572960401"><ele>262.4</ele><time>2026-03-28T08:51:02.001Z</time></trkpt><trkpt lat="45.69374264040881" lon="9.207608632682025"><ele>262.79999999999995</ele><time>2026-03-28T08:51:03.001Z</time></trkpt><trkpt lat="45.693836322152755" lon="9.207659935485717"><ele>263.2</ele><time>2026-03-28T08:51:04.001Z</time></trkpt><trkpt lat="45.69393918208826" lon="9.207721252916162"><ele>263.59999999999997</ele><time>2026-03-28T08:51:05.001Z</time></trkpt><trkpt lat="45.694030763670554" lon="9.207763968103242"><ele>264.0</ele><time>2026-03-28T08:51:06Z</time></trkpt><trkpt lat="45.694143226938344" lon="9.207830429148917"><ele>264.0</ele><time>2026-03-28T08:51:07Z</time></trkpt><trkpt lat="45.694245835485184" lon="9.20788893011084"><ele>264.0</ele><time>2026-03-28T08:51:08Z</time></trkpt><trkpt lat="45.69435027587363" lon="9.20794395637275"><ele>264.0</ele><time>2026-03-28T08:51:09Z</time></trkpt><trkpt lat="45.69445062357513" lon="9.208007467374127"><ele>264.0</ele><time>2026-03-28T08:51:10Z</time></trkpt><trkpt lat="45.69455794690827" lon="9.208046526063747"><ele>264.0</ele><time>2026-03-28T08:51:11Z</time></trkpt><trkpt lat="45.694670164466196" lon="9.208111973885703"><ele>263.75</ele><time>2026-03-28T08:51:12Z</time></trkpt><trkpt lat="45.6947883504245" lon="9.20817418631505"><ele>263.5</ele><time>2026-03-28T08:51:13Z</time></trkpt><trkpt lat="45.69490237087975" lon="9.208235866979305"><ele>263.25</ele><time>2026-03-28T08:51:14Z</time></trkpt><trkpt lat="45.6950194999895" lon="9.208302315042049"><ele>263.0</ele><time>2026-03-28T08:51:15Z</time></trkpt><trkpt lat="45.695135961874904" lon="9.208366054607502"><ele>263.0</ele><time>2026-03-28T08:51:16Z</time></trkpt><trkpt lat="45.695249651425456" lon="9.208425672711149"><ele>263.0</ele><time>2026-03-28T08:51:17Z</time></trkpt><trkpt lat="45.69536039318093" lon="9.20849234237442"><ele>263.0</ele><time>2026-03-28T08:51:18Z</time></trkpt><trkpt lat="45.69547485489328" lon="9.208558550430677"><ele>263.0</ele><time>2026-03-28T08:51:19Z</time></trkpt><trkpt lat="45.695589367720665" lon="9.208619493243924"><ele>263.4</ele><time>2026-03-28T08:51:19.999Z</time></trkpt><trkpt lat="45.69570149322344" lon="9.20868664482101"><ele>263.8</ele><time>2026-03-28T08:51:20.999Z</time></trkpt><trkpt lat="45.695805808852796" lon="9.20874941553985"><ele>264.2</ele><time>2026-03-28T08:51:21.999Z</time></trkpt><trkpt lat="45.69591027084699" lon="9.20879876971779"><ele>264.6</ele><time>2026-03-28T08:51:22.999Z</time></trkpt><trkpt lat="45.69599682677228" lon="9.208842853784086"><ele>265.0</ele><time>2026-03-28T08:51:23.999Z</time></trkpt><trkpt lat="45.69608256112171" lon="9.208883612881383"><ele>265.16666666666663</ele><time>2026-03-28T08:51:24.999Z</time></trkpt><trkpt lat="45.696158102694696" lon="9.2089288938959"><ele>265.3333333333333</ele><time>2026-03-28T08:51:25.999Z</time></trkpt><trkpt lat="45.69623208653832" lon="9.208964714252696"><ele>265.5</ele><time>2026-03-28T08:51:26.999Z</time></trkpt><trkpt lat="45.69629706340932" lon="9.209012835582824"><ele>265.6666666666667</ele><time>2026-03-28T08:51:27.999Z</time></trkpt><trkpt lat="45.696363656545266" lon="9.209039280536802"><ele>265.83333333333337</ele><time>2026-03-28T08:51:28.999Z</time></trkpt><trkpt lat="45.6964248605051" lon="9.209078547885566"><ele>266.0</ele><time>2026-03-28T08:51:29.999Z</time></trkpt><trkpt lat="45.696504278355214" lon="9.209098195483993"><ele>266.0</ele><time>2026-03-28T08:51:30.999Z</time></trkpt><trkpt lat="45.69660347649251" lon="9.209148564117507"><ele>266.0</ele><time>2026-03-28T08:51:31.999Z</time></trkpt><trkpt lat="45.69670985747586" lon="9.209206978399438"><ele>266.0</ele><time>2026-03-28T08:51:32.999Z</time></trkpt><trkpt lat="45.69682857227497" lon="9.209248260667312"><ele>266.0</ele><time>2026-03-28T08:51:33.999Z</time></trkpt><trkpt lat="45.696953091598346" lon="9.20928487617779"><ele>267.0</ele><time>2026-03-28T08:51:34.999Z</time></trkpt><trkpt lat="45.69707979939154" lon="9.209327597948997"><ele>268.0</ele><time>2026-03-28T08:51:35.999Z</time></trkpt><trkpt lat="45.69719411359007" lon="9.209372554159797"><ele>269.0</ele><time>2026-03-28T08:51:36.999Z</time></trkpt><trkpt lat="45.69729805384252" lon="9.20942153444219"><ele>270.0</ele><time>2026-03-28T08:51:37.999Z</time></trkpt><trkpt lat="45.69740421318628" lon="9.209471929679685"><ele>270.0</ele><time>2026-03-28T08:51:38.999Z</time></trkpt><trkpt lat="45.69749626830137" lon="9.20949398164006"><ele>270.0</ele><time>2026-03-28T08:51:39.999Z</time></trkpt><trkpt lat="45.6975668055828" lon="9.20950827740291"><ele>270.0</ele><time>2026-03-28T08:51:40.999Z</time></trkpt><trkpt lat="45.697632687434115" lon="9.209564504883954"><ele>270.0</ele><time>2026-03-28T08:51:42.999Z</time></trkpt><trkpt lat="45.697584240440996" lon="9.2096930971665"><ele>270.0</ele><time>2026-03-28T08:51:43.999Z</time></trkpt><trkpt lat="45.697567597999885" lon="9.209797099546565"><ele>270.0</ele><time>2026-03-28T08:51:44.999Z</time></trkpt><trkpt lat="45.697556646931474" lon="9.209942667860458"><ele>270.0</ele><time>2026-03-28T08:51:45.999Z</time></trkpt><trkpt lat="45.69752424415908" lon="9.210105281652472"><ele>270.0</ele><time>2026-03-28T08:51:46.999Z</time></trkpt><trkpt lat="45.6974980985322" lon="9.210263747688167"><ele>270.0</ele><time>2026-03-28T08:51:47.999Z</time></trkpt><trkpt lat="45.697464829343126" lon="9.21041771873322"><ele>270.0</ele><time>2026-03-28T08:51:48.999Z</time></trkpt><trkpt lat="45.69743178156123" lon="9.2105778123608"><ele>270.0</ele><time>2026-03-28T08:51:49.999Z</time></trkpt><trkpt lat="45.69741552243305" lon="9.210727673231828"><ele>270.0</ele><time>2026-03-28T08:51:50.999Z</time></trkpt><trkpt lat="45.69738203188134" lon="9.210866837696756"><ele>270.0</ele><time>2026-03-28T08:51:51.999Z</time></trkpt><trkpt lat="45.69734100725459" lon="9.210977966015893"><ele>270.0</ele><time>2026-03-28T08:51:52.999Z</time></trkpt><trkpt lat="45.697296568916606" lon="9.21108050583061"><ele>270.0</ele><time>2026-03-28T08:51:53.999Z</time></trkpt><trkpt lat="45.69728444197383" lon="9.211175355840911"><ele>270.0</ele><time>2026-03-28T08:51:55.999Z</time></trkpt><trkpt lat="45.697419586901304" lon="9.211201022523529"><ele>270.0</ele><time>2026-03-28T08:51:59.998Z</time></trkpt><trkpt lat="45.697483489116586" lon="9.211203634742244"><ele>270.0</ele><time>2026-03-28T08:52:00.998Z</time></trkpt><trkpt lat="45.69758314122223" lon="9.211207708359575"><ele>270.0</ele><time>2026-03-28T08:52:01.998Z</time></trkpt><trkpt lat="45.69767734902132" lon="9.211210454816035"><ele>270.0</ele><time>2026-03-28T08:52:02.998Z</time></trkpt><trkpt lat="45.69776111416699" lon="9.211212776811891"><ele>270.0</ele><time>2026-03-28T08:52:03.998Z</time></trkpt><trkpt lat="45.69783601034163" lon="9.211196835310208"><ele>270.0</ele><time>2026-03-28T08:52:04.998Z</time></trkpt><trkpt lat="45.6979124447395" lon="9.211216825110613"><ele>270.75</ele><time>2026-03-28T08:52:05.998Z</time></trkpt><trkpt lat="45.69800370608303" lon="9.211272985490881"><ele>271.5</ele><time>2026-03-28T08:52:07.998Z</time></trkpt><trkpt lat="45.698070857055875" lon="9.211289893561878"><ele>272.25</ele><time>2026-03-28T08:52:20.998Z</time></trkpt><trkpt lat="45.69797968215466" lon="9.211547729428656"><ele>273.0</ele><time>2026-03-28T08:52:22.998Z</time></trkpt><trkpt lat="45.69790997681399" lon="9.211687183276108"><ele>273.0</ele><time>2026-03-28T08:52:23.998Z</time></trkpt><trkpt lat="45.69783126284867" lon="9.211830761056017"><ele>273.0</ele><time>2026-03-28T08:52:24.998Z</time></trkpt><trkpt lat="45.69775989690201" lon="9.211994013577305"><ele>273.0</ele><time>2026-03-28T08:52:25.998Z</time></trkpt><trkpt lat="45.69768425515708" lon="9.212147264819365"><ele>273.0</ele><time>2026-03-28T08:52:26.998Z</time></trkpt><trkpt lat="45.69761144794542" lon="9.212295371027015"><ele>272.5</ele><time>2026-03-28T08:52:27.998Z</time></trkpt><trkpt lat="45.697532355389555" lon="9.212447945170313"><ele>272.0</ele><time>2026-03-28T08:52:28.998Z</time></trkpt><trkpt lat="45.69745148350849" lon="9.212605905748102"><ele>271.5</ele><time>2026-03-28T08:52:29.998Z</time></trkpt><trkpt lat="45.697383340005715" lon="9.212752521099375"><ele>271.0</ele><time>2026-03-28T08:52:30.998Z</time></trkpt><trkpt lat="45.69731809680336" lon="9.212902518765116"><ele>271.0</ele><time>2026-03-28T08:52:31.998Z</time></trkpt><trkpt lat="45.69724455743078" lon="9.213057590494262"><ele>271.0</ele><time>2026-03-28T08:52:32.997Z</time></trkpt><trkpt lat="45.69717270513262" lon="9.213237669149363"><ele>271.0</ele><time>2026-03-28T08:52:33.997Z</time></trkpt><trkpt lat="45.697086454774265" lon="9.21339681834134"><ele>271.0</ele><time>2026-03-28T08:52:34.997Z</time></trkpt><trkpt lat="45.6970120646488" lon="9.213553513676583"><ele>271.0</ele><time>2026-03-28T08:52:35.997Z</time></trkpt><trkpt lat="45.696958145861366" lon="9.213696941542734"><ele>271.0</ele><time>2026-03-28T08:52:36.998Z</time></trkpt><trkpt lat="45.69689520926021" lon="9.21380985637408"><ele>271.0</ele><time>2026-03-28T08:52:37.998Z</time></trkpt><trkpt lat="45.6968463816403" lon="9.213920962719019"><ele>271.0</ele><time>2026-03-28T08:52:38.998Z</time></trkpt><trkpt lat="45.6967956196553" lon="9.214022161218473"><ele>271.0</ele><time>2026-03-28T08:52:39.998Z</time></trkpt><trkpt lat="45.69675425245709" lon="9.214109441399787"><ele>271.16666666666663</ele><time>2026-03-28T08:52:40.998Z</time></trkpt><trkpt lat="45.69668988751036" lon="9.214242303219846"><ele>271.3333333333333</ele><time>2026-03-28T08:52:42.998Z</time></trkpt><trkpt lat="45.6966216141345" lon="9.214368099881378"><ele>271.5</ele><time>2026-03-28T08:52:44.998Z</time></trkpt><trkpt lat="45.69658918856958" lon="9.214478495592516"><ele>271.6666666666667</ele><time>2026-03-28T08:52:46.998Z</time></trkpt><trkpt lat="45.696541095094695" lon="9.214541076843485"><ele>271.83333333333337</ele><time>2026-03-28T08:52:49.998Z</time></trkpt><trkpt lat="45.69649533343818" lon="9.214613331663664"><ele>272.0</ele><time>2026-03-28T08:52:54.999Z</time></trkpt><trkpt lat="45.696430191599" lon="9.214669773663458"><ele>272.0</ele><time>2026-03-28T08:53:15.999Z</time></trkpt><trkpt lat="45.69631002604632" lon="9.214739411191378"><ele>272.0</ele><time>2026-03-28T08:53:17.999Z</time></trkpt><trkpt lat="45.69628486095654" lon="9.214885181731145"><ele>272.0</ele><time>2026-03-28T08:53:19.999Z</time></trkpt><trkpt lat="45.69631585180819" lon="9.214969110580821"><ele>272.0</ele><time>2026-03-28T08:53:20.999Z</time></trkpt><trkpt lat="45.696438977082174" lon="9.21501373656617"><ele>272.0</ele><time>2026-03-28T08:53:22.999Z</time></trkpt><trkpt lat="45.69651175255095" lon="9.214984671006633"><ele>271.6666666666667</ele><time>2026-03-28T08:53:23.999Z</time></trkpt><trkpt lat="45.69659054922419" lon="9.214939183833538"><ele>271.33333333333337</ele><time>2026-03-28T08:53:24.999Z</time></trkpt><trkpt lat="45.69667423392322" lon="9.214928961341068"><ele>271.0</ele><time>2026-03-28T08:53:25.999Z</time></trkpt><trkpt lat="45.69674716121749" lon="9.2149527991537"><ele>270.6666666666667</ele><time>2026-03-28T08:53:26.999Z</time></trkpt><trkpt lat="45.69683283267667" lon="9.214984231529632"><ele>270.3333333333333</ele><time>2026-03-28T08:53:27.999Z</time></trkpt><trkpt lat="45.696945185470625" lon="9.215031586987944"><ele>270.0</ele><time>2026-03-28T08:53:28.999Z</time></trkpt><trkpt lat="45.69709701333458" lon="9.215105380404633"><ele>271.3333333333333</ele><time>2026-03-28T08:53:29.999Z</time></trkpt><trkpt lat="45.697257951399294" lon="9.215184469704429"><ele>272.66666666666663</ele><time>2026-03-28T08:53:30.999Z</time></trkpt><trkpt lat="45.697432952506304" lon="9.215276093682789"><ele>274.0</ele><time>2026-03-28T08:53:31.999Z</time></trkpt><trkpt lat="45.69761698676548" lon="9.215361712251449"><ele>274.0</ele><time>2026-03-28T08:53:32.999Z</time></trkpt><trkpt lat="45.69780386877583" lon="9.215420451927875"><ele>274.0</ele><time>2026-03-28T08:53:33.999Z</time></trkpt><trkpt lat="45.697977965349025" lon="9.215454860681486"><ele>274.0</ele><time>2026-03-28T08:53:34.999Z</time></trkpt><trkpt lat="45.69814057165465" lon="9.215489711405306"><ele>274.0</ele><time>2026-03-28T08:53:35.999Z</time></trkpt><trkpt lat="45.69827123167815" lon="9.21552936555587"><ele>274.0</ele><time>2026-03-28T08:53:36.999Z</time></trkpt><trkpt lat="45.69831026338572" lon="9.215633872339989"><ele>274.0</ele><time>2026-03-28T08:53:37.999Z</time></trkpt><trkpt lat="45.69837658448064" lon="9.21569865588076"><ele>274.0</ele><time>2026-03-28T08:53:38.999Z</time></trkpt><trkpt lat="45.69844018087924" lon="9.215789522442975"><ele>274.0</ele><time>2026-03-28T08:53:40.999Z</time></trkpt><trkpt lat="45.698525381392294" lon="9.215894946728076"><ele>274.4</ele><time>2026-03-28T08:53:42.999Z</time></trkpt><trkpt lat="45.69861568878414" lon="9.215923126962041"><ele>274.79999999999995</ele><time>2026-03-28T08:53:43.999Z</time></trkpt><trkpt lat="45.69870173358862" lon="9.215921432832186"><ele>275.20000000000005</ele><time>2026-03-28T08:53:44.999Z</time></trkpt><trkpt lat="45.69881389126695" lon="9.215904712992485"><ele>275.6</ele><time>2026-03-28T08:53:45.999Z</time></trkpt><trkpt lat="45.698945241519056" lon="9.215933481109495"><ele>276.0</ele><time>2026-03-28T08:53:46.999Z</time></trkpt><trkpt lat="45.69906930488884" lon="9.215981832949035"><ele>276.0</ele><time>2026-03-28T08:53:47.999Z</time></trkpt><trkpt lat="45.69920197708883" lon="9.216030727097005"><ele>276.0</ele><time>2026-03-28T08:53:48.999Z</time></trkpt><trkpt lat="45.699336042884745" lon="9.21611688556378"><ele>276.0</ele><time>2026-03-28T08:53:49.999Z</time></trkpt><trkpt lat="45.69948093218888" lon="9.216182783680617"><ele>276.0</ele><time>2026-03-28T08:53:50.999Z</time></trkpt><trkpt lat="45.69962823344788" lon="9.21624367707287"><ele>276.25</ele><time>2026-03-28T08:53:51.999Z</time></trkpt><trkpt lat="45.69977173732549" lon="9.216294696652291"><ele>276.5</ele><time>2026-03-28T08:53:52.999Z</time></trkpt><trkpt lat="45.69991409375942" lon="9.21633353689425"><ele>276.75</ele><time>2026-03-28T08:53:53.999Z</time></trkpt><trkpt lat="45.70006241306084" lon="9.216356362621719"><ele>277.0</ele><time>2026-03-28T08:53:54.999Z</time></trkpt><trkpt lat="45.70020865217502" lon="9.216365635118493"><ele>277.75</ele><time>2026-03-28T08:53:55.999Z</time></trkpt><trkpt lat="45.70034946355132" lon="9.216361957007887"><ele>278.5</ele><time>2026-03-28T08:53:56.999Z</time></trkpt><trkpt lat="45.70048877550078" lon="9.21634792998915"><ele>279.25</ele><time>2026-03-28T08:53:57.999Z</time></trkpt><trkpt lat="45.70062090591947" lon="9.216329196237364"><ele>280.0</ele><time>2026-03-28T08:53:58.999Z</time></trkpt><trkpt lat="45.700753192396924" lon="9.216310440356239"><ele>280.0</ele><time>2026-03-28T08:53:59.999Z</time></trkpt><trkpt lat="45.700881302203115" lon="9.21627127420819"><ele>280.0</ele><time>2026-03-28T08:54:00.999Z</time></trkpt><trkpt lat="45.70101559381199" lon="9.216262306083761"><ele>280.0</ele><time>2026-03-28T08:54:01.999Z</time></trkpt><trkpt lat="45.70114134620724" lon="9.216248991151504"><ele>280.0</ele><time>2026-03-28T08:54:02.999Z</time></trkpt><trkpt lat="45.70126400546559" lon="9.21622986474339"><ele>280.25</ele><time>2026-03-28T08:54:03.999Z</time></trkpt><trkpt lat="45.70138594382688" lon="9.216207269820977"><ele>280.5</ele><time>2026-03-28T08:54:04.999Z</time></trkpt><trkpt lat="45.701509509069865" lon="9.216187641125572"><ele>280.75</ele><time>2026-03-28T08:54:05.999Z</time></trkpt><trkpt lat="45.70162680574453" lon="9.21616909962945"><ele>281.0</ele><time>2026-03-28T08:54:06.999Z</time></trkpt><trkpt lat="45.7017449963171" lon="9.216147453604377"><ele>281.0</ele><time>2026-03-28T08:54:07.999Z</time></trkpt><trkpt lat="45.70184485830241" lon="9.216144197770122"><ele>281.0</ele><time>2026-03-28T08:54:08.999Z</time></trkpt><trkpt lat="45.701951263699435" lon="9.216134378330823"><ele>281.0</ele><time>2026-03-28T08:54:09.999Z</time></trkpt><trkpt lat="45.70202813984352" lon="9.21614345187406"><ele>281.0</ele><time>2026-03-28T08:54:10.999Z</time></trkpt><trkpt lat="45.70210431880438" lon="9.216139325888454"><ele>281.0</ele><time>2026-03-28T08:54:11.999Z</time></trkpt><trkpt lat="45.702175573621304" lon="9.216158104378566"><ele>281.0</ele><time>2026-03-28T08:54:12.999Z</time></trkpt><trkpt lat="45.70227379513169" lon="9.216155721833932"><ele>281.40000000000003</ele><time>2026-03-28T08:54:13.999Z</time></trkpt><trkpt lat="45.70239010317891" lon="9.216233609042222"><ele>281.8</ele><time>2026-03-28T08:54:15.999Z</time></trkpt><trkpt lat="45.70245343764364" lon="9.2162688396618"><ele>282.20000000000005</ele><time>2026-03-28T08:54:16.999Z</time></trkpt><trkpt lat="45.70257561707391" lon="9.216218699554354"><ele>282.6</ele><time>2026-03-28T08:54:18.999Z</time></trkpt><trkpt lat="45.702682028324915" lon="9.216201515636698"><ele>283.0</ele><time>2026-03-28T08:54:19.999Z</time></trkpt><trkpt lat="45.70274656279315" lon="9.216113259949756"><ele>283.4</ele><time>2026-03-28T08:54:20.999Z</time></trkpt><trkpt lat="45.70282441148833" lon="9.21603449769294"><ele>283.8</ele><time>2026-03-28T08:54:21.999Z</time></trkpt><trkpt lat="45.70292152546241" lon="9.215976906076557"><ele>284.2</ele><time>2026-03-28T08:54:22.999Z</time></trkpt><trkpt lat="45.703025924318446" lon="9.215973156160763"><ele>284.6</ele><time>2026-03-28T08:54:23.999Z</time></trkpt><trkpt lat="45.70314487504947" lon="9.215955894378453"><ele>285.0</ele><time>2026-03-28T08:54:24.999Z</time></trkpt><trkpt lat="45.703288614506384" lon="9.215935208980648"><ele>285.0</ele><time>2026-03-28T08:54:25.999Z</time></trkpt><trkpt lat="45.70343559880458" lon="9.215914056673224"><ele>285.0</ele><time>2026-03-28T08:54:26.999Z</time></trkpt><trkpt lat="45.70359899860161" lon="9.215888700816272"><ele>285.0</ele><time>2026-03-28T08:54:27.999Z</time></trkpt><trkpt lat="45.70377192004538" lon="9.215863299034874"><ele>286.0</ele><time>2026-03-28T08:54:28.999Z</time></trkpt><trkpt lat="45.70396199722149" lon="9.215835429170593"><ele>287.0</ele><time>2026-03-28T08:54:29.999Z</time></trkpt><trkpt lat="45.704144675737965" lon="9.215808824916127"><ele>288.0</ele><time>2026-03-28T08:54:30.999Z</time></trkpt><trkpt lat="45.704343531221426" lon="9.215778990393448"><ele>288.3333333333333</ele><time>2026-03-28T08:54:31.999Z</time></trkpt><trkpt lat="45.70454068143966" lon="9.215749282543639"><ele>288.66666666666663</ele><time>2026-03-28T08:54:32.999Z</time></trkpt><trkpt lat="45.704738435364305" lon="9.215720294062605"><ele>289.0</ele><time>2026-03-28T08:54:33.999Z</time></trkpt><trkpt lat="45.704931441033416" lon="9.21569220618959"><ele>289.0</ele><time>2026-03-28T08:54:34.999Z</time></trkpt><trkpt lat="45.70512256840758" lon="9.215664394166726"><ele>289.0</ele><time>2026-03-28T08:54:35.999Z</time></trkpt><trkpt lat="45.705300053678485" lon="9.21563853122353"><ele>289.0</ele><time>2026-03-28T08:54:36.999Z</time></trkpt><trkpt lat="45.705473068302275" lon="9.215613058550122"><ele>289.0</ele><time>2026-03-28T08:54:37.999Z</time></trkpt><trkpt lat="45.70563888882964" lon="9.215588645069875"><ele>289.0</ele><time>2026-03-28T08:54:38.999Z</time></trkpt><trkpt lat="45.70579416081051" lon="9.215565784617679"><ele>289.0</ele><time>2026-03-28T08:54:39.999Z</time></trkpt><trkpt lat="45.70593893195978" lon="9.21554447021775"><ele>289.0</ele><time>2026-03-28T08:54:40.999Z</time></trkpt><trkpt lat="45.70607672324049" lon="9.215524183407243"><ele>289.0</ele><time>2026-03-28T08:54:41.999Z</time></trkpt><trkpt lat="45.70618482331352" lon="9.215508279868935"><ele>289.0</ele><time>2026-03-28T08:54:42.999Z</time></trkpt><trkpt lat="45.706299347601764" lon="9.215491772664446"><ele>289.0</ele><time>2026-03-28T08:54:43.999Z</time></trkpt><trkpt lat="45.706399623681335" lon="9.215461929951644"><ele>288.8</ele><time>2026-03-28T08:54:44.999Z</time></trkpt><trkpt lat="45.70648873183716" lon="9.215441482092901"><ele>288.59999999999997</ele><time>2026-03-28T08:54:45.999Z</time></trkpt><trkpt lat="45.706559315648" lon="9.215442396269557"><ele>288.4</ele><time>2026-03-28T08:54:46.999Z</time></trkpt><trkpt lat="45.70663387473706" lon="9.215433107283754"><ele>288.2</ele><time>2026-03-28T08:54:47.999Z</time></trkpt><trkpt lat="45.706756939725025" lon="9.21541342716598"><ele>288.0</ele><time>2026-03-28T08:54:48.999Z</time></trkpt><trkpt lat="45.70690592832757" lon="9.215408605305582"><ele>288.25</ele><time>2026-03-28T08:54:49.999Z</time></trkpt><trkpt lat="45.707048713633036" lon="9.215403885689168"><ele>288.5</ele><time>2026-03-28T08:54:50.999Z</time></trkpt><trkpt lat="45.70719870671225" lon="9.215374333821947"><ele>288.75</ele><time>2026-03-28T08:54:51.999Z</time></trkpt><trkpt lat="45.707342158793374" lon="9.215343506405473"><ele>289.0</ele><time>2026-03-28T08:54:52.999Z</time></trkpt><trkpt lat="45.70748498773872" lon="9.215329145944805"><ele>289.0</ele><time>2026-03-28T08:54:53.999Z</time></trkpt><trkpt lat="45.707617406670586" lon="9.215313143118436"><ele>289.0</ele><time>2026-03-28T08:54:54.999Z</time></trkpt><trkpt lat="45.70775659621251" lon="9.21529027153358"><ele>289.0</ele><time>2026-03-28T08:54:55.999Z</time></trkpt><trkpt lat="45.70789715840603" lon="9.21525938917905"><ele>289.0</ele><time>2026-03-28T08:54:56.999Z</time></trkpt><trkpt lat="45.70803423206779" lon="9.215244250987585"><ele>289.25</ele><time>2026-03-28T08:54:57.999Z</time></trkpt><trkpt lat="45.70817106851586" lon="9.215228770818984"><ele>289.5</ele><time>2026-03-28T08:54:58.999Z</time></trkpt><trkpt lat="45.70829646335032" lon="9.215210700194435"><ele>289.75</ele><time>2026-03-28T08:54:59.999Z</time></trkpt><trkpt lat="45.70842375058202" lon="9.215248084476034"><ele>290.0</ele><time>2026-03-28T08:55:00.999Z</time></trkpt><trkpt lat="45.70855942487249" lon="9.215337473855898"><ele>290.6666666666667</ele><time>2026-03-28T08:55:01.999Z</time></trkpt><trkpt lat="45.7087261840579" lon="9.215424211526758"><ele>291.3333333333333</ele><time>2026-03-28T08:55:02.999Z</time></trkpt><trkpt lat="45.7088709818885" lon="9.215518534114988"><ele>292.0</ele><time>2026-03-28T08:55:03.999Z</time></trkpt><trkpt lat="45.70901170453226" lon="9.215589866476828"><ele>292.25</ele><time>2026-03-28T08:55:04.999Z</time></trkpt><trkpt lat="45.709143322229224" lon="9.215666726861102"><ele>292.5</ele><time>2026-03-28T08:55:05.999Z</time></trkpt><trkpt lat="45.70927297392414" lon="9.215738548247177"><ele>292.75</ele><time>2026-03-28T08:55:06.999Z</time></trkpt><trkpt lat="45.70940504370094" lon="9.215794016946527"><ele>293.0</ele><time>2026-03-28T08:55:07.999Z</time></trkpt><trkpt lat="45.709522394469644" lon="9.215837398438103"><ele>293.0</ele><time>2026-03-28T08:55:08.999Z</time></trkpt><trkpt lat="45.709626325156286" lon="9.215890796531747"><ele>293.0</ele><time>2026-03-28T08:55:09.999Z</time></trkpt><trkpt lat="45.709705124489794" lon="9.215998370115477"><ele>293.0</ele><time>2026-03-28T08:55:10.999Z</time></trkpt><trkpt lat="45.709707822162585" lon="9.216167658061892"><ele>293.0</ele><time>2026-03-28T08:55:11.999Z</time></trkpt><trkpt lat="45.709751383050026" lon="9.21634342923802"><ele>292.8</ele><time>2026-03-28T08:55:12.999Z</time></trkpt><trkpt lat="45.70978739791732" lon="9.21649514530396"><ele>292.6</ele><time>2026-03-28T08:55:13.999Z</time></trkpt><trkpt lat="45.70981954144135" lon="9.216622048243778"><ele>292.4</ele><time>2026-03-28T08:55:14.999Z</time></trkpt><trkpt lat="45.709843421442216" lon="9.216721290870504"><ele>292.2</ele><time>2026-03-28T08:55:15.999Z</time></trkpt><trkpt lat="45.70987078971081" lon="9.216836391302255"><ele>292.0</ele><time>2026-03-28T08:55:16.999Z</time></trkpt><trkpt lat="45.709898911541195" lon="9.216960838234888"><ele>292.0</ele><time>2026-03-28T08:55:18Z</time></trkpt><trkpt lat="45.7099303482202" lon="9.217079617555644"><ele>292.0</ele><time>2026-03-28T08:55:19Z</time></trkpt><trkpt lat="45.709960982655346" lon="9.217197363608504"><ele>292.0</ele><time>2026-03-28T08:55:20Z</time></trkpt><trkpt lat="45.7099891314231" lon="9.217323882680619"><ele>292.0</ele><time>2026-03-28T08:55:21Z</time></trkpt><trkpt lat="45.71001925462118" lon="9.217453897956517"><ele>292.0</ele><time>2026-03-28T08:55:22Z</time></trkpt><trkpt lat="45.71005623302478" lon="9.217580198554698"><ele>291.8</ele><time>2026-03-28T08:55:23Z</time></trkpt><trkpt lat="45.710115544803216" lon="9.21769785066391"><ele>291.6</ele><time>2026-03-28T08:55:24Z</time></trkpt><trkpt lat="45.71020265613314" lon="9.217820132929406"><ele>291.40000000000003</ele><time>2026-03-28T08:55:25Z</time></trkpt><trkpt lat="45.71029842446331" lon="9.217915169227762"><ele>291.2</ele><time>2026-03-28T08:55:26Z</time></trkpt><trkpt lat="45.710387354577236" lon="9.21798727362115"><ele>291.0</ele><time>2026-03-28T08:55:27Z</time></trkpt><trkpt lat="45.710481308640716" lon="9.218069350070458"><ele>291.40000000000003</ele><time>2026-03-28T08:55:28Z</time></trkpt><trkpt lat="45.71055917950741" lon="9.218142645129655"><ele>291.8</ele><time>2026-03-28T08:55:29Z</time></trkpt><trkpt lat="45.71062734979186" lon="9.218211124182599"><ele>292.20000000000005</ele><time>2026-03-28T08:55:30Z</time></trkpt><trkpt lat="45.71071740347352" lon="9.218292480905594"><ele>292.6</ele><time>2026-03-28T08:55:31Z</time></trkpt><trkpt lat="45.71083367185881" lon="9.2183820371236"><ele>293.0</ele><time>2026-03-28T08:55:32Z</time></trkpt><trkpt lat="45.71095519524563" lon="9.218522378187458"><ele>295.0</ele><time>2026-03-28T08:55:33Z</time></trkpt><trkpt lat="45.71110690524425" lon="9.218642729912068"><ele>297.0</ele><time>2026-03-28T08:55:34Z</time></trkpt><trkpt lat="45.711243480548774" lon="9.21877835319043"><ele>299.0</ele><time>2026-03-28T08:55:35Z</time></trkpt><trkpt lat="45.711380044708676" lon="9.218894160626196"><ele>301.33333333333337</ele><time>2026-03-28T08:55:36Z</time></trkpt><trkpt lat="45.7115089052358" lon="9.219002868466124"><ele>303.6666666666667</ele><time>2026-03-28T08:55:37Z</time></trkpt><trkpt lat="45.71164998638009" lon="9.219122383564946"><ele>306.0</ele><time>2026-03-28T08:55:38Z</time></trkpt><trkpt lat="45.71178262562183" lon="9.219250165271378"><ele>305.3333333333333</ele><time>2026-03-28T08:55:39Z</time></trkpt><trkpt lat="45.71191172818905" lon="9.2193977740368"><ele>304.66666666666663</ele><time>2026-03-28T08:55:40Z</time></trkpt><trkpt lat="45.712038355240125" lon="9.219553555551734"><ele>304.0</ele><time>2026-03-28T08:55:41Z</time></trkpt><trkpt lat="45.71216892865834" lon="9.219718407811433"><ele>303.66666666666663</ele><time>2026-03-28T08:55:42Z</time></trkpt><trkpt lat="45.71230648177691" lon="9.21988221810843"><ele>303.3333333333333</ele><time>2026-03-28T08:55:43Z</time></trkpt><trkpt lat="45.71244580796681" lon="9.220056346479588"><ele>303.0</ele><time>2026-03-28T08:55:44Z</time></trkpt><trkpt lat="45.712576924045294" lon="9.22024904428395"><ele>303.0</ele><time>2026-03-28T08:55:45Z</time></trkpt><trkpt lat="45.71273653956398" lon="9.220448153856532"><ele>303.0</ele><time>2026-03-28T08:55:46Z</time></trkpt><trkpt lat="45.71290447820044" lon="9.22065737728442"><ele>303.0</ele><time>2026-03-28T08:55:47Z</time></trkpt><trkpt lat="45.71308369722027" lon="9.220850275304844"><ele>300.5</ele><time>2026-03-28T08:55:48Z</time></trkpt><trkpt lat="45.713250632811445" lon="9.22106248935775"><ele>298.0</ele><time>2026-03-28T08:55:49Z</time></trkpt><trkpt lat="45.71341430504186" lon="9.221288702028593"><ele>298.0</ele><time>2026-03-28T08:55:50Z</time></trkpt><trkpt lat="45.71356867461372" lon="9.221477531858733"><ele>298.0</ele><time>2026-03-28T08:55:51Z</time></trkpt><trkpt lat="45.7137242543572" lon="9.221669116172233"><ele>298.0</ele><time>2026-03-28T08:55:52Z</time></trkpt><trkpt lat="45.71387078088029" lon="9.22185833343025"><ele>298.3333333333333</ele><time>2026-03-28T08:55:53Z</time></trkpt><trkpt lat="45.714012781910355" lon="9.222043969626771"><ele>298.6666666666667</ele><time>2026-03-28T08:55:54Z</time></trkpt><trkpt lat="45.714163690739326" lon="9.222197244774643"><ele>299.0</ele><time>2026-03-28T08:55:55Z</time></trkpt><trkpt lat="45.71430081644688" lon="9.222340294274082"><ele>298.25</ele><time>2026-03-28T08:55:56Z</time></trkpt><trkpt lat="45.714428768950825" lon="9.222454649831995"><ele>297.5</ele><time>2026-03-28T08:55:57Z</time></trkpt><trkpt lat="45.71456134060061" lon="9.222590321469765"><ele>296.75</ele><time>2026-03-28T08:55:58Z</time></trkpt><trkpt lat="45.714654332771275" lon="9.222727817880596"><ele>296.0</ele><time>2026-03-28T08:55:59Z</time></trkpt><trkpt lat="45.714754133353686" lon="9.222875250064352"><ele>296.0</ele><time>2026-03-28T08:56:00Z</time></trkpt><trkpt lat="45.714854833228266" lon="9.223035683244705"><ele>296.0</ele><time>2026-03-28T08:56:01Z</time></trkpt><trkpt lat="45.714964852954154" lon="9.22320673050398"><ele>296.0</ele><time>2026-03-28T08:56:02Z</time></trkpt><trkpt lat="45.71507161816709" lon="9.223367397904822"><ele>296.33333333333337</ele><time>2026-03-28T08:56:03Z</time></trkpt><trkpt lat="45.71519504859244" lon="9.223512276357024"><ele>296.6666666666667</ele><time>2026-03-28T08:56:04Z</time></trkpt><trkpt lat="45.71534498502276" lon="9.223612004937472"><ele>297.0</ele><time>2026-03-28T08:56:05Z</time></trkpt><trkpt lat="45.715458206896336" lon="9.223693999839153"><ele>296.5</ele><time>2026-03-28T08:56:06Z</time></trkpt><trkpt lat="45.715591476765546" lon="9.223770912562307"><ele>296.0</ele><time>2026-03-28T08:56:07Z</time></trkpt><trkpt lat="45.715709849727006" lon="9.223862526611418"><ele>295.5</ele><time>2026-03-28T08:56:08Z</time></trkpt><trkpt lat="45.71581661221486" lon="9.223922218384978"><ele>295.0</ele><time>2026-03-28T08:56:09Z</time></trkpt><trkpt lat="45.715921698193974" lon="9.22396321817564"><ele>295.0</ele><time>2026-03-28T08:56:10Z</time></trkpt><trkpt lat="45.7160208022722" lon="9.223942374788283"><ele>295.0</ele><time>2026-03-28T08:56:11Z</time></trkpt><trkpt lat="45.71609341025838" lon="9.223821529590355"><ele>295.0</ele><time>2026-03-28T08:56:12Z</time></trkpt><trkpt lat="45.71619031830197" lon="9.223725878726816"><ele>295.0</ele><time>2026-03-28T08:56:13Z</time></trkpt><trkpt lat="45.716277104895546" lon="9.223609481169692"><ele>295.0</ele><time>2026-03-28T08:56:14Z</time></trkpt><trkpt lat="45.716357748713975" lon="9.223553737797829"><ele>294.0</ele><time>2026-03-28T08:56:15Z</time></trkpt><trkpt lat="45.71644734717983" lon="9.223490873501932"><ele>293.0</ele><time>2026-03-28T08:56:17Z</time></trkpt><trkpt lat="45.71648891517371" lon="9.223616416536288"><ele>292.0</ele><time>2026-03-28T08:56:20Z</time></trkpt><trkpt lat="45.716554404564825" lon="9.223790683542365"><ele>291.0</ele><time>2026-03-28T08:56:23Z</time></trkpt><trkpt lat="45.71657690758481" lon="9.223953884695794"><ele>289.6666666666667</ele><time>2026-03-28T08:56:24Z</time></trkpt><trkpt lat="45.71660033183162" lon="9.2241471603909"><ele>288.33333333333337</ele><time>2026-03-28T08:56:25Z</time></trkpt><trkpt lat="45.71663158269078" lon="9.22437490349682"><ele>287.0</ele><time>2026-03-28T08:56:26Z</time></trkpt><trkpt lat="45.716671181142885" lon="9.224631719472415"><ele>285.0</ele><time>2026-03-28T08:56:27Z</time></trkpt><trkpt lat="45.71671230529359" lon="9.224905314131652"><ele>283.0</ele><time>2026-03-28T08:56:28Z</time></trkpt><trkpt lat="45.71674635290397" lon="9.225173561487683"><ele>281.0</ele><time>2026-03-28T08:56:29Z</time></trkpt><trkpt lat="45.71677495427874" lon="9.225423891796886"><ele>279.0</ele><time>2026-03-28T08:56:30Z</time></trkpt><trkpt lat="45.71679363504992" lon="9.225660554242248"><ele>277.0</ele><time>2026-03-28T08:56:31Z</time></trkpt><trkpt lat="45.71679753946493" lon="9.225881078123718"><ele>275.0</ele><time>2026-03-28T08:56:32Z</time></trkpt><trkpt lat="45.71679444326062" lon="9.226099786594032"><ele>275.0</ele><time>2026-03-28T08:56:33Z</time></trkpt><trkpt lat="45.71678500408105" lon="9.22630768089109"><ele>275.0</ele><time>2026-03-28T08:56:34Z</time></trkpt><trkpt lat="45.71676251082015" lon="9.226512214671468"><ele>275.0</ele><time>2026-03-28T08:56:35Z</time></trkpt><trkpt lat="45.716731811372014" lon="9.226729646994258"><ele>275.0</ele><time>2026-03-28T08:56:36Z</time></trkpt><trkpt lat="45.71666184767745" lon="9.226948553158909"><ele>274.0</ele><time>2026-03-28T08:56:37Z</time></trkpt><trkpt lat="45.716593966997316" lon="9.227167659680234"><ele>273.0</ele><time>2026-03-28T08:56:38Z</time></trkpt><trkpt lat="45.71651603762684" lon="9.22738580350626"><ele>272.0</ele><time>2026-03-28T08:56:39Z</time></trkpt><trkpt lat="45.71641946822097" lon="9.227587638491036"><ele>270.0</ele><time>2026-03-28T08:56:40Z</time></trkpt><trkpt lat="45.716315603044585" lon="9.227787541148786"><ele>268.0</ele><time>2026-03-28T08:56:41Z</time></trkpt><trkpt lat="45.71620906452427" lon="9.227958834811394"><ele>266.0</ele><time>2026-03-28T08:56:42Z</time></trkpt><trkpt lat="45.71609390572893" lon="9.228107541518252"><ele>264.25</ele><time>2026-03-28T08:56:43Z</time></trkpt><trkpt lat="45.71597290685927" lon="9.228246936968581"><ele>262.5</ele><time>2026-03-28T08:56:44Z</time></trkpt><trkpt lat="45.71585739909525" lon="9.228374998051311"><ele>260.75</ele><time>2026-03-28T08:56:44.999Z</time></trkpt><trkpt lat="45.71575427256776" lon="9.228489314960425"><ele>259.0</ele><time>2026-03-28T08:56:45.999Z</time></trkpt><trkpt lat="45.71565081091003" lon="9.22860322277962"><ele>259.0</ele><time>2026-03-28T08:56:46.999Z</time></trkpt><trkpt lat="45.715518079770874" lon="9.228719163453666"><ele>259.0</ele><time>2026-03-28T08:56:47.999Z</time></trkpt><trkpt lat="45.7154264165018" lon="9.228864957264202"><ele>259.0</ele><time>2026-03-28T08:56:48.999Z</time></trkpt><trkpt lat="45.71531918135893" lon="9.228967773392055"><ele>259.0</ele><time>2026-03-28T08:56:49.999Z</time></trkpt><trkpt lat="45.71523211026579" lon="9.22908750098367"><ele>258.3333333333333</ele><time>2026-03-28T08:56:50.999Z</time></trkpt><trkpt lat="45.71515860273616" lon="9.22918657750375"><ele>257.66666666666663</ele><time>2026-03-28T08:56:51.999Z</time></trkpt><trkpt lat="45.71511402049731" lon="9.22925602021708"><ele>257.0</ele><time>2026-03-28T08:56:52.999Z</time></trkpt><trkpt lat="45.71505783330576" lon="9.229315162378143"><ele>256.3333333333333</ele><time>2026-03-28T08:56:53.999Z</time></trkpt><trkpt lat="45.71499730482111" lon="9.229360346683334"><ele>255.66666666666666</ele><time>2026-03-28T08:56:54.999Z</time></trkpt><trkpt lat="45.714890681291095" lon="9.229423177363234"><ele>255.0</ele><time>2026-03-28T08:56:56.999Z</time></trkpt><trkpt lat="45.714835963076396" lon="9.229566388591389"><ele>255.0</ele><time>2026-03-28T08:56:58.999Z</time></trkpt><trkpt lat="45.71487912677248" lon="9.229706420421035"><ele>255.0</ele><time>2026-03-28T08:57:00.999Z</time></trkpt><trkpt lat="45.7149880872152" lon="9.229759835696832"><ele>255.0</ele><time>2026-03-28T08:57:02.999Z</time></trkpt><trkpt lat="45.71505516304514" lon="9.229763422097266"><ele>255.0</ele><time>2026-03-28T08:57:03.999Z</time></trkpt><trkpt lat="45.715122446904466" lon="9.22977851320334"><ele>255.0</ele><time>2026-03-28T08:57:04.999Z</time></trkpt><trkpt lat="45.715192863400134" lon="9.22979579299915"><ele>255.0</ele><time>2026-03-28T08:57:05.999Z</time></trkpt><trkpt lat="45.715263139921085" lon="9.229806422227256"><ele>255.25</ele><time>2026-03-28T08:57:06.999Z</time></trkpt><trkpt lat="45.71535210035109" lon="9.229796559747514"><ele>255.5</ele><time>2026-03-28T08:57:07.999Z</time></trkpt><trkpt lat="45.71545159276638" lon="9.229734508527486"><ele>255.75</ele><time>2026-03-28T08:57:08.999Z</time></trkpt><trkpt lat="45.71552905761446" lon="9.229607170898381"><ele>256.0</ele><time>2026-03-28T08:57:09.999Z</time></trkpt><trkpt lat="45.71562265709042" lon="9.229455855373532"><ele>256.0</ele><time>2026-03-28T08:57:10.999Z</time></trkpt><trkpt lat="45.71572270121533" lon="9.229296659201248"><ele>256.0</ele><time>2026-03-28T08:57:11.999Z</time></trkpt><trkpt lat="45.71584519576162" lon="9.22921078338014"><ele>256.0</ele><time>2026-03-28T08:57:12.999Z</time></trkpt><trkpt lat="45.71594168414359" lon="9.229127174868628"><ele>256.0</ele><time>2026-03-28T08:57:13.999Z</time></trkpt><trkpt lat="45.71581779623457" lon="9.229192544291951"><ele>255.99999999999997</ele><time>2026-03-28T08:57:15Z</time></trkpt><trkpt lat="45.71588549144682" lon="9.229157705597677"><ele>256.0</ele><time>2026-03-28T08:57:16Z</time></trkpt><trkpt lat="45.715958574860686" lon="9.229153966583251"><ele>256.0</ele><time>2026-03-28T08:57:17Z</time></trkpt><trkpt lat="45.716035770658465" lon="9.22917866137874"><ele>256.0</ele><time>2026-03-28T08:57:18Z</time></trkpt><trkpt lat="45.7161058164531" lon="9.229243073631693"><ele>255.99999999999997</ele><time>2026-03-28T08:57:19Z</time></trkpt><trkpt lat="45.716155473366896" lon="9.229369720646252"><ele>256.0</ele><time>2026-03-28T08:57:20Z</time></trkpt><trkpt lat="45.71623598077481" lon="9.229453927194653"><ele>256.0</ele><time>2026-03-28T08:57:21Z</time></trkpt><trkpt lat="45.716307432533995" lon="9.229579612373346"><ele>256.0</ele><time>2026-03-28T08:57:22Z</time></trkpt><trkpt lat="45.716390002689124" lon="9.22972819117377"><ele>256.0</ele><time>2026-03-28T08:57:23Z</time></trkpt><trkpt lat="45.716488981541644" lon="9.229915470332722"><ele>256.0</ele><time>2026-03-28T08:57:24Z</time></trkpt><trkpt lat="45.71660154112533" lon="9.230119430887632"><ele>256.3333333333333</ele><time>2026-03-28T08:57:25Z</time></trkpt><trkpt lat="45.71672167270943" lon="9.230333517803944"><ele>256.6666666666667</ele><time>2026-03-28T08:57:26Z</time></trkpt><trkpt lat="45.71683794521802" lon="9.23055293749731"><ele>257.0</ele><time>2026-03-28T08:57:27Z</time></trkpt><trkpt lat="45.71695707166006" lon="9.230766193796354"><ele>255.66666666666669</ele><time>2026-03-28T08:57:28Z</time></trkpt><trkpt lat="45.717074116083296" lon="9.230991812098559"><ele>254.33333333333331</ele><time>2026-03-28T08:57:29Z</time></trkpt><trkpt lat="45.717195122980016" lon="9.23122050366278"><ele>253.0</ele><time>2026-03-28T08:57:30Z</time></trkpt><trkpt lat="45.71733152570085" lon="9.231458074428872"><ele>250.0</ele><time>2026-03-28T08:57:31Z</time></trkpt><trkpt lat="45.71749105435758" lon="9.231721672969964"><ele>247.0</ele><time>2026-03-28T08:57:32Z</time></trkpt><trkpt lat="45.71765670297715" lon="9.232009424238647"><ele>246.0</ele><time>2026-03-28T08:57:33Z</time></trkpt><trkpt lat="45.71781523925933" lon="9.232310672664017"><ele>245.0</ele><time>2026-03-28T08:57:34Z</time></trkpt><trkpt lat="45.717965936560425" lon="9.232591894948328"><ele>245.0</ele><time>2026-03-28T08:57:35Z</time></trkpt><trkpt lat="45.71810918697224" lon="9.232854931658594"><ele>245.0</ele><time>2026-03-28T08:57:36Z</time></trkpt><trkpt lat="45.718250960786676" lon="9.233118559266519"><ele>243.33333333333334</ele><time>2026-03-28T08:57:37Z</time></trkpt><trkpt lat="45.71838143768019" lon="9.233360442227966"><ele>241.66666666666669</ele><time>2026-03-28T08:57:38Z</time></trkpt><trkpt lat="45.71851341117731" lon="9.233604286361018"><ele>240.0</ele><time>2026-03-28T08:57:39Z</time></trkpt><trkpt lat="45.7186469256143" lon="9.233844428205083"><ele>242.0</ele><time>2026-03-28T08:57:40Z</time></trkpt><trkpt lat="45.718775006819726" lon="9.234074998874322"><ele>244.0</ele><time>2026-03-28T08:57:41Z</time></trkpt><trkpt lat="45.718899284549444" lon="9.234313807091816"><ele>246.0</ele><time>2026-03-28T08:57:42Z</time></trkpt><trkpt lat="45.71901952411463" lon="9.23455134382739"><ele>246.0</ele><time>2026-03-28T08:57:43Z</time></trkpt><trkpt lat="45.71915326955132" lon="9.234800134086509"><ele>246.0</ele><time>2026-03-28T08:57:44Z</time></trkpt><trkpt lat="45.71930130773573" lon="9.235063153128317"><ele>250.5</ele><time>2026-03-28T08:57:45Z</time></trkpt><trkpt lat="45.71945315934275" lon="9.23534338897561"><ele>255.0</ele><time>2026-03-28T08:57:46Z</time></trkpt><trkpt lat="45.71960573796096" lon="9.235640368800604"><ele>255.0</ele><time>2026-03-28T08:57:47Z</time></trkpt><trkpt lat="45.71974838443634" lon="9.235909685281545"><ele>255.0</ele><time>2026-03-28T08:57:48Z</time></trkpt><trkpt lat="45.71988928714605" lon="9.236168152905925"><ele>255.0</ele><time>2026-03-28T08:57:49Z</time></trkpt><trkpt lat="45.72002931022718" lon="9.236423797918768"><ele>255.0</ele><time>2026-03-28T08:57:50Z</time></trkpt><trkpt lat="45.7201586399572" lon="9.23667575493384"><ele>255.0</ele><time>2026-03-28T08:57:51Z</time></trkpt><trkpt lat="45.72028206894225" lon="9.236894004253195"><ele>253.66666666666669</ele><time>2026-03-28T08:57:52Z</time></trkpt><trkpt lat="45.72039814062145" lon="9.23710961404679"><ele>252.33333333333334</ele><time>2026-03-28T08:57:53Z</time></trkpt><trkpt lat="45.72051489319127" lon="9.237320493789328"><ele>251.0</ele><time>2026-03-28T08:57:54Z</time></trkpt><trkpt lat="45.72062789748543" lon="9.237535290818236"><ele>250.33333333333334</ele><time>2026-03-28T08:57:55Z</time></trkpt><trkpt lat="45.72073302309435" lon="9.237741544363196"><ele>249.66666666666669</ele><time>2026-03-28T08:57:56Z</time></trkpt><trkpt lat="45.720830357805184" lon="9.237941779421197"><ele>249.0</ele><time>2026-03-28T08:57:57Z</time></trkpt><trkpt lat="45.72092757914591" lon="9.23815485968058"><ele>246.66666666666669</ele><time>2026-03-28T08:57:58Z</time></trkpt><trkpt lat="45.721034917665264" lon="9.238384170824002"><ele>244.33333333333334</ele><time>2026-03-28T08:57:59Z</time></trkpt><trkpt lat="45.721165736387746" lon="9.238619764657589"><ele>242.0</ele><time>2026-03-28T08:58:00Z</time></trkpt><trkpt lat="45.721292661885045" lon="9.238866980422056"><ele>242.0</ele><time>2026-03-28T08:58:01Z</time></trkpt><trkpt lat="45.72141123705276" lon="9.239089437017737"><ele>242.0</ele><time>2026-03-28T08:58:02Z</time></trkpt><trkpt lat="45.721524619664834" lon="9.239303415431703"><ele>242.0</ele><time>2026-03-28T08:58:03Z</time></trkpt><trkpt lat="45.72163854357841" lon="9.239519183770017"><ele>242.0</ele><time>2026-03-28T08:58:04Z</time></trkpt><trkpt lat="45.721758933378936" lon="9.239738947827254"><ele>242.0</ele><time>2026-03-28T08:58:05Z</time></trkpt><trkpt lat="45.721873396114106" lon="9.239943465350523"><ele>242.0</ele><time>2026-03-28T08:58:06Z</time></trkpt><trkpt lat="45.72197992097048" lon="9.240144219533343"><ele>242.66666666666669</ele><time>2026-03-28T08:58:07Z</time></trkpt><trkpt lat="45.72209194133321" lon="9.24035863053272"><ele>243.33333333333331</ele><time>2026-03-28T08:58:08Z</time></trkpt><trkpt lat="45.722207450792375" lon="9.240573143686728"><ele>244.0</ele><time>2026-03-28T08:58:09Z</time></trkpt><trkpt lat="45.72232192150881" lon="9.240774247644746"><ele>246.75</ele><time>2026-03-28T08:58:10Z</time></trkpt><trkpt lat="45.72242356576064" lon="9.24094967324507"><ele>249.5</ele><time>2026-03-28T08:58:11Z</time></trkpt><trkpt lat="45.7225169747691" lon="9.241116845538745"><ele>252.25</ele><time>2026-03-28T08:58:12Z</time></trkpt><trkpt lat="45.7226070848711" lon="9.241271715727638"><ele>255.0</ele><time>2026-03-28T08:58:13Z</time></trkpt><trkpt lat="45.72269064797638" lon="9.241431506823195"><ele>255.5</ele><time>2026-03-28T08:58:14Z</time></trkpt><trkpt lat="45.722776381740694" lon="9.241596218778149"><ele>256.0</ele><time>2026-03-28T08:58:15Z</time></trkpt><trkpt lat="45.72286650252312" lon="9.241771831930176"><ele>256.5</ele><time>2026-03-28T08:58:16Z</time></trkpt><trkpt lat="45.7229591815635" lon="9.241931160223503"><ele>257.0</ele><time>2026-03-28T08:58:17Z</time></trkpt><trkpt lat="45.7230453042297" lon="9.242102792954006"><ele>257.0</ele><time>2026-03-28T08:58:18Z</time></trkpt><trkpt lat="45.72314070404898" lon="9.242271210589582"><ele>257.0</ele><time>2026-03-28T08:58:19Z</time></trkpt><trkpt lat="45.72324144306335" lon="9.24244467512881"><ele>257.0</ele><time>2026-03-28T08:58:20Z</time></trkpt><trkpt lat="45.72333609396666" lon="9.242614738502647"><ele>258.33333333333337</ele><time>2026-03-28T08:58:21Z</time></trkpt><trkpt lat="45.723442346019915" lon="9.242775981043073"><ele>259.6666666666667</ele><time>2026-03-28T08:58:22Z</time></trkpt><trkpt lat="45.723560028664764" lon="9.242943466795658"><ele>261.0</ele><time>2026-03-28T08:58:23Z</time></trkpt><trkpt lat="45.723715602004184" lon="9.243134822685134"><ele>262.3333333333333</ele><time>2026-03-28T08:58:24Z</time></trkpt><trkpt lat="45.72387758388836" lon="9.243338833828233"><ele>263.66666666666663</ele><time>2026-03-28T08:58:25Z</time></trkpt><trkpt lat="45.72398939780035" lon="9.243468470148915"><ele>265.0</ele><time>2026-03-28T08:58:26Z</time></trkpt><trkpt lat="45.724083510809756" lon="9.243600403791394"><ele>265.0</ele><time>2026-03-28T08:58:27Z</time></trkpt><trkpt lat="45.72421178392029" lon="9.243733747057764"><ele>265.0</ele><time>2026-03-28T08:58:28Z</time></trkpt><trkpt lat="45.72438928187114" lon="9.243955290485468"><ele>265.0</ele><time>2026-03-28T08:58:29Z</time></trkpt><trkpt lat="45.72461100135096" lon="9.2441656068299"><ele>268.0</ele><time>2026-03-28T08:58:30Z</time></trkpt><trkpt lat="45.72484430003999" lon="9.24438466030714"><ele>271.0</ele><time>2026-03-28T08:58:31Z</time></trkpt><trkpt lat="45.725053038528316" lon="9.244582067008102"><ele>270.66666666666663</ele><time>2026-03-28T08:58:32Z</time></trkpt><trkpt lat="45.72523721575337" lon="9.244766215088802"><ele>270.3333333333333</ele><time>2026-03-28T08:58:33Z</time></trkpt><trkpt lat="45.725417292331336" lon="9.244943818962255"><ele>270.0</ele><time>2026-03-28T08:58:34Z</time></trkpt><trkpt lat="45.72560326688239" lon="9.245122923866598"><ele>270.0</ele><time>2026-03-28T08:58:35Z</time></trkpt><trkpt lat="45.72579087461131" lon="9.245306114072832"><ele>270.0</ele><time>2026-03-28T08:58:36Z</time></trkpt><trkpt lat="45.725984283065294" lon="9.245502010944776"><ele>267.0</ele><time>2026-03-28T08:58:37Z</time></trkpt><trkpt lat="45.7261913225098" lon="9.24570035681353"><ele>264.0</ele><time>2026-03-28T08:58:38Z</time></trkpt><trkpt lat="45.72637411981241" lon="9.245895306525147"><ele>264.0</ele><time>2026-03-28T08:58:39Z</time></trkpt><trkpt lat="45.726589113448405" lon="9.246101794145671"><ele>264.0</ele><time>2026-03-28T08:58:40Z</time></trkpt><trkpt lat="45.726813308557794" lon="9.24635457165277"><ele>262.5</ele><time>2026-03-28T08:58:41Z</time></trkpt><trkpt lat="45.727044398196725" lon="9.24658705718033"><ele>261.0</ele><time>2026-03-28T08:58:42Z</time></trkpt><trkpt lat="45.72728845578643" lon="9.246821495066714"><ele>261.0</ele><time>2026-03-28T08:58:43Z</time></trkpt><trkpt lat="45.72754874833802" lon="9.247073895163366"><ele>261.0</ele><time>2026-03-28T08:58:44Z</time></trkpt><trkpt lat="45.727808173401364" lon="9.247320848734745"><ele>258.5</ele><time>2026-03-28T08:58:45Z</time></trkpt><trkpt lat="45.72805090470938" lon="9.2475572866231"><ele>256.0</ele><time>2026-03-28T08:58:46Z</time></trkpt><trkpt lat="45.72827750869517" lon="9.247780649345565"><ele>256.0</ele><time>2026-03-28T08:58:47Z</time></trkpt><trkpt lat="45.72849451597859" lon="9.247995341139239"><ele>256.0</ele><time>2026-03-28T08:58:48Z</time></trkpt><trkpt lat="45.72870246993942" lon="9.248201269273359"><ele>255.5</ele><time>2026-03-28T08:58:49Z</time></trkpt><trkpt lat="45.72891360111217" lon="9.248378752236356"><ele>255.0</ele><time>2026-03-28T08:58:50Z</time></trkpt><trkpt lat="45.72912613403988" lon="9.248508146228959"><ele>255.0</ele><time>2026-03-28T08:58:51Z</time></trkpt><trkpt lat="45.72933147432066" lon="9.248614693772412"><ele>255.0</ele><time>2026-03-28T08:58:52Z</time></trkpt><trkpt lat="45.72953764672416" lon="9.248709230969123"><ele>255.0</ele><time>2026-03-28T08:58:53Z</time></trkpt><trkpt lat="45.72974444516241" lon="9.24877333538694"><ele>254.0</ele><time>2026-03-28T08:58:54Z</time></trkpt><trkpt lat="45.72994992955961" lon="9.24884768945091"><ele>253.0</ele><time>2026-03-28T08:58:55Z</time></trkpt><trkpt lat="45.730191334367134" lon="9.248889808427846"><ele>250.0</ele><time>2026-03-28T08:58:56Z</time></trkpt><trkpt lat="45.73043790041292" lon="9.248933951835829"><ele>247.0</ele><time>2026-03-28T08:58:57Z</time></trkpt><trkpt lat="45.73068718554619" lon="9.24894946833229"><ele>246.5</ele><time>2026-03-28T08:58:58Z</time></trkpt><trkpt lat="45.73091845335874" lon="9.248974654718225"><ele>246.0</ele><time>2026-03-28T08:58:59Z</time></trkpt><trkpt lat="45.731144430616354" lon="9.249005711209303"><ele>244.5</ele><time>2026-03-28T08:59:00Z</time></trkpt><trkpt lat="45.731372234784445" lon="9.249034119074716"><ele>243.0</ele><time>2026-03-28T08:59:01Z</time></trkpt><trkpt lat="45.73160058002341" lon="9.249061576928726"><ele>243.0</ele><time>2026-03-28T08:59:02Z</time></trkpt><trkpt lat="45.731831122866105" lon="9.249093086863061"><ele>243.0</ele><time>2026-03-28T08:59:03Z</time></trkpt><trkpt lat="45.73206444557713" lon="9.249128297086592"><ele>243.0</ele><time>2026-03-28T08:59:04Z</time></trkpt><trkpt lat="45.73229170258961" lon="9.249156851074611"><ele>243.0</ele><time>2026-03-28T08:59:05Z</time></trkpt><trkpt lat="45.73252095910576" lon="9.249188170917888"><ele>243.0</ele><time>2026-03-28T08:59:06Z</time></trkpt><trkpt lat="45.73275077192036" lon="9.249218543720433"><ele>243.0</ele><time>2026-03-28T08:59:07Z</time></trkpt><trkpt lat="45.73297577751147" lon="9.24925384283708"><ele>243.0</ele><time>2026-03-28T08:59:08Z</time></trkpt><trkpt lat="45.73320558375452" lon="9.249284089718728"><ele>243.0</ele><time>2026-03-28T08:59:09Z</time></trkpt><trkpt lat="45.733421993636014" lon="9.249317440101455"><ele>243.0</ele><time>2026-03-28T08:59:10Z</time></trkpt><trkpt lat="45.73363366835972" lon="9.249345148117666"><ele>243.0</ele><time>2026-03-28T08:59:11Z</time></trkpt><trkpt lat="45.73383313728607" lon="9.24937354054929"><ele>243.0</ele><time>2026-03-28T08:59:12Z</time></trkpt><trkpt lat="45.734028461594185" lon="9.249398114434708"><ele>243.0</ele><time>2026-03-28T08:59:13Z</time></trkpt><trkpt lat="45.73423351746248" lon="9.249426514433305"><ele>242.66666666666669</ele><time>2026-03-28T08:59:14Z</time></trkpt><trkpt lat="45.73444731039432" lon="9.249463222047599"><ele>242.33333333333334</ele><time>2026-03-28T08:59:15Z</time></trkpt><trkpt lat="45.73466226607937" lon="9.24949488233199"><ele>242.0</ele><time>2026-03-28T08:59:16Z</time></trkpt><trkpt lat="45.73486951972642" lon="9.249522328825062"><ele>242.0</ele><time>2026-03-28T08:59:17Z</time></trkpt><trkpt lat="45.73508088341442" lon="9.249545669757374"><ele>242.0</ele><time>2026-03-28T08:59:18Z</time></trkpt><trkpt lat="45.73530137134545" lon="9.249577457051345"><ele>242.0</ele><time>2026-03-28T08:59:19Z</time></trkpt><trkpt lat="45.735532861863405" lon="9.249625758646674"><ele>241.5</ele><time>2026-03-28T08:59:20Z</time></trkpt><trkpt lat="45.73577079739926" lon="9.249676023694851"><ele>241.0</ele><time>2026-03-28T08:59:21Z</time></trkpt><trkpt lat="45.73601793324713" lon="9.249735687820293"><ele>242.0</ele><time>2026-03-28T08:59:22Z</time></trkpt><trkpt lat="45.73626491446828" lon="9.249815788665039"><ele>243.0</ele><time>2026-03-28T08:59:23Z</time></trkpt><trkpt lat="45.73650571102798" lon="9.24993731394606"><ele>243.0</ele><time>2026-03-28T08:59:24Z</time></trkpt><trkpt lat="45.736733010617954" lon="9.250077703890865"><ele>243.0</ele><time>2026-03-28T08:59:25Z</time></trkpt><trkpt lat="45.73695347061343" lon="9.250227249873703"><ele>243.0</ele><time>2026-03-28T08:59:26Z</time></trkpt><trkpt lat="45.73714729037624" lon="9.250382808158113"><ele>243.0</ele><time>2026-03-28T08:59:27Z</time></trkpt><trkpt lat="45.73732894863204" lon="9.250551680836903"><ele>243.0</ele><time>2026-03-28T08:59:28Z</time></trkpt><trkpt lat="45.73750067400372" lon="9.250733318987253"><ele>243.66666666666669</ele><time>2026-03-28T08:59:29Z</time></trkpt><trkpt lat="45.737671453747126" lon="9.250929994390397"><ele>244.33333333333334</ele><time>2026-03-28T08:59:30Z</time></trkpt><trkpt lat="45.73784551583216" lon="9.251131911163732"><ele>245.0</ele><time>2026-03-28T08:59:31Z</time></trkpt><trkpt lat="45.73802061995954" lon="9.25132853046962"><ele>246.33333333333334</ele><time>2026-03-28T08:59:32Z</time></trkpt><trkpt lat="45.7381942098169" lon="9.251520379101908"><ele>247.66666666666669</ele><time>2026-03-28T08:59:33Z</time></trkpt><trkpt lat="45.73836232042288" lon="9.251706557958453"><ele>249.0</ele><time>2026-03-28T08:59:34Z</time></trkpt><trkpt lat="45.738542472316524" lon="9.251907921715498"><ele>249.66666666666669</ele><time>2026-03-28T08:59:35Z</time></trkpt><trkpt lat="45.73871301375662" lon="9.252089382741078"><ele>250.33333333333334</ele><time>2026-03-28T08:59:36Z</time></trkpt><trkpt lat="45.738881986705536" lon="9.25227256526828"><ele>251.0</ele><time>2026-03-28T08:59:37Z</time></trkpt><trkpt lat="45.739054781117375" lon="9.252455392895092"><ele>251.5</ele><time>2026-03-28T08:59:38Z</time></trkpt><trkpt lat="45.73923235842036" lon="9.25265502826166"><ele>252.0</ele><time>2026-03-28T08:59:39Z</time></trkpt><trkpt lat="45.7394250337072" lon="9.252874047828293"><ele>254.0</ele><time>2026-03-28T08:59:40Z</time></trkpt><trkpt lat="45.73963354331393" lon="9.25309614002774"><ele>256.0</ele><time>2026-03-28T08:59:41Z</time></trkpt><trkpt lat="45.73983353949054" lon="9.253321679218"><ele>256.5</ele><time>2026-03-28T08:59:42Z</time></trkpt><trkpt lat="45.740046806647825" lon="9.253556838563766"><ele>257.0</ele><time>2026-03-28T08:59:43Z</time></trkpt><trkpt lat="45.740259175834844" lon="9.253796926416754"><ele>257.0</ele><time>2026-03-28T08:59:44Z</time></trkpt><trkpt lat="45.74046826009696" lon="9.254020301965978"><ele>257.0</ele><time>2026-03-28T08:59:45Z</time></trkpt><trkpt lat="45.74065865952215" lon="9.254238813454664"><ele>257.0</ele><time>2026-03-28T08:59:46Z</time></trkpt><trkpt lat="45.74088381160028" lon="9.25448524435616"><ele>257.0</ele><time>2026-03-28T08:59:47Z</time></trkpt><trkpt lat="45.74115466254723" lon="9.254775615979101"><ele>256.0</ele><time>2026-03-28T08:59:48Z</time></trkpt><trkpt lat="45.741413389989326" lon="9.255059521707345"><ele>255.0</ele><time>2026-03-28T08:59:49Z</time></trkpt><trkpt lat="45.74164420857771" lon="9.255316535675156"><ele>255.0</ele><time>2026-03-28T08:59:50Z</time></trkpt><trkpt lat="45.74186520093702" lon="9.255565320698862"><ele>255.0</ele><time>2026-03-28T08:59:51Z</time></trkpt><trkpt lat="45.74207081943735" lon="9.255790279412102"><ele>254.5</ele><time>2026-03-28T08:59:52Z</time></trkpt><trkpt lat="45.74224749070569" lon="9.256002436178884"><ele>254.0</ele><time>2026-03-28T08:59:53Z</time></trkpt><trkpt lat="45.74243864357015" lon="9.256207952781352"><ele>254.0</ele><time>2026-03-28T08:59:54Z</time></trkpt><trkpt lat="45.742618230578856" lon="9.256414287546537"><ele>254.0</ele><time>2026-03-28T08:59:55Z</time></trkpt><trkpt lat="45.74280738606999" lon="9.256622433784065"><ele>255.0</ele><time>2026-03-28T08:59:56Z</time></trkpt><trkpt lat="45.743002268770525" lon="9.256835563375084"><ele>256.0</ele><time>2026-03-28T08:59:57Z</time></trkpt><trkpt lat="45.7431935117526" lon="9.257056937777506"><ele>256.0</ele><time>2026-03-28T08:59:58Z</time></trkpt><trkpt lat="45.74337090494143" lon="9.257270886190119"><ele>256.0</ele><time>2026-03-28T08:59:59Z</time></trkpt><trkpt lat="45.74354176984727" lon="9.25747768007314"><ele>256.3333333333333</ele><time>2026-03-28T09:00:00Z</time></trkpt><trkpt lat="45.743708927881514" lon="9.257673927904383"><ele>256.6666666666667</ele><time>2026-03-28T09:00:01Z</time></trkpt><trkpt lat="45.743884787046134" lon="9.257868341214953"><ele>257.0</ele><time>2026-03-28T09:00:02Z</time></trkpt><trkpt lat="45.74406835665785" lon="9.258066797143634"><ele>257.5</ele><time>2026-03-28T09:00:03Z</time></trkpt><trkpt lat="45.74425899156789" lon="9.258277656620814"><ele>258.0</ele><time>2026-03-28T09:00:04Z</time></trkpt><trkpt lat="45.74445454366316" lon="9.258482681951717"><ele>258.0</ele><time>2026-03-28T09:00:05Z</time></trkpt><trkpt lat="45.7446361080984" lon="9.258688640902323"><ele>258.0</ele><time>2026-03-28T09:00:06Z</time></trkpt><trkpt lat="45.744812876792174" lon="9.258890278213219"><ele>258.0</ele><time>2026-03-28T09:00:07Z</time></trkpt><trkpt lat="45.744980946833465" lon="9.259076830393854"><ele>258.0</ele><time>2026-03-28T09:00:08Z</time></trkpt><trkpt lat="45.74516218680312" lon="9.259269209060982"><ele>258.0</ele><time>2026-03-28T09:00:09Z</time></trkpt><trkpt lat="45.74533464394943" lon="9.259463418468213"><ele>257.3333333333333</ele><time>2026-03-28T09:00:10Z</time></trkpt><trkpt lat="45.745508734209764" lon="9.259662397060499"><ele>256.66666666666663</ele><time>2026-03-28T09:00:11Z</time></trkpt><trkpt lat="45.74568463075031" lon="9.259858849209682"><ele>256.0</ele><time>2026-03-28T09:00:12Z</time></trkpt><trkpt lat="45.74586602731771" lon="9.26006644022069"><ele>256.0</ele><time>2026-03-28T09:00:13Z</time></trkpt><trkpt lat="45.746049906348624" lon="9.260279791670039"><ele>256.0</ele><time>2026-03-28T09:00:14Z</time></trkpt><trkpt lat="45.74624011425481" lon="9.260484815424013"><ele>257.0</ele><time>2026-03-28T09:00:15Z</time></trkpt><trkpt lat="45.7464308955242" lon="9.260687078024391"><ele>258.0</ele><time>2026-03-28T09:00:16Z</time></trkpt><trkpt lat="45.746628048081234" lon="9.260908281841873"><ele>258.0</ele><time>2026-03-28T09:00:17Z</time></trkpt><trkpt lat="45.746828589780684" lon="9.261149806096608"><ele>258.0</ele><time>2026-03-28T09:00:18Z</time></trkpt><trkpt lat="45.7470320051674" lon="9.26139778111703"><ele>260.0</ele><time>2026-03-28T09:00:19Z</time></trkpt><trkpt lat="45.74723421999155" lon="9.26163226908223"><ele>262.0</ele><time>2026-03-28T09:00:20Z</time></trkpt><trkpt lat="45.747421528372875" lon="9.26183665626921"><ele>262.0</ele><time>2026-03-28T09:00:21Z</time></trkpt><trkpt lat="45.747598309984014" lon="9.262026297562924"><ele>262.0</ele><time>2026-03-28T09:00:22Z</time></trkpt><trkpt lat="45.747770107670206" lon="9.262214661208738"><ele>262.0</ele><time>2026-03-28T09:00:23Z</time></trkpt><trkpt lat="45.74794352228047" lon="9.262406457011542"><ele>261.66666666666663</ele><time>2026-03-28T09:00:24Z</time></trkpt><trkpt lat="45.74811837398894" lon="9.262603155302399"><ele>261.3333333333333</ele><time>2026-03-28T09:00:25Z</time></trkpt><trkpt lat="45.74828533076967" lon="9.262791854922934"><ele>261.0</ele><time>2026-03-28T09:00:26Z</time></trkpt><trkpt lat="45.74846035566532" lon="9.262984207732424"><ele>261.0</ele><time>2026-03-28T09:00:27Z</time></trkpt><trkpt lat="45.7486282051953" lon="9.263166850438358"><ele>261.0</ele><time>2026-03-28T09:00:28Z</time></trkpt><trkpt lat="45.748794574317785" lon="9.263350065931197"><ele>261.0</ele><time>2026-03-28T09:00:29Z</time></trkpt><trkpt lat="45.74895839975991" lon="9.263534386209908"><ele>261.0</ele><time>2026-03-28T09:00:30Z</time></trkpt><trkpt lat="45.74912287061089" lon="9.26371088479189"><ele>261.0</ele><time>2026-03-28T09:00:31Z</time></trkpt><trkpt lat="45.7492850159799" lon="9.263884880977422"><ele>261.0</ele><time>2026-03-28T09:00:32.001Z</time></trkpt><trkpt lat="45.749442937601586" lon="9.264055720687864"><ele>262.0</ele><time>2026-03-28T09:00:33.001Z</time></trkpt><trkpt lat="45.74958991043003" lon="9.264226782886404"><ele>263.0</ele><time>2026-03-28T09:00:34.001Z</time></trkpt><trkpt lat="45.74974003970517" lon="9.264388564086477"><ele>264.0</ele><time>2026-03-28T09:00:35.001Z</time></trkpt><trkpt lat="45.74990067943934" lon="9.264562891753085"><ele>264.0</ele><time>2026-03-28T09:00:36.001Z</time></trkpt><trkpt lat="45.75005904568404" lon="9.26474109465832"><ele>264.0</ele><time>2026-03-28T09:00:37.001Z</time></trkpt><trkpt lat="45.750214465099745" lon="9.264917152304042"><ele>264.0</ele><time>2026-03-28T09:00:38.001Z</time></trkpt><trkpt lat="45.750374641666525" lon="9.265094115726221"><ele>267.6666666666667</ele><time>2026-03-28T09:00:39.001Z</time></trkpt><trkpt lat="45.750545904053304" lon="9.265275616814314"><ele>271.33333333333337</ele><time>2026-03-28T09:00:40.001Z</time></trkpt><trkpt lat="45.750726818742415" lon="9.265487171821086"><ele>275.0</ele><time>2026-03-28T09:00:41.001Z</time></trkpt><trkpt lat="45.750918612281154" lon="9.265718343919843"><ele>280.0</ele><time>2026-03-28T09:00:42.001Z</time></trkpt><trkpt lat="45.75113467346933" lon="9.265947849725709"><ele>285.0</ele><time>2026-03-28T09:00:43.001Z</time></trkpt><trkpt lat="45.75132055130036" lon="9.266145471125228"><ele>285.0</ele><time>2026-03-28T09:00:44.001Z</time></trkpt><trkpt lat="45.751492269977525" lon="9.26634107139369"><ele>285.0</ele><time>2026-03-28T09:00:45.001Z</time></trkpt><trkpt lat="45.751659938546226" lon="9.26655127519128"><ele>285.0</ele><time>2026-03-28T09:00:46.001Z</time></trkpt><trkpt lat="45.75182668260896" lon="9.266772976078284"><ele>282.5</ele><time>2026-03-28T09:00:47.001Z</time></trkpt><trkpt lat="45.75199404288775" lon="9.266995783538588"><ele>280.0</ele><time>2026-03-28T09:00:48.001Z</time></trkpt><trkpt lat="45.75216098331193" lon="9.267238437100264"><ele>278.3333333333333</ele><time>2026-03-28T09:00:49.001Z</time></trkpt><trkpt lat="45.75231436139123" lon="9.267481697199667"><ele>276.6666666666667</ele><time>2026-03-28T09:00:50.001Z</time></trkpt><trkpt lat="45.75246801578455" lon="9.267704853920993"><ele>275.0</ele><time>2026-03-28T09:00:51.001Z</time></trkpt><trkpt lat="45.752617796282706" lon="9.267928951238373"><ele>275.33333333333337</ele><time>2026-03-28T09:00:52.001Z</time></trkpt><trkpt lat="45.75276863246323" lon="9.268155213842682"><ele>275.6666666666667</ele><time>2026-03-28T09:00:53.001Z</time></trkpt><trkpt lat="45.75291847348252" lon="9.268377240232601"><ele>276.0</ele><time>2026-03-28T09:00:54.001Z</time></trkpt><trkpt lat="45.75306555466369" lon="9.268596993381973"><ele>276.0</ele><time>2026-03-28T09:00:55.001Z</time></trkpt><trkpt lat="45.75320643841525" lon="9.268815401009054"><ele>276.0</ele><time>2026-03-28T09:00:56.001Z</time></trkpt><trkpt lat="45.753359492991265" lon="9.269038696664264"><ele>276.0</ele><time>2026-03-28T09:00:57Z</time></trkpt><trkpt lat="45.753505073301234" lon="9.269262422844768"><ele>276.0</ele><time>2026-03-28T09:00:58Z</time></trkpt><trkpt lat="45.75365988161655" lon="9.269510409914043"><ele>276.0</ele><time>2026-03-28T09:00:59Z</time></trkpt><trkpt lat="45.75382979857175" lon="9.269791023844826"><ele>276.0</ele><time>2026-03-28T09:01:00Z</time></trkpt><trkpt lat="45.75401809324493" lon="9.270090697027511"><ele>276.0</ele><time>2026-03-28T09:01:01Z</time></trkpt><trkpt lat="45.75422702915374" lon="9.270407202481907"><ele>275.5</ele><time>2026-03-28T09:01:02Z</time></trkpt><trkpt lat="45.754447669356175" lon="9.270729605806535"><ele>275.0</ele><time>2026-03-28T09:01:03Z</time></trkpt><trkpt lat="45.75466081565902" lon="9.271038951373624"><ele>275.0</ele><time>2026-03-28T09:01:04Z</time></trkpt><trkpt lat="45.75484612905708" lon="9.27132870212191"><ele>275.0</ele><time>2026-03-28T09:01:05Z</time></trkpt><trkpt lat="45.75502228044376" lon="9.271584426618952"><ele>275.33333333333337</ele><time>2026-03-28T09:01:06Z</time></trkpt><trkpt lat="45.75518380421701" lon="9.27181586630445"><ele>275.6666666666667</ele><time>2026-03-28T09:01:07Z</time></trkpt><trkpt lat="45.75533108523265" lon="9.272028026082648"><ele>276.0</ele><time>2026-03-28T09:01:08Z</time></trkpt><trkpt lat="45.755465812557915" lon="9.2722474400992"><ele>276.5</ele><time>2026-03-28T09:01:09Z</time></trkpt><trkpt lat="45.755602248082624" lon="9.272481241316786"><ele>277.0</ele><time>2026-03-28T09:01:10Z</time></trkpt><trkpt lat="45.75575833019579" lon="9.27273738348325"><ele>277.0</ele><time>2026-03-28T09:01:11Z</time></trkpt><trkpt lat="45.75592682325258" lon="9.273000459973233"><ele>277.0</ele><time>2026-03-28T09:01:12Z</time></trkpt><trkpt lat="45.7560912944786" lon="9.273243627446194"><ele>277.66666666666663</ele><time>2026-03-28T09:01:13Z</time></trkpt><trkpt lat="45.756238892704175" lon="9.273461609047267"><ele>278.3333333333333</ele><time>2026-03-28T09:01:14Z</time></trkpt><trkpt lat="45.75639081430228" lon="9.273690539612668"><ele>279.0</ele><time>2026-03-28T09:01:15Z</time></trkpt><trkpt lat="45.7565428867704" lon="9.27392295257027"><ele>280.0</ele><time>2026-03-28T09:01:16Z</time></trkpt><trkpt lat="45.75669762815468" lon="9.274158916028913"><ele>281.0</ele><time>2026-03-28T09:01:17Z</time></trkpt><trkpt lat="45.7568615316079" lon="9.274386792936353"><ele>280.5</ele><time>2026-03-28T09:01:18Z</time></trkpt><trkpt lat="45.75702695077345" lon="9.274612250854737"><ele>280.0</ele><time>2026-03-28T09:01:19Z</time></trkpt><trkpt lat="45.75718563230469" lon="9.274837676297814"><ele>281.0</ele><time>2026-03-28T09:01:20Z</time></trkpt><trkpt lat="45.75734106847793" lon="9.275060811240232"><ele>282.0</ele><time>2026-03-28T09:01:21Z</time></trkpt><trkpt lat="45.7575024664241" lon="9.275306760343046"><ele>284.0</ele><time>2026-03-28T09:01:22Z</time></trkpt><trkpt lat="45.757609340129534" lon="9.275639080010185"><ele>286.0</ele><time>2026-03-28T09:01:23Z</time></trkpt><trkpt lat="45.757778740058335" lon="9.275887781087151"><ele>286.0</ele><time>2026-03-28T09:01:24Z</time></trkpt><trkpt lat="45.757945341126394" lon="9.276139109978818"><ele>286.0</ele><time>2026-03-28T09:01:25Z</time></trkpt><trkpt lat="45.75811130797266" lon="9.27639680600505"><ele>288.5</ele><time>2026-03-28T09:01:26Z</time></trkpt><trkpt lat="45.758267103596296" lon="9.276650111498423"><ele>291.0</ele><time>2026-03-28T09:01:27Z</time></trkpt><trkpt lat="45.758410497069384" lon="9.276915439789189"><ele>290.5</ele><time>2026-03-28T09:01:28Z</time></trkpt><trkpt lat="45.75854739307672" lon="9.277184452416027"><ele>290.0</ele><time>2026-03-28T09:01:29Z</time></trkpt><trkpt lat="45.758678950819345" lon="9.277455733323517"><ele>290.0</ele><time>2026-03-28T09:01:30Z</time></trkpt><trkpt lat="45.75879975820613" lon="9.277726280993896"><ele>290.0</ele><time>2026-03-28T09:01:31Z</time></trkpt><trkpt lat="45.75891916916316" lon="9.278008922941359"><ele>290.6666666666667</ele><time>2026-03-28T09:01:32Z</time></trkpt><trkpt lat="45.759029962480426" lon="9.27828177770635"><ele>291.3333333333333</ele><time>2026-03-28T09:01:33Z</time></trkpt><trkpt lat="45.75913846019947" lon="9.27855181596206"><ele>292.0</ele><time>2026-03-28T09:01:34Z</time></trkpt><trkpt lat="45.75924356729437" lon="9.278813415347328"><ele>292.5</ele><time>2026-03-28T09:01:35Z</time></trkpt><trkpt lat="45.75945058660894" lon="9.279006747064406"><ele>293.0</ele><time>2026-03-28T09:01:36Z</time></trkpt><trkpt lat="45.759569376611765" lon="9.279279790859292"><ele>293.0</ele><time>2026-03-28T09:01:37Z</time></trkpt><trkpt lat="45.759689130280904" lon="9.279568196564146"><ele>293.0</ele><time>2026-03-28T09:01:38Z</time></trkpt><trkpt lat="45.759805640852534" lon="9.279857992088722"><ele>293.6666666666667</ele><time>2026-03-28T09:01:39Z</time></trkpt><trkpt lat="45.75991385330722" lon="9.280133405559646"><ele>294.3333333333333</ele><time>2026-03-28T09:01:40Z</time></trkpt><trkpt lat="45.76002392833521" lon="9.280394950391948"><ele>295.0</ele><time>2026-03-28T09:01:41Z</time></trkpt><trkpt lat="45.76013144691415" lon="9.280643220740824"><ele>295.3333333333333</ele><time>2026-03-28T09:01:42Z</time></trkpt><trkpt lat="45.76022987171987" lon="9.28087863168195"><ele>295.6666666666667</ele><time>2026-03-28T09:01:43Z</time></trkpt><trkpt lat="45.76031914856322" lon="9.281101165224854"><ele>296.0</ele><time>2026-03-28T09:01:44Z</time></trkpt><trkpt lat="45.76041914956155" lon="9.281334656416695"><ele>298.0</ele><time>2026-03-28T09:01:45Z</time></trkpt><trkpt lat="45.76051865263149" lon="9.281590225523543"><ele>300.0</ele><time>2026-03-28T09:01:46Z</time></trkpt><trkpt lat="45.76061909230265" lon="9.281855859591555"><ele>302.0</ele><time>2026-03-28T09:01:47Z</time></trkpt><trkpt lat="45.76072878367003" lon="9.282119485078328"><ele>301.6666666666667</ele><time>2026-03-28T09:01:48Z</time></trkpt><trkpt lat="45.76083952680052" lon="9.282366733645718"><ele>301.3333333333333</ele><time>2026-03-28T09:01:49Z</time></trkpt><trkpt lat="45.76095289413916" lon="9.282597078778943"><ele>301.0</ele><time>2026-03-28T09:01:50Z</time></trkpt><trkpt lat="45.7610512311098" lon="9.282827042309735"><ele>301.0</ele><time>2026-03-28T09:01:51Z</time></trkpt><trkpt lat="45.761145836119645" lon="9.283059282890855"><ele>301.0</ele><time>2026-03-28T09:01:52Z</time></trkpt><trkpt lat="45.76124276993" lon="9.283294222098824"><ele>301.0</ele><time>2026-03-28T09:01:53Z</time></trkpt><trkpt lat="45.761338475368895" lon="9.283518105801432"><ele>300.0</ele><time>2026-03-28T09:01:54Z</time></trkpt><trkpt lat="45.76144170391526" lon="9.283754376834231"><ele>299.0</ele><time>2026-03-28T09:01:55Z</time></trkpt><trkpt lat="45.761531971498265" lon="9.283972784631"><ele>298.0</ele><time>2026-03-28T09:01:56Z</time></trkpt><trkpt lat="45.76162444300658" lon="9.284197937116522"><ele>296.66666666666663</ele><time>2026-03-28T09:01:57Z</time></trkpt><trkpt lat="45.761716354252115" lon="9.284433717082313"><ele>295.3333333333333</ele><time>2026-03-28T09:01:58Z</time></trkpt><trkpt lat="45.761805299927914" lon="9.284655445301123"><ele>294.0</ele><time>2026-03-28T09:01:59Z</time></trkpt><trkpt lat="45.76189840568448" lon="9.28487606087214"><ele>294.0</ele><time>2026-03-28T09:02:00Z</time></trkpt><trkpt lat="45.761983578641654" lon="9.285084983289186"><ele>294.0</ele><time>2026-03-28T09:02:01Z</time></trkpt><trkpt lat="45.762081969041205" lon="9.285300797167514"><ele>294.0</ele><time>2026-03-28T09:02:02Z</time></trkpt><trkpt lat="45.76217087416088" lon="9.28551239800013"><ele>295.3333333333333</ele><time>2026-03-28T09:02:03Z</time></trkpt><trkpt lat="45.76225636642311" lon="9.285712900670749"><ele>296.66666666666663</ele><time>2026-03-28T09:02:04Z</time></trkpt><trkpt lat="45.76234950517175" lon="9.285899540908334"><ele>298.0</ele><time>2026-03-28T09:02:05Z</time></trkpt><trkpt lat="45.76244379185528" lon="9.286091007372512"><ele>298.0</ele><time>2026-03-28T09:02:06Z</time></trkpt><trkpt lat="45.76255193368781" lon="9.28627308608971"><ele>298.0</ele><time>2026-03-28T09:02:07Z</time></trkpt><trkpt lat="45.762667664150904" lon="9.286454162697801"><ele>298.0</ele><time>2026-03-28T09:02:08Z</time></trkpt><trkpt lat="45.7628027603023" lon="9.286641378312625"><ele>297.0</ele><time>2026-03-28T09:02:09Z</time></trkpt><trkpt lat="45.76295946650046" lon="9.286841685405557"><ele>296.0</ele><time>2026-03-28T09:02:10Z</time></trkpt><trkpt lat="45.76312944116133" lon="9.28704808010087"><ele>295.0</ele><time>2026-03-28T09:02:11Z</time></trkpt><trkpt lat="45.76332217638949" lon="9.287237529702159"><ele>295.0</ele><time>2026-03-28T09:02:12Z</time></trkpt><trkpt lat="45.76354237198563" lon="9.287408443914442"><ele>295.0</ele><time>2026-03-28T09:02:13Z</time></trkpt><trkpt lat="45.76376099793379" lon="9.287554311707861"><ele>295.0</ele><time>2026-03-28T09:02:14Z</time></trkpt><trkpt lat="45.76397432473612" lon="9.287672587868133"><ele>295.0</ele><time>2026-03-28T09:02:15Z</time></trkpt><trkpt lat="45.764195779089455" lon="9.287758677358166"><ele>293.5</ele><time>2026-03-28T09:02:16Z</time></trkpt><trkpt lat="45.764426066320375" lon="9.28782053629603"><ele>292.0</ele><time>2026-03-28T09:02:17Z</time></trkpt><trkpt lat="45.7646517521846" lon="9.287856166615947"><ele>292.0</ele><time>2026-03-28T09:02:18Z</time></trkpt><trkpt lat="45.76487521787443" lon="9.287872850187068"><ele>292.0</ele><time>2026-03-28T09:02:19Z</time></trkpt><trkpt lat="45.76509114894862" lon="9.287884550958072"><ele>292.0</ele><time>2026-03-28T09:02:20Z</time></trkpt><trkpt lat="45.76533717939407" lon="9.287885990174987"><ele>292.0</ele><time>2026-03-28T09:02:21Z</time></trkpt><trkpt lat="45.76556284733069" lon="9.287894384829041"><ele>292.0</ele><time>2026-03-28T09:02:22Z</time></trkpt><trkpt lat="45.76578078611963" lon="9.287912733501573"><ele>292.0</ele><time>2026-03-28T09:02:23Z</time></trkpt><trkpt lat="45.765995175865314" lon="9.287927946834365"><ele>291.3333333333333</ele><time>2026-03-28T09:02:24Z</time></trkpt><trkpt lat="45.76620993641687" lon="9.287951896859147"><ele>290.6666666666667</ele><time>2026-03-28T09:02:25Z</time></trkpt><trkpt lat="45.7664271739865" lon="9.287965399346414"><ele>290.0</ele><time>2026-03-28T09:02:26Z</time></trkpt><trkpt lat="45.7666536454272" lon="9.287969082629573"><ele>287.0</ele><time>2026-03-28T09:02:27Z</time></trkpt><trkpt lat="45.76686253959952" lon="9.287977399789526"><ele>284.0</ele><time>2026-03-28T09:02:28Z</time></trkpt><trkpt lat="45.7670741792496" lon="9.287987280036095"><ele>281.0</ele><time>2026-03-28T09:02:29Z</time></trkpt><trkpt lat="45.76730182434648" lon="9.28800887681018"><ele>281.0</ele><time>2026-03-28T09:02:30Z</time></trkpt><trkpt lat="45.76753157852717" lon="9.28803441815219"><ele>281.0</ele><time>2026-03-28T09:02:31Z</time></trkpt><trkpt lat="45.76775432488647" lon="9.288051836191494"><ele>280.0</ele><time>2026-03-28T09:02:32Z</time></trkpt><trkpt lat="45.76796202942277" lon="9.288052103280616"><ele>279.0</ele><time>2026-03-28T09:02:33.001Z</time></trkpt><trkpt lat="45.76816944987011" lon="9.288065636879951"><ele>278.0</ele><time>2026-03-28T09:02:34.001Z</time></trkpt><trkpt lat="45.768371208119525" lon="9.288085398239597"><ele>278.0</ele><time>2026-03-28T09:02:35.001Z</time></trkpt><trkpt lat="45.768589564754215" lon="9.288095403739632"><ele>278.0</ele><time>2026-03-28T09:02:36.001Z</time></trkpt><trkpt lat="45.768814897773005" lon="9.288105676496926"><ele>278.0</ele><time>2026-03-28T09:02:37.001Z</time></trkpt><trkpt lat="45.769064008714835" lon="9.288117586520471"><ele>278.0</ele><time>2026-03-28T09:02:38.001Z</time></trkpt><trkpt lat="45.76926808875063" lon="9.28813245752777"><ele>278.0</ele><time>2026-03-28T09:02:39.001Z</time></trkpt><trkpt lat="45.76949082989072" lon="9.288146286705453"><ele>278.0</ele><time>2026-03-28T09:02:40.001Z</time></trkpt><trkpt lat="45.76972441501318" lon="9.288158129732892"><ele>274.5</ele><time>2026-03-28T09:02:41.001Z</time></trkpt><trkpt lat="45.7699667891101" lon="9.288174287079345"><ele>271.0</ele><time>2026-03-28T09:02:42.001Z</time></trkpt><trkpt lat="45.77019876704628" lon="9.28819971013371"><ele>270.5</ele><time>2026-03-28T09:02:43.001Z</time></trkpt><trkpt lat="45.77043435899489" lon="9.288216998994788"><ele>270.0</ele><time>2026-03-28T09:02:44.001Z</time></trkpt><trkpt lat="45.770680430168625" lon="9.288226616655912"><ele>270.0</ele><time>2026-03-28T09:02:45.001Z</time></trkpt><trkpt lat="45.770932208403615" lon="9.288250057123985"><ele>270.0</ele><time>2026-03-28T09:02:46.001Z</time></trkpt><trkpt lat="45.77120274022459" lon="9.288279930515962"><ele>269.5</ele><time>2026-03-28T09:02:47.001Z</time></trkpt><trkpt lat="45.77149114854548" lon="9.288303001569645"><ele>269.0</ele><time>2026-03-28T09:02:48.001Z</time></trkpt><trkpt lat="45.771795439034015" lon="9.288320814513963"><ele>268.0</ele><time>2026-03-28T09:02:49.001Z</time></trkpt><trkpt lat="45.77210333485038" lon="9.288335461154169"><ele>267.0</ele><time>2026-03-28T09:02:50.001Z</time></trkpt><trkpt lat="45.772413106004784" lon="9.28835766025197"><ele>267.0</ele><time>2026-03-28T09:02:51.001Z</time></trkpt><trkpt lat="45.772709157876236" lon="9.288374263846517"><ele>267.0</ele><time>2026-03-28T09:02:52.001Z</time></trkpt><trkpt lat="45.77297263321549" lon="9.288392867100866"><ele>267.0</ele><time>2026-03-28T09:02:53.001Z</time></trkpt><trkpt lat="45.773224701762935" lon="9.288408783683092"><ele>267.0</ele><time>2026-03-28T09:02:54.001Z</time></trkpt><trkpt lat="45.773477294965616" lon="9.288420042362986"><ele>267.0</ele><time>2026-03-28T09:02:55.001Z</time></trkpt><trkpt lat="45.77371521021467" lon="9.288432779388634"><ele>267.0</ele><time>2026-03-28T09:02:56.001Z</time></trkpt><trkpt lat="45.77396657469969" lon="9.288448078514808"><ele>267.0</ele><time>2026-03-28T09:02:57.001Z</time></trkpt><trkpt lat="45.7742290716886" lon="9.288456310166117"><ele>267.0</ele><time>2026-03-28T09:02:58.001Z</time></trkpt><trkpt lat="45.77450273152442" lon="9.2884717761735"><ele>267.0</ele><time>2026-03-28T09:02:59.001Z</time></trkpt><trkpt lat="45.77476789283869" lon="9.288514003540007"><ele>267.0</ele><time>2026-03-28T09:03:00.001Z</time></trkpt><trkpt lat="45.77502925230655" lon="9.288579012765911"><ele>266.0</ele><time>2026-03-28T09:03:01.001Z</time></trkpt><trkpt lat="45.77528810472149" lon="9.288668792978743"><ele>265.0</ele><time>2026-03-28T09:03:02.001Z</time></trkpt><trkpt lat="45.775542154955936" lon="9.2887582755498"><ele>265.0</ele><time>2026-03-28T09:03:03Z</time></trkpt><trkpt lat="45.77579283565263" lon="9.28885213915463"><ele>265.0</ele><time>2026-03-28T09:03:04Z</time></trkpt><trkpt lat="45.77603347604654" lon="9.288974639380383"><ele>263.0</ele><time>2026-03-28T09:03:05Z</time></trkpt><trkpt lat="45.77627293890196" lon="9.28910910255451"><ele>261.0</ele><time>2026-03-28T09:03:06Z</time></trkpt><trkpt lat="45.7765106875535" lon="9.289244544439219"><ele>261.0</ele><time>2026-03-28T09:03:07Z</time></trkpt><trkpt lat="45.77674243099329" lon="9.28939177377817"><ele>261.0</ele><time>2026-03-28T09:03:08Z</time></trkpt><trkpt lat="45.77697058735867" lon="9.289543459607378"><ele>262.0</ele><time>2026-03-28T09:03:09Z</time></trkpt><trkpt lat="45.77719881651195" lon="9.289688132702327"><ele>263.0</ele><time>2026-03-28T09:03:10Z</time></trkpt><trkpt lat="45.7774179685381" lon="9.289837644999777"><ele>263.0</ele><time>2026-03-28T09:03:11Z</time></trkpt><trkpt lat="45.77763430832563" lon="9.289983540251248"><ele>263.0</ele><time>2026-03-28T09:03:12Z</time></trkpt><trkpt lat="45.7778518569351" lon="9.290127839486232"><ele>263.5</ele><time>2026-03-28T09:03:13Z</time></trkpt><trkpt lat="45.778078962382175" lon="9.290276667313426"><ele>264.0</ele><time>2026-03-28T09:03:14Z</time></trkpt><trkpt lat="45.77830740827907" lon="9.290429634096432"><ele>263.5</ele><time>2026-03-28T09:03:15Z</time></trkpt><trkpt lat="45.77852750269099" lon="9.29058085797021"><ele>263.0</ele><time>2026-03-28T09:03:16Z</time></trkpt><trkpt lat="45.778739533213454" lon="9.290736407374988"><ele>263.0</ele><time>2026-03-28T09:03:17Z</time></trkpt><trkpt lat="45.778953402439136" lon="9.290884791890804"><ele>263.0</ele><time>2026-03-28T09:03:18Z</time></trkpt><trkpt lat="45.779171592266046" lon="9.291031285022013"><ele>262.0</ele><time>2026-03-28T09:03:19Z</time></trkpt><trkpt lat="45.77938866212487" lon="9.291171588381285"><ele>261.0</ele><time>2026-03-28T09:03:20Z</time></trkpt><trkpt lat="45.7795917800935" lon="9.29131741714544"><ele>262.0</ele><time>2026-03-28T09:03:21Z</time></trkpt><trkpt lat="45.77979441408965" lon="9.291457731732624"><ele>263.0</ele><time>2026-03-28T09:03:22Z</time></trkpt><trkpt lat="45.78000462347643" lon="9.291582974131202"><ele>264.0</ele><time>2026-03-28T09:03:23Z</time></trkpt><trkpt lat="45.780228761242384" lon="9.291730545138002"><ele>265.0</ele><time>2026-03-28T09:03:24Z</time></trkpt><trkpt lat="45.78045018872023" lon="9.291888022141194"><ele>265.0</ele><time>2026-03-28T09:03:25Z</time></trkpt><trkpt lat="45.78066665047502" lon="9.292047497041183"><ele>265.0</ele><time>2026-03-28T09:03:26Z</time></trkpt><trkpt lat="45.78088281369354" lon="9.292195515448238"><ele>267.0</ele><time>2026-03-28T09:03:27Z</time></trkpt><trkpt lat="45.781104997102254" lon="9.292347577819926"><ele>269.0</ele><time>2026-03-28T09:03:28Z</time></trkpt><trkpt lat="45.78133916483963" lon="9.292507621105015"><ele>269.0</ele><time>2026-03-28T09:03:29Z</time></trkpt><trkpt lat="45.7815792070788" lon="9.292682724429332"><ele>269.0</ele><time>2026-03-28T09:03:30Z</time></trkpt><trkpt lat="45.78180983430554" lon="9.292858680247132"><ele>269.0</ele><time>2026-03-28T09:03:31Z</time></trkpt><trkpt lat="45.78203699920164" lon="9.29302888504367"><ele>269.0</ele><time>2026-03-28T09:03:32Z</time></trkpt><trkpt lat="45.7822640553056" lon="9.293198671433403"><ele>269.0</ele><time>2026-03-28T09:03:33Z</time></trkpt><trkpt lat="45.78248873112801" lon="9.293367923712204"><ele>269.0</ele><time>2026-03-28T09:03:34Z</time></trkpt><trkpt lat="45.78271956953996" lon="9.293535952791327"><ele>271.0</ele><time>2026-03-28T09:03:35Z</time></trkpt><trkpt lat="45.782952842074764" lon="9.2937062120427"><ele>273.0</ele><time>2026-03-28T09:03:36Z</time></trkpt><trkpt lat="45.783197827722034" lon="9.293881151980663"><ele>272.0</ele><time>2026-03-28T09:03:37Z</time></trkpt><trkpt lat="45.7834491542361" lon="9.29405123935147"><ele>271.0</ele><time>2026-03-28T09:03:38Z</time></trkpt><trkpt lat="45.78370991533567" lon="9.294207262689858"><ele>271.0</ele><time>2026-03-28T09:03:39Z</time></trkpt><trkpt lat="45.783977700460284" lon="9.294347773537291"><ele>271.0</ele><time>2026-03-28T09:03:40Z</time></trkpt><trkpt lat="45.784246083110844" lon="9.294489162565247"><ele>270.5</ele><time>2026-03-28T09:03:41Z</time></trkpt><trkpt lat="45.78450829096818" lon="9.294646193969214"><ele>270.0</ele><time>2026-03-28T09:03:42Z</time></trkpt><trkpt lat="45.784769802034795" lon="9.294809488270934"><ele>267.5</ele><time>2026-03-28T09:03:43Z</time></trkpt><trkpt lat="45.785006711703076" lon="9.294969313771347"><ele>265.0</ele><time>2026-03-28T09:03:44Z</time></trkpt><trkpt lat="45.7852377504275" lon="9.295117884100755"><ele>265.0</ele><time>2026-03-28T09:03:45Z</time></trkpt><trkpt lat="45.78545583501428" lon="9.295258823952858"><ele>265.0</ele><time>2026-03-28T09:03:46Z</time></trkpt><trkpt lat="45.78566171911881" lon="9.295394210318019"><ele>265.0</ele><time>2026-03-28T09:03:47Z</time></trkpt><trkpt lat="45.7858669199114" lon="9.295521923935395"><ele>265.0</ele><time>2026-03-28T09:03:48Z</time></trkpt><trkpt lat="45.786074481195904" lon="9.295638837232598"><ele>265.0</ele><time>2026-03-28T09:03:49Z</time></trkpt><trkpt lat="45.786273485726035" lon="9.29574618375126"><ele>265.3333333333333</ele><time>2026-03-28T09:03:50Z</time></trkpt><trkpt lat="45.78645754904666" lon="9.29586293232027"><ele>265.6666666666667</ele><time>2026-03-28T09:03:51Z</time></trkpt><trkpt lat="45.7866374224704" lon="9.295998602673361"><ele>266.0</ele><time>2026-03-28T09:03:52Z</time></trkpt><trkpt lat="45.78681816987242" lon="9.296122910284495"><ele>266.33333333333337</ele><time>2026-03-28T09:03:53Z</time></trkpt><trkpt lat="45.7869989670585" lon="9.296241598265958"><ele>266.6666666666667</ele><time>2026-03-28T09:03:54Z</time></trkpt><trkpt lat="45.78718553462421" lon="9.2963656844504"><ele>267.0</ele><time>2026-03-28T09:03:55Z</time></trkpt><trkpt lat="45.78738176333618" lon="9.296492034857366"><ele>267.0</ele><time>2026-03-28T09:03:56Z</time></trkpt><trkpt lat="45.78757624762018" lon="9.296623381934376"><ele>267.0</ele><time>2026-03-28T09:03:57Z</time></trkpt><trkpt lat="45.78776111873906" lon="9.296760504866814"><ele>267.0</ele><time>2026-03-28T09:03:58Z</time></trkpt><trkpt lat="45.78795820374773" lon="9.296913820113156"><ele>267.0</ele><time>2026-03-28T09:03:59Z</time></trkpt><trkpt lat="45.78812798356191" lon="9.29710800475479"><ele>267.0</ele><time>2026-03-28T09:04:00Z</time></trkpt><trkpt lat="45.788300558284384" lon="9.297333322377888"><ele>267.0</ele><time>2026-03-28T09:04:01Z</time></trkpt><trkpt lat="45.78847266044884" lon="9.297605636410513"><ele>267.0</ele><time>2026-03-28T09:04:02Z</time></trkpt><trkpt lat="45.78877570872024" lon="9.297432221589519"><ele>269.5</ele><time>2026-03-28T09:04:03Z</time></trkpt><trkpt lat="45.78897754063082" lon="9.297577052787544"><ele>272.0</ele><time>2026-03-28T09:04:04Z</time></trkpt><trkpt lat="45.789184886901424" lon="9.297716865990846"><ele>274.0</ele><time>2026-03-28T09:04:05Z</time></trkpt><trkpt lat="45.789391033328926" lon="9.297848960735209"><ele>276.0</ele><time>2026-03-28T09:04:06Z</time></trkpt><trkpt lat="45.789608418527735" lon="9.297989861550315"><ele>273.5</ele><time>2026-03-28T09:04:07Z</time></trkpt><trkpt lat="45.78982248450814" lon="9.2981368179908"><ele>271.0</ele><time>2026-03-28T09:04:08Z</time></trkpt><trkpt lat="45.79003731275609" lon="9.298289257768891"><ele>272.0</ele><time>2026-03-28T09:04:09Z</time></trkpt><trkpt lat="45.790253298187054" lon="9.298441338201457"><ele>273.0</ele><time>2026-03-28T09:04:10Z</time></trkpt><trkpt lat="45.79047548765473" lon="9.298588025423655"><ele>273.0</ele><time>2026-03-28T09:04:11Z</time></trkpt><trkpt lat="45.790695311147594" lon="9.298738584876709"><ele>273.0</ele><time>2026-03-28T09:04:12Z</time></trkpt><trkpt lat="45.790926377680755" lon="9.29888484354832"><ele>271.5</ele><time>2026-03-28T09:04:13Z</time></trkpt><trkpt lat="45.791168789041286" lon="9.299038710135159"><ele>270.0</ele><time>2026-03-28T09:04:14Z</time></trkpt><trkpt lat="45.791423394088454" lon="9.29920408073318"><ele>270.0</ele><time>2026-03-28T09:04:15Z</time></trkpt><trkpt lat="45.79169213586741" lon="9.29938528164926"><ele>270.0</ele><time>2026-03-28T09:04:16Z</time></trkpt><trkpt lat="45.79197823105749" lon="9.29958192057119"><ele>269.0</ele><time>2026-03-28T09:04:17Z</time></trkpt><trkpt lat="45.79227738877885" lon="9.299786533461454"><ele>268.0</ele><time>2026-03-28T09:04:18Z</time></trkpt><trkpt lat="45.79257279413932" lon="9.299991233045077"><ele>272.0</ele><time>2026-03-28T09:04:19Z</time></trkpt><trkpt lat="45.79285723488794" lon="9.300188580792733"><ele>276.0</ele><time>2026-03-28T09:04:20Z</time></trkpt><trkpt lat="45.793129902204555" lon="9.30039458715042"><ele>276.0</ele><time>2026-03-28T09:04:21Z</time></trkpt><trkpt lat="45.79339239670421" lon="9.300609140086772"><ele>276.0</ele><time>2026-03-28T09:04:22Z</time></trkpt><trkpt lat="45.79365270996584" lon="9.300838225985558"><ele>276.0</ele><time>2026-03-28T09:04:23Z</time></trkpt><trkpt lat="45.79390452410853" lon="9.301084246695217"><ele>276.0</ele><time>2026-03-28T09:04:24Z</time></trkpt><trkpt lat="45.79415237340533" lon="9.301330464782119"><ele>275.5</ele><time>2026-03-28T09:04:25Z</time></trkpt><trkpt lat="45.79438286186594" lon="9.301587477933108"><ele>275.0</ele><time>2026-03-28T09:04:26Z</time></trkpt><trkpt lat="45.7946389856058" lon="9.301864617783862"><ele>275.0</ele><time>2026-03-28T09:04:27Z</time></trkpt><trkpt lat="45.79491416069915" lon="9.302127000391046"><ele>275.0</ele><time>2026-03-28T09:04:28Z</time></trkpt><trkpt lat="45.79521958720667" lon="9.302388205148882"><ele>275.0</ele><time>2026-03-28T09:04:29Z</time></trkpt><trkpt lat="45.79552019638187" lon="9.302654016203064"><ele>275.0</ele><time>2026-03-28T09:04:30Z</time></trkpt><trkpt lat="45.79578826109426" lon="9.302906675323054"><ele>272.0</ele><time>2026-03-28T09:04:31Z</time></trkpt><trkpt lat="45.79604055327944" lon="9.303154252685701"><ele>269.0</ele><time>2026-03-28T09:04:32Z</time></trkpt><trkpt lat="45.79628408711063" lon="9.303387125112952"><ele>269.0</ele><time>2026-03-28T09:04:33Z</time></trkpt><trkpt lat="45.79650545075887" lon="9.303605621911311"><ele>269.0</ele><time>2026-03-28T09:04:34Z</time></trkpt><trkpt lat="45.796717059379056" lon="9.30380735767532"><ele>268.0</ele><time>2026-03-28T09:04:35Z</time></trkpt><trkpt lat="45.79692473812975" lon="9.303994049963386"><ele>267.0</ele><time>2026-03-28T09:04:36Z</time></trkpt><trkpt lat="45.797115551269904" lon="9.304172402376546"><ele>267.0</ele><time>2026-03-28T09:04:37Z</time></trkpt><trkpt lat="45.797310812383856" lon="9.30436214595128"><ele>267.0</ele><time>2026-03-28T09:04:38Z</time></trkpt><trkpt lat="45.797522616116225" lon="9.30455571897233"><ele>265.5</ele><time>2026-03-28T09:04:39Z</time></trkpt><trkpt lat="45.79772249185449" lon="9.304750944429545"><ele>264.0</ele><time>2026-03-28T09:04:40Z</time></trkpt><trkpt lat="45.79793484328129" lon="9.3049575554729"><ele>264.0</ele><time>2026-03-28T09:04:41Z</time></trkpt><trkpt lat="45.79815702231264" lon="9.305182951792856"><ele>264.0</ele><time>2026-03-28T09:04:42Z</time></trkpt><trkpt lat="45.79839291364552" lon="9.305420760128309"><ele>264.5</ele><time>2026-03-28T09:04:43Z</time></trkpt><trkpt lat="45.79863887512418" lon="9.305663381731181"><ele>265.0</ele><time>2026-03-28T09:04:44Z</time></trkpt><trkpt lat="45.798899168369864" lon="9.305891772506223"><ele>265.0</ele><time>2026-03-28T09:04:45Z</time></trkpt><trkpt lat="45.79915627957165" lon="9.306123787512666"><ele>265.0</ele><time>2026-03-28T09:04:46Z</time></trkpt><trkpt lat="45.79940020254224" lon="9.30635730298406"><ele>265.0</ele><time>2026-03-28T09:04:47Z</time></trkpt><trkpt lat="45.7996287974756" lon="9.306624549028887"><ele>265.0</ele><time>2026-03-28T09:04:48Z</time></trkpt><trkpt lat="45.79984820699825" lon="9.306912693880491"><ele>265.0</ele><time>2026-03-28T09:04:49Z</time></trkpt><trkpt lat="45.80008422703834" lon="9.307184672725441"><ele>265.0</ele><time>2026-03-28T09:04:50Z</time></trkpt><trkpt lat="45.800347173689566" lon="9.30744872140537"><ele>264.0</ele><time>2026-03-28T09:04:51.001Z</time></trkpt><trkpt lat="45.80062468799777" lon="9.307708291439587"><ele>263.0</ele><time>2026-03-28T09:04:52.001Z</time></trkpt><trkpt lat="45.80092112946198" lon="9.307974737566386"><ele>263.0</ele><time>2026-03-28T09:04:53.001Z</time></trkpt><trkpt lat="45.80122182462441" lon="9.308261783967987"><ele>263.0</ele><time>2026-03-28T09:04:54.001Z</time></trkpt><trkpt lat="45.80153351220782" lon="9.308566621738164"><ele>263.5</ele><time>2026-03-28T09:04:55.001Z</time></trkpt><trkpt lat="45.801852478723696" lon="9.308876729056202"><ele>264.0</ele><time>2026-03-28T09:04:56.001Z</time></trkpt><trkpt lat="45.80217526112429" lon="9.309181034589837"><ele>264.0</ele><time>2026-03-28T09:04:57.001Z</time></trkpt><trkpt lat="45.80248043406317" lon="9.309466549453646"><ele>264.0</ele><time>2026-03-28T09:04:58.001Z</time></trkpt><trkpt lat="45.80277255244337" lon="9.309721132227057"><ele>264.5</ele><time>2026-03-28T09:04:59.001Z</time></trkpt><trkpt lat="45.8030499644194" lon="9.309946402916225"><ele>265.0</ele><time>2026-03-28T09:05:00.001Z</time></trkpt><trkpt lat="45.803321303012844" lon="9.310162659078916"><ele>265.5</ele><time>2026-03-28T09:05:01.001Z</time></trkpt><trkpt lat="45.80356687646906" lon="9.310366946223196"><ele>266.0</ele><time>2026-03-28T09:05:02.001Z</time></trkpt><trkpt lat="45.80380385950633" lon="9.310584201700232"><ele>266.0</ele><time>2026-03-28T09:05:03.001Z</time></trkpt><trkpt lat="45.80402993780512" lon="9.310791782499315"><ele>266.0</ele><time>2026-03-28T09:05:04.001Z</time></trkpt><trkpt lat="45.80424909490438" lon="9.310998463316064"><ele>266.0</ele><time>2026-03-28T09:05:05.001Z</time></trkpt><trkpt lat="45.80446468439856" lon="9.311210905579467"><ele>266.0</ele><time>2026-03-28T09:05:06.001Z</time></trkpt><trkpt lat="45.804675490693356" lon="9.31142403814916"><ele>266.0</ele><time>2026-03-28T09:05:07.001Z</time></trkpt><trkpt lat="45.80489179711655" lon="9.311631483633006"><ele>266.0</ele><time>2026-03-28T09:05:08.001Z</time></trkpt><trkpt lat="45.80510356661318" lon="9.311818656991052"><ele>265.5</ele><time>2026-03-28T09:05:09Z</time></trkpt><trkpt lat="45.80531294882511" lon="9.312018195287912"><ele>265.0</ele><time>2026-03-28T09:05:10Z</time></trkpt><trkpt lat="45.80552348479922" lon="9.312210690802148"><ele>263.5</ele><time>2026-03-28T09:05:11Z</time></trkpt><trkpt lat="45.80572860901349" lon="9.312399116110248"><ele>262.0</ele><time>2026-03-28T09:05:12Z</time></trkpt><trkpt lat="45.80594561991517" lon="9.312597411688424"><ele>262.5</ele><time>2026-03-28T09:05:13Z</time></trkpt><trkpt lat="45.80614141915358" lon="9.312788033831943"><ele>263.0</ele><time>2026-03-28T09:05:14Z</time></trkpt><trkpt lat="45.80634324100682" lon="9.312979487545602"><ele>263.5</ele><time>2026-03-28T09:05:15Z</time></trkpt><trkpt lat="45.80655215779084" lon="9.313170396479634"><ele>264.0</ele><time>2026-03-28T09:05:16Z</time></trkpt><trkpt lat="45.80675930927327" lon="9.313369055881855"><ele>264.0</ele><time>2026-03-28T09:05:17Z</time></trkpt><trkpt lat="45.806965160950895" lon="9.31357287191296"><ele>264.0</ele><time>2026-03-28T09:05:18Z</time></trkpt><trkpt lat="45.80717706946877" lon="9.31376631685177"><ele>264.5</ele><time>2026-03-28T09:05:19Z</time></trkpt><trkpt lat="45.807394201401856" lon="9.313952317873902"><ele>265.0</ele><time>2026-03-28T09:05:20Z</time></trkpt><trkpt lat="45.80760556980672" lon="9.314129232080248"><ele>264.5</ele><time>2026-03-28T09:05:21Z</time></trkpt><trkpt lat="45.80781092127423" lon="9.314299870198363"><ele>264.0</ele><time>2026-03-28T09:05:22Z</time></trkpt><trkpt lat="45.8080298558784" lon="9.314472832159847"><ele>264.0</ele><time>2026-03-28T09:05:23Z</time></trkpt><trkpt lat="45.80823395158224" lon="9.314650391826381"><ele>264.0</ele><time>2026-03-28T09:05:24Z</time></trkpt><trkpt lat="45.80843768872416" lon="9.314825795379141"><ele>262.6666666666667</ele><time>2026-03-28T09:05:25Z</time></trkpt><trkpt lat="45.80862521092273" lon="9.315000041145913"><ele>261.33333333333337</ele><time>2026-03-28T09:05:26Z</time></trkpt><trkpt lat="45.80881379698364" lon="9.315161399092222"><ele>260.0</ele><time>2026-03-28T09:05:27Z</time></trkpt><trkpt lat="45.8089994848353" lon="9.31532059644313"><ele>260.0</ele><time>2026-03-28T09:05:28Z</time></trkpt><trkpt lat="45.809175735789196" lon="9.315485516939551"><ele>260.0</ele><time>2026-03-28T09:05:29Z</time></trkpt><trkpt lat="45.809359227209605" lon="9.315652086152907"><ele>260.0</ele><time>2026-03-28T09:05:30Z</time></trkpt><trkpt lat="45.80954896543313" lon="9.31582077697502"><ele>256.0</ele><time>2026-03-28T09:05:31Z</time></trkpt><trkpt lat="45.80972958940655" lon="9.315981003399584"><ele>252.0</ele><time>2026-03-28T09:05:32Z</time></trkpt><trkpt lat="45.809906400600006" lon="9.31613602773622"><ele>248.0</ele><time>2026-03-28T09:05:33Z</time></trkpt><trkpt lat="45.81008318846422" lon="9.316289652758906"><ele>246.0</ele><time>2026-03-28T09:05:34Z</time></trkpt><trkpt lat="45.81026005288336" lon="9.316441064056429"><ele>244.0</ele><time>2026-03-28T09:05:35Z</time></trkpt><trkpt lat="45.81043897003199" lon="9.31659482986568"><ele>242.0</ele><time>2026-03-28T09:05:36Z</time></trkpt><trkpt lat="45.81061572470851" lon="9.316755975701545"><ele>242.0</ele><time>2026-03-28T09:05:37Z</time></trkpt><trkpt lat="45.81078371149263" lon="9.316917759123472"><ele>242.0</ele><time>2026-03-28T09:05:38Z</time></trkpt><trkpt lat="45.81098788455833" lon="9.317091504087772"><ele>242.0</ele><time>2026-03-28T09:05:39Z</time></trkpt><trkpt lat="45.81119658149367" lon="9.317274767749897"><ele>240.5</ele><time>2026-03-28T09:05:40Z</time></trkpt><trkpt lat="45.81142374271889" lon="9.317458614626615"><ele>239.0</ele><time>2026-03-28T09:05:41Z</time></trkpt><trkpt lat="45.81164883910995" lon="9.317650512810616"><ele>242.0</ele><time>2026-03-28T09:05:42Z</time></trkpt><trkpt lat="45.81187433777808" lon="9.317856033170077"><ele>245.0</ele><time>2026-03-28T09:05:43Z</time></trkpt><trkpt lat="45.81210824075019" lon="9.318059836682439"><ele>241.5</ele><time>2026-03-28T09:05:44Z</time></trkpt><trkpt lat="45.812343922288946" lon="9.318265895575403"><ele>238.0</ele><time>2026-03-28T09:05:45Z</time></trkpt><trkpt lat="45.81257250429309" lon="9.31847548610271"><ele>239.0</ele><time>2026-03-28T09:05:46Z</time></trkpt><trkpt lat="45.81280953507145" lon="9.3186905183288"><ele>240.0</ele><time>2026-03-28T09:05:47Z</time></trkpt><trkpt lat="45.81306459036965" lon="9.318913660141815"><ele>240.0</ele><time>2026-03-28T09:05:48Z</time></trkpt><trkpt lat="45.81331809052367" lon="9.319124938389827"><ele>240.0</ele><time>2026-03-28T09:05:49Z</time></trkpt><trkpt lat="45.81356341247393" lon="9.319320815782898"><ele>240.5</ele><time>2026-03-28T09:05:50Z</time></trkpt><trkpt lat="45.81374672048885" lon="9.319614863452435"><ele>241.0</ele><time>2026-03-28T09:05:51Z</time></trkpt><trkpt lat="45.81397126304558" lon="9.319807672410967"><ele>239.0</ele><time>2026-03-28T09:05:52Z</time></trkpt><trkpt lat="45.81419039893093" lon="9.319987689767018"><ele>237.0</ele><time>2026-03-28T09:05:53Z</time></trkpt><trkpt lat="45.81446375842803" lon="9.320036981883197"><ele>236.5</ele><time>2026-03-28T09:05:54Z</time></trkpt><trkpt lat="45.814694715108" lon="9.320191615008953"><ele>236.0</ele><time>2026-03-28T09:05:55Z</time></trkpt><trkpt lat="45.814924633133515" lon="9.320343075225404"><ele>233.0</ele><time>2026-03-28T09:05:56Z</time></trkpt><trkpt lat="45.815156825582726" lon="9.320490532785248"><ele>230.0</ele><time>2026-03-28T09:05:57Z</time></trkpt><trkpt lat="45.81538405724878" lon="9.320626315363166"><ele>230.0</ele><time>2026-03-28T09:05:58Z</time></trkpt><trkpt lat="45.81560519930308" lon="9.320753747599188"><ele>230.0</ele><time>2026-03-28T09:05:59Z</time></trkpt><trkpt lat="45.81582268128316" lon="9.320867867652233"><ele>229.5</ele><time>2026-03-28T09:06:00Z</time></trkpt><trkpt lat="45.81604919418048" lon="9.320982428231392"><ele>229.0</ele><time>2026-03-28T09:06:01Z</time></trkpt><trkpt lat="45.81627831829056" lon="9.321098760410052"><ele>229.0</ele><time>2026-03-28T09:06:02Z</time></trkpt><trkpt lat="45.816510271719956" lon="9.32123171316169"><ele>229.0</ele><time>2026-03-28T09:06:03Z</time></trkpt><trkpt lat="45.81673596827381" lon="9.321353832100893"><ele>227.5</ele><time>2026-03-28T09:06:04Z</time></trkpt><trkpt lat="45.816973451597256" lon="9.321478750907701"><ele>226.0</ele><time>2026-03-28T09:06:05Z</time></trkpt><trkpt lat="45.817207948168345" lon="9.321613176954749"><ele>226.0</ele><time>2026-03-28T09:06:06Z</time></trkpt><trkpt lat="45.81744529248642" lon="9.321749029734352"><ele>226.0</ele><time>2026-03-28T09:06:07Z</time></trkpt><trkpt lat="45.81768909592764" lon="9.321882376349905"><ele>227.5</ele><time>2026-03-28T09:06:08Z</time></trkpt><trkpt lat="45.81794093576049" lon="9.322018163033885"><ele>229.0</ele><time>2026-03-28T09:06:09Z</time></trkpt><trkpt lat="45.81819962997656" lon="9.322152315063208"><ele>228.5</ele><time>2026-03-28T09:06:10Z</time></trkpt><trkpt lat="45.8184596625327" lon="9.322297968464005"><ele>228.0</ele><time>2026-03-28T09:06:11Z</time></trkpt><trkpt lat="45.81870586422749" lon="9.322432888653685"><ele>229.5</ele><time>2026-03-28T09:06:12Z</time></trkpt><trkpt lat="45.81894804646917" lon="9.322563567217266"><ele>231.0</ele><time>2026-03-28T09:06:13Z</time></trkpt><trkpt lat="45.819198692666845" lon="9.322697036502772"><ele>231.5</ele><time>2026-03-28T09:06:14Z</time></trkpt><trkpt lat="45.81944780734084" lon="9.322840653567669"><ele>232.0</ele><time>2026-03-28T09:06:15Z</time></trkpt><trkpt lat="45.81970330469405" lon="9.322982681617704"><ele>230.5</ele><time>2026-03-28T09:06:16Z</time></trkpt><trkpt lat="45.8199501374399" lon="9.323123123955213"><ele>229.0</ele><time>2026-03-28T09:06:17Z</time></trkpt><trkpt lat="45.82019872025126" lon="9.323255903874694"><ele>227.5</ele><time>2026-03-28T09:06:18Z</time></trkpt><trkpt lat="45.82043916746816" lon="9.323394887467744"><ele>226.0</ele><time>2026-03-28T09:06:19Z</time></trkpt><trkpt lat="45.82066578148691" lon="9.323515408794552"><ele>226.0</ele><time>2026-03-28T09:06:20Z</time></trkpt><trkpt lat="45.82089630240474" lon="9.323637243090557"><ele>226.0</ele><time>2026-03-28T09:06:21Z</time></trkpt><trkpt lat="45.821125655449165" lon="9.323761912659123"><ele>226.33333333333331</ele><time>2026-03-28T09:06:22Z</time></trkpt><trkpt lat="45.82133836787508" lon="9.323878903285715"><ele>226.66666666666669</ele><time>2026-03-28T09:06:23Z</time></trkpt><trkpt lat="45.82153117763836" lon="9.323988994673531"><ele>227.0</ele><time>2026-03-28T09:06:24Z</time></trkpt><trkpt lat="45.82171881058405" lon="9.324103023172054"><ele>226.33333333333334</ele><time>2026-03-28T09:06:25Z</time></trkpt><trkpt lat="45.82192013335694" lon="9.324221714950275"><ele>225.66666666666669</ele><time>2026-03-28T09:06:26Z</time></trkpt><trkpt lat="45.82210380677982" lon="9.324326802491562"><ele>225.0</ele><time>2026-03-28T09:06:27Z</time></trkpt><trkpt lat="45.82228473327464" lon="9.324433964325268"><ele>225.0</ele><time>2026-03-28T09:06:28Z</time></trkpt><trkpt lat="45.82247431345156" lon="9.324584924990335"><ele>225.0</ele><time>2026-03-28T09:06:29Z</time></trkpt><trkpt lat="45.82267131736207" lon="9.324774104474985"><ele>225.5</ele><time>2026-03-28T09:06:30Z</time></trkpt><trkpt lat="45.822870811720406" lon="9.325005299513455"><ele>226.0</ele><time>2026-03-28T09:06:31Z</time></trkpt><trkpt lat="45.823067180735" lon="9.325264145175646"><ele>226.0</ele><time>2026-03-28T09:06:32Z</time></trkpt><trkpt lat="45.82325023741177" lon="9.325552952400104"><ele>226.0</ele><time>2026-03-28T09:06:33Z</time></trkpt><trkpt lat="45.82342247903971" lon="9.32586644917976"><ele>234.5</ele><time>2026-03-28T09:06:34Z</time></trkpt><trkpt lat="45.82357181670113" lon="9.326184614788136"><ele>243.0</ele><time>2026-03-28T09:06:35Z</time></trkpt><trkpt lat="45.82369533945671" lon="9.326524788325907"><ele>244.0</ele><time>2026-03-28T09:06:36Z</time></trkpt><trkpt lat="45.82380852794711" lon="9.326866740743279"><ele>245.0</ele><time>2026-03-28T09:06:37Z</time></trkpt><trkpt lat="45.82390709621673" lon="9.327222964164891"><ele>242.5</ele><time>2026-03-28T09:06:38Z</time></trkpt><trkpt lat="45.82399488864964" lon="9.327566127081575"><ele>240.0</ele><time>2026-03-28T09:06:39Z</time></trkpt><trkpt lat="45.82406787021675" lon="9.32792439246991"><ele>239.5</ele><time>2026-03-28T09:06:40Z</time></trkpt><trkpt lat="45.82410049954236" lon="9.328291403149562"><ele>239.0</ele><time>2026-03-28T09:06:41Z</time></trkpt><trkpt lat="45.82412886021723" lon="9.328636934008879"><ele>237.5</ele><time>2026-03-28T09:06:42Z</time></trkpt><trkpt lat="45.82415735546188" lon="9.3289694459423"><ele>236.0</ele><time>2026-03-28T09:06:43Z</time></trkpt><trkpt lat="45.82419022414839" lon="9.32929970655617"><ele>236.0</ele><time>2026-03-28T09:06:44Z</time></trkpt><trkpt lat="45.824217917056615" lon="9.32960669168515"><ele>236.0</ele><time>2026-03-28T09:06:45Z</time></trkpt><trkpt lat="45.82424533644004" lon="9.32990717236153"><ele>236.0</ele><time>2026-03-28T09:06:46Z</time></trkpt><trkpt lat="45.824282505184385" lon="9.330213283074473"><ele>242.66666666666669</ele><time>2026-03-28T09:06:47Z</time></trkpt><trkpt lat="45.824317377726786" lon="9.330529223723891"><ele>249.33333333333331</ele><time>2026-03-28T09:06:48Z</time></trkpt><trkpt lat="45.82432499575975" lon="9.330832832112383"><ele>256.0</ele><time>2026-03-28T09:06:49Z</time></trkpt><trkpt lat="45.824348101484794" lon="9.331128156245628"><ele>255.33333333333331</ele><time>2026-03-28T09:06:50Z</time></trkpt><trkpt lat="45.82436724964449" lon="9.33141576075909"><ele>254.66666666666669</ele><time>2026-03-28T09:06:51Z</time></trkpt><trkpt lat="45.82439383134594" lon="9.331704597036344"><ele>254.0</ele><time>2026-03-28T09:06:52Z</time></trkpt><trkpt lat="45.82442780534744" lon="9.331985164618315"><ele>253.0</ele><time>2026-03-28T09:06:53Z</time></trkpt><trkpt lat="45.82445523414493" lon="9.33226280685401"><ele>252.0</ele><time>2026-03-28T09:06:54Z</time></trkpt><trkpt lat="45.824474599503155" lon="9.332553929072288"><ele>251.0</ele><time>2026-03-28T09:06:55Z</time></trkpt><trkpt lat="45.82448711299245" lon="9.332833072741538"><ele>250.0</ele><time>2026-03-28T09:06:56Z</time></trkpt><trkpt lat="45.82450088129043" lon="9.333104095700037"><ele>249.0</ele><time>2026-03-28T09:06:57Z</time></trkpt><trkpt lat="45.824511724767056" lon="9.333375292762915"><ele>248.0</ele><time>2026-03-28T09:06:58Z</time></trkpt><trkpt lat="45.824520955139086" lon="9.333645131214368"><ele>247.66666666666669</ele><time>2026-03-28T09:06:59Z</time></trkpt><trkpt lat="45.824518981278814" lon="9.333911244317195"><ele>247.33333333333331</ele><time>2026-03-28T09:07:00Z</time></trkpt><trkpt lat="45.82452612654142" lon="9.334190477625627"><ele>247.0</ele><time>2026-03-28T09:07:01Z</time></trkpt><trkpt lat="45.824531174810595" lon="9.334477763373183"><ele>247.0</ele><time>2026-03-28T09:07:02Z</time></trkpt><trkpt lat="45.824535227826715" lon="9.334775449036757"><ele>247.0</ele><time>2026-03-28T09:07:03Z</time></trkpt><trkpt lat="45.82453636633622" lon="9.335070345625263"><ele>247.0</ele><time>2026-03-28T09:07:04.001Z</time></trkpt><trkpt lat="45.82453368359696" lon="9.335363896394998"><ele>247.0</ele><time>2026-03-28T09:07:05.001Z</time></trkpt><trkpt lat="45.82454107466604" lon="9.335661695918661"><ele>247.0</ele><time>2026-03-28T09:07:06.001Z</time></trkpt><trkpt lat="45.824541725332935" lon="9.33596269668974"><ele>247.0</ele><time>2026-03-28T09:07:07.001Z</time></trkpt><trkpt lat="45.82454124638138" lon="9.336272241831246"><ele>245.5</ele><time>2026-03-28T09:07:08.001Z</time></trkpt><trkpt lat="45.82455492957383" lon="9.336613503118969"><ele>244.0</ele><time>2026-03-28T09:07:09.001Z</time></trkpt><trkpt lat="45.82458226479275" lon="9.336970875463884"><ele>242.5</ele><time>2026-03-28T09:07:10.001Z</time></trkpt><trkpt lat="45.82462675095828" lon="9.337354566650637"><ele>241.0</ele><time>2026-03-28T09:07:11.001Z</time></trkpt><trkpt lat="45.82464950920668" lon="9.33768969066819"><ele>241.0</ele><time>2026-03-28T09:07:12.001Z</time></trkpt><trkpt lat="45.82466677310455" lon="9.338039312791393"><ele>241.0</ele><time>2026-03-28T09:07:13.001Z</time></trkpt><trkpt lat="45.8246843419203" lon="9.338397610400207"><ele>240.0</ele><time>2026-03-28T09:07:14.001Z</time></trkpt><trkpt lat="45.82470031629369" lon="9.33876210851283"><ele>239.0</ele><time>2026-03-28T09:07:15Z</time></trkpt><trkpt lat="45.82466082729513" lon="9.338907888840506"><ele>238.0</ele><time>2026-03-28T09:07:16Z</time></trkpt><trkpt lat="45.82467171908646" lon="9.339246225187088"><ele>237.0</ele><time>2026-03-28T09:07:17Z</time></trkpt><trkpt lat="45.82466801747648" lon="9.339592322995312"><ele>236.0</ele><time>2026-03-28T09:07:18Z</time></trkpt><trkpt lat="45.8246391705552" lon="9.339946060766339"><ele>237.0</ele><time>2026-03-28T09:07:19Z</time></trkpt><trkpt lat="45.82461497761108" lon="9.34030630226423"><ele>238.0</ele><time>2026-03-28T09:07:20Z</time></trkpt><trkpt lat="45.824592443085606" lon="9.340684543224137"><ele>238.0</ele><time>2026-03-28T09:07:21Z</time></trkpt><trkpt lat="45.82457018198515" lon="9.341051126196007"><ele>238.0</ele><time>2026-03-28T09:07:22Z</time></trkpt><trkpt lat="45.82454463679455" lon="9.341423257600393"><ele>241.0</ele><time>2026-03-28T09:07:23Z</time></trkpt><trkpt lat="45.82452242725884" lon="9.341765372486758"><ele>244.0</ele><time>2026-03-28T09:07:24Z</time></trkpt><trkpt lat="45.82450098746123" lon="9.342105263288508"><ele>243.5</ele><time>2026-03-28T09:07:25Z</time></trkpt><trkpt lat="45.82447089450774" lon="9.34245288674202"><ele>243.0</ele><time>2026-03-28T09:07:26Z</time></trkpt><trkpt lat="45.824448209362764" lon="9.342813138389939"><ele>239.5</ele><time>2026-03-28T09:07:27Z</time></trkpt><trkpt lat="45.8244156983023" lon="9.343147063237332"><ele>236.0</ele><time>2026-03-28T09:07:28Z</time></trkpt><trkpt lat="45.82438897439194" lon="9.343496180266074"><ele>236.0</ele><time>2026-03-28T09:07:29Z</time></trkpt><trkpt lat="45.82436491312366" lon="9.343867142718125"><ele>236.0</ele><time>2026-03-28T09:07:30Z</time></trkpt><trkpt lat="45.82433014579456" lon="9.344231789153092"><ele>232.5</ele><time>2026-03-28T09:07:31Z</time></trkpt><trkpt lat="45.824313220627964" lon="9.34461661320798"><ele>229.0</ele><time>2026-03-28T09:07:32Z</time></trkpt><trkpt lat="45.824287920214175" lon="9.345000541435772"><ele>227.0</ele><time>2026-03-28T09:07:33Z</time></trkpt><trkpt lat="45.82426054125099" lon="9.345377015207102"><ele>225.0</ele><time>2026-03-28T09:07:34Z</time></trkpt><trkpt lat="45.82423550502148" lon="9.345732763995498"><ele>225.0</ele><time>2026-03-28T09:07:35Z</time></trkpt><trkpt lat="45.82422382864569" lon="9.34608335903573"><ele>225.0</ele><time>2026-03-28T09:07:36Z</time></trkpt><trkpt lat="45.82422303191151" lon="9.346445344290787"><ele>225.5</ele><time>2026-03-28T09:07:37Z</time></trkpt><trkpt lat="45.82423720247476" lon="9.346813134271496"><ele>226.0</ele><time>2026-03-28T09:07:38Z</time></trkpt><trkpt lat="45.82428335085149" lon="9.347201477824951"><ele>228.5</ele><time>2026-03-28T09:07:39Z</time></trkpt><trkpt lat="45.824330994637364" lon="9.347570391010384"><ele>231.0</ele><time>2026-03-28T09:07:40Z</time></trkpt><trkpt lat="45.824402163726766" lon="9.34790490102122"><ele>229.0</ele><time>2026-03-28T09:07:41Z</time></trkpt><trkpt lat="45.824494532891116" lon="9.348223762232434"><ele>227.0</ele><time>2026-03-28T09:07:42Z</time></trkpt><trkpt lat="45.82461371749788" lon="9.348511611573976"><ele>227.0</ele><time>2026-03-28T09:07:43Z</time></trkpt><trkpt lat="45.82474422793986" lon="9.348779830888272"><ele>227.0</ele><time>2026-03-28T09:07:44Z</time></trkpt><trkpt lat="45.8248640843072" lon="9.34899618634911"><ele>227.0</ele><time>2026-03-28T09:07:45Z</time></trkpt><trkpt lat="45.82496707303564" lon="9.349171920065231"><ele>226.66666666666669</ele><time>2026-03-28T09:07:46Z</time></trkpt><trkpt lat="45.82509627459761" lon="9.34934291898247"><ele>226.33333333333331</ele><time>2026-03-28T09:07:47Z</time></trkpt><trkpt lat="45.82524284076699" lon="9.34952343051118"><ele>226.0</ele><time>2026-03-28T09:07:48Z</time></trkpt><trkpt lat="45.82541345476582" lon="9.349696786588213"><ele>229.5</ele><time>2026-03-28T09:07:49Z</time></trkpt><trkpt lat="45.82559803263403" lon="9.34989496061324"><ele>233.0</ele><time>2026-03-28T09:07:50Z</time></trkpt><trkpt lat="45.825788826956845" lon="9.350118243734276"><ele>231.5</ele><time>2026-03-28T09:07:51Z</time></trkpt><trkpt lat="45.82601896523092" lon="9.35029651165552"><ele>230.0</ele><time>2026-03-28T09:07:52Z</time></trkpt><trkpt lat="45.826251868069505" lon="9.350481171890372"><ele>231.5</ele><time>2026-03-28T09:07:53Z</time></trkpt><trkpt lat="45.826511623378124" lon="9.350669358311853"><ele>233.0</ele><time>2026-03-28T09:07:54Z</time></trkpt><trkpt lat="45.82676919967398" lon="9.350876746193213"><ele>233.0</ele><time>2026-03-28T09:07:55Z</time></trkpt><trkpt lat="45.82702825651936" lon="9.351093684067221"><ele>233.0</ele><time>2026-03-28T09:07:56Z</time></trkpt><trkpt lat="45.82728446588491" lon="9.351306283219758"><ele>233.0</ele><time>2026-03-28T09:07:57Z</time></trkpt><trkpt lat="45.827529344892845" lon="9.351517680895268"><ele>233.0</ele><time>2026-03-28T09:07:58Z</time></trkpt><trkpt lat="45.82776891375646" lon="9.351729877856993"><ele>231.5</ele><time>2026-03-28T09:07:59Z</time></trkpt><trkpt lat="45.82799402508737" lon="9.351941257152975"><ele>230.0</ele><time>2026-03-28T09:08:00Z</time></trkpt><trkpt lat="45.82820734385144" lon="9.352165172950201"><ele>231.5</ele><time>2026-03-28T09:08:01Z</time></trkpt><trkpt lat="45.82840303409945" lon="9.35239372580175"><ele>233.0</ele><time>2026-03-28T09:08:02Z</time></trkpt><trkpt lat="45.82859467572022" lon="9.352630330380277"><ele>233.5</ele><time>2026-03-28T09:08:03Z</time></trkpt><trkpt lat="45.8287743270998" lon="9.352886688014483"><ele>234.0</ele><time>2026-03-28T09:08:04Z</time></trkpt><trkpt lat="45.82895248375853" lon="9.35316021597188"><ele>236.5</ele><time>2026-03-28T09:08:05Z</time></trkpt><trkpt lat="45.829116374196126" lon="9.353453928353634"><ele>239.0</ele><time>2026-03-28T09:08:06Z</time></trkpt><trkpt lat="45.829272534161824" lon="9.353756191057972"><ele>241.5</ele><time>2026-03-28T09:08:07Z</time></trkpt><trkpt lat="45.829413002864676" lon="9.35406916323791"><ele>244.0</ele><time>2026-03-28T09:08:08Z</time></trkpt><trkpt lat="45.82955136742954" lon="9.354394550448044"><ele>250.0</ele><time>2026-03-28T09:08:09Z</time></trkpt><trkpt lat="45.829686206389084" lon="9.354736998537478"><ele>256.0</ele><time>2026-03-28T09:08:10Z</time></trkpt><trkpt lat="45.829811586189805" lon="9.355101548072373"><ele>256.0</ele><time>2026-03-28T09:08:11Z</time></trkpt><trkpt lat="45.8299330852133" lon="9.35547288561358"><ele>256.0</ele><time>2026-03-28T09:08:12Z</time></trkpt><trkpt lat="45.830054393658294" lon="9.355847735286847"><ele>265.5</ele><time>2026-03-28T09:08:13Z</time></trkpt><trkpt lat="45.83018059010659" lon="9.35622670054122"><ele>275.0</ele><time>2026-03-28T09:08:14Z</time></trkpt><trkpt lat="45.830307219200066" lon="9.356612371736517"><ele>281.0</ele><time>2026-03-28T09:08:15.023Z</time></trkpt><trkpt lat="45.830433095290225" lon="9.356993782153616"><ele>287.0</ele><time>2026-03-28T09:08:16.024Z</time></trkpt><trkpt lat="45.830563310839956" lon="9.357385621430979"><ele>295.0</ele><time>2026-03-28T09:08:17.016Z</time></trkpt><trkpt lat="45.830690355010915" lon="9.357770897054895"><ele>303.0</ele><time>2026-03-28T09:08:18.014Z</time></trkpt><trkpt lat="45.831779456273665" lon="9.361369535846961"><ele>206.0</ele><time>2026-03-28T09:08:28.395Z</time></trkpt><trkpt lat="45.83847148813851" lon="9.394874777653621"><ele>206.0</ele><time>2026-03-28T09:09:56.001Z</time></trkpt><trkpt lat="45.83847000102007" lon="9.395221397062798"><ele>206.0</ele><time>2026-03-28T09:09:57.001Z</time></trkpt><trkpt lat="45.838443621653994" lon="9.395620206425518"><ele>205.0</ele><time>2026-03-28T09:09:58.001Z</time></trkpt><trkpt lat="45.83845084808694" lon="9.395946504482614"><ele>204.0</ele><time>2026-03-28T09:09:59.001Z</time></trkpt><trkpt lat="45.8384713093141" lon="9.396285592708136"><ele>202.66666666666669</ele><time>2026-03-28T09:10:00.001Z</time></trkpt><trkpt lat="45.83848386224209" lon="9.396605223768216"><ele>201.33333333333334</ele><time>2026-03-28T09:10:01.001Z</time></trkpt><trkpt lat="45.83850831069929" lon="9.396919406331772"><ele>200.0</ele><time>2026-03-28T09:10:02.001Z</time></trkpt><trkpt lat="45.83853777725692" lon="9.397221828936793"><ele>200.0</ele><time>2026-03-28T09:10:03.001Z</time></trkpt><trkpt lat="45.83857137501526" lon="9.397517719067038"><ele>200.0</ele><time>2026-03-28T09:10:04.001Z</time></trkpt><trkpt lat="45.83861833346702" lon="9.397815566822793"><ele>200.0</ele><time>2026-03-28T09:10:05.001Z</time></trkpt><trkpt lat="45.83864964529881" lon="9.398106246259239"><ele>199.33333333333334</ele><time>2026-03-28T09:10:06.001Z</time></trkpt><trkpt lat="45.838678844575064" lon="9.39836766963815"><ele>198.66666666666669</ele><time>2026-03-28T09:10:07.001Z</time></trkpt><trkpt lat="45.838709959646934" lon="9.398640020128804"><ele>198.0</ele><time>2026-03-28T09:10:08.001Z</time></trkpt><trkpt lat="45.83874194643413" lon="9.398885326209822"><ele>198.0</ele><time>2026-03-28T09:10:09.001Z</time></trkpt><trkpt lat="45.8387714923348" lon="9.399143466489729"><ele>198.0</ele><time>2026-03-28T09:10:10.001Z</time></trkpt><trkpt lat="45.83880732430167" lon="9.399406320112641"><ele>198.0</ele><time>2026-03-28T09:10:11.001Z</time></trkpt><trkpt lat="45.838839076419724" lon="9.399667205291621"><ele>198.0</ele><time>2026-03-28T09:10:12.001Z</time></trkpt><trkpt lat="45.83886677936548" lon="9.399923843107878"><ele>198.0</ele><time>2026-03-28T09:10:13Z</time></trkpt><trkpt lat="45.83889636094078" lon="9.400170850376618"><ele>198.0</ele><time>2026-03-28T09:10:14Z</time></trkpt><trkpt lat="45.83892530027691" lon="9.400419017211785"><ele>198.33333333333331</ele><time>2026-03-28T09:10:15Z</time></trkpt><trkpt lat="45.83895678803655" lon="9.400666627886528"><ele>198.66666666666666</ele><time>2026-03-28T09:10:16Z</time></trkpt><trkpt lat="45.83899116687747" lon="9.40092686855866"><ele>199.0</ele><time>2026-03-28T09:10:17Z</time></trkpt><trkpt lat="45.83902484009929" lon="9.401194717281735"><ele>199.66666666666666</ele><time>2026-03-28T09:10:18Z</time></trkpt><trkpt lat="45.83905585794092" lon="9.401441443030098"><ele>200.33333333333331</ele><time>2026-03-28T09:10:19Z</time></trkpt><trkpt lat="45.83908129790835" lon="9.40167869738615"><ele>201.0</ele><time>2026-03-28T09:10:20Z</time></trkpt><trkpt lat="45.83911100990912" lon="9.401904522065914"><ele>201.0</ele><time>2026-03-28T09:10:21Z</time></trkpt><trkpt lat="45.83913394229431" lon="9.402118178355927"><ele>201.0</ele><time>2026-03-28T09:10:22Z</time></trkpt><trkpt lat="45.839165229367126" lon="9.402325950703881"><ele>201.0</ele><time>2026-03-28T09:10:23Z</time></trkpt><trkpt lat="45.839192580310545" lon="9.402552074005294"><ele>201.33333333333331</ele><time>2026-03-28T09:10:24Z</time></trkpt><trkpt lat="45.83922028180333" lon="9.402797717255737"><ele>201.66666666666666</ele><time>2026-03-28T09:10:25Z</time></trkpt><trkpt lat="45.83926418267302" lon="9.403046268399835"><ele>202.0</ele><time>2026-03-28T09:10:26Z</time></trkpt><trkpt lat="45.83932573437721" lon="9.403302676092302"><ele>202.66666666666666</ele><time>2026-03-28T09:10:27Z</time></trkpt><trkpt lat="45.83940959178101" lon="9.403551697623485"><ele>203.33333333333331</ele><time>2026-03-28T09:10:28Z</time></trkpt><trkpt lat="45.83951828030334" lon="9.40379618594258"><ele>204.0</ele><time>2026-03-28T09:10:29Z</time></trkpt><trkpt lat="45.83964149028005" lon="9.4040261629149"><ele>204.66666666666669</ele><time>2026-03-28T09:10:30Z</time></trkpt><trkpt lat="45.8398016001033" lon="9.404216794117204"><ele>205.33333333333334</ele><time>2026-03-28T09:10:31Z</time></trkpt><trkpt lat="45.8399450827882" lon="9.404379653650984"><ele>206.0</ele><time>2026-03-28T09:10:32Z</time></trkpt><trkpt lat="45.8400979452427" lon="9.404542382755173"><ele>206.0</ele><time>2026-03-28T09:10:33Z</time></trkpt><trkpt lat="45.84026543080362" lon="9.404683345290874"><ele>206.0</ele><time>2026-03-28T09:10:34Z</time></trkpt><trkpt lat="45.8404626477437" lon="9.404817934806278"><ele>206.0</ele><time>2026-03-28T09:10:35Z</time></trkpt><trkpt lat="45.84067812341605" lon="9.404920824251958"><ele>206.0</ele><time>2026-03-28T09:10:36Z</time></trkpt><trkpt lat="45.84089059078412" lon="9.4049687727097"><ele>206.0</ele><time>2026-03-28T09:10:37Z</time></trkpt><trkpt lat="45.84110877665475" lon="9.404990089714243"><ele>206.0</ele><time>2026-03-28T09:10:38Z</time></trkpt><trkpt lat="45.8413155778443" lon="9.40498047054937"><ele>207.0</ele><time>2026-03-28T09:10:39Z</time></trkpt><trkpt lat="45.84151850729187" lon="9.404981116207576"><ele>208.0</ele><time>2026-03-28T09:10:40Z</time></trkpt><trkpt lat="45.841696757408506" lon="9.40499133692276"><ele>209.0</ele><time>2026-03-28T09:10:41Z</time></trkpt><trkpt lat="45.84188217169461" lon="9.405007216277145"><ele>209.0</ele><time>2026-03-28T09:10:42Z</time></trkpt><trkpt lat="45.842066350579096" lon="9.405022946582767"><ele>209.0</ele><time>2026-03-28T09:10:43Z</time></trkpt><trkpt lat="45.84225775004675" lon="9.405047997587772"><ele>209.0</ele><time>2026-03-28T09:10:44Z</time></trkpt><trkpt lat="45.842442218993014" lon="9.405072221676253"><ele>209.0</ele><time>2026-03-28T09:10:45Z</time></trkpt><trkpt lat="45.842624698482716" lon="9.405106669919997"><ele>209.0</ele><time>2026-03-28T09:10:46Z</time></trkpt><trkpt lat="45.84280150299422" lon="9.405172818873885"><ele>209.0</ele><time>2026-03-28T09:10:47Z</time></trkpt><trkpt lat="45.84297997548521" lon="9.405255575041485"><ele>209.0</ele><time>2026-03-28T09:10:48Z</time></trkpt><trkpt lat="45.84317048489943" lon="9.40532820735418"><ele>209.0</ele><time>2026-03-28T09:10:49Z</time></trkpt><trkpt lat="45.84337452251852" lon="9.405402598762844"><ele>209.0</ele><time>2026-03-28T09:10:50Z</time></trkpt><trkpt lat="45.843594246648564" lon="9.40548256678814"><ele>209.0</ele><time>2026-03-28T09:10:51Z</time></trkpt><trkpt lat="45.84381570825371" lon="9.40556642710015"><ele>209.0</ele><time>2026-03-28T09:10:52Z</time></trkpt><trkpt lat="45.84402907280778" lon="9.405637175095475"><ele>209.0</ele><time>2026-03-28T09:10:53Z</time></trkpt><trkpt lat="45.8442453732069" lon="9.40567203018333"><ele>210.33333333333334</ele><time>2026-03-28T09:10:54Z</time></trkpt><trkpt lat="45.8444543952146" lon="9.405673038394589"><ele>211.66666666666669</ele><time>2026-03-28T09:10:55Z</time></trkpt><trkpt lat="45.844662019789844" lon="9.405635416136425"><ele>213.0</ele><time>2026-03-28T09:10:56Z</time></trkpt><trkpt lat="45.84485816339685" lon="9.40556179484272"><ele>213.33333333333331</ele><time>2026-03-28T09:10:57Z</time></trkpt><trkpt lat="45.84505838122535" lon="9.405474976697013"><ele>213.66666666666666</ele><time>2026-03-28T09:10:58Z</time></trkpt><trkpt lat="45.84527156809132" lon="9.405376305714647"><ele>214.0</ele><time>2026-03-28T09:10:59Z</time></trkpt><trkpt lat="45.84548078583854" lon="9.405281951691551"><ele>214.0</ele><time>2026-03-28T09:11:00Z</time></trkpt><trkpt lat="45.845682893797914" lon="9.40518963253426"><ele>214.0</ele><time>2026-03-28T09:11:01Z</time></trkpt><trkpt lat="45.84587609635219" lon="9.405103321588667"><ele>214.0</ele><time>2026-03-28T09:11:02Z</time></trkpt><trkpt lat="45.84606169878165" lon="9.405016240070964"><ele>214.33333333333331</ele><time>2026-03-28T09:11:03Z</time></trkpt><trkpt lat="45.84624096322275" lon="9.404938929373367"><ele>214.66666666666669</ele><time>2026-03-28T09:11:04Z</time></trkpt><trkpt lat="45.8464223702303" lon="9.404865028854497"><ele>215.0</ele><time>2026-03-28T09:11:05Z</time></trkpt><trkpt lat="45.846601284840425" lon="9.404791782867834"><ele>215.0</ele><time>2026-03-28T09:11:06Z</time></trkpt><trkpt lat="45.8467826707379" lon="9.404720128783485"><ele>215.0</ele><time>2026-03-28T09:11:07Z</time></trkpt><trkpt lat="45.84696783056929" lon="9.404646134363036"><ele>215.0</ele><time>2026-03-28T09:11:08Z</time></trkpt><trkpt lat="45.847154075516606" lon="9.404568205753886"><ele>214.66666666666669</ele><time>2026-03-28T09:11:09Z</time></trkpt><trkpt lat="45.847344147966474" lon="9.404485622042197"><ele>214.33333333333331</ele><time>2026-03-28T09:11:10Z</time></trkpt><trkpt lat="45.84753024354996" lon="9.404404444481932"><ele>214.0</ele><time>2026-03-28T09:11:11Z</time></trkpt><trkpt lat="45.84772823203571" lon="9.404309722237885"><ele>214.0</ele><time>2026-03-28T09:11:12Z</time></trkpt><trkpt lat="45.84792883573685" lon="9.404212036619327"><ele>214.0</ele><time>2026-03-28T09:11:13Z</time></trkpt><trkpt lat="45.8481257652248" lon="9.404090192690802"><ele>214.0</ele><time>2026-03-28T09:11:14Z</time></trkpt><trkpt lat="45.84830983340429" lon="9.40394111712557"><ele>214.66666666666666</ele><time>2026-03-28T09:11:15Z</time></trkpt><trkpt lat="45.84849063442077" lon="9.403779997598447"><ele>215.33333333333331</ele><time>2026-03-28T09:11:16Z</time></trkpt><trkpt lat="45.848695649153996" lon="9.40362449958759"><ele>216.0</ele><time>2026-03-28T09:11:17Z</time></trkpt><trkpt lat="45.84891288761135" lon="9.403459043329377"><ele>216.0</ele><time>2026-03-28T09:11:18Z</time></trkpt><trkpt lat="45.84912749739177" lon="9.403284931921577"><ele>216.0</ele><time>2026-03-28T09:11:19Z</time></trkpt><trkpt lat="45.849325688713755" lon="9.403119721052029"><ele>215.0</ele><time>2026-03-28T09:11:20Z</time></trkpt><trkpt lat="45.84952035288685" lon="9.402935887528681"><ele>214.0</ele><time>2026-03-28T09:11:21Z</time></trkpt><trkpt lat="45.84970207923352" lon="9.402745569681871"><ele>214.0</ele><time>2026-03-28T09:11:22Z</time></trkpt><trkpt lat="45.84989222878396" lon="9.402583802471073"><ele>214.0</ele><time>2026-03-28T09:11:23Z</time></trkpt><trkpt lat="45.850074116580956" lon="9.402421528626345"><ele>214.0</ele><time>2026-03-28T09:11:24Z</time></trkpt><trkpt lat="45.850260260720155" lon="9.402241875447048"><ele>213.66666666666666</ele><time>2026-03-28T09:11:25.023Z</time></trkpt><trkpt lat="45.850440205392395" lon="9.402063293449984"><ele>213.33333333333331</ele><time>2026-03-28T09:11:26.015Z</time></trkpt><trkpt lat="45.85062196765045" lon="9.401891692583478"><ele>213.0</ele><time>2026-03-28T09:11:27.017Z</time></trkpt><trkpt lat="45.85080065578748" lon="9.401720007302002"><ele>219.0</ele><time>2026-03-28T09:11:28.026Z</time></trkpt><trkpt lat="45.8515839" lon="9.4010738"><ele>221.0</ele><time>2026-03-28T09:11:31.624Z</time></trkpt><trkpt lat="45.85207747436462" lon="9.400510750277629"><ele>220.0</ele><time>2026-03-28T09:12:34.624Z</time></trkpt><trkpt lat="45.852583622948266" lon="9.399979390235202"><ele>221.0</ele><time>2026-03-28T09:12:35.622Z</time></trkpt><trkpt lat="45.85316533795326" lon="9.399638992877325"><ele>234.0</ele><time>2026-03-28T09:12:36.624Z</time></trkpt><trkpt lat="45.88010901045058" lon="9.37033944592818"><ele>228.0</ele><time>2026-03-28T09:13:55.001Z</time></trkpt><trkpt lat="45.880099778229194" lon="9.369937599661629"><ele>222.0</ele><time>2026-03-28T09:13:56.001Z</time></trkpt><trkpt lat="45.880337006194395" lon="9.369595415067959"><ele>222.0</ele><time>2026-03-28T09:13:57.001Z</time></trkpt><trkpt lat="45.88051381225292" lon="9.369271436717485"><ele>222.0</ele><time>2026-03-28T09:13:58.001Z</time></trkpt><trkpt lat="45.880701181391935" lon="9.368951867399515"><ele>226.0</ele><time>2026-03-28T09:13:59.001Z</time></trkpt><trkpt lat="45.8808879099418" lon="9.36863338893087"><ele>230.0</ele><time>2026-03-28T09:14:00.001Z</time></trkpt><trkpt lat="45.881061846667514" lon="9.368300651764965"><ele>224.0</ele><time>2026-03-28T09:14:01.001Z</time></trkpt><trkpt lat="45.88123899398074" lon="9.367941269138061"><ele>218.0</ele><time>2026-03-28T09:14:02.001Z</time></trkpt><trkpt lat="45.88143903113342" lon="9.367570618221347"><ele>218.0</ele><time>2026-03-28T09:14:03.001Z</time></trkpt><trkpt lat="45.88163056877655" lon="9.367232247753234"><ele>218.0</ele><time>2026-03-28T09:14:04.001Z</time></trkpt><trkpt lat="45.881810365482934" lon="9.366918542087548"><ele>218.5</ele><time>2026-03-28T09:14:05.001Z</time></trkpt><trkpt lat="45.88196555370001" lon="9.366617727785252"><ele>219.0</ele><time>2026-03-28T09:14:06.001Z</time></trkpt><trkpt lat="45.88213018147365" lon="9.366349791076363"><ele>219.0</ele><time>2026-03-28T09:14:07.001Z</time></trkpt><trkpt lat="45.882273223321036" lon="9.36609581396333"><ele>219.0</ele><time>2026-03-28T09:14:08.001Z</time></trkpt><trkpt lat="45.88242322798327" lon="9.365829628318469"><ele>219.0</ele><time>2026-03-28T09:14:09.001Z</time></trkpt><trkpt lat="45.882547192342706" lon="9.365573052179213"><ele>219.0</ele><time>2026-03-28T09:14:10.001Z</time></trkpt><trkpt lat="45.88268236910787" lon="9.36533725705613"><ele>219.0</ele><time>2026-03-28T09:14:11.001Z</time></trkpt><trkpt lat="45.88280543215206" lon="9.365094202145686"><ele>222.33333333333331</ele><time>2026-03-28T09:14:12.001Z</time></trkpt><trkpt lat="45.882924534505484" lon="9.364858836264709"><ele>225.66666666666666</ele><time>2026-03-28T09:14:13.001Z</time></trkpt><trkpt lat="45.88305714571407" lon="9.364592507328965"><ele>229.0</ele><time>2026-03-28T09:14:14.001Z</time></trkpt><trkpt lat="45.8831760426767" lon="9.364319234541492"><ele>229.0</ele><time>2026-03-28T09:14:15.001Z</time></trkpt><trkpt lat="45.88329251987065" lon="9.364038820668679"><ele>229.0</ele><time>2026-03-28T09:14:16.001Z</time></trkpt><trkpt lat="45.8834126771884" lon="9.363783513078888"><ele>229.0</ele><time>2026-03-28T09:14:17.001Z</time></trkpt><trkpt lat="45.88353579129582" lon="9.363522842870623"><ele>227.0</ele><time>2026-03-28T09:14:18.021Z</time></trkpt><trkpt lat="45.883631900036335" lon="9.363340535942594"><ele>225.0</ele><time>2026-03-28T09:14:19.02Z</time></trkpt><trkpt lat="45.883749436913995" lon="9.363117541191928"><ele>223.0</ele><time>2026-03-28T09:14:20.022Z</time></trkpt><trkpt lat="45.88386279697269" lon="9.362910381711028"><ele>223.0</ele><time>2026-03-28T09:14:21.001Z</time></trkpt><trkpt lat="45.88394768094096" lon="9.362824030937627"><ele>223.0</ele><time>2026-03-28T09:14:22.001Z</time></trkpt><trkpt lat="45.884043922385985" lon="9.362674747774513"><ele>223.0</ele><time>2026-03-28T09:14:23.001Z</time></trkpt><trkpt lat="45.884161245149244" lon="9.362480345950669"><ele>223.0</ele><time>2026-03-28T09:14:24Z</time></trkpt><trkpt lat="45.88426974434375" lon="9.362301240112469"><ele>226.33333333333331</ele><time>2026-03-28T09:14:25Z</time></trkpt><trkpt lat="45.88438781882472" lon="9.36211732811702"><ele>229.66666666666669</ele><time>2026-03-28T09:14:26Z</time></trkpt><trkpt lat="45.88450554239378" lon="9.36191932802847"><ele>233.0</ele><time>2026-03-28T09:14:27Z</time></trkpt><trkpt lat="45.884621874908504" lon="9.361737935262287"><ele>233.0</ele><time>2026-03-28T09:14:28Z</time></trkpt><trkpt lat="45.88474905072006" lon="9.361564415231184"><ele>233.0</ele><time>2026-03-28T09:14:29Z</time></trkpt><trkpt lat="45.884873502235486" lon="9.361390033119793"><ele>233.0</ele><time>2026-03-28T09:14:30Z</time></trkpt><trkpt lat="45.88499847870048" lon="9.361222290762491"><ele>229.66666666666669</ele><time>2026-03-28T09:14:31Z</time></trkpt><trkpt lat="45.885132676072075" lon="9.361039660520465"><ele>226.33333333333331</ele><time>2026-03-28T09:14:32Z</time></trkpt><trkpt lat="45.88527320289226" lon="9.360896544000926"><ele>223.0</ele><time>2026-03-28T09:14:33Z</time></trkpt><trkpt lat="45.88544010070515" lon="9.360770968041663"><ele>223.0</ele><time>2026-03-28T09:14:34Z</time></trkpt><trkpt lat="45.885649406962465" lon="9.36062945376344"><ele>223.0</ele><time>2026-03-28T09:14:35Z</time></trkpt><trkpt lat="45.88600636064718" lon="9.360514615431667"><ele>218.0</ele><time>2026-03-28T09:14:36Z</time></trkpt><trkpt lat="45.88624092745846" lon="9.36030696696988"><ele>213.0</ele><time>2026-03-28T09:14:37Z</time></trkpt><trkpt lat="45.88645360288928" lon="9.360149453145613"><ele>213.0</ele><time>2026-03-28T09:14:38Z</time></trkpt><trkpt lat="45.88667693297416" lon="9.359991804271445"><ele>213.0</ele><time>2026-03-28T09:14:39Z</time></trkpt><trkpt lat="45.886912480061206" lon="9.35982646480177"><ele>210.0</ele><time>2026-03-28T09:14:40Z</time></trkpt><trkpt lat="45.88717823547354" lon="9.359651994553124"><ele>207.0</ele><time>2026-03-28T09:14:41Z</time></trkpt><trkpt lat="45.8874515184236" lon="9.359474250093202"><ele>214.5</ele><time>2026-03-28T09:14:42Z</time></trkpt><trkpt lat="45.88770423270266" lon="9.359308760546206"><ele>222.0</ele><time>2026-03-28T09:14:43Z</time></trkpt><trkpt lat="45.887966371739026" lon="9.359159753238101"><ele>222.0</ele><time>2026-03-28T09:14:44Z</time></trkpt><trkpt lat="45.88823631258278" lon="9.35902806363283"><ele>222.0</ele><time>2026-03-28T09:14:45Z</time></trkpt><trkpt lat="45.888502576407056" lon="9.358903166851798"><ele>216.0</ele><time>2026-03-28T09:14:46Z</time></trkpt><trkpt lat="45.88876073236371" lon="9.358785812385493"><ele>210.0</ele><time>2026-03-28T09:14:47Z</time></trkpt><trkpt lat="45.889003992291194" lon="9.358668616765895"><ele>210.0</ele><time>2026-03-28T09:14:48Z</time></trkpt><trkpt lat="45.88923500638921" lon="9.35856037946637"><ele>210.0</ele><time>2026-03-28T09:14:49Z</time></trkpt><trkpt lat="45.88944917652112" lon="9.358441403157212"><ele>208.66666666666669</ele><time>2026-03-28T09:14:50Z</time></trkpt><trkpt lat="45.8896412456614" lon="9.358295286047257"><ele>207.33333333333334</ele><time>2026-03-28T09:14:51Z</time></trkpt><trkpt lat="45.88982902434901" lon="9.358119492130006"><ele>206.0</ele><time>2026-03-28T09:14:52Z</time></trkpt><trkpt lat="45.89001366729885" lon="9.357902330546272"><ele>216.5</ele><time>2026-03-28T09:14:53Z</time></trkpt><trkpt lat="45.8901979707113" lon="9.35766858995969"><ele>227.0</ele><time>2026-03-28T09:14:54Z</time></trkpt><trkpt lat="45.8903841326849" lon="9.357417793633786"><ele>219.0</ele><time>2026-03-28T09:14:55Z</time></trkpt><trkpt lat="45.89056376738575" lon="9.357150016033565"><ele>211.0</ele><time>2026-03-28T09:14:56Z</time></trkpt><trkpt lat="45.890730742444966" lon="9.356856242397164"><ele>211.0</ele><time>2026-03-28T09:14:57Z</time></trkpt><trkpt lat="45.89088604264732" lon="9.356526542211247"><ele>211.0</ele><time>2026-03-28T09:14:58Z</time></trkpt><trkpt lat="45.891032349430304" lon="9.356180624890527"><ele>209.5</ele><time>2026-03-28T09:14:59Z</time></trkpt><trkpt lat="45.89118529510608" lon="9.35584443549156"><ele>208.0</ele><time>2026-03-28T09:15:00Z</time></trkpt><trkpt lat="45.891343615256716" lon="9.355528976407799"><ele>208.0</ele><time>2026-03-28T09:15:01Z</time></trkpt><trkpt lat="45.89149891039022" lon="9.355221513572669"><ele>208.0</ele><time>2026-03-28T09:15:02Z</time></trkpt><trkpt lat="45.891670713088565" lon="9.354934537219162"><ele>209.5</ele><time>2026-03-28T09:15:03Z</time></trkpt><trkpt lat="45.891865893127715" lon="9.354677247455776"><ele>211.0</ele><time>2026-03-28T09:15:04Z</time></trkpt><trkpt lat="45.892077375977195" lon="9.354435615732747"><ele>211.0</ele><time>2026-03-28T09:15:05Z</time></trkpt><trkpt lat="45.892311243337694" lon="9.3542049464626"><ele>211.0</ele><time>2026-03-28T09:15:06Z</time></trkpt><trkpt lat="45.8925507769322" lon="9.35397360631741"><ele>219.0</ele><time>2026-03-28T09:15:07Z</time></trkpt><trkpt lat="45.892771192712445" lon="9.353714926290724"><ele>227.0</ele><time>2026-03-28T09:15:08Z</time></trkpt><trkpt lat="45.892976050736536" lon="9.353428777630004"><ele>227.0</ele><time>2026-03-28T09:15:09Z</time></trkpt><trkpt lat="45.893170048989894" lon="9.35310843472378"><ele>227.0</ele><time>2026-03-28T09:15:10Z</time></trkpt><trkpt lat="45.89334344565628" lon="9.352762533547937"><ele>230.0</ele><time>2026-03-28T09:15:11Z</time></trkpt><trkpt lat="45.89350099146338" lon="9.352398266100161"><ele>233.0</ele><time>2026-03-28T09:15:12Z</time></trkpt><trkpt lat="45.89364067712401" lon="9.351995655827022"><ele>233.0</ele><time>2026-03-28T09:15:13Z</time></trkpt><trkpt lat="45.893767052460724" lon="9.351566853809063"><ele>233.0</ele><time>2026-03-28T09:15:14Z</time></trkpt><trkpt lat="45.89388216022766" lon="9.351130100890096"><ele>223.0</ele><time>2026-03-28T09:15:15Z</time></trkpt><trkpt lat="45.89401351595213" lon="9.350697623221762"><ele>213.0</ele><time>2026-03-28T09:15:16Z</time></trkpt><trkpt lat="45.894141308996105" lon="9.350280102859234"><ele>220.0</ele><time>2026-03-28T09:15:17Z</time></trkpt><trkpt lat="45.89426562962714" lon="9.34988378506882"><ele>227.0</ele><time>2026-03-28T09:15:18Z</time></trkpt><trkpt lat="45.89438328722541" lon="9.349479707767054"><ele>227.0</ele><time>2026-03-28T09:15:19Z</time></trkpt><trkpt lat="45.89450548887164" lon="9.349078415587048"><ele>227.0</ele><time>2026-03-28T09:15:20Z</time></trkpt><trkpt lat="45.894633863706716" lon="9.348693282162028"><ele>219.0</ele><time>2026-03-28T09:15:21Z</time></trkpt><trkpt lat="45.89477666975133" lon="9.348315251402141"><ele>211.0</ele><time>2026-03-28T09:15:22Z</time></trkpt><trkpt lat="45.894939732392956" lon="9.34794981884033"><ele>219.0</ele><time>2026-03-28T09:15:23Z</time></trkpt><trkpt lat="45.895111958589766" lon="9.347586726987634"><ele>227.0</ele><time>2026-03-28T09:15:24Z</time></trkpt><trkpt lat="45.89529996969636" lon="9.347244413383626"><ele>217.5</ele><time>2026-03-28T09:15:25Z</time></trkpt><trkpt lat="45.89549082455048" lon="9.346885913913512"><ele>208.0</ele><time>2026-03-28T09:15:26Z</time></trkpt><trkpt lat="45.895685301368786" lon="9.346537242581803"><ele>203.0</ele><time>2026-03-28T09:15:27Z</time></trkpt><trkpt lat="45.895878892394876" lon="9.346188217309495"><ele>198.0</ele><time>2026-03-28T09:15:28Z</time></trkpt><trkpt lat="45.896069359014184" lon="9.345838769463713"><ele>198.0</ele><time>2026-03-28T09:15:29Z</time></trkpt><trkpt lat="45.8962613994637" lon="9.345499818850296"><ele>198.0</ele><time>2026-03-28T09:15:30Z</time></trkpt><trkpt lat="45.89643415345158" lon="9.345135902759228"><ele>198.0</ele><time>2026-03-28T09:15:31Z</time></trkpt><trkpt lat="45.89660832362568" lon="9.34479119502571"><ele>198.0</ele><time>2026-03-28T09:15:32Z</time></trkpt><trkpt lat="45.896795187115295" lon="9.344456324351567"><ele>290.5</ele><time>2026-03-28T09:15:33.022Z</time></trkpt><trkpt lat="45.89700843757761" lon="9.34415647196347"><ele>383.0</ele><time>2026-03-28T09:15:34.022Z</time></trkpt><trkpt lat="45.897219213605474" lon="9.343853526936384"><ele>236.0</ele><time>2026-03-28T09:15:35.02Z</time></trkpt><trkpt lat="45.90345617387993" lon="9.335133433350673"><ele>236.0</ele><time>2026-03-28T09:16:04Z</time></trkpt><trkpt lat="45.90368225047615" lon="9.334877502481767"><ele>236.0</ele><time>2026-03-28T09:16:05Z</time></trkpt><trkpt lat="45.904105888075705" lon="9.334387619479672"><ele>239.5</ele><time>2026-03-28T09:16:06Z</time></trkpt><trkpt lat="45.904356080631835" lon="9.334214076060897"><ele>243.0</ele><time>2026-03-28T09:16:07Z</time></trkpt><trkpt lat="45.904614582237684" lon="9.334066330387902"><ele>243.0</ele><time>2026-03-28T09:16:08Z</time></trkpt><trkpt lat="45.904877624393464" lon="9.3339407109961"><ele>243.0</ele><time>2026-03-28T09:16:09Z</time></trkpt><trkpt lat="45.90514290032551" lon="9.333812050104141"><ele>245.5</ele><time>2026-03-28T09:16:10Z</time></trkpt><trkpt lat="45.905400090229826" lon="9.3336825658867"><ele>248.0</ele><time>2026-03-28T09:16:11Z</time></trkpt><trkpt lat="45.90565770119019" lon="9.333555786952939"><ele>255.0</ele><time>2026-03-28T09:16:12Z</time></trkpt><trkpt lat="45.90591325509907" lon="9.333431892591191"><ele>262.0</ele><time>2026-03-28T09:16:13Z</time></trkpt><trkpt lat="45.906163013690445" lon="9.333295756989774"><ele>262.0</ele><time>2026-03-28T09:16:14Z</time></trkpt><trkpt lat="45.9064202114857" lon="9.333160285984858"><ele>262.0</ele><time>2026-03-28T09:16:15Z</time></trkpt><trkpt lat="45.90667260500485" lon="9.333033260666758"><ele>261.5</ele><time>2026-03-28T09:16:16Z</time></trkpt><trkpt lat="45.90691535889619" lon="9.33290881527555"><ele>261.0</ele><time>2026-03-28T09:16:17Z</time></trkpt><trkpt lat="45.90715662238017" lon="9.332775720906088"><ele>261.0</ele><time>2026-03-28T09:16:18Z</time></trkpt><trkpt lat="45.907400824240156" lon="9.332640125870387"><ele>261.0</ele><time>2026-03-28T09:16:19Z</time></trkpt><trkpt lat="45.90764930778561" lon="9.332512882496298"><ele>266.0</ele><time>2026-03-28T09:16:20Z</time></trkpt><trkpt lat="45.90790047214633" lon="9.332392484755605"><ele>271.0</ele><time>2026-03-28T09:16:21Z</time></trkpt><trkpt lat="45.908152060890714" lon="9.332263497780676"><ele>273.0</ele><time>2026-03-28T09:16:22Z</time></trkpt><trkpt lat="45.90840718451716" lon="9.33213106322788"><ele>275.0</ele><time>2026-03-28T09:16:23Z</time></trkpt><trkpt lat="45.908666036238294" lon="9.33199275157208"><ele>275.0</ele><time>2026-03-28T09:16:24Z</time></trkpt><trkpt lat="45.90892100059243" lon="9.331837456012599"><ele>275.0</ele><time>2026-03-28T09:16:25Z</time></trkpt><trkpt lat="45.90917288118979" lon="9.331667415004624"><ele>276.0</ele><time>2026-03-28T09:16:26Z</time></trkpt><trkpt lat="45.909421801578816" lon="9.331475253848371"><ele>277.0</ele><time>2026-03-28T09:16:27Z</time></trkpt><trkpt lat="45.90966780950361" lon="9.331273946087524"><ele>277.0</ele><time>2026-03-28T09:16:28Z</time></trkpt><trkpt lat="45.90990403585325" lon="9.331058798871592"><ele>277.0</ele><time>2026-03-28T09:16:29Z</time></trkpt><trkpt lat="45.91013057280564" lon="9.330842983809804"><ele>279.0</ele><time>2026-03-28T09:16:30Z</time></trkpt><trkpt lat="45.91035234642067" lon="9.33061839473555"><ele>281.0</ele><time>2026-03-28T09:16:31Z</time></trkpt><trkpt lat="45.91057318536876" lon="9.330385532513104"><ele>281.0</ele><time>2026-03-28T09:16:32Z</time></trkpt><trkpt lat="45.91078980538742" lon="9.330149980523354"><ele>281.0</ele><time>2026-03-28T09:16:33Z</time></trkpt><trkpt lat="45.9110170601053" lon="9.329899008431472"><ele>285.5</ele><time>2026-03-28T09:16:34Z</time></trkpt><trkpt lat="45.911257815896604" lon="9.329656865987449"><ele>290.0</ele><time>2026-03-28T09:16:35Z</time></trkpt><trkpt lat="45.911500280339524" lon="9.329445355000876"><ele>293.0</ele><time>2026-03-28T09:16:36Z</time></trkpt><trkpt lat="45.911754956355864" lon="9.329281327165297"><ele>296.0</ele><time>2026-03-28T09:16:37Z</time></trkpt><trkpt lat="45.91199261070813" lon="9.329124398242932"><ele>296.0</ele><time>2026-03-28T09:16:38Z</time></trkpt><trkpt lat="45.91221623961878" lon="9.328978706440704"><ele>296.0</ele><time>2026-03-28T09:16:39Z</time></trkpt><trkpt lat="45.91244872638798" lon="9.328858185662819"><ele>291.5</ele><time>2026-03-28T09:16:40Z</time></trkpt><trkpt lat="45.91266995791039" lon="9.328739281371785"><ele>287.0</ele><time>2026-03-28T09:16:41Z</time></trkpt><trkpt lat="45.91289554754678" lon="9.328628352883005"><ele>287.0</ele><time>2026-03-28T09:16:42Z</time></trkpt><trkpt lat="45.913108950031145" lon="9.328531475930742"><ele>287.0</ele><time>2026-03-28T09:16:43Z</time></trkpt><trkpt lat="45.91331106897872" lon="9.328452151955267"><ele>287.0</ele><time>2026-03-28T09:16:44Z</time></trkpt><trkpt lat="45.91350120780537" lon="9.32837924854123"><ele>288.75</ele><time>2026-03-28T09:16:45Z</time></trkpt><trkpt lat="45.91365999801993" lon="9.32831419514478"><ele>290.5</ele><time>2026-03-28T09:16:46Z</time></trkpt><trkpt lat="45.91379583910627" lon="9.32827072118471"><ele>292.25</ele><time>2026-03-28T09:16:47Z</time></trkpt><trkpt lat="45.913916272303744" lon="9.328266550014444"><ele>294.0</ele><time>2026-03-28T09:16:48Z</time></trkpt><trkpt lat="45.914037034283155" lon="9.328264968069425"><ele>294.0</ele><time>2026-03-28T09:16:49Z</time></trkpt><trkpt lat="45.91414767420018" lon="9.328267377327963"><ele>294.0</ele><time>2026-03-28T09:16:50Z</time></trkpt><trkpt lat="45.9142526021791" lon="9.3282692215309"><ele>294.0</ele><time>2026-03-28T09:16:51Z</time></trkpt><trkpt lat="45.91433897568565" lon="9.328267716388156"><ele>294.0</ele><time>2026-03-28T09:16:52Z</time></trkpt><trkpt lat="45.914402345438866" lon="9.32824499364937"><ele>294.0</ele><time>2026-03-28T09:16:53Z</time></trkpt><trkpt lat="45.91449603909709" lon="9.32820024219667"><ele>294.8333333333333</ele><time>2026-03-28T09:16:55Z</time></trkpt><trkpt lat="45.91455950774259" lon="9.328146086248546"><ele>295.6666666666667</ele><time>2026-03-28T09:16:58Z</time></trkpt><trkpt lat="45.91464471141528" lon="9.328103249627683"><ele>296.5</ele><time>2026-03-28T09:17:01Z</time></trkpt><trkpt lat="45.91470701926875" lon="9.32813295254485"><ele>297.33333333333337</ele><time>2026-03-28T09:17:04Z</time></trkpt><trkpt lat="45.91476944165567" lon="9.328094418986206"><ele>298.1666666666667</ele><time>2026-03-28T09:30:19.999Z</time></trkpt><trkpt lat="45.91484944199984" lon="9.32811515359053"><ele>299.0</ele><time>2026-03-28T09:30:22.999Z</time></trkpt><trkpt lat="45.914925813382865" lon="9.328065805834527"><ele>298.0</ele><time>2026-03-28T09:30:26.999Z</time></trkpt><trkpt lat="45.91497875348788" lon="9.328009544676108"><ele>297.0</ele><time>2026-03-28T09:30:46.999Z</time></trkpt><trkpt lat="45.915004083165236" lon="9.327915473201333"><ele>296.0</ele><time>2026-03-28T09:30:48.999Z</time></trkpt><trkpt lat="45.915043429183065" lon="9.32778257708303"><ele>295.0</ele><time>2026-03-28T09:30:50.999Z</time></trkpt><trkpt lat="45.91510500594771" lon="9.327690212833458"><ele>294.0</ele><time>2026-03-28T09:30:51.999Z</time></trkpt><trkpt lat="45.915164396672544" lon="9.327648464950167"><ele>293.0</ele><time>2026-03-28T09:30:52.999Z</time></trkpt><trkpt lat="45.915246775490864" lon="9.32760211741713"><ele>293.0</ele><time>2026-03-28T09:30:53.999Z</time></trkpt><trkpt lat="45.91533735357805" lon="9.327562637944652"><ele>293.0</ele><time>2026-03-28T09:30:54.999Z</time></trkpt><trkpt lat="45.91544128950499" lon="9.327519602060818"><ele>293.0</ele><time>2026-03-28T09:30:55.999Z</time></trkpt><trkpt lat="45.915573644148225" lon="9.327463870281205"><ele>293.0</ele><time>2026-03-28T09:30:56.999Z</time></trkpt><trkpt lat="45.915748600070295" lon="9.327382199365816"><ele>295.6666666666667</ele><time>2026-03-28T09:30:57.999Z</time></trkpt><trkpt lat="45.9159509622449" lon="9.327283657628538"><ele>298.3333333333333</ele><time>2026-03-28T09:30:58.999Z</time></trkpt><trkpt lat="45.91617823633492" lon="9.327200218514342"><ele>301.0</ele><time>2026-03-28T09:30:59.999Z</time></trkpt><trkpt lat="45.916412488933524" lon="9.327137886927101"><ele>293.0</ele><time>2026-03-28T09:31:00.999Z</time></trkpt><trkpt lat="45.91663404469086" lon="9.327128400512004"><ele>285.0</ele><time>2026-03-28T09:31:01.999Z</time></trkpt><trkpt lat="45.91682961946544" lon="9.327119998225962"><ele>277.0</ele><time>2026-03-28T09:31:02.999Z</time></trkpt><trkpt lat="45.91702318485307" lon="9.327140571444897"><ele>275.66666666666663</ele><time>2026-03-28T09:31:03.999Z</time></trkpt><trkpt lat="45.9172163484947" lon="9.32717882146436"><ele>274.3333333333333</ele><time>2026-03-28T09:31:04.999Z</time></trkpt><trkpt lat="45.91740739317558" lon="9.32722871917978"><ele>273.0</ele><time>2026-03-28T09:31:05.999Z</time></trkpt><trkpt lat="45.917596606491955" lon="9.327298496790352"><ele>280.3333333333333</ele><time>2026-03-28T09:31:06.999Z</time></trkpt><trkpt lat="45.917793630022125" lon="9.327387996344498"><ele>287.66666666666663</ele><time>2026-03-28T09:31:07.999Z</time></trkpt><trkpt lat="45.917992198892414" lon="9.327490820049803"><ele>295.0</ele><time>2026-03-28T09:31:08.999Z</time></trkpt><trkpt lat="45.91818971930216" lon="9.327617878458675"><ele>295.0</ele><time>2026-03-28T09:31:09.999Z</time></trkpt><trkpt lat="45.918375765676565" lon="9.327745058846013"><ele>295.0</ele><time>2026-03-28T09:31:11Z</time></trkpt><trkpt lat="45.9185644974321" lon="9.3279077691379"><ele>295.0</ele><time>2026-03-28T09:31:12Z</time></trkpt><trkpt lat="45.918757285833095" lon="9.328088650007041"><ele>297.5</ele><time>2026-03-28T09:31:13Z</time></trkpt><trkpt lat="45.918949810529135" lon="9.328285171391657"><ele>300.0</ele><time>2026-03-28T09:31:14Z</time></trkpt><trkpt lat="45.91914335325632" lon="9.328500038595744"><ele>295.0</ele><time>2026-03-28T09:31:15Z</time></trkpt><trkpt lat="45.91932810918665" lon="9.328740058772619"><ele>290.0</ele><time>2026-03-28T09:31:16Z</time></trkpt><trkpt lat="45.919538208256526" lon="9.328923117947157"><ele>301.0</ele><time>2026-03-28T09:31:17Z</time></trkpt><trkpt lat="45.91973453599575" lon="9.329111266551525"><ele>312.0</ele><time>2026-03-28T09:31:18Z</time></trkpt><trkpt lat="45.9199296927124" lon="9.329296499753719"><ele>316.5</ele><time>2026-03-28T09:31:19Z</time></trkpt><trkpt lat="45.92013264345478" lon="9.329483226493169"><ele>321.0</ele><time>2026-03-28T09:31:20Z</time></trkpt><trkpt lat="45.92034714622254" lon="9.329666816302286"><ele>335.5</ele><time>2026-03-28T09:31:21Z</time></trkpt><trkpt lat="45.92056551509321" lon="9.329840913377579"><ele>350.0</ele><time>2026-03-28T09:31:22Z</time></trkpt><trkpt lat="45.9207794727468" lon="9.329996751956111"><ele>349.0</ele><time>2026-03-28T09:31:23Z</time></trkpt><trkpt lat="45.92097479558732" lon="9.330076675329659"><ele>348.0</ele><time>2026-03-28T09:31:25.018Z</time></trkpt><trkpt lat="45.92291489725056" lon="9.330879681325964"><ele>381.0</ele><time>2026-03-28T09:31:28.614Z</time></trkpt><trkpt lat="45.923719173470964" lon="9.331013967132073"><ele>393.0</ele><time>2026-03-28T09:31:29.614Z</time></trkpt><trkpt lat="45.92452986794499" lon="9.331015441912626"><ele>394.0</ele><time>2026-03-28T09:31:30.616Z</time></trkpt><trkpt lat="45.92533598359879" lon="9.330912567135803"><ele>400.0</ele><time>2026-03-28T09:31:31.616Z</time></trkpt><trkpt lat="45.92612888279588" lon="9.330679779756652"><ele>393.0</ele><time>2026-03-28T09:31:32.616Z</time></trkpt><trkpt lat="45.926912027603706" lon="9.33039301958816"><ele>393.0</ele><time>2026-03-28T09:31:33.614Z</time></trkpt><trkpt lat="45.9275167" lon="9.3301797"><ele>337.0</ele><time>2026-03-28T09:31:34.614Z</time></trkpt><trkpt lat="45.92920353640423" lon="9.329982586213694"><ele>335.0</ele><time>2026-03-28T09:31:56.999Z</time></trkpt><trkpt lat="45.929466094059975" lon="9.329919674795114"><ele>333.0</ele><time>2026-03-28T09:31:57.999Z</time></trkpt><trkpt lat="45.92988100089464" lon="9.329309749249367"><ele>358.0</ele><time>2026-03-28T09:31:58.999Z</time></trkpt><trkpt lat="45.93015336073807" lon="9.329164400782046"><ele>383.0</ele><time>2026-03-28T09:31:59.999Z</time></trkpt><trkpt lat="45.93041563992412" lon="9.329034496799595"><ele>383.0</ele><time>2026-03-28T09:32:00.999Z</time></trkpt><trkpt lat="45.930674486094425" lon="9.328909172557804"><ele>383.0</ele><time>2026-03-28T09:32:01.999Z</time></trkpt><trkpt lat="45.93094006864295" lon="9.328780552772084"><ele>382.0</ele><time>2026-03-28T09:32:03.019Z</time></trkpt><trkpt lat="45.94397089914041" lon="9.313552798711987"><ele>382.0</ele><time>2026-03-28T09:32:59.999Z</time></trkpt><trkpt lat="45.944216607370734" lon="9.313288218589205"><ele>382.0</ele><time>2026-03-28T09:33:00.999Z</time></trkpt><trkpt lat="45.944571976795565" lon="9.312977321581323"><ele>382.0</ele><time>2026-03-28T09:33:01.999Z</time></trkpt><trkpt lat="45.944840893903844" lon="9.312774200389239"><ele>382.0</ele><time>2026-03-28T09:33:02.999Z</time></trkpt><trkpt lat="45.94513323969717" lon="9.312613866043415"><ele>382.0</ele><time>2026-03-28T09:33:03.999Z</time></trkpt><trkpt lat="45.945428924116946" lon="9.312481529693294"><ele>382.0</ele><time>2026-03-28T09:33:04.999Z</time></trkpt><trkpt lat="45.945726524331945" lon="9.312362658026228"><ele>381.5</ele><time>2026-03-28T09:33:05.999Z</time></trkpt><trkpt lat="45.94604336185432" lon="9.312275699475856"><ele>381.0</ele><time>2026-03-28T09:33:06.999Z</time></trkpt><trkpt lat="45.94635950060975" lon="9.312234328610778"><ele>381.0</ele><time>2026-03-28T09:33:07.999Z</time></trkpt><trkpt lat="45.94667141107927" lon="9.312216452718866"><ele>381.0</ele><time>2026-03-28T09:33:08.999Z</time></trkpt><trkpt lat="45.94698058018742" lon="9.31223419812072"><ele>378.5</ele><time>2026-03-28T09:33:09.999Z</time></trkpt><trkpt lat="45.94728721745609" lon="9.312273525965844"><ele>376.0</ele><time>2026-03-28T09:33:10.999Z</time></trkpt><trkpt lat="45.94759698292962" lon="9.312347296514146"><ele>376.0</ele><time>2026-03-28T09:33:11.999Z</time></trkpt><trkpt lat="45.947901836660186" lon="9.312450713488916"><ele>376.0</ele><time>2026-03-28T09:33:12.999Z</time></trkpt><trkpt lat="45.94820501591883" lon="9.312573918154127"><ele>369.5</ele><time>2026-03-28T09:33:13.999Z</time></trkpt><trkpt lat="45.9485186471437" lon="9.31273633425804"><ele>363.0</ele><time>2026-03-28T09:33:14.999Z</time></trkpt><trkpt lat="45.94882546882173" lon="9.312875870423303"><ele>363.0</ele><time>2026-03-28T09:33:15.999Z</time></trkpt><trkpt lat="45.94913190056425" lon="9.313004223963183"><ele>363.0</ele><time>2026-03-28T09:33:16.999Z</time></trkpt><trkpt lat="45.949445991917734" lon="9.31315304440787"><ele>363.0</ele><time>2026-03-28T09:33:17.999Z</time></trkpt><trkpt lat="45.94975155190227" lon="9.313287741897309"><ele>363.0</ele><time>2026-03-28T09:33:18.999Z</time></trkpt><trkpt lat="45.95005948375271" lon="9.313415175593908"><ele>351.5</ele><time>2026-03-28T09:33:19.999Z</time></trkpt><trkpt lat="45.95037268331254" lon="9.313548850894911"><ele>340.0</ele><time>2026-03-28T09:33:20.999Z</time></trkpt><trkpt lat="45.95068203723043" lon="9.313682541840212"><ele>335.0</ele><time>2026-03-28T09:33:21.999Z</time></trkpt><trkpt lat="45.95098823542761" lon="9.313817534377447"><ele>330.0</ele><time>2026-03-28T09:33:22.999Z</time></trkpt><trkpt lat="45.951296456494674" lon="9.3139262623996"><ele>342.5</ele><time>2026-03-28T09:33:23.999Z</time></trkpt><trkpt lat="45.95160247911467" lon="9.314012049009879"><ele>355.0</ele><time>2026-03-28T09:33:24.999Z</time></trkpt><trkpt lat="45.95190361472138" lon="9.314063953216799"><ele>367.5</ele><time>2026-03-28T09:33:25.999Z</time></trkpt><trkpt lat="45.95220087370588" lon="9.314089683671362"><ele>380.0</ele><time>2026-03-28T09:33:26.999Z</time></trkpt><trkpt lat="45.95249978263905" lon="9.314086589272334"><ele>391.0</ele><time>2026-03-28T09:33:27.999Z</time></trkpt><trkpt lat="45.95279615199389" lon="9.314071956244803"><ele>402.0</ele><time>2026-03-28T09:33:28.999Z</time></trkpt><trkpt lat="45.95307661991806" lon="9.31404647452164"><ele>402.0</ele><time>2026-03-28T09:33:29.999Z</time></trkpt><trkpt lat="45.953362144821874" lon="9.314017219003588"><ele>402.0</ele><time>2026-03-28T09:33:30.999Z</time></trkpt><trkpt lat="45.95364047284062" lon="9.313917080218"><ele>386.0</ele><time>2026-03-28T09:33:32.014Z</time></trkpt><trkpt lat="45.95391089363012" lon="9.313808443703591"><ele>370.0</ele><time>2026-03-28T09:33:33.019Z</time></trkpt><trkpt lat="45.95416951903155" lon="9.313684280013588"><ele>368.5</ele><time>2026-03-28T09:33:34.014Z</time></trkpt><trkpt lat="45.95443082073513" lon="9.313539512983272"><ele>367.0</ele><time>2026-03-28T09:33:35.019Z</time></trkpt><trkpt lat="45.95469636062676" lon="9.313373064312133"><ele>367.0</ele><time>2026-03-28T09:33:35.999Z</time></trkpt><trkpt lat="45.954960081993384" lon="9.313204952939321"><ele>367.0</ele><time>2026-03-28T09:33:36.999Z</time></trkpt><trkpt lat="45.955266115290364" lon="9.312948299851437"><ele>364.0</ele><time>2026-03-28T09:33:37.999Z</time></trkpt><trkpt lat="45.95553082189926" lon="9.312766301756252"><ele>361.0</ele><time>2026-03-28T09:33:38.999Z</time></trkpt><trkpt lat="45.95580769882947" lon="9.3125902519129"><ele>358.5</ele><time>2026-03-28T09:33:39.999Z</time></trkpt><trkpt lat="45.956088311394986" lon="9.3124564354143"><ele>356.0</ele><time>2026-03-28T09:33:40.999Z</time></trkpt><trkpt lat="45.95636758518891" lon="9.31233748012801"><ele>349.0</ele><time>2026-03-28T09:33:41.999Z</time></trkpt><trkpt lat="45.95665334130659" lon="9.312234043352627"><ele>342.0</ele><time>2026-03-28T09:33:42.999Z</time></trkpt><trkpt lat="45.95694183665294" lon="9.312152384352931"><ele>342.0</ele><time>2026-03-28T09:33:43.999Z</time></trkpt><trkpt lat="45.95723457383193" lon="9.312088928102739"><ele>342.0</ele><time>2026-03-28T09:33:44.999Z</time></trkpt><trkpt lat="45.95752917031192" lon="9.312045428328384"><ele>340.0</ele><time>2026-03-28T09:33:45.999Z</time></trkpt><trkpt lat="45.95782408564679" lon="9.312013623722972"><ele>338.0</ele><time>2026-03-28T09:33:46.999Z</time></trkpt><trkpt lat="45.95812302138309" lon="9.311993502561034"><ele>338.0</ele><time>2026-03-28T09:33:47.999Z</time></trkpt><trkpt lat="45.95841177806959" lon="9.311969167464698"><ele>338.0</ele><time>2026-03-28T09:33:48.999Z</time></trkpt><trkpt lat="45.958703471800774" lon="9.311936307021407"><ele>338.0</ele><time>2026-03-28T09:33:49.999Z</time></trkpt><trkpt lat="45.95899968994249" lon="9.311910560515708"><ele>338.0</ele><time>2026-03-28T09:33:50.999Z</time></trkpt><trkpt lat="45.959303333792874" lon="9.311887709511288"><ele>341.0</ele><time>2026-03-28T09:33:51.999Z</time></trkpt><trkpt lat="45.959604935447224" lon="9.311853335692968"><ele>344.0</ele><time>2026-03-28T09:33:52.999Z</time></trkpt><trkpt lat="45.95990327728128" lon="9.311807553004488"><ele>351.0</ele><time>2026-03-28T09:33:53.999Z</time></trkpt><trkpt lat="45.9602008229148" lon="9.311751136399632"><ele>358.0</ele><time>2026-03-28T09:33:54.999Z</time></trkpt><trkpt lat="45.960500608492765" lon="9.311689197832205"><ele>358.0</ele><time>2026-03-28T09:33:55.999Z</time></trkpt><trkpt lat="45.96079670916064" lon="9.31159713924638"><ele>358.0</ele><time>2026-03-28T09:33:56.999Z</time></trkpt><trkpt lat="45.96109403617876" lon="9.311492866267063"><ele>347.0</ele><time>2026-03-28T09:33:57.999Z</time></trkpt><trkpt lat="45.96139012335637" lon="9.311379451496057"><ele>336.0</ele><time>2026-03-28T09:33:58.999Z</time></trkpt><trkpt lat="45.96169412731207" lon="9.311262347075067"><ele>338.0</ele><time>2026-03-28T09:34:00.024Z</time></trkpt><trkpt lat="45.96198871266857" lon="9.31115074203433"><ele>340.0</ele><time>2026-03-28T09:34:01.019Z</time></trkpt><trkpt lat="45.96228388475876" lon="9.311040003940352"><ele>357.5</ele><time>2026-03-28T09:34:02.019Z</time></trkpt><trkpt lat="45.96257403165048" lon="9.310930978955923"><ele>375.0</ele><time>2026-03-28T09:34:02.999Z</time></trkpt><trkpt lat="45.96283156268592" lon="9.310592626762956"><ele>371.5</ele><time>2026-03-28T09:34:03.999Z</time></trkpt><trkpt lat="45.96310565567304" lon="9.310425532331132"><ele>368.0</ele><time>2026-03-28T09:34:04.999Z</time></trkpt><trkpt lat="45.96338510718028" lon="9.310270569549946"><ele>364.5</ele><time>2026-03-28T09:34:05.999Z</time></trkpt><trkpt lat="45.96367764886297" lon="9.31010690363532"><ele>361.0</ele><time>2026-03-28T09:34:07.025Z</time></trkpt><trkpt lat="45.96395933507137" lon="9.309944753268693"><ele>363.0</ele><time>2026-03-28T09:34:08.026Z</time></trkpt><trkpt lat="45.964237645730115" lon="9.309785869679576"><ele>365.0</ele><time>2026-03-28T09:34:09.025Z</time></trkpt><trkpt lat="45.96451704371764" lon="9.309618868144522"><ele>358.5</ele><time>2026-03-28T09:34:09.999Z</time></trkpt><trkpt lat="45.96472000287517" lon="9.309655429606725"><ele>352.0</ele><time>2026-03-28T09:34:10.999Z</time></trkpt><trkpt lat="45.96514537048926" lon="9.309240409776033"><ele>352.0</ele><time>2026-03-28T09:34:11.999Z</time></trkpt><trkpt lat="45.965443856256016" lon="9.30908069509195"><ele>352.0</ele><time>2026-03-28T09:34:12.999Z</time></trkpt><trkpt lat="45.96574717706282" lon="9.308934131877555"><ele>340.0</ele><time>2026-03-28T09:34:13.999Z</time></trkpt><trkpt lat="45.966047225361656" lon="9.308803482978533"><ele>328.0</ele><time>2026-03-28T09:34:14.999Z</time></trkpt><trkpt lat="45.96634456003173" lon="9.308674822114883"><ele>328.0</ele><time>2026-03-28T09:34:15.999Z</time></trkpt><trkpt lat="45.96663958806272" lon="9.308545009209341"><ele>328.0</ele><time>2026-03-28T09:34:16.999Z</time></trkpt><trkpt lat="45.966933085630714" lon="9.308416690989453"><ele>334.5</ele><time>2026-03-28T09:34:17.999Z</time></trkpt><trkpt lat="45.96722448995295" lon="9.308290148184735"><ele>341.0</ele><time>2026-03-28T09:34:18.999Z</time></trkpt><trkpt lat="45.9675182857264" lon="9.30816155876043"><ele>333.5</ele><time>2026-03-28T09:34:19.999Z</time></trkpt><trkpt lat="45.96781269199654" lon="9.308035758375455"><ele>326.0</ele><time>2026-03-28T09:34:20.999Z</time></trkpt><trkpt lat="45.96810956672654" lon="9.307906346861778"><ele>337.5</ele><time>2026-03-28T09:34:21.999Z</time></trkpt><trkpt lat="45.968405856114266" lon="9.307784286544953"><ele>349.0</ele><time>2026-03-28T09:34:22.999Z</time></trkpt><trkpt lat="45.968701945764984" lon="9.307670241090923"><ele>349.0</ele><time>2026-03-28T09:34:23.999Z</time></trkpt><trkpt lat="45.96898170382782" lon="9.307539658748722"><ele>349.0</ele><time>2026-03-28T09:34:24.999Z</time></trkpt><trkpt lat="45.96927055242092" lon="9.307406397096507"><ele>355.5</ele><time>2026-03-28T09:34:25.999Z</time></trkpt><trkpt lat="45.96956109228706" lon="9.307276106059303"><ele>362.0</ele><time>2026-03-28T09:34:26.999Z</time></trkpt><trkpt lat="45.96985329165272" lon="9.307143452161"><ele>396.0</ele><time>2026-03-28T09:34:28.018Z</time></trkpt><trkpt lat="45.97014341576769" lon="9.307006413169225"><ele>430.0</ele><time>2026-03-28T09:34:29.023Z</time></trkpt><trkpt lat="45.97043134002293" lon="9.306865939222659"><ele>430.0</ele><time>2026-03-28T09:34:30.023Z</time></trkpt><trkpt lat="45.97071837623226" lon="9.30673046884165"><ele>430.0</ele><time>2026-03-28T09:34:31.026Z</time></trkpt><trkpt lat="45.99261296917311" lon="9.295254014441086"><ele>382.0</ele><time>2026-03-28T09:35:40.999Z</time></trkpt><trkpt lat="45.99289984153129" lon="9.295283629067336"><ele>334.0</ele><time>2026-03-28T09:35:41.999Z</time></trkpt><trkpt lat="45.9931775176831" lon="9.295299359836683"><ele>331.0</ele><time>2026-03-28T09:35:42.999Z</time></trkpt><trkpt lat="45.99347793638047" lon="9.295319132401325"><ele>328.0</ele><time>2026-03-28T09:35:43.999Z</time></trkpt><trkpt lat="45.99377180885512" lon="9.295359808794032"><ele>328.0</ele><time>2026-03-28T09:35:44.999Z</time></trkpt><trkpt lat="45.99406880410089" lon="9.295413804728542"><ele>328.0</ele><time>2026-03-28T09:35:45.999Z</time></trkpt><trkpt lat="45.99436371107413" lon="9.295491936468114"><ele>339.0</ele><time>2026-03-28T09:35:46.999Z</time></trkpt><trkpt lat="45.9946874886639" lon="9.295627718382061"><ele>350.0</ele><time>2026-03-28T09:35:47.999Z</time></trkpt><trkpt lat="45.99497146376057" lon="9.295740706985569"><ele>346.0</ele><time>2026-03-28T09:35:48.999Z</time></trkpt><trkpt lat="45.995426079682645" lon="9.295878758697226"><ele>346.0</ele><time>2026-03-28T09:35:49.999Z</time></trkpt><trkpt lat="45.995744176297926" lon="9.295979211311655"><ele>346.0</ele><time>2026-03-28T09:35:50.999Z</time></trkpt><trkpt lat="45.996058230797445" lon="9.296092996785"><ele>351.0</ele><time>2026-03-28T09:35:51.999Z</time></trkpt><trkpt lat="45.99637454389096" lon="9.296204803096687"><ele>356.0</ele><time>2026-03-28T09:35:52.999Z</time></trkpt><trkpt lat="45.99669784858292" lon="9.296318637097336"><ele>377.0</ele><time>2026-03-28T09:35:54.021Z</time></trkpt><trkpt lat="45.997014061915024" lon="9.296429670601654"><ele>398.0</ele><time>2026-03-28T09:35:55.02Z</time></trkpt><trkpt lat="45.997331223225416" lon="9.296541302059337"><ele>400.5</ele><time>2026-03-28T09:35:56.022Z</time></trkpt><trkpt lat="45.99764740217688" lon="9.296652991108688"><ele>403.0</ele><time>2026-03-28T09:35:57.021Z</time></trkpt><trkpt lat="45.99796920175168" lon="9.296711137598166"><ele>341.0</ele><time>2026-03-28T09:35:58.022Z</time></trkpt><trkpt lat="46.01046675820463" lon="9.295838316911174"><ele>341.0</ele><time>2026-03-28T09:36:36Z</time></trkpt><trkpt lat="46.01072836401749" lon="9.295884624120955"><ele>341.0</ele><time>2026-03-28T09:36:37Z</time></trkpt><trkpt lat="46.010990005087244" lon="9.295931060078328"><ele>356.0</ele><time>2026-03-28T09:36:38Z</time></trkpt><trkpt lat="46.01125388500601" lon="9.296004364456287"><ele>371.0</ele><time>2026-03-28T09:36:39.023Z</time></trkpt><trkpt lat="46.01317973599333" lon="9.296912219819777"><ele>429.0</ele><time>2026-03-28T09:36:42.615Z</time></trkpt><trkpt lat="46.013935652811654" lon="9.297332327464439"><ele>450.0</ele><time>2026-03-28T09:36:43.616Z</time></trkpt><trkpt lat="46.01469037179706" lon="9.297745912848576"><ele>508.0</ele><time>2026-03-28T09:36:44.614Z</time></trkpt><trkpt lat="46.015448403818276" lon="9.298161231367006"><ele>545.0</ele><time>2026-03-28T09:36:45.616Z</time></trkpt><trkpt lat="46.01620453189921" lon="9.298576945103441"><ele>595.0</ele><time>2026-03-28T09:36:46.616Z</time></trkpt><trkpt lat="46.016960855413934" lon="9.298989930758944"><ele>612.0</ele><time>2026-03-28T09:36:47.615Z</time></trkpt><trkpt lat="46.017718566982595" lon="9.29940213677916"><ele>634.0</ele><time>2026-03-28T09:36:48.616Z</time></trkpt><trkpt lat="46.01847657575216" lon="9.299810319860864"><ele>647.0</ele><time>2026-03-28T09:36:49.616Z</time></trkpt><trkpt lat="46.019234624647495" lon="9.300218524550049"><ele>618.0</ele><time>2026-03-28T09:36:50.616Z</time></trkpt><trkpt lat="46.01999308892037" lon="9.300626254101651"><ele>618.0</ele><time>2026-03-28T09:36:51.616Z</time></trkpt><trkpt lat="46.02074498597148" lon="9.30104969953092"><ele>595.0</ele><time>2026-03-28T09:36:52.614Z</time></trkpt><trkpt lat="46.02150370863062" lon="9.301456173342455"><ele>570.0</ele><time>2026-03-28T09:36:53.614Z</time></trkpt><trkpt lat="46.02226403100494" lon="9.301862392564566"><ele>567.0</ele><time>2026-03-28T09:36:54.616Z</time></trkpt><trkpt lat="46.023022069447435" lon="9.302270697141818"><ele>564.0</ele><time>2026-03-28T09:36:55.616Z</time></trkpt><trkpt lat="46.02377739043116" lon="9.302689654317271"><ele>622.0</ele><time>2026-03-28T09:36:56.616Z</time></trkpt><trkpt lat="46.024529435676335" lon="9.303114395692994"><ele>650.0</ele><time>2026-03-28T09:36:57.614Z</time></trkpt><trkpt lat="46.02528434424014" lon="9.303533447595164"><ele>695.0</ele><time>2026-03-28T09:36:58.613Z</time></trkpt><trkpt lat="46.02603996385737" lon="9.303952441332907"><ele>718.0</ele><time>2026-03-28T09:36:59.614Z</time></trkpt><trkpt lat="46.02679668854391" lon="9.304372047835471"><ele>759.0</ele><time>2026-03-28T09:37:00.616Z</time></trkpt><trkpt lat="46.02755159909488" lon="9.304790571568043"><ele>759.0</ele><time>2026-03-28T09:37:01.615Z</time></trkpt><trkpt lat="46.02830758844888" lon="9.305208937041188"><ele>767.0</ele><time>2026-03-28T09:37:02.616Z</time></trkpt><trkpt lat="46.02906165391357" lon="9.305625968163943"><ele>730.0</ele><time>2026-03-28T09:37:03.614Z</time></trkpt><trkpt lat="46.02981706010779" lon="9.306043464566173"><ele>749.0</ele><time>2026-03-28T09:37:04.613Z</time></trkpt><trkpt lat="46.030574430944704" lon="9.30646204678324"><ele>712.0</ele><time>2026-03-28T09:37:05.616Z</time></trkpt><trkpt lat="46.03132836303108" lon="9.30687882222973"><ele>679.0</ele><time>2026-03-28T09:37:06.613Z</time></trkpt><trkpt lat="46.03208576929315" lon="9.307297315531619"><ele>633.0</ele><time>2026-03-28T09:37:07.616Z</time></trkpt><trkpt lat="46.032841251668586" lon="9.307715352709938"><ele>573.0</ele><time>2026-03-28T09:37:08.616Z</time></trkpt><trkpt lat="46.033596972949645" lon="9.308125711573526"><ele>535.0</ele><time>2026-03-28T09:37:09.614Z</time></trkpt><trkpt lat="46.034359542508156" lon="9.308523539925288"><ele>508.0</ele><time>2026-03-28T09:37:10.616Z</time></trkpt><trkpt lat="46.035126444790265" lon="9.308896730464884"><ele>430.0</ele><time>2026-03-28T09:37:11.616Z</time></trkpt><trkpt lat="46.03589330503285" lon="9.309269850350026"><ele>390.0</ele><time>2026-03-28T09:37:12.616Z</time></trkpt><trkpt lat="46.036659610353794" lon="9.309644867631397"><ele>362.0</ele><time>2026-03-28T09:37:13.616Z</time></trkpt><trkpt lat="46.037426195094724" lon="9.310019296477112"><ele>297.0</ele><time>2026-03-28T09:37:14.616Z</time></trkpt><trkpt lat="46.039074787339494" lon="9.31087291136352"><ele>294.0</ele><time>2026-03-28T09:38:13Z</time></trkpt><trkpt lat="46.03931188983296" lon="9.310957463729752"><ele>291.0</ele><time>2026-03-28T09:38:14Z</time></trkpt><trkpt lat="46.039657420486094" lon="9.311113031405819"><ele>300.5</ele><time>2026-03-28T09:38:15Z</time></trkpt><trkpt lat="46.03997676139252" lon="9.311270722775085"><ele>310.0</ele><time>2026-03-28T09:38:16Z</time></trkpt><trkpt lat="46.040288431963724" lon="9.311424776846087"><ele>317.5</ele><time>2026-03-28T09:38:17Z</time></trkpt><trkpt lat="46.04059822285377" lon="9.31158254228562"><ele>325.0</ele><time>2026-03-28T09:38:18Z</time></trkpt><trkpt lat="46.04091603401083" lon="9.311744344536901"><ele>336.5</ele><time>2026-03-28T09:38:19.021Z</time></trkpt><trkpt lat="46.04122736082454" lon="9.311900690151301"><ele>348.0</ele><time>2026-03-28T09:38:20.02Z</time></trkpt><trkpt lat="46.0415430499558" lon="9.312053708099617"><ele>313.0</ele><time>2026-03-28T09:38:21.025Z</time></trkpt><trkpt lat="46.05189931406652" lon="9.315450423663815"><ele>327.5</ele><time>2026-03-28T09:38:56.999Z</time></trkpt><trkpt lat="46.052119837391004" lon="9.315703687200221"><ele>342.0</ele><time>2026-03-28T09:38:57.999Z</time></trkpt><trkpt lat="46.05230557312611" lon="9.316004281151349"><ele>338.5</ele><time>2026-03-28T09:38:58.999Z</time></trkpt><trkpt lat="46.05252744433645" lon="9.31633488735911"><ele>335.0</ele><time>2026-03-28T09:38:59.999Z</time></trkpt><trkpt lat="46.05279483042534" lon="9.316625675691556"><ele>348.5</ele><time>2026-03-28T09:39:01.02Z</time></trkpt><trkpt lat="46.053069736850894" lon="9.316912134196702"><ele>362.0</ele><time>2026-03-28T09:39:02.019Z</time></trkpt><trkpt lat="46.053368645569826" lon="9.317200417152055"><ele>383.0</ele><time>2026-03-28T09:39:03.027Z</time></trkpt><trkpt lat="46.053655050779994" lon="9.317437522911016"><ele>404.0</ele><time>2026-03-28T09:39:04.021Z</time></trkpt><trkpt lat="46.055590787351065" lon="9.318324000625985"><ele>302.0</ele><time>2026-03-28T09:39:07.613Z</time></trkpt><trkpt lat="46.076992959758336" lon="9.315515505158636"><ele>302.0</ele><time>2026-03-28T09:40:18.999Z</time></trkpt><trkpt lat="46.07721782196787" lon="9.315388400524437"><ele>302.0</ele><time>2026-03-28T09:40:19.999Z</time></trkpt><trkpt lat="46.07762485006373" lon="9.315527885008851"><ele>307.5</ele><time>2026-03-28T09:40:20.999Z</time></trkpt><trkpt lat="46.07795681497625" lon="9.315483460703465"><ele>313.0</ele><time>2026-03-28T09:40:21.999Z</time></trkpt><trkpt lat="46.07829459366142" lon="9.315438248644277"><ele>391.0</ele><time>2026-03-28T09:40:23.017Z</time></trkpt><trkpt lat="46.08030106215454" lon="9.31502662376174"><ele>396.0</ele><time>2026-03-28T09:40:26.614Z</time></trkpt><trkpt lat="46.08109993604109" lon="9.314831894463891"><ele>356.0</ele><time>2026-03-28T09:40:27.615Z</time></trkpt><trkpt lat="46.08188111712329" lon="9.31453527183608"><ele>343.0</ele><time>2026-03-28T09:40:28.613Z</time></trkpt><trkpt lat="46.08264486856763" lon="9.314149887893743"><ele>283.0</ele><time>2026-03-28T09:40:29.613Z</time></trkpt><trkpt lat="46.08339425009094" lon="9.313710183656193"><ele>288.0</ele><time>2026-03-28T09:40:30.613Z</time></trkpt><trkpt lat="46.084316438106896" lon="9.313109647491308"><ele>278.0</ele><time>2026-03-28T09:40:40.999Z</time></trkpt><trkpt lat="46.084632684230755" lon="9.312937531723582"><ele>268.0</ele><time>2026-03-28T09:40:41.999Z</time></trkpt><trkpt lat="46.08493362552346" lon="9.312914478779115"><ele>268.0</ele><time>2026-03-28T09:40:43.001Z</time></trkpt><trkpt lat="46.08526113825714" lon="9.312840599446053"><ele>268.0</ele><time>2026-03-28T09:40:44.001Z</time></trkpt><trkpt lat="46.08558665879462" lon="9.312770929793755"><ele>270.5</ele><time>2026-03-28T09:40:45.001Z</time></trkpt><trkpt lat="46.0858975283434" lon="9.312739856762384"><ele>273.0</ele><time>2026-03-28T09:40:46.001Z</time></trkpt><trkpt lat="46.086208893821535" lon="9.3127323724539"><ele>273.0</ele><time>2026-03-28T09:40:47.001Z</time></trkpt><trkpt lat="46.08650617244539" lon="9.312750617040749"><ele>273.0</ele><time>2026-03-28T09:40:48.001Z</time></trkpt><trkpt lat="46.08679906246586" lon="9.312792797839679"><ele>273.0</ele><time>2026-03-28T09:40:49.001Z</time></trkpt><trkpt lat="46.08707564210682" lon="9.312878806896187"><ele>273.0</ele><time>2026-03-28T09:40:50.001Z</time></trkpt><trkpt lat="46.087349477856534" lon="9.312967534042954"><ele>286.5</ele><time>2026-03-28T09:40:51.001Z</time></trkpt><trkpt lat="46.0876229327735" lon="9.31306200862847"><ele>300.0</ele><time>2026-03-28T09:40:52.021Z</time></trkpt><trkpt lat="46.087892248212974" lon="9.31314819115722"><ele>272.0</ele><time>2026-03-28T09:40:53.019Z</time></trkpt><trkpt lat="46.10459972177269" lon="9.322377517828086"><ele>272.0</ele><time>2026-03-28T09:41:56Z</time></trkpt><trkpt lat="46.10490917719904" lon="9.322690932660107"><ele>272.0</ele><time>2026-03-28T09:41:57Z</time></trkpt><trkpt lat="46.10518889023524" lon="9.32280353223742"><ele>275.5</ele><time>2026-03-28T09:41:58Z</time></trkpt><trkpt lat="46.105477941086164" lon="9.322915308485692"><ele>279.0</ele><time>2026-03-28T09:41:59.019Z</time></trkpt><trkpt lat="46.10576069414883" lon="9.32302281728743"><ele>319.0</ele><time>2026-03-28T09:42:00.021Z</time></trkpt><trkpt lat="46.106042167424" lon="9.323138936916061"><ele>359.0</ele><time>2026-03-28T09:42:01.022Z</time></trkpt><trkpt lat="46.10632628184703" lon="9.323250811064279"><ele>223.0</ele><time>2026-03-28T09:42:02.028Z</time></trkpt><trkpt lat="46.11834021371265" lon="9.35124210278463"><ele>225.0</ele><time>2026-03-28T09:43:04Z</time></trkpt><trkpt lat="46.11844797913944" lon="9.35160040286489"><ele>227.0</ele><time>2026-03-28T09:43:05Z</time></trkpt><trkpt lat="46.118717434342884" lon="9.35195111840694"><ele>230.5</ele><time>2026-03-28T09:43:06Z</time></trkpt><trkpt lat="46.119016962303796" lon="9.352247265330446"><ele>234.0</ele><time>2026-03-28T09:43:07Z</time></trkpt><trkpt lat="46.1192941381312" lon="9.352559878289103"><ele>234.0</ele><time>2026-03-28T09:43:08Z</time></trkpt><trkpt lat="46.11955963729392" lon="9.35283920114426"><ele>234.0</ele><time>2026-03-28T09:43:09Z</time></trkpt><trkpt lat="46.11983876521238" lon="9.35314957567755"><ele>236.5</ele><time>2026-03-28T09:43:10Z</time></trkpt><trkpt lat="46.12012789292378" lon="9.35346542451216"><ele>239.0</ele><time>2026-03-28T09:43:11.026Z</time></trkpt><trkpt lat="46.12243067221943" lon="9.355861140094255"><ele>255.0</ele><time>2026-03-28T09:43:15.612Z</time></trkpt><trkpt lat="46.123094666655355" lon="9.35652883710139"><ele>250.0</ele><time>2026-03-28T09:43:16.613Z</time></trkpt><trkpt lat="46.12375709222183" lon="9.357196650485282"><ele>251.0</ele><time>2026-03-28T09:43:17.612Z</time></trkpt><trkpt lat="46.1244213609176" lon="9.357866740068676"><ele>252.0</ele><time>2026-03-28T09:43:18.614Z</time></trkpt><trkpt lat="46.125082822649674" lon="9.358538235066913"><ele>258.0</ele><time>2026-03-28T09:43:19.614Z</time></trkpt><trkpt lat="46.12570227015999" lon="9.359282939350813"><ele>256.0</ele><time>2026-03-28T09:43:20.613Z</time></trkpt><trkpt lat="46.12621713033066" lon="9.36017781900123"><ele>253.0</ele><time>2026-03-28T09:43:21.612Z</time></trkpt><trkpt lat="46.12661552159769" lon="9.361192468118706"><ele>262.0</ele><time>2026-03-28T09:43:22.613Z</time></trkpt><trkpt lat="46.12731507965924" lon="9.363525484257927"><ele>259.0</ele><time>2026-03-28T09:43:42Z</time></trkpt><trkpt lat="46.127469003803355" lon="9.363961850715228"><ele>256.0</ele><time>2026-03-28T09:43:43Z</time></trkpt><trkpt lat="46.12756610629214" lon="9.36439460988756"><ele>256.5</ele><time>2026-03-28T09:43:44Z</time></trkpt><trkpt lat="46.12764512168553" lon="9.364849079600988"><ele>257.0</ele><time>2026-03-28T09:43:45Z</time></trkpt><trkpt lat="46.127721144913636" lon="9.365305717793023"><ele>257.5</ele><time>2026-03-28T09:43:46Z</time></trkpt><trkpt lat="46.12778920561994" lon="9.365760697676599"><ele>258.0</ele><time>2026-03-28T09:43:47Z</time></trkpt><trkpt lat="46.1278601371049" lon="9.366210929283644"><ele>259.5</ele><time>2026-03-28T09:43:48Z</time></trkpt><trkpt lat="46.12793520127606" lon="9.366657772426557"><ele>261.0</ele><time>2026-03-28T09:43:49Z</time></trkpt><trkpt lat="46.12800381163856" lon="9.367106755149575"><ele>263.0</ele><time>2026-03-28T09:43:50Z</time></trkpt><trkpt lat="46.128071561619684" lon="9.367554715786213"><ele>265.0</ele><time>2026-03-28T09:43:51Z</time></trkpt><trkpt lat="46.128137998555225" lon="9.368012809559145"><ele>267.0</ele><time>2026-03-28T09:43:52Z</time></trkpt><trkpt lat="46.128203075405594" lon="9.368481265095669"><ele>269.0</ele><time>2026-03-28T09:43:53Z</time></trkpt><trkpt lat="46.12827930962615" lon="9.368955441746046"><ele>267.0</ele><time>2026-03-28T09:43:54Z</time></trkpt><trkpt lat="46.128351937314385" lon="9.369419808845915"><ele>265.0</ele><time>2026-03-28T09:43:55Z</time></trkpt><trkpt lat="46.12842443924549" lon="9.369886825179474"><ele>265.0</ele><time>2026-03-28T09:43:56Z</time></trkpt><trkpt lat="46.128493031820426" lon="9.370348676826545"><ele>265.0</ele><time>2026-03-28T09:43:57Z</time></trkpt><trkpt lat="46.12855924603338" lon="9.370809893949312"><ele>265.0</ele><time>2026-03-28T09:43:58Z</time></trkpt><trkpt lat="46.128627284479165" lon="9.371271697344241"><ele>265.0</ele><time>2026-03-28T09:43:59Z</time></trkpt><trkpt lat="46.1286958348011" lon="9.371729255320421"><ele>266.0</ele><time>2026-03-28T09:44:00Z</time></trkpt><trkpt lat="46.12875764959508" lon="9.372189619428996"><ele>267.0</ele><time>2026-03-28T09:44:01Z</time></trkpt><trkpt lat="46.12882435849642" lon="9.372649909164583"><ele>267.0</ele><time>2026-03-28T09:44:02Z</time></trkpt><trkpt lat="46.12890384359201" lon="9.37310771936447"><ele>267.0</ele><time>2026-03-28T09:44:03Z</time></trkpt><trkpt lat="46.12898672217109" lon="9.37355680128731"><ele>266.5</ele><time>2026-03-28T09:44:04Z</time></trkpt><trkpt lat="46.129081044273136" lon="9.373994892401084"><ele>266.0</ele><time>2026-03-28T09:44:05Z</time></trkpt><trkpt lat="46.129186407470435" lon="9.374429641779741"><ele>269.0</ele><time>2026-03-28T09:44:06Z</time></trkpt><trkpt lat="46.12929739904415" lon="9.37486417341106"><ele>272.0</ele><time>2026-03-28T09:44:07Z</time></trkpt><trkpt lat="46.12940706160807" lon="9.375304669279735"><ele>273.5</ele><time>2026-03-28T09:44:08.013Z</time></trkpt><trkpt lat="46.12951874146974" lon="9.375744120187466"><ele>275.0</ele><time>2026-03-28T09:44:09.016Z</time></trkpt><trkpt lat="46.12964978085523" lon="9.376164728054924"><ele>278.5</ele><time>2026-03-28T09:44:10.021Z</time></trkpt><trkpt lat="46.12980504559063" lon="9.376560118808948"><ele>282.0</ele><time>2026-03-28T09:44:11.018Z</time></trkpt><trkpt lat="46.130989866359656" lon="9.3789159617277"><ele>286.0</ele><time>2026-03-28T09:44:14.612Z</time></trkpt><trkpt lat="46.13145221407488" lon="9.379874176109759"><ele>279.0</ele><time>2026-03-28T09:44:15.613Z</time></trkpt><trkpt lat="46.13164166924183" lon="9.381013037645612"><ele>279.0</ele><time>2026-03-28T09:44:22Z</time></trkpt><trkpt lat="46.13208999954203" lon="9.381337659174152"><ele>282.0</ele><time>2026-03-28T09:44:23Z</time></trkpt><trkpt lat="46.13236632999307" lon="9.381749001183174"><ele>285.0</ele><time>2026-03-28T09:44:24Z</time></trkpt><trkpt lat="46.13255877049391" lon="9.382147703570858"><ele>280.5</ele><time>2026-03-28T09:44:25Z</time></trkpt><trkpt lat="46.13273993812343" lon="9.382542692777003"><ele>276.0</ele><time>2026-03-28T09:44:26Z</time></trkpt><trkpt lat="46.132925977180406" lon="9.382940992283684"><ele>273.0</ele><time>2026-03-28T09:44:27Z</time></trkpt><trkpt lat="46.1330870003814" lon="9.383342126719905"><ele>270.0</ele><time>2026-03-28T09:44:28Z</time></trkpt><trkpt lat="46.13323781625414" lon="9.383750711119443"><ele>270.0</ele><time>2026-03-28T09:44:29Z</time></trkpt><trkpt lat="46.13337141970677" lon="9.384177222727649"><ele>270.0</ele><time>2026-03-28T09:44:30Z</time></trkpt><trkpt lat="46.133479173448464" lon="9.384613621281781"><ele>271.0</ele><time>2026-03-28T09:44:31Z</time></trkpt><trkpt lat="46.133570959123404" lon="9.385048542971344"><ele>272.0</ele><time>2026-03-28T09:44:32Z</time></trkpt><trkpt lat="46.13364023724372" lon="9.385487517382833"><ele>274.0</ele><time>2026-03-28T09:44:33Z</time></trkpt><trkpt lat="46.13368961177399" lon="9.385928911984838"><ele>276.0</ele><time>2026-03-28T09:44:34Z</time></trkpt><trkpt lat="46.1337176719602" lon="9.386366850836719"><ele>276.0</ele><time>2026-03-28T09:44:35Z</time></trkpt><trkpt lat="46.13373599120679" lon="9.386813025057238"><ele>276.0</ele><time>2026-03-28T09:44:36Z</time></trkpt><trkpt lat="46.13373260121055" lon="9.387255483209524"><ele>277.0</ele><time>2026-03-28T09:44:37Z</time></trkpt><trkpt lat="46.13370920621434" lon="9.387704780998305"><ele>278.0</ele><time>2026-03-28T09:44:38Z</time></trkpt><trkpt lat="46.133676962175514" lon="9.388156314608647"><ele>278.0</ele><time>2026-03-28T09:44:39Z</time></trkpt><trkpt lat="46.13363180899819" lon="9.388578925088979"><ele>278.0</ele><time>2026-03-28T09:44:40Z</time></trkpt><trkpt lat="46.133582598450516" lon="9.388976291554021"><ele>278.0</ele><time>2026-03-28T09:44:41Z</time></trkpt><trkpt lat="46.133519995008875" lon="9.389343447128237"><ele>278.0</ele><time>2026-03-28T09:44:42Z</time></trkpt><trkpt lat="46.133455112288004" lon="9.389698164850376"><ele>277.0</ele><time>2026-03-28T09:44:43Z</time></trkpt><trkpt lat="46.13339246340333" lon="9.390065019594699"><ele>276.0</ele><time>2026-03-28T09:44:44Z</time></trkpt><trkpt lat="46.133321103820016" lon="9.390438754952896"><ele>276.0</ele><time>2026-03-28T09:44:45Z</time></trkpt><trkpt lat="46.133255551544686" lon="9.390814702460645"><ele>276.0</ele><time>2026-03-28T09:44:46Z</time></trkpt><trkpt lat="46.13318688030423" lon="9.391212083823302"><ele>280.5</ele><time>2026-03-28T09:44:47Z</time></trkpt><trkpt lat="46.133118036385376" lon="9.391611068803787"><ele>285.0</ele><time>2026-03-28T09:44:48Z</time></trkpt><trkpt lat="46.13304847665698" lon="9.392012094868145"><ele>283.5</ele><time>2026-03-28T09:44:49.012Z</time></trkpt><trkpt lat="46.13297738900114" lon="9.39240989232138"><ele>282.0</ele><time>2026-03-28T09:44:50.017Z</time></trkpt><trkpt lat="46.13290782074979" lon="9.39281012135419"><ele>281.0</ele><time>2026-03-28T09:44:51.019Z</time></trkpt><trkpt lat="46.13283648833153" lon="9.393204582712873"><ele>280.0</ele><time>2026-03-28T09:44:52.022Z</time></trkpt><trkpt lat="46.13237025772176" lon="9.396038689165517"><ele>280.0</ele><time>2026-03-28T09:44:55.611Z</time></trkpt><trkpt lat="46.132297343617424" lon="9.397927718245795"><ele>285.0</ele><time>2026-03-28T09:45:03Z</time></trkpt><trkpt lat="46.13228209030537" lon="9.39834042781081"><ele>290.0</ele><time>2026-03-28T09:45:04Z</time></trkpt><trkpt lat="46.13231700197847" lon="9.39875286163406"><ele>298.0</ele><time>2026-03-28T09:45:05Z</time></trkpt><trkpt lat="46.132376827058565" lon="9.3991609064518"><ele>306.0</ele><time>2026-03-28T09:45:06Z</time></trkpt><trkpt lat="46.132462287569936" lon="9.399574250910122"><ele>278.0</ele><time>2026-03-28T09:45:07Z</time></trkpt><trkpt lat="46.13256364370867" lon="9.3999805807333"><ele>250.0</ele><time>2026-03-28T09:45:08Z</time></trkpt><trkpt lat="46.13269623462117" lon="9.400389512353515"><ele>249.5</ele><time>2026-03-28T09:45:09Z</time></trkpt><trkpt lat="46.13282907279183" lon="9.400804975548558"><ele>249.0</ele><time>2026-03-28T09:45:10Z</time></trkpt><trkpt lat="46.13298125148818" lon="9.4012379732682"><ele>252.0</ele><time>2026-03-28T09:45:11Z</time></trkpt><trkpt lat="46.13312934939091" lon="9.401682286800332"><ele>255.0</ele><time>2026-03-28T09:45:12Z</time></trkpt><trkpt lat="46.13327946008671" lon="9.40214275092938"><ele>254.5</ele><time>2026-03-28T09:45:13Z</time></trkpt><trkpt lat="46.13343523919865" lon="9.402616212328704"><ele>254.0</ele><time>2026-03-28T09:45:14Z</time></trkpt><trkpt lat="46.13357866855028" lon="9.403057859601585"><ele>254.0</ele><time>2026-03-28T09:45:15.001Z</time></trkpt><trkpt lat="46.133727434906" lon="9.40347049388174"><ele>254.0</ele><time>2026-03-28T09:45:16.001Z</time></trkpt><trkpt lat="46.133883682656084" lon="9.403896402149774"><ele>256.5</ele><time>2026-03-28T09:45:17.02Z</time></trkpt><trkpt lat="46.1340358436613" lon="9.404311066000465"><ele>259.0</ele><time>2026-03-28T09:45:18.021Z</time></trkpt><trkpt lat="46.13423811289415" lon="9.404670918189778"><ele>253.5</ele><time>2026-03-28T09:45:19.022Z</time></trkpt><trkpt lat="46.134455526532264" lon="9.404989867043072"><ele>248.0</ele><time>2026-03-28T09:45:20.021Z</time></trkpt><trkpt lat="46.135512725493065" lon="9.406026313090143"><ele>233.5</ele><time>2026-03-28T09:45:24.001Z</time></trkpt><trkpt lat="46.13573759469293" lon="9.406281954708827"><ele>219.0</ele><time>2026-03-28T09:45:25.001Z</time></trkpt><trkpt lat="46.13593607608151" lon="9.406524106454926"><ele>219.0</ele><time>2026-03-28T09:45:26.001Z</time></trkpt><trkpt lat="46.136139517623555" lon="9.406707254591337"><ele>219.0</ele><time>2026-03-28T09:45:27.001Z</time></trkpt><trkpt lat="46.13633198195877" lon="9.40692036612835"><ele>219.0</ele><time>2026-03-28T09:45:28.001Z</time></trkpt><trkpt lat="46.136534409865995" lon="9.40714464965812"><ele>219.0</ele><time>2026-03-28T09:45:29Z</time></trkpt><trkpt lat="46.136718866751465" lon="9.407347180680746"><ele>214.5</ele><time>2026-03-28T09:45:30Z</time></trkpt><trkpt lat="46.13691194401494" lon="9.407555723303732"><ele>210.0</ele><time>2026-03-28T09:45:31Z</time></trkpt><trkpt lat="46.13709595893066" lon="9.407747220426527"><ele>210.0</ele><time>2026-03-28T09:45:32Z</time></trkpt><trkpt lat="46.13728124655157" lon="9.407947616059548"><ele>210.0</ele><time>2026-03-28T09:45:33Z</time></trkpt><trkpt lat="46.13744619447347" lon="9.408135706591052"><ele>210.0</ele><time>2026-03-28T09:45:34Z</time></trkpt><trkpt lat="46.1376430840458" lon="9.408329963904103"><ele>208.5</ele><time>2026-03-28T09:45:35Z</time></trkpt><trkpt lat="46.13786266362955" lon="9.408542344020406"><ele>207.0</ele><time>2026-03-28T09:45:36Z</time></trkpt><trkpt lat="46.138092374109476" lon="9.408769121730417"><ele>205.0</ele><time>2026-03-28T09:45:37Z</time></trkpt><trkpt lat="46.138316230026966" lon="9.409016818304016"><ele>203.0</ele><time>2026-03-28T09:45:38Z</time></trkpt><trkpt lat="46.13852322556236" lon="9.409276202942898"><ele>203.0</ele><time>2026-03-28T09:45:39Z</time></trkpt><trkpt lat="46.13872468846243" lon="9.409526735669038"><ele>203.0</ele><time>2026-03-28T09:45:40Z</time></trkpt><trkpt lat="46.138950448231725" lon="9.409758043594811"><ele>202.5</ele><time>2026-03-28T09:45:41Z</time></trkpt><trkpt lat="46.139145598083246" lon="9.409981152926767"><ele>202.0</ele><time>2026-03-28T09:45:42Z</time></trkpt><trkpt lat="46.1393335388769" lon="9.410185780134006"><ele>202.0</ele><time>2026-03-28T09:45:43Z</time></trkpt><trkpt lat="46.139518661244175" lon="9.410379487103997"><ele>202.0</ele><time>2026-03-28T09:45:44Z</time></trkpt><trkpt lat="46.13967415977874" lon="9.410571481522503"><ele>202.0</ele><time>2026-03-28T09:45:45Z</time></trkpt><trkpt lat="46.139842054960226" lon="9.410740973991418"><ele>202.33333333333331</ele><time>2026-03-28T09:45:46Z</time></trkpt><trkpt lat="46.140001574457756" lon="9.410899920513199"><ele>202.66666666666669</ele><time>2026-03-28T09:45:47Z</time></trkpt><trkpt lat="46.14015565340507" lon="9.41105556186434"><ele>203.0</ele><time>2026-03-28T09:45:48Z</time></trkpt><trkpt lat="46.14030532342622" lon="9.411200584524352"><ele>203.0</ele><time>2026-03-28T09:45:49Z</time></trkpt><trkpt lat="46.14044765711086" lon="9.41134465979583"><ele>203.0</ele><time>2026-03-28T09:45:50Z</time></trkpt><trkpt lat="46.1405840278294" lon="9.411490231803048"><ele>203.0</ele><time>2026-03-28T09:45:51Z</time></trkpt><trkpt lat="46.140722719992844" lon="9.411641471699365"><ele>203.0</ele><time>2026-03-28T09:45:52Z</time></trkpt><trkpt lat="46.140863201398915" lon="9.411788399797706"><ele>203.0</ele><time>2026-03-28T09:45:53Z</time></trkpt><trkpt lat="46.141003642688815" lon="9.411941337499544"><ele>203.0</ele><time>2026-03-28T09:45:54Z</time></trkpt><trkpt lat="46.14114618649065" lon="9.412098356605528"><ele>202.66666666666669</ele><time>2026-03-28T09:45:55Z</time></trkpt><trkpt lat="46.1412853959161" lon="9.412265151644052"><ele>202.33333333333331</ele><time>2026-03-28T09:45:56Z</time></trkpt><trkpt lat="46.14142273169982" lon="9.412460876615084"><ele>202.0</ele><time>2026-03-28T09:45:57Z</time></trkpt><trkpt lat="46.14155296683535" lon="9.412680583262317"><ele>201.66666666666666</ele><time>2026-03-28T09:45:58Z</time></trkpt><trkpt lat="46.141676244150204" lon="9.412928809252922"><ele>201.33333333333331</ele><time>2026-03-28T09:45:59Z</time></trkpt><trkpt lat="46.14179129895859" lon="9.413196811720479"><ele>201.0</ele><time>2026-03-28T09:46:00Z</time></trkpt><trkpt lat="46.141895303694376" lon="9.4134756971723"><ele>201.0</ele><time>2026-03-28T09:46:01Z</time></trkpt><trkpt lat="46.141991792387714" lon="9.413749252182276"><ele>201.0</ele><time>2026-03-28T09:46:02Z</time></trkpt><trkpt lat="46.14208135472489" lon="9.41399819120614"><ele>201.0</ele><time>2026-03-28T09:46:03Z</time></trkpt><trkpt lat="46.14215767214099" lon="9.414217719432374"><ele>201.0</ele><time>2026-03-28T09:46:04Z</time></trkpt><trkpt lat="46.14224813819803" lon="9.414424727298814"><ele>201.0</ele><time>2026-03-28T09:46:05Z</time></trkpt><trkpt lat="46.14233546384225" lon="9.414637844021472"><ele>201.0</ele><time>2026-03-28T09:46:06Z</time></trkpt><trkpt lat="46.142420664995186" lon="9.414837693072307"><ele>201.0</ele><time>2026-03-28T09:46:07Z</time></trkpt><trkpt lat="46.14249174318276" lon="9.415016377219265"><ele>201.0</ele><time>2026-03-28T09:46:08Z</time></trkpt><trkpt lat="46.14254913710401" lon="9.41516453340874"><ele>201.0</ele><time>2026-03-28T09:46:09Z</time></trkpt><trkpt lat="46.14257425540666" lon="9.415318088068325"><ele>201.0</ele><time>2026-03-28T09:46:10Z</time></trkpt><trkpt lat="46.14256942871838" lon="9.415483620899487"><ele>201.0</ele><time>2026-03-28T09:46:11Z</time></trkpt><trkpt lat="46.14253194168525" lon="9.415652796710011"><ele>201.0</ele><time>2026-03-28T09:46:12Z</time></trkpt><trkpt lat="46.14249344010612" lon="9.415823426273901"><ele>201.0</ele><time>2026-03-28T09:46:13Z</time></trkpt><trkpt lat="46.1424630818133" lon="9.415970925910988"><ele>201.0</ele><time>2026-03-28T09:46:14Z</time></trkpt><trkpt lat="46.1423923606917" lon="9.41607901131144"><ele>201.0</ele><time>2026-03-28T09:46:15Z</time></trkpt><trkpt lat="46.142289006107355" lon="9.416155316530906"><ele>201.0</ele><time>2026-03-28T09:46:16Z</time></trkpt><trkpt lat="46.14219450882932" lon="9.416213894893747"><ele>201.0</ele><time>2026-03-28T09:46:17Z</time></trkpt><trkpt lat="46.14212269750852" lon="9.416272854520951"><ele>201.0</ele><time>2026-03-28T09:46:18Z</time></trkpt><trkpt lat="46.14205799616679" lon="9.41629026330698"><ele>201.0</ele><time>2026-03-28T09:46:19Z</time></trkpt><trkpt lat="46.141953797807574" lon="9.416221895757479"><ele>201.0</ele><time>2026-03-28T09:46:21Z</time></trkpt><trkpt lat="46.141895041618774" lon="9.416169172629429"><ele>201.0</ele><time>2026-03-28T09:46:22Z</time></trkpt><trkpt lat="46.14184211001028" lon="9.416085502116948"><ele>201.0</ele><time>2026-03-28T09:46:23Z</time></trkpt><trkpt lat="46.141808948430224" lon="9.415982340646847"><ele>201.0</ele><time>2026-03-28T09:46:24Z</time></trkpt><trkpt lat="46.14179940269062" lon="9.415876574352165"><ele>201.0</ele><time>2026-03-28T09:46:25Z</time></trkpt><trkpt lat="46.141825183656216" lon="9.415763780857288"><ele>201.0</ele><time>2026-03-28T09:46:26Z</time></trkpt><trkpt lat="46.14186874475822" lon="9.415609246308469"><ele>200.75</ele><time>2026-03-28T09:46:27Z</time></trkpt><trkpt lat="46.14188554787471" lon="9.415423824236727"><ele>200.5</ele><time>2026-03-28T09:46:28Z</time></trkpt><trkpt lat="46.14187084037213" lon="9.4152204718469"><ele>200.25</ele><time>2026-03-28T09:46:29Z</time></trkpt><trkpt lat="46.14184798776992" lon="9.41503815501523"><ele>200.0</ele><time>2026-03-28T09:46:30Z</time></trkpt><trkpt lat="46.14182340092818" lon="9.414862376936478"><ele>200.0</ele><time>2026-03-28T09:46:31Z</time></trkpt><trkpt lat="46.14180481003916" lon="9.414694750425435"><ele>200.0</ele><time>2026-03-28T09:46:32Z</time></trkpt><trkpt lat="46.14179014277421" lon="9.414538532475413"><ele>200.0</ele><time>2026-03-28T09:46:33Z</time></trkpt><trkpt lat="46.14178441440694" lon="9.414418446280797"><ele>200.0</ele><time>2026-03-28T09:46:34Z</time></trkpt><trkpt lat="46.14174643984213" lon="9.41427119095701"><ele>200.0</ele><time>2026-03-28T09:46:36Z</time></trkpt><trkpt lat="46.14166052548561" lon="9.414208444185299"><ele>200.00000000000003</ele><time>2026-03-28T09:46:38Z</time></trkpt><trkpt lat="46.14160299316668" lon="9.41414787694569"><ele>200.0</ele><time>2026-03-28T09:46:40Z</time></trkpt><trkpt lat="46.14157014918536" lon="9.414026506716203"><ele>200.0</ele><time>2026-03-28T09:46:42Z</time></trkpt><trkpt lat="46.14152086158762" lon="9.4139084149896"><ele>200.0</ele><time>2026-03-28T09:46:44Z</time></trkpt><trkpt lat="46.14145885554591" lon="9.413818470706373"><ele>200.00000000000003</ele><time>2026-03-28T09:46:46Z</time></trkpt><trkpt lat="46.14138827770135" lon="9.413735678822066"><ele>200.0</ele><time>2026-03-28T09:46:48Z</time></trkpt><trkpt lat="46.14132329511776" lon="9.413652000427758"><ele>200.00000000000003</ele><time>2026-03-28T09:46:50Z</time></trkpt><trkpt lat="46.141297090560926" lon="9.41354161000093"><ele>200.0</ele><time>2026-03-28T09:46:53Z</time></trkpt><trkpt lat="46.14137306332538" lon="9.41358333971499"><ele>200.0</ele><time>2026-03-28T09:48:15Z</time></trkpt><trkpt lat="46.141439986635554" lon="9.413498791987877"><ele>200.0</ele><time>2026-03-28T09:50:25Z</time></trkpt><trkpt lat="46.14139513532981" lon="9.413410082896736"><ele>200.00000000000003</ele><time>2026-03-28T09:50:29Z</time></trkpt><trkpt lat="46.14139408736982" lon="9.413317657578704"><ele>200.0</ele><time>2026-03-28T09:50:34Z</time></trkpt><trkpt lat="46.14145536444726" lon="9.41328086623323"><ele>200.00000000000003</ele><time>2026-03-28T09:52:40Z</time></trkpt><trkpt lat="46.14149619819697" lon="9.413353573483757"><ele>200.0</ele><time>2026-03-28T09:52:44Z</time></trkpt><trkpt lat="46.141564430458445" lon="9.413456883208585"><ele>200.0</ele><time>2026-03-28T09:52:46Z</time></trkpt><trkpt lat="46.14161806530537" lon="9.413534354864916"><ele>200.0</ele><time>2026-03-28T09:52:47Z</time></trkpt><trkpt lat="46.14167189307984" lon="9.413631534141492"><ele>200.00000000000003</ele><time>2026-03-28T09:52:48Z</time></trkpt><trkpt lat="46.14169987042568" lon="9.413735129912299"><ele>200.0</ele><time>2026-03-28T09:52:49Z</time></trkpt><trkpt lat="46.14171635156967" lon="9.413843615525828"><ele>200.00000000000003</ele><time>2026-03-28T09:52:49.999Z</time></trkpt><trkpt lat="46.141723615271395" lon="9.413939005358413"><ele>200.0</ele><time>2026-03-28T09:52:50.999Z</time></trkpt><trkpt lat="46.141727945021614" lon="9.414029991208027"><ele>200.0</ele><time>2026-03-28T09:52:51.999Z</time></trkpt><trkpt lat="46.14173241846472" lon="9.414128771674303"><ele>200.0</ele><time>2026-03-28T09:52:52.999Z</time></trkpt><trkpt lat="46.14173669521881" lon="9.414234548203352"><ele>200.0</ele><time>2026-03-28T09:52:53.999Z</time></trkpt><trkpt lat="46.14174967585022" lon="9.414346989906646"><ele>200.00000000000003</ele><time>2026-03-28T09:52:54.999Z</time></trkpt><trkpt lat="46.14176547904476" lon="9.414455644110191"><ele>200.0</ele><time>2026-03-28T09:52:55.999Z</time></trkpt><trkpt lat="46.14177958050344" lon="9.414571273860915"><ele>200.00000000000003</ele><time>2026-03-28T09:52:56.999Z</time></trkpt><trkpt lat="46.14178599829312" lon="9.414677285202478"><ele>200.0</ele><time>2026-03-28T09:52:57.999Z</time></trkpt><trkpt lat="46.14179705403697" lon="9.414789107513757"><ele>200.0</ele><time>2026-03-28T09:52:58.999Z</time></trkpt><trkpt lat="46.1418051508921" lon="9.414905839267375"><ele>200.0</ele><time>2026-03-28T09:52:59.999Z</time></trkpt><trkpt lat="46.14180989415226" lon="9.415028370977371"><ele>200.00000000000003</ele><time>2026-03-28T09:53:00.999Z</time></trkpt><trkpt lat="46.14179201786313" lon="9.415126833923182"><ele>200.0</ele><time>2026-03-28T09:53:01.999Z</time></trkpt><trkpt lat="46.14180493877329" lon="9.415231448866546"><ele>200.0</ele><time>2026-03-28T09:53:03.999Z</time></trkpt><trkpt lat="46.14162287768186" lon="9.415029640182736"><ele>200.0</ele><time>2026-03-28T09:53:04.999Z</time></trkpt><trkpt lat="46.141516949073214" lon="9.415038553868982"><ele>200.0</ele><time>2026-03-28T09:53:05.999Z</time></trkpt><trkpt lat="46.141382182299" lon="9.415049893829098"><ele>199.5</ele><time>2026-03-28T09:53:06.999Z</time></trkpt><trkpt lat="46.141229398033445" lon="9.415062749863212"><ele>199.0</ele><time>2026-03-28T09:53:07.999Z</time></trkpt><trkpt lat="46.141800679137916" lon="9.415896322480526"><ele>199.33333333333331</ele><time>2026-03-28T09:53:08.999Z</time></trkpt><trkpt lat="46.14178432093852" lon="9.415988056181085"><ele>199.66666666666666</ele><time>2026-03-28T09:53:09.999Z</time></trkpt><trkpt lat="46.141794708325335" lon="9.416128479630888"><ele>200.0</ele><time>2026-03-28T09:53:11.999Z</time></trkpt><trkpt lat="46.1417579652231" lon="9.416290508859035"><ele>200.33333333333331</ele><time>2026-03-28T09:53:13.999Z</time></trkpt><trkpt lat="46.14172235263904" lon="9.416391696185194"><ele>200.66666666666666</ele><time>2026-03-28T09:53:14.999Z</time></trkpt><trkpt lat="46.14170144510961" lon="9.416500964722536"><ele>201.0</ele><time>2026-03-28T09:53:15.999Z</time></trkpt><trkpt lat="46.141710788184895" lon="9.416609099312373"><ele>201.16666666666666</ele><time>2026-03-28T09:53:16.999Z</time></trkpt><trkpt lat="46.141745339578854" lon="9.416703042823743"><ele>201.33333333333331</ele><time>2026-03-28T09:53:17.999Z</time></trkpt><trkpt lat="46.14180133488422" lon="9.41676649216452"><ele>201.5</ele><time>2026-03-28T09:53:18.999Z</time></trkpt><trkpt lat="46.14187651588133" lon="9.41678622260275"><ele>201.66666666666666</ele><time>2026-03-28T09:53:19.999Z</time></trkpt><trkpt lat="46.1419517293531" lon="9.416755139273853"><ele>201.83333333333331</ele><time>2026-03-28T09:53:20.999Z</time></trkpt><trkpt lat="46.14201888733245" lon="9.416686921598428"><ele>202.0</ele><time>2026-03-28T09:53:21.999Z</time></trkpt><trkpt lat="46.14207152763919" lon="9.416588518578594"><ele>202.0</ele><time>2026-03-28T09:53:22.999Z</time></trkpt><trkpt lat="46.1421092741401" lon="9.41647585027549"><ele>202.0</ele><time>2026-03-28T09:53:23.999Z</time></trkpt><trkpt lat="46.142133028288896" lon="9.416369277137393"><ele>202.0</ele><time>2026-03-28T09:53:24.999Z</time></trkpt><trkpt lat="46.14216445545384" lon="9.41628297751746"><ele>202.0</ele><time>2026-03-28T09:53:25.999Z</time></trkpt><trkpt lat="46.142254721465264" lon="9.416177368970468"><ele>202.0</ele><time>2026-03-28T09:53:27.999Z</time></trkpt><trkpt lat="46.142346100176134" lon="9.416091131774035"><ele>201.83333333333331</ele><time>2026-03-28T09:53:29.999Z</time></trkpt><trkpt lat="46.14242451873885" lon="9.416028736381246"><ele>201.66666666666666</ele><time>2026-03-28T09:53:31.999Z</time></trkpt><trkpt lat="46.14252458535991" lon="9.415994208930991"><ele>201.5</ele><time>2026-03-28T09:53:34.999Z</time></trkpt><trkpt lat="46.14259084665801" lon="9.415986113334283"><ele>201.33333333333331</ele><time>2026-03-28T09:53:35.999Z</time></trkpt><trkpt lat="46.142673587958114" lon="9.415996374194862"><ele>201.16666666666666</ele><time>2026-03-28T09:53:36.999Z</time></trkpt><trkpt lat="46.14276663432272" lon="9.416056938739308"><ele>201.0</ele><time>2026-03-28T09:53:37.999Z</time></trkpt><trkpt lat="46.14285780834494" lon="9.416071250313454"><ele>201.0</ele><time>2026-03-28T09:53:39Z</time></trkpt><trkpt lat="46.14295312586278" lon="9.416014588293752"><ele>201.0</ele><time>2026-03-28T09:53:40Z</time></trkpt><trkpt lat="46.14302225614115" lon="9.415915402646032"><ele>201.0</ele><time>2026-03-28T09:53:41Z</time></trkpt><trkpt lat="46.14306624128238" lon="9.415762222674536"><ele>201.0</ele><time>2026-03-28T09:53:42Z</time></trkpt><trkpt lat="46.14309957069807" lon="9.415603265221069"><ele>201.0</ele><time>2026-03-28T09:53:43Z</time></trkpt><trkpt lat="46.143089186089" lon="9.415466787996063"><ele>201.0</ele><time>2026-03-28T09:53:44Z</time></trkpt><trkpt lat="46.1432131761415" lon="9.41536496951642"><ele>201.0</ele><time>2026-03-28T09:53:45Z</time></trkpt><trkpt lat="46.14331163717735" lon="9.415299850939697"><ele>201.0</ele><time>2026-03-28T09:53:46Z</time></trkpt><trkpt lat="46.14343019189344" lon="9.415226144853737"><ele>201.0</ele><time>2026-03-28T09:53:47Z</time></trkpt><trkpt lat="46.143544842665385" lon="9.415154505942047"><ele>201.0</ele><time>2026-03-28T09:53:48Z</time></trkpt><trkpt lat="46.14365691467558" lon="9.415071414741794"><ele>201.0</ele><time>2026-03-28T09:53:49.024Z</time></trkpt><trkpt lat="46.14376635880616" lon="9.41498723416476"><ele>201.0</ele><time>2026-03-28T09:53:50.022Z</time></trkpt><trkpt lat="46.14387931617249" lon="9.41490764368432"><ele>201.0</ele><time>2026-03-28T09:53:51Z</time></trkpt><trkpt lat="46.14396953423324" lon="9.414827875995385"><ele>201.4</ele><time>2026-03-28T09:53:52Z</time></trkpt><trkpt lat="46.14404843834671" lon="9.41472536214419"><ele>201.8</ele><time>2026-03-28T09:53:53Z</time></trkpt><trkpt lat="46.144113414121605" lon="9.414591019423817"><ele>202.20000000000002</ele><time>2026-03-28T09:53:54Z</time></trkpt><trkpt lat="46.14416569892803" lon="9.414462173447653"><ele>202.60000000000002</ele><time>2026-03-28T09:53:55Z</time></trkpt><trkpt lat="46.14420474601828" lon="9.414334943035401"><ele>203.0</ele><time>2026-03-28T09:53:56Z</time></trkpt><trkpt lat="46.14420820402247" lon="9.414210082715137"><ele>203.00000000000003</ele><time>2026-03-28T09:53:57Z</time></trkpt><trkpt lat="46.144182602320015" lon="9.414098427795098"><ele>203.0</ele><time>2026-03-28T09:53:58Z</time></trkpt><trkpt lat="46.14413172630306" lon="9.414002886976524"><ele>203.0</ele><time>2026-03-28T09:53:59Z</time></trkpt><trkpt lat="46.14405634711894" lon="9.41395051480446"><ele>203.0</ele><time>2026-03-28T09:54:00Z</time></trkpt><trkpt lat="46.14394433893988" lon="9.413902633480333"><ele>203.00000000000003</ele><time>2026-03-28T09:54:02Z</time></trkpt><trkpt lat="46.14389642532036" lon="9.413832645326668"><ele>203.0</ele><time>2026-03-28T09:54:03Z</time></trkpt><trkpt lat="46.143866437267285" lon="9.41372719712732"><ele>202.50000000000003</ele><time>2026-03-28T09:54:04Z</time></trkpt><trkpt lat="46.1438431107571" lon="9.413625226625317"><ele>202.0</ele><time>2026-03-28T09:54:05Z</time></trkpt><trkpt lat="46.143824555532476" lon="9.41351306420443"><ele>201.5</ele><time>2026-03-28T09:54:06Z</time></trkpt><trkpt lat="46.14381902679412" lon="9.413389103209095"><ele>201.0</ele><time>2026-03-28T09:54:07Z</time></trkpt><trkpt lat="46.14382618216277" lon="9.41325816472902"><ele>200.50000000000003</ele><time>2026-03-28T09:54:08Z</time></trkpt><trkpt lat="46.14383970612452" lon="9.413120740413765"><ele>200.0</ele><time>2026-03-28T09:54:09Z</time></trkpt><trkpt lat="46.143868365218786" lon="9.412979764355168"><ele>200.0</ele><time>2026-03-28T09:54:10Z</time></trkpt><trkpt lat="46.14390073130853" lon="9.412834270718243"><ele>200.0</ele><time>2026-03-28T09:54:11Z</time></trkpt><trkpt lat="46.14394829861672" lon="9.412688297811382"><ele>200.0</ele><time>2026-03-28T09:54:12Z</time></trkpt><trkpt lat="46.144016385620354" lon="9.412556566190272"><ele>200.0</ele><time>2026-03-28T09:54:13Z</time></trkpt><trkpt lat="46.144080793488264" lon="9.41243794494788"><ele>200.0</ele><time>2026-03-28T09:54:14Z</time></trkpt><trkpt lat="46.14415624563616" lon="9.412334515422465"><ele>200.6</ele><time>2026-03-28T09:54:15Z</time></trkpt><trkpt lat="46.14423840149853" lon="9.41224810315936"><ele>201.2</ele><time>2026-03-28T09:54:16Z</time></trkpt><trkpt lat="46.14432741758282" lon="9.412172917430892"><ele>201.8</ele><time>2026-03-28T09:54:17Z</time></trkpt><trkpt lat="46.14441863901234" lon="9.412118286635648"><ele>202.4</ele><time>2026-03-28T09:54:18Z</time></trkpt><trkpt lat="46.14451999121231" lon="9.412088580474531"><ele>203.0</ele><time>2026-03-28T09:54:19Z</time></trkpt><trkpt lat="46.14461904695498" lon="9.412075435091044"><ele>203.0</ele><time>2026-03-28T09:54:20Z</time></trkpt><trkpt lat="46.144720286274925" lon="9.412072906564486"><ele>203.0</ele><time>2026-03-28T09:54:21Z</time></trkpt><trkpt lat="46.14482715651005" lon="9.412079211297671"><ele>203.0</ele><time>2026-03-28T09:54:22Z</time></trkpt><trkpt lat="46.144947281825395" lon="9.412085316003388"><ele>203.0</ele><time>2026-03-28T09:54:23Z</time></trkpt><trkpt lat="46.145082211082986" lon="9.412100007231897"><ele>203.0</ele><time>2026-03-28T09:54:24Z</time></trkpt><trkpt lat="46.14523089510333" lon="9.412115191378579"><ele>203.0</ele><time>2026-03-28T09:54:25Z</time></trkpt><trkpt lat="46.14540153352307" lon="9.412127045250948"><ele>203.0</ele><time>2026-03-28T09:54:26Z</time></trkpt><trkpt lat="46.14557887782079" lon="9.412141360382599"><ele>202.66666666666669</ele><time>2026-03-28T09:54:27Z</time></trkpt><trkpt lat="46.145768244247094" lon="9.412159245927272"><ele>202.33333333333331</ele><time>2026-03-28T09:54:28Z</time></trkpt><trkpt lat="46.14594853880132" lon="9.412171098141732"><ele>202.0</ele><time>2026-03-28T09:54:29Z</time></trkpt><trkpt lat="46.14612504794186" lon="9.412176936606098"><ele>202.0</ele><time>2026-03-28T09:54:30Z</time></trkpt><trkpt lat="46.1462958157312" lon="9.412196243918213"><ele>202.0</ele><time>2026-03-28T09:54:31Z</time></trkpt><trkpt lat="46.146450033637855" lon="9.412210050847714"><ele>202.0</ele><time>2026-03-28T09:54:32Z</time></trkpt><trkpt lat="46.14658431075118" lon="9.412219913132052"><ele>202.2</ele><time>2026-03-28T09:54:33Z</time></trkpt><trkpt lat="46.146693381721484" lon="9.412231445489663"><ele>202.39999999999998</ele><time>2026-03-28T09:54:34Z</time></trkpt><trkpt lat="46.1467936267714" lon="9.412238538642056"><ele>202.60000000000002</ele><time>2026-03-28T09:54:35Z</time></trkpt><trkpt lat="46.146878625794656" lon="9.412250725144773"><ele>202.8</ele><time>2026-03-28T09:54:36Z</time></trkpt><trkpt lat="46.14696252480144" lon="9.412275415066906"><ele>203.0</ele><time>2026-03-28T09:54:37Z</time></trkpt><trkpt lat="46.14703780530877" lon="9.4123089714567"><ele>203.00000000000003</ele><time>2026-03-28T09:54:38Z</time></trkpt><trkpt lat="46.14710621676638" lon="9.412341549067191"><ele>203.0</ele><time>2026-03-28T09:54:39Z</time></trkpt><trkpt lat="46.147213346552014" lon="9.412391348555344"><ele>203.0</ele><time>2026-03-28T09:54:41Z</time></trkpt><trkpt lat="46.14729724924615" lon="9.412448890758752"><ele>203.0</ele><time>2026-03-28T09:54:43Z</time></trkpt><trkpt lat="46.14736907188371" lon="9.412562233551789"><ele>203.00000000000003</ele><time>2026-03-28T09:54:44.999Z</time></trkpt><trkpt lat="46.147402821520494" lon="9.4126423173156"><ele>203.0</ele><time>2026-03-28T09:54:45.999Z</time></trkpt><trkpt lat="46.14743916698722" lon="9.412717229132564"><ele>203.5</ele><time>2026-03-28T09:54:46.999Z</time></trkpt><trkpt lat="46.14752980214375" lon="9.412804194074052"><ele>204.0</ele><time>2026-03-28T09:54:48.999Z</time></trkpt><trkpt lat="46.147640989295276" lon="9.4128131752014"><ele>204.5</ele><time>2026-03-28T09:54:50.999Z</time></trkpt><trkpt lat="46.14773926944833" lon="9.412745533434736"><ele>205.0</ele><time>2026-03-28T09:54:52.999Z</time></trkpt><trkpt lat="46.147818936666006" lon="9.412606309759562"><ele>204.99999999999997</ele><time>2026-03-28T09:54:54.999Z</time></trkpt><trkpt lat="46.14786395157134" lon="9.412538709862764"><ele>205.0</ele><time>2026-03-28T09:54:55.999Z</time></trkpt><trkpt lat="46.1479188497952" lon="9.412472674028605"><ele>205.0</ele><time>2026-03-28T09:54:56.999Z</time></trkpt><trkpt lat="46.14798684192899" lon="9.412412420990627"><ele>205.0</ele><time>2026-03-28T09:54:57.999Z</time></trkpt><trkpt lat="46.148056278947806" lon="9.41234422979369"><ele>204.99999999999997</ele><time>2026-03-28T09:54:58.999Z</time></trkpt><trkpt lat="46.14816727830678" lon="9.412330770024122"><ele>205.0</ele><time>2026-03-28T09:54:59.999Z</time></trkpt><trkpt lat="46.14827569147172" lon="9.412320599486934"><ele>204.75</ele><time>2026-03-28T09:55:00.999Z</time></trkpt><trkpt lat="46.14837972012722" lon="9.41231873426642"><ele>204.5</ele><time>2026-03-28T09:55:01.999Z</time></trkpt><trkpt lat="46.14850133631737" lon="9.412316215727099"><ele>204.25</ele><time>2026-03-28T09:55:02.999Z</time></trkpt><trkpt lat="46.14863939334695" lon="9.412312387275936"><ele>204.0</ele><time>2026-03-28T09:55:03.999Z</time></trkpt><trkpt lat="46.148789361728774" lon="9.412343741871707"><ele>204.0</ele><time>2026-03-28T09:55:04.999Z</time></trkpt><trkpt lat="46.148958352004755" lon="9.412334259146096"><ele>204.0</ele><time>2026-03-28T09:55:05.999Z</time></trkpt><trkpt lat="46.14911267098657" lon="9.412359913424295"><ele>204.0</ele><time>2026-03-28T09:55:06.999Z</time></trkpt><trkpt lat="46.149264501230405" lon="9.412378743374893"><ele>203.75</ele><time>2026-03-28T09:55:07.999Z</time></trkpt><trkpt lat="46.149398873159875" lon="9.412384364309105"><ele>203.5</ele><time>2026-03-28T09:55:08.999Z</time></trkpt><trkpt lat="46.149540620052264" lon="9.412399116704266"><ele>203.25</ele><time>2026-03-28T09:55:09.999Z</time></trkpt><trkpt lat="46.14968788272399" lon="9.412406549289024"><ele>203.0</ele><time>2026-03-28T09:55:10.999Z</time></trkpt><trkpt lat="46.14985540432501" lon="9.412413673064828"><ele>200.66666666666669</ele><time>2026-03-28T09:55:11.999Z</time></trkpt><trkpt lat="46.15003522487017" lon="9.41243966586481"><ele>198.33333333333331</ele><time>2026-03-28T09:55:12.999Z</time></trkpt><trkpt lat="46.15022178561904" lon="9.412470134217342"><ele>196.0</ele><time>2026-03-28T09:55:13.999Z</time></trkpt><trkpt lat="46.15038923816877" lon="9.412495027327337"><ele>196.0</ele><time>2026-03-28T09:55:14.999Z</time></trkpt><trkpt lat="46.15053776465474" lon="9.412520227666374"><ele>196.0</ele><time>2026-03-28T09:55:15.999Z</time></trkpt><trkpt lat="46.15068127201505" lon="9.412563119429782"><ele>196.0</ele><time>2026-03-28T09:55:16.999Z</time></trkpt><trkpt lat="46.150824514038774" lon="9.41262042912654"><ele>196.0</ele><time>2026-03-28T09:55:17.999Z</time></trkpt><trkpt lat="46.15096426627306" lon="9.412705782680415"><ele>197.66666666666666</ele><time>2026-03-28T09:55:18.999Z</time></trkpt><trkpt lat="46.15110789059685" lon="9.41282815544399"><ele>199.33333333333331</ele><time>2026-03-28T09:55:19.999Z</time></trkpt><trkpt lat="46.15125139282901" lon="9.412971236602571"><ele>201.0</ele><time>2026-03-28T09:55:20.999Z</time></trkpt><trkpt lat="46.151392899448" lon="9.413111468541862"><ele>200.33333333333331</ele><time>2026-03-28T09:55:21.999Z</time></trkpt><trkpt lat="46.15154171033743" lon="9.4132533006852"><ele>199.66666666666666</ele><time>2026-03-28T09:55:22.999Z</time></trkpt><trkpt lat="46.15169287308778" lon="9.413391985298212"><ele>199.0</ele><time>2026-03-28T09:55:23.999Z</time></trkpt><trkpt lat="46.151843536077834" lon="9.413535244484473"><ele>199.0</ele><time>2026-03-28T09:55:24.999Z</time></trkpt><trkpt lat="46.15199173807686" lon="9.413683086796844"><ele>199.0</ele><time>2026-03-28T09:55:25.999Z</time></trkpt><trkpt lat="46.15214555236263" lon="9.413822979006643"><ele>199.0</ele><time>2026-03-28T09:55:26.999Z</time></trkpt><trkpt lat="46.152259523432754" lon="9.413936395357595"><ele>198.79999999999998</ele><time>2026-03-28T09:55:27.999Z</time></trkpt><trkpt lat="46.152347982059126" lon="9.414030109087252"><ele>198.6</ele><time>2026-03-28T09:55:28.999Z</time></trkpt><trkpt lat="46.15244005495395" lon="9.414116477862837"><ele>198.4</ele><time>2026-03-28T09:55:29.999Z</time></trkpt><trkpt lat="46.15251883926496" lon="9.414193199782488"><ele>198.2</ele><time>2026-03-28T09:55:30.999Z</time></trkpt><trkpt lat="46.1525908729868" lon="9.41426253095724"><ele>198.0</ele><time>2026-03-28T09:55:31.999Z</time></trkpt><trkpt lat="46.15265760972813" lon="9.414338646235406"><ele>198.16666666666666</ele><time>2026-03-28T09:55:32.999Z</time></trkpt><trkpt lat="46.15272804218343" lon="9.414402387509524"><ele>198.33333333333331</ele><time>2026-03-28T09:55:33.999Z</time></trkpt><trkpt lat="46.15279250827065" lon="9.414454629442552"><ele>198.5</ele><time>2026-03-28T09:55:34.999Z</time></trkpt><trkpt lat="46.15285879644401" lon="9.414509659168843"><ele>198.66666666666666</ele><time>2026-03-28T09:55:35.999Z</time></trkpt><trkpt lat="46.152928129657056" lon="9.41457215426734"><ele>198.83333333333331</ele><time>2026-03-28T09:55:36.999Z</time></trkpt><trkpt lat="46.15298992060353" lon="9.414635574970177"><ele>199.0</ele><time>2026-03-28T09:55:37.999Z</time></trkpt><trkpt lat="46.153056548076364" lon="9.414702381085029"><ele>199.0</ele><time>2026-03-28T09:55:38.999Z</time></trkpt><trkpt lat="46.153118951437754" lon="9.414768137677378"><ele>199.0</ele><time>2026-03-28T09:55:39.999Z</time></trkpt><trkpt lat="46.15319734492836" lon="9.414851503709396"><ele>199.0</ele><time>2026-03-28T09:55:40.999Z</time></trkpt><trkpt lat="46.15328661851951" lon="9.41493467430903"><ele>199.0</ele><time>2026-03-28T09:55:41.999Z</time></trkpt><trkpt lat="46.15339497612374" lon="9.415033389961883"><ele>199.0</ele><time>2026-03-28T09:55:42.999Z</time></trkpt><trkpt lat="46.153527174146085" lon="9.415159535135867"><ele>199.33333333333331</ele><time>2026-03-28T09:55:43.999Z</time></trkpt><trkpt lat="46.153654124273594" lon="9.415294336681928"><ele>199.66666666666669</ele><time>2026-03-28T09:55:44.999Z</time></trkpt><trkpt lat="46.15377450051293" lon="9.415421954237356"><ele>200.0</ele><time>2026-03-28T09:55:45.999Z</time></trkpt><trkpt lat="46.15389303541389" lon="9.415537749099595"><ele>200.0</ele><time>2026-03-28T09:55:46.999Z</time></trkpt><trkpt lat="46.154001172752764" lon="9.415650509666213"><ele>200.0</ele><time>2026-03-28T09:55:47.999Z</time></trkpt><trkpt lat="46.154114498903425" lon="9.41575999418425"><ele>200.0</ele><time>2026-03-28T09:55:48.999Z</time></trkpt><trkpt lat="46.15422891291556" lon="9.415865578622013"><ele>200.0</ele><time>2026-03-28T09:55:49.999Z</time></trkpt><trkpt lat="46.1543386965755" lon="9.415973768868675"><ele>200.5</ele><time>2026-03-28T09:55:50.999Z</time></trkpt><trkpt lat="46.15445527227531" lon="9.416077749541836"><ele>201.0</ele><time>2026-03-28T09:55:51.999Z</time></trkpt><trkpt lat="46.15456280520343" lon="9.416186879029176"><ele>201.5</ele><time>2026-03-28T09:55:52.999Z</time></trkpt><trkpt lat="46.15468419414214" lon="9.416298319440694"><ele>202.0</ele><time>2026-03-28T09:55:53.999Z</time></trkpt><trkpt lat="46.154798387378634" lon="9.416412376378746"><ele>201.5</ele><time>2026-03-28T09:55:54.999Z</time></trkpt><trkpt lat="46.15491342304099" lon="9.416523390809044"><ele>201.0</ele><time>2026-03-28T09:55:55.999Z</time></trkpt><trkpt lat="46.15502613757054" lon="9.416633721246933"><ele>200.5</ele><time>2026-03-28T09:55:56.999Z</time></trkpt><trkpt lat="46.15513560277938" lon="9.416746721803134"><ele>200.0</ele><time>2026-03-28T09:55:57.999Z</time></trkpt><trkpt lat="46.15525663932447" lon="9.416858595562061"><ele>200.0</ele><time>2026-03-28T09:55:58.999Z</time></trkpt><trkpt lat="46.155376842901624" lon="9.41697894778427"><ele>200.0</ele><time>2026-03-28T09:55:59.999Z</time></trkpt><trkpt lat="46.15550179042969" lon="9.417099977810468"><ele>200.0</ele><time>2026-03-28T09:56:00.999Z</time></trkpt><trkpt lat="46.155630123385414" lon="9.417225739326321"><ele>200.0</ele><time>2026-03-28T09:56:01.999Z</time></trkpt><trkpt lat="46.15575807056465" lon="9.41734959369126"><ele>200.0</ele><time>2026-03-28T09:56:02.999Z</time></trkpt><trkpt lat="46.155874711360724" lon="9.417474382223997"><ele>200.0</ele><time>2026-03-28T09:56:03.999Z</time></trkpt><trkpt lat="46.155999442772746" lon="9.41759894394427"><ele>200.0</ele><time>2026-03-28T09:56:04.999Z</time></trkpt><trkpt lat="46.15612424916446" lon="9.41772018022359"><ele>200.0</ele><time>2026-03-28T09:56:05.999Z</time></trkpt><trkpt lat="46.15623931329493" lon="9.417839358126754"><ele>200.0</ele><time>2026-03-28T09:56:06.999Z</time></trkpt><trkpt lat="46.15635026969966" lon="9.417950342657951"><ele>200.0</ele><time>2026-03-28T09:56:07.999Z</time></trkpt><trkpt lat="46.156455793011055" lon="9.418050777576195"><ele>199.8</ele><time>2026-03-28T09:56:08.999Z</time></trkpt><trkpt lat="46.1565650027406" lon="9.41814746242376"><ele>199.6</ele><time>2026-03-28T09:56:09.999Z</time></trkpt><trkpt lat="46.156656156370666" lon="9.418236753034186"><ele>199.39999999999998</ele><time>2026-03-28T09:56:10.999Z</time></trkpt><trkpt lat="46.15674228935029" lon="9.41831915835935"><ele>199.2</ele><time>2026-03-28T09:56:11.999Z</time></trkpt><trkpt lat="46.156824023152325" lon="9.418402129811895"><ele>199.0</ele><time>2026-03-28T09:56:12.999Z</time></trkpt><trkpt lat="46.156889824199645" lon="9.418491793525213"><ele>198.99999999999997</ele><time>2026-03-28T09:56:13.999Z</time></trkpt><trkpt lat="46.15694585463889" lon="9.418577061885966"><ele>199.0</ele><time>2026-03-28T09:56:14.999Z</time></trkpt><trkpt lat="46.156972054630074" lon="9.418673300905427"><ele>199.0</ele><time>2026-03-28T09:56:15.999Z</time></trkpt><trkpt lat="46.15700278501414" lon="9.41876524814709"><ele>199.0</ele><time>2026-03-28T09:56:16.999Z</time></trkpt><trkpt lat="46.15705825912583" lon="9.418816913090565"><ele>198.99999999999997</ele><time>2026-03-28T09:56:17.999Z</time></trkpt><trkpt lat="46.157134023529075" lon="9.418829497747108"><ele>199.0</ele><time>2026-03-28T09:56:18.999Z</time></trkpt><trkpt lat="46.15722070341578" lon="9.418849628390204"><ele>199.0</ele><time>2026-03-28T09:56:19.999Z</time></trkpt><trkpt lat="46.157317639622114" lon="9.418901351122129"><ele>199.0</ele><time>2026-03-28T09:56:20.999Z</time></trkpt><trkpt lat="46.15743408653831" lon="9.418988801383769"><ele>199.0</ele><time>2026-03-28T09:56:21.999Z</time></trkpt><trkpt lat="46.157555568078784" lon="9.419131237003116"><ele>199.0</ele><time>2026-03-28T09:56:22.999Z</time></trkpt><trkpt lat="46.15769457536483" lon="9.419267178661572"><ele>199.33333333333331</ele><time>2026-03-28T09:56:23.999Z</time></trkpt><trkpt lat="46.157837969967545" lon="9.419407620092175"><ele>199.66666666666669</ele><time>2026-03-28T09:56:24.999Z</time></trkpt><trkpt lat="46.15798274392756" lon="9.419549797214374"><ele>200.0</ele><time>2026-03-28T09:56:25.999Z</time></trkpt><trkpt lat="46.15812761729904" lon="9.419691973130977"><ele>200.33333333333334</ele><time>2026-03-28T09:56:26.999Z</time></trkpt><trkpt lat="46.1582725429066" lon="9.419834104878214"><ele>200.66666666666669</ele><time>2026-03-28T09:56:27.999Z</time></trkpt><trkpt lat="46.15841961780199" lon="9.419978342658249"><ele>201.0</ele><time>2026-03-28T09:56:28.999Z</time></trkpt><trkpt lat="46.15856798137479" lon="9.420124057118803"><ele>201.0</ele><time>2026-03-28T09:56:29.999Z</time></trkpt><trkpt lat="46.15872795798703" lon="9.420263289089249"><ele>201.0</ele><time>2026-03-28T09:56:30.999Z</time></trkpt><trkpt lat="46.1588764674187" lon="9.420453648636625"><ele>201.0</ele><time>2026-03-28T09:56:31.999Z</time></trkpt><trkpt lat="46.1590276114352" lon="9.420686379789364"><ele>201.0</ele><time>2026-03-28T09:56:32.999Z</time></trkpt><trkpt lat="46.159209950320644" lon="9.420886491102475"><ele>201.0</ele><time>2026-03-28T09:56:33.999Z</time></trkpt><trkpt lat="46.159347297956415" lon="9.420868353932415"><ele>201.0</ele><time>2026-03-28T09:56:34.999Z</time></trkpt><trkpt lat="46.15950996894973" lon="9.421028597439939"><ele>201.0</ele><time>2026-03-28T09:56:35.999Z</time></trkpt><trkpt lat="46.159668490341836" lon="9.421191067449879"><ele>201.0</ele><time>2026-03-28T09:56:36.999Z</time></trkpt><trkpt lat="46.159827725213276" lon="9.421339623926691"><ele>201.0</ele><time>2026-03-28T09:56:37.999Z</time></trkpt><trkpt lat="46.159978205896465" lon="9.421492881163557"><ele>201.66666666666669</ele><time>2026-03-28T09:56:38.999Z</time></trkpt><trkpt lat="46.16012196410386" lon="9.421640783341813"><ele>202.33333333333334</ele><time>2026-03-28T09:56:39.999Z</time></trkpt><trkpt lat="46.160264004903766" lon="9.421784358381752"><ele>203.0</ele><time>2026-03-28T09:56:40.999Z</time></trkpt><trkpt lat="46.16039902728476" lon="9.421918511397921"><ele>203.0</ele><time>2026-03-28T09:56:41.999Z</time></trkpt><trkpt lat="46.16053211143271" lon="9.422046278915374"><ele>203.0</ele><time>2026-03-28T09:56:42.999Z</time></trkpt><trkpt lat="46.160660824898926" lon="9.422173238592283"><ele>203.0</ele><time>2026-03-28T09:56:43.999Z</time></trkpt><trkpt lat="46.1607931569466" lon="9.422301028343092"><ele>202.66666666666669</ele><time>2026-03-28T09:56:44.999Z</time></trkpt><trkpt lat="46.16093203718932" lon="9.422433133490344"><ele>202.33333333333331</ele><time>2026-03-28T09:56:45.999Z</time></trkpt><trkpt lat="46.161075536014735" lon="9.42257183691957"><ele>202.0</ele><time>2026-03-28T09:56:46.999Z</time></trkpt><trkpt lat="46.16121553569014" lon="9.422709471884906"><ele>202.0</ele><time>2026-03-28T09:56:47.999Z</time></trkpt><trkpt lat="46.16135751472627" lon="9.422843856013538"><ele>202.0</ele><time>2026-03-28T09:56:48.999Z</time></trkpt><trkpt lat="46.161504611722464" lon="9.422990118486087"><ele>202.0</ele><time>2026-03-28T09:56:49.999Z</time></trkpt><trkpt lat="46.161668934388814" lon="9.423150836445975"><ele>202.33333333333331</ele><time>2026-03-28T09:56:50.999Z</time></trkpt><trkpt lat="46.161845997554636" lon="9.42332504083868"><ele>202.66666666666669</ele><time>2026-03-28T09:56:51.999Z</time></trkpt><trkpt lat="46.16204579097762" lon="9.423498816615048"><ele>203.0</ele><time>2026-03-28T09:56:52.999Z</time></trkpt><trkpt lat="46.16225290932427" lon="9.42368863866404"><ele>202.66666666666669</ele><time>2026-03-28T09:56:53.999Z</time></trkpt><trkpt lat="46.162430255952295" lon="9.423879384059243"><ele>202.33333333333331</ele><time>2026-03-28T09:56:54.999Z</time></trkpt><trkpt lat="46.16259396299633" lon="9.424060734285097"><ele>202.0</ele><time>2026-03-28T09:56:55.999Z</time></trkpt><trkpt lat="46.1627553593194" lon="9.424232853101637"><ele>202.0</ele><time>2026-03-28T09:56:56.999Z</time></trkpt><trkpt lat="46.16291861282529" lon="9.42440531969648"><ele>202.0</ele><time>2026-03-28T09:56:57.999Z</time></trkpt><trkpt lat="46.163084832241005" lon="9.424566386119343"><ele>202.0</ele><time>2026-03-28T09:56:58.999Z</time></trkpt><trkpt lat="46.16324770038778" lon="9.42473624965092"><ele>202.0</ele><time>2026-03-28T09:56:59.999Z</time></trkpt><trkpt lat="46.163423585081986" lon="9.424894093928257"><ele>202.0</ele><time>2026-03-28T09:57:00.999Z</time></trkpt><trkpt lat="46.16359315159457" lon="9.425054284229981"><ele>202.0</ele><time>2026-03-28T09:57:01.999Z</time></trkpt><trkpt lat="46.16375883679309" lon="9.425218717248352"><ele>202.0</ele><time>2026-03-28T09:57:02.999Z</time></trkpt><trkpt lat="46.16392213128797" lon="9.425375618920022"><ele>202.0</ele><time>2026-03-28T09:57:03.999Z</time></trkpt><trkpt lat="46.16408504742491" lon="9.425538836769995"><ele>202.0</ele><time>2026-03-28T09:57:04.999Z</time></trkpt><trkpt lat="46.16425143966412" lon="9.425702108805627"><ele>202.0</ele><time>2026-03-28T09:57:05.999Z</time></trkpt><trkpt lat="46.16441106815011" lon="9.425855017145885"><ele>202.0</ele><time>2026-03-28T09:57:06.999Z</time></trkpt><trkpt lat="46.16456925885599" lon="9.426005468085654"><ele>202.0</ele><time>2026-03-28T09:57:07.999Z</time></trkpt><trkpt lat="46.164721446867574" lon="9.426149498067035"><ele>202.0</ele><time>2026-03-28T09:57:08.999Z</time></trkpt><trkpt lat="46.164861149722555" lon="9.426284160290104"><ele>202.0</ele><time>2026-03-28T09:57:09.999Z</time></trkpt><trkpt lat="46.16498576381094" lon="9.426408058825533"><ele>202.0</ele><time>2026-03-28T09:57:10.999Z</time></trkpt><trkpt lat="46.16511589023919" lon="9.426528701624378"><ele>201.66666666666666</ele><time>2026-03-28T09:57:11.999Z</time></trkpt><trkpt lat="46.1652376451274" lon="9.42665479506717"><ele>201.33333333333331</ele><time>2026-03-28T09:57:12.999Z</time></trkpt><trkpt lat="46.165362575086526" lon="9.42678056472332"><ele>201.0</ele><time>2026-03-28T09:57:13.999Z</time></trkpt><trkpt lat="46.16549207256046" lon="9.426899403559752"><ele>201.0</ele><time>2026-03-28T09:57:14.999Z</time></trkpt><trkpt lat="46.16561263265711" lon="9.42701112366713"><ele>201.0</ele><time>2026-03-28T09:57:15.999Z</time></trkpt><trkpt lat="46.16572879818654" lon="9.427126886462789"><ele>201.0</ele><time>2026-03-28T09:57:16.999Z</time></trkpt><trkpt lat="46.16585531700057" lon="9.427250950013502"><ele>201.0</ele><time>2026-03-28T09:57:17.999Z</time></trkpt><trkpt lat="46.1659730127111" lon="9.427369194670868"><ele>201.5</ele><time>2026-03-28T09:57:18.999Z</time></trkpt><trkpt lat="46.16608256359766" lon="9.427480208563912"><ele>202.0</ele><time>2026-03-28T09:57:19.999Z</time></trkpt><trkpt lat="46.166191609413765" lon="9.427581790116609"><ele>202.5</ele><time>2026-03-28T09:57:20.999Z</time></trkpt><trkpt lat="46.16630032880427" lon="9.427662270663903"><ele>203.0</ele><time>2026-03-28T09:57:21.999Z</time></trkpt><trkpt lat="46.16642507777673" lon="9.427728452080133"><ele>203.33333333333334</ele><time>2026-03-28T09:57:22.999Z</time></trkpt><trkpt lat="46.16656435847265" lon="9.427792878676913"><ele>203.66666666666669</ele><time>2026-03-28T09:57:23.999Z</time></trkpt><trkpt lat="46.16670073259108" lon="9.427901337899389"><ele>204.0</ele><time>2026-03-28T09:57:24.999Z</time></trkpt><trkpt lat="46.16684040216187" lon="9.427996839161308"><ele>204.0</ele><time>2026-03-28T09:57:25.999Z</time></trkpt><trkpt lat="46.166998657667726" lon="9.428092451536644"><ele>204.0</ele><time>2026-03-28T09:57:26.999Z</time></trkpt><trkpt lat="46.167154204340775" lon="9.428189977946525"><ele>204.0</ele><time>2026-03-28T09:57:27.999Z</time></trkpt><trkpt lat="46.16730402545082" lon="9.428284186453649"><ele>204.0</ele><time>2026-03-28T09:57:28.999Z</time></trkpt><trkpt lat="46.167452606726776" lon="9.428370154688874"><ele>204.0</ele><time>2026-03-28T09:57:29.999Z</time></trkpt><trkpt lat="46.1676016681422" lon="9.428453032351928"><ele>204.0</ele><time>2026-03-28T09:57:30.999Z</time></trkpt><trkpt lat="46.16775249692141" lon="9.42854103539016"><ele>204.0</ele><time>2026-03-28T09:57:31.999Z</time></trkpt><trkpt lat="46.16790316585082" lon="9.428624601851038"><ele>204.0</ele><time>2026-03-28T09:57:32.999Z</time></trkpt><trkpt lat="46.168046132439045" lon="9.428711329469706"><ele>204.0</ele><time>2026-03-28T09:57:33.999Z</time></trkpt><trkpt lat="46.16818725849506" lon="9.428801087984413"><ele>203.75</ele><time>2026-03-28T09:57:34.999Z</time></trkpt><trkpt lat="46.16832677055842" lon="9.428892258304678"><ele>203.5</ele><time>2026-03-28T09:57:35.999Z</time></trkpt><trkpt lat="46.16846219227118" lon="9.42896351074508"><ele>203.25</ele><time>2026-03-28T09:57:36.999Z</time></trkpt><trkpt lat="46.1685825360802" lon="9.429032486741852"><ele>203.0</ele><time>2026-03-28T09:57:37.999Z</time></trkpt><trkpt lat="46.16867763002829" lon="9.429095193733069"><ele>203.00000000000003</ele><time>2026-03-28T09:57:38.999Z</time></trkpt><trkpt lat="46.168747860360405" lon="9.429151765446909"><ele>203.0</ele><time>2026-03-28T09:57:39.999Z</time></trkpt><trkpt lat="46.1688393359232" lon="9.429218869138865"><ele>203.0</ele><time>2026-03-28T09:57:41.999Z</time></trkpt><trkpt lat="46.16889595667821" lon="9.429264113427198"><ele>203.0</ele><time>2026-03-28T09:57:45.999Z</time></trkpt><trkpt lat="46.16895859500527" lon="9.429310024363554"><ele>203.00000000000003</ele><time>2026-03-28T09:57:50.999Z</time></trkpt><trkpt lat="46.169010870782934" lon="9.429377658617202"><ele>203.0</ele><time>2026-03-28T10:00:44Z</time></trkpt><trkpt lat="46.1690362982124" lon="9.429554187434684"><ele>203.0</ele><time>2026-03-28T10:23:06.001Z</time></trkpt><trkpt lat="46.16922250737435" lon="9.429652045340221"><ele>203.0</ele><time>2026-03-28T10:26:49Z</time></trkpt><trkpt lat="46.16909969094119" lon="9.429640466696108"><ele>203.0</ele><time>2026-03-28T10:27:16.001Z</time></trkpt><trkpt lat="46.16902209457328" lon="9.429615450837158"><ele>203.0</ele><time>2026-03-28T10:27:34Z</time></trkpt><trkpt lat="46.168975370665216" lon="9.42955451243304"><ele>203.0</ele><time>2026-03-28T10:27:39Z</time></trkpt><trkpt lat="46.16889986533012" lon="9.429543046309862"><ele>203.0</ele><time>2026-03-28T10:27:43Z</time></trkpt><trkpt lat="46.168962516389875" lon="9.429490695177108"><ele>203.0</ele><time>2026-03-28T10:28:39Z</time></trkpt><trkpt lat="46.169005864772345" lon="9.42941948150174"><ele>203.0</ele><time>2026-03-28T10:28:43Z</time></trkpt><trkpt lat="46.169130640054725" lon="9.429370762821721"><ele>203.0</ele><time>2026-03-28T10:30:08.999Z</time></trkpt><trkpt lat="46.16924262956335" lon="9.429400175527691"><ele>203.0</ele><time>2026-03-28T10:30:10.999Z</time></trkpt><trkpt lat="46.16932038512163" lon="9.42950281040969"><ele>203.0</ele><time>2026-03-28T10:30:12.999Z</time></trkpt><trkpt lat="46.16949909551164" lon="9.429697323486911"><ele>203.0</ele><time>2026-03-28T10:30:28.999Z</time></trkpt><trkpt lat="46.169551935998555" lon="9.429756111210807"><ele>203.0</ele><time>2026-03-28T10:30:29.999Z</time></trkpt><trkpt lat="46.169613570784385" lon="9.429827579863517"><ele>203.0</ele><time>2026-03-28T10:30:30.999Z</time></trkpt><trkpt lat="46.16967903022752" lon="9.429907400658262"><ele>203.0</ele><time>2026-03-28T10:30:31.999Z</time></trkpt><trkpt lat="46.16974516636631" lon="9.429990460054157"><ele>203.0</ele><time>2026-03-28T10:30:32.999Z</time></trkpt><trkpt lat="46.16980605668579" lon="9.43008517517388"><ele>203.0</ele><time>2026-03-28T10:30:33.999Z</time></trkpt><trkpt lat="46.16988082756512" lon="9.430193339503811"><ele>203.0</ele><time>2026-03-28T10:30:34.999Z</time></trkpt><trkpt lat="46.169964519960786" lon="9.430322547965584"><ele>203.0</ele><time>2026-03-28T10:30:35.999Z</time></trkpt><trkpt lat="46.170050510088004" lon="9.430457771685685"><ele>203.0</ele><time>2026-03-28T10:30:36.999Z</time></trkpt><trkpt lat="46.17014876217647" lon="9.430608494759406"><ele>203.0</ele><time>2026-03-28T10:30:37.999Z</time></trkpt><trkpt lat="46.170250722695535" lon="9.430769977157643"><ele>203.0</ele><time>2026-03-28T10:30:38.999Z</time></trkpt><trkpt lat="46.17036089046536" lon="9.430930955622225"><ele>203.0</ele><time>2026-03-28T10:30:39.999Z</time></trkpt><trkpt lat="46.170464944611766" lon="9.43109959150403"><ele>203.0</ele><time>2026-03-28T10:30:40.999Z</time></trkpt><trkpt lat="46.17057558395825" lon="9.431265620077406"><ele>203.0</ele><time>2026-03-28T10:30:41.999Z</time></trkpt><trkpt lat="46.17067204913156" lon="9.431415519713019"><ele>203.0</ele><time>2026-03-28T10:30:42.999Z</time></trkpt><trkpt lat="46.17076881278496" lon="9.431559229308567"><ele>203.0</ele><time>2026-03-28T10:30:43.999Z</time></trkpt><trkpt lat="46.17086652816799" lon="9.431695974280363"><ele>203.0</ele><time>2026-03-28T10:30:44.999Z</time></trkpt><trkpt lat="46.170940313625515" lon="9.431835682453453"><ele>203.0</ele><time>2026-03-28T10:30:45.999Z</time></trkpt><trkpt lat="46.17101500965282" lon="9.431966936948013"><ele>203.00000000000003</ele><time>2026-03-28T10:30:46.999Z</time></trkpt><trkpt lat="46.17108190652564" lon="9.43206109553686"><ele>203.0</ele><time>2026-03-28T10:30:47.999Z</time></trkpt><trkpt lat="46.171111801078865" lon="9.432161294968983"><ele>203.0</ele><time>2026-03-28T10:30:48.999Z</time></trkpt><trkpt lat="46.17111534252904" lon="9.432265813426573"><ele>203.0</ele><time>2026-03-28T10:30:49.999Z</time></trkpt><trkpt lat="46.17110054463422" lon="9.432357136107058"><ele>203.00000000000003</ele><time>2026-03-28T10:30:50.999Z</time></trkpt><trkpt lat="46.1711141518437" lon="9.432452617940456"><ele>203.0</ele><time>2026-03-28T10:30:51.999Z</time></trkpt><trkpt lat="46.17122346153704" lon="9.432535660113224"><ele>203.2</ele><time>2026-03-28T10:30:53.999Z</time></trkpt><trkpt lat="46.171319636694925" lon="9.432543010752669"><ele>203.4</ele><time>2026-03-28T10:30:54.999Z</time></trkpt><trkpt lat="46.17139840764173" lon="9.432572944412042"><ele>203.6</ele><time>2026-03-28T10:30:55.999Z</time></trkpt><trkpt lat="46.17147621072885" lon="9.432648839592815"><ele>203.79999999999998</ele><time>2026-03-28T10:30:56.999Z</time></trkpt><trkpt lat="46.171557290709515" lon="9.432762305833457"><ele>204.0</ele><time>2026-03-28T10:30:57.999Z</time></trkpt><trkpt lat="46.171643337113736" lon="9.432874619460076"><ele>203.25</ele><time>2026-03-28T10:30:58.999Z</time></trkpt><trkpt lat="46.171744740127416" lon="9.432979829493162"><ele>202.5</ele><time>2026-03-28T10:30:59.999Z</time></trkpt><trkpt lat="46.17185209237494" lon="9.433077490972234"><ele>201.75</ele><time>2026-03-28T10:31:00.999Z</time></trkpt><trkpt lat="46.17195214207166" lon="9.43314295036552"><ele>201.0</ele><time>2026-03-28T10:31:01.999Z</time></trkpt><trkpt lat="46.172060199410346" lon="9.433241926354224"><ele>201.0</ele><time>2026-03-28T10:31:02.999Z</time></trkpt><trkpt lat="46.172180571622214" lon="9.433331760757461"><ele>201.0</ele><time>2026-03-28T10:31:03.999Z</time></trkpt><trkpt lat="46.172322158148326" lon="9.43339783032844"><ele>201.0</ele><time>2026-03-28T10:31:04.999Z</time></trkpt><trkpt lat="46.172468069723095" lon="9.433455570429045"><ele>201.0</ele><time>2026-03-28T10:31:05.999Z</time></trkpt><trkpt lat="46.17261542578115" lon="9.433518067042408"><ele>200.66666666666669</ele><time>2026-03-28T10:31:06.999Z</time></trkpt><trkpt lat="46.17277708930416" lon="9.433595318195485"><ele>200.33333333333334</ele><time>2026-03-28T10:31:07.999Z</time></trkpt><trkpt lat="46.17295623712745" lon="9.433688600177565"><ele>200.0</ele><time>2026-03-28T10:31:08.999Z</time></trkpt><trkpt lat="46.17311822650978" lon="9.433797157266802"><ele>200.5</ele><time>2026-03-28T10:31:09.999Z</time></trkpt><trkpt lat="46.173450129984914" lon="9.43400051591596"><ele>201.0</ele><time>2026-03-28T10:31:11.999Z</time></trkpt><trkpt lat="46.17361856417523" lon="9.434078815452684"><ele>201.0</ele><time>2026-03-28T10:31:12.999Z</time></trkpt><trkpt lat="46.17377151050422" lon="9.434147130832923"><ele>201.0</ele><time>2026-03-28T10:31:13.999Z</time></trkpt><trkpt lat="46.17393232117744" lon="9.434187535686775"><ele>201.0</ele><time>2026-03-28T10:31:14.999Z</time></trkpt><trkpt lat="46.1740794962759" lon="9.434221897092687"><ele>200.5</ele><time>2026-03-28T10:31:15.999Z</time></trkpt><trkpt lat="46.174220086881824" lon="9.434260300184828"><ele>200.0</ele><time>2026-03-28T10:31:16.999Z</time></trkpt><trkpt lat="46.17436412673596" lon="9.43429424766153"><ele>199.5</ele><time>2026-03-28T10:31:17.999Z</time></trkpt><trkpt lat="46.17451501596644" lon="9.434355962861101"><ele>199.0</ele><time>2026-03-28T10:31:18.999Z</time></trkpt><trkpt lat="46.17467183283222" lon="9.434454054202462"><ele>199.0</ele><time>2026-03-28T10:31:19.999Z</time></trkpt><trkpt lat="46.17483350624265" lon="9.43457128558205"><ele>199.0</ele><time>2026-03-28T10:31:20.999Z</time></trkpt><trkpt lat="46.17497298223127" lon="9.434699471713149"><ele>199.0</ele><time>2026-03-28T10:31:21.999Z</time></trkpt><trkpt lat="46.17511730429104" lon="9.434842586032314"><ele>200.33333333333331</ele><time>2026-03-28T10:31:22.999Z</time></trkpt><trkpt lat="46.17529199702809" lon="9.435000649045891"><ele>201.66666666666669</ele><time>2026-03-28T10:31:23.999Z</time></trkpt><trkpt lat="46.17548143230209" lon="9.435161177987874"><ele>203.0</ele><time>2026-03-28T10:31:24.999Z</time></trkpt><trkpt lat="46.17567361904109" lon="9.435349879842612"><ele>202.0</ele><time>2026-03-28T10:31:25.999Z</time></trkpt><trkpt lat="46.17589307065485" lon="9.43555532353786"><ele>201.0</ele><time>2026-03-28T10:31:26.998Z</time></trkpt><trkpt lat="46.17614758222496" lon="9.435777275473974"><ele>201.0</ele><time>2026-03-28T10:31:27.998Z</time></trkpt><trkpt lat="46.17639974370283" lon="9.435975577069629"><ele>201.0</ele><time>2026-03-28T10:31:28.998Z</time></trkpt><trkpt lat="46.17663262963625" lon="9.436228904506002"><ele>201.0</ele><time>2026-03-28T10:31:29.998Z</time></trkpt><trkpt lat="46.17686294543342" lon="9.43654232672436"><ele>201.0</ele><time>2026-03-28T10:31:30.998Z</time></trkpt><trkpt lat="46.17706882935977" lon="9.436618859889174"><ele>201.0</ele><time>2026-03-28T10:31:31.998Z</time></trkpt><trkpt lat="46.17727743127303" lon="9.43683022387861"><ele>201.0</ele><time>2026-03-28T10:31:32.998Z</time></trkpt><trkpt lat="46.17747534131062" lon="9.437038768623335"><ele>200.0</ele><time>2026-03-28T10:31:33.998Z</time></trkpt><trkpt lat="46.177673524783955" lon="9.437238570317612"><ele>199.0</ele><time>2026-03-28T10:31:34.998Z</time></trkpt><trkpt lat="46.17787075182269" lon="9.437440632890581"><ele>199.0</ele><time>2026-03-28T10:31:35.998Z</time></trkpt><trkpt lat="46.17806463532245" lon="9.43763746379128"><ele>199.0</ele><time>2026-03-28T10:31:36.998Z</time></trkpt><trkpt lat="46.17825517789378" lon="9.437832154633133"><ele>200.5</ele><time>2026-03-28T10:31:37.999Z</time></trkpt><trkpt lat="46.178438977776906" lon="9.43802418120525"><ele>202.0</ele><time>2026-03-28T10:31:38.999Z</time></trkpt><trkpt lat="46.178625769515406" lon="9.438212616671477"><ele>202.0</ele><time>2026-03-28T10:31:39.999Z</time></trkpt><trkpt lat="46.178814838424536" lon="9.438403860897393"><ele>202.0</ele><time>2026-03-28T10:31:40.999Z</time></trkpt><trkpt lat="46.1790026722359" lon="9.43859322683667"><ele>201.5</ele><time>2026-03-28T10:31:41.999Z</time></trkpt><trkpt lat="46.179200321251095" lon="9.438784492395305"><ele>201.0</ele><time>2026-03-28T10:31:42.999Z</time></trkpt><trkpt lat="46.17939536208992" lon="9.438980441266908"><ele>201.0</ele><time>2026-03-28T10:31:43.999Z</time></trkpt><trkpt lat="46.179592386357825" lon="9.439177892454966"><ele>201.0</ele><time>2026-03-28T10:31:44.999Z</time></trkpt><trkpt lat="46.17979148274853" lon="9.439371267198453"><ele>200.5</ele><time>2026-03-28T10:31:45.999Z</time></trkpt><trkpt lat="46.179990038016804" lon="9.439568095339862"><ele>200.0</ele><time>2026-03-28T10:31:46.999Z</time></trkpt><trkpt lat="46.180186338121196" lon="9.4397696237325"><ele>200.0</ele><time>2026-03-28T10:31:47.999Z</time></trkpt><trkpt lat="46.180380837449384" lon="9.439968553368926"><ele>200.0</ele><time>2026-03-28T10:31:48.999Z</time></trkpt><trkpt lat="46.18057277213361" lon="9.440162701747221"><ele>199.5</ele><time>2026-03-28T10:31:49.999Z</time></trkpt><trkpt lat="46.18076219814294" lon="9.440354925874741"><ele>199.0</ele><time>2026-03-28T10:31:50.999Z</time></trkpt><trkpt lat="46.18094292031859" lon="9.440543976546754"><ele>200.33333333333331</ele><time>2026-03-28T10:31:51.999Z</time></trkpt><trkpt lat="46.18111758693907" lon="9.440726073106234"><ele>201.66666666666669</ele><time>2026-03-28T10:31:52.999Z</time></trkpt><trkpt lat="46.181288018030315" lon="9.440899367848143"><ele>203.0</ele><time>2026-03-28T10:31:53.999Z</time></trkpt><trkpt lat="46.1814525939122" lon="9.44105948439717"><ele>202.0</ele><time>2026-03-28T10:31:54.999Z</time></trkpt><trkpt lat="46.181619223759675" lon="9.44121910076047"><ele>201.0</ele><time>2026-03-28T10:31:55.999Z</time></trkpt><trkpt lat="46.181786724202674" lon="9.44138662339126"><ele>200.0</ele><time>2026-03-28T10:31:56.999Z</time></trkpt><trkpt lat="46.181954692094614" lon="9.441557606209042"><ele>200.0</ele><time>2026-03-28T10:31:57.999Z</time></trkpt><trkpt lat="46.182119082581615" lon="9.44172472471615"><ele>200.0</ele><time>2026-03-28T10:31:58.999Z</time></trkpt><trkpt lat="46.18229011566284" lon="9.441893427811006"><ele>200.0</ele><time>2026-03-28T10:31:59.999Z</time></trkpt><trkpt lat="46.182457936998034" lon="9.44205948800051"><ele>200.66666666666669</ele><time>2026-03-28T10:32:00.999Z</time></trkpt><trkpt lat="46.182633249888205" lon="9.442229224054895"><ele>201.33333333333331</ele><time>2026-03-28T10:32:01.999Z</time></trkpt><trkpt lat="46.18280871959499" lon="9.442416204596093"><ele>202.0</ele><time>2026-03-28T10:32:02.999Z</time></trkpt><trkpt lat="46.18299418199816" lon="9.442593559447374"><ele>202.0</ele><time>2026-03-28T10:32:03.999Z</time></trkpt><trkpt lat="46.183170802947664" lon="9.442773874812112"><ele>202.0</ele><time>2026-03-28T10:32:04.999Z</time></trkpt><trkpt lat="46.18335212757341" lon="9.442947301331914"><ele>202.0</ele><time>2026-03-28T10:32:05.999Z</time></trkpt><trkpt lat="46.1835400208035" lon="9.443126323874733"><ele>201.33333333333331</ele><time>2026-03-28T10:32:06.999Z</time></trkpt><trkpt lat="46.18372046585337" lon="9.443301103420811"><ele>200.66666666666669</ele><time>2026-03-28T10:32:07.999Z</time></trkpt><trkpt lat="46.18391845843029" lon="9.443450025668083"><ele>200.0</ele><time>2026-03-28T10:32:08.999Z</time></trkpt><trkpt lat="46.18412764948299" lon="9.443588285158919"><ele>199.5</ele><time>2026-03-28T10:32:09.999Z</time></trkpt><trkpt lat="46.1843390161686" lon="9.443712902355113"><ele>199.0</ele><time>2026-03-28T10:32:10.999Z</time></trkpt><trkpt lat="46.18454725490894" lon="9.443822999022144"><ele>199.66666666666666</ele><time>2026-03-28T10:32:11.999Z</time></trkpt><trkpt lat="46.184750779939655" lon="9.443928926075028"><ele>200.33333333333331</ele><time>2026-03-28T10:32:12.999Z</time></trkpt><trkpt lat="46.184955594763075" lon="9.44401963154647"><ele>201.0</ele><time>2026-03-28T10:32:13.999Z</time></trkpt><trkpt lat="46.185155531338985" lon="9.444082251388071"><ele>203.0</ele><time>2026-03-28T10:32:14.999Z</time></trkpt><trkpt lat="46.185355136636296" lon="9.444145815972727"><ele>205.0</ele><time>2026-03-28T10:32:15.999Z</time></trkpt><trkpt lat="46.18553248816528" lon="9.44417997256179"><ele>207.0</ele><time>2026-03-28T10:32:16.999Z</time></trkpt><trkpt lat="46.18570857981542" lon="9.444205590239543"><ele>207.33333333333331</ele><time>2026-03-28T10:32:17.999Z</time></trkpt><trkpt lat="46.18586729154735" lon="9.444248703922586"><ele>207.66666666666666</ele><time>2026-03-28T10:32:18.999Z</time></trkpt><trkpt lat="46.18603702188082" lon="9.4442774486508"><ele>208.0</ele><time>2026-03-28T10:32:19.999Z</time></trkpt><trkpt lat="46.186201333763876" lon="9.444308051373914"><ele>208.0</ele><time>2026-03-28T10:32:20.999Z</time></trkpt><trkpt lat="46.18635848805161" lon="9.444342760451924"><ele>208.0</ele><time>2026-03-28T10:32:21.999Z</time></trkpt><trkpt lat="46.18651364988361" lon="9.444377357093682"><ele>208.0</ele><time>2026-03-28T10:32:22.999Z</time></trkpt><trkpt lat="46.186661886173056" lon="9.444422187826978"><ele>207.0</ele><time>2026-03-28T10:32:23.999Z</time></trkpt><trkpt lat="46.18681938263863" lon="9.444472511034315"><ele>206.0</ele><time>2026-03-28T10:32:24.999Z</time></trkpt><trkpt lat="46.18697381833797" lon="9.444540556376655"><ele>205.0</ele><time>2026-03-28T10:32:25.999Z</time></trkpt><trkpt lat="46.187124613935595" lon="9.444625629066158"><ele>210.0</ele><time>2026-03-28T10:32:26.999Z</time></trkpt><trkpt lat="46.187273828338135" lon="9.444722801392517"><ele>215.0</ele><time>2026-03-28T10:32:27.999Z</time></trkpt><trkpt lat="46.18741606159902" lon="9.44483031560103"><ele>220.0</ele><time>2026-03-28T10:32:28.999Z</time></trkpt><trkpt lat="46.187545213115605" lon="9.444945986888293"><ele>220.0</ele><time>2026-03-28T10:32:29.999Z</time></trkpt><trkpt lat="46.18767348026018" lon="9.445056995749022"><ele>220.0</ele><time>2026-03-28T10:32:30.999Z</time></trkpt><trkpt lat="46.18779105376394" lon="9.445166169074557"><ele>220.0</ele><time>2026-03-28T10:32:31.999Z</time></trkpt><trkpt lat="46.18789954636121" lon="9.445262271484589"><ele>220.0</ele><time>2026-03-28T10:32:32.999Z</time></trkpt><trkpt lat="46.188005274135676" lon="9.44540866472684"><ele>219.75</ele><time>2026-03-28T10:32:33.999Z</time></trkpt><trkpt lat="46.18810620521218" lon="9.445573206355174"><ele>219.5</ele><time>2026-03-28T10:32:34.999Z</time></trkpt><trkpt lat="46.188190351817525" lon="9.445734791928722"><ele>219.25</ele><time>2026-03-28T10:32:35.999Z</time></trkpt><trkpt lat="46.18827242663269" lon="9.445892531235502"><ele>219.0</ele><time>2026-03-28T10:32:36.999Z</time></trkpt><trkpt lat="46.18836355813539" lon="9.446048414647333"><ele>219.0</ele><time>2026-03-28T10:32:37.999Z</time></trkpt><trkpt lat="46.18844373533593" lon="9.446210165972879"><ele>219.0</ele><time>2026-03-28T10:32:38.999Z</time></trkpt><trkpt lat="46.18852866604495" lon="9.446377024156277"><ele>219.0</ele><time>2026-03-28T10:32:39.999Z</time></trkpt><trkpt lat="46.188614627407205" lon="9.446547394085284"><ele>219.0</ele><time>2026-03-28T10:32:40.999Z</time></trkpt><trkpt lat="46.18870233155699" lon="9.446716192738265"><ele>224.25</ele><time>2026-03-28T10:32:41.999Z</time></trkpt><trkpt lat="46.188798096286476" lon="9.44687669702737"><ele>229.5</ele><time>2026-03-28T10:32:42.999Z</time></trkpt><trkpt lat="46.18889619384771" lon="9.447041269572868"><ele>234.75</ele><time>2026-03-28T10:32:44.025Z</time></trkpt><trkpt lat="46.1889833493691" lon="9.447189603506706"><ele>240.0</ele><time>2026-03-28T10:32:45.014Z</time></trkpt><trkpt lat="46.18907680579266" lon="9.447356742924985"><ele>240.0</ele><time>2026-03-28T10:32:46.018Z</time></trkpt><trkpt lat="46.18917388078181" lon="9.447519153293461"><ele>240.0</ele><time>2026-03-28T10:32:47.024Z</time></trkpt><trkpt lat="46.189270826239756" lon="9.447670923657741"><ele>240.0</ele><time>2026-03-28T10:32:48.017Z</time></trkpt><trkpt lat="46.19048418920813" lon="9.448747101733717"><ele>203.0</ele><time>2026-03-28T10:32:58.477Z</time></trkpt><trkpt lat="46.19497302458267" lon="9.45089531131969"><ele>203.0</ele><time>2026-03-28T10:33:28.999Z</time></trkpt><trkpt lat="46.1950988100632" lon="9.450963233506467"><ele>203.0</ele><time>2026-03-28T10:33:29.999Z</time></trkpt><trkpt lat="46.19523823607535" lon="9.45100207563248"><ele>203.0</ele><time>2026-03-28T10:33:30.999Z</time></trkpt><trkpt lat="46.195375484501895" lon="9.451053460882715"><ele>203.0</ele><time>2026-03-28T10:33:31.999Z</time></trkpt><trkpt lat="46.19552320709974" lon="9.45112066757895"><ele>203.0</ele><time>2026-03-28T10:33:32.999Z</time></trkpt><trkpt lat="46.19566295473471" lon="9.451208281702582"><ele>203.0</ele><time>2026-03-28T10:33:33.999Z</time></trkpt><trkpt lat="46.19580280655568" lon="9.45129368686279"><ele>203.0</ele><time>2026-03-28T10:33:35Z</time></trkpt><trkpt lat="46.19593708558132" lon="9.451358476402357"><ele>203.0</ele><time>2026-03-28T10:33:36Z</time></trkpt><trkpt lat="46.19606252129932" lon="9.451404183319953"><ele>203.0</ele><time>2026-03-28T10:33:37Z</time></trkpt><trkpt lat="46.19618954368425" lon="9.45146107635972"><ele>203.0</ele><time>2026-03-28T10:33:38Z</time></trkpt><trkpt lat="46.19633214495457" lon="9.451472851716826"><ele>203.0</ele><time>2026-03-28T10:33:39Z</time></trkpt><trkpt lat="46.196482108707016" lon="9.451517555074142"><ele>203.0</ele><time>2026-03-28T10:33:40Z</time></trkpt><trkpt lat="46.196636841085535" lon="9.451539087115927"><ele>203.0</ele><time>2026-03-28T10:33:41Z</time></trkpt><trkpt lat="46.19679694675512" lon="9.451548524981598"><ele>203.0</ele><time>2026-03-28T10:33:42Z</time></trkpt><trkpt lat="46.196966728574516" lon="9.451545718350292"><ele>203.0</ele><time>2026-03-28T10:33:43Z</time></trkpt><trkpt lat="46.197137897649704" lon="9.451532969071007"><ele>203.0</ele><time>2026-03-28T10:33:44Z</time></trkpt><trkpt lat="46.19731746156632" lon="9.451517954639339"><ele>203.0</ele><time>2026-03-28T10:33:45Z</time></trkpt><trkpt lat="46.197493256502625" lon="9.451501959756923"><ele>203.0</ele><time>2026-03-28T10:33:46Z</time></trkpt><trkpt lat="46.19766643947975" lon="9.451501761601037"><ele>203.66666666666669</ele><time>2026-03-28T10:33:47Z</time></trkpt><trkpt lat="46.19783457475061" lon="9.451494253809818"><ele>204.33333333333331</ele><time>2026-03-28T10:33:48Z</time></trkpt><trkpt lat="46.19800831556364" lon="9.451489434418221"><ele>205.0</ele><time>2026-03-28T10:33:49Z</time></trkpt><trkpt lat="46.19818953308965" lon="9.451480211901053"><ele>205.33333333333331</ele><time>2026-03-28T10:33:50Z</time></trkpt><trkpt lat="46.198370735256304" lon="9.451477686523678"><ele>205.66666666666669</ele><time>2026-03-28T10:33:51Z</time></trkpt><trkpt lat="46.19856551688619" lon="9.45149339707098"><ele>206.0</ele><time>2026-03-28T10:33:52Z</time></trkpt><trkpt lat="46.19876501022571" lon="9.451545058510867"><ele>206.0</ele><time>2026-03-28T10:33:53Z</time></trkpt><trkpt lat="46.19896722401325" lon="9.451611582742636"><ele>206.0</ele><time>2026-03-28T10:33:54Z</time></trkpt><trkpt lat="46.19917540256699" lon="9.451696112320576"><ele>206.0</ele><time>2026-03-28T10:33:55Z</time></trkpt><trkpt lat="46.199373987082105" lon="9.451794810016043"><ele>206.0</ele><time>2026-03-28T10:33:56Z</time></trkpt><trkpt lat="46.199565636988815" lon="9.451897734085348"><ele>206.0</ele><time>2026-03-28T10:33:57Z</time></trkpt><trkpt lat="46.19974794711217" lon="9.452002103497092"><ele>206.0</ele><time>2026-03-28T10:33:58Z</time></trkpt><trkpt lat="46.199922030364796" lon="9.452104762172738"><ele>205.66666666666669</ele><time>2026-03-28T10:33:59Z</time></trkpt><trkpt lat="46.20009171011604" lon="9.452209133914863"><ele>205.33333333333331</ele><time>2026-03-28T10:34:00Z</time></trkpt><trkpt lat="46.20024227807486" lon="9.452326051933417"><ele>205.0</ele><time>2026-03-28T10:34:01Z</time></trkpt><trkpt lat="46.20037946377028" lon="9.452450699258936"><ele>205.0</ele><time>2026-03-28T10:34:02Z</time></trkpt><trkpt lat="46.20049918641032" lon="9.452583695751759"><ele>205.0</ele><time>2026-03-28T10:34:03Z</time></trkpt><trkpt lat="46.20061600186519" lon="9.452726000589509"><ele>205.0</ele><time>2026-03-28T10:34:04Z</time></trkpt><trkpt lat="46.20071333732972" lon="9.45286594278219"><ele>205.0</ele><time>2026-03-28T10:34:05Z</time></trkpt><trkpt lat="46.200788953024315" lon="9.452990960271404"><ele>205.25</ele><time>2026-03-28T10:34:06Z</time></trkpt><trkpt lat="46.20086307795707" lon="9.453132693857063"><ele>205.5</ele><time>2026-03-28T10:34:07Z</time></trkpt><trkpt lat="46.200932568124195" lon="9.45327036687891"><ele>205.75</ele><time>2026-03-28T10:34:08Z</time></trkpt><trkpt lat="46.2010016520033" lon="9.453417196379098"><ele>206.0</ele><time>2026-03-28T10:34:09Z</time></trkpt><trkpt lat="46.20106688207562" lon="9.453568625594926"><ele>206.0</ele><time>2026-03-28T10:34:10Z</time></trkpt><trkpt lat="46.20113670589297" lon="9.453726532772707"><ele>206.0</ele><time>2026-03-28T10:34:11Z</time></trkpt><trkpt lat="46.20120297729408" lon="9.453890295021466"><ele>206.0</ele><time>2026-03-28T10:34:12Z</time></trkpt><trkpt lat="46.20126336377617" lon="9.45406371940643"><ele>206.0</ele><time>2026-03-28T10:34:13Z</time></trkpt><trkpt lat="46.20133735233674" lon="9.454238916329746"><ele>206.0</ele><time>2026-03-28T10:34:14Z</time></trkpt><trkpt lat="46.201398875180615" lon="9.454410651191024"><ele>206.0</ele><time>2026-03-28T10:34:15Z</time></trkpt><trkpt lat="46.201466999739175" lon="9.454587656123081"><ele>206.0</ele><time>2026-03-28T10:34:16Z</time></trkpt><trkpt lat="46.20153022503644" lon="9.454764547884432"><ele>206.0</ele><time>2026-03-28T10:34:17Z</time></trkpt><trkpt lat="46.20158519936809" lon="9.454945443723725"><ele>205.75</ele><time>2026-03-28T10:34:18Z</time></trkpt><trkpt lat="46.20163846814944" lon="9.455130882610316"><ele>205.5</ele><time>2026-03-28T10:34:19Z</time></trkpt><trkpt lat="46.2016780600928" lon="9.45531511386419"><ele>205.25</ele><time>2026-03-28T10:34:20Z</time></trkpt><trkpt lat="46.201724077470814" lon="9.455493638760442"><ele>205.0</ele><time>2026-03-28T10:34:21Z</time></trkpt><trkpt lat="46.201778923486444" lon="9.455684369440657"><ele>205.0</ele><time>2026-03-28T10:34:22Z</time></trkpt><trkpt lat="46.20182484428621" lon="9.455876735463404"><ele>205.0</ele><time>2026-03-28T10:34:23Z</time></trkpt><trkpt lat="46.2018770684817" lon="9.456070421442874"><ele>205.0</ele><time>2026-03-28T10:34:24Z</time></trkpt><trkpt lat="46.201925105818006" lon="9.45629955821976"><ele>205.5</ele><time>2026-03-28T10:34:25Z</time></trkpt><trkpt lat="46.20198566796367" lon="9.45650722351946"><ele>206.0</ele><time>2026-03-28T10:34:26Z</time></trkpt><trkpt lat="46.20202990763533" lon="9.456704862096753"><ele>206.5</ele><time>2026-03-28T10:34:27Z</time></trkpt><trkpt lat="46.20207583031649" lon="9.456891909297182"><ele>207.0</ele><time>2026-03-28T10:34:28Z</time></trkpt><trkpt lat="46.20212278041532" lon="9.45706343724391"><ele>208.0</ele><time>2026-03-28T10:34:29Z</time></trkpt><trkpt lat="46.20216595479701" lon="9.457243362664453"><ele>209.0</ele><time>2026-03-28T10:34:30Z</time></trkpt><trkpt lat="46.20221810465705" lon="9.457427994194536"><ele>210.0</ele><time>2026-03-28T10:34:31Z</time></trkpt><trkpt lat="46.20225353894055" lon="9.45763164333167"><ele>211.0</ele><time>2026-03-28T10:34:32Z</time></trkpt><trkpt lat="46.202308683046276" lon="9.457857536205493"><ele>209.66666666666666</ele><time>2026-03-28T10:34:33Z</time></trkpt><trkpt lat="46.202373084898056" lon="9.458123102687681"><ele>208.33333333333331</ele><time>2026-03-28T10:34:34Z</time></trkpt><trkpt lat="46.20243447237657" lon="9.458382918605665"><ele>207.0</ele><time>2026-03-28T10:34:35Z</time></trkpt><trkpt lat="46.20249721606191" lon="9.458647994508329"><ele>213.0</ele><time>2026-03-28T10:34:36Z</time></trkpt><trkpt lat="46.20256090734618" lon="9.458893170256292"><ele>219.0</ele><time>2026-03-28T10:34:37Z</time></trkpt><trkpt lat="46.20263923476143" lon="9.459132575786356"><ele>225.0</ele><time>2026-03-28T10:34:38Z</time></trkpt><trkpt lat="46.20273511612343" lon="9.459339569552892"><ele>225.0</ele><time>2026-03-28T10:34:39Z</time></trkpt><trkpt lat="46.20285941061745" lon="9.459532746050847"><ele>225.0</ele><time>2026-03-28T10:34:40Z</time></trkpt><trkpt lat="46.203039782075294" lon="9.459723706307724"><ele>225.0</ele><time>2026-03-28T10:34:41.02Z</time></trkpt><trkpt lat="46.203230695751046" lon="9.459881465582919"><ele>247.0</ele><time>2026-03-28T10:34:42.021Z</time></trkpt><trkpt lat="46.203433573901485" lon="9.460045413709581"><ele>269.0</ele><time>2026-03-28T10:34:43.027Z</time></trkpt><trkpt lat="46.203642440382964" lon="9.460213628827537"><ele>269.0</ele><time>2026-03-28T10:34:44.02Z</time></trkpt><trkpt lat="46.20386146469197" lon="9.460391881505332"><ele>269.0</ele><time>2026-03-28T10:34:45.023Z</time></trkpt><trkpt lat="46.2058425001907" lon="9.461039729277116"><ele>281.5</ele><time>2026-03-28T10:34:49.603Z</time></trkpt><trkpt lat="46.20628740764385" lon="9.460948387975703"><ele>294.0</ele><time>2026-03-28T10:34:50.603Z</time></trkpt><trkpt lat="46.2067224328271" lon="9.46078413308637"><ele>261.0</ele><time>2026-03-28T10:34:51.603Z</time></trkpt><trkpt lat="46.20706203397941" lon="9.460655367010702"><ele>228.0</ele><time>2026-03-28T10:35:01Z</time></trkpt><trkpt lat="46.20724495587936" lon="9.460591087193702"><ele>222.33333333333331</ele><time>2026-03-28T10:35:02Z</time></trkpt><trkpt lat="46.20745757971739" lon="9.460564528333324"><ele>216.66666666666666</ele><time>2026-03-28T10:35:03Z</time></trkpt><trkpt lat="46.20763444103024" lon="9.460545234032299"><ele>211.0</ele><time>2026-03-28T10:35:04Z</time></trkpt><trkpt lat="46.207813658448586" lon="9.460562974082201"><ele>211.0</ele><time>2026-03-28T10:35:05Z</time></trkpt><trkpt lat="46.20800468913688" lon="9.460599805822415"><ele>211.0</ele><time>2026-03-28T10:35:06Z</time></trkpt><trkpt lat="46.208190193188365" lon="9.460587424039394"><ele>211.0</ele><time>2026-03-28T10:35:07Z</time></trkpt><trkpt lat="46.208365536939425" lon="9.460516229439904"><ele>208.0</ele><time>2026-03-28T10:35:08Z</time></trkpt><trkpt lat="46.20854020025128" lon="9.460376304045209"><ele>205.0</ele><time>2026-03-28T10:35:09Z</time></trkpt><trkpt lat="46.20872078802812" lon="9.460246788390814"><ele>202.0</ele><time>2026-03-28T10:35:10Z</time></trkpt><trkpt lat="46.208874118497704" lon="9.460061910504832"><ele>202.33333333333331</ele><time>2026-03-28T10:35:11Z</time></trkpt><trkpt lat="46.20901949345319" lon="9.459891203413349"><ele>202.66666666666669</ele><time>2026-03-28T10:35:12Z</time></trkpt><trkpt lat="46.20915376071118" lon="9.4597013189646"><ele>203.0</ele><time>2026-03-28T10:35:13Z</time></trkpt><trkpt lat="46.20927389248051" lon="9.459502320475503"><ele>203.0</ele><time>2026-03-28T10:35:14Z</time></trkpt><trkpt lat="46.2093742135975" lon="9.459284067583079"><ele>203.0</ele><time>2026-03-28T10:35:15Z</time></trkpt><trkpt lat="46.209449764136565" lon="9.459060515974903"><ele>203.0</ele><time>2026-03-28T10:35:16Z</time></trkpt><trkpt lat="46.20949422286321" lon="9.45880705548388"><ele>202.66666666666669</ele><time>2026-03-28T10:35:17Z</time></trkpt><trkpt lat="46.20952792466456" lon="9.458526262444206"><ele>202.33333333333331</ele><time>2026-03-28T10:35:18Z</time></trkpt><trkpt lat="46.209550755080265" lon="9.458228827809718"><ele>202.0</ele><time>2026-03-28T10:35:19Z</time></trkpt><trkpt lat="46.20957487759106" lon="9.457947675175612"><ele>201.33333333333331</ele><time>2026-03-28T10:35:20Z</time></trkpt><trkpt lat="46.20961312084818" lon="9.457662130849727"><ele>200.66666666666669</ele><time>2026-03-28T10:35:21Z</time></trkpt><trkpt lat="46.20963898117631" lon="9.457356831555641"><ele>200.0</ele><time>2026-03-28T10:35:22Z</time></trkpt><trkpt lat="46.209655544798814" lon="9.457043457883412"><ele>200.0</ele><time>2026-03-28T10:35:23Z</time></trkpt><trkpt lat="46.20970021827622" lon="9.456730686512834"><ele>200.0</ele><time>2026-03-28T10:35:24Z</time></trkpt><trkpt lat="46.209731895062404" lon="9.45639005791001"><ele>201.0</ele><time>2026-03-28T10:35:25Z</time></trkpt><trkpt lat="46.20977909041058" lon="9.456070676264131"><ele>202.0</ele><time>2026-03-28T10:35:26Z</time></trkpt><trkpt lat="46.209814088653026" lon="9.45574266182606"><ele>203.66666666666666</ele><time>2026-03-28T10:35:27Z</time></trkpt><trkpt lat="46.209850339638" lon="9.45542850129039"><ele>205.33333333333331</ele><time>2026-03-28T10:35:28Z</time></trkpt><trkpt lat="46.209878429143146" lon="9.45511992273533"><ele>207.0</ele><time>2026-03-28T10:35:29Z</time></trkpt><trkpt lat="46.20991121990008" lon="9.454812325298924"><ele>207.33333333333331</ele><time>2026-03-28T10:35:30Z</time></trkpt><trkpt lat="46.20994501149976" lon="9.454498457733967"><ele>207.66666666666666</ele><time>2026-03-28T10:35:31Z</time></trkpt><trkpt lat="46.209978065570425" lon="9.45418586154282"><ele>208.0</ele><time>2026-03-28T10:35:32Z</time></trkpt><trkpt lat="46.210027148777925" lon="9.45387591458071"><ele>207.33333333333331</ele><time>2026-03-28T10:35:33Z</time></trkpt><trkpt lat="46.210048092715546" lon="9.453557760437397"><ele>206.66666666666669</ele><time>2026-03-28T10:35:34Z</time></trkpt><trkpt lat="46.210103634688345" lon="9.453242978690234"><ele>206.0</ele><time>2026-03-28T10:35:35Z</time></trkpt><trkpt lat="46.210184365374786" lon="9.45291591330487"><ele>205.0</ele><time>2026-03-28T10:35:36Z</time></trkpt><trkpt lat="46.210255708489655" lon="9.452597054615246"><ele>204.0</ele><time>2026-03-28T10:35:37Z</time></trkpt><trkpt lat="46.21033925448921" lon="9.452259600986789"><ele>203.0</ele><time>2026-03-28T10:35:38Z</time></trkpt><trkpt lat="46.21042815398409" lon="9.451907579553032"><ele>202.0</ele><time>2026-03-28T10:35:39Z</time></trkpt><trkpt lat="46.210531080067" lon="9.451554397852577"><ele>202.0</ele><time>2026-03-28T10:35:40Z</time></trkpt><trkpt lat="46.21064648844447" lon="9.451209451677432"><ele>202.0</ele><time>2026-03-28T10:35:41.001Z</time></trkpt><trkpt lat="46.21077988124532" lon="9.450863445615568"><ele>201.5</ele><time>2026-03-28T10:35:42.001Z</time></trkpt><trkpt lat="46.21090825864182" lon="9.450528490012703"><ele>201.0</ele><time>2026-03-28T10:35:43.001Z</time></trkpt><trkpt lat="46.211036207970984" lon="9.450194975120361"><ele>201.0</ele><time>2026-03-28T10:35:44.001Z</time></trkpt><trkpt lat="46.21116953795537" lon="9.449862895354347"><ele>201.0</ele><time>2026-03-28T10:35:45.001Z</time></trkpt><trkpt lat="46.21131081312499" lon="9.449549302122035"><ele>200.5</ele><time>2026-03-28T10:35:46.001Z</time></trkpt><trkpt lat="46.21146321484983" lon="9.44927005255025"><ele>200.0</ele><time>2026-03-28T10:35:47.001Z</time></trkpt><trkpt lat="46.211630037632794" lon="9.449008343002905"><ele>200.5</ele><time>2026-03-28T10:35:48.001Z</time></trkpt><trkpt lat="46.21181074170025" lon="9.448784004140085"><ele>201.0</ele><time>2026-03-28T10:35:49.001Z</time></trkpt><trkpt lat="46.21200309789114" lon="9.448574321210243"><ele>201.0</ele><time>2026-03-28T10:35:50.001Z</time></trkpt><trkpt lat="46.21221022038044" lon="9.448387258489367"><ele>201.0</ele><time>2026-03-28T10:35:51.001Z</time></trkpt><trkpt lat="46.212389222019866" lon="9.448219100358218"><ele>202.0</ele><time>2026-03-28T10:35:52.001Z</time></trkpt><trkpt lat="46.2125714574966" lon="9.448045497977803"><ele>203.0</ele><time>2026-03-28T10:35:53.001Z</time></trkpt><trkpt lat="46.21275852613513" lon="9.447854780048315"><ele>204.0</ele><time>2026-03-28T10:35:54.001Z</time></trkpt><trkpt lat="46.21295734719109" lon="9.447669109052836"><ele>205.0</ele><time>2026-03-28T10:35:55.001Z</time></trkpt><trkpt lat="46.21317078101999" lon="9.447472023011287"><ele>206.0</ele><time>2026-03-28T10:35:56.001Z</time></trkpt><trkpt lat="46.21337998341584" lon="9.447314950515215"><ele>206.0</ele><time>2026-03-28T10:35:57.001Z</time></trkpt><trkpt lat="46.213593838156015" lon="9.447205247921804"><ele>206.0</ele><time>2026-03-28T10:35:58.001Z</time></trkpt><trkpt lat="46.21382353013417" lon="9.447174972957052"><ele>206.0</ele><time>2026-03-28T10:35:59.001Z</time></trkpt><trkpt lat="46.214051133164155" lon="9.447140287561828"><ele>206.0</ele><time>2026-03-28T10:36:00.001Z</time></trkpt><trkpt lat="46.21428046958045" lon="9.447153656968213"><ele>206.0</ele><time>2026-03-28T10:36:01.001Z</time></trkpt><trkpt lat="46.21450974195369" lon="9.447180968826824"><ele>206.0</ele><time>2026-03-28T10:36:02.001Z</time></trkpt><trkpt lat="46.2147073385663" lon="9.44715552268821"><ele>206.0</ele><time>2026-03-28T10:36:03.001Z</time></trkpt><trkpt lat="46.214777613382346" lon="9.447007421270047"><ele>206.0</ele><time>2026-03-28T10:36:04.001Z</time></trkpt><trkpt lat="46.21486665050242" lon="9.446948921298434"><ele>206.0</ele><time>2026-03-28T10:36:05.001Z</time></trkpt><trkpt lat="46.21497229076433" lon="9.446946191922667"><ele>206.0</ele><time>2026-03-28T10:36:06.001Z</time></trkpt><trkpt lat="46.215180421436706" lon="9.447055964152616"><ele>206.0</ele><time>2026-03-28T10:36:07.001Z</time></trkpt><trkpt lat="46.21531865183072" lon="9.447107553565331"><ele>206.20000000000002</ele><time>2026-03-28T10:36:08.001Z</time></trkpt><trkpt lat="46.21541962869152" lon="9.447133285338191"><ele>206.4</ele><time>2026-03-28T10:36:09.001Z</time></trkpt><trkpt lat="46.215509964377624" lon="9.447168266287665"><ele>206.6</ele><time>2026-03-28T10:36:11.001Z</time></trkpt><trkpt lat="46.21558862605363" lon="9.447338858573076"><ele>206.8</ele><time>2026-03-28T10:36:13.001Z</time></trkpt><trkpt lat="46.215630956599234" lon="9.447415118059116"><ele>207.0</ele><time>2026-03-28T10:36:14.001Z</time></trkpt><trkpt lat="46.21570021370219" lon="9.447490890618917"><ele>206.66666666666666</ele><time>2026-03-28T10:36:15.001Z</time></trkpt><trkpt lat="46.21579398051569" lon="9.44740880521552"><ele>206.33333333333331</ele><time>2026-03-28T10:36:17.001Z</time></trkpt><trkpt lat="46.2158321374623" lon="9.447323207944983"><ele>206.0</ele><time>2026-03-28T10:36:18Z</time></trkpt><trkpt lat="46.21587731583354" lon="9.447239538994063"><ele>205.66666666666666</ele><time>2026-03-28T10:36:19Z</time></trkpt><trkpt lat="46.21594886545698" lon="9.447173083554066"><ele>205.33333333333331</ele><time>2026-03-28T10:36:20Z</time></trkpt><trkpt lat="46.216049206086055" lon="9.447140990164277"><ele>205.0</ele><time>2026-03-28T10:36:21Z</time></trkpt><trkpt lat="46.21618300163487" lon="9.447133177891168"><ele>205.33333333333331</ele><time>2026-03-28T10:36:22Z</time></trkpt><trkpt lat="46.216357802710256" lon="9.447113241803093"><ele>205.66666666666669</ele><time>2026-03-28T10:36:23Z</time></trkpt><trkpt lat="46.21658164775533" lon="9.447070240551398"><ele>206.0</ele><time>2026-03-28T10:36:24Z</time></trkpt><trkpt lat="46.21681738531025" lon="9.446982006332767"><ele>206.0</ele><time>2026-03-28T10:36:25Z</time></trkpt><trkpt lat="46.21703831979304" lon="9.446844081821586"><ele>206.0</ele><time>2026-03-28T10:36:26Z</time></trkpt><trkpt lat="46.217241436382245" lon="9.446717967117664"><ele>207.0</ele><time>2026-03-28T10:36:27Z</time></trkpt><trkpt lat="46.21744994278837" lon="9.446631275777325"><ele>208.0</ele><time>2026-03-28T10:36:28Z</time></trkpt><trkpt lat="46.21767686817101" lon="9.446582509006106"><ele>209.0</ele><time>2026-03-28T10:36:29Z</time></trkpt><trkpt lat="46.21792251370302" lon="9.446548130406521"><ele>206.0</ele><time>2026-03-28T10:36:30Z</time></trkpt><trkpt lat="46.21818588874818" lon="9.446515206208623"><ele>203.0</ele><time>2026-03-28T10:36:31Z</time></trkpt><trkpt lat="46.218442011701214" lon="9.446461942894013"><ele>203.0</ele><time>2026-03-28T10:36:32Z</time></trkpt><trkpt lat="46.21870129030369" lon="9.446435457428764"><ele>203.0</ele><time>2026-03-28T10:36:33Z</time></trkpt><trkpt lat="46.218967405228774" lon="9.446410774652326"><ele>204.0</ele><time>2026-03-28T10:36:34Z</time></trkpt><trkpt lat="46.21922758786226" lon="9.446389696902132"><ele>205.0</ele><time>2026-03-28T10:36:35Z</time></trkpt><trkpt lat="46.219478456180276" lon="9.446350974167764"><ele>205.0</ele><time>2026-03-28T10:36:36Z</time></trkpt><trkpt lat="46.21971345955724" lon="9.44631311595631"><ele>205.0</ele><time>2026-03-28T10:36:37Z</time></trkpt><trkpt lat="46.219928620024966" lon="9.446283041850464"><ele>204.0</ele><time>2026-03-28T10:36:38Z</time></trkpt><trkpt lat="46.220136901841826" lon="9.44625382450585"><ele>203.0</ele><time>2026-03-28T10:36:39Z</time></trkpt><trkpt lat="46.22033495856847" lon="9.446227549578524"><ele>202.0</ele><time>2026-03-28T10:36:40Z</time></trkpt><trkpt lat="46.22052405144742" lon="9.446197234195932"><ele>203.0</ele><time>2026-03-28T10:36:41Z</time></trkpt><trkpt lat="46.220706407216746" lon="9.44617248672079"><ele>204.0</ele><time>2026-03-28T10:36:42Z</time></trkpt><trkpt lat="46.220894239393026" lon="9.446142211995994"><ele>205.0</ele><time>2026-03-28T10:36:43Z</time></trkpt><trkpt lat="46.22107891340264" lon="9.446115985941448"><ele>205.0</ele><time>2026-03-28T10:36:44Z</time></trkpt><trkpt lat="46.221253616049694" lon="9.446110897694458"><ele>205.0</ele><time>2026-03-28T10:36:45Z</time></trkpt><trkpt lat="46.221434171395806" lon="9.446127911370617"><ele>205.0</ele><time>2026-03-28T10:36:46Z</time></trkpt><trkpt lat="46.22160838979206" lon="9.446161289626618"><ele>204.33333333333331</ele><time>2026-03-28T10:36:47Z</time></trkpt><trkpt lat="46.221782859352906" lon="9.446190542584443"><ele>203.66666666666669</ele><time>2026-03-28T10:36:48Z</time></trkpt><trkpt lat="46.2219536405586" lon="9.446234510683572"><ele>203.0</ele><time>2026-03-28T10:36:49Z</time></trkpt><trkpt lat="46.222126799626146" lon="9.446290292512307"><ele>204.33333333333334</ele><time>2026-03-28T10:36:50Z</time></trkpt><trkpt lat="46.22230193772866" lon="9.44636800417774"><ele>205.66666666666669</ele><time>2026-03-28T10:36:51Z</time></trkpt><trkpt lat="46.222482577733345" lon="9.44645881848358"><ele>207.0</ele><time>2026-03-28T10:36:52Z</time></trkpt><trkpt lat="46.2226545349441" lon="9.44657243960471"><ele>207.0</ele><time>2026-03-28T10:36:53Z</time></trkpt><trkpt lat="46.22283209655046" lon="9.44667001559786"><ele>207.0</ele><time>2026-03-28T10:36:54Z</time></trkpt><trkpt lat="46.22302440458973" lon="9.446775695235758"><ele>207.0</ele><time>2026-03-28T10:36:55Z</time></trkpt><trkpt lat="46.22322464176736" lon="9.446885732213692"><ele>207.0</ele><time>2026-03-28T10:36:56Z</time></trkpt><trkpt lat="46.223426857142265" lon="9.446988557582362"><ele>207.0</ele><time>2026-03-28T10:36:57Z</time></trkpt><trkpt lat="46.22362366841936" lon="9.447104602416136"><ele>207.0</ele><time>2026-03-28T10:36:58Z</time></trkpt><trkpt lat="46.22385494522216" lon="9.447216668438733"><ele>208.0</ele><time>2026-03-28T10:36:59Z</time></trkpt><trkpt lat="46.22408369666459" lon="9.447359630752599"><ele>209.0</ele><time>2026-03-28T10:37:00Z</time></trkpt><trkpt lat="46.224302838670816" lon="9.447459014274466"><ele>209.0</ele><time>2026-03-28T10:37:01Z</time></trkpt><trkpt lat="46.22450044516797" lon="9.44757957513693"><ele>209.0</ele><time>2026-03-28T10:37:02Z</time></trkpt><trkpt lat="46.22468317280718" lon="9.447691573921544"><ele>209.0</ele><time>2026-03-28T10:37:03Z</time></trkpt><trkpt lat="46.2248620332037" lon="9.447783069269828"><ele>209.0</ele><time>2026-03-28T10:37:04Z</time></trkpt><trkpt lat="46.22504743254774" lon="9.44784418903133"><ele>209.0</ele><time>2026-03-28T10:37:05Z</time></trkpt><trkpt lat="46.22524599251803" lon="9.447874805762407"><ele>209.0</ele><time>2026-03-28T10:37:06Z</time></trkpt><trkpt lat="46.225447706806776" lon="9.44787045036787"><ele>210.33333333333334</ele><time>2026-03-28T10:37:07Z</time></trkpt><trkpt lat="46.22564818967801" lon="9.447832378822707"><ele>211.66666666666669</ele><time>2026-03-28T10:37:08Z</time></trkpt><trkpt lat="46.22585110879644" lon="9.447761906364937"><ele>213.0</ele><time>2026-03-28T10:37:09Z</time></trkpt><trkpt lat="46.22605099982735" lon="9.447655944117058"><ele>213.0</ele><time>2026-03-28T10:37:10Z</time></trkpt><trkpt lat="46.22623937200705" lon="9.447518274559677"><ele>213.0</ele><time>2026-03-28T10:37:11Z</time></trkpt><trkpt lat="46.226421916141625" lon="9.447359259925895"><ele>213.0</ele><time>2026-03-28T10:37:12Z</time></trkpt><trkpt lat="46.22659436551631" lon="9.447203378250293"><ele>209.66666666666669</ele><time>2026-03-28T10:37:13Z</time></trkpt><trkpt lat="46.22676631029197" lon="9.447056438187952"><ele>206.33333333333334</ele><time>2026-03-28T10:37:14Z</time></trkpt><trkpt lat="46.226941108569605" lon="9.446914680429346"><ele>203.0</ele><time>2026-03-28T10:37:15Z</time></trkpt><trkpt lat="46.22711388150147" lon="9.446764267740212"><ele>203.0</ele><time>2026-03-28T10:37:16Z</time></trkpt><trkpt lat="46.22727342551565" lon="9.446584496223103"><ele>203.0</ele><time>2026-03-28T10:37:17Z</time></trkpt><trkpt lat="46.22742165353633" lon="9.446380094286843"><ele>203.0</ele><time>2026-03-28T10:37:18Z</time></trkpt><trkpt lat="46.227553296534545" lon="9.446159371127822"><ele>204.66666666666669</ele><time>2026-03-28T10:37:19Z</time></trkpt><trkpt lat="46.22768664026955" lon="9.44593344276306"><ele>206.33333333333331</ele><time>2026-03-28T10:37:20Z</time></trkpt><trkpt lat="46.22779605407936" lon="9.445689671933302"><ele>208.0</ele><time>2026-03-28T10:37:21Z</time></trkpt><trkpt lat="46.22789139114757" lon="9.445432552868438"><ele>204.66666666666666</ele><time>2026-03-28T10:37:22Z</time></trkpt><trkpt lat="46.2279721953007" lon="9.445172200477277"><ele>201.33333333333331</ele><time>2026-03-28T10:37:23Z</time></trkpt><trkpt lat="46.22804858233425" lon="9.444914114995957"><ele>198.0</ele><time>2026-03-28T10:37:24Z</time></trkpt><trkpt lat="46.228125952696566" lon="9.44465270715615"><ele>203.0</ele><time>2026-03-28T10:37:25Z</time></trkpt><trkpt lat="46.228202642516614" lon="9.444389892612206"><ele>208.0</ele><time>2026-03-28T10:37:26Z</time></trkpt><trkpt lat="46.228280843247425" lon="9.444120602394445"><ele>213.0</ele><time>2026-03-28T10:37:27Z</time></trkpt><trkpt lat="46.22836222043463" lon="9.443840469968452"><ele>208.66666666666669</ele><time>2026-03-28T10:37:28Z</time></trkpt><trkpt lat="46.228439857890955" lon="9.443573211196961"><ele>204.33333333333334</ele><time>2026-03-28T10:37:29Z</time></trkpt><trkpt lat="46.22851111339763" lon="9.443327921629804"><ele>200.0</ele><time>2026-03-28T10:37:30Z</time></trkpt><trkpt lat="46.22858095389562" lon="9.443086277741342"><ele>198.66666666666669</ele><time>2026-03-28T10:37:31Z</time></trkpt><trkpt lat="46.228647135627035" lon="9.442854204021122"><ele>197.33333333333331</ele><time>2026-03-28T10:37:32Z</time></trkpt><trkpt lat="46.22871433769229" lon="9.442609696350912"><ele>196.0</ele><time>2026-03-28T10:37:33Z</time></trkpt><trkpt lat="46.22878331529851" lon="9.442362430411276"><ele>195.33333333333331</ele><time>2026-03-28T10:37:34Z</time></trkpt><trkpt lat="46.22885506749081" lon="9.442115283017632"><ele>194.66666666666669</ele><time>2026-03-28T10:37:35Z</time></trkpt><trkpt lat="46.228940164629094" lon="9.4418793342053"><ele>194.0</ele><time>2026-03-28T10:37:36Z</time></trkpt><trkpt lat="46.22904235648641" lon="9.44163816441267"><ele>196.0</ele><time>2026-03-28T10:37:37Z</time></trkpt><trkpt lat="46.229151216451626" lon="9.44140706188205"><ele>198.0</ele><time>2026-03-28T10:37:38Z</time></trkpt><trkpt lat="46.229278378564366" lon="9.441180603154365"><ele>200.0</ele><time>2026-03-28T10:37:39Z</time></trkpt><trkpt lat="46.2294156935443" lon="9.440969857325037"><ele>200.0</ele><time>2026-03-28T10:37:40Z</time></trkpt><trkpt lat="46.22956467558828" lon="9.440767442900668"><ele>200.0</ele><time>2026-03-28T10:37:41Z</time></trkpt><trkpt lat="46.22973148788134" lon="9.440572130016465"><ele>200.0</ele><time>2026-03-28T10:37:42Z</time></trkpt><trkpt lat="46.229927056156235" lon="9.440358274456507"><ele>198.5</ele><time>2026-03-28T10:37:43Z</time></trkpt><trkpt lat="46.23014179626564" lon="9.440127797372648"><ele>197.0</ele><time>2026-03-28T10:37:44Z</time></trkpt><trkpt lat="46.2303732490503" lon="9.439881087516603"><ele>197.5</ele><time>2026-03-28T10:37:45Z</time></trkpt><trkpt lat="46.23064537088603" lon="9.439593616051116"><ele>198.0</ele><time>2026-03-28T10:37:46Z</time></trkpt><trkpt lat="46.23092157658594" lon="9.439303709941495"><ele>198.0</ele><time>2026-03-28T10:37:47.001Z</time></trkpt><trkpt lat="46.231213878198574" lon="9.438997594422194"><ele>198.0</ele><time>2026-03-28T10:37:48.001Z</time></trkpt><trkpt lat="46.231525226790055" lon="9.438671646331708"><ele>197.5</ele><time>2026-03-28T10:37:49.001Z</time></trkpt><trkpt lat="46.23184440707272" lon="9.438358034509484"><ele>197.0</ele><time>2026-03-28T10:37:50.001Z</time></trkpt><trkpt lat="46.232159011601794" lon="9.438079987768283"><ele>198.5</ele><time>2026-03-28T10:37:51.001Z</time></trkpt><trkpt lat="46.23246932695521" lon="9.43781360526069"><ele>200.0</ele><time>2026-03-28T10:37:52.001Z</time></trkpt><trkpt lat="46.23277350158299" lon="9.437554170504246"><ele>200.0</ele><time>2026-03-28T10:37:53.001Z</time></trkpt><trkpt lat="46.233057558194254" lon="9.437311894799251"><ele>200.0</ele><time>2026-03-28T10:37:54.001Z</time></trkpt><trkpt lat="46.23333766622772" lon="9.437075795140293"><ele>199.0</ele><time>2026-03-28T10:37:55.001Z</time></trkpt><trkpt lat="46.23361143479684" lon="9.43684506654598"><ele>198.0</ele><time>2026-03-28T10:37:56.001Z</time></trkpt><trkpt lat="46.23387618835229" lon="9.436599700941587"><ele>199.0</ele><time>2026-03-28T10:37:57.001Z</time></trkpt><trkpt lat="46.23413732316776" lon="9.436375099845153"><ele>200.0</ele><time>2026-03-28T10:37:58.001Z</time></trkpt><trkpt lat="46.23439042207859" lon="9.436150154895403"><ele>200.0</ele><time>2026-03-28T10:37:59.001Z</time></trkpt><trkpt lat="46.23463705892338" lon="9.435921406603603"><ele>200.0</ele><time>2026-03-28T10:38:00.001Z</time></trkpt><trkpt lat="46.23488545996134" lon="9.435703530533337"><ele>200.5</ele><time>2026-03-28T10:38:01.001Z</time></trkpt><trkpt lat="46.235122782841025" lon="9.43545519683376"><ele>201.0</ele><time>2026-03-28T10:38:02.001Z</time></trkpt><trkpt lat="46.23534685702876" lon="9.435195518838785"><ele>201.0</ele><time>2026-03-28T10:38:03.001Z</time></trkpt><trkpt lat="46.23556803548576" lon="9.434932851708933"><ele>201.0</ele><time>2026-03-28T10:38:04.001Z</time></trkpt><trkpt lat="46.2357859025049" lon="9.434661273756323"><ele>200.0</ele><time>2026-03-28T10:38:05.001Z</time></trkpt><trkpt lat="46.23600180154225" lon="9.43439612238435"><ele>199.0</ele><time>2026-03-28T10:38:06.001Z</time></trkpt><trkpt lat="46.23620451929497" lon="9.434119197449231"><ele>199.0</ele><time>2026-03-28T10:38:07.001Z</time></trkpt><trkpt lat="46.23640981392854" lon="9.433868960673246"><ele>199.0</ele><time>2026-03-28T10:38:08.001Z</time></trkpt><trkpt lat="46.23660721267162" lon="9.433634543397003"><ele>199.0</ele><time>2026-03-28T10:38:09.001Z</time></trkpt><trkpt lat="46.23681816578575" lon="9.433425389504823"><ele>199.0</ele><time>2026-03-28T10:38:10.001Z</time></trkpt><trkpt lat="46.23702505498222" lon="9.433206351449883"><ele>199.0</ele><time>2026-03-28T10:38:11.001Z</time></trkpt><trkpt lat="46.23724966755" lon="9.43300267957562"><ele>199.0</ele><time>2026-03-28T10:38:12.001Z</time></trkpt><trkpt lat="46.23747340749" lon="9.43279826866669"><ele>199.5</ele><time>2026-03-28T10:38:13.001Z</time></trkpt><trkpt lat="46.23768778359232" lon="9.43258100516346"><ele>200.0</ele><time>2026-03-28T10:38:14.001Z</time></trkpt><trkpt lat="46.23791131733988" lon="9.432393290543489"><ele>200.0</ele><time>2026-03-28T10:38:15.001Z</time></trkpt><trkpt lat="46.238132501777784" lon="9.432194187196362"><ele>200.0</ele><time>2026-03-28T10:38:16.001Z</time></trkpt><trkpt lat="46.23835505566593" lon="9.431993761545703"><ele>199.0</ele><time>2026-03-28T10:38:17.001Z</time></trkpt><trkpt lat="46.23857551108763" lon="9.431795622510922"><ele>198.0</ele><time>2026-03-28T10:38:18.001Z</time></trkpt><trkpt lat="46.238793073935796" lon="9.431597780538501"><ele>198.5</ele><time>2026-03-28T10:38:19.001Z</time></trkpt><trkpt lat="46.239011891681756" lon="9.431396756073447"><ele>199.0</ele><time>2026-03-28T10:38:20.001Z</time></trkpt><trkpt lat="46.23923809239322" lon="9.431184662874655"><ele>200.0</ele><time>2026-03-28T10:38:21.001Z</time></trkpt><trkpt lat="46.23947151033695" lon="9.430966868847309"><ele>201.0</ele><time>2026-03-28T10:38:22.001Z</time></trkpt><trkpt lat="46.23971808702183" lon="9.430738104219527"><ele>201.0</ele><time>2026-03-28T10:38:23.001Z</time></trkpt><trkpt lat="46.239971401452536" lon="9.430501245846056"><ele>201.0</ele><time>2026-03-28T10:38:24Z</time></trkpt><trkpt lat="46.240229808871504" lon="9.430254986228116"><ele>201.0</ele><time>2026-03-28T10:38:25Z</time></trkpt><trkpt lat="46.2405071852208" lon="9.43002997461806"><ele>201.0</ele><time>2026-03-28T10:38:26Z</time></trkpt><trkpt lat="46.240781288392334" lon="9.429777743140841"><ele>200.5</ele><time>2026-03-28T10:38:27Z</time></trkpt><trkpt lat="46.24103679742138" lon="9.429480110265192"><ele>200.0</ele><time>2026-03-28T10:38:28Z</time></trkpt><trkpt lat="46.24128324617171" lon="9.429192822882731"><ele>200.0</ele><time>2026-03-28T10:38:29Z</time></trkpt><trkpt lat="46.241519844877836" lon="9.428893894796616"><ele>200.0</ele><time>2026-03-28T10:38:30Z</time></trkpt><trkpt lat="46.24175194415633" lon="9.42859802080812"><ele>200.0</ele><time>2026-03-28T10:38:31Z</time></trkpt><trkpt lat="46.24197464143523" lon="9.428283445273118"><ele>200.0</ele><time>2026-03-28T10:38:32Z</time></trkpt><trkpt lat="46.242182565549015" lon="9.427974654580334"><ele>200.0</ele><time>2026-03-28T10:38:33Z</time></trkpt><trkpt lat="46.24270317397209" lon="9.428009497157698"><ele>200.0</ele><time>2026-03-28T10:38:34Z</time></trkpt><trkpt lat="46.24295651705406" lon="9.427773772000924"><ele>200.0</ele><time>2026-03-28T10:38:35Z</time></trkpt><trkpt lat="46.24320580005093" lon="9.42754689773303"><ele>200.0</ele><time>2026-03-28T10:38:36Z</time></trkpt><trkpt lat="46.24343438060114" lon="9.427325806503463"><ele>200.0</ele><time>2026-03-28T10:38:37Z</time></trkpt><trkpt lat="46.24365303959246" lon="9.42709893077587"><ele>200.0</ele><time>2026-03-28T10:38:38Z</time></trkpt><trkpt lat="46.243847559094235" lon="9.426876592087257"><ele>200.0</ele><time>2026-03-28T10:38:39Z</time></trkpt><trkpt lat="46.24403287898402" lon="9.426661797461122"><ele>200.0</ele><time>2026-03-28T10:38:40Z</time></trkpt><trkpt lat="46.24420233544795" lon="9.426462668475272"><ele>200.0</ele><time>2026-03-28T10:38:41Z</time></trkpt><trkpt lat="46.244363651445376" lon="9.426271076665781"><ele>200.0</ele><time>2026-03-28T10:38:42Z</time></trkpt><trkpt lat="46.24451697958669" lon="9.426089598934169"><ele>201.0</ele><time>2026-03-28T10:38:43Z</time></trkpt><trkpt lat="46.24466074671607" lon="9.425910835109368"><ele>202.0</ele><time>2026-03-28T10:38:44Z</time></trkpt><trkpt lat="46.244805641119974" lon="9.425740643452773"><ele>203.0</ele><time>2026-03-28T10:38:45Z</time></trkpt><trkpt lat="46.24494683739503" lon="9.425592035507838"><ele>202.66666666666669</ele><time>2026-03-28T10:38:46Z</time></trkpt><trkpt lat="46.24509235271442" lon="9.425445240960935"><ele>202.33333333333331</ele><time>2026-03-28T10:38:47Z</time></trkpt><trkpt lat="46.24525138371769" lon="9.425322417550772"><ele>202.0</ele><time>2026-03-28T10:38:48Z</time></trkpt><trkpt lat="46.24541166730082" lon="9.425203394554366"><ele>202.0</ele><time>2026-03-28T10:38:49Z</time></trkpt><trkpt lat="46.24557554061836" lon="9.42508831149898"><ele>202.0</ele><time>2026-03-28T10:38:50Z</time></trkpt><trkpt lat="46.24573980931549" lon="9.42496801681438"><ele>202.0</ele><time>2026-03-28T10:38:51Z</time></trkpt><trkpt lat="46.24589857242642" lon="9.424847186325174"><ele>202.0</ele><time>2026-03-28T10:38:52Z</time></trkpt><trkpt lat="46.246051481938984" lon="9.424739854617915"><ele>202.0</ele><time>2026-03-28T10:38:53Z</time></trkpt><trkpt lat="46.24619601801632" lon="9.424630207994484"><ele>202.0</ele><time>2026-03-28T10:38:54Z</time></trkpt><trkpt lat="46.246339816980615" lon="9.424519897311166"><ele>202.66666666666666</ele><time>2026-03-28T10:38:55Z</time></trkpt><trkpt lat="46.24647709452392" lon="9.424414004471553"><ele>203.33333333333331</ele><time>2026-03-28T10:38:56Z</time></trkpt><trkpt lat="46.24661308620999" lon="9.424312200332817"><ele>204.0</ele><time>2026-03-28T10:38:57Z</time></trkpt><trkpt lat="46.24675004320339" lon="9.424202168934453"><ele>204.0</ele><time>2026-03-28T10:38:58Z</time></trkpt><trkpt lat="46.24688993104238" lon="9.424094633982723"><ele>204.0</ele><time>2026-03-28T10:38:59Z</time></trkpt><trkpt lat="46.24703002691655" lon="9.423987170332714"><ele>204.0</ele><time>2026-03-28T10:39:00Z</time></trkpt><trkpt lat="46.24716874596671" lon="9.423876160724971"><ele>204.66666666666669</ele><time>2026-03-28T10:39:01Z</time></trkpt><trkpt lat="46.247310387456665" lon="9.42377064210336"><ele>205.33333333333334</ele><time>2026-03-28T10:39:02Z</time></trkpt><trkpt lat="46.247454121557446" lon="9.423668790497375"><ele>206.0</ele><time>2026-03-28T10:39:03Z</time></trkpt><trkpt lat="46.24760475218807" lon="9.42358006957841"><ele>206.0</ele><time>2026-03-28T10:39:04Z</time></trkpt><trkpt lat="46.24774384183991" lon="9.423525680368058"><ele>206.0</ele><time>2026-03-28T10:39:05Z</time></trkpt><trkpt lat="46.24785371441002" lon="9.423517010982582"><ele>206.0</ele><time>2026-03-28T10:39:06Z</time></trkpt><trkpt lat="46.24793721359721" lon="9.423556512356566"><ele>206.0</ele><time>2026-03-28T10:39:07Z</time></trkpt><trkpt lat="46.24801939827676" lon="9.423609914745429"><ele>206.0</ele><time>2026-03-28T10:39:08Z</time></trkpt><trkpt lat="46.248109381725236" lon="9.423640813131566"><ele>206.0</ele><time>2026-03-28T10:39:09Z</time></trkpt><trkpt lat="46.24819874979215" lon="9.423625996903043"><ele>206.0</ele><time>2026-03-28T10:39:10Z</time></trkpt><trkpt lat="46.248280635370264" lon="9.4235640894609"><ele>206.0</ele><time>2026-03-28T10:39:11Z</time></trkpt><trkpt lat="46.24837031171235" lon="9.42349030453217"><ele>206.0</ele><time>2026-03-28T10:39:12Z</time></trkpt><trkpt lat="46.24848323042127" lon="9.423455810326626"><ele>206.0</ele><time>2026-03-28T10:39:13Z</time></trkpt><trkpt lat="46.24861243084697" lon="9.423460991323875"><ele>206.0</ele><time>2026-03-28T10:39:14Z</time></trkpt><trkpt lat="46.24877751597888" lon="9.423499483605942"><ele>206.0</ele><time>2026-03-28T10:39:15Z</time></trkpt><trkpt lat="46.24896700150884" lon="9.423562035461352"><ele>206.0</ele><time>2026-03-28T10:39:16Z</time></trkpt><trkpt lat="46.24919665371898" lon="9.423644419074666"><ele>206.5</ele><time>2026-03-28T10:39:17Z</time></trkpt><trkpt lat="46.24945012828664" lon="9.423730493077898"><ele>207.0</ele><time>2026-03-28T10:39:18Z</time></trkpt><trkpt lat="46.249713577663115" lon="9.423816885552357"><ele>208.0</ele><time>2026-03-28T10:39:19Z</time></trkpt><trkpt lat="46.24996442746487" lon="9.423895514525924"><ele>209.0</ele><time>2026-03-28T10:39:20Z</time></trkpt><trkpt lat="46.250198836871796" lon="9.423960652457268"><ele>209.0</ele><time>2026-03-28T10:39:21Z</time></trkpt><trkpt lat="46.25042095797114" lon="9.424020822754304"><ele>209.0</ele><time>2026-03-28T10:39:22Z</time></trkpt><trkpt lat="46.25062987778804" lon="9.424081635169363"><ele>209.0</ele><time>2026-03-28T10:39:23Z</time></trkpt><trkpt lat="46.250829424593846" lon="9.424138535304367"><ele>209.33333333333334</ele><time>2026-03-28T10:39:24Z</time></trkpt><trkpt lat="46.251003663930945" lon="9.42419126488873"><ele>209.66666666666669</ele><time>2026-03-28T10:39:25Z</time></trkpt><trkpt lat="46.251150526470745" lon="9.424235262321375"><ele>210.0</ele><time>2026-03-28T10:39:26Z</time></trkpt><trkpt lat="46.251289450061705" lon="9.42427505866591"><ele>210.0</ele><time>2026-03-28T10:39:27Z</time></trkpt><trkpt lat="46.25142273395008" lon="9.424312155490739"><ele>210.0</ele><time>2026-03-28T10:39:28Z</time></trkpt><trkpt lat="46.25155789783189" lon="9.42435167942048"><ele>210.0</ele><time>2026-03-28T10:39:29Z</time></trkpt><trkpt lat="46.25169812393724" lon="9.424390844192722"><ele>210.0</ele><time>2026-03-28T10:39:30Z</time></trkpt><trkpt lat="46.251844111139214" lon="9.42442366603616"><ele>210.0</ele><time>2026-03-28T10:39:31Z</time></trkpt><trkpt lat="46.25198616704391" lon="9.424438961877478"><ele>210.0</ele><time>2026-03-28T10:39:32Z</time></trkpt><trkpt lat="46.25212448173617" lon="9.424409885755924"><ele>210.0</ele><time>2026-03-28T10:39:33Z</time></trkpt><trkpt lat="46.25226169305691" lon="9.42435914994263"><ele>210.0</ele><time>2026-03-28T10:39:34Z</time></trkpt><trkpt lat="46.25239729492695" lon="9.424290330093646"><ele>209.66666666666669</ele><time>2026-03-28T10:39:35Z</time></trkpt><trkpt lat="46.25253291066778" lon="9.424203607303486"><ele>209.33333333333334</ele><time>2026-03-28T10:39:36Z</time></trkpt><trkpt lat="46.25267387923498" lon="9.424058801067574"><ele>209.0</ele><time>2026-03-28T10:39:37Z</time></trkpt><trkpt lat="46.25284379993489" lon="9.42391011600919"><ele>209.0</ele><time>2026-03-28T10:39:38Z</time></trkpt><trkpt lat="46.253017577965366" lon="9.42373122792334"><ele>209.0</ele><time>2026-03-28T10:39:39Z</time></trkpt><trkpt lat="46.2531832781225" lon="9.423560655252137"><ele>209.0</ele><time>2026-03-28T10:39:40Z</time></trkpt><trkpt lat="46.25332889673486" lon="9.42339477306273"><ele>209.0</ele><time>2026-03-28T10:39:41Z</time></trkpt><trkpt lat="46.253467937842316" lon="9.42325074176663"><ele>209.0</ele><time>2026-03-28T10:39:42Z</time></trkpt><trkpt lat="46.25359178834728" lon="9.423119833918243"><ele>209.0</ele><time>2026-03-28T10:39:43Z</time></trkpt><trkpt lat="46.25370809859869" lon="9.423002782306538"><ele>208.75</ele><time>2026-03-28T10:39:44Z</time></trkpt><trkpt lat="46.253818311433264" lon="9.422896788335807"><ele>208.5</ele><time>2026-03-28T10:39:45Z</time></trkpt><trkpt lat="46.25392969787917" lon="9.422799563617938"><ele>208.25</ele><time>2026-03-28T10:39:46Z</time></trkpt><trkpt lat="46.25406381706021" lon="9.422696330863072"><ele>208.0</ele><time>2026-03-28T10:39:47Z</time></trkpt><trkpt lat="46.254207390344014" lon="9.42260130087867"><ele>208.75</ele><time>2026-03-28T10:39:48Z</time></trkpt><trkpt lat="46.254331061706836" lon="9.422498412203243"><ele>209.5</ele><time>2026-03-28T10:39:49Z</time></trkpt><trkpt lat="46.25445602498613" lon="9.422432181938513"><ele>210.25</ele><time>2026-03-28T10:39:50Z</time></trkpt><trkpt lat="46.25457644389653" lon="9.422364305504555"><ele>211.0</ele><time>2026-03-28T10:39:51Z</time></trkpt><trkpt lat="46.254705431571324" lon="9.422311264439486"><ele>211.33333333333331</ele><time>2026-03-28T10:39:52Z</time></trkpt><trkpt lat="46.254854338435976" lon="9.42223262809492"><ele>211.66666666666669</ele><time>2026-03-28T10:39:53.001Z</time></trkpt><trkpt lat="46.255044771268736" lon="9.422164242764984"><ele>212.0</ele><time>2026-03-28T10:39:54.001Z</time></trkpt><trkpt lat="46.2552632919223" lon="9.422065280845151"><ele>210.5</ele><time>2026-03-28T10:39:55.001Z</time></trkpt><trkpt lat="46.25550606289761" lon="9.421955670749968"><ele>209.0</ele><time>2026-03-28T10:39:56.001Z</time></trkpt><trkpt lat="46.255747566584176" lon="9.421823385220934"><ele>209.0</ele><time>2026-03-28T10:39:57.001Z</time></trkpt><trkpt lat="46.25599057806427" lon="9.421725555887825"><ele>209.0</ele><time>2026-03-28T10:39:58.001Z</time></trkpt><trkpt lat="46.25623096715127" lon="9.421624751562348"><ele>211.0</ele><time>2026-03-28T10:39:59.001Z</time></trkpt><trkpt lat="46.25646722613586" lon="9.421514073009098"><ele>213.0</ele><time>2026-03-28T10:40:00.001Z</time></trkpt><trkpt lat="46.25668709652719" lon="9.421388677439934"><ele>209.0</ele><time>2026-03-28T10:40:01.001Z</time></trkpt><trkpt lat="46.256887766984406" lon="9.421228951004377"><ele>205.0</ele><time>2026-03-28T10:40:02.001Z</time></trkpt><trkpt lat="46.257066407616655" lon="9.421025892650155"><ele>205.0</ele><time>2026-03-28T10:40:03.001Z</time></trkpt><trkpt lat="46.25723310244289" lon="9.420780550857264"><ele>205.0</ele><time>2026-03-28T10:40:04.001Z</time></trkpt><trkpt lat="46.25740335994607" lon="9.420473893850078"><ele>209.0</ele><time>2026-03-28T10:40:05.001Z</time></trkpt><trkpt lat="46.25760522938497" lon="9.420137410410174"><ele>213.0</ele><time>2026-03-28T10:40:06.001Z</time></trkpt><trkpt lat="46.257827754352576" lon="9.419760418964776"><ele>210.0</ele><time>2026-03-28T10:40:07.001Z</time></trkpt><trkpt lat="46.25806237066408" lon="9.419364491000032"><ele>207.0</ele><time>2026-03-28T10:40:08.001Z</time></trkpt><trkpt lat="46.2583056513277" lon="9.418954613025896"><ele>206.5</ele><time>2026-03-28T10:40:09.001Z</time></trkpt><trkpt lat="46.25855317403476" lon="9.418507695286689"><ele>206.0</ele><time>2026-03-28T10:40:10.001Z</time></trkpt><trkpt lat="46.25881317682761" lon="9.418071995104446"><ele>207.0</ele><time>2026-03-28T10:40:11.001Z</time></trkpt><trkpt lat="46.2590764318365" lon="9.417623351010446"><ele>208.0</ele><time>2026-03-28T10:40:12.001Z</time></trkpt><trkpt lat="46.25934464616311" lon="9.417172189795826"><ele>207.5</ele><time>2026-03-28T10:40:13.001Z</time></trkpt><trkpt lat="46.25960924073154" lon="9.41671782590602"><ele>207.0</ele><time>2026-03-28T10:40:14.001Z</time></trkpt><trkpt lat="46.25986148809026" lon="9.41633679913605"><ele>207.5</ele><time>2026-03-28T10:40:15.001Z</time></trkpt><trkpt lat="46.260079456245194" lon="9.41597189552453"><ele>208.0</ele><time>2026-03-28T10:40:16Z</time></trkpt><trkpt lat="46.260287137743106" lon="9.415624213078335"><ele>207.0</ele><time>2026-03-28T10:40:17Z</time></trkpt><trkpt lat="46.26047814092776" lon="9.41530134438327"><ele>206.0</ele><time>2026-03-28T10:40:18Z</time></trkpt><trkpt lat="46.26065809326121" lon="9.414996340234067"><ele>206.0</ele><time>2026-03-28T10:40:19Z</time></trkpt><trkpt lat="46.26083180417041" lon="9.414706062656903"><ele>206.0</ele><time>2026-03-28T10:40:20Z</time></trkpt><trkpt lat="46.260995250360345" lon="9.414432938486547"><ele>206.66666666666669</ele><time>2026-03-28T10:40:21Z</time></trkpt><trkpt lat="46.26115520077127" lon="9.414165656548652"><ele>207.33333333333331</ele><time>2026-03-28T10:40:22Z</time></trkpt><trkpt lat="46.26128872620215" lon="9.413942531556504"><ele>208.0</ele><time>2026-03-28T10:40:23Z</time></trkpt><trkpt lat="46.26137934823987" lon="9.413699509793636"><ele>208.0</ele><time>2026-03-28T10:40:24Z</time></trkpt><trkpt lat="46.261463332602915" lon="9.413477648208572"><ele>208.0</ele><time>2026-03-28T10:40:25Z</time></trkpt><trkpt lat="46.26152474665012" lon="9.41322378196546"><ele>208.0</ele><time>2026-03-28T10:40:26Z</time></trkpt><trkpt lat="46.26153511941626" lon="9.412961482433827"><ele>208.0</ele><time>2026-03-28T10:40:27Z</time></trkpt><trkpt lat="46.26155953178329" lon="9.412691251578368"><ele>208.0</ele><time>2026-03-28T10:40:28Z</time></trkpt><trkpt lat="46.26161816818553" lon="9.412438001064878"><ele>208.0</ele><time>2026-03-28T10:40:29Z</time></trkpt><trkpt lat="46.26163194775231" lon="9.412131906138404"><ele>207.66666666666666</ele><time>2026-03-28T10:40:30Z</time></trkpt><trkpt lat="46.261676156240846" lon="9.411866690513028"><ele>207.33333333333331</ele><time>2026-03-28T10:40:31Z</time></trkpt><trkpt lat="46.2617383327303" lon="9.411616773559805"><ele>207.0</ele><time>2026-03-28T10:40:32Z</time></trkpt><trkpt lat="46.26183199712467" lon="9.4114001292834"><ele>207.33333333333331</ele><time>2026-03-28T10:40:33Z</time></trkpt><trkpt lat="46.26195401153086" lon="9.411187281096852"><ele>207.66666666666666</ele><time>2026-03-28T10:40:34Z</time></trkpt><trkpt lat="46.26209312462675" lon="9.410960754446023"><ele>208.0</ele><time>2026-03-28T10:40:35Z</time></trkpt><trkpt lat="46.26224510796438" lon="9.410714396054109"><ele>208.0</ele><time>2026-03-28T10:40:36Z</time></trkpt><trkpt lat="46.26240448161787" lon="9.410462061744083"><ele>208.0</ele><time>2026-03-28T10:40:37Z</time></trkpt><trkpt lat="46.26256438832617" lon="9.410206738332642"><ele>208.0</ele><time>2026-03-28T10:40:38Z</time></trkpt><trkpt lat="46.2627189504247" lon="9.409947039310564"><ele>208.0</ele><time>2026-03-28T10:40:39Z</time></trkpt><trkpt lat="46.26287551548846" lon="9.409691610731038"><ele>207.5</ele><time>2026-03-28T10:40:40Z</time></trkpt><trkpt lat="46.263024274626694" lon="9.409435944014353"><ele>207.0</ele><time>2026-03-28T10:40:41Z</time></trkpt><trkpt lat="46.26316898380471" lon="9.409190142669726"><ele>207.66666666666669</ele><time>2026-03-28T10:40:42Z</time></trkpt><trkpt lat="46.26331494079544" lon="9.408971326021993"><ele>208.33333333333334</ele><time>2026-03-28T10:40:43Z</time></trkpt><trkpt lat="46.26346914596895" lon="9.408775613708944"><ele>209.0</ele><time>2026-03-28T10:40:44Z</time></trkpt><trkpt lat="46.26363932953314" lon="9.40860883105298"><ele>209.0</ele><time>2026-03-28T10:40:45Z</time></trkpt><trkpt lat="46.26382316484757" lon="9.408470064787736"><ele>209.0</ele><time>2026-03-28T10:40:46Z</time></trkpt><trkpt lat="46.264025233444556" lon="9.408355004741447"><ele>209.0</ele><time>2026-03-28T10:40:47Z</time></trkpt><trkpt lat="46.26424288635115" lon="9.408245134397905"><ele>209.5</ele><time>2026-03-28T10:40:48Z</time></trkpt><trkpt lat="46.26446782177796" lon="9.40813980980952"><ele>210.0</ele><time>2026-03-28T10:40:49Z</time></trkpt><trkpt lat="46.26468941045718" lon="9.408020862476127"><ele>210.0</ele><time>2026-03-28T10:40:50Z</time></trkpt><trkpt lat="46.2649103051717" lon="9.407896068720483"><ele>210.0</ele><time>2026-03-28T10:40:51Z</time></trkpt><trkpt lat="46.26512610237945" lon="9.40777154583879"><ele>210.0</ele><time>2026-03-28T10:40:52Z</time></trkpt><trkpt lat="46.26533965092862" lon="9.407642807740205"><ele>210.0</ele><time>2026-03-28T10:40:53Z</time></trkpt><trkpt lat="46.26554305036507" lon="9.407514841358909"><ele>211.33333333333331</ele><time>2026-03-28T10:40:54Z</time></trkpt><trkpt lat="46.26574316695915" lon="9.407372403501272"><ele>212.66666666666666</ele><time>2026-03-28T10:40:55Z</time></trkpt><trkpt lat="46.2659355293289" lon="9.407229344771489"><ele>214.0</ele><time>2026-03-28T10:40:56Z</time></trkpt><trkpt lat="46.26611674802429" lon="9.407073609063247"><ele>214.0</ele><time>2026-03-28T10:40:57Z</time></trkpt><trkpt lat="46.26629392566786" lon="9.406909793243964"><ele>214.0</ele><time>2026-03-28T10:40:58Z</time></trkpt><trkpt lat="46.2664670262155" lon="9.406746567091382"><ele>214.0</ele><time>2026-03-28T10:40:59Z</time></trkpt><trkpt lat="46.26663466297634" lon="9.406575378250501"><ele>215.0</ele><time>2026-03-28T10:41:00Z</time></trkpt><trkpt lat="46.26678819132044" lon="9.406398625044435"><ele>216.0</ele><time>2026-03-28T10:41:01Z</time></trkpt><trkpt lat="46.26693690194658" lon="9.406212385452031"><ele>217.0</ele><time>2026-03-28T10:41:02Z</time></trkpt><trkpt lat="46.26708765135667" lon="9.40601190467311"><ele>217.0</ele><time>2026-03-28T10:41:03Z</time></trkpt><trkpt lat="46.26724245564201" lon="9.405782788192614"><ele>217.0</ele><time>2026-03-28T10:41:04Z</time></trkpt><trkpt lat="46.26739982108474" lon="9.405520737062444"><ele>217.0</ele><time>2026-03-28T10:41:05Z</time></trkpt><trkpt lat="46.26757230344328" lon="9.405228327314585"><ele>217.0</ele><time>2026-03-28T10:41:06Z</time></trkpt><trkpt lat="46.267771151759234" lon="9.404910663524761"><ele>217.5</ele><time>2026-03-28T10:41:07Z</time></trkpt><trkpt lat="46.26796659128423" lon="9.40459170823622"><ele>218.0</ele><time>2026-03-28T10:41:08Z</time></trkpt><trkpt lat="46.26816441311354" lon="9.404264931533554"><ele>218.0</ele><time>2026-03-28T10:41:09Z</time></trkpt><trkpt lat="46.26836637904679" lon="9.403959601241871"><ele>218.0</ele><time>2026-03-28T10:41:10Z</time></trkpt><trkpt lat="46.268562783992735" lon="9.40366232902129"><ele>217.0</ele><time>2026-03-28T10:41:11Z</time></trkpt><trkpt lat="46.26875363283051" lon="9.403358160537305"><ele>216.0</ele><time>2026-03-28T10:41:12Z</time></trkpt><trkpt lat="46.26893122031473" lon="9.403043835438861"><ele>216.5</ele><time>2026-03-28T10:41:13Z</time></trkpt><trkpt lat="46.269083568367954" lon="9.402705181079511"><ele>217.0</ele><time>2026-03-28T10:41:14Z</time></trkpt><trkpt lat="46.26921816090901" lon="9.40236375854501"><ele>217.0</ele><time>2026-03-28T10:41:15Z</time></trkpt><trkpt lat="46.26951186207278" lon="9.402174088036116"><ele>217.0</ele><time>2026-03-28T10:41:16Z</time></trkpt><trkpt lat="46.26968322603876" lon="9.401885793924597"><ele>218.5</ele><time>2026-03-28T10:41:17Z</time></trkpt><trkpt lat="46.26984954378103" lon="9.401606079908662"><ele>220.0</ele><time>2026-03-28T10:41:18Z</time></trkpt><trkpt lat="46.2700124476674" lon="9.401360487058149"><ele>219.66666666666666</ele><time>2026-03-28T10:41:19Z</time></trkpt><trkpt lat="46.27017180216737" lon="9.401143972507166"><ele>219.33333333333331</ele><time>2026-03-28T10:41:20Z</time></trkpt><trkpt lat="46.27031292347852" lon="9.400975716061483"><ele>219.0</ele><time>2026-03-28T10:41:21Z</time></trkpt><trkpt lat="46.27044522339026" lon="9.400826551441975"><ele>219.0</ele><time>2026-03-28T10:41:22Z</time></trkpt><trkpt lat="46.2705690093733" lon="9.400691591254466"><ele>219.0</ele><time>2026-03-28T10:41:23Z</time></trkpt><trkpt lat="46.27068876263681" lon="9.40058137341949"><ele>219.0</ele><time>2026-03-28T10:41:24Z</time></trkpt><trkpt lat="46.27079424646667" lon="9.400475571327656"><ele>219.0</ele><time>2026-03-28T10:41:25Z</time></trkpt><trkpt lat="46.2708905865449" lon="9.400366440551945"><ele>219.0</ele><time>2026-03-28T10:41:26Z</time></trkpt><trkpt lat="46.27099545717278" lon="9.400245298362925"><ele>219.0</ele><time>2026-03-28T10:41:27Z</time></trkpt><trkpt lat="46.2710931306355" lon="9.400143471851642"><ele>219.0</ele><time>2026-03-28T10:41:28Z</time></trkpt><trkpt lat="46.271183078604686" lon="9.40005153824654"><ele>219.0</ele><time>2026-03-28T10:41:29Z</time></trkpt><trkpt lat="46.271271029611725" lon="9.399970756076517"><ele>219.0</ele><time>2026-03-28T10:41:30Z</time></trkpt><trkpt lat="46.27134934167514" lon="9.399901675994839"><ele>219.0</ele><time>2026-03-28T10:41:31Z</time></trkpt><trkpt lat="46.27141643647573" lon="9.39983450956183"><ele>219.0</ele><time>2026-03-28T10:41:32Z</time></trkpt><trkpt lat="46.27147187633723" lon="9.399762478219579"><ele>219.0</ele><time>2026-03-28T10:41:33Z</time></trkpt><trkpt lat="46.27151938807359" lon="9.399685093189289"><ele>219.0</ele><time>2026-03-28T10:41:34Z</time></trkpt><trkpt lat="46.27155804108825" lon="9.399583571187021"><ele>219.0</ele><time>2026-03-28T10:41:35Z</time></trkpt><trkpt lat="46.271586043786336" lon="9.39946961129418"><ele>219.0</ele><time>2026-03-28T10:41:36Z</time></trkpt><trkpt lat="46.271593214107206" lon="9.399308305207613"><ele>219.0</ele><time>2026-03-28T10:41:37Z</time></trkpt><trkpt lat="46.27161812350286" lon="9.399097012829712"><ele>219.0</ele><time>2026-03-28T10:41:38Z</time></trkpt><trkpt lat="46.271627515448074" lon="9.398936491236011"><ele>219.0</ele><time>2026-03-28T10:41:39Z</time></trkpt><trkpt lat="46.27164102715799" lon="9.398767040550208"><ele>219.0</ele><time>2026-03-28T10:41:40Z</time></trkpt><trkpt lat="46.27167024680089" lon="9.3986346756581"><ele>218.99999999999997</ele><time>2026-03-28T10:41:41Z</time></trkpt><trkpt lat="46.271736748913064" lon="9.398494080735697"><ele>218.99999999999997</ele><time>2026-03-28T10:41:42Z</time></trkpt><trkpt lat="46.27180907908967" lon="9.398370069826514"><ele>219.0</ele><time>2026-03-28T10:41:43Z</time></trkpt><trkpt lat="46.271893951366" lon="9.398254184421242"><ele>219.0</ele><time>2026-03-28T10:41:44Z</time></trkpt><trkpt lat="46.27199649812952" lon="9.398150220343295"><ele>219.0</ele><time>2026-03-28T10:41:45Z</time></trkpt><trkpt lat="46.27210712935928" lon="9.398073591872228"><ele>218.99999999999997</ele><time>2026-03-28T10:41:46Z</time></trkpt><trkpt lat="46.27219868164998" lon="9.398052506737022"><ele>218.99999999999997</ele><time>2026-03-28T10:41:47Z</time></trkpt><trkpt lat="46.272305243709994" lon="9.397995792989475"><ele>219.0</ele><time>2026-03-28T10:41:48Z</time></trkpt><trkpt lat="46.27241263487429" lon="9.39797456121977"><ele>219.0</ele><time>2026-03-28T10:41:49Z</time></trkpt><trkpt lat="46.272515152757194" lon="9.397928640428121"><ele>219.0</ele><time>2026-03-28T10:41:50Z</time></trkpt><trkpt lat="46.272640086495514" lon="9.397905377291728"><ele>219.0</ele><time>2026-03-28T10:41:51Z</time></trkpt><trkpt lat="46.272788723032804" lon="9.397856308084677"><ele>219.0</ele><time>2026-03-28T10:41:52Z</time></trkpt><trkpt lat="46.27294895488999" lon="9.397803614923154"><ele>219.0</ele><time>2026-03-28T10:41:53Z</time></trkpt><trkpt lat="46.273126793307355" lon="9.397745408804289"><ele>220.0</ele><time>2026-03-28T10:41:54Z</time></trkpt><trkpt lat="46.27330402536115" lon="9.39765957920761"><ele>221.0</ele><time>2026-03-28T10:41:55Z</time></trkpt><trkpt lat="46.273486968624866" lon="9.397602451560521"><ele>222.0</ele><time>2026-03-28T10:41:56Z</time></trkpt><trkpt lat="46.27366904598485" lon="9.397554812412508"><ele>222.0</ele><time>2026-03-28T10:41:57Z</time></trkpt><trkpt lat="46.27384213940273" lon="9.397495989738568"><ele>222.0</ele><time>2026-03-28T10:41:58Z</time></trkpt><trkpt lat="46.27400626875038" lon="9.397444484175027"><ele>222.0</ele><time>2026-03-28T10:41:59Z</time></trkpt><trkpt lat="46.27414917727923" lon="9.397400424775482"><ele>222.66666666666666</ele><time>2026-03-28T10:42:00Z</time></trkpt><trkpt lat="46.27426379250692" lon="9.39738480954229"><ele>223.33333333333331</ele><time>2026-03-28T10:42:01Z</time></trkpt><trkpt lat="46.27435474631233" lon="9.397379131408583"><ele>224.0</ele><time>2026-03-28T10:42:02Z</time></trkpt><trkpt lat="46.274439051850216" lon="9.397362834411453"><ele>224.66666666666666</ele><time>2026-03-28T10:42:03Z</time></trkpt><trkpt lat="46.274509880946326" lon="9.397340975266738"><ele>225.33333333333331</ele><time>2026-03-28T10:42:04Z</time></trkpt><trkpt lat="46.27457901141677" lon="9.397332543071473"><ele>226.0</ele><time>2026-03-28T10:42:05Z</time></trkpt><trkpt lat="46.27466364311817" lon="9.397317389954523"><ele>225.75</ele><time>2026-03-28T10:42:06Z</time></trkpt><trkpt lat="46.274779304063514" lon="9.397285321469903"><ele>225.5</ele><time>2026-03-28T10:42:07Z</time></trkpt><trkpt lat="46.274924762523874" lon="9.397255913035732"><ele>225.25</ele><time>2026-03-28T10:42:08Z</time></trkpt><trkpt lat="46.275083543678" lon="9.397225476611483"><ele>225.0</ele><time>2026-03-28T10:42:09Z</time></trkpt><trkpt lat="46.27525894785736" lon="9.39719138645853"><ele>225.0</ele><time>2026-03-28T10:42:10Z</time></trkpt><trkpt lat="46.27543835922115" lon="9.39714944496218"><ele>225.0</ele><time>2026-03-28T10:42:11Z</time></trkpt><trkpt lat="46.27562402805198" lon="9.397102926661166"><ele>225.0</ele><time>2026-03-28T10:42:12Z</time></trkpt><trkpt lat="46.275789497543656" lon="9.397065536611208"><ele>225.0</ele><time>2026-03-28T10:42:13Z</time></trkpt><trkpt lat="46.27593632936984" lon="9.397040776382545"><ele>225.0</ele><time>2026-03-28T10:42:14Z</time></trkpt><trkpt lat="46.27607054312789" lon="9.397020438111063"><ele>225.0</ele><time>2026-03-28T10:42:15Z</time></trkpt><trkpt lat="46.27619449403421" lon="9.396996022816008"><ele>225.0</ele><time>2026-03-28T10:42:16Z</time></trkpt><trkpt lat="46.276326572148996" lon="9.396978076763888"><ele>225.5</ele><time>2026-03-28T10:42:17Z</time></trkpt><trkpt lat="46.276463058781175" lon="9.396955327237183"><ele>226.0</ele><time>2026-03-28T10:42:18Z</time></trkpt><trkpt lat="46.276597694953516" lon="9.396943741006947"><ele>226.5</ele><time>2026-03-28T10:42:19Z</time></trkpt><trkpt lat="46.27672095961884" lon="9.396936598425768"><ele>227.0</ele><time>2026-03-28T10:42:20Z</time></trkpt><trkpt lat="46.276841376566395" lon="9.396929653111902"><ele>227.0</ele><time>2026-03-28T10:42:21Z</time></trkpt><trkpt lat="46.2769599721848" lon="9.396923210400471"><ele>227.0</ele><time>2026-03-28T10:42:22Z</time></trkpt><trkpt lat="46.277071471167474" lon="9.396911034564852"><ele>227.0</ele><time>2026-03-28T10:42:23Z</time></trkpt><trkpt lat="46.2771790958304" lon="9.39690364841189"><ele>227.0</ele><time>2026-03-28T10:42:24Z</time></trkpt><trkpt lat="46.27729990686224" lon="9.396889131235204"><ele>226.66666666666669</ele><time>2026-03-28T10:42:25Z</time></trkpt><trkpt lat="46.27745063767885" lon="9.396889454394636"><ele>226.33333333333331</ele><time>2026-03-28T10:42:26Z</time></trkpt><trkpt lat="46.277617230120434" lon="9.39686181699561"><ele>226.0</ele><time>2026-03-28T10:42:27Z</time></trkpt><trkpt lat="46.27777479110311" lon="9.396852117666274"><ele>226.0</ele><time>2026-03-28T10:42:28Z</time></trkpt><trkpt lat="46.27791587228441" lon="9.396840911679272"><ele>226.0</ele><time>2026-03-28T10:42:29Z</time></trkpt><trkpt lat="46.27803906865163" lon="9.396811770013503"><ele>226.0</ele><time>2026-03-28T10:42:30Z</time></trkpt><trkpt lat="46.27813823489993" lon="9.396765678568372"><ele>226.0</ele><time>2026-03-28T10:42:31Z</time></trkpt><trkpt lat="46.278223471318334" lon="9.396713639104545"><ele>226.20000000000002</ele><time>2026-03-28T10:42:32Z</time></trkpt><trkpt lat="46.27829953701255" lon="9.396677969862907"><ele>226.40000000000003</ele><time>2026-03-28T10:42:33Z</time></trkpt><trkpt lat="46.278385038351935" lon="9.39663338108947"><ele>226.6</ele><time>2026-03-28T10:42:34Z</time></trkpt><trkpt lat="46.27848089397839" lon="9.396577756194663"><ele>226.8</ele><time>2026-03-28T10:42:35Z</time></trkpt><trkpt lat="46.27859012750851" lon="9.396510221835888"><ele>227.0</ele><time>2026-03-28T10:42:36Z</time></trkpt><trkpt lat="46.27870714790613" lon="9.396424829093954"><ele>227.0</ele><time>2026-03-28T10:42:37Z</time></trkpt><trkpt lat="46.278837172978236" lon="9.39633405932366"><ele>227.0</ele><time>2026-03-28T10:42:38Z</time></trkpt><trkpt lat="46.27897212668795" lon="9.396254279783031"><ele>227.0</ele><time>2026-03-28T10:42:39Z</time></trkpt><trkpt lat="46.27909935723561" lon="9.396168213108831"><ele>227.0</ele><time>2026-03-28T10:42:40Z</time></trkpt><trkpt lat="46.279254248350306" lon="9.396085198071052"><ele>227.33333333333334</ele><time>2026-03-28T10:42:41Z</time></trkpt><trkpt lat="46.27941874359793" lon="9.395961460803012"><ele>227.66666666666669</ele><time>2026-03-28T10:42:42Z</time></trkpt><trkpt lat="46.279592637459096" lon="9.395871012680773"><ele>228.0</ele><time>2026-03-28T10:42:43Z</time></trkpt><trkpt lat="46.27976106812926" lon="9.39577612963057"><ele>228.0</ele><time>2026-03-28T10:42:44Z</time></trkpt><trkpt lat="46.279924240435285" lon="9.395669294478044"><ele>228.0</ele><time>2026-03-28T10:42:45Z</time></trkpt><trkpt lat="46.28008499946383" lon="9.3955645531889"><ele>228.0</ele><time>2026-03-28T10:42:46Z</time></trkpt><trkpt lat="46.28024373993792" lon="9.395457900630928"><ele>227.66666666666669</ele><time>2026-03-28T10:42:47Z</time></trkpt><trkpt lat="46.28040092422484" lon="9.395363799252515"><ele>227.33333333333334</ele><time>2026-03-28T10:42:48Z</time></trkpt><trkpt lat="46.280544982815684" lon="9.395277156648211"><ele>227.0</ele><time>2026-03-28T10:42:49Z</time></trkpt><trkpt lat="46.28067751265805" lon="9.395205357816362"><ele>228.33333333333334</ele><time>2026-03-28T10:42:50Z</time></trkpt><trkpt lat="46.28081312449018" lon="9.395110580226298"><ele>229.66666666666669</ele><time>2026-03-28T10:42:51Z</time></trkpt><trkpt lat="46.280963887657684" lon="9.395011771038527"><ele>231.0</ele><time>2026-03-28T10:42:52Z</time></trkpt><trkpt lat="46.2811297792348" lon="9.394907080555292"><ele>231.0</ele><time>2026-03-28T10:42:53Z</time></trkpt><trkpt lat="46.2812841381161" lon="9.394792914782496"><ele>231.0</ele><time>2026-03-28T10:42:54Z</time></trkpt><trkpt lat="46.2814484750414" lon="9.39470075783613"><ele>231.0</ele><time>2026-03-28T10:42:55Z</time></trkpt><trkpt lat="46.281627620507585" lon="9.394579571865691"><ele>231.0</ele><time>2026-03-28T10:42:56Z</time></trkpt><trkpt lat="46.281838585465756" lon="9.394438577729558"><ele>231.0</ele><time>2026-03-28T10:42:57Z</time></trkpt><trkpt lat="46.28205720551895" lon="9.394307368454527"><ele>231.0</ele><time>2026-03-28T10:42:58Z</time></trkpt><trkpt lat="46.28224323241007" lon="9.394197306694815"><ele>231.0</ele><time>2026-03-28T10:42:59Z</time></trkpt><trkpt lat="46.28241152723145" lon="9.394113270234262"><ele>231.0</ele><time>2026-03-28T10:43:00Z</time></trkpt><trkpt lat="46.28256093146219" lon="9.394015496037758"><ele>231.0</ele><time>2026-03-28T10:43:01Z</time></trkpt><trkpt lat="46.28269924154277" lon="9.393912737566225"><ele>231.0</ele><time>2026-03-28T10:43:02Z</time></trkpt><trkpt lat="46.28283313307171" lon="9.393837753791821"><ele>231.0</ele><time>2026-03-28T10:43:03Z</time></trkpt><trkpt lat="46.28296584585153" lon="9.393769410336207"><ele>231.0</ele><time>2026-03-28T10:43:04Z</time></trkpt><trkpt lat="46.283107668107775" lon="9.393683366612605"><ele>231.66666666666669</ele><time>2026-03-28T10:43:05Z</time></trkpt><trkpt lat="46.28326955761347" lon="9.393619069567457"><ele>232.33333333333334</ele><time>2026-03-28T10:43:06Z</time></trkpt><trkpt lat="46.28345731116962" lon="9.393535017504346"><ele>233.0</ele><time>2026-03-28T10:43:07Z</time></trkpt><trkpt lat="46.28365970665605" lon="9.393426132147725"><ele>233.0</ele><time>2026-03-28T10:43:08Z</time></trkpt><trkpt lat="46.283874214502944" lon="9.393344375113832"><ele>233.0</ele><time>2026-03-28T10:43:09Z</time></trkpt><trkpt lat="46.28407634549183" lon="9.393254448956462"><ele>233.0</ele><time>2026-03-28T10:43:10Z</time></trkpt><trkpt lat="46.28426791623793" lon="9.393158874862667"><ele>232.66666666666669</ele><time>2026-03-28T10:43:11Z</time></trkpt><trkpt lat="46.284455074292325" lon="9.393060212053895"><ele>232.33333333333331</ele><time>2026-03-28T10:43:12Z</time></trkpt><trkpt lat="46.284643626266536" lon="9.392940146774192"><ele>232.0</ele><time>2026-03-28T10:43:13Z</time></trkpt><trkpt lat="46.28482707618551" lon="9.392822320724354"><ele>232.66666666666666</ele><time>2026-03-28T10:43:14Z</time></trkpt><trkpt lat="46.28499912910187" lon="9.392712497679828"><ele>233.33333333333331</ele><time>2026-03-28T10:43:15Z</time></trkpt><trkpt lat="46.28515186736041" lon="9.39260714225902"><ele>234.0</ele><time>2026-03-28T10:43:16Z</time></trkpt><trkpt lat="46.285291626929514" lon="9.392517342836602"><ele>234.0</ele><time>2026-03-28T10:43:17Z</time></trkpt><trkpt lat="46.28540694273047" lon="9.392446681778479"><ele>233.99999999999997</ele><time>2026-03-28T10:43:18Z</time></trkpt><trkpt lat="46.28547863247493" lon="9.39239734378169"><ele>233.99999999999997</ele><time>2026-03-28T10:43:19Z</time></trkpt><trkpt lat="46.2855335673828" lon="9.392351195875385"><ele>234.0</ele><time>2026-03-28T10:43:20Z</time></trkpt><trkpt lat="46.2856430944813" lon="9.392278610210353"><ele>234.0</ele><time>2026-03-28T10:43:22Z</time></trkpt><trkpt lat="46.28571556334176" lon="9.392230836671862"><ele>235.0</ele><time>2026-03-28T10:43:23Z</time></trkpt><trkpt lat="46.285808317040626" lon="9.39217020149441"><ele>236.0</ele><time>2026-03-28T10:43:24Z</time></trkpt><trkpt lat="46.285914923821814" lon="9.392107722161816"><ele>237.0</ele><time>2026-03-28T10:43:25Z</time></trkpt><trkpt lat="46.28601978916556" lon="9.392032903682965"><ele>238.0</ele><time>2026-03-28T10:43:26Z</time></trkpt><trkpt lat="46.286153043963495" lon="9.391963282508481"><ele>238.0</ele><time>2026-03-28T10:43:27Z</time></trkpt><trkpt lat="46.28629250320391" lon="9.391890087929887"><ele>238.0</ele><time>2026-03-28T10:43:28Z</time></trkpt><trkpt lat="46.28643592408856" lon="9.391801077473682"><ele>238.0</ele><time>2026-03-28T10:43:29Z</time></trkpt><trkpt lat="46.28658651141931" lon="9.39170182038131"><ele>238.33333333333331</ele><time>2026-03-28T10:43:30Z</time></trkpt><trkpt lat="46.28674669435708" lon="9.391600703276438"><ele>238.66666666666669</ele><time>2026-03-28T10:43:31Z</time></trkpt><trkpt lat="46.286916742250746" lon="9.39148902813153"><ele>239.0</ele><time>2026-03-28T10:43:32Z</time></trkpt><trkpt lat="46.28709983471689" lon="9.391362026430507"><ele>240.0</ele><time>2026-03-28T10:43:33Z</time></trkpt><trkpt lat="46.28728170457421" lon="9.391240605883153"><ele>241.0</ele><time>2026-03-28T10:43:34Z</time></trkpt><trkpt lat="46.28745376635562" lon="9.391122824382332"><ele>242.0</ele><time>2026-03-28T10:43:35Z</time></trkpt><trkpt lat="46.28760882301456" lon="9.391018855057414"><ele>242.0</ele><time>2026-03-28T10:43:36Z</time></trkpt><trkpt lat="46.28774732076982" lon="9.390923061016068"><ele>242.0</ele><time>2026-03-28T10:43:37Z</time></trkpt><trkpt lat="46.28787053965223" lon="9.3908264038683"><ele>242.0</ele><time>2026-03-28T10:43:37.999Z</time></trkpt><trkpt lat="46.287979935343614" lon="9.390749559326007"><ele>242.0</ele><time>2026-03-28T10:43:38.999Z</time></trkpt><trkpt lat="46.28807315383213" lon="9.390681682755774"><ele>242.00000000000003</ele><time>2026-03-28T10:43:39.999Z</time></trkpt><trkpt lat="46.28815503235817" lon="9.390627807212859"><ele>242.0</ele><time>2026-03-28T10:43:40.999Z</time></trkpt><trkpt lat="46.288232839671984" lon="9.390590178133417"><ele>242.0</ele><time>2026-03-28T10:43:41.999Z</time></trkpt><trkpt lat="46.28830493843994" lon="9.390570998360802"><ele>242.0</ele><time>2026-03-28T10:43:42.999Z</time></trkpt><trkpt lat="46.288378358167186" lon="9.390568956569055"><ele>242.00000000000003</ele><time>2026-03-28T10:43:43.999Z</time></trkpt><trkpt lat="46.288447429851345" lon="9.390562333446509"><ele>242.0</ele><time>2026-03-28T10:43:44.999Z</time></trkpt><trkpt lat="46.28854396877837" lon="9.390462223984198"><ele>241.8</ele><time>2026-03-28T10:43:46.999Z</time></trkpt><trkpt lat="46.28858461357062" lon="9.3903669254853"><ele>241.6</ele><time>2026-03-28T10:43:47.999Z</time></trkpt><trkpt lat="46.28864716305084" lon="9.390302646742777"><ele>241.40000000000003</ele><time>2026-03-28T10:43:48.999Z</time></trkpt><trkpt lat="46.28871522459287" lon="9.390243858638689"><ele>241.20000000000002</ele><time>2026-03-28T10:43:49.999Z</time></trkpt><trkpt lat="46.28880641071014" lon="9.390206888161082"><ele>241.0</ele><time>2026-03-28T10:43:50.999Z</time></trkpt><trkpt lat="46.28893014269179" lon="9.390134942005314"><ele>242.66666666666666</ele><time>2026-03-28T10:43:51.999Z</time></trkpt><trkpt lat="46.28908853404837" lon="9.390041646839302"><ele>244.33333333333331</ele><time>2026-03-28T10:43:52.999Z</time></trkpt><trkpt lat="46.28926525339951" lon="9.389913864088193"><ele>246.0</ele><time>2026-03-28T10:43:53.999Z</time></trkpt><trkpt lat="46.289450859559935" lon="9.389789323548081"><ele>246.33333333333331</ele><time>2026-03-28T10:43:54.999Z</time></trkpt><trkpt lat="46.289614466266315" lon="9.389670117858229"><ele>246.66666666666666</ele><time>2026-03-28T10:43:55.999Z</time></trkpt><trkpt lat="46.28976471939333" lon="9.389549113979458"><ele>247.0</ele><time>2026-03-28T10:43:56.999Z</time></trkpt><trkpt lat="46.28990916690401" lon="9.389418717051159"><ele>247.33333333333331</ele><time>2026-03-28T10:43:57.999Z</time></trkpt><trkpt lat="46.29003823888501" lon="9.389261662199038"><ele>247.66666666666669</ele><time>2026-03-28T10:43:58.999Z</time></trkpt><trkpt lat="46.29019774585133" lon="9.38908687609453"><ele>248.0</ele><time>2026-03-28T10:43:59.999Z</time></trkpt><trkpt lat="46.29038789129997" lon="9.38888999952214"><ele>248.0</ele><time>2026-03-28T10:44:00.999Z</time></trkpt><trkpt lat="46.290605691531766" lon="9.388717674513908"><ele>248.0</ele><time>2026-03-28T10:44:01.999Z</time></trkpt><trkpt lat="46.29079966866879" lon="9.388537404353757"><ele>248.0</ele><time>2026-03-28T10:44:02.999Z</time></trkpt><trkpt lat="46.29080672199065" lon="9.388444411504539"><ele>248.0</ele><time>2026-03-28T10:44:03.999Z</time></trkpt><trkpt lat="46.29097419457365" lon="9.388275574535877"><ele>248.0</ele><time>2026-03-28T10:44:05Z</time></trkpt><trkpt lat="46.2911355829968" lon="9.388102949516014"><ele>248.0</ele><time>2026-03-28T10:44:06Z</time></trkpt><trkpt lat="46.29129752307767" lon="9.387932031845356"><ele>248.0</ele><time>2026-03-28T10:44:07Z</time></trkpt><trkpt lat="46.29145992581904" lon="9.38775922086278"><ele>248.0</ele><time>2026-03-28T10:44:08Z</time></trkpt><trkpt lat="46.291618003443645" lon="9.387581799461698"><ele>248.0</ele><time>2026-03-28T10:44:09Z</time></trkpt><trkpt lat="46.291773813098004" lon="9.387407407371612"><ele>248.0</ele><time>2026-03-28T10:44:10Z</time></trkpt><trkpt lat="46.29193087473448" lon="9.387233604404898"><ele>248.0</ele><time>2026-03-28T10:44:11Z</time></trkpt><trkpt lat="46.292085469739675" lon="9.387061647701115"><ele>248.33333333333334</ele><time>2026-03-28T10:44:12Z</time></trkpt><trkpt lat="46.292239156450066" lon="9.386898741265185"><ele>248.66666666666669</ele><time>2026-03-28T10:44:13Z</time></trkpt><trkpt lat="46.29239430731931" lon="9.386732227979948"><ele>249.0</ele><time>2026-03-28T10:44:14Z</time></trkpt><trkpt lat="46.292549485092486" lon="9.386569231011432"><ele>250.0</ele><time>2026-03-28T10:44:15Z</time></trkpt><trkpt lat="46.292702014427945" lon="9.386413149474631"><ele>251.0</ele><time>2026-03-28T10:44:16Z</time></trkpt><trkpt lat="46.29285654324424" lon="9.38627216417444"><ele>252.0</ele><time>2026-03-28T10:44:17Z</time></trkpt><trkpt lat="46.29301567693991" lon="9.386147958807554"><ele>253.66666666666669</ele><time>2026-03-28T10:44:18Z</time></trkpt><trkpt lat="46.29318388497751" lon="9.386040191337644"><ele>255.33333333333334</ele><time>2026-03-28T10:44:19Z</time></trkpt><trkpt lat="46.29335566586377" lon="9.385956875962886"><ele>257.0</ele><time>2026-03-28T10:44:20Z</time></trkpt><trkpt lat="46.293536667087174" lon="9.385905418996899"><ele>257.0</ele><time>2026-03-28T10:44:21Z</time></trkpt><trkpt lat="46.293714131077415" lon="9.385857764977063"><ele>257.0</ele><time>2026-03-28T10:44:22Z</time></trkpt><trkpt lat="46.29389248498518" lon="9.38582445621148"><ele>257.0</ele><time>2026-03-28T10:44:23Z</time></trkpt><trkpt lat="46.29407069985306" lon="9.385807948317009"><ele>257.0</ele><time>2026-03-28T10:44:24Z</time></trkpt><trkpt lat="46.29425089139405" lon="9.385812708733008"><ele>257.0</ele><time>2026-03-28T10:44:25Z</time></trkpt><trkpt lat="46.29443305525721" lon="9.38583045381339"><ele>257.0</ele><time>2026-03-28T10:44:26Z</time></trkpt><trkpt lat="46.2946309890465" lon="9.385857810846044"><ele>258.0</ele><time>2026-03-28T10:44:27Z</time></trkpt><trkpt lat="46.29482422960741" lon="9.385892512898721"><ele>259.0</ele><time>2026-03-28T10:44:28Z</time></trkpt><trkpt lat="46.29502185602851" lon="9.385936676383496"><ele>260.0</ele><time>2026-03-28T10:44:29Z</time></trkpt><trkpt lat="46.29522610937441" lon="9.38597647162617"><ele>260.0</ele><time>2026-03-28T10:44:30Z</time></trkpt><trkpt lat="46.29543702568873" lon="9.386012631633559"><ele>260.0</ele><time>2026-03-28T10:44:31Z</time></trkpt><trkpt lat="46.29565445230671" lon="9.386054688876749"><ele>260.0</ele><time>2026-03-28T10:44:32Z</time></trkpt><trkpt lat="46.29587720184979" lon="9.38609113018662"><ele>261.5</ele><time>2026-03-28T10:44:33Z</time></trkpt><trkpt lat="46.29610555107863" lon="9.386130195703466"><ele>263.0</ele><time>2026-03-28T10:44:34Z</time></trkpt><trkpt lat="46.29633968146025" lon="9.386171661293549"><ele>263.0</ele><time>2026-03-28T10:44:35Z</time></trkpt><trkpt lat="46.29657636162193" lon="9.386215220874556"><ele>263.0</ele><time>2026-03-28T10:44:36Z</time></trkpt><trkpt lat="46.29680113167162" lon="9.386250283677828"><ele>263.0</ele><time>2026-03-28T10:44:37Z</time></trkpt><trkpt lat="46.297009960388706" lon="9.38629592274878"><ele>263.0</ele><time>2026-03-28T10:44:38Z</time></trkpt><trkpt lat="46.297194127136365" lon="9.386344990705044"><ele>263.0</ele><time>2026-03-28T10:44:39Z</time></trkpt><trkpt lat="46.29736949043966" lon="9.386381623207203"><ele>266.0</ele><time>2026-03-28T10:44:40Z</time></trkpt><trkpt lat="46.29755620936735" lon="9.38639080479017"><ele>269.0</ele><time>2026-03-28T10:44:41Z</time></trkpt><trkpt lat="46.297748914457785" lon="9.38644107916673"><ele>272.0</ele><time>2026-03-28T10:44:42Z</time></trkpt><trkpt lat="46.29794240162995" lon="9.386476349273506"><ele>272.6666666666667</ele><time>2026-03-28T10:44:43Z</time></trkpt><trkpt lat="46.29810921650025" lon="9.386506757428197"><ele>273.3333333333333</ele><time>2026-03-28T10:44:44Z</time></trkpt><trkpt lat="46.29826160830756" lon="9.386527657366123"><ele>274.0</ele><time>2026-03-28T10:44:45Z</time></trkpt><trkpt lat="46.29839350456331" lon="9.386560470674315"><ele>274.0</ele><time>2026-03-28T10:44:46Z</time></trkpt><trkpt lat="46.29853628279402" lon="9.386588064976335"><ele>274.0</ele><time>2026-03-28T10:44:47Z</time></trkpt><trkpt lat="46.29868920955801" lon="9.386609840846745"><ele>274.0</ele><time>2026-03-28T10:44:48Z</time></trkpt><trkpt lat="46.29884357454646" lon="9.386634646084076"><ele>274.5</ele><time>2026-03-28T10:44:49Z</time></trkpt><trkpt lat="46.29898263292351" lon="9.386660605106014"><ele>275.0</ele><time>2026-03-28T10:44:50Z</time></trkpt><trkpt lat="46.299114920709336" lon="9.3866870790251"><ele>275.5</ele><time>2026-03-28T10:44:51Z</time></trkpt><trkpt lat="46.29925085992607" lon="9.386703718098445"><ele>276.0</ele><time>2026-03-28T10:44:52Z</time></trkpt><trkpt lat="46.29938812720257" lon="9.386717517591858"><ele>276.0</ele><time>2026-03-28T10:44:53Z</time></trkpt><trkpt lat="46.29953839224856" lon="9.38675857799889"><ele>276.0</ele><time>2026-03-28T10:44:54Z</time></trkpt><trkpt lat="46.29968812985632" lon="9.386811393532575"><ele>276.0</ele><time>2026-03-28T10:44:55Z</time></trkpt><trkpt lat="46.299843449112636" lon="9.386870197489554"><ele>275.3333333333333</ele><time>2026-03-28T10:44:56Z</time></trkpt><trkpt lat="46.299996719151565" lon="9.386952744187226"><ele>274.66666666666663</ele><time>2026-03-28T10:44:57Z</time></trkpt><trkpt lat="46.30015798692644" lon="9.387054844499806"><ele>274.0</ele><time>2026-03-28T10:44:58Z</time></trkpt><trkpt lat="46.30031762536817" lon="9.38716288380475"><ele>275.66666666666663</ele><time>2026-03-28T10:44:59Z</time></trkpt><trkpt lat="46.3004755742843" lon="9.387265057965358"><ele>277.3333333333333</ele><time>2026-03-28T10:45:00Z</time></trkpt><trkpt lat="46.300637196251785" lon="9.387370493884582"><ele>279.0</ele><time>2026-03-28T10:45:01Z</time></trkpt><trkpt lat="46.300805440080936" lon="9.387479839091828"><ele>279.0</ele><time>2026-03-28T10:45:02Z</time></trkpt><trkpt lat="46.30097805275576" lon="9.387588308053674"><ele>279.0</ele><time>2026-03-28T10:45:03Z</time></trkpt><trkpt lat="46.30114842451" lon="9.38769616542035"><ele>279.0</ele><time>2026-03-28T10:45:04Z</time></trkpt><trkpt lat="46.301317692541325" lon="9.387798242980153"><ele>278.6666666666667</ele><time>2026-03-28T10:45:05Z</time></trkpt><trkpt lat="46.301493042092154" lon="9.38790754805738"><ele>278.33333333333337</ele><time>2026-03-28T10:45:06Z</time></trkpt><trkpt lat="46.30168370817502" lon="9.388029813390965"><ele>278.0</ele><time>2026-03-28T10:45:07Z</time></trkpt><trkpt lat="46.30187843157495" lon="9.388175409315108"><ele>280.0</ele><time>2026-03-28T10:45:08Z</time></trkpt><trkpt lat="46.30209213575336" lon="9.38829291208963"><ele>282.0</ele><time>2026-03-28T10:45:09Z</time></trkpt><trkpt lat="46.30229413468892" lon="9.388429265235676"><ele>282.6666666666667</ele><time>2026-03-28T10:45:10Z</time></trkpt><trkpt lat="46.30248701440031" lon="9.388562120253638"><ele>283.33333333333337</ele><time>2026-03-28T10:45:11Z</time></trkpt><trkpt lat="46.30268131929346" lon="9.388689772856361"><ele>284.0</ele><time>2026-03-28T10:45:12Z</time></trkpt><trkpt lat="46.302879409336576" lon="9.388814676047422"><ele>284.6666666666667</ele><time>2026-03-28T10:45:13Z</time></trkpt><trkpt lat="46.303079087298755" lon="9.388935780675299"><ele>285.3333333333333</ele><time>2026-03-28T10:45:14Z</time></trkpt><trkpt lat="46.30327488840264" lon="9.38906168672837"><ele>286.0</ele><time>2026-03-28T10:45:15Z</time></trkpt><trkpt lat="46.303471613077775" lon="9.389189955542987"><ele>286.0</ele><time>2026-03-28T10:45:16Z</time></trkpt><trkpt lat="46.30367005377324" lon="9.389324122406032"><ele>286.0</ele><time>2026-03-28T10:45:17Z</time></trkpt><trkpt lat="46.30386987595873" lon="9.389425704541194"><ele>286.0</ele><time>2026-03-28T10:45:18Z</time></trkpt><trkpt lat="46.304061427741615" lon="9.38951220927509"><ele>286.3333333333333</ele><time>2026-03-28T10:45:19Z</time></trkpt><trkpt lat="46.30426522906113" lon="9.389563255077741"><ele>286.6666666666667</ele><time>2026-03-28T10:45:20Z</time></trkpt><trkpt lat="46.304472106430985" lon="9.389617777769224"><ele>287.0</ele><time>2026-03-28T10:45:21Z</time></trkpt><trkpt lat="46.30467003768227" lon="9.38969703669555"><ele>288.6666666666667</ele><time>2026-03-28T10:45:21.999Z</time></trkpt><trkpt lat="46.30486847174062" lon="9.389793334771477"><ele>290.3333333333333</ele><time>2026-03-28T10:45:22.999Z</time></trkpt><trkpt lat="46.305066846107096" lon="9.389897090194435"><ele>292.0</ele><time>2026-03-28T10:45:23.999Z</time></trkpt><trkpt lat="46.30526151958208" lon="9.390011005261206"><ele>292.0</ele><time>2026-03-28T10:45:24.999Z</time></trkpt><trkpt lat="46.30545094514527" lon="9.390136830693343"><ele>292.0</ele><time>2026-03-28T10:45:25.999Z</time></trkpt><trkpt lat="46.30564016335095" lon="9.390270079566651"><ele>292.0</ele><time>2026-03-28T10:45:26.999Z</time></trkpt><trkpt lat="46.30582495669762" lon="9.390412437629958"><ele>293.0</ele><time>2026-03-28T10:45:27.999Z</time></trkpt><trkpt lat="46.306004882835566" lon="9.390567619989598"><ele>294.0</ele><time>2026-03-28T10:45:28.999Z</time></trkpt><trkpt lat="46.306174735608295" lon="9.390722590021293"><ele>295.0</ele><time>2026-03-28T10:45:29.999Z</time></trkpt><trkpt lat="46.30633992713105" lon="9.39087507554472"><ele>294.66666666666663</ele><time>2026-03-28T10:45:30.999Z</time></trkpt><trkpt lat="46.306501551726676" lon="9.391029306132863"><ele>294.3333333333333</ele><time>2026-03-28T10:45:31.999Z</time></trkpt><trkpt lat="46.3066662753238" lon="9.391187667464422"><ele>294.0</ele><time>2026-03-28T10:45:32.999Z</time></trkpt><trkpt lat="46.306834445676856" lon="9.391345744473835"><ele>294.0</ele><time>2026-03-28T10:45:33.999Z</time></trkpt><trkpt lat="46.30700630820393" lon="9.391502663691623"><ele>294.0</ele><time>2026-03-28T10:45:34.999Z</time></trkpt><trkpt lat="46.307172731287416" lon="9.391665404202554"><ele>294.0</ele><time>2026-03-28T10:45:35.999Z</time></trkpt><trkpt lat="46.307338210579125" lon="9.391829134284214"><ele>294.0</ele><time>2026-03-28T10:45:36.999Z</time></trkpt><trkpt lat="46.30750216897699" lon="9.391982173756594"><ele>294.0</ele><time>2026-03-28T10:45:37.999Z</time></trkpt><trkpt lat="46.30766199265946" lon="9.392131801268897"><ele>294.0</ele><time>2026-03-28T10:45:38.999Z</time></trkpt><trkpt lat="46.30781945019778" lon="9.392283325047284"><ele>294.0</ele><time>2026-03-28T10:45:39.999Z</time></trkpt><trkpt lat="46.30793969749212" lon="9.392463033907832"><ele>294.0</ele><time>2026-03-28T10:45:40.999Z</time></trkpt><trkpt lat="46.30805913016802" lon="9.392649071206662"><ele>294.0</ele><time>2026-03-28T10:45:41.999Z</time></trkpt><trkpt lat="46.30815870885195" lon="9.392857599832443"><ele>293.3333333333333</ele><time>2026-03-28T10:45:42.999Z</time></trkpt><trkpt lat="46.308251527066986" lon="9.393093785980607"><ele>292.66666666666663</ele><time>2026-03-28T10:45:43.999Z</time></trkpt><trkpt lat="46.30833894243481" lon="9.393348202201798"><ele>292.0</ele><time>2026-03-28T10:45:44.999Z</time></trkpt><trkpt lat="46.308438064212126" lon="9.393585582149411"><ele>293.0</ele><time>2026-03-28T10:45:45.999Z</time></trkpt><trkpt lat="46.3085221087784" lon="9.393873659271812"><ele>294.0</ele><time>2026-03-28T10:45:46.999Z</time></trkpt><trkpt lat="46.308618258276134" lon="9.394149894473038"><ele>295.0</ele><time>2026-03-28T10:45:47.999Z</time></trkpt><trkpt lat="46.30870655475928" lon="9.394403055790702"><ele>295.0</ele><time>2026-03-28T10:45:48.999Z</time></trkpt><trkpt lat="46.30879339109487" lon="9.39465187700531"><ele>295.0</ele><time>2026-03-28T10:45:49.999Z</time></trkpt><trkpt lat="46.30888265574115" lon="9.394885274922803"><ele>295.0</ele><time>2026-03-28T10:45:50.999Z</time></trkpt><trkpt lat="46.308976268323846" lon="9.395126779775762"><ele>295.0</ele><time>2026-03-28T10:45:51.999Z</time></trkpt><trkpt lat="46.30906804172853" lon="9.395336460007172"><ele>295.0</ele><time>2026-03-28T10:45:52.999Z</time></trkpt><trkpt lat="46.30917554382694" lon="9.395534824932186"><ele>295.0</ele><time>2026-03-28T10:45:53.999Z</time></trkpt><trkpt lat="46.30929592932884" lon="9.395706604873098"><ele>295.0</ele><time>2026-03-28T10:45:54.999Z</time></trkpt><trkpt lat="46.30944159836876" lon="9.395856977585721"><ele>295.0</ele><time>2026-03-28T10:45:55.999Z</time></trkpt><trkpt lat="46.30958873278728" lon="9.395980367000531"><ele>295.0</ele><time>2026-03-28T10:45:56.999Z</time></trkpt><trkpt lat="46.309729312245" lon="9.396071936912907"><ele>294.25</ele><time>2026-03-28T10:45:57.999Z</time></trkpt><trkpt lat="46.30986884458994" lon="9.396141991619597"><ele>293.5</ele><time>2026-03-28T10:45:58.999Z</time></trkpt><trkpt lat="46.31000409120081" lon="9.396205718793185"><ele>292.75</ele><time>2026-03-28T10:45:59.999Z</time></trkpt><trkpt lat="46.310142851480215" lon="9.396257004928461"><ele>292.0</ele><time>2026-03-28T10:46:00.999Z</time></trkpt><trkpt lat="46.31028424058157" lon="9.396313630835918"><ele>292.2</ele><time>2026-03-28T10:46:01.999Z</time></trkpt><trkpt lat="46.31041791047508" lon="9.396364101509075"><ele>292.4</ele><time>2026-03-28T10:46:02.999Z</time></trkpt><trkpt lat="46.31052978636163" lon="9.396403667903503"><ele>292.6</ele><time>2026-03-28T10:46:03.999Z</time></trkpt><trkpt lat="46.31061488687339" lon="9.39644000351803"><ele>292.8</ele><time>2026-03-28T10:46:04.999Z</time></trkpt><trkpt lat="46.31068812872546" lon="9.396500535767185"><ele>293.0</ele><time>2026-03-28T10:46:05.999Z</time></trkpt><trkpt lat="46.310748591898395" lon="9.396608786638813"><ele>293.0</ele><time>2026-03-28T10:46:06.999Z</time></trkpt><trkpt lat="46.31081749781172" lon="9.396706045453593"><ele>293.0</ele><time>2026-03-28T10:46:07.999Z</time></trkpt><trkpt lat="46.310915791881065" lon="9.39673199234312"><ele>293.0</ele><time>2026-03-28T10:46:08.999Z</time></trkpt><trkpt lat="46.31102245667819" lon="9.396687259389074"><ele>293.0</ele><time>2026-03-28T10:46:09.999Z</time></trkpt><trkpt lat="46.3111468372158" lon="9.396646399961284"><ele>293.0</ele><time>2026-03-28T10:46:11Z</time></trkpt><trkpt lat="46.31128633804501" lon="9.396658958016431"><ele>293.5</ele><time>2026-03-28T10:46:12Z</time></trkpt><trkpt lat="46.31142557296308" lon="9.39671358261788"><ele>294.0</ele><time>2026-03-28T10:46:13Z</time></trkpt><trkpt lat="46.31156549143139" lon="9.396762062061965"><ele>294.5</ele><time>2026-03-28T10:46:14Z</time></trkpt><trkpt lat="46.311718350036315" lon="9.39680923011908"><ele>295.0</ele><time>2026-03-28T10:46:15Z</time></trkpt><trkpt lat="46.311878095756306" lon="9.396871931510757"><ele>295.0</ele><time>2026-03-28T10:46:16Z</time></trkpt><trkpt lat="46.312027901500315" lon="9.396945342654751"><ele>295.0</ele><time>2026-03-28T10:46:17Z</time></trkpt><trkpt lat="46.31218431528074" lon="9.396998344277026"><ele>295.0</ele><time>2026-03-28T10:46:18Z</time></trkpt><trkpt lat="46.31232408173946" lon="9.397043628554634"><ele>294.75</ele><time>2026-03-28T10:46:19Z</time></trkpt><trkpt lat="46.312455861424795" lon="9.397085363583034"><ele>294.5</ele><time>2026-03-28T10:46:20Z</time></trkpt><trkpt lat="46.31259734112969" lon="9.397137835789307"><ele>294.25</ele><time>2026-03-28T10:46:21Z</time></trkpt><trkpt lat="46.312742891325605" lon="9.39720072986681"><ele>294.0</ele><time>2026-03-28T10:46:22Z</time></trkpt><trkpt lat="46.312884553044576" lon="9.39725993414017"><ele>295.0</ele><time>2026-03-28T10:46:23Z</time></trkpt><trkpt lat="46.31301753796255" lon="9.397311171762516"><ele>296.0</ele><time>2026-03-28T10:46:24Z</time></trkpt><trkpt lat="46.313145737450775" lon="9.397352387915017"><ele>297.0</ele><time>2026-03-28T10:46:25Z</time></trkpt><trkpt lat="46.31327382774064" lon="9.39739921642306"><ele>298.0</ele><time>2026-03-28T10:46:26Z</time></trkpt><trkpt lat="46.31339869043723" lon="9.397445480268692"><ele>298.0</ele><time>2026-03-28T10:46:27Z</time></trkpt><trkpt lat="46.31351343186776" lon="9.397486523452404"><ele>298.0</ele><time>2026-03-28T10:46:28Z</time></trkpt><trkpt lat="46.31361570958331" lon="9.397527674431487"><ele>298.0</ele><time>2026-03-28T10:46:29Z</time></trkpt><trkpt lat="46.31371810333062" lon="9.397564363126916"><ele>298.0</ele><time>2026-03-28T10:46:30Z</time></trkpt><trkpt lat="46.3138130206739" lon="9.397597106884522"><ele>298.0</ele><time>2026-03-28T10:46:31Z</time></trkpt><trkpt lat="46.31390334319744" lon="9.397634563806974"><ele>298.0</ele><time>2026-03-28T10:46:32Z</time></trkpt><trkpt lat="46.31399757419842" lon="9.39767709499317"><ele>298.0</ele><time>2026-03-28T10:46:33Z</time></trkpt><trkpt lat="46.31408894469684" lon="9.397711870449127"><ele>298.0</ele><time>2026-03-28T10:46:34Z</time></trkpt><trkpt lat="46.31418685502676" lon="9.397748265948552"><ele>298.0</ele><time>2026-03-28T10:46:35Z</time></trkpt><trkpt lat="46.31429536007134" lon="9.397787968657019"><ele>298.0</ele><time>2026-03-28T10:46:36Z</time></trkpt><trkpt lat="46.314401614931434" lon="9.397827659823113"><ele>298.0</ele><time>2026-03-28T10:46:37Z</time></trkpt><trkpt lat="46.314515431807536" lon="9.397869577857241"><ele>298.0</ele><time>2026-03-28T10:46:38Z</time></trkpt><trkpt lat="46.31462885132969" lon="9.39791068233795"><ele>298.0</ele><time>2026-03-28T10:46:39Z</time></trkpt><trkpt lat="46.314733636056886" lon="9.397947259558746"><ele>298.0</ele><time>2026-03-28T10:46:40Z</time></trkpt><trkpt lat="46.31483421730035" lon="9.397981887380988"><ele>298.0</ele><time>2026-03-28T10:46:41Z</time></trkpt><trkpt lat="46.31492705800372" lon="9.398007797658021"><ele>298.16666666666663</ele><time>2026-03-28T10:46:42Z</time></trkpt><trkpt lat="46.31500778793364" lon="9.398032986012062"><ele>298.3333333333333</ele><time>2026-03-28T10:46:43Z</time></trkpt><trkpt lat="46.315120757755494" lon="9.398067144621537"><ele>298.5</ele><time>2026-03-28T10:46:45Z</time></trkpt><trkpt lat="46.3152014631226" lon="9.398088079527286"><ele>298.6666666666667</ele><time>2026-03-28T10:46:47Z</time></trkpt><trkpt lat="46.31526354104584" lon="9.398116120141255"><ele>298.83333333333337</ele><time>2026-03-28T10:46:50Z</time></trkpt><trkpt lat="46.31531592375574" lon="9.398175557025361"><ele>299.0</ele><time>2026-03-28T10:46:56Z</time></trkpt><trkpt lat="46.315446728181406" lon="9.398223133559183"><ele>299.0</ele><time>2026-03-28T10:46:58Z</time></trkpt><trkpt lat="46.315541994848566" lon="9.398256637540984"><ele>299.0</ele><time>2026-03-28T10:46:59Z</time></trkpt><trkpt lat="46.31565015050605" lon="9.398318826205744"><ele>299.0</ele><time>2026-03-28T10:47:00Z</time></trkpt><trkpt lat="46.31578614328195" lon="9.398390450114096"><ele>299.0</ele><time>2026-03-28T10:47:01Z</time></trkpt><trkpt lat="46.315932471455874" lon="9.39846597123498"><ele>300.0</ele><time>2026-03-28T10:47:02Z</time></trkpt><trkpt lat="46.31607441880577" lon="9.398555645305127"><ele>301.0</ele><time>2026-03-28T10:47:03Z</time></trkpt><trkpt lat="46.316187633481185" lon="9.398639570758123"><ele>302.0</ele><time>2026-03-28T10:47:04Z</time></trkpt><trkpt lat="46.316306010524194" lon="9.398695311104403"><ele>303.0</ele><time>2026-03-28T10:47:05Z</time></trkpt><trkpt lat="46.316395148202666" lon="9.398825403015605"><ele>307.0</ele><time>2026-03-28T10:47:06Z</time></trkpt><trkpt lat="46.31653581551798" lon="9.398953420438144"><ele>311.0</ele><time>2026-03-28T10:47:07Z</time></trkpt><trkpt lat="46.31666203892444" lon="9.39907241038506"><ele>315.0</ele><time>2026-03-28T10:47:08Z</time></trkpt><trkpt lat="46.31678942335257" lon="9.399192768209621"><ele>315.0</ele><time>2026-03-28T10:47:09Z</time></trkpt><trkpt lat="46.31690739619539" lon="9.399301561932353"><ele>315.0</ele><time>2026-03-28T10:47:10Z</time></trkpt><trkpt lat="46.31701463043684" lon="9.399404161468048"><ele>315.0</ele><time>2026-03-28T10:47:11Z</time></trkpt><trkpt lat="46.3171204957173" lon="9.399502047074096"><ele>315.0</ele><time>2026-03-28T10:47:12Z</time></trkpt><trkpt lat="46.31723578039983" lon="9.399584884431324"><ele>316.0</ele><time>2026-03-28T10:47:13Z</time></trkpt><trkpt lat="46.31734661328015" lon="9.39966355415484"><ele>317.0</ele><time>2026-03-28T10:47:14Z</time></trkpt><trkpt lat="46.31747007391437" lon="9.399727605057421"><ele>318.0</ele><time>2026-03-28T10:47:15Z</time></trkpt><trkpt lat="46.3175992351013" lon="9.399786409822013"><ele>319.0</ele><time>2026-03-28T10:47:16Z</time></trkpt><trkpt lat="46.3177299225743" lon="9.39983537163772"><ele>319.6</ele><time>2026-03-28T10:47:17Z</time></trkpt><trkpt lat="46.317852168965906" lon="9.39984960592044"><ele>320.2</ele><time>2026-03-28T10:47:18Z</time></trkpt><trkpt lat="46.317956291403746" lon="9.399854461882853"><ele>320.8</ele><time>2026-03-28T10:47:19Z</time></trkpt><trkpt lat="46.31805905190786" lon="9.399843629422225"><ele>321.40000000000003</ele><time>2026-03-28T10:47:20Z</time></trkpt><trkpt lat="46.31815316285071" lon="9.399836119821533"><ele>322.0</ele><time>2026-03-28T10:47:21Z</time></trkpt><trkpt lat="46.31823382547853" lon="9.399828367964375"><ele>322.3333333333333</ele><time>2026-03-28T10:47:22Z</time></trkpt><trkpt lat="46.31830627116184" lon="9.399834687456218"><ele>322.66666666666663</ele><time>2026-03-28T10:47:23Z</time></trkpt><trkpt lat="46.31840137864209" lon="9.399868949576835"><ele>323.0</ele><time>2026-03-28T10:47:25Z</time></trkpt><trkpt lat="46.318476827942014" lon="9.399919218924241"><ele>323.3333333333333</ele><time>2026-03-28T10:47:28Z</time></trkpt><trkpt lat="46.318548862733756" lon="9.399944653250017"><ele>323.6666666666667</ele><time>2026-03-28T10:47:30Z</time></trkpt><trkpt lat="46.31861816848713" lon="9.399837224567726"><ele>324.0</ele><time>2026-03-28T10:47:32Z</time></trkpt><trkpt lat="46.318677910730116" lon="9.399675158021948"><ele>323.8333333333333</ele><time>2026-03-28T10:47:34Z</time></trkpt><trkpt lat="46.3187502281647" lon="9.39961682941136"><ele>323.6666666666667</ele><time>2026-03-28T10:47:36Z</time></trkpt><trkpt lat="46.31881271420628" lon="9.399561151363779"><ele>323.5</ele><time>2026-03-28T10:47:37.999Z</time></trkpt><trkpt lat="46.31889031269155" lon="9.399493288881372"><ele>323.33333333333337</ele><time>2026-03-28T10:47:39.999Z</time></trkpt><trkpt lat="46.318946823379804" lon="9.399428068859226"><ele>323.1666666666667</ele><time>2026-03-28T10:47:40.999Z</time></trkpt><trkpt lat="46.31901359198705" lon="9.399371009655964"><ele>323.0</ele><time>2026-03-28T10:47:41.999Z</time></trkpt><trkpt lat="46.3190965317121" lon="9.399301091384539"><ele>322.2</ele><time>2026-03-28T10:47:42.999Z</time></trkpt><trkpt lat="46.31916206269867" lon="9.399285203834417"><ele>321.4</ele><time>2026-03-28T10:47:43.999Z</time></trkpt><trkpt lat="46.319244312490525" lon="9.399317084717786"><ele>320.59999999999997</ele><time>2026-03-28T10:47:45.999Z</time></trkpt><trkpt lat="46.31935430706514" lon="9.39908544360677"><ele>319.79999999999995</ele><time>2026-03-28T10:47:48.999Z</time></trkpt><trkpt lat="46.319429596440706" lon="9.399018936750574"><ele>319.0</ele><time>2026-03-28T10:47:49.999Z</time></trkpt><trkpt lat="46.31951749637037" lon="9.398941290411921"><ele>319.0</ele><time>2026-03-28T10:47:51.999Z</time></trkpt><trkpt lat="46.31959666112316" lon="9.398871983685384"><ele>319.0</ele><time>2026-03-28T10:47:54.999Z</time></trkpt><trkpt lat="46.31968574986044" lon="9.398794112446684"><ele>319.0</ele><time>2026-03-28T10:47:56.999Z</time></trkpt><trkpt lat="46.31978563736638" lon="9.3987063053417"><ele>319.0</ele><time>2026-03-28T10:47:58.999Z</time></trkpt><trkpt lat="46.31989008714333" lon="9.39861456338505"><ele>319.0</ele><time>2026-03-28T10:48:00.999Z</time></trkpt><trkpt lat="46.31994946934864" lon="9.398562428514486"><ele>320.0</ele><time>2026-03-28T10:48:01.999Z</time></trkpt><trkpt lat="46.32001402901629" lon="9.398505748061199"><ele>321.0</ele><time>2026-03-28T10:48:02.999Z</time></trkpt><trkpt lat="46.32007284152959" lon="9.39845411335423"><ele>322.0</ele><time>2026-03-28T10:48:03.999Z</time></trkpt><trkpt lat="46.320130397766754" lon="9.398403581586416"><ele>323.0</ele><time>2026-03-28T10:48:04.999Z</time></trkpt><trkpt lat="46.3201890500163" lon="9.398352087578905"><ele>324.0</ele><time>2026-03-28T10:48:05.999Z</time></trkpt><trkpt lat="46.32028210991554" lon="9.39827038521623"><ele>325.0</ele><time>2026-03-28T10:48:07.999Z</time></trkpt><trkpt lat="46.32036937802122" lon="9.398193767785887"><ele>325.0</ele><time>2026-03-28T10:48:09.999Z</time></trkpt><trkpt lat="46.32046436861922" lon="9.39809098673272"><ele>325.0</ele><time>2026-03-28T10:48:11.999Z</time></trkpt><trkpt lat="46.32053883207194" lon="9.39804358332224"><ele>325.0</ele><time>2026-03-28T10:48:12.999Z</time></trkpt><trkpt lat="46.320604720851215" lon="9.397979171115232"><ele>325.0</ele><time>2026-03-28T10:48:14.999Z</time></trkpt><trkpt lat="46.32067252788633" lon="9.397927615979464"><ele>325.0</ele><time>2026-03-28T10:48:18Z</time></trkpt><trkpt lat="46.32073193165627" lon="9.39787561273987"><ele>325.0</ele><time>2026-03-28T10:48:22Z</time></trkpt><trkpt lat="46.32073639852691" lon="9.397674662710255"><ele>325.16666666666663</ele><time>2026-03-28T10:50:07.999Z</time></trkpt><trkpt lat="46.32079189226465" lon="9.397822344651965"><ele>325.3333333333333</ele><time>2026-03-28T10:50:10.999Z</time></trkpt><trkpt lat="46.32072127777897" lon="9.397677065352633"><ele>325.5</ele><time>2026-03-28T10:50:21.999Z</time></trkpt><trkpt lat="46.320699511946884" lon="9.397767473930857"><ele>325.6666666666667</ele><time>2026-03-28T10:51:28Z</time></trkpt><trkpt lat="46.320751151649624" lon="9.397835446257497"><ele>325.83333333333337</ele><time>2026-03-28T10:51:42.999Z</time></trkpt><trkpt lat="46.32081935719567" lon="9.397870417194246"><ele>326.0</ele><time>2026-03-28T10:51:50.999Z</time></trkpt><trkpt lat="46.32088122783196" lon="9.39791444027847"><ele>326.14285714285717</ele><time>2026-03-28T10:51:54.999Z</time></trkpt><trkpt lat="46.32089720699193" lon="9.398004806794287"><ele>326.2857142857143</ele><time>2026-03-28T10:52:02.999Z</time></trkpt><trkpt lat="46.320889334688886" lon="9.398104278032811"><ele>326.42857142857144</ele><time>2026-03-28T10:52:11.999Z</time></trkpt><trkpt lat="46.32087554642885" lon="9.398195231674743"><ele>326.57142857142856</ele><time>2026-03-28T10:52:19.999Z</time></trkpt><trkpt lat="46.320880650203094" lon="9.39829207190709"><ele>326.7142857142857</ele><time>2026-03-28T10:52:25.999Z</time></trkpt><trkpt lat="46.32086989534106" lon="9.398382414512696"><ele>326.85714285714283</ele><time>2026-03-28T10:52:32Z</time></trkpt><trkpt lat="46.32083702328261" lon="9.39846059312291"><ele>327.0</ele><time>2026-03-28T10:52:39Z</time></trkpt><trkpt lat="46.320825972731626" lon="9.398552631990576"><ele>327.0</ele><time>2026-03-28T10:52:44Z</time></trkpt><trkpt lat="46.3207914512124" lon="9.398633259121045"><ele>327.0</ele><time>2026-03-28T10:52:54Z</time></trkpt><trkpt lat="46.320774057041945" lon="9.39872129898936"><ele>327.0</ele><time>2026-03-28T10:53:00Z</time></trkpt><trkpt lat="46.32075026872857" lon="9.398811095865213"><ele>327.0</ele><time>2026-03-28T10:53:08Z</time></trkpt><trkpt lat="46.320722139861225" lon="9.3989036393585"><ele>327.0</ele><time>2026-03-28T10:53:15Z</time></trkpt><trkpt lat="46.32069827253057" lon="9.398997055320152"><ele>327.0</ele><time>2026-03-28T10:53:22Z</time></trkpt><trkpt lat="46.32066115249633" lon="9.399073224083798"><ele>327.0</ele><time>2026-03-28T10:53:29Z</time></trkpt><trkpt lat="46.32064228343489" lon="9.399180086206533"><ele>327.1428571428571</ele><time>2026-03-28T10:53:36.999Z</time></trkpt><trkpt lat="46.32062590893736" lon="9.399269081751166"><ele>327.2857142857143</ele><time>2026-03-28T10:53:42.999Z</time></trkpt><trkpt lat="46.32058813183092" lon="9.399358470699749"><ele>327.42857142857144</ele><time>2026-03-28T10:53:48.999Z</time></trkpt><trkpt lat="46.32055839835279" lon="9.399444097891944"><ele>327.57142857142856</ele><time>2026-03-28T10:53:56.999Z</time></trkpt><trkpt lat="46.32053096828964" lon="9.399533838498389"><ele>327.7142857142857</ele><time>2026-03-28T10:54:04.999Z</time></trkpt><trkpt lat="46.32051631681607" lon="9.399630231538325"><ele>327.85714285714283</ele><time>2026-03-28T10:54:10.999Z</time></trkpt><trkpt lat="46.320536961215254" lon="9.399719753983094"><ele>328.0</ele><time>2026-03-28T11:02:09Z</time></trkpt><trkpt lat="46.32046913467724" lon="9.399724796004431"><ele>327.5</ele><time>2026-03-28T11:03:21.999Z</time></trkpt><trkpt lat="46.32043777133549" lon="9.399832406517035"><ele>327.0</ele><time>2026-03-28T11:03:27.999Z</time></trkpt><trkpt lat="46.32036290872518" lon="9.399756463973226"><ele>326.5</ele><time>2026-03-28T11:03:38.999Z</time></trkpt><trkpt lat="46.32033709163909" lon="9.399865153232051"><ele>326.0</ele><time>2026-03-28T11:03:46.999Z</time></trkpt><trkpt lat="46.32027579720411" lon="9.399897366219083"><ele>325.5</ele><time>2026-03-28T11:03:50.999Z</time></trkpt><trkpt lat="46.32022645209718" lon="9.399984196136138"><ele>325.0</ele><time>2026-03-28T11:04:00.999Z</time></trkpt><trkpt lat="46.320237736802405" lon="9.400090559717334"><ele>325.0</ele><time>2026-03-28T11:04:03.999Z</time></trkpt><trkpt lat="46.32022009248523" lon="9.400182737300884"><ele>325.0</ele><time>2026-03-28T11:04:10Z</time></trkpt><trkpt lat="46.320216568088206" lon="9.40028939886803"><ele>325.0</ele><time>2026-03-28T11:04:18Z</time></trkpt><trkpt lat="46.32018305118347" lon="9.40038184356298"><ele>325.0</ele><time>2026-03-28T11:04:23Z</time></trkpt><trkpt lat="46.32020473205361" lon="9.400470014336227"><ele>325.0</ele><time>2026-03-28T11:04:31Z</time></trkpt><trkpt lat="46.32014343191279" lon="9.400496641475966"><ele>325.0</ele><time>2026-03-28T11:04:45Z</time></trkpt><trkpt lat="46.320127292584026" lon="9.400590142646786"><ele>325.0</ele><time>2026-03-28T11:04:49Z</time></trkpt><trkpt lat="46.320056125840566" lon="9.400612625553"><ele>325.57142857142856</ele><time>2026-03-28T11:04:54.999Z</time></trkpt><trkpt lat="46.31999466392845" lon="9.400668649085894"><ele>326.14285714285717</ele><time>2026-03-28T11:04:59.999Z</time></trkpt><trkpt lat="46.31994398572129" lon="9.40072981994379"><ele>326.7142857142857</ele><time>2026-03-28T11:05:03.999Z</time></trkpt><trkpt lat="46.31997197099766" lon="9.40083135293972"><ele>327.2857142857143</ele><time>2026-03-28T11:05:09.999Z</time></trkpt><trkpt lat="46.320004229372195" lon="9.400914434048262"><ele>327.8571428571429</ele><time>2026-03-28T11:05:22.999Z</time></trkpt><trkpt lat="46.32008172106851" lon="9.400917087740533"><ele>328.42857142857144</ele><time>2026-03-28T11:05:45.999Z</time></trkpt><trkpt lat="46.320142683817025" lon="9.400951302816752"><ele>329.0</ele><time>2026-03-28T11:05:48.999Z</time></trkpt><trkpt lat="46.320135084128424" lon="9.400831998195597"><ele>329.0</ele><time>2026-03-28T11:06:06Z</time></trkpt><trkpt lat="46.32017051980347" lon="9.400740975828983"><ele>329.0</ele><time>2026-03-28T11:06:11Z</time></trkpt><trkpt lat="46.3200486715677" lon="9.400740468076723"><ele>329.0</ele><time>2026-03-28T11:08:06.421Z</time></trkpt><trkpt lat="46.31997822989474" lon="9.400705926828387"><ele>329.0</ele><time>2026-03-28T11:09:42.999Z</time></trkpt><trkpt lat="46.32004795055792" lon="9.400643036947509"><ele>329.0</ele><time>2026-03-28T11:09:55Z</time></trkpt><trkpt lat="46.32011377370333" lon="9.400635734367093"><ele>329.0</ele><time>2026-03-28T11:10:01Z</time></trkpt><trkpt lat="46.32012179130744" lon="9.400734145941344"><ele>329.0</ele><time>2026-03-28T11:10:06Z</time></trkpt><trkpt lat="46.32009356976299" lon="9.400827390872402"><ele>329.0</ele><time>2026-03-28T11:10:10Z</time></trkpt><trkpt lat="46.32005266897269" lon="9.400906947315509"><ele>329.0</ele><time>2026-03-28T11:10:17Z</time></trkpt><trkpt lat="46.320074864242486" lon="9.401009974016528"><ele>329.0</ele><time>2026-03-28T11:10:26Z</time></trkpt><trkpt lat="46.32013316394908" lon="9.40108002412548"><ele>329.0</ele><time>2026-03-28T11:10:32Z</time></trkpt><trkpt lat="46.32017758428674" lon="9.4011451006375"><ele>329.0</ele><time>2026-03-28T11:10:41Z</time></trkpt><trkpt lat="46.32022874903583" lon="9.401209763930138"><ele>329.0</ele><time>2026-03-28T11:10:44Z</time></trkpt><trkpt lat="46.32017949052077" lon="9.401279661935138"><ele>329.2857142857143</ele><time>2026-03-28T11:10:47Z</time></trkpt><trkpt lat="46.320235164496424" lon="9.401355942033506"><ele>329.57142857142856</ele><time>2026-03-28T11:10:52Z</time></trkpt><trkpt lat="46.320315942965244" lon="9.401394731007732"><ele>329.8571428571429</ele><time>2026-03-28T11:10:57Z</time></trkpt><trkpt lat="46.32037934189581" lon="9.401420621001229"><ele>330.1428571428571</ele><time>2026-03-28T11:11:05Z</time></trkpt><trkpt lat="46.320419922181294" lon="9.401499401747483"><ele>330.42857142857144</ele><time>2026-03-28T11:11:12Z</time></trkpt><trkpt lat="46.320490413242524" lon="9.401511605486409"><ele>330.7142857142857</ele><time>2026-03-28T11:11:17Z</time></trkpt><trkpt lat="46.320541558447864" lon="9.401572551519365"><ele>331.0</ele><time>2026-03-28T11:11:22Z</time></trkpt><trkpt lat="46.32055497447184" lon="9.40168447400775"><ele>331.0</ele><time>2026-03-28T11:11:26Z</time></trkpt><trkpt lat="46.32052145810307" lon="9.401769206800086"><ele>331.0</ele><time>2026-03-28T11:11:30Z</time></trkpt><trkpt lat="46.32055215653189" lon="9.401859396231796"><ele>331.0</ele><time>2026-03-28T11:11:38Z</time></trkpt><trkpt lat="46.32059076044077" lon="9.401942095590625"><ele>331.0</ele><time>2026-03-28T11:11:47Z</time></trkpt><trkpt lat="46.32067912336173" lon="9.401952690146961"><ele>331.0</ele><time>2026-03-28T11:13:17.013Z</time></trkpt><trkpt lat="46.320654660086426" lon="9.401866398066566"><ele>331.0</ele><time>2026-03-28T11:13:23Z</time></trkpt><trkpt lat="46.32060709303807" lon="9.40179117304709"><ele>331.0</ele><time>2026-03-28T11:13:27Z</time></trkpt><trkpt lat="46.32055492832426" lon="9.401707262314805"><ele>331.0</ele><time>2026-03-28T11:13:33Z</time></trkpt><trkpt lat="46.32049712959724" lon="9.401660851352586"><ele>331.0</ele><time>2026-03-28T11:13:38.999Z</time></trkpt><trkpt lat="46.32044488300774" lon="9.40160106051332"><ele>331.0</ele><time>2026-03-28T11:13:46.999Z</time></trkpt><trkpt lat="46.32039686278328" lon="9.401535259683312"><ele>331.0</ele><time>2026-03-28T11:13:52.999Z</time></trkpt><trkpt lat="46.320338802580046" lon="9.401491329757203"><ele>331.0</ele><time>2026-03-28T11:14:00Z</time></trkpt><trkpt lat="46.320281555086645" lon="9.401451180878627"><ele>331.0</ele><time>2026-03-28T11:14:07Z</time></trkpt><trkpt lat="46.32024909141461" lon="9.401367391147526"><ele>331.0</ele><time>2026-03-28T11:14:14Z</time></trkpt><trkpt lat="46.32019888607132" lon="9.40128008930451"><ele>330.7142857142857</ele><time>2026-03-28T11:14:21Z</time></trkpt><trkpt lat="46.320149402014664" lon="9.401203871484224"><ele>330.42857142857144</ele><time>2026-03-28T11:14:28Z</time></trkpt><trkpt lat="46.32011294898193" lon="9.401120112750954"><ele>330.1428571428571</ele><time>2026-03-28T11:14:38Z</time></trkpt><trkpt lat="46.32009408630868" lon="9.401031804985195"><ele>329.8571428571429</ele><time>2026-03-28T11:14:44Z</time></trkpt><trkpt lat="46.32012656129194" lon="9.400941444218184"><ele>329.57142857142856</ele><time>2026-03-28T11:14:50Z</time></trkpt><trkpt lat="46.320129516068455" lon="9.400835674963451"><ele>329.2857142857143</ele><time>2026-03-28T11:14:58Z</time></trkpt><trkpt lat="46.32016052986763" lon="9.40075214009787"><ele>329.0</ele><time>2026-03-28T11:15:04Z</time></trkpt><trkpt lat="46.32018073063554" lon="9.400648018295009"><ele>329.0</ele><time>2026-03-28T11:15:11Z</time></trkpt><trkpt lat="46.32017473257965" lon="9.400536711402014"><ele>329.0</ele><time>2026-03-28T11:15:20Z</time></trkpt><trkpt lat="46.32017137084786" lon="9.400441453669822"><ele>329.0</ele><time>2026-03-28T11:15:28Z</time></trkpt><trkpt lat="46.32020210576328" lon="9.400350817995415"><ele>329.0</ele><time>2026-03-28T11:15:35.999Z</time></trkpt><trkpt lat="46.32022309749135" lon="9.40024980734619"><ele>329.0</ele><time>2026-03-28T11:15:41.999Z</time></trkpt><trkpt lat="46.320250002441355" lon="9.40016653498207"><ele>329.0</ele><time>2026-03-28T11:15:49.999Z</time></trkpt><trkpt lat="46.32025976026783" lon="9.400070818731397"><ele>329.0</ele><time>2026-03-28T11:15:57.999Z</time></trkpt><trkpt lat="46.32028052103398" lon="9.399972316330295"><ele>328.57142857142856</ele><time>2026-03-28T11:16:06Z</time></trkpt><trkpt lat="46.32032279654764" lon="9.399892074328069"><ele>328.1428571428571</ele><time>2026-03-28T11:16:13Z</time></trkpt><trkpt lat="46.32035837154514" lon="9.399809593054988"><ele>327.7142857142857</ele><time>2026-03-28T11:16:15Z</time></trkpt><trkpt lat="46.32042181736925" lon="9.39976865358713"><ele>327.2857142857143</ele><time>2026-03-28T11:16:24Z</time></trkpt><trkpt lat="46.320500823346144" lon="9.39973201744624"><ele>326.85714285714283</ele><time>2026-03-28T11:16:30Z</time></trkpt><trkpt lat="46.3205305286534" lon="9.39964104768136"><ele>326.42857142857144</ele><time>2026-03-28T11:16:40Z</time></trkpt><trkpt lat="46.32053889641712" lon="9.39954100589367"><ele>326.0</ele><time>2026-03-28T11:16:48Z</time></trkpt><trkpt lat="46.32051879966065" lon="9.399442048071656"><ele>326.0</ele><time>2026-03-28T11:16:55Z</time></trkpt><trkpt lat="46.320537843908134" lon="9.399354754275288"><ele>326.0</ele><time>2026-03-28T11:17:00Z</time></trkpt><trkpt lat="46.32057518536907" lon="9.399260036472748"><ele>326.0</ele><time>2026-03-28T11:17:06Z</time></trkpt><trkpt lat="46.320591747100906" lon="9.399136573304766"><ele>326.0</ele><time>2026-03-28T11:17:15Z</time></trkpt><trkpt lat="46.32062643430583" lon="9.399051790115434"><ele>326.0</ele><time>2026-03-28T11:17:21Z</time></trkpt><trkpt lat="46.320648633677294" lon="9.398961585904283"><ele>326.0</ele><time>2026-03-28T11:17:27Z</time></trkpt><trkpt lat="46.32066245798297" lon="9.398871344521169"><ele>326.0</ele><time>2026-03-28T11:17:34.999Z</time></trkpt><trkpt lat="46.32069479374324" lon="9.398787770782102"><ele>326.14285714285717</ele><time>2026-03-28T11:17:39.999Z</time></trkpt><trkpt lat="46.32074356367431" lon="9.398721312151514"><ele>326.2857142857143</ele><time>2026-03-28T11:17:46.999Z</time></trkpt><trkpt lat="46.32074374012953" lon="9.3986187770975"><ele>326.42857142857144</ele><time>2026-03-28T11:17:51.999Z</time></trkpt><trkpt lat="46.32080047098251" lon="9.398579070845479"><ele>326.57142857142856</ele><time>2026-03-28T11:17:56.999Z</time></trkpt><trkpt lat="46.32083658488987" lon="9.39850335212489"><ele>326.7142857142857</ele><time>2026-03-28T11:18:01.999Z</time></trkpt><trkpt lat="46.32087150927618" lon="9.398406408231997"><ele>326.85714285714283</ele><time>2026-03-28T11:18:08.999Z</time></trkpt><trkpt lat="46.32086900690232" lon="9.398305659670173"><ele>327.0</ele><time>2026-03-28T11:18:17Z</time></trkpt><trkpt lat="46.32087052355221" lon="9.398211037882422"><ele>327.0</ele><time>2026-03-28T11:18:23Z</time></trkpt><trkpt lat="46.32087737255565" lon="9.398092041538183"><ele>327.0</ele><time>2026-03-28T11:18:30Z</time></trkpt><trkpt lat="46.320926048855306" lon="9.39803319334069"><ele>327.0</ele><time>2026-03-28T11:18:36Z</time></trkpt><trkpt lat="46.320971223453256" lon="9.397951055681109"><ele>327.0</ele><time>2026-03-28T11:18:42Z</time></trkpt><trkpt lat="46.32090005545518" lon="9.397909491095241"><ele>327.0</ele><time>2026-03-28T11:18:46Z</time></trkpt><trkpt lat="46.32083656043912" lon="9.397898910277693"><ele>327.0</ele><time>2026-03-28T11:18:51Z</time></trkpt><trkpt lat="46.32077038690557" lon="9.397874130926837"><ele>327.0</ele><time>2026-03-28T11:18:56Z</time></trkpt><trkpt lat="46.32070724572766" lon="9.397914529622978"><ele>326.85714285714283</ele><time>2026-03-28T11:19:03Z</time></trkpt><trkpt lat="46.320676927517255" lon="9.397831816926663"><ele>326.7142857142857</ele><time>2026-03-28T11:19:11Z</time></trkpt><trkpt lat="46.320695736411984" lon="9.39773645556182"><ele>326.57142857142856</ele><time>2026-03-28T11:19:17Z</time></trkpt><trkpt lat="46.32070756913712" lon="9.397642030707187"><ele>326.42857142857144</ele><time>2026-03-28T11:20:13.999Z</time></trkpt><trkpt lat="46.320777494087494" lon="9.397672841082642"><ele>326.2857142857143</ele><time>2026-03-28T11:23:47.999Z</time></trkpt><trkpt lat="46.32081095056519" lon="9.397777181860205"><ele>326.14285714285717</ele><time>2026-03-28T11:23:49.999Z</time></trkpt><trkpt lat="46.32088448998355" lon="9.39783956507508"><ele>326.0</ele><time>2026-03-28T11:23:51.999Z</time></trkpt><trkpt lat="46.32098553330953" lon="9.397792620282889"><ele>326.0</ele><time>2026-03-28T11:23:53.999Z</time></trkpt><trkpt lat="46.32109227059783" lon="9.397770037206604"><ele>326.0</ele><time>2026-03-28T11:23:55.999Z</time></trkpt><trkpt lat="46.321199808335344" lon="9.397806160338165"><ele>326.0</ele><time>2026-03-28T11:23:57.999Z</time></trkpt><trkpt lat="46.321286178689626" lon="9.397863235312329"><ele>326.0</ele><time>2026-03-28T11:23:59.999Z</time></trkpt><trkpt lat="46.3214508548614" lon="9.397919138664138"><ele>326.20000000000005</ele><time>2026-03-28T11:24:14.999Z</time></trkpt><trkpt lat="46.32152425553616" lon="9.397963273124267"><ele>326.40000000000003</ele><time>2026-03-28T11:24:15.999Z</time></trkpt><trkpt lat="46.32160774548661" lon="9.398018736852"><ele>326.6</ele><time>2026-03-28T11:24:16.999Z</time></trkpt><trkpt lat="46.321691011737485" lon="9.398077890112514"><ele>326.8</ele><time>2026-03-28T11:24:17.999Z</time></trkpt><trkpt lat="46.321775079389724" lon="9.398145807214332"><ele>327.0</ele><time>2026-03-28T11:24:18.999Z</time></trkpt><trkpt lat="46.32186137468713" lon="9.398228373372918"><ele>327.0</ele><time>2026-03-28T11:24:19.999Z</time></trkpt><trkpt lat="46.321948679227965" lon="9.398325482203253"><ele>327.0</ele><time>2026-03-28T11:24:20.999Z</time></trkpt><trkpt lat="46.32202221318658" lon="9.398452601505184"><ele>327.0</ele><time>2026-03-28T11:24:21.999Z</time></trkpt><trkpt lat="46.32211000286158" lon="9.398580128791663"><ele>327.0</ele><time>2026-03-28T11:24:22.999Z</time></trkpt><trkpt lat="46.322181199974224" lon="9.39871465388492"><ele>328.6</ele><time>2026-03-28T11:24:23.999Z</time></trkpt><trkpt lat="46.32224490931253" lon="9.398848381005172"><ele>330.20000000000005</ele><time>2026-03-28T11:24:24.999Z</time></trkpt><trkpt lat="46.3223138295821" lon="9.398963372637475"><ele>331.8</ele><time>2026-03-28T11:24:25.999Z</time></trkpt><trkpt lat="46.322360029495314" lon="9.399087680291839"><ele>333.4</ele><time>2026-03-28T11:24:26.999Z</time></trkpt><trkpt lat="46.322407312610025" lon="9.399209448122303"><ele>335.0</ele><time>2026-03-28T11:24:27.999Z</time></trkpt><trkpt lat="46.32244967591816" lon="9.39935629285678"><ele>335.0</ele><time>2026-03-28T11:24:28.998Z</time></trkpt><trkpt lat="46.32250445075034" lon="9.39949041920237"><ele>335.0</ele><time>2026-03-28T11:24:29.998Z</time></trkpt><trkpt lat="46.32257235660007" lon="9.399636095010676"><ele>335.0</ele><time>2026-03-28T11:24:30.998Z</time></trkpt><trkpt lat="46.32262788038571" lon="9.399776207784985"><ele>335.0</ele><time>2026-03-28T11:24:31.998Z</time></trkpt><trkpt lat="46.32268347633402" lon="9.399931805045902"><ele>334.2</ele><time>2026-03-28T11:24:32.998Z</time></trkpt><trkpt lat="46.32273860959298" lon="9.400074942629358"><ele>333.4</ele><time>2026-03-28T11:24:33.998Z</time></trkpt><trkpt lat="46.32279840975733" lon="9.400221658209487"><ele>332.6</ele><time>2026-03-28T11:24:34.998Z</time></trkpt><trkpt lat="46.32285330272015" lon="9.400351885225842"><ele>331.8</ele><time>2026-03-28T11:24:35.998Z</time></trkpt><trkpt lat="46.32290986793354" lon="9.400486880512373"><ele>331.0</ele><time>2026-03-28T11:24:36.998Z</time></trkpt><trkpt lat="46.322961068185165" lon="9.400614114991734"><ele>329.8</ele><time>2026-03-28T11:24:37.998Z</time></trkpt><trkpt lat="46.32300911321227" lon="9.400758390503421"><ele>328.6</ele><time>2026-03-28T11:24:38.998Z</time></trkpt><trkpt lat="46.32305921546378" lon="9.400888034009656"><ele>327.4</ele><time>2026-03-28T11:24:39.998Z</time></trkpt><trkpt lat="46.32312009309416" lon="9.401013632157646"><ele>326.2</ele><time>2026-03-28T11:24:40.998Z</time></trkpt><trkpt lat="46.32317819991161" lon="9.401135130935101"><ele>325.0</ele><time>2026-03-28T11:24:41.998Z</time></trkpt><trkpt lat="46.32323249666081" lon="9.401255705484287"><ele>325.5</ele><time>2026-03-28T11:24:42.998Z</time></trkpt><trkpt lat="46.32327231728692" lon="9.40137770185131"><ele>326.0</ele><time>2026-03-28T11:24:43.998Z</time></trkpt><trkpt lat="46.32331679382748" lon="9.401483190176146"><ele>326.5</ele><time>2026-03-28T11:24:44.998Z</time></trkpt><trkpt lat="46.32335442346166" lon="9.401580766891213"><ele>327.0</ele><time>2026-03-28T11:24:45.998Z</time></trkpt><trkpt lat="46.32338891643756" lon="9.401675544188228"><ele>327.5</ele><time>2026-03-28T11:24:46.998Z</time></trkpt><trkpt lat="46.323421905942766" lon="9.401764276769798"><ele>328.0</ele><time>2026-03-28T11:24:47.999Z</time></trkpt><trkpt lat="46.32346141692485" lon="9.401900766153947"><ele>328.0</ele><time>2026-03-28T11:24:49.999Z</time></trkpt><trkpt lat="46.32352094229076" lon="9.40205415045706"><ele>328.0</ele><time>2026-03-28T11:24:51.999Z</time></trkpt><trkpt lat="46.323564919046426" lon="9.402150666775812"><ele>328.0</ele><time>2026-03-28T11:24:52.999Z</time></trkpt><trkpt lat="46.32361247343033" lon="9.402258962838607"><ele>328.0</ele><time>2026-03-28T11:24:53.999Z</time></trkpt><trkpt lat="46.32365960655716" lon="9.402370720137888"><ele>328.0</ele><time>2026-03-28T11:24:54.999Z</time></trkpt><trkpt lat="46.32371287552167" lon="9.402491094847152"><ele>327.59999999999997</ele><time>2026-03-28T11:24:55.999Z</time></trkpt><trkpt lat="46.32376832178836" lon="9.402618027898347"><ele>327.2</ele><time>2026-03-28T11:24:56.999Z</time></trkpt><trkpt lat="46.323820776777026" lon="9.402743729828773"><ele>326.8</ele><time>2026-03-28T11:24:57.999Z</time></trkpt><trkpt lat="46.3238783175317" lon="9.402890318309701"><ele>326.4</ele><time>2026-03-28T11:24:58.999Z</time></trkpt><trkpt lat="46.323937196140214" lon="9.403035470965184"><ele>326.0</ele><time>2026-03-28T11:24:59.999Z</time></trkpt><trkpt lat="46.32401472145631" lon="9.403203445631332"><ele>327.6666666666667</ele><time>2026-03-28T11:25:00.999Z</time></trkpt><trkpt lat="46.32410029179333" lon="9.40339035428849"><ele>329.3333333333333</ele><time>2026-03-28T11:25:01.999Z</time></trkpt><trkpt lat="46.32420779739339" lon="9.403576968217093"><ele>331.0</ele><time>2026-03-28T11:25:02.999Z</time></trkpt><trkpt lat="46.3243266368589" lon="9.403769977919811"><ele>331.0</ele><time>2026-03-28T11:25:03.999Z</time></trkpt><trkpt lat="46.32445320578762" lon="9.403977232404504"><ele>331.0</ele><time>2026-03-28T11:25:04.999Z</time></trkpt><trkpt lat="46.3244498927125" lon="9.40432968771093"><ele>331.0</ele><time>2026-03-28T11:25:05.999Z</time></trkpt><trkpt lat="46.32455504154784" lon="9.404592739367647"><ele>331.0</ele><time>2026-03-28T11:25:06.999Z</time></trkpt><trkpt lat="46.32445473795298" lon="9.404339732670447"><ele>331.0</ele><time>2026-03-28T11:25:07.999Z</time></trkpt><trkpt lat="46.32453155496729" lon="9.404523723502448"><ele>331.0</ele><time>2026-03-28T11:25:08.999Z</time></trkpt><trkpt lat="46.32460377502154" lon="9.40470122773075"><ele>331.25</ele><time>2026-03-28T11:25:09.999Z</time></trkpt><trkpt lat="46.3246735989791" lon="9.404876351646687"><ele>331.5</ele><time>2026-03-28T11:25:10.999Z</time></trkpt><trkpt lat="46.32474066254806" lon="9.405046822104518"><ele>331.75</ele><time>2026-03-28T11:25:11.999Z</time></trkpt><trkpt lat="46.324804477754874" lon="9.405214532235087"><ele>332.0</ele><time>2026-03-28T11:25:12.999Z</time></trkpt><trkpt lat="46.32487147133245" lon="9.405384045417803"><ele>333.75</ele><time>2026-03-28T11:25:13.999Z</time></trkpt><trkpt lat="46.324940928646065" lon="9.40555649047913"><ele>335.5</ele><time>2026-03-28T11:25:14.999Z</time></trkpt><trkpt lat="46.32500847542085" lon="9.40572442922187"><ele>337.25</ele><time>2026-03-28T11:25:15.999Z</time></trkpt><trkpt lat="46.32507573247808" lon="9.405899698501143"><ele>339.0</ele><time>2026-03-28T11:25:16.999Z</time></trkpt><trkpt lat="46.32514014579007" lon="9.406082280654473"><ele>339.0</ele><time>2026-03-28T11:25:17.999Z</time></trkpt><trkpt lat="46.32517665474575" lon="9.406275280499203"><ele>339.0</ele><time>2026-03-28T11:25:18.999Z</time></trkpt><trkpt lat="46.325224040514925" lon="9.406477913674927"><ele>339.0</ele><time>2026-03-28T11:25:19.999Z</time></trkpt><trkpt lat="46.325273560017465" lon="9.406678012892732"><ele>339.0</ele><time>2026-03-28T11:25:20.999Z</time></trkpt><trkpt lat="46.325333051148036" lon="9.406864420967562"><ele>339.25</ele><time>2026-03-28T11:25:21.999Z</time></trkpt><trkpt lat="46.32538143624196" lon="9.407064591047046"><ele>339.5</ele><time>2026-03-28T11:25:22.999Z</time></trkpt><trkpt lat="46.32543237511095" lon="9.407253970471558"><ele>339.75</ele><time>2026-03-28T11:25:23.999Z</time></trkpt><trkpt lat="46.32547483985096" lon="9.40744378028275"><ele>340.0</ele><time>2026-03-28T11:25:24.999Z</time></trkpt><trkpt lat="46.32553185123651" lon="9.407616203663416"><ele>341.5</ele><time>2026-03-28T11:25:25.999Z</time></trkpt><trkpt lat="46.32560777140034" lon="9.407778182511677"><ele>343.0</ele><time>2026-03-28T11:25:26.999Z</time></trkpt><trkpt lat="46.32569932846706" lon="9.407944885622152"><ele>344.5</ele><time>2026-03-28T11:25:27.999Z</time></trkpt><trkpt lat="46.32581088810067" lon="9.408098798826453"><ele>346.0</ele><time>2026-03-28T11:25:28.999Z</time></trkpt><trkpt lat="46.32592728175275" lon="9.408248768911145"><ele>346.0</ele><time>2026-03-28T11:25:29.999Z</time></trkpt><trkpt lat="46.32606863078405" lon="9.408365280290104"><ele>346.0</ele><time>2026-03-28T11:25:30.999Z</time></trkpt><trkpt lat="46.3261899370348" lon="9.408481309280416"><ele>346.0</ele><time>2026-03-28T11:25:31.999Z</time></trkpt><trkpt lat="46.32633924783526" lon="9.408534915358494"><ele>349.66666666666663</ele><time>2026-03-28T11:25:32.999Z</time></trkpt><trkpt lat="46.32649204562819" lon="9.408572497741316"><ele>353.3333333333333</ele><time>2026-03-28T11:25:33.999Z</time></trkpt><trkpt lat="46.32664467147199" lon="9.408631885862464"><ele>357.0</ele><time>2026-03-28T11:25:34.999Z</time></trkpt><trkpt lat="46.32679109959454" lon="9.408691464757002"><ele>354.6666666666667</ele><time>2026-03-28T11:25:35.999Z</time></trkpt><trkpt lat="46.32691099578135" lon="9.408834714477939"><ele>352.33333333333337</ele><time>2026-03-28T11:25:36.999Z</time></trkpt><trkpt lat="46.3270155759224" lon="9.409000287117687"><ele>350.0</ele><time>2026-03-28T11:25:37.999Z</time></trkpt><trkpt lat="46.327091851143734" lon="9.409187408508625"><ele>350.0</ele><time>2026-03-28T11:25:38.999Z</time></trkpt><trkpt lat="46.327150181333224" lon="9.40935991437189"><ele>350.0</ele><time>2026-03-28T11:25:39.999Z</time></trkpt><trkpt lat="46.3272068782136" lon="9.409539072545474"><ele>350.0</ele><time>2026-03-28T11:25:40.999Z</time></trkpt><trkpt lat="46.327251866727075" lon="9.409709040646835"><ele>350.0</ele><time>2026-03-28T11:25:41.999Z</time></trkpt><trkpt lat="46.327290272176754" lon="9.40989384794645"><ele>353.75</ele><time>2026-03-28T11:25:42.999Z</time></trkpt><trkpt lat="46.32732014705283" lon="9.410051055933982"><ele>357.5</ele><time>2026-03-28T11:25:43.999Z</time></trkpt><trkpt lat="46.32734031926294" lon="9.410237513806313"><ele>361.25</ele><time>2026-03-28T11:25:44.999Z</time></trkpt><trkpt lat="46.32736822287632" lon="9.410417729297043"><ele>365.0</ele><time>2026-03-28T11:25:45.999Z</time></trkpt><trkpt lat="46.32736493000094" lon="9.41060288904083"><ele>365.25</ele><time>2026-03-28T11:25:46.999Z</time></trkpt><trkpt lat="46.32736660760924" lon="9.41078847616805"><ele>365.5</ele><time>2026-03-28T11:25:47.999Z</time></trkpt><trkpt lat="46.327370672163624" lon="9.410990751186892"><ele>365.75</ele><time>2026-03-28T11:25:48.999Z</time></trkpt><trkpt lat="46.32737070845363" lon="9.411209934293707"><ele>366.0</ele><time>2026-03-28T11:25:49.999Z</time></trkpt><trkpt lat="46.32736920722838" lon="9.411436266035723"><ele>366.6666666666667</ele><time>2026-03-28T11:25:50.999Z</time></trkpt><trkpt lat="46.32733933865225" lon="9.411676647768283"><ele>367.33333333333337</ele><time>2026-03-28T11:25:51.999Z</time></trkpt><trkpt lat="46.32732407963176" lon="9.41192345050956"><ele>368.0</ele><time>2026-03-28T11:25:52.999Z</time></trkpt><trkpt lat="46.32731115802178" lon="9.412176155848588"><ele>368.0</ele><time>2026-03-28T11:25:53.999Z</time></trkpt><trkpt lat="46.327258005607625" lon="9.412402410181851"><ele>368.0</ele><time>2026-03-28T11:25:54.999Z</time></trkpt><trkpt lat="46.32720634928573" lon="9.412630754955321"><ele>368.0</ele><time>2026-03-28T11:25:55.999Z</time></trkpt><trkpt lat="46.32722304948387" lon="9.412850060668022"><ele>368.5</ele><time>2026-03-28T11:25:56.999Z</time></trkpt><trkpt lat="46.32722986846985" lon="9.41305158322892"><ele>369.0</ele><time>2026-03-28T11:25:57.999Z</time></trkpt><trkpt lat="46.327234170799706" lon="9.413251277701214"><ele>369.5</ele><time>2026-03-28T11:25:58.999Z</time></trkpt><trkpt lat="46.327239478297265" lon="9.413456751733333"><ele>370.0</ele><time>2026-03-28T11:25:59.999Z</time></trkpt><trkpt lat="46.32726518062427" lon="9.413676026356804"><ele>370.0</ele><time>2026-03-28T11:26:00.999Z</time></trkpt><trkpt lat="46.32728448874184" lon="9.41390646419584"><ele>370.0</ele><time>2026-03-28T11:26:01.999Z</time></trkpt><trkpt lat="46.32728201898931" lon="9.414150687386519"><ele>370.0</ele><time>2026-03-28T11:26:02.999Z</time></trkpt><trkpt lat="46.32727769897898" lon="9.414405194362274"><ele>370.3333333333333</ele><time>2026-03-28T11:26:03.999Z</time></trkpt><trkpt lat="46.32725931857183" lon="9.414688191766496"><ele>370.6666666666667</ele><time>2026-03-28T11:26:04.999Z</time></trkpt><trkpt lat="46.32722620990441" lon="9.414954134683997"><ele>371.0</ele><time>2026-03-28T11:26:05.999Z</time></trkpt><trkpt lat="46.32720403010164" lon="9.415257683275858"><ele>369.6666666666667</ele><time>2026-03-28T11:26:06.999Z</time></trkpt><trkpt lat="46.32718352507738" lon="9.415528342233829"><ele>368.3333333333333</ele><time>2026-03-28T11:26:07.999Z</time></trkpt><trkpt lat="46.32716452397145" lon="9.415780714333946"><ele>367.0</ele><time>2026-03-28T11:26:08.999Z</time></trkpt><trkpt lat="46.327146126602734" lon="9.416022905304938"><ele>367.0</ele><time>2026-03-28T11:26:09.999Z</time></trkpt><trkpt lat="46.32715400167905" lon="9.416268533434055"><ele>367.0</ele><time>2026-03-28T11:26:10.999Z</time></trkpt><trkpt lat="46.32713787468111" lon="9.416520916352203"><ele>367.0</ele><time>2026-03-28T11:26:11.999Z</time></trkpt><trkpt lat="46.327134442970014" lon="9.416766113058557"><ele>367.0</ele><time>2026-03-28T11:26:12.999Z</time></trkpt><trkpt lat="46.32714662098962" lon="9.416997437975946"><ele>367.0</ele><time>2026-03-28T11:26:13.999Z</time></trkpt><trkpt lat="46.32716063113849" lon="9.417221556670336"><ele>367.0</ele><time>2026-03-28T11:26:14.999Z</time></trkpt><trkpt lat="46.32716033228504" lon="9.417439384454173"><ele>367.0</ele><time>2026-03-28T11:26:15.999Z</time></trkpt><trkpt lat="46.327189635033676" lon="9.417635300412194"><ele>367.0</ele><time>2026-03-28T11:26:16.999Z</time></trkpt><trkpt lat="46.327187231991154" lon="9.417823282863928"><ele>367.0</ele><time>2026-03-28T11:26:17.999Z</time></trkpt><trkpt lat="46.3272045456531" lon="9.417999665157327"><ele>367.0</ele><time>2026-03-28T11:26:18.999Z</time></trkpt><trkpt lat="46.32722015112052" lon="9.418160973454544"><ele>369.5</ele><time>2026-03-28T11:26:19.999Z</time></trkpt><trkpt lat="46.327232316121474" lon="9.418329225180633"><ele>372.0</ele><time>2026-03-28T11:26:20.999Z</time></trkpt><trkpt lat="46.3272439106538" lon="9.418501569890875"><ele>374.5</ele><time>2026-03-28T11:26:21.999Z</time></trkpt><trkpt lat="46.32725573451719" lon="9.418680799878596"><ele>377.0</ele><time>2026-03-28T11:26:22.999Z</time></trkpt><trkpt lat="46.32727310846611" lon="9.418877455613831"><ele>377.0</ele><time>2026-03-28T11:26:23.999Z</time></trkpt><trkpt lat="46.32727685411424" lon="9.419076580018608"><ele>377.0</ele><time>2026-03-28T11:26:24.999Z</time></trkpt><trkpt lat="46.327304861648614" lon="9.419284131243671"><ele>377.0</ele><time>2026-03-28T11:26:25.999Z</time></trkpt><trkpt lat="46.32731914248744" lon="9.41948937976181"><ele>377.0</ele><time>2026-03-28T11:26:26.999Z</time></trkpt><trkpt lat="46.32733025967828" lon="9.419692866745049"><ele>377.25</ele><time>2026-03-28T11:26:27.999Z</time></trkpt><trkpt lat="46.32732914223256" lon="9.419901005633577"><ele>377.5</ele><time>2026-03-28T11:26:28.999Z</time></trkpt><trkpt lat="46.3273442864641" lon="9.420102914802428"><ele>377.75</ele><time>2026-03-28T11:26:29.999Z</time></trkpt><trkpt lat="46.32734923548057" lon="9.420311437773472"><ele>378.0</ele><time>2026-03-28T11:26:30.999Z</time></trkpt><trkpt lat="46.3273416811115" lon="9.420531159780511"><ele>378.0</ele><time>2026-03-28T11:26:31.999Z</time></trkpt><trkpt lat="46.32731457112392" lon="9.420762464469647"><ele>378.0</ele><time>2026-03-28T11:26:32.999Z</time></trkpt><trkpt lat="46.32726385401151" lon="9.420987366373973"><ele>378.0</ele><time>2026-03-28T11:26:33.999Z</time></trkpt><trkpt lat="46.3272301433794" lon="9.421221931807287"><ele>377.3333333333333</ele><time>2026-03-28T11:26:34.997Z</time></trkpt><trkpt lat="46.327164997039674" lon="9.421450891320847"><ele>376.66666666666663</ele><time>2026-03-28T11:26:35.997Z</time></trkpt><trkpt lat="46.32711903626411" lon="9.421708503168766"><ele>376.0</ele><time>2026-03-28T11:26:36.997Z</time></trkpt><trkpt lat="46.327069243811636" lon="9.421945557931224"><ele>377.0</ele><time>2026-03-28T11:26:37.997Z</time></trkpt><trkpt lat="46.32700589673928" lon="9.422166471867767"><ele>378.0</ele><time>2026-03-28T11:26:38.997Z</time></trkpt><trkpt lat="46.32696889583716" lon="9.42237007147217"><ele>379.0</ele><time>2026-03-28T11:26:39.997Z</time></trkpt><trkpt lat="46.3268888839589" lon="9.422533350449948"><ele>380.0</ele><time>2026-03-28T11:26:40.997Z</time></trkpt><trkpt lat="46.32680982923201" lon="9.42269029977245"><ele>380.0</ele><time>2026-03-28T11:26:41.997Z</time></trkpt><trkpt lat="46.326718378371204" lon="9.422835652179973"><ele>380.0</ele><time>2026-03-28T11:26:42.997Z</time></trkpt><trkpt lat="46.32661846709905" lon="9.42298239318271"><ele>380.0</ele><time>2026-03-28T11:26:43.997Z</time></trkpt><trkpt lat="46.32651764701287" lon="9.423130191035133"><ele>380.0</ele><time>2026-03-28T11:26:44.997Z</time></trkpt><trkpt lat="46.32641812555727" lon="9.42329450212236"><ele>379.6666666666667</ele><time>2026-03-28T11:26:45.997Z</time></trkpt><trkpt lat="46.32632166291269" lon="9.42345313551827"><ele>379.3333333333333</ele><time>2026-03-28T11:26:46.997Z</time></trkpt><trkpt lat="46.32623618554458" lon="9.423634802586603"><ele>379.0</ele><time>2026-03-28T11:26:47.997Z</time></trkpt><trkpt lat="46.32616814987691" lon="9.423846779217586"><ele>379.0</ele><time>2026-03-28T11:26:48.997Z</time></trkpt><trkpt lat="46.32612308396054" lon="9.424076891255982"><ele>379.0</ele><time>2026-03-28T11:26:49.997Z</time></trkpt><trkpt lat="46.32610348974218" lon="9.42431023731663"><ele>379.0</ele><time>2026-03-28T11:26:50.998Z</time></trkpt><trkpt lat="46.32610828391827" lon="9.424574374559082"><ele>380.0</ele><time>2026-03-28T11:26:51.998Z</time></trkpt><trkpt lat="46.32612264931281" lon="9.424878492432526"><ele>381.0</ele><time>2026-03-28T11:26:52.998Z</time></trkpt><trkpt lat="46.32613001525435" lon="9.425206845372815"><ele>382.0</ele><time>2026-03-28T11:26:53.998Z</time></trkpt><trkpt lat="46.32612026750142" lon="9.425557195864815"><ele>383.5</ele><time>2026-03-28T11:26:54.998Z</time></trkpt><trkpt lat="46.32612261434624" lon="9.425906208510659"><ele>385.0</ele><time>2026-03-28T11:26:55.998Z</time></trkpt><trkpt lat="46.32612959759974" lon="9.426223819762738"><ele>385.0</ele><time>2026-03-28T11:26:56.998Z</time></trkpt><trkpt lat="46.32613217546732" lon="9.426508094722752"><ele>385.0</ele><time>2026-03-28T11:26:57.998Z</time></trkpt><trkpt lat="46.3261332610601" lon="9.426793087045041"><ele>385.0</ele><time>2026-03-28T11:26:58.998Z</time></trkpt><trkpt lat="46.32613247733349" lon="9.427079046239443"><ele>385.0</ele><time>2026-03-28T11:26:59.998Z</time></trkpt><trkpt lat="46.32613366953686" lon="9.42736505565384"><ele>385.0</ele><time>2026-03-28T11:27:00.998Z</time></trkpt><trkpt lat="46.32614457753463" lon="9.427652138554746"><ele>385.0</ele><time>2026-03-28T11:27:01.998Z</time></trkpt><trkpt lat="46.32614578802717" lon="9.42793827454095"><ele>385.33333333333337</ele><time>2026-03-28T11:27:02.998Z</time></trkpt><trkpt lat="46.32614707241899" lon="9.428217446838481"><ele>385.66666666666663</ele><time>2026-03-28T11:27:03.998Z</time></trkpt><trkpt lat="46.32616303251464" lon="9.428497165365235"><ele>386.0</ele><time>2026-03-28T11:27:04.998Z</time></trkpt><trkpt lat="46.326198904473316" lon="9.428763990898961"><ele>386.66666666666663</ele><time>2026-03-28T11:27:05.998Z</time></trkpt><trkpt lat="46.32624496818149" lon="9.42902137066713"><ele>387.33333333333337</ele><time>2026-03-28T11:27:06.998Z</time></trkpt><trkpt lat="46.326293482631826" lon="9.429280130332481"><ele>388.0</ele><time>2026-03-28T11:27:07.998Z</time></trkpt><trkpt lat="46.32636062169007" lon="9.429545716096017"><ele>390.6666666666667</ele><time>2026-03-28T11:27:08.999Z</time></trkpt><trkpt lat="46.326440737898785" lon="9.429805400166094"><ele>393.33333333333337</ele><time>2026-03-28T11:27:09.999Z</time></trkpt><trkpt lat="46.326530280980684" lon="9.430043934702171"><ele>396.0</ele><time>2026-03-28T11:27:10.999Z</time></trkpt><trkpt lat="46.32662872407857" lon="9.430268859765425"><ele>395.33333333333337</ele><time>2026-03-28T11:27:11.999Z</time></trkpt><trkpt lat="46.32672566104418" lon="9.430500433828172"><ele>394.6666666666667</ele><time>2026-03-28T11:27:12.999Z</time></trkpt><trkpt lat="46.32683828975371" lon="9.430717307586326"><ele>394.0</ele><time>2026-03-28T11:27:13.999Z</time></trkpt><trkpt lat="46.32695639696047" lon="9.43093307678447"><ele>394.0</ele><time>2026-03-28T11:27:14.999Z</time></trkpt><trkpt lat="46.327071439297825" lon="9.431145262328382"><ele>394.0</ele><time>2026-03-28T11:27:15.999Z</time></trkpt><trkpt lat="46.32718260291153" lon="9.431352309123332"><ele>394.0</ele><time>2026-03-28T11:27:16.999Z</time></trkpt><trkpt lat="46.3272957151399" lon="9.431566896284766"><ele>396.33333333333337</ele><time>2026-03-28T11:27:17.999Z</time></trkpt><trkpt lat="46.32739718815712" lon="9.43178060542815"><ele>398.66666666666663</ele><time>2026-03-28T11:27:18.999Z</time></trkpt><trkpt lat="46.3275008133753" lon="9.431985630937818"><ele>401.0</ele><time>2026-03-28T11:27:19.999Z</time></trkpt><trkpt lat="46.32759730581316" lon="9.432170674078776"><ele>401.0</ele><time>2026-03-28T11:27:20.999Z</time></trkpt><trkpt lat="46.3276913244322" lon="9.432357319577202"><ele>401.0</ele><time>2026-03-28T11:27:21.999Z</time></trkpt><trkpt lat="46.32778482866455" lon="9.432547769477019"><ele>401.0</ele><time>2026-03-28T11:27:22.999Z</time></trkpt><trkpt lat="46.327885988452806" lon="9.432743769946045"><ele>401.0</ele><time>2026-03-28T11:27:23.999Z</time></trkpt><trkpt lat="46.32798739547165" lon="9.432948361791258"><ele>401.0</ele><time>2026-03-28T11:27:24.999Z</time></trkpt><trkpt lat="46.32808916710166" lon="9.433142839118908"><ele>401.0</ele><time>2026-03-28T11:27:25.999Z</time></trkpt><trkpt lat="46.328180798393234" lon="9.433318251113013"><ele>402.5</ele><time>2026-03-28T11:27:26.999Z</time></trkpt><trkpt lat="46.328264516167586" lon="9.433479959734067"><ele>404.0</ele><time>2026-03-28T11:27:27.999Z</time></trkpt><trkpt lat="46.32832725839291" lon="9.433670113881774"><ele>405.5</ele><time>2026-03-28T11:27:28.999Z</time></trkpt><trkpt lat="46.32836247692461" lon="9.433856442004386"><ele>407.0</ele><time>2026-03-28T11:27:29.999Z</time></trkpt><trkpt lat="46.32839730973098" lon="9.434054176099863"><ele>407.25</ele><time>2026-03-28T11:27:30.999Z</time></trkpt><trkpt lat="46.32840513634112" lon="9.434259900414503"><ele>407.5</ele><time>2026-03-28T11:27:31.999Z</time></trkpt><trkpt lat="46.32840918610782" lon="9.43445200855478"><ele>407.75</ele><time>2026-03-28T11:27:32.999Z</time></trkpt><trkpt lat="46.328421744246306" lon="9.434642307453586"><ele>408.0</ele><time>2026-03-28T11:27:33.999Z</time></trkpt><trkpt lat="46.3284358831315" lon="9.434841581356306"><ele>408.5</ele><time>2026-03-28T11:27:34.999Z</time></trkpt><trkpt lat="46.3284486929084" lon="9.435048620639165"><ele>409.0</ele><time>2026-03-28T11:27:35.999Z</time></trkpt><trkpt lat="46.32846421156775" lon="9.43526056535012"><ele>409.5</ele><time>2026-03-28T11:27:36.999Z</time></trkpt><trkpt lat="46.328476586359" lon="9.435477390110632"><ele>410.0</ele><time>2026-03-28T11:27:37.999Z</time></trkpt><trkpt lat="46.328489833656114" lon="9.435696947341441"><ele>410.0</ele><time>2026-03-28T11:27:38.999Z</time></trkpt><trkpt lat="46.328510025748265" lon="9.435910000878788"><ele>410.0</ele><time>2026-03-28T11:27:39.999Z</time></trkpt><trkpt lat="46.328525714511706" lon="9.436131276448107"><ele>410.0</ele><time>2026-03-28T11:27:40.999Z</time></trkpt><trkpt lat="46.328540249767755" lon="9.436368160385063"><ele>410.66666666666663</ele><time>2026-03-28T11:27:41.999Z</time></trkpt><trkpt lat="46.328562819821954" lon="9.436607913360316"><ele>411.33333333333337</ele><time>2026-03-28T11:27:42.999Z</time></trkpt><trkpt lat="46.3285792783109" lon="9.436854107746974"><ele>412.0</ele><time>2026-03-28T11:27:43.999Z</time></trkpt><trkpt lat="46.32859624342237" lon="9.437101915612798"><ele>412.6666666666667</ele><time>2026-03-28T11:27:44.999Z</time></trkpt><trkpt lat="46.32860734912524" lon="9.437343491941595"><ele>413.33333333333337</ele><time>2026-03-28T11:27:45.999Z</time></trkpt><trkpt lat="46.328622531123465" lon="9.437585835861007"><ele>414.0</ele><time>2026-03-28T11:27:46.999Z</time></trkpt><trkpt lat="46.32864122642456" lon="9.437828568586314"><ele>414.33333333333337</ele><time>2026-03-28T11:27:47.999Z</time></trkpt><trkpt lat="46.328656871130505" lon="9.438065641351017"><ele>414.6666666666667</ele><time>2026-03-28T11:27:48.999Z</time></trkpt><trkpt lat="46.328672215221324" lon="9.438302511825405"><ele>415.0</ele><time>2026-03-28T11:27:49.999Z</time></trkpt><trkpt lat="46.3286896885124" lon="9.438539482058406"><ele>415.0</ele><time>2026-03-28T11:27:50.999Z</time></trkpt><trkpt lat="46.328711276731774" lon="9.438773712241712"><ele>415.0</ele><time>2026-03-28T11:27:51.999Z</time></trkpt><trkpt lat="46.32874876465735" lon="9.438998716285983"><ele>415.0</ele><time>2026-03-28T11:27:52.999Z</time></trkpt><trkpt lat="46.32880100281266" lon="9.439205617795853"><ele>414.6666666666667</ele><time>2026-03-28T11:27:53.999Z</time></trkpt><trkpt lat="46.32888293937199" lon="9.439406733460538"><ele>414.33333333333337</ele><time>2026-03-28T11:27:54.999Z</time></trkpt><trkpt lat="46.32894979684572" lon="9.439602646820376"><ele>414.0</ele><time>2026-03-28T11:27:55.999Z</time></trkpt><trkpt lat="46.329025812312594" lon="9.439799508644356"><ele>417.0</ele><time>2026-03-28T11:27:56.999Z</time></trkpt><trkpt lat="46.32911785366797" lon="9.439982749115348"><ele>420.0</ele><time>2026-03-28T11:27:57.999Z</time></trkpt><trkpt lat="46.32919715745686" lon="9.440170794123443"><ele>423.0</ele><time>2026-03-28T11:27:58.999Z</time></trkpt><trkpt lat="46.32925266883284" lon="9.440379894846602"><ele>422.66666666666663</ele><time>2026-03-28T11:27:59.999Z</time></trkpt><trkpt lat="46.329288101476635" lon="9.44061044191834"><ele>422.3333333333333</ele><time>2026-03-28T11:28:00.999Z</time></trkpt><trkpt lat="46.32931024145123" lon="9.440840137866005"><ele>422.0</ele><time>2026-03-28T11:28:01.999Z</time></trkpt><trkpt lat="46.329318081868706" lon="9.44108170888387"><ele>422.66666666666663</ele><time>2026-03-28T11:28:02.999Z</time></trkpt><trkpt lat="46.329311901327685" lon="9.441329982504989"><ele>423.33333333333337</ele><time>2026-03-28T11:28:03.999Z</time></trkpt><trkpt lat="46.32929734539148" lon="9.441578149449699"><ele>424.0</ele><time>2026-03-28T11:28:04.999Z</time></trkpt><trkpt lat="46.3292899063283" lon="9.441812221491723"><ele>424.0</ele><time>2026-03-28T11:28:05.999Z</time></trkpt><trkpt lat="46.32928262070366" lon="9.44203503251572"><ele>424.0</ele><time>2026-03-28T11:28:06.999Z</time></trkpt><trkpt lat="46.32926672481982" lon="9.442258996458467"><ele>424.0</ele><time>2026-03-28T11:28:07.999Z</time></trkpt><trkpt lat="46.3292351052739" lon="9.4424720982096"><ele>427.6666666666667</ele><time>2026-03-28T11:28:08.999Z</time></trkpt><trkpt lat="46.32915983542046" lon="9.442660637441723"><ele>431.33333333333337</ele><time>2026-03-28T11:28:09.999Z</time></trkpt><trkpt lat="46.32908688162681" lon="9.442858130494747"><ele>435.0</ele><time>2026-03-28T11:28:10.999Z</time></trkpt><trkpt lat="46.329019310332825" lon="9.443062860061595"><ele>431.33333333333337</ele><time>2026-03-28T11:28:11.999Z</time></trkpt><trkpt lat="46.3289423510911" lon="9.443261498736469"><ele>427.6666666666667</ele><time>2026-03-28T11:28:12.999Z</time></trkpt><trkpt lat="46.328863608646785" lon="9.443473557135977"><ele>424.0</ele><time>2026-03-28T11:28:13.999Z</time></trkpt><trkpt lat="46.328784368704625" lon="9.443677038372027"><ele>428.0</ele><time>2026-03-28T11:28:14.999Z</time></trkpt><trkpt lat="46.328717843720945" lon="9.443879145764178"><ele>432.0</ele><time>2026-03-28T11:28:15.999Z</time></trkpt><trkpt lat="46.328640709664505" lon="9.444084644509802"><ele>436.0</ele><time>2026-03-28T11:28:16.999Z</time></trkpt><trkpt lat="46.328584660434544" lon="9.444314726726626"><ele>436.0</ele><time>2026-03-28T11:28:17.999Z</time></trkpt><trkpt lat="46.328529913165276" lon="9.444544973265586"><ele>436.0</ele><time>2026-03-28T11:28:18.999Z</time></trkpt><trkpt lat="46.328498216147054" lon="9.444777611126874"><ele>436.0</ele><time>2026-03-28T11:28:19.999Z</time></trkpt><trkpt lat="46.328459365267804" lon="9.445030249036497"><ele>437.6666666666667</ele><time>2026-03-28T11:28:20.999Z</time></trkpt><trkpt lat="46.328417091865866" lon="9.445256034291047"><ele>439.33333333333337</ele><time>2026-03-28T11:28:21.999Z</time></trkpt><trkpt lat="46.3283754765693" lon="9.44548263607421"><ele>441.0</ele><time>2026-03-28T11:28:22.999Z</time></trkpt><trkpt lat="46.328333849069274" lon="9.445704012335021"><ele>443.33333333333337</ele><time>2026-03-28T11:28:23.999Z</time></trkpt><trkpt lat="46.32829302372405" lon="9.445928204536335"><ele>445.6666666666667</ele><time>2026-03-28T11:28:24.999Z</time></trkpt><trkpt lat="46.32825519510694" lon="9.446158707548218"><ele>448.0</ele><time>2026-03-28T11:28:25.999Z</time></trkpt><trkpt lat="46.32821465122477" lon="9.446385959588396"><ele>452.33333333333337</ele><time>2026-03-28T11:28:26.999Z</time></trkpt><trkpt lat="46.328172797837546" lon="9.446609686030731"><ele>456.66666666666663</ele><time>2026-03-28T11:28:27.999Z</time></trkpt><trkpt lat="46.328148586827986" lon="9.44684004888559"><ele>461.0</ele><time>2026-03-28T11:28:28.999Z</time></trkpt><trkpt lat="46.32813863777747" lon="9.44707478542308"><ele>465.0</ele><time>2026-03-28T11:28:29.999Z</time></trkpt><trkpt lat="46.3281386284553" lon="9.447315624039172"><ele>469.0</ele><time>2026-03-28T11:28:30.999Z</time></trkpt><trkpt lat="46.32813850615513" lon="9.447549278868038"><ele>473.0</ele><time>2026-03-28T11:28:31.999Z</time></trkpt><trkpt lat="46.328129864018216" lon="9.447780519722313"><ele>476.0</ele><time>2026-03-28T11:28:33Z</time></trkpt><trkpt lat="46.3281088924439" lon="9.448009667403072"><ele>479.0</ele><time>2026-03-28T11:28:34Z</time></trkpt><trkpt lat="46.32808341096657" lon="9.448233340335042"><ele>482.0</ele><time>2026-03-28T11:28:35Z</time></trkpt><trkpt lat="46.32806523024281" lon="9.448451688353423"><ele>482.66666666666663</ele><time>2026-03-28T11:28:36Z</time></trkpt><trkpt lat="46.32805708858246" lon="9.448665981912079"><ele>483.33333333333337</ele><time>2026-03-28T11:28:37Z</time></trkpt><trkpt lat="46.328068869700154" lon="9.448881182981422"><ele>484.0</ele><time>2026-03-28T11:28:38Z</time></trkpt><trkpt lat="46.32809578705566" lon="9.44910383399269"><ele>484.0</ele><time>2026-03-28T11:28:39Z</time></trkpt><trkpt lat="46.328119530127104" lon="9.449331511115458"><ele>484.0</ele><time>2026-03-28T11:28:40Z</time></trkpt><trkpt lat="46.32813847018673" lon="9.449558208563245"><ele>484.0</ele><time>2026-03-28T11:28:40.998Z</time></trkpt><trkpt lat="46.32814189276226" lon="9.44978073424633"><ele>486.33333333333337</ele><time>2026-03-28T11:28:41.998Z</time></trkpt><trkpt lat="46.328123882949015" lon="9.450006734794636"><ele>488.66666666666663</ele><time>2026-03-28T11:28:42.998Z</time></trkpt><trkpt lat="46.32807510938925" lon="9.450225597235328"><ele>491.0</ele><time>2026-03-28T11:28:43.998Z</time></trkpt><trkpt lat="46.32804105522363" lon="9.450449724686898"><ele>478.3333333333333</ele><time>2026-03-28T11:28:44.998Z</time></trkpt><trkpt lat="46.32800913134437" lon="9.45068097579982"><ele>465.66666666666663</ele><time>2026-03-28T11:28:45.998Z</time></trkpt><trkpt lat="46.32800060507924" lon="9.450924507621014"><ele>453.0</ele><time>2026-03-28T11:28:46.998Z</time></trkpt><trkpt lat="46.327987400268874" lon="9.45117221303134"><ele>457.0</ele><time>2026-03-28T11:28:47.998Z</time></trkpt><trkpt lat="46.32798693948963" lon="9.451407304347237"><ele>461.0</ele><time>2026-03-28T11:28:48.998Z</time></trkpt><trkpt lat="46.32797986626485" lon="9.451633321651304"><ele>465.0</ele><time>2026-03-28T11:28:49.998Z</time></trkpt><trkpt lat="46.327925670837296" lon="9.45184176537986"><ele>465.0</ele><time>2026-03-28T11:28:50.998Z</time></trkpt><trkpt lat="46.32782524471802" lon="9.452019589719855"><ele>465.0</ele><time>2026-03-28T11:28:51.998Z</time></trkpt><trkpt lat="46.327699487508504" lon="9.452163838017604"><ele>465.0</ele><time>2026-03-28T11:28:52.998Z</time></trkpt><trkpt lat="46.32757953502612" lon="9.452318755651994"><ele>472.0</ele><time>2026-03-28T11:28:53.998Z</time></trkpt><trkpt lat="46.327466421131554" lon="9.452484845413055"><ele>479.0</ele><time>2026-03-28T11:28:54.998Z</time></trkpt><trkpt lat="46.32734630432656" lon="9.452643301623976"><ele>486.0</ele><time>2026-03-28T11:28:55.999Z</time></trkpt><trkpt lat="46.327230288490234" lon="9.452807637804483"><ele>485.0</ele><time>2026-03-28T11:28:56.999Z</time></trkpt><trkpt lat="46.32711173426927" lon="9.452968908602717"><ele>484.0</ele><time>2026-03-28T11:28:57.999Z</time></trkpt><trkpt lat="46.32699634575934" lon="9.453131682664653"><ele>483.0</ele><time>2026-03-28T11:28:58.999Z</time></trkpt><trkpt lat="46.326881716137486" lon="9.453296947808632"><ele>483.0</ele><time>2026-03-28T11:28:59.999Z</time></trkpt><trkpt lat="46.326768463245045" lon="9.453464501729462"><ele>483.0</ele><time>2026-03-28T11:29:00.999Z</time></trkpt><trkpt lat="46.32667560259457" lon="9.45366064746185"><ele>483.0</ele><time>2026-03-28T11:29:01.999Z</time></trkpt><trkpt lat="46.326586912682956" lon="9.453848466510516"><ele>484.75</ele><time>2026-03-28T11:29:02.999Z</time></trkpt><trkpt lat="46.32651078643187" lon="9.454026060473092"><ele>486.5</ele><time>2026-03-28T11:29:03.999Z</time></trkpt><trkpt lat="46.32641586382038" lon="9.454185633265606"><ele>488.25</ele><time>2026-03-28T11:29:04.999Z</time></trkpt><trkpt lat="46.326297133888794" lon="9.454319167693209"><ele>490.0</ele><time>2026-03-28T11:29:05.999Z</time></trkpt><trkpt lat="46.32616051211735" lon="9.454417347430175"><ele>490.0</ele><time>2026-03-28T11:29:06.999Z</time></trkpt><trkpt lat="46.32601737628349" lon="9.45453534882113"><ele>490.0</ele><time>2026-03-28T11:29:07.999Z</time></trkpt><trkpt lat="46.32588165306338" lon="9.454637726380959"><ele>490.0</ele><time>2026-03-28T11:29:08.999Z</time></trkpt><trkpt lat="46.325759065602725" lon="9.454761225065964"><ele>494.0</ele><time>2026-03-28T11:29:09.999Z</time></trkpt><trkpt lat="46.32565282656258" lon="9.454932615432885"><ele>498.0</ele><time>2026-03-28T11:29:10.999Z</time></trkpt><trkpt lat="46.325580385520794" lon="9.455141181904299"><ele>502.0</ele><time>2026-03-28T11:29:11.999Z</time></trkpt><trkpt lat="46.32552579624778" lon="9.455352059561411"><ele>501.33333333333337</ele><time>2026-03-28T11:29:12.999Z</time></trkpt><trkpt lat="46.32547975669064" lon="9.455584558598906"><ele>500.66666666666663</ele><time>2026-03-28T11:29:13.999Z</time></trkpt><trkpt lat="46.32545586808529" lon="9.455835105238"><ele>500.0</ele><time>2026-03-28T11:29:14.999Z</time></trkpt><trkpt lat="46.3254332681411" lon="9.456075823560253"><ele>501.0</ele><time>2026-03-28T11:29:15.999Z</time></trkpt><trkpt lat="46.32542278017752" lon="9.456324789110708"><ele>502.0</ele><time>2026-03-28T11:29:16.999Z</time></trkpt><trkpt lat="46.32540086837983" lon="9.456569007311222"><ele>503.0</ele><time>2026-03-28T11:29:17.999Z</time></trkpt><trkpt lat="46.3253802601754" lon="9.456811440771613"><ele>503.0</ele><time>2026-03-28T11:29:18.999Z</time></trkpt><trkpt lat="46.32536453868977" lon="9.457035026285963"><ele>503.0</ele><time>2026-03-28T11:29:19.999Z</time></trkpt><trkpt lat="46.325356923482836" lon="9.45723682369371"><ele>503.0</ele><time>2026-03-28T11:29:20.999Z</time></trkpt><trkpt lat="46.325356790904834" lon="9.457410709097491"><ele>503.0</ele><time>2026-03-28T11:29:21.999Z</time></trkpt><trkpt lat="46.325425890119156" lon="9.457561560786512"><ele>503.5</ele><time>2026-03-28T11:29:22.999Z</time></trkpt><trkpt lat="46.32548704417197" lon="9.457708301632787"><ele>504.0</ele><time>2026-03-28T11:29:23.999Z</time></trkpt><trkpt lat="46.32555041693114" lon="9.45785736277189"><ele>504.5</ele><time>2026-03-28T11:29:24.999Z</time></trkpt><trkpt lat="46.32562235702067" lon="9.458004970362103"><ele>505.0</ele><time>2026-03-28T11:29:26Z</time></trkpt><trkpt lat="46.325689800624346" lon="9.458178330648737"><ele>508.33333333333337</ele><time>2026-03-28T11:29:27Z</time></trkpt><trkpt lat="46.32580741419136" lon="9.458318140272032"><ele>511.66666666666663</ele><time>2026-03-28T11:29:28Z</time></trkpt><trkpt lat="46.325937466488796" lon="9.45845588181524"><ele>515.0</ele><time>2026-03-28T11:29:29Z</time></trkpt><trkpt lat="46.32606887327331" lon="9.45860116718119"><ele>515.0</ele><time>2026-03-28T11:29:30Z</time></trkpt><trkpt lat="46.326171847869404" lon="9.458762500474405"><ele>515.0</ele><time>2026-03-28T11:29:31Z</time></trkpt><trkpt lat="46.326238180353634" lon="9.45896082675557"><ele>515.0</ele><time>2026-03-28T11:29:32Z</time></trkpt><trkpt lat="46.32625071684451" lon="9.459175350885397"><ele>514.6666666666666</ele><time>2026-03-28T11:29:33Z</time></trkpt><trkpt lat="46.32625739818369" lon="9.459394208728108"><ele>514.3333333333334</ele><time>2026-03-28T11:29:34Z</time></trkpt><trkpt lat="46.32627443425492" lon="9.459627168820722"><ele>514.0</ele><time>2026-03-28T11:29:35Z</time></trkpt><trkpt lat="46.326270270949195" lon="9.459869970085476"><ele>514.0</ele><time>2026-03-28T11:29:36Z</time></trkpt><trkpt lat="46.3262818336628" lon="9.460115169695152"><ele>514.0</ele><time>2026-03-28T11:29:37Z</time></trkpt><trkpt lat="46.326321141641685" lon="9.460365147591999"><ele>514.0</ele><time>2026-03-28T11:29:38Z</time></trkpt><trkpt lat="46.32638470466293" lon="9.460609007851014"><ele>519.0</ele><time>2026-03-28T11:29:39Z</time></trkpt><trkpt lat="46.326471123288066" lon="9.460846128595577"><ele>524.0</ele><time>2026-03-28T11:29:40Z</time></trkpt><trkpt lat="46.32655604473757" lon="9.461078676377854"><ele>529.0</ele><time>2026-03-28T11:29:41Z</time></trkpt><trkpt lat="46.326627971691224" lon="9.461298382583642"><ele>529.0</ele><time>2026-03-28T11:29:42Z</time></trkpt><trkpt lat="46.32670295306523" lon="9.461521038348668"><ele>529.0</ele><time>2026-03-28T11:29:43Z</time></trkpt><trkpt lat="46.326768507591225" lon="9.461743219365527"><ele>529.0</ele><time>2026-03-28T11:29:44Z</time></trkpt><trkpt lat="46.32680480035517" lon="9.461978519534526"><ele>530.0</ele><time>2026-03-28T11:29:45Z</time></trkpt><trkpt lat="46.32679654839624" lon="9.46223063009994"><ele>531.0</ele><time>2026-03-28T11:29:46Z</time></trkpt><trkpt lat="46.32673331450743" lon="9.462468354985777"><ele>532.0</ele><time>2026-03-28T11:29:47Z</time></trkpt><trkpt lat="46.3266801102545" lon="9.462718661283997"><ele>534.6666666666667</ele><time>2026-03-28T11:29:48Z</time></trkpt><trkpt lat="46.326607878046005" lon="9.462957615736865"><ele>537.3333333333334</ele><time>2026-03-28T11:29:49Z</time></trkpt><trkpt lat="46.32654346137712" lon="9.463195162706995"><ele>540.0</ele><time>2026-03-28T11:29:50Z</time></trkpt><trkpt lat="46.32649962308041" lon="9.463430461235664"><ele>540.0</ele><time>2026-03-28T11:29:51Z</time></trkpt><trkpt lat="46.32649395690697" lon="9.463669980617087"><ele>540.0</ele><time>2026-03-28T11:29:52Z</time></trkpt><trkpt lat="46.32653896068973" lon="9.463923849474293"><ele>540.0</ele><time>2026-03-28T11:29:53Z</time></trkpt><trkpt lat="46.32660652917579" lon="9.464159010332923"><ele>540.0</ele><time>2026-03-28T11:29:54Z</time></trkpt><trkpt lat="46.326704305058925" lon="9.464357014248463"><ele>540.0</ele><time>2026-03-28T11:29:55Z</time></trkpt><trkpt lat="46.32682115003345" lon="9.46451353686407"><ele>540.0</ele><time>2026-03-28T11:29:56Z</time></trkpt><trkpt lat="46.32696533257226" lon="9.464640051685898"><ele>540.0</ele><time>2026-03-28T11:29:57Z</time></trkpt><trkpt lat="46.327108023736" lon="9.464765863737728"><ele>540.0</ele><time>2026-03-28T11:29:58Z</time></trkpt><trkpt lat="46.32723334481903" lon="9.464917611340786"><ele>540.0</ele><time>2026-03-28T11:29:59Z</time></trkpt><trkpt lat="46.32734755436992" lon="9.465108992127684"><ele>542.6666666666666</ele><time>2026-03-28T11:30:00Z</time></trkpt><trkpt lat="46.32743321544259" lon="9.46534446559202"><ele>545.3333333333333</ele><time>2026-03-28T11:30:01Z</time></trkpt><trkpt lat="46.327539380092674" lon="9.465565148691091"><ele>548.0</ele><time>2026-03-28T11:30:02Z</time></trkpt><trkpt lat="46.327626119757696" lon="9.465808134642112"><ele>548.0</ele><time>2026-03-28T11:30:03Z</time></trkpt><trkpt lat="46.327702388897954" lon="9.466057050767805"><ele>548.0</ele><time>2026-03-28T11:30:04Z</time></trkpt><trkpt lat="46.327742610840296" lon="9.46631033395785"><ele>548.0</ele><time>2026-03-28T11:30:05Z</time></trkpt><trkpt lat="46.32776915776858" lon="9.466559578450548"><ele>546.6666666666666</ele><time>2026-03-28T11:30:06Z</time></trkpt><trkpt lat="46.32778195864386" lon="9.466803568505927"><ele>545.3333333333334</ele><time>2026-03-28T11:30:07Z</time></trkpt><trkpt lat="46.32777476106462" lon="9.467049420694652"><ele>544.0</ele><time>2026-03-28T11:30:08Z</time></trkpt><trkpt lat="46.32775096559695" lon="9.46729679769945"><ele>544.0</ele><time>2026-03-28T11:30:09Z</time></trkpt><trkpt lat="46.32771209051564" lon="9.467541858500498"><ele>544.0</ele><time>2026-03-28T11:30:10Z</time></trkpt><trkpt lat="46.32769372874753" lon="9.467772605301523"><ele>544.0</ele><time>2026-03-28T11:30:11Z</time></trkpt><trkpt lat="46.32770986290178" lon="9.467996862153122"><ele>543.0</ele><time>2026-03-28T11:30:12Z</time></trkpt><trkpt lat="46.32775738794807" lon="9.468219295175942"><ele>542.0</ele><time>2026-03-28T11:30:13Z</time></trkpt><trkpt lat="46.327813334872204" lon="9.46843396198543"><ele>541.0</ele><time>2026-03-28T11:30:14Z</time></trkpt><trkpt lat="46.32786863581835" lon="9.468642323755807"><ele>541.75</ele><time>2026-03-28T11:30:15Z</time></trkpt><trkpt lat="46.327883017880666" lon="9.468849896947406"><ele>542.5</ele><time>2026-03-28T11:30:16Z</time></trkpt><trkpt lat="46.32785279581695" lon="9.469039995773432"><ele>543.25</ele><time>2026-03-28T11:30:17Z</time></trkpt><trkpt lat="46.327799550445874" lon="9.4692349813429"><ele>544.0</ele><time>2026-03-28T11:30:18Z</time></trkpt><trkpt lat="46.32775001325256" lon="9.469433256801505"><ele>544.5</ele><time>2026-03-28T11:30:19Z</time></trkpt><trkpt lat="46.327718010706675" lon="9.469637627547215"><ele>545.0</ele><time>2026-03-28T11:30:20Z</time></trkpt><trkpt lat="46.32769591245827" lon="9.469848913886258"><ele>545.5</ele><time>2026-03-28T11:30:21Z</time></trkpt><trkpt lat="46.32770012042465" lon="9.470059297769218"><ele>546.0</ele><time>2026-03-28T11:30:22Z</time></trkpt><trkpt lat="46.327729249583236" lon="9.470267160156602"><ele>547.0</ele><time>2026-03-28T11:30:23Z</time></trkpt><trkpt lat="46.327783335787025" lon="9.470467361284104"><ele>548.0</ele><time>2026-03-28T11:30:24Z</time></trkpt><trkpt lat="46.32785628451859" lon="9.470666162114801"><ele>549.0</ele><time>2026-03-28T11:30:25Z</time></trkpt><trkpt lat="46.32793613068081" lon="9.470867557755314"><ele>549.0</ele><time>2026-03-28T11:30:26Z</time></trkpt><trkpt lat="46.328016608003345" lon="9.471066233319823"><ele>549.0</ele><time>2026-03-28T11:30:27Z</time></trkpt><trkpt lat="46.32809960180128" lon="9.471262635972057"><ele>549.0</ele><time>2026-03-28T11:30:28Z</time></trkpt><trkpt lat="46.32817897725212" lon="9.471461289884807"><ele>559.0</ele><time>2026-03-28T11:30:29Z</time></trkpt><trkpt lat="46.328254514653885" lon="9.471657153544506"><ele>569.0</ele><time>2026-03-28T11:30:30Z</time></trkpt><trkpt lat="46.3283310679566" lon="9.471846999614732"><ele>579.0</ele><time>2026-03-28T11:30:31Z</time></trkpt><trkpt lat="46.32840234169898" lon="9.472034984575702"><ele>577.0</ele><time>2026-03-28T11:30:32Z</time></trkpt><trkpt lat="46.32846049286588" lon="9.47224121601269"><ele>575.0</ele><time>2026-03-28T11:30:33Z</time></trkpt><trkpt lat="46.32849587931974" lon="9.472464605875183"><ele>573.0</ele><time>2026-03-28T11:30:34Z</time></trkpt><trkpt lat="46.32850767567829" lon="9.472700346847407"><ele>573.0</ele><time>2026-03-28T11:30:35.001Z</time></trkpt><trkpt lat="46.328516141342796" lon="9.47294282082156"><ele>573.0</ele><time>2026-03-28T11:30:36.001Z</time></trkpt><trkpt lat="46.328527936837126" lon="9.473188121308965"><ele>573.0</ele><time>2026-03-28T11:30:37.001Z</time></trkpt><trkpt lat="46.328539315169685" lon="9.473440787296203"><ele>573.0</ele><time>2026-03-28T11:30:38.001Z</time></trkpt><trkpt lat="46.3285543449228" lon="9.473689052915425"><ele>573.0</ele><time>2026-03-28T11:30:39.001Z</time></trkpt><trkpt lat="46.32856372608498" lon="9.473936267682108"><ele>573.0</ele><time>2026-03-28T11:30:40.001Z</time></trkpt><trkpt lat="46.32853911506638" lon="9.474168465606237"><ele>574.3333333333334</ele><time>2026-03-28T11:30:41.001Z</time></trkpt><trkpt lat="46.328493809717735" lon="9.474393680034455"><ele>575.6666666666667</ele><time>2026-03-28T11:30:42.001Z</time></trkpt><trkpt lat="46.328445006703106" lon="9.474614812511014"><ele>577.0</ele><time>2026-03-28T11:30:43.001Z</time></trkpt><trkpt lat="46.328420077800466" lon="9.474835053801149"><ele>579.3333333333334</ele><time>2026-03-28T11:30:44.001Z</time></trkpt><trkpt lat="46.328420123749645" lon="9.47505786297206"><ele>581.6666666666666</ele><time>2026-03-28T11:30:45.001Z</time></trkpt><trkpt lat="46.32844336769474" lon="9.475276161820046"><ele>584.0</ele><time>2026-03-28T11:30:46.001Z</time></trkpt><trkpt lat="46.32849618540298" lon="9.475483628319669"><ele>584.6666666666666</ele><time>2026-03-28T11:30:47Z</time></trkpt><trkpt lat="46.32853517593129" lon="9.475706549516648"><ele>585.3333333333334</ele><time>2026-03-28T11:30:48Z</time></trkpt><trkpt lat="46.328574613601496" lon="9.475923473284869"><ele>586.0</ele><time>2026-03-28T11:30:49Z</time></trkpt><trkpt lat="46.328612883897804" lon="9.476130312344791"><ele>586.25</ele><time>2026-03-28T11:30:50Z</time></trkpt><trkpt lat="46.32864783471898" lon="9.476326280810905"><ele>586.5</ele><time>2026-03-28T11:30:51Z</time></trkpt><trkpt lat="46.328686239885336" lon="9.476521580169118"><ele>586.75</ele><time>2026-03-28T11:30:52Z</time></trkpt><trkpt lat="46.32872525526967" lon="9.476723259288399"><ele>587.0</ele><time>2026-03-28T11:30:53Z</time></trkpt><trkpt lat="46.32876433737375" lon="9.476921964074196"><ele>586.0</ele><time>2026-03-28T11:30:54Z</time></trkpt><trkpt lat="46.32881493796953" lon="9.477122720003468"><ele>585.0</ele><time>2026-03-28T11:30:55Z</time></trkpt><trkpt lat="46.32888170713859" lon="9.477314440646627"><ele>584.0</ele><time>2026-03-28T11:30:56Z</time></trkpt><trkpt lat="46.32897030306335" lon="9.477490257330524"><ele>583.0</ele><time>2026-03-28T11:30:57Z</time></trkpt><trkpt lat="46.329076973688" lon="9.477659186871024"><ele>588.3333333333334</ele><time>2026-03-28T11:30:58Z</time></trkpt><trkpt lat="46.32919280194656" lon="9.477830124400745"><ele>593.6666666666666</ele><time>2026-03-28T11:30:59Z</time></trkpt><trkpt lat="46.32931792965006" lon="9.478005929827393"><ele>599.0</ele><time>2026-03-28T11:31:00Z</time></trkpt><trkpt lat="46.3294492776609" lon="9.478180975635524"><ele>599.0</ele><time>2026-03-28T11:31:01Z</time></trkpt><trkpt lat="46.32957174083665" lon="9.478356350102516"><ele>599.0</ele><time>2026-03-28T11:31:02Z</time></trkpt><trkpt lat="46.329692284185604" lon="9.478541109596263"><ele>599.0</ele><time>2026-03-28T11:31:03Z</time></trkpt><trkpt lat="46.32980099181357" lon="9.47874332969729"><ele>603.0</ele><time>2026-03-28T11:31:04Z</time></trkpt><trkpt lat="46.329894343414956" lon="9.478971983297058"><ele>607.0</ele><time>2026-03-28T11:31:05Z</time></trkpt><trkpt lat="46.32997999912834" lon="9.479215457632023"><ele>611.0</ele><time>2026-03-28T11:31:06Z</time></trkpt><trkpt lat="46.33006373590605" lon="9.479456121966873"><ele>610.0</ele><time>2026-03-28T11:31:07Z</time></trkpt><trkpt lat="46.33015550556489" lon="9.479696512106335"><ele>609.0</ele><time>2026-03-28T11:31:08Z</time></trkpt><trkpt lat="46.33024417576686" lon="9.47993381842212"><ele>608.0</ele><time>2026-03-28T11:31:09Z</time></trkpt><trkpt lat="46.33032842039967" lon="9.480162552627135"><ele>608.0</ele><time>2026-03-28T11:31:10Z</time></trkpt><trkpt lat="46.33041174497915" lon="9.480375784954553"><ele>608.0</ele><time>2026-03-28T11:31:11Z</time></trkpt><trkpt lat="46.330492395267896" lon="9.480581080984003"><ele>608.0</ele><time>2026-03-28T11:31:12Z</time></trkpt><trkpt lat="46.330571090399026" lon="9.480785071146808"><ele>610.0</ele><time>2026-03-28T11:31:13Z</time></trkpt><trkpt lat="46.33065122133983" lon="9.480985034815646"><ele>612.0</ele><time>2026-03-28T11:31:14Z</time></trkpt><trkpt lat="46.33072847443983" lon="9.481186482547775"><ele>614.0</ele><time>2026-03-28T11:31:15Z</time></trkpt><trkpt lat="46.33080099669113" lon="9.481370371716878"><ele>614.0</ele><time>2026-03-28T11:31:16Z</time></trkpt><trkpt lat="46.33087318103636" lon="9.481551801880148"><ele>614.0</ele><time>2026-03-28T11:31:17Z</time></trkpt><trkpt lat="46.33094305690063" lon="9.48173079170016"><ele>614.0</ele><time>2026-03-28T11:31:18Z</time></trkpt><trkpt lat="46.33100565619676" lon="9.481901536844886"><ele>614.0</ele><time>2026-03-28T11:31:19Z</time></trkpt><trkpt lat="46.33104741729306" lon="9.48207708029787"><ele>614.8</ele><time>2026-03-28T11:31:20Z</time></trkpt><trkpt lat="46.33105263109065" lon="9.482260184967188"><ele>615.5999999999999</ele><time>2026-03-28T11:31:21Z</time></trkpt><trkpt lat="46.33100600896801" lon="9.48239594814791"><ele>616.4</ele><time>2026-03-28T11:31:22Z</time></trkpt><trkpt lat="46.33095417738961" lon="9.482512716929733"><ele>617.1999999999999</ele><time>2026-03-28T11:31:23Z</time></trkpt><trkpt lat="46.330895043109585" lon="9.482600511298555"><ele>618.0</ele><time>2026-03-28T11:31:24Z</time></trkpt><trkpt lat="46.33079389975385" lon="9.482739323128126"><ele>618.0</ele><time>2026-03-28T11:31:25Z</time></trkpt><trkpt lat="46.33069566631698" lon="9.482926330678717"><ele>618.0</ele><time>2026-03-28T11:31:26Z</time></trkpt><trkpt lat="46.330597905495225" lon="9.483060481204733"><ele>618.0</ele><time>2026-03-28T11:31:27Z</time></trkpt><trkpt lat="46.330516851127" lon="9.483187511570582"><ele>618.0</ele><time>2026-03-28T11:31:28Z</time></trkpt><trkpt lat="46.33042976116338" lon="9.483293243515348"><ele>618.0</ele><time>2026-03-28T11:31:29Z</time></trkpt><trkpt lat="46.33033643842676" lon="9.4833674283812"><ele>618.0</ele><time>2026-03-28T11:31:30Z</time></trkpt><trkpt lat="46.33021996094898" lon="9.483377097584077"><ele>618.0</ele><time>2026-03-28T11:31:31Z</time></trkpt><trkpt lat="46.3300952280977" lon="9.483404338708933"><ele>618.0</ele><time>2026-03-28T11:31:32Z</time></trkpt><trkpt lat="46.329968705497095" lon="9.483430040912584"><ele>618.0</ele><time>2026-03-28T11:31:33Z</time></trkpt><trkpt lat="46.32985405058156" lon="9.483453332276943"><ele>618.0</ele><time>2026-03-28T11:31:34Z</time></trkpt><trkpt lat="46.32974827603922" lon="9.483479321389336"><ele>618.0</ele><time>2026-03-28T11:31:35Z</time></trkpt><trkpt lat="46.32966130992978" lon="9.48353304250078"><ele>618.0</ele><time>2026-03-28T11:31:36Z</time></trkpt><trkpt lat="46.329601715974114" lon="9.483623264949287"><ele>618.0</ele><time>2026-03-28T11:31:37Z</time></trkpt><trkpt lat="46.32955973608562" lon="9.483720910474032"><ele>619.6666666666666</ele><time>2026-03-28T11:31:38Z</time></trkpt><trkpt lat="46.32955508282003" lon="9.483850802521149"><ele>621.3333333333334</ele><time>2026-03-28T11:31:39Z</time></trkpt><trkpt lat="46.32955480732602" lon="9.483959719553765"><ele>623.0</ele><time>2026-03-28T11:31:40Z</time></trkpt><trkpt lat="46.32957650248279" lon="9.484080761735678"><ele>624.6666666666667</ele><time>2026-03-28T11:31:41Z</time></trkpt><trkpt lat="46.32962252915182" lon="9.484172052841847"><ele>626.3333333333334</ele><time>2026-03-28T11:31:42Z</time></trkpt><trkpt lat="46.329683055043354" lon="9.484240816500918"><ele>628.0</ele><time>2026-03-28T11:31:43Z</time></trkpt><trkpt lat="46.32975325325961" lon="9.484310565279118"><ele>628.0</ele><time>2026-03-28T11:31:44Z</time></trkpt><trkpt lat="46.329828154373985" lon="9.484386801534683"><ele>628.0</ele><time>2026-03-28T11:31:45Z</time></trkpt><trkpt lat="46.329905267468035" lon="9.484455484989324"><ele>628.0</ele><time>2026-03-28T11:31:46Z</time></trkpt><trkpt lat="46.3299901421947" lon="9.484556707972478"><ele>628.0</ele><time>2026-03-28T11:31:47Z</time></trkpt><trkpt lat="46.3300743023291" lon="9.484682305211818"><ele>628.0</ele><time>2026-03-28T11:31:48Z</time></trkpt><trkpt lat="46.33012484642976" lon="9.484826021273623"><ele>626.75</ele><time>2026-03-28T11:31:49.001Z</time></trkpt><trkpt lat="46.33015022651494" lon="9.484990977731613"><ele>625.5</ele><time>2026-03-28T11:31:50.001Z</time></trkpt><trkpt lat="46.33014502825882" lon="9.485180886917165"><ele>624.25</ele><time>2026-03-28T11:31:51.001Z</time></trkpt><trkpt lat="46.33016550326563" lon="9.485400714370666"><ele>623.0</ele><time>2026-03-28T11:31:52.001Z</time></trkpt><trkpt lat="46.33022623639655" lon="9.485681954538132"><ele>619.75</ele><time>2026-03-28T11:31:53.001Z</time></trkpt><trkpt lat="46.33025936110426" lon="9.485842140825664"><ele>616.5</ele><time>2026-03-28T11:31:55.001Z</time></trkpt><trkpt lat="46.33032818623478" lon="9.485999891499002"><ele>613.25</ele><time>2026-03-28T11:31:56.001Z</time></trkpt><trkpt lat="46.33038942401088" lon="9.486160552071812"><ele>610.0</ele><time>2026-03-28T11:31:57.001Z</time></trkpt><trkpt lat="46.33045214197891" lon="9.486312658639712"><ele>609.2</ele><time>2026-03-28T11:31:58.001Z</time></trkpt><trkpt lat="46.3305166895244" lon="9.486454174546934"><ele>608.4</ele><time>2026-03-28T11:31:59.001Z</time></trkpt><trkpt lat="46.330586754125875" lon="9.48657767398289"><ele>607.6</ele><time>2026-03-28T11:32:00.001Z</time></trkpt><trkpt lat="46.33067286741718" lon="9.486687237521213"><ele>606.8</ele><time>2026-03-28T11:32:01.001Z</time></trkpt><trkpt lat="46.330754697964885" lon="9.48678526965785"><ele>606.0</ele><time>2026-03-28T11:32:02.001Z</time></trkpt><trkpt lat="46.33082641431731" lon="9.486873596612126"><ele>609.6</ele><time>2026-03-28T11:32:03.001Z</time></trkpt><trkpt lat="46.330895773975826" lon="9.486943772909079"><ele>613.2</ele><time>2026-03-28T11:32:04.001Z</time></trkpt><trkpt lat="46.33095801548122" lon="9.487023966035013"><ele>616.8</ele><time>2026-03-28T11:32:05.001Z</time></trkpt><trkpt lat="46.33100879877684" lon="9.487141191662836"><ele>620.4</ele><time>2026-03-28T11:32:06.001Z</time></trkpt><trkpt lat="46.331017340572394" lon="9.487282552012491"><ele>624.0</ele><time>2026-03-28T11:32:07.001Z</time></trkpt><trkpt lat="46.33101143038465" lon="9.487417735899077"><ele>624.0</ele><time>2026-03-28T11:32:08.001Z</time></trkpt><trkpt lat="46.33097828992328" lon="9.487528952899583"><ele>624.0</ele><time>2026-03-28T11:32:09.001Z</time></trkpt><trkpt lat="46.330912132666576" lon="9.487663396494133"><ele>624.0</ele><time>2026-03-28T11:32:10.001Z</time></trkpt><trkpt lat="46.330843556364655" lon="9.48785201784817"><ele>624.0</ele><time>2026-03-28T11:32:11.001Z</time></trkpt><trkpt lat="46.33077372379435" lon="9.488049854708686"><ele>622.5</ele><time>2026-03-28T11:32:12.001Z</time></trkpt><trkpt lat="46.33070690564043" lon="9.488240818828045"><ele>621.0</ele><time>2026-03-28T11:32:13.001Z</time></trkpt><trkpt lat="46.33064745645917" lon="9.488410722690402"><ele>619.5</ele><time>2026-03-28T11:32:14.001Z</time></trkpt><trkpt lat="46.330592588233515" lon="9.488566135225488"><ele>618.0</ele><time>2026-03-28T11:32:15.001Z</time></trkpt><trkpt lat="46.33053914364045" lon="9.488714480335043"><ele>618.75</ele><time>2026-03-28T11:32:16.001Z</time></trkpt><trkpt lat="46.33048254333702" lon="9.488871584668344"><ele>619.5</ele><time>2026-03-28T11:32:17.001Z</time></trkpt><trkpt lat="46.33043833506997" lon="9.489041374333278"><ele>620.25</ele><time>2026-03-28T11:32:18.001Z</time></trkpt><trkpt lat="46.33037454134618" lon="9.489195038097055"><ele>621.0</ele><time>2026-03-28T11:32:19.001Z</time></trkpt><trkpt lat="46.330326273167714" lon="9.48932074263309"><ele>621.0</ele><time>2026-03-28T11:32:20.001Z</time></trkpt><trkpt lat="46.330295843114655" lon="9.489455915721814"><ele>621.0</ele><time>2026-03-28T11:32:21.001Z</time></trkpt><trkpt lat="46.33026223393976" lon="9.489619910039135"><ele>621.0</ele><time>2026-03-28T11:32:22.001Z</time></trkpt><trkpt lat="46.33023342099084" lon="9.489804813452624"><ele>621.0</ele><time>2026-03-28T11:32:23.001Z</time></trkpt><trkpt lat="46.33023258123544" lon="9.490003820447969"><ele>622.0</ele><time>2026-03-28T11:32:24.001Z</time></trkpt><trkpt lat="46.33023632159781" lon="9.490210625292809"><ele>623.0</ele><time>2026-03-28T11:32:25.001Z</time></trkpt><trkpt lat="46.33024623228408" lon="9.49041472609621"><ele>624.0</ele><time>2026-03-28T11:32:26.001Z</time></trkpt><trkpt lat="46.33026852488809" lon="9.490607721127022"><ele>625.0</ele><time>2026-03-28T11:32:27.001Z</time></trkpt><trkpt lat="46.33030834505624" lon="9.490788690646113"><ele>625.25</ele><time>2026-03-28T11:32:28.001Z</time></trkpt><trkpt lat="46.33036885430349" lon="9.490933396822378"><ele>625.5</ele><time>2026-03-28T11:32:29.001Z</time></trkpt><trkpt lat="46.33045059771964" lon="9.491053372302915"><ele>625.75</ele><time>2026-03-28T11:32:30.001Z</time></trkpt><trkpt lat="46.33054791300352" lon="9.491140545249493"><ele>626.0</ele><time>2026-03-28T11:32:31.001Z</time></trkpt><trkpt lat="46.33066769198294" lon="9.491205505744833"><ele>628.75</ele><time>2026-03-28T11:32:32.001Z</time></trkpt><trkpt lat="46.33079857926582" lon="9.491254881787365"><ele>631.5</ele><time>2026-03-28T11:32:33.001Z</time></trkpt><trkpt lat="46.33091495504208" lon="9.491296040229516"><ele>634.25</ele><time>2026-03-28T11:32:34.001Z</time></trkpt><trkpt lat="46.33103079668507" lon="9.491343484451072"><ele>637.0</ele><time>2026-03-28T11:32:35.001Z</time></trkpt><trkpt lat="46.33113979376999" lon="9.491421131291519"><ele>637.0</ele><time>2026-03-28T11:32:36.001Z</time></trkpt><trkpt lat="46.33123953164365" lon="9.491523076466423"><ele>637.0</ele><time>2026-03-28T11:32:37.001Z</time></trkpt><trkpt lat="46.331316689652944" lon="9.491638336194326"><ele>637.0</ele><time>2026-03-28T11:32:38.001Z</time></trkpt><trkpt lat="46.33136121842289" lon="9.491789400118073"><ele>637.0</ele><time>2026-03-28T11:32:39.001Z</time></trkpt><trkpt lat="46.331373711632274" lon="9.491961575937982"><ele>634.6666666666667</ele><time>2026-03-28T11:32:40.001Z</time></trkpt><trkpt lat="46.33132868076884" lon="9.492144365703169"><ele>632.3333333333334</ele><time>2026-03-28T11:32:41.001Z</time></trkpt><trkpt lat="46.33128130521977" lon="9.492359189557698"><ele>630.0</ele><time>2026-03-28T11:32:42.001Z</time></trkpt><trkpt lat="46.33122341283812" lon="9.492623998978095"><ele>630.6666666666666</ele><time>2026-03-28T11:32:43.001Z</time></trkpt><trkpt lat="46.33115539016942" lon="9.492948697835473"><ele>631.3333333333333</ele><time>2026-03-28T11:32:44.001Z</time></trkpt><trkpt lat="46.331114741564924" lon="9.493250723448483"><ele>632.0</ele><time>2026-03-28T11:32:45.001Z</time></trkpt><trkpt lat="46.33109625333807" lon="9.4934930432372"><ele>632.0</ele><time>2026-03-28T11:32:46.001Z</time></trkpt><trkpt lat="46.331136553581246" lon="9.493750136373706"><ele>632.0</ele><time>2026-03-28T11:32:47.001Z</time></trkpt><trkpt lat="46.33119660183112" lon="9.49403042626918"><ele>632.0</ele><time>2026-03-28T11:32:48.001Z</time></trkpt><trkpt lat="46.331252363268185" lon="9.494303709731128"><ele>632.0</ele><time>2026-03-28T11:32:49.001Z</time></trkpt><trkpt lat="46.331291543216565" lon="9.494547369463161"><ele>632.0</ele><time>2026-03-28T11:32:50.001Z</time></trkpt><trkpt lat="46.33131360786441" lon="9.494792341563842"><ele>632.0</ele><time>2026-03-28T11:32:51.001Z</time></trkpt><trkpt lat="46.331323112455735" lon="9.495050207693572"><ele>632.0</ele><time>2026-03-28T11:32:52.001Z</time></trkpt><trkpt lat="46.33133421960066" lon="9.495307143826382"><ele>632.0</ele><time>2026-03-28T11:32:53.001Z</time></trkpt><trkpt lat="46.3313250834974" lon="9.495566032480792"><ele>632.0</ele><time>2026-03-28T11:32:54.001Z</time></trkpt><trkpt lat="46.33133249376428" lon="9.49581515092418"><ele>632.6666666666666</ele><time>2026-03-28T11:32:55.001Z</time></trkpt><trkpt lat="46.33130152495651" lon="9.496073626775111"><ele>633.3333333333334</ele><time>2026-03-28T11:32:56.001Z</time></trkpt><trkpt lat="46.33125699552682" lon="9.496335347817457"><ele>634.0</ele><time>2026-03-28T11:32:57.001Z</time></trkpt><trkpt lat="46.33120404485039" lon="9.496598361630033"><ele>634.0</ele><time>2026-03-28T11:32:58.001Z</time></trkpt><trkpt lat="46.33114580629449" lon="9.496857382461377"><ele>634.0</ele><time>2026-03-28T11:32:59.001Z</time></trkpt><trkpt lat="46.3310993590036" lon="9.497120954037092"><ele>634.0</ele><time>2026-03-28T11:33:00.001Z</time></trkpt><trkpt lat="46.331075657567034" lon="9.497389513524809"><ele>634.3333333333334</ele><time>2026-03-28T11:33:01.001Z</time></trkpt><trkpt lat="46.331080997568726" lon="9.497668086139946"><ele>634.6666666666666</ele><time>2026-03-28T11:33:02.001Z</time></trkpt><trkpt lat="46.33110458310886" lon="9.497944402943077"><ele>635.0</ele><time>2026-03-28T11:33:03.001Z</time></trkpt><trkpt lat="46.331125180390245" lon="9.498225323084492"><ele>635.0</ele><time>2026-03-28T11:33:04.001Z</time></trkpt><trkpt lat="46.331137068357336" lon="9.498494628733608"><ele>635.0</ele><time>2026-03-28T11:33:05.001Z</time></trkpt><trkpt lat="46.33115181081698" lon="9.498760396001895"><ele>635.0</ele><time>2026-03-28T11:33:06.001Z</time></trkpt><trkpt lat="46.33116710417034" lon="9.499022477104035"><ele>635.0</ele><time>2026-03-28T11:33:07.001Z</time></trkpt><trkpt lat="46.33119372999743" lon="9.499278258092074"><ele>635.0</ele><time>2026-03-28T11:33:08.001Z</time></trkpt><trkpt lat="46.33123419006223" lon="9.499532083670296"><ele>635.0</ele><time>2026-03-28T11:33:09.001Z</time></trkpt><trkpt lat="46.331285010584715" lon="9.499771403487316"><ele>633.3333333333333</ele><time>2026-03-28T11:33:10.001Z</time></trkpt><trkpt lat="46.33133887529551" lon="9.500014756126644"><ele>631.6666666666666</ele><time>2026-03-28T11:33:11.001Z</time></trkpt><trkpt lat="46.33139127029057" lon="9.50025949327035"><ele>630.0</ele><time>2026-03-28T11:33:12.001Z</time></trkpt><trkpt lat="46.331439856624336" lon="9.500508753292182"><ele>639.0</ele><time>2026-03-28T11:33:13.001Z</time></trkpt><trkpt lat="46.33148817315311" lon="9.500764088791309"><ele>648.0</ele><time>2026-03-28T11:33:14.001Z</time></trkpt><trkpt lat="46.33150485000886" lon="9.501032354952038"><ele>657.0</ele><time>2026-03-28T11:33:15.001Z</time></trkpt><trkpt lat="46.33153831802379" lon="9.501294014133011"><ele>657.0</ele><time>2026-03-28T11:33:16.001Z</time></trkpt><trkpt lat="46.33154577795603" lon="9.50155702807793"><ele>657.0</ele><time>2026-03-28T11:33:17.001Z</time></trkpt><trkpt lat="46.331554759306655" lon="9.50181195393875"><ele>657.0</ele><time>2026-03-28T11:33:18.001Z</time></trkpt><trkpt lat="46.33156521124108" lon="9.502060372042239"><ele>656.0</ele><time>2026-03-28T11:33:19.001Z</time></trkpt><trkpt lat="46.33157777900684" lon="9.502309594128791"><ele>655.0</ele><time>2026-03-28T11:33:20.001Z</time></trkpt><trkpt lat="46.331602746651846" lon="9.502541279129176"><ele>654.0</ele><time>2026-03-28T11:33:21.001Z</time></trkpt><trkpt lat="46.33163759244355" lon="9.502769010736014"><ele>655.0</ele><time>2026-03-28T11:33:22.001Z</time></trkpt><trkpt lat="46.3316678870679" lon="9.50299759398477"><ele>656.0</ele><time>2026-03-28T11:33:23.001Z</time></trkpt><trkpt lat="46.33166571385737" lon="9.503232047194231"><ele>657.0</ele><time>2026-03-28T11:33:24.001Z</time></trkpt><trkpt lat="46.33167029527325" lon="9.5034760575612"><ele>657.0</ele><time>2026-03-28T11:33:25.001Z</time></trkpt><trkpt lat="46.33160968841793" lon="9.503714601705964"><ele>657.0</ele><time>2026-03-28T11:33:26.001Z</time></trkpt><trkpt lat="46.33159229991548" lon="9.503971858696724"><ele>657.0</ele><time>2026-03-28T11:33:27.001Z</time></trkpt><trkpt lat="46.33156424287061" lon="9.504221202954344"><ele>658.0</ele><time>2026-03-28T11:33:28.001Z</time></trkpt><trkpt lat="46.33156610892587" lon="9.504490804470407"><ele>659.0</ele><time>2026-03-28T11:33:29.001Z</time></trkpt><trkpt lat="46.33159927763012" lon="9.50478138797111"><ele>660.0</ele><time>2026-03-28T11:33:30.001Z</time></trkpt><trkpt lat="46.3316480576884" lon="9.505070986904878"><ele>661.3333333333334</ele><time>2026-03-28T11:33:31.001Z</time></trkpt><trkpt lat="46.33168622109978" lon="9.505366094445666"><ele>662.6666666666667</ele><time>2026-03-28T11:33:32.001Z</time></trkpt><trkpt lat="46.3317192894673" lon="9.505662258609664"><ele>664.0</ele><time>2026-03-28T11:33:33.001Z</time></trkpt><trkpt lat="46.33175139200453" lon="9.50596259311281"><ele>662.0</ele><time>2026-03-28T11:33:34.001Z</time></trkpt><trkpt lat="46.33178366216637" lon="9.50625497241959"><ele>660.0</ele><time>2026-03-28T11:33:35.001Z</time></trkpt><trkpt lat="46.33181011566308" lon="9.506511714927173"><ele>658.0</ele><time>2026-03-28T11:33:36.001Z</time></trkpt><trkpt lat="46.33183385690315" lon="9.506757254451795"><ele>658.0</ele><time>2026-03-28T11:33:37.001Z</time></trkpt><trkpt lat="46.33186235593316" lon="9.50699497836443"><ele>658.0</ele><time>2026-03-28T11:33:38.001Z</time></trkpt><trkpt lat="46.331889297348795" lon="9.507233429799076"><ele>658.0</ele><time>2026-03-28T11:33:39.001Z</time></trkpt><trkpt lat="46.33192819295793" lon="9.507467072146222"><ele>656.3333333333334</ele><time>2026-03-28T11:33:40.001Z</time></trkpt><trkpt lat="46.331992009756" lon="9.507697460429986"><ele>654.6666666666666</ele><time>2026-03-28T11:33:41.001Z</time></trkpt><trkpt lat="46.332077347075035" lon="9.507920455345882"><ele>653.0</ele><time>2026-03-28T11:33:42.001Z</time></trkpt><trkpt lat="46.33216264663376" lon="9.508127729392035"><ele>662.0</ele><time>2026-03-28T11:33:43.001Z</time></trkpt><trkpt lat="46.33226743728125" lon="9.508319846931919"><ele>671.0</ele><time>2026-03-28T11:33:44.001Z</time></trkpt><trkpt lat="46.33235483846932" lon="9.508534300636281"><ele>680.0</ele><time>2026-03-28T11:33:45.001Z</time></trkpt><trkpt lat="46.332404598161695" lon="9.50874519234891"><ele>680.0</ele><time>2026-03-28T11:33:46.001Z</time></trkpt><trkpt lat="46.33243206278027" lon="9.508948080689512"><ele>680.0</ele><time>2026-03-28T11:33:47.001Z</time></trkpt><trkpt lat="46.332444712518665" lon="9.509147209381716"><ele>680.0</ele><time>2026-03-28T11:33:48.001Z</time></trkpt><trkpt lat="46.33244465283612" lon="9.509331834216649"><ele>680.0</ele><time>2026-03-28T11:33:49.001Z</time></trkpt><trkpt lat="46.33243826780422" lon="9.509494584671682"><ele>678.75</ele><time>2026-03-28T11:33:50.001Z</time></trkpt><trkpt lat="46.33242415992233" lon="9.509664810479627"><ele>677.5</ele><time>2026-03-28T11:33:51.001Z</time></trkpt><trkpt lat="46.33238938063917" lon="9.509856284609109"><ele>676.25</ele><time>2026-03-28T11:33:52.001Z</time></trkpt><trkpt lat="46.33234943436317" lon="9.510052726682513"><ele>675.0</ele><time>2026-03-28T11:33:53.001Z</time></trkpt><trkpt lat="46.33231666141124" lon="9.510266852225374"><ele>674.0</ele><time>2026-03-28T11:33:54.001Z</time></trkpt><trkpt lat="46.332282081215205" lon="9.510493520199654"><ele>673.0</ele><time>2026-03-28T11:33:55.001Z</time></trkpt><trkpt lat="46.332258872449074" lon="9.510729628736794"><ele>672.0</ele><time>2026-03-28T11:33:56.001Z</time></trkpt><trkpt lat="46.33224111167024" lon="9.510957397116826"><ele>672.0</ele><time>2026-03-28T11:33:57.001Z</time></trkpt><trkpt lat="46.33223045866874" lon="9.511159728515869"><ele>672.0</ele><time>2026-03-28T11:33:58.001Z</time></trkpt><trkpt lat="46.33223460388092" lon="9.511344643841808"><ele>672.0</ele><time>2026-03-28T11:33:59.001Z</time></trkpt><trkpt lat="46.332253511517514" lon="9.511517292142798"><ele>672.0</ele><time>2026-03-28T11:34:00.001Z</time></trkpt><trkpt lat="46.33227778607431" lon="9.51170597086632"><ele>670.5</ele><time>2026-03-28T11:34:01.001Z</time></trkpt><trkpt lat="46.33229676731081" lon="9.511889713004688"><ele>669.0</ele><time>2026-03-28T11:34:02.001Z</time></trkpt><trkpt lat="46.33231659621108" lon="9.512071733640783"><ele>667.5</ele><time>2026-03-28T11:34:03.001Z</time></trkpt><trkpt lat="46.33233744313493" lon="9.512255088618804"><ele>666.0</ele><time>2026-03-28T11:34:04.001Z</time></trkpt><trkpt lat="46.332363782774216" lon="9.512433039778411"><ele>665.8</ele><time>2026-03-28T11:34:05.001Z</time></trkpt><trkpt lat="46.33239603932609" lon="9.512604165586346"><ele>665.5999999999999</ele><time>2026-03-28T11:34:06.001Z</time></trkpt><trkpt lat="46.33243712982374" lon="9.512764094602717"><ele>665.4</ele><time>2026-03-28T11:34:07.001Z</time></trkpt><trkpt lat="46.33247287801027" lon="9.51290956622012"><ele>665.2</ele><time>2026-03-28T11:34:08.001Z</time></trkpt><trkpt lat="46.33250683024322" lon="9.513044404081185"><ele>665.0</ele><time>2026-03-28T11:34:09.001Z</time></trkpt><trkpt lat="46.332540882387214" lon="9.51317368879149"><ele>665.3333333333333</ele><time>2026-03-28T11:34:10.001Z</time></trkpt><trkpt lat="46.3325750724006" lon="9.513303830274875"><ele>665.6666666666666</ele><time>2026-03-28T11:34:11.001Z</time></trkpt><trkpt lat="46.33260396725773" lon="9.51341264786209"><ele>666.0</ele><time>2026-03-28T11:34:12.001Z</time></trkpt><trkpt lat="46.33262849590927" lon="9.513498434927481"><ele>666.3333333333334</ele><time>2026-03-28T11:34:13.001Z</time></trkpt><trkpt lat="46.332667671335024" lon="9.513637808018343"><ele>666.6666666666667</ele><time>2026-03-28T11:34:15.001Z</time></trkpt><trkpt lat="46.33269261518907" lon="9.51372327152116"><ele>667.0</ele><time>2026-03-28T11:34:16.001Z</time></trkpt><trkpt lat="46.33272437689911" lon="9.513819215850718"><ele>667.6666666666667</ele><time>2026-03-28T11:34:17.001Z</time></trkpt><trkpt lat="46.33275582087229" lon="9.513925950771876"><ele>668.3333333333334</ele><time>2026-03-28T11:34:18.001Z</time></trkpt><trkpt lat="46.33278972899464" lon="9.51403940309303"><ele>669.0</ele><time>2026-03-28T11:34:19.001Z</time></trkpt><trkpt lat="46.3328199113132" lon="9.514142952793557"><ele>669.6666666666666</ele><time>2026-03-28T11:34:20.001Z</time></trkpt><trkpt lat="46.33284700091264" lon="9.514237724897342"><ele>670.3333333333333</ele><time>2026-03-28T11:34:21.001Z</time></trkpt><trkpt lat="46.33288089526316" lon="9.514349671254717"><ele>671.0</ele><time>2026-03-28T11:34:22.001Z</time></trkpt><trkpt lat="46.33291242288676" lon="9.514452427967303"><ele>671.0</ele><time>2026-03-28T11:34:23.001Z</time></trkpt><trkpt lat="46.332937300156196" lon="9.514557860094609"><ele>671.0</ele><time>2026-03-28T11:34:24.001Z</time></trkpt><trkpt lat="46.332945732480844" lon="9.514704737325786"><ele>671.0</ele><time>2026-03-28T11:34:25.001Z</time></trkpt><trkpt lat="46.33297018500985" lon="9.514869374608427"><ele>671.0</ele><time>2026-03-28T11:34:26.001Z</time></trkpt><trkpt lat="46.33295943141492" lon="9.51500033444725"><ele>671.0</ele><time>2026-03-28T11:34:27.001Z</time></trkpt><trkpt lat="46.33295184740584" lon="9.515104465505388"><ele>672.5999999999999</ele><time>2026-03-28T11:34:28.001Z</time></trkpt><trkpt lat="46.33292659043759" lon="9.515223324697391"><ele>674.2</ele><time>2026-03-28T11:34:29.001Z</time></trkpt><trkpt lat="46.33288635488303" lon="9.515338775868516"><ele>675.8</ele><time>2026-03-28T11:34:30.001Z</time></trkpt><trkpt lat="46.33286258712774" lon="9.515488356680684"><ele>677.4000000000001</ele><time>2026-03-28T11:34:31.001Z</time></trkpt><trkpt lat="46.33287437162712" lon="9.515594561874853"><ele>679.0</ele><time>2026-03-28T11:34:32.001Z</time></trkpt><trkpt lat="46.33290469701072" lon="9.51573732112241"><ele>680.25</ele><time>2026-03-28T11:34:33.001Z</time></trkpt><trkpt lat="46.33292790120106" lon="9.51588547693878"><ele>681.5</ele><time>2026-03-28T11:34:34.001Z</time></trkpt><trkpt lat="46.33293835871728" lon="9.516055002743638"><ele>682.75</ele><time>2026-03-28T11:34:35.001Z</time></trkpt><trkpt lat="46.33296246373516" lon="9.516247000414308"><ele>684.0</ele><time>2026-03-28T11:34:36.001Z</time></trkpt><trkpt lat="46.33298104020224" lon="9.51644324322542"><ele>684.25</ele><time>2026-03-28T11:34:37.001Z</time></trkpt><trkpt lat="46.33298387076791" lon="9.516614274886479"><ele>684.5</ele><time>2026-03-28T11:34:38.001Z</time></trkpt><trkpt lat="46.333008120780775" lon="9.516818671142484"><ele>684.75</ele><time>2026-03-28T11:34:39.001Z</time></trkpt><trkpt lat="46.333047653873386" lon="9.517038767408604"><ele>685.0</ele><time>2026-03-28T11:34:40.001Z</time></trkpt><trkpt lat="46.333111088935674" lon="9.51726793683478"><ele>686.6666666666667</ele><time>2026-03-28T11:34:41.001Z</time></trkpt><trkpt lat="46.333163561698065" lon="9.517491509533272"><ele>688.3333333333334</ele><time>2026-03-28T11:34:42.001Z</time></trkpt><trkpt lat="46.33322937402853" lon="9.517727309019643"><ele>690.0</ele><time>2026-03-28T11:34:43.002Z</time></trkpt><trkpt lat="46.33330279533031" lon="9.517979104240617"><ele>690.3333333333334</ele><time>2026-03-28T11:34:44.002Z</time></trkpt><trkpt lat="46.33338129895421" lon="9.518260189499928"><ele>690.6666666666667</ele><time>2026-03-28T11:34:45.002Z</time></trkpt><trkpt lat="46.3334958079131" lon="9.5185251339227"><ele>691.0</ele><time>2026-03-28T11:34:46.002Z</time></trkpt><trkpt lat="46.33359836557466" lon="9.518791241476332"><ele>696.5</ele><time>2026-03-28T11:34:47.002Z</time></trkpt><trkpt lat="46.33374585571974" lon="9.519073920458325"><ele>702.0</ele><time>2026-03-28T11:34:48.002Z</time></trkpt><trkpt lat="46.33387299449868" lon="9.519308702069717"><ele>702.6666666666666</ele><time>2026-03-28T11:34:49.002Z</time></trkpt><trkpt lat="46.333959762845424" lon="9.519521918194762"><ele>703.3333333333333</ele><time>2026-03-28T11:34:50.002Z</time></trkpt><trkpt lat="46.33403493565621" lon="9.519754669518592"><ele>704.0</ele><time>2026-03-28T11:34:51.002Z</time></trkpt><trkpt lat="46.3340968872483" lon="9.51997681535616"><ele>704.0</ele><time>2026-03-28T11:34:52.002Z</time></trkpt><trkpt lat="46.334188444039185" lon="9.520114900169284"><ele>704.0</ele><time>2026-03-28T11:34:53.002Z</time></trkpt><trkpt lat="46.33426151524002" lon="9.520302007755241"><ele>704.0</ele><time>2026-03-28T11:34:54.002Z</time></trkpt><trkpt lat="46.33428734273309" lon="9.520521399453793"><ele>704.0</ele><time>2026-03-28T11:34:55.002Z</time></trkpt><trkpt lat="46.33430558066725" lon="9.520737756221747"><ele>705.0</ele><time>2026-03-28T11:34:56.002Z</time></trkpt><trkpt lat="46.334308964414625" lon="9.520984555820796"><ele>706.0</ele><time>2026-03-28T11:34:57.002Z</time></trkpt><trkpt lat="46.334294209751185" lon="9.52123376278647"><ele>707.0</ele><time>2026-03-28T11:34:58.002Z</time></trkpt><trkpt lat="46.33428144914885" lon="9.52149216378979"><ele>709.6666666666666</ele><time>2026-03-28T11:34:59.001Z</time></trkpt><trkpt lat="46.334257365574544" lon="9.521740366771086"><ele>712.3333333333334</ele><time>2026-03-28T11:35:00.001Z</time></trkpt><trkpt lat="46.33422887048349" lon="9.521991062334317"><ele>715.0</ele><time>2026-03-28T11:35:01.001Z</time></trkpt><trkpt lat="46.33418349160324" lon="9.522233878483194"><ele>718.6666666666667</ele><time>2026-03-28T11:35:02.001Z</time></trkpt><trkpt lat="46.33413033181269" lon="9.522465732646749"><ele>722.3333333333334</ele><time>2026-03-28T11:35:03.001Z</time></trkpt><trkpt lat="46.334069937489915" lon="9.522694471018077"><ele>726.0</ele><time>2026-03-28T11:35:04.001Z</time></trkpt><trkpt lat="46.33400774331876" lon="9.522918175183968"><ele>728.0</ele><time>2026-03-28T11:35:05.001Z</time></trkpt><trkpt lat="46.333943585474124" lon="9.523139115347922"><ele>730.0</ele><time>2026-03-28T11:35:06.001Z</time></trkpt><trkpt lat="46.33388824843014" lon="9.523362823441401"><ele>732.0</ele><time>2026-03-28T11:35:07.001Z</time></trkpt><trkpt lat="46.33384516553762" lon="9.523594040586246"><ele>733.3333333333334</ele><time>2026-03-28T11:35:08.001Z</time></trkpt><trkpt lat="46.333815230769794" lon="9.523828197963695"><ele>734.6666666666667</ele><time>2026-03-28T11:35:09.001Z</time></trkpt><trkpt lat="46.333803124506574" lon="9.524064639610433"><ele>736.0</ele><time>2026-03-28T11:35:10.001Z</time></trkpt><trkpt lat="46.33381275475731" lon="9.524293860046903"><ele>736.0</ele><time>2026-03-28T11:35:11.001Z</time></trkpt><trkpt lat="46.333824451063975" lon="9.524520597787765"><ele>736.0</ele><time>2026-03-28T11:35:12.001Z</time></trkpt><trkpt lat="46.333833092293354" lon="9.524754818399575"><ele>736.0</ele><time>2026-03-28T11:35:13.001Z</time></trkpt><trkpt lat="46.333839933931074" lon="9.524991895704431"><ele>737.3333333333334</ele><time>2026-03-28T11:35:14.001Z</time></trkpt><trkpt lat="46.33382843645425" lon="9.525234482477618"><ele>738.6666666666666</ele><time>2026-03-28T11:35:15.001Z</time></trkpt><trkpt lat="46.33377638797248" lon="9.525453736602493"><ele>740.0</ele><time>2026-03-28T11:35:16.001Z</time></trkpt><trkpt lat="46.3337151856747" lon="9.525659857879905"><ele>741.0</ele><time>2026-03-28T11:35:17.001Z</time></trkpt><trkpt lat="46.33361811200638" lon="9.525870491669368"><ele>742.0</ele><time>2026-03-28T11:35:18.001Z</time></trkpt><trkpt lat="46.33349914537467" lon="9.526123551648"><ele>743.0</ele><time>2026-03-28T11:35:19.001Z</time></trkpt><trkpt lat="46.33337159823684" lon="9.526393582188327"><ele>744.6666666666666</ele><time>2026-03-28T11:35:20.001Z</time></trkpt><trkpt lat="46.333267074435234" lon="9.526626264045763"><ele>746.3333333333334</ele><time>2026-03-28T11:35:21.001Z</time></trkpt><trkpt lat="46.3332140220152" lon="9.526849396400001"><ele>748.0</ele><time>2026-03-28T11:35:22.001Z</time></trkpt><trkpt lat="46.333172450779834" lon="9.527043801665002"><ele>751.3333333333334</ele><time>2026-03-28T11:35:23.001Z</time></trkpt><trkpt lat="46.33317657533617" lon="9.527292298241607"><ele>754.6666666666666</ele><time>2026-03-28T11:35:24.001Z</time></trkpt><trkpt lat="46.33321840903613" lon="9.527525498472452"><ele>758.0</ele><time>2026-03-28T11:35:25.001Z</time></trkpt><trkpt lat="46.33326968348936" lon="9.527781914665086"><ele>761.3333333333333</ele><time>2026-03-28T11:35:26.001Z</time></trkpt><trkpt lat="46.33330953342167" lon="9.528028004167128"><ele>764.6666666666666</ele><time>2026-03-28T11:35:27.001Z</time></trkpt><trkpt lat="46.333347251613255" lon="9.528285745600833"><ele>768.0</ele><time>2026-03-28T11:35:28.001Z</time></trkpt><trkpt lat="46.33338967852657" lon="9.5285549641206"><ele>767.3333333333334</ele><time>2026-03-28T11:35:29.001Z</time></trkpt><trkpt lat="46.33341924266699" lon="9.528836443515415"><ele>766.6666666666667</ele><time>2026-03-28T11:35:30.001Z</time></trkpt><trkpt lat="46.333469287166814" lon="9.529106520409329"><ele>766.0</ele><time>2026-03-28T11:35:31.001Z</time></trkpt><trkpt lat="46.33349033094146" lon="9.529376841907139"><ele>765.0</ele><time>2026-03-28T11:35:32.001Z</time></trkpt><trkpt lat="46.33348724084516" lon="9.52964815136102"><ele>764.0</ele><time>2026-03-28T11:35:33.001Z</time></trkpt><trkpt lat="46.333439137494246" lon="9.529923402099577"><ele>763.0</ele><time>2026-03-28T11:35:34.001Z</time></trkpt><trkpt lat="46.333448338500425" lon="9.530175536153555"><ele>764.0</ele><time>2026-03-28T11:35:35.001Z</time></trkpt><trkpt lat="46.33344472734331" lon="9.530431034968432"><ele>765.0</ele><time>2026-03-28T11:35:36.001Z</time></trkpt><trkpt lat="46.33346425142538" lon="9.530693272760168"><ele>766.0</ele><time>2026-03-28T11:35:37.001Z</time></trkpt><trkpt lat="46.3334841392926" lon="9.530951927671449"><ele>766.0</ele><time>2026-03-28T11:35:38.001Z</time></trkpt><trkpt lat="46.333536407600555" lon="9.531180176358976"><ele>766.0</ele><time>2026-03-28T11:35:39.001Z</time></trkpt><trkpt lat="46.333616724242596" lon="9.53139071658487"><ele>766.0</ele><time>2026-03-28T11:35:40.001Z</time></trkpt><trkpt lat="46.33372379127035" lon="9.531580536905606"><ele>765.6666666666667</ele><time>2026-03-28T11:35:41.001Z</time></trkpt><trkpt lat="46.333848410131395" lon="9.53175213607293"><ele>765.3333333333334</ele><time>2026-03-28T11:35:42.001Z</time></trkpt><trkpt lat="46.3339979363951" lon="9.531924954476763"><ele>765.0</ele><time>2026-03-28T11:35:43.001Z</time></trkpt><trkpt lat="46.334143462781626" lon="9.532111141386833"><ele>767.6666666666667</ele><time>2026-03-28T11:35:44.001Z</time></trkpt><trkpt lat="46.33428273589128" lon="9.532296364169518"><ele>770.3333333333334</ele><time>2026-03-28T11:35:45.001Z</time></trkpt><trkpt lat="46.33439602679644" lon="9.532501387619641"><ele>773.0</ele><time>2026-03-28T11:35:46.001Z</time></trkpt><trkpt lat="46.33448191211441" lon="9.532750562678988"><ele>771.0</ele><time>2026-03-28T11:35:47.001Z</time></trkpt><trkpt lat="46.33455133183086" lon="9.53300509055991"><ele>769.0</ele><time>2026-03-28T11:35:48.001Z</time></trkpt><trkpt lat="46.334596735042936" lon="9.53327786952081"><ele>767.0</ele><time>2026-03-28T11:35:49.001Z</time></trkpt><trkpt lat="46.33461693943006" lon="9.53356886125973"><ele>768.3333333333333</ele><time>2026-03-28T11:35:50.001Z</time></trkpt><trkpt lat="46.33460445516918" lon="9.533868183517564"><ele>769.6666666666666</ele><time>2026-03-28T11:35:51.001Z</time></trkpt><trkpt lat="46.33458750659611" lon="9.534173143948284"><ele>771.0</ele><time>2026-03-28T11:35:52.001Z</time></trkpt><trkpt lat="46.33454438823259" lon="9.53447208386303"><ele>772.6666666666667</ele><time>2026-03-28T11:35:53.001Z</time></trkpt><trkpt lat="46.33450056577686" lon="9.534755579923093"><ele>774.3333333333334</ele><time>2026-03-28T11:35:54.001Z</time></trkpt><trkpt lat="46.334471231172635" lon="9.53502196487588"><ele>776.0</ele><time>2026-03-28T11:35:55.001Z</time></trkpt><trkpt lat="46.334439332667664" lon="9.535288732276273"><ele>776.0</ele><time>2026-03-28T11:35:56.001Z</time></trkpt><trkpt lat="46.334375215401366" lon="9.535565426996921"><ele>776.0</ele><time>2026-03-28T11:35:57.001Z</time></trkpt><trkpt lat="46.334349564023476" lon="9.53583083189731"><ele>776.0</ele><time>2026-03-28T11:35:58.001Z</time></trkpt><trkpt lat="46.33437274979052" lon="9.536108611986739"><ele>776.0</ele><time>2026-03-28T11:35:59.001Z</time></trkpt><trkpt lat="46.33436913754165" lon="9.536382204579088"><ele>776.0</ele><time>2026-03-28T11:36:00.001Z</time></trkpt><trkpt lat="46.33438054922066" lon="9.536650923412294"><ele>776.0</ele><time>2026-03-28T11:36:01.001Z</time></trkpt><trkpt lat="46.33441073291769" lon="9.536918099620305"><ele>776.3333333333334</ele><time>2026-03-28T11:36:02.001Z</time></trkpt><trkpt lat="46.33439038814824" lon="9.537191209490887"><ele>776.6666666666667</ele><time>2026-03-28T11:36:03.001Z</time></trkpt><trkpt lat="46.334396814584274" lon="9.537450389251832"><ele>777.0</ele><time>2026-03-28T11:36:04.001Z</time></trkpt><trkpt lat="46.33441614470286" lon="9.537699799201503"><ele>778.3333333333333</ele><time>2026-03-28T11:36:05.001Z</time></trkpt><trkpt lat="46.334451275003175" lon="9.537953341699229"><ele>779.6666666666666</ele><time>2026-03-28T11:36:06.001Z</time></trkpt><trkpt lat="46.334507787971106" lon="9.538209889757448"><ele>781.0</ele><time>2026-03-28T11:36:07.001Z</time></trkpt><trkpt lat="46.33457871591022" lon="9.538470621957313"><ele>783.6666666666666</ele><time>2026-03-28T11:36:08.001Z</time></trkpt><trkpt lat="46.33466914807003" lon="9.538735508834053"><ele>786.3333333333333</ele><time>2026-03-28T11:36:09.001Z</time></trkpt><trkpt lat="46.3347561374227" lon="9.539005605282071"><ele>789.0</ele><time>2026-03-28T11:36:10.001Z</time></trkpt><trkpt lat="46.33483583522505" lon="9.539263467181193"><ele>789.6666666666667</ele><time>2026-03-28T11:36:11.001Z</time></trkpt><trkpt lat="46.334911530195605" lon="9.539515036389444"><ele>790.3333333333334</ele><time>2026-03-28T11:36:12.001Z</time></trkpt><trkpt lat="46.335001131583184" lon="9.539756629657239"><ele>791.0</ele><time>2026-03-28T11:36:13.001Z</time></trkpt><trkpt lat="46.33509545554154" lon="9.539983711706233"><ele>791.0</ele><time>2026-03-28T11:36:14.001Z</time></trkpt><trkpt lat="46.33517624568267" lon="9.540219788834289"><ele>791.0</ele><time>2026-03-28T11:36:15.001Z</time></trkpt><trkpt lat="46.33526795698363" lon="9.540455401718834"><ele>791.0</ele><time>2026-03-28T11:36:16.001Z</time></trkpt><trkpt lat="46.335347362457746" lon="9.540688218956925"><ele>788.3333333333334</ele><time>2026-03-28T11:36:17.001Z</time></trkpt><trkpt lat="46.33543318312476" lon="9.540915881638075"><ele>785.6666666666667</ele><time>2026-03-28T11:36:18.001Z</time></trkpt><trkpt lat="46.33551367170597" lon="9.541141649515495"><ele>783.0</ele><time>2026-03-28T11:36:19.001Z</time></trkpt><trkpt lat="46.335596122347425" lon="9.541376497177419"><ele>786.3333333333333</ele><time>2026-03-28T11:36:20.001Z</time></trkpt><trkpt lat="46.33565845064804" lon="9.541635610976858"><ele>789.6666666666666</ele><time>2026-03-28T11:36:21.001Z</time></trkpt><trkpt lat="46.33570742255991" lon="9.541897985245061"><ele>793.0</ele><time>2026-03-28T11:36:22.001Z</time></trkpt><trkpt lat="46.33574777567529" lon="9.542145067144922"><ele>793.0</ele><time>2026-03-28T11:36:23.001Z</time></trkpt><trkpt lat="46.335800559015574" lon="9.542364836505122"><ele>793.0</ele><time>2026-03-28T11:36:24.001Z</time></trkpt><trkpt lat="46.33588093208335" lon="9.542584576147538"><ele>793.0</ele><time>2026-03-28T11:36:25.001Z</time></trkpt><trkpt lat="46.33597898807934" lon="9.542792835489902"><ele>790.3333333333333</ele><time>2026-03-28T11:36:26.001Z</time></trkpt><trkpt lat="46.33608989971366" lon="9.542992133406626"><ele>787.6666666666667</ele><time>2026-03-28T11:36:27.001Z</time></trkpt><trkpt lat="46.33620060106091" lon="9.543209411510492"><ele>785.0</ele><time>2026-03-28T11:36:28.001Z</time></trkpt><trkpt lat="46.33630269619031" lon="9.543428128788365"><ele>785.0</ele><time>2026-03-28T11:36:29.001Z</time></trkpt><trkpt lat="46.33638439429593" lon="9.543658796354517"><ele>785.0</ele><time>2026-03-28T11:36:30.001Z</time></trkpt><trkpt lat="46.336449495119844" lon="9.543928254073583"><ele>785.0</ele><time>2026-03-28T11:36:31.001Z</time></trkpt><trkpt lat="46.336505002477544" lon="9.544215946158747"><ele>793.3333333333334</ele><time>2026-03-28T11:36:32.001Z</time></trkpt><trkpt lat="46.33652639319806" lon="9.544527960941029"><ele>801.6666666666667</ele><time>2026-03-28T11:36:33.001Z</time></trkpt><trkpt lat="46.336535392102704" lon="9.544828154654237"><ele>810.0</ele><time>2026-03-28T11:36:34.001Z</time></trkpt><trkpt lat="46.33652562376359" lon="9.545132447790323"><ele>810.0</ele><time>2026-03-28T11:36:35.001Z</time></trkpt><trkpt lat="46.33649654649768" lon="9.54543651042614"><ele>810.0</ele><time>2026-03-28T11:36:36.001Z</time></trkpt><trkpt lat="46.33647491136005" lon="9.545732913195398"><ele>810.0</ele><time>2026-03-28T11:36:37.001Z</time></trkpt><trkpt lat="46.3364118280038" lon="9.54602403144012"><ele>802.0</ele><time>2026-03-28T11:36:38.001Z</time></trkpt><trkpt lat="46.336341833391266" lon="9.546323848034216"><ele>794.0</ele><time>2026-03-28T11:36:39.001Z</time></trkpt><trkpt lat="46.33628167190832" lon="9.54661118446675"><ele>786.0</ele><time>2026-03-28T11:36:40.001Z</time></trkpt><trkpt lat="46.33622536537937" lon="9.546902548247669"><ele>796.0</ele><time>2026-03-28T11:36:41.001Z</time></trkpt><trkpt lat="46.33659233870839" lon="9.54713666016921"><ele>806.0</ele><time>2026-03-28T11:36:42.001Z</time></trkpt><trkpt lat="46.33658569772843" lon="9.547424200149125"><ele>806.0</ele><time>2026-03-28T11:36:43.001Z</time></trkpt><trkpt lat="46.33657310308212" lon="9.54770143198674"><ele>806.0</ele><time>2026-03-28T11:36:44.001Z</time></trkpt><trkpt lat="46.336050637948205" lon="9.54808313556227"><ele>801.6666666666667</ele><time>2026-03-28T11:36:45.001Z</time></trkpt><trkpt lat="46.33603611410876" lon="9.548365318686434"><ele>797.3333333333333</ele><time>2026-03-28T11:36:46.001Z</time></trkpt><trkpt lat="46.33603570362774" lon="9.54864828121533"><ele>793.0</ele><time>2026-03-28T11:36:47.001Z</time></trkpt><trkpt lat="46.336043623657524" lon="9.548937207947578"><ele>793.0</ele><time>2026-03-28T11:36:48.001Z</time></trkpt><trkpt lat="46.336052227555285" lon="9.549239403087576"><ele>793.0</ele><time>2026-03-28T11:36:49.001Z</time></trkpt><trkpt lat="46.33607168300752" lon="9.549523185056744"><ele>793.0</ele><time>2026-03-28T11:36:50.001Z</time></trkpt><trkpt lat="46.33613624340319" lon="9.549817710596416"><ele>793.6666666666666</ele><time>2026-03-28T11:36:51.001Z</time></trkpt><trkpt lat="46.33619778768779" lon="9.550098821620097"><ele>794.3333333333333</ele><time>2026-03-28T11:36:52.001Z</time></trkpt><trkpt lat="46.33627406697855" lon="9.550369155512044"><ele>795.0</ele><time>2026-03-28T11:36:53.001Z</time></trkpt><trkpt lat="46.33636228748013" lon="9.55062598609916"><ele>799.0</ele><time>2026-03-28T11:36:54.001Z</time></trkpt><trkpt lat="46.336454076524966" lon="9.550871906265689"><ele>803.0</ele><time>2026-03-28T11:36:55.001Z</time></trkpt><trkpt lat="46.33662462329793" lon="9.551319647363517"><ele>803.0</ele><time>2026-03-28T11:36:57.001Z</time></trkpt><trkpt lat="46.33669605119653" lon="9.55151867434266"><ele>803.0</ele><time>2026-03-28T11:36:58.001Z</time></trkpt><trkpt lat="46.33676196243975" lon="9.551717871938875"><ele>803.0</ele><time>2026-03-28T11:36:59.001Z</time></trkpt><trkpt lat="46.336820303918884" lon="9.551899572171678"><ele>803.0</ele><time>2026-03-28T11:37:00.001Z</time></trkpt><trkpt lat="46.336859197639" lon="9.552061617418259"><ele>803.0000000000001</ele><time>2026-03-28T11:37:01.001Z</time></trkpt><trkpt lat="46.33688442847941" lon="9.552206485937177"><ele>803.0</ele><time>2026-03-28T11:37:02.001Z</time></trkpt><trkpt lat="46.336894039783495" lon="9.552334254783759"><ele>803.0</ele><time>2026-03-28T11:37:03.001Z</time></trkpt><trkpt lat="46.336897728049955" lon="9.552462312078495"><ele>803.0</ele><time>2026-03-28T11:37:04.001Z</time></trkpt><trkpt lat="46.33688168278964" lon="9.552581214701974"><ele>803.0000000000001</ele><time>2026-03-28T11:37:05.001Z</time></trkpt><trkpt lat="46.33686468391321" lon="9.55267852611284"><ele>803.0</ele><time>2026-03-28T11:37:06.001Z</time></trkpt><trkpt lat="46.33687255710876" lon="9.552778021308168"><ele>804.25</ele><time>2026-03-28T11:37:07.001Z</time></trkpt><trkpt lat="46.33691843855922" lon="9.552890310596919"><ele>805.5</ele><time>2026-03-28T11:37:08.001Z</time></trkpt><trkpt lat="46.3369850855391" lon="9.55301122003115"><ele>806.75</ele><time>2026-03-28T11:37:09.001Z</time></trkpt><trkpt lat="46.33704013116952" lon="9.553159995634365"><ele>808.0</ele><time>2026-03-28T11:37:10.001Z</time></trkpt><trkpt lat="46.3370657503641" lon="9.553361017147537"><ele>808.0</ele><time>2026-03-28T11:37:11Z</time></trkpt><trkpt lat="46.33706900353368" lon="9.553560091930748"><ele>808.0</ele><time>2026-03-28T11:37:12Z</time></trkpt><trkpt lat="46.33707598312772" lon="9.553773946302941"><ele>808.0</ele><time>2026-03-28T11:37:13Z</time></trkpt><trkpt lat="46.337075923205646" lon="9.55399569190455"><ele>808.0</ele><time>2026-03-28T11:37:14Z</time></trkpt><trkpt lat="46.337065480492065" lon="9.554228370898795"><ele>808.0</ele><time>2026-03-28T11:37:15Z</time></trkpt><trkpt lat="46.33705468523979" lon="9.554480320753942"><ele>808.0</ele><time>2026-03-28T11:37:16Z</time></trkpt><trkpt lat="46.33703980352028" lon="9.554754055137439"><ele>808.0</ele><time>2026-03-28T11:37:17Z</time></trkpt><trkpt lat="46.33702121733825" lon="9.555024240679991"><ele>808.0</ele><time>2026-03-28T11:37:18Z</time></trkpt><trkpt lat="46.33700931266472" lon="9.555276543670217"><ele>808.0</ele><time>2026-03-28T11:37:19Z</time></trkpt><trkpt lat="46.33699713375755" lon="9.555536429745738"><ele>808.0</ele><time>2026-03-28T11:37:20Z</time></trkpt><trkpt lat="46.336985211773566" lon="9.55580173597318"><ele>809.6666666666666</ele><time>2026-03-28T11:37:21Z</time></trkpt><trkpt lat="46.336972323457886" lon="9.556075662380152"><ele>811.3333333333333</ele><time>2026-03-28T11:37:22Z</time></trkpt><trkpt lat="46.336971585071595" lon="9.556353640133864"><ele>813.0</ele><time>2026-03-28T11:37:23Z</time></trkpt><trkpt lat="46.336981613468595" lon="9.556629182285175"><ele>816.0</ele><time>2026-03-28T11:37:24Z</time></trkpt><trkpt lat="46.336996727899916" lon="9.556909065510267"><ele>819.0</ele><time>2026-03-28T11:37:25Z</time></trkpt><trkpt lat="46.337026545173096" lon="9.557173997392361"><ele>822.0</ele><time>2026-03-28T11:37:26Z</time></trkpt><trkpt lat="46.337084798884824" lon="9.557438008249575"><ele>827.0</ele><time>2026-03-28T11:37:27Z</time></trkpt><trkpt lat="46.33715769496774" lon="9.557694415275996"><ele>832.0</ele><time>2026-03-28T11:37:28Z</time></trkpt><trkpt lat="46.33724501880908" lon="9.557943007758565"><ele>837.0</ele><time>2026-03-28T11:37:29.021Z</time></trkpt><trkpt lat="46.337346365764596" lon="9.558174058133956"><ele>847.0</ele><time>2026-03-28T11:37:30.016Z</time></trkpt><trkpt lat="46.337455836575124" lon="9.55839134360386"><ele>857.0</ele><time>2026-03-28T11:37:31.014Z</time></trkpt><trkpt lat="46.337574873416095" lon="9.55860294901286"><ele>867.0</ele><time>2026-03-28T11:37:32.016Z</time></trkpt><trkpt lat="46.339053916788046" lon="9.565366460019318"><ele>888.5</ele><time>2026-03-28T11:38:00.001Z</time></trkpt><trkpt lat="46.33910438984255" lon="9.565596494009508"><ele>910.0</ele><time>2026-03-28T11:38:01.001Z</time></trkpt><trkpt lat="46.3393386273859" lon="9.56586590721227"><ele>910.0</ele><time>2026-03-28T11:38:02.001Z</time></trkpt><trkpt lat="46.3392800441548" lon="9.566139131379959"><ele>910.0</ele><time>2026-03-28T11:38:03.001Z</time></trkpt><trkpt lat="46.33924645689056" lon="9.566430758834596"><ele>910.0</ele><time>2026-03-28T11:38:04.001Z</time></trkpt><trkpt lat="46.339212955390394" lon="9.566694628211932"><ele>909.6666666666666</ele><time>2026-03-28T11:38:05.001Z</time></trkpt><trkpt lat="46.339188357787705" lon="9.566970236761698"><ele>909.3333333333333</ele><time>2026-03-28T11:38:06.001Z</time></trkpt><trkpt lat="46.33916493244358" lon="9.567237236830405"><ele>909.0</ele><time>2026-03-28T11:38:07.001Z</time></trkpt><trkpt lat="46.33915114160573" lon="9.567496387121293"><ele>909.0</ele><time>2026-03-28T11:38:08.001Z</time></trkpt><trkpt lat="46.339123818260056" lon="9.567790362903521"><ele>909.0</ele><time>2026-03-28T11:38:09.001Z</time></trkpt><trkpt lat="46.33911573695544" lon="9.56811885780599"><ele>909.0</ele><time>2026-03-28T11:38:10.001Z</time></trkpt><trkpt lat="46.339094354250165" lon="9.568430357291103"><ele>913.5</ele><time>2026-03-28T11:38:11.001Z</time></trkpt><trkpt lat="46.33904777957409" lon="9.568811238514487"><ele>918.0</ele><time>2026-03-28T11:38:12.001Z</time></trkpt><trkpt lat="46.339053594690895" lon="9.569107452266547"><ele>918.0</ele><time>2026-03-28T11:38:13.001Z</time></trkpt><trkpt lat="46.33904818457085" lon="9.569406399532124"><ele>918.0</ele><time>2026-03-28T11:38:14.001Z</time></trkpt><trkpt lat="46.33906642593307" lon="9.56969858866608"><ele>918.0</ele><time>2026-03-28T11:38:15.001Z</time></trkpt><trkpt lat="46.33910879356204" lon="9.569991385300895"><ele>923.3333333333333</ele><time>2026-03-28T11:38:16.001Z</time></trkpt><trkpt lat="46.339155017280156" lon="9.570285273591224"><ele>928.6666666666666</ele><time>2026-03-28T11:38:17.001Z</time></trkpt><trkpt lat="46.339244656973385" lon="9.570542473819472"><ele>934.0</ele><time>2026-03-28T11:38:18.001Z</time></trkpt><trkpt lat="46.33933159409052" lon="9.570802653427858"><ele>938.0</ele><time>2026-03-28T11:38:19.001Z</time></trkpt><trkpt lat="46.339448980745736" lon="9.571070505823457"><ele>942.0</ele><time>2026-03-28T11:38:20.001Z</time></trkpt><trkpt lat="46.339583584033086" lon="9.571384558350205"><ele>947.5</ele><time>2026-03-28T11:38:21.001Z</time></trkpt><trkpt lat="46.339679129209266" lon="9.571674809990931"><ele>953.0</ele><time>2026-03-28T11:38:22.001Z</time></trkpt><trkpt lat="46.33977189466951" lon="9.57199512296874"><ele>938.5</ele><time>2026-03-28T11:38:23.001Z</time></trkpt><trkpt lat="46.339838422242785" lon="9.572330073710916"><ele>924.0</ele><time>2026-03-28T11:38:24.001Z</time></trkpt><trkpt lat="46.339881820313366" lon="9.572660987271512"><ele>928.3333333333333</ele><time>2026-03-28T11:38:25.001Z</time></trkpt><trkpt lat="46.33988373222613" lon="9.572961891137126"><ele>932.6666666666666</ele><time>2026-03-28T11:38:26.001Z</time></trkpt><trkpt lat="46.33987184765154" lon="9.573230197252498"><ele>937.0</ele><time>2026-03-28T11:38:27.001Z</time></trkpt><trkpt lat="46.33986916923217" lon="9.573526395028372"><ele>940.6666666666666</ele><time>2026-03-28T11:38:28.001Z</time></trkpt><trkpt lat="46.33987513892777" lon="9.573828545388846"><ele>944.3333333333333</ele><time>2026-03-28T11:38:29.001Z</time></trkpt><trkpt lat="46.33988937817762" lon="9.574121368211417"><ele>948.0</ele><time>2026-03-28T11:38:30.001Z</time></trkpt><trkpt lat="46.33990404066987" lon="9.574414391914335"><ele>949.6666666666667</ele><time>2026-03-28T11:38:31.001Z</time></trkpt><trkpt lat="46.339917493279394" lon="9.574679263106436"><ele>951.3333333333334</ele><time>2026-03-28T11:38:32.001Z</time></trkpt><trkpt lat="46.339919077241284" lon="9.574945634102718"><ele>953.0</ele><time>2026-03-28T11:38:33.001Z</time></trkpt><trkpt lat="46.339882313845465" lon="9.575225551119843"><ele>955.3333333333334</ele><time>2026-03-28T11:38:34.001Z</time></trkpt><trkpt lat="46.33985276271845" lon="9.575527559498132"><ele>957.6666666666667</ele><time>2026-03-28T11:38:35.001Z</time></trkpt><trkpt lat="46.3398143150357" lon="9.575812477983607"><ele>960.0</ele><time>2026-03-28T11:38:36.001Z</time></trkpt><trkpt lat="46.33981291758777" lon="9.576047830740727"><ele>961.0</ele><time>2026-03-28T11:38:37.001Z</time></trkpt><trkpt lat="46.33981291758103" lon="9.57623758069499"><ele>962.0</ele><time>2026-03-28T11:38:38.001Z</time></trkpt><trkpt lat="46.339840734475594" lon="9.576324073368587"><ele>963.0</ele><time>2026-03-28T11:38:39.001Z</time></trkpt><trkpt lat="46.340044193418265" lon="9.57662777922102"><ele>963.0</ele><time>2026-03-28T11:38:40.001Z</time></trkpt><trkpt lat="46.34015304455495" lon="9.576806307227093"><ele>963.0</ele><time>2026-03-28T11:38:41.001Z</time></trkpt><trkpt lat="46.34022468754231" lon="9.576992090913704"><ele>963.0</ele><time>2026-03-28T11:38:42.001Z</time></trkpt><trkpt lat="46.34023237185791" lon="9.577211310680338"><ele>963.6666666666667</ele><time>2026-03-28T11:38:43.001Z</time></trkpt><trkpt lat="46.34019328196752" lon="9.577423789450343"><ele>964.3333333333334</ele><time>2026-03-28T11:38:44.001Z</time></trkpt><trkpt lat="46.340122759014925" lon="9.5776046796078"><ele>965.0</ele><time>2026-03-28T11:38:45.001Z</time></trkpt><trkpt lat="46.34002789636585" lon="9.577790518543114"><ele>966.6666666666667</ele><time>2026-03-28T11:38:46.001Z</time></trkpt><trkpt lat="46.33993840272928" lon="9.578001672880918"><ele>968.3333333333333</ele><time>2026-03-28T11:38:47.001Z</time></trkpt><trkpt lat="46.33989538134372" lon="9.578248806317097"><ele>970.0</ele><time>2026-03-28T11:38:48.001Z</time></trkpt><trkpt lat="46.33986107542879" lon="9.578491587550495"><ele>973.6666666666666</ele><time>2026-03-28T11:38:49.001Z</time></trkpt><trkpt lat="46.33985760563556" lon="9.578734570304013"><ele>977.3333333333333</ele><time>2026-03-28T11:38:50.001Z</time></trkpt><trkpt lat="46.33988543968111" lon="9.578984015202717"><ele>981.0</ele><time>2026-03-28T11:38:51.001Z</time></trkpt><trkpt lat="46.33995280638962" lon="9.579241527834629"><ele>981.0</ele><time>2026-03-28T11:38:52.001Z</time></trkpt><trkpt lat="46.340032905453654" lon="9.579506229651006"><ele>981.0</ele><time>2026-03-28T11:38:53.001Z</time></trkpt><trkpt lat="46.34011056186878" lon="9.579769754903761"><ele>981.0</ele><time>2026-03-28T11:38:54.001Z</time></trkpt><trkpt lat="46.34017981619948" lon="9.580023579227971"><ele>986.6666666666667</ele><time>2026-03-28T11:38:55.001Z</time></trkpt><trkpt lat="46.340243221852305" lon="9.580268332070764"><ele>992.3333333333334</ele><time>2026-03-28T11:38:56.001Z</time></trkpt><trkpt lat="46.34030172390434" lon="9.580512762885133"><ele>998.0</ele><time>2026-03-28T11:38:57.001Z</time></trkpt><trkpt lat="46.340365333187485" lon="9.580758049351914"><ele>1002.6666666666667</ele><time>2026-03-28T11:38:58.001Z</time></trkpt><trkpt lat="46.34041983359058" lon="9.581000404097066"><ele>1007.3333333333333</ele><time>2026-03-28T11:38:59.001Z</time></trkpt><trkpt lat="46.34049549561086" lon="9.581232083292212"><ele>1012.0</ele><time>2026-03-28T11:39:00.001Z</time></trkpt><trkpt lat="46.34057936267702" lon="9.581439874166966"><ele>1002.0</ele><time>2026-03-28T11:39:01.001Z</time></trkpt><trkpt lat="46.34067131593501" lon="9.581632857038299"><ele>992.0</ele><time>2026-03-28T11:39:02.001Z</time></trkpt><trkpt lat="46.340770868759876" lon="9.5818155451853"><ele>982.0</ele><time>2026-03-28T11:39:03.001Z</time></trkpt><trkpt lat="46.34082762364523" lon="9.5820532988556"><ele>982.0</ele><time>2026-03-28T11:39:04.001Z</time></trkpt><trkpt lat="46.34086301851157" lon="9.582321018937153"><ele>982.0</ele><time>2026-03-28T11:39:05.001Z</time></trkpt><trkpt lat="46.34089444840495" lon="9.582587586699352"><ele>982.0</ele><time>2026-03-28T11:39:06.001Z</time></trkpt><trkpt lat="46.340919515220264" lon="9.582838694277163"><ele>986.3333333333333</ele><time>2026-03-28T11:39:07.001Z</time></trkpt><trkpt lat="46.340950107979" lon="9.583067410421052"><ele>990.6666666666667</ele><time>2026-03-28T11:39:08.001Z</time></trkpt><trkpt lat="46.34097874414935" lon="9.583284339452543"><ele>995.0</ele><time>2026-03-28T11:39:09.001Z</time></trkpt><trkpt lat="46.341007589778485" lon="9.583493336435879"><ele>998.75</ele><time>2026-03-28T11:39:10.001Z</time></trkpt><trkpt lat="46.34103472229325" lon="9.583708369888946"><ele>1002.5</ele><time>2026-03-28T11:39:11Z</time></trkpt><trkpt lat="46.341055838560926" lon="9.583916761797687"><ele>1006.25</ele><time>2026-03-28T11:39:12Z</time></trkpt><trkpt lat="46.34109631628251" lon="9.584123983345155"><ele>1010.0</ele><time>2026-03-28T11:39:13Z</time></trkpt><trkpt lat="46.34112066370734" lon="9.584329063678451"><ele>1012.25</ele><time>2026-03-28T11:39:14Z</time></trkpt><trkpt lat="46.3411485139572" lon="9.584537232370046"><ele>1014.5</ele><time>2026-03-28T11:39:15Z</time></trkpt><trkpt lat="46.341159342079884" lon="9.584751463293253"><ele>1016.75</ele><time>2026-03-28T11:39:16Z</time></trkpt><trkpt lat="46.34120424067838" lon="9.584940686739316"><ele>1019.0</ele><time>2026-03-28T11:39:17Z</time></trkpt><trkpt lat="46.34124008831399" lon="9.585114086533537"><ele>1019.0</ele><time>2026-03-28T11:39:18Z</time></trkpt><trkpt lat="46.34127366959943" lon="9.585281409984981"><ele>1019.0</ele><time>2026-03-28T11:39:19Z</time></trkpt><trkpt lat="46.34131050063645" lon="9.585441421736967"><ele>1019.0</ele><time>2026-03-28T11:39:20Z</time></trkpt><trkpt lat="46.34134365520356" lon="9.5856083148709"><ele>1019.0</ele><time>2026-03-28T11:39:21Z</time></trkpt><trkpt lat="46.341381161469855" lon="9.585779077005862"><ele>1010.75</ele><time>2026-03-28T11:39:22Z</time></trkpt><trkpt lat="46.34141700294241" lon="9.585946548317812"><ele>1002.5</ele><time>2026-03-28T11:39:23Z</time></trkpt><trkpt lat="46.34145621981207" lon="9.586116335461453"><ele>994.25</ele><time>2026-03-28T11:39:24Z</time></trkpt><trkpt lat="46.34149508925709" lon="9.586306097611244"><ele>986.0</ele><time>2026-03-28T11:39:25Z</time></trkpt><trkpt lat="46.34153127134706" lon="9.586499465554857"><ele>986.0</ele><time>2026-03-28T11:39:26Z</time></trkpt><trkpt lat="46.34157014336562" lon="9.586705896242542"><ele>986.0</ele><time>2026-03-28T11:39:27Z</time></trkpt><trkpt lat="46.34161385077662" lon="9.586907584645116"><ele>986.0</ele><time>2026-03-28T11:39:28Z</time></trkpt><trkpt lat="46.3416663442729" lon="9.587106928985898"><ele>986.0</ele><time>2026-03-28T11:39:29Z</time></trkpt><trkpt lat="46.341716221350495" lon="9.587316554813055"><ele>987.25</ele><time>2026-03-28T11:39:30Z</time></trkpt><trkpt lat="46.34176428995123" lon="9.58752536533671"><ele>988.5</ele><time>2026-03-28T11:39:31Z</time></trkpt><trkpt lat="46.34180842381721" lon="9.587733526952203"><ele>989.75</ele><time>2026-03-28T11:39:32Z</time></trkpt><trkpt lat="46.34185157700488" lon="9.587934135320355"><ele>991.0</ele><time>2026-03-28T11:39:33Z</time></trkpt><trkpt lat="46.341890107770794" lon="9.588134121199731"><ele>993.0</ele><time>2026-03-28T11:39:34Z</time></trkpt><trkpt lat="46.34194345776197" lon="9.588330430574247"><ele>995.0</ele><time>2026-03-28T11:39:35Z</time></trkpt><trkpt lat="46.342007495337945" lon="9.58850473734557"><ele>997.0</ele><time>2026-03-28T11:39:36Z</time></trkpt><trkpt lat="46.34209591553523" lon="9.588655119779583"><ele>999.0</ele><time>2026-03-28T11:39:37Z</time></trkpt><trkpt lat="46.34220011636515" lon="9.58879479118906"><ele>996.6666666666667</ele><time>2026-03-28T11:39:38Z</time></trkpt><trkpt lat="46.3423139409313" lon="9.588933400722901"><ele>994.3333333333334</ele><time>2026-03-28T11:39:39Z</time></trkpt><trkpt lat="46.34242704110953" lon="9.589083416657978"><ele>992.0</ele><time>2026-03-28T11:39:40Z</time></trkpt><trkpt lat="46.3425440671454" lon="9.589242859288143"><ele>992.0</ele><time>2026-03-28T11:39:41Z</time></trkpt><trkpt lat="46.342658209940275" lon="9.589412558644288"><ele>992.0</ele><time>2026-03-28T11:39:42Z</time></trkpt><trkpt lat="46.342772439324854" lon="9.589578264904972"><ele>992.0</ele><time>2026-03-28T11:39:43Z</time></trkpt><trkpt lat="46.34287879348917" lon="9.589740251487765"><ele>993.5</ele><time>2026-03-28T11:39:44Z</time></trkpt><trkpt lat="46.34298423441854" lon="9.589899987375853"><ele>995.0</ele><time>2026-03-28T11:39:45Z</time></trkpt><trkpt lat="46.34307614586967" lon="9.590037374451581"><ele>996.5</ele><time>2026-03-28T11:39:46Z</time></trkpt><trkpt lat="46.3431604027375" lon="9.590173794515264"><ele>998.0</ele><time>2026-03-28T11:39:47Z</time></trkpt><trkpt lat="46.3432351874584" lon="9.590309354922416"><ele>999.2</ele><time>2026-03-28T11:39:48Z</time></trkpt><trkpt lat="46.34330118486772" lon="9.590432291521127"><ele>1000.4</ele><time>2026-03-28T11:39:49Z</time></trkpt><trkpt lat="46.3433629023831" lon="9.590558593722331"><ele>1001.6000000000001</ele><time>2026-03-28T11:39:50Z</time></trkpt><trkpt lat="46.343416048607274" lon="9.590684374855055"><ele>1002.8000000000001</ele><time>2026-03-28T11:39:51Z</time></trkpt><trkpt lat="46.34345052690167" lon="9.590835334909798"><ele>1004.0</ele><time>2026-03-28T11:39:52Z</time></trkpt><trkpt lat="46.343483924619505" lon="9.591017725033838"><ele>1005.75</ele><time>2026-03-28T11:39:53Z</time></trkpt><trkpt lat="46.34352922830542" lon="9.59120413878404"><ele>1007.5</ele><time>2026-03-28T11:39:54Z</time></trkpt><trkpt lat="46.343565621829654" lon="9.591404656935698"><ele>1009.25</ele><time>2026-03-28T11:39:55Z</time></trkpt><trkpt lat="46.34356378830983" lon="9.591598484557458"><ele>1011.0</ele><time>2026-03-28T11:39:56Z</time></trkpt><trkpt lat="46.343577847991874" lon="9.591788904110947"><ele>1011.0</ele><time>2026-03-28T11:39:57Z</time></trkpt><trkpt lat="46.343606901614514" lon="9.591962445548203"><ele>1011.0</ele><time>2026-03-28T11:39:58Z</time></trkpt><trkpt lat="46.34362944437818" lon="9.592124389078423"><ele>1011.0</ele><time>2026-03-28T11:39:59Z</time></trkpt><trkpt lat="46.343659086694146" lon="9.592293397504976"><ele>1011.0</ele><time>2026-03-28T11:40:00Z</time></trkpt><trkpt lat="46.34370122759125" lon="9.59246642866365"><ele>1012.0</ele><time>2026-03-28T11:40:01Z</time></trkpt><trkpt lat="46.34374641424092" lon="9.59265171289822"><ele>1013.0</ele><time>2026-03-28T11:40:02Z</time></trkpt><trkpt lat="46.34378610996089" lon="9.592836897467777"><ele>1014.0</ele><time>2026-03-28T11:40:03Z</time></trkpt><trkpt lat="46.34382497708049" lon="9.593030384510865"><ele>1015.0</ele><time>2026-03-28T11:40:04Z</time></trkpt><trkpt lat="46.343870608786396" lon="9.593234240304854"><ele>1016.0</ele><time>2026-03-28T11:40:05Z</time></trkpt><trkpt lat="46.3439186084934" lon="9.59345401554149"><ele>1017.0</ele><time>2026-03-28T11:40:06Z</time></trkpt><trkpt lat="46.34397838084055" lon="9.593674520167397"><ele>1018.0</ele><time>2026-03-28T11:40:07Z</time></trkpt><trkpt lat="46.3440247496118" lon="9.593886404323476"><ele>1018.0</ele><time>2026-03-28T11:40:08Z</time></trkpt><trkpt lat="46.34408649587648" lon="9.594081696446509"><ele>1018.0</ele><time>2026-03-28T11:40:09Z</time></trkpt><trkpt lat="46.34416527801272" lon="9.594271122191255"><ele>1018.0</ele><time>2026-03-28T11:40:10Z</time></trkpt><trkpt lat="46.34425281794041" lon="9.594462520785699"><ele>1019.3333333333333</ele><time>2026-03-28T11:40:11Z</time></trkpt><trkpt lat="46.344374118362" lon="9.594663391101953"><ele>1020.6666666666667</ele><time>2026-03-28T11:40:12.001Z</time></trkpt><trkpt lat="46.344504879097805" lon="9.594866179635817"><ele>1022.0</ele><time>2026-03-28T11:40:13.001Z</time></trkpt><trkpt lat="46.34464907137648" lon="9.595070745139106"><ele>1020.6666666666667</ele><time>2026-03-28T11:40:14.001Z</time></trkpt><trkpt lat="46.34479341551029" lon="9.595274161082713"><ele>1019.3333333333333</ele><time>2026-03-28T11:40:15.001Z</time></trkpt><trkpt lat="46.344938809070854" lon="9.595471432454374"><ele>1018.0</ele><time>2026-03-28T11:40:16.001Z</time></trkpt><trkpt lat="46.34507941038772" lon="9.595654250312931"><ele>1020.6666666666666</ele><time>2026-03-28T11:40:17.001Z</time></trkpt><trkpt lat="46.34520346634162" lon="9.595854627426705"><ele>1023.3333333333333</ele><time>2026-03-28T11:40:18.001Z</time></trkpt><trkpt lat="46.34533751002735" lon="9.596042615847905"><ele>1026.0</ele><time>2026-03-28T11:40:19.001Z</time></trkpt><trkpt lat="46.34546075237625" lon="9.596205453080165"><ele>1025.3333333333333</ele><time>2026-03-28T11:40:20.001Z</time></trkpt><trkpt lat="46.34558386292664" lon="9.596386857520045"><ele>1024.6666666666665</ele><time>2026-03-28T11:40:21.001Z</time></trkpt><trkpt lat="46.34570976152722" lon="9.596561584373603"><ele>1024.0</ele><time>2026-03-28T11:40:22.001Z</time></trkpt><trkpt lat="46.345835251338386" lon="9.596736247749343"><ele>1024.0</ele><time>2026-03-28T11:40:23.001Z</time></trkpt><trkpt lat="46.34595976237365" lon="9.596902156953844"><ele>1024.0</ele><time>2026-03-28T11:40:24.001Z</time></trkpt><trkpt lat="46.346076376021664" lon="9.59706711477881"><ele>1024.0</ele><time>2026-03-28T11:40:25.001Z</time></trkpt><trkpt lat="46.34619146572784" lon="9.597240317307767"><ele>1024.0</ele><time>2026-03-28T11:40:26.001Z</time></trkpt><trkpt lat="46.34629552122455" lon="9.5974307736581"><ele>1024.0</ele><time>2026-03-28T11:40:27.001Z</time></trkpt><trkpt lat="46.3463820489369" lon="9.597644362792085"><ele>1024.0</ele><time>2026-03-28T11:40:28.001Z</time></trkpt><trkpt lat="46.34645405444627" lon="9.597871283452871"><ele>1024.0</ele><time>2026-03-28T11:40:29.001Z</time></trkpt><trkpt lat="46.34651057503029" lon="9.598111826324859"><ele>1024.0</ele><time>2026-03-28T11:40:30.001Z</time></trkpt><trkpt lat="46.34655582149022" lon="9.598367156125274"><ele>1024.0</ele><time>2026-03-28T11:40:31.001Z</time></trkpt><trkpt lat="46.346585722459544" lon="9.598631575076771"><ele>1024.0</ele><time>2026-03-28T11:40:32.001Z</time></trkpt><trkpt lat="46.34660060876479" lon="9.598898886376924"><ele>1024.0</ele><time>2026-03-28T11:40:33.001Z</time></trkpt><trkpt lat="46.34660437032731" lon="9.599161810991529"><ele>1024.0</ele><time>2026-03-28T11:40:34.001Z</time></trkpt><trkpt lat="46.346596628475424" lon="9.599428662474239"><ele>1024.3333333333333</ele><time>2026-03-28T11:40:35.001Z</time></trkpt><trkpt lat="46.346586697514965" lon="9.599697211531012"><ele>1024.6666666666667</ele><time>2026-03-28T11:40:36.001Z</time></trkpt><trkpt lat="46.34658330331723" lon="9.599967492552366"><ele>1025.0</ele><time>2026-03-28T11:40:37.001Z</time></trkpt><trkpt lat="46.34659523358122" lon="9.600235932162281"><ele>1026.6666666666667</ele><time>2026-03-28T11:40:38.001Z</time></trkpt><trkpt lat="46.34661200690841" lon="9.60049968638464"><ele>1028.3333333333333</ele><time>2026-03-28T11:40:39.001Z</time></trkpt><trkpt lat="46.34664815781818" lon="9.600763165087619"><ele>1030.0</ele><time>2026-03-28T11:40:40.001Z</time></trkpt><trkpt lat="46.346698695880974" lon="9.6010284559662"><ele>1031.6666666666665</ele><time>2026-03-28T11:40:41.001Z</time></trkpt><trkpt lat="46.34677711292414" lon="9.601290854091634"><ele>1033.3333333333333</ele><time>2026-03-28T11:40:42.001Z</time></trkpt><trkpt lat="46.34685418753566" lon="9.601539119270134"><ele>1035.0</ele><time>2026-03-28T11:40:43.001Z</time></trkpt><trkpt lat="46.34694574265578" lon="9.601754689576731"><ele>1035.0</ele><time>2026-03-28T11:40:44.001Z</time></trkpt><trkpt lat="46.347057671308825" lon="9.601962620790538"><ele>1035.0</ele><time>2026-03-28T11:40:45.001Z</time></trkpt><trkpt lat="46.347164153590356" lon="9.602167371487626"><ele>1035.0</ele><time>2026-03-28T11:40:46.001Z</time></trkpt><trkpt lat="46.34728647487583" lon="9.602371364646135"><ele>1034.6666666666667</ele><time>2026-03-28T11:40:47.001Z</time></trkpt><trkpt lat="46.34743697155878" lon="9.60256735605479"><ele>1034.3333333333335</ele><time>2026-03-28T11:40:48.001Z</time></trkpt><trkpt lat="46.347600672033714" lon="9.602763161686354"><ele>1034.0</ele><time>2026-03-28T11:40:49.001Z</time></trkpt><trkpt lat="46.34777198154352" lon="9.602918146669168"><ele>1035.0</ele><time>2026-03-28T11:40:50.001Z</time></trkpt><trkpt lat="46.34793997587646" lon="9.603066908217261"><ele>1036.0</ele><time>2026-03-28T11:40:51.001Z</time></trkpt><trkpt lat="46.348094902322956" lon="9.60323148286985"><ele>1037.0</ele><time>2026-03-28T11:40:52.001Z</time></trkpt><trkpt lat="46.34824283614375" lon="9.603410805821756"><ele>1037.0</ele><time>2026-03-28T11:40:53.001Z</time></trkpt><trkpt lat="46.34837890085839" lon="9.603623330755296"><ele>1037.0</ele><time>2026-03-28T11:40:54.001Z</time></trkpt><trkpt lat="46.34850955259553" lon="9.603860491196146"><ele>1037.0</ele><time>2026-03-28T11:40:55.001Z</time></trkpt><trkpt lat="46.34862536669878" lon="9.604109709851139"><ele>1038.0</ele><time>2026-03-28T11:40:56.001Z</time></trkpt><trkpt lat="46.34872403001113" lon="9.604378328033137"><ele>1039.0</ele><time>2026-03-28T11:40:57.001Z</time></trkpt><trkpt lat="46.34881196130599" lon="9.604664679211766"><ele>1040.0</ele><time>2026-03-28T11:40:58.001Z</time></trkpt><trkpt lat="46.34888181215092" lon="9.604948631700253"><ele>1040.0</ele><time>2026-03-28T11:40:59.001Z</time></trkpt><trkpt lat="46.34891036834144" lon="9.605240832818124"><ele>1040.0</ele><time>2026-03-28T11:41:00.001Z</time></trkpt><trkpt lat="46.348931564248105" lon="9.605531237127254"><ele>1040.0</ele><time>2026-03-28T11:41:01.001Z</time></trkpt><trkpt lat="46.34895144657282" lon="9.605821876322016"><ele>1039.6666666666667</ele><time>2026-03-28T11:41:02.001Z</time></trkpt><trkpt lat="46.34893383211088" lon="9.60611734974747"><ele>1039.3333333333333</ele><time>2026-03-28T11:41:03.001Z</time></trkpt><trkpt lat="46.348910029904935" lon="9.606400446088399"><ele>1039.0</ele><time>2026-03-28T11:41:04.001Z</time></trkpt><trkpt lat="46.34888505016926" lon="9.606674677168003"><ele>1042.0</ele><time>2026-03-28T11:41:05.001Z</time></trkpt><trkpt lat="46.34885482937766" lon="9.606947285966745"><ele>1045.0</ele><time>2026-03-28T11:41:06.001Z</time></trkpt><trkpt lat="46.34882441208941" lon="9.607216289656964"><ele>1048.0</ele><time>2026-03-28T11:41:07.001Z</time></trkpt><trkpt lat="46.348800287961005" lon="9.607485182285947"><ele>1051.0</ele><time>2026-03-28T11:41:08.001Z</time></trkpt><trkpt lat="46.34877869663395" lon="9.607758597472516"><ele>1054.0</ele><time>2026-03-28T11:41:09.001Z</time></trkpt><trkpt lat="46.348766580420005" lon="9.608034884105573"><ele>1057.0</ele><time>2026-03-28T11:41:10.001Z</time></trkpt><trkpt lat="46.348764023975136" lon="9.608314551030343"><ele>1058.0</ele><time>2026-03-28T11:41:11.001Z</time></trkpt><trkpt lat="46.34876549570034" lon="9.608602052789893"><ele>1059.0</ele><time>2026-03-28T11:41:12.001Z</time></trkpt><trkpt lat="46.34877755986785" lon="9.608888572655674"><ele>1060.0</ele><time>2026-03-28T11:41:13.001Z</time></trkpt><trkpt lat="46.34880338717153" lon="9.609165463705779"><ele>1060.0</ele><time>2026-03-28T11:41:14.001Z</time></trkpt><trkpt lat="46.34882615598688" lon="9.6094389449668"><ele>1060.0</ele><time>2026-03-28T11:41:15.001Z</time></trkpt><trkpt lat="46.34885364710652" lon="9.609715582478692"><ele>1060.0</ele><time>2026-03-28T11:41:16.001Z</time></trkpt><trkpt lat="46.34888181670731" lon="9.609988155669994"><ele>1058.6666666666665</ele><time>2026-03-28T11:41:17Z</time></trkpt><trkpt lat="46.34891143409362" lon="9.610262019871827"><ele>1057.3333333333333</ele><time>2026-03-28T11:41:18Z</time></trkpt><trkpt lat="46.348944410643796" lon="9.61053540330634"><ele>1056.0</ele><time>2026-03-28T11:41:19Z</time></trkpt><trkpt lat="46.34897681380708" lon="9.610810711891544"><ele>1056.0</ele><time>2026-03-28T11:41:20Z</time></trkpt><trkpt lat="46.34900989216632" lon="9.611087685529807"><ele>1056.0</ele><time>2026-03-28T11:41:21Z</time></trkpt><trkpt lat="46.349040548378916" lon="9.61136759594087"><ele>1056.0</ele><time>2026-03-28T11:41:22Z</time></trkpt><trkpt lat="46.349074380263126" lon="9.611653955892004"><ele>1057.6666666666667</ele><time>2026-03-28T11:41:23Z</time></trkpt><trkpt lat="46.349110099397016" lon="9.611949090081783"><ele>1059.3333333333335</ele><time>2026-03-28T11:41:24Z</time></trkpt><trkpt lat="46.34914820379418" lon="9.612249165069976"><ele>1061.0</ele><time>2026-03-28T11:41:25Z</time></trkpt><trkpt lat="46.34918492866991" lon="9.612554275419996"><ele>1065.6666666666667</ele><time>2026-03-28T11:41:26Z</time></trkpt><trkpt lat="46.34922168205137" lon="9.612859468081274"><ele>1070.3333333333333</ele><time>2026-03-28T11:41:27Z</time></trkpt><trkpt lat="46.34925387260318" lon="9.613159562729315"><ele>1075.0</ele><time>2026-03-28T11:41:28Z</time></trkpt><trkpt lat="46.349288373419874" lon="9.613464463655086"><ele>1073.6666666666665</ele><time>2026-03-28T11:41:29Z</time></trkpt><trkpt lat="46.34932391002408" lon="9.61376068400423"><ele>1072.3333333333333</ele><time>2026-03-28T11:41:30Z</time></trkpt><trkpt lat="46.34936163859855" lon="9.614052678638268"><ele>1071.0</ele><time>2026-03-28T11:41:31Z</time></trkpt><trkpt lat="46.34937865193659" lon="9.614345154782553"><ele>1069.3333333333333</ele><time>2026-03-28T11:41:32Z</time></trkpt><trkpt lat="46.34941113788996" lon="9.614634794194707"><ele>1067.6666666666665</ele><time>2026-03-28T11:41:33Z</time></trkpt><trkpt lat="46.34945598546331" lon="9.614910538247655"><ele>1066.0</ele><time>2026-03-28T11:41:34Z</time></trkpt><trkpt lat="46.34948409747" lon="9.615187446943118"><ele>1066.3333333333333</ele><time>2026-03-28T11:41:35Z</time></trkpt><trkpt lat="46.3495145697752" lon="9.615467511257883"><ele>1066.6666666666667</ele><time>2026-03-28T11:41:36Z</time></trkpt><trkpt lat="46.349543548460716" lon="9.615729718311758"><ele>1067.0</ele><time>2026-03-28T11:41:37Z</time></trkpt><trkpt lat="46.34956925157563" lon="9.615992029311219"><ele>1069.0</ele><time>2026-03-28T11:41:38Z</time></trkpt><trkpt lat="46.349597255901884" lon="9.616244026861576"><ele>1071.0</ele><time>2026-03-28T11:41:39Z</time></trkpt><trkpt lat="46.349627650015755" lon="9.61649398017045"><ele>1073.0</ele><time>2026-03-28T11:41:40Z</time></trkpt><trkpt lat="46.34965578211563" lon="9.616750243131367"><ele>1075.0</ele><time>2026-03-28T11:41:41Z</time></trkpt><trkpt lat="46.349684704663254" lon="9.616994396327483"><ele>1077.0</ele><time>2026-03-28T11:41:42Z</time></trkpt><trkpt lat="46.349712255438945" lon="9.617225130941465"><ele>1079.0</ele><time>2026-03-28T11:41:43Z</time></trkpt><trkpt lat="46.349737442149944" lon="9.617440904889762"><ele>1075.25</ele><time>2026-03-28T11:41:44Z</time></trkpt><trkpt lat="46.34976008068574" lon="9.617648300649082"><ele>1071.5</ele><time>2026-03-28T11:41:45Z</time></trkpt><trkpt lat="46.349781330339255" lon="9.617860532241208"><ele>1067.75</ele><time>2026-03-28T11:41:46Z</time></trkpt><trkpt lat="46.34980314948174" lon="9.61807640931205"><ele>1064.0</ele><time>2026-03-28T11:41:47Z</time></trkpt><trkpt lat="46.349827442273046" lon="9.618290098600083"><ele>1064.0</ele><time>2026-03-28T11:41:48Z</time></trkpt><trkpt lat="46.349858216532695" lon="9.618513043672888"><ele>1064.0</ele><time>2026-03-28T11:41:49Z</time></trkpt><trkpt lat="46.34988608210399" lon="9.618747413510489"><ele>1064.0</ele><time>2026-03-28T11:41:50Z</time></trkpt><trkpt lat="46.349910552715826" lon="9.618985977719229"><ele>1065.0</ele><time>2026-03-28T11:41:51Z</time></trkpt><trkpt lat="46.34992887832018" lon="9.619227393416601"><ele>1066.0</ele><time>2026-03-28T11:41:52Z</time></trkpt><trkpt lat="46.34995871722504" lon="9.619471846008375"><ele>1067.0</ele><time>2026-03-28T11:41:53Z</time></trkpt><trkpt lat="46.34999416629791" lon="9.619716795732012"><ele>1067.3333333333335</ele><time>2026-03-28T11:41:54Z</time></trkpt><trkpt lat="46.35002474306608" lon="9.619955684493915"><ele>1067.6666666666667</ele><time>2026-03-28T11:41:55Z</time></trkpt><trkpt lat="46.35004673897715" lon="9.620189912085833"><ele>1068.0</ele><time>2026-03-28T11:41:56Z</time></trkpt><trkpt lat="46.35006367164408" lon="9.620427035067054"><ele>1068.0</ele><time>2026-03-28T11:41:57Z</time></trkpt><trkpt lat="46.35006701359481" lon="9.620665211893114"><ele>1068.0</ele><time>2026-03-28T11:41:58Z</time></trkpt><trkpt lat="46.35005294043397" lon="9.620909940602797"><ele>1068.0</ele><time>2026-03-28T11:41:59Z</time></trkpt><trkpt lat="46.350057694807774" lon="9.621161505762398"><ele>1069.3333333333333</ele><time>2026-03-28T11:42:00Z</time></trkpt><trkpt lat="46.350060309622265" lon="9.621427648971157"><ele>1070.6666666666665</ele><time>2026-03-28T11:42:01Z</time></trkpt><trkpt lat="46.35002988167934" lon="9.62170449557568"><ele>1072.0</ele><time>2026-03-28T11:42:02Z</time></trkpt><trkpt lat="46.35002361974156" lon="9.621984079237452"><ele>1073.0</ele><time>2026-03-28T11:42:03Z</time></trkpt><trkpt lat="46.35000312263727" lon="9.622262636066212"><ele>1074.0</ele><time>2026-03-28T11:42:04Z</time></trkpt><trkpt lat="46.34998827442442" lon="9.622537162785765"><ele>1075.0</ele><time>2026-03-28T11:42:05Z</time></trkpt><trkpt lat="46.349986184637146" lon="9.622802282249939"><ele>1075.0</ele><time>2026-03-28T11:42:06Z</time></trkpt><trkpt lat="46.34999531643469" lon="9.623076117352122"><ele>1075.0</ele><time>2026-03-28T11:42:07Z</time></trkpt><trkpt lat="46.350013001600885" lon="9.623347629606092"><ele>1075.0</ele><time>2026-03-28T11:42:08Z</time></trkpt><trkpt lat="46.3500381366247" lon="9.623612439750662"><ele>1075.3333333333333</ele><time>2026-03-28T11:42:09Z</time></trkpt><trkpt lat="46.35007759598974" lon="9.623886565680717"><ele>1075.6666666666667</ele><time>2026-03-28T11:42:10Z</time></trkpt><trkpt lat="46.35013267405442" lon="9.624158118338432"><ele>1076.0</ele><time>2026-03-28T11:42:11Z</time></trkpt><trkpt lat="46.350198299671284" lon="9.624425017479519"><ele>1077.0</ele><time>2026-03-28T11:42:12Z</time></trkpt><trkpt lat="46.350273963394045" lon="9.624696285938864"><ele>1078.0</ele><time>2026-03-28T11:42:13Z</time></trkpt><trkpt lat="46.35034610470963" lon="9.624972269698462"><ele>1079.0</ele><time>2026-03-28T11:42:14Z</time></trkpt><trkpt lat="46.35041940134493" lon="9.625246053954513"><ele>1079.3333333333335</ele><time>2026-03-28T11:42:15Z</time></trkpt><trkpt lat="46.35049532606503" lon="9.625520793764549"><ele>1079.6666666666667</ele><time>2026-03-28T11:42:16Z</time></trkpt><trkpt lat="46.35056933828045" lon="9.625799209609982"><ele>1080.0</ele><time>2026-03-28T11:42:17Z</time></trkpt><trkpt lat="46.35065112679529" lon="9.626052367262702"><ele>1081.0</ele><time>2026-03-28T11:42:18Z</time></trkpt><trkpt lat="46.350722238318895" lon="9.626343592920342"><ele>1082.0</ele><time>2026-03-28T11:42:19Z</time></trkpt><trkpt lat="46.35079928165435" lon="9.62661829798084"><ele>1083.0</ele><time>2026-03-28T11:42:20Z</time></trkpt><trkpt lat="46.35087655019321" lon="9.62688817402844"><ele>1083.6666666666667</ele><time>2026-03-28T11:42:21Z</time></trkpt><trkpt lat="46.350958411793364" lon="9.627168519669224"><ele>1084.3333333333335</ele><time>2026-03-28T11:42:22.001Z</time></trkpt><trkpt lat="46.35104022401451" lon="9.627451079326578"><ele>1085.0</ele><time>2026-03-28T11:42:23.001Z</time></trkpt><trkpt lat="46.351123573191295" lon="9.62773377607456"><ele>1086.3333333333335</ele><time>2026-03-28T11:42:24.001Z</time></trkpt><trkpt lat="46.35121437628255" lon="9.628010969441616"><ele>1087.6666666666667</ele><time>2026-03-28T11:42:25.001Z</time></trkpt><trkpt lat="46.35131344956819" lon="9.628285897692122"><ele>1089.0</ele><time>2026-03-28T11:42:26.001Z</time></trkpt><trkpt lat="46.35141949947463" lon="9.628548941260417"><ele>1089.0</ele><time>2026-03-28T11:42:27.001Z</time></trkpt><trkpt lat="46.35153476441504" lon="9.62880691015265"><ele>1089.0</ele><time>2026-03-28T11:42:28.001Z</time></trkpt><trkpt lat="46.35165889295663" lon="9.629058374276987"><ele>1089.0</ele><time>2026-03-28T11:42:29.001Z</time></trkpt><trkpt lat="46.35178534920785" lon="9.629294797425802"><ele>1091.0</ele><time>2026-03-28T11:42:30.001Z</time></trkpt><trkpt lat="46.351908378528016" lon="9.629518691515846"><ele>1093.0</ele><time>2026-03-28T11:42:31.001Z</time></trkpt><trkpt lat="46.35203343906906" lon="9.629728026265317"><ele>1095.0</ele><time>2026-03-28T11:42:32.001Z</time></trkpt><trkpt lat="46.352160279752084" lon="9.629930251500959"><ele>1094.6666666666667</ele><time>2026-03-28T11:42:33.001Z</time></trkpt><trkpt lat="46.35228641719946" lon="9.630129687198709"><ele>1094.3333333333335</ele><time>2026-03-28T11:42:34.001Z</time></trkpt><trkpt lat="46.35240946309894" lon="9.630323922037226"><ele>1094.0</ele><time>2026-03-28T11:42:35.001Z</time></trkpt><trkpt lat="46.352534356056" lon="9.630518608188854"><ele>1097.3333333333335</ele><time>2026-03-28T11:42:36.001Z</time></trkpt><trkpt lat="46.35265516226493" lon="9.630715602557816"><ele>1100.6666666666667</ele><time>2026-03-28T11:42:37.001Z</time></trkpt><trkpt lat="46.352776358029836" lon="9.630922215780334"><ele>1104.0</ele><time>2026-03-28T11:42:38.001Z</time></trkpt><trkpt lat="46.352897365970016" lon="9.631113358522061"><ele>1103.3333333333333</ele><time>2026-03-28T11:42:39.001Z</time></trkpt><trkpt lat="46.353015646241225" lon="9.63129923110481"><ele>1102.6666666666665</ele><time>2026-03-28T11:42:40.001Z</time></trkpt><trkpt lat="46.35312848773857" lon="9.631487921870766"><ele>1102.0</ele><time>2026-03-28T11:42:41.001Z</time></trkpt><trkpt lat="46.353243924051775" lon="9.631675812677857"><ele>1102.0</ele><time>2026-03-28T11:42:42.001Z</time></trkpt><trkpt lat="46.353366505496155" lon="9.631876200515926"><ele>1102.0</ele><time>2026-03-28T11:42:43.001Z</time></trkpt><trkpt lat="46.35349676873749" lon="9.632081655428108"><ele>1102.0</ele><time>2026-03-28T11:42:44.001Z</time></trkpt><trkpt lat="46.353632542837595" lon="9.632295036057226"><ele>1104.6666666666665</ele><time>2026-03-28T11:42:45.001Z</time></trkpt><trkpt lat="46.35375270194674" lon="9.632491089270372"><ele>1107.3333333333333</ele><time>2026-03-28T11:42:46.001Z</time></trkpt><trkpt lat="46.353859906665456" lon="9.63266907298013"><ele>1110.0</ele><time>2026-03-28T11:42:47.001Z</time></trkpt><trkpt lat="46.35396997892407" lon="9.632852929272651"><ele>1111.3333333333333</ele><time>2026-03-28T11:42:48.001Z</time></trkpt><trkpt lat="46.354089452953154" lon="9.633041322642676"><ele>1112.6666666666665</ele><time>2026-03-28T11:42:49.001Z</time></trkpt><trkpt lat="46.35422140162951" lon="9.633243804256558"><ele>1114.0</ele><time>2026-03-28T11:42:50.001Z</time></trkpt><trkpt lat="46.3543636261874" lon="9.633463800340696"><ele>1117.3333333333333</ele><time>2026-03-28T11:42:51.001Z</time></trkpt><trkpt lat="46.35450979883178" lon="9.633690133195818"><ele>1120.6666666666667</ele><time>2026-03-28T11:42:52.001Z</time></trkpt><trkpt lat="46.35462946199282" lon="9.633902139011845"><ele>1124.0</ele><time>2026-03-28T11:42:53.001Z</time></trkpt><trkpt lat="46.354743175830315" lon="9.634117633396619"><ele>1124.0</ele><time>2026-03-28T11:42:54.001Z</time></trkpt><trkpt lat="46.35485727267164" lon="9.63434383491869"><ele>1124.0</ele><time>2026-03-28T11:42:55.001Z</time></trkpt><trkpt lat="46.35496630806403" lon="9.634590756078595"><ele>1124.0</ele><time>2026-03-28T11:42:56.001Z</time></trkpt><trkpt lat="46.35506606822259" lon="9.634839513614828"><ele>1127.0</ele><time>2026-03-28T11:42:57.001Z</time></trkpt><trkpt lat="46.35515794779234" lon="9.635099799128517"><ele>1130.0</ele><time>2026-03-28T11:42:58.001Z</time></trkpt><trkpt lat="46.35525161554819" lon="9.635367916648802"><ele>1133.0</ele><time>2026-03-28T11:42:59.001Z</time></trkpt><trkpt lat="46.35533810322948" lon="9.63565270659089"><ele>1135.0</ele><time>2026-03-28T11:43:00.001Z</time></trkpt><trkpt lat="46.355424361877226" lon="9.635934666952643"><ele>1137.0</ele><time>2026-03-28T11:43:01.001Z</time></trkpt><trkpt lat="46.35551441089034" lon="9.636217822801532"><ele>1139.0</ele><time>2026-03-28T11:43:02.001Z</time></trkpt><trkpt lat="46.35560709801888" lon="9.63649782430282"><ele>1139.3333333333335</ele><time>2026-03-28T11:43:03.001Z</time></trkpt><trkpt lat="46.35568795136107" lon="9.636796272040947"><ele>1139.6666666666667</ele><time>2026-03-28T11:43:04.001Z</time></trkpt><trkpt lat="46.355779261578014" lon="9.637096761401288"><ele>1140.0</ele><time>2026-03-28T11:43:05.001Z</time></trkpt><trkpt lat="46.355879342365085" lon="9.637405694873685"><ele>1142.0</ele><time>2026-03-28T11:43:06.001Z</time></trkpt><trkpt lat="46.35600810258231" lon="9.637706653855407"><ele>1144.0</ele><time>2026-03-28T11:43:07.001Z</time></trkpt><trkpt lat="46.356151723238625" lon="9.638009740716718"><ele>1145.5</ele><time>2026-03-28T11:43:08.001Z</time></trkpt><trkpt lat="46.356309896115626" lon="9.638287437609062"><ele>1147.0</ele><time>2026-03-28T11:43:09.001Z</time></trkpt><trkpt lat="46.35647391082586" lon="9.638543907585758"><ele>1150.6666666666665</ele><time>2026-03-28T11:43:10.001Z</time></trkpt><trkpt lat="46.35663661076531" lon="9.638778870436523"><ele>1154.3333333333333</ele><time>2026-03-28T11:43:11.001Z</time></trkpt><trkpt lat="46.356793583909095" lon="9.638995502564846"><ele>1158.0</ele><time>2026-03-28T11:43:12.001Z</time></trkpt><trkpt lat="46.35695057577735" lon="9.639224226389853"><ele>1158.0</ele><time>2026-03-28T11:43:13.001Z</time></trkpt><trkpt lat="46.35710885135605" lon="9.63944998499453"><ele>1158.0</ele><time>2026-03-28T11:43:14.001Z</time></trkpt><trkpt lat="46.35726879172541" lon="9.639669387026597"><ele>1158.0</ele><time>2026-03-28T11:43:15.001Z</time></trkpt><trkpt lat="46.3574191498147" lon="9.63988337941981"><ele>1158.3333333333333</ele><time>2026-03-28T11:43:16.001Z</time></trkpt><trkpt lat="46.3575643692092" lon="9.640094964318285"><ele>1158.6666666666665</ele><time>2026-03-28T11:43:17.001Z</time></trkpt><trkpt lat="46.35770121003683" lon="9.640295064908535"><ele>1159.0</ele><time>2026-03-28T11:43:18.001Z</time></trkpt><trkpt lat="46.35783830866153" lon="9.64049851683892"><ele>1161.3333333333333</ele><time>2026-03-28T11:43:19.001Z</time></trkpt><trkpt lat="46.35796748374955" lon="9.640694437814236"><ele>1163.6666666666667</ele><time>2026-03-28T11:43:20.001Z</time></trkpt><trkpt lat="46.358097195342104" lon="9.640887056086367"><ele>1166.0</ele><time>2026-03-28T11:43:21.001Z</time></trkpt><trkpt lat="46.35821746970161" lon="9.641058631165846"><ele>1169.3333333333335</ele><time>2026-03-28T11:43:22.001Z</time></trkpt><trkpt lat="46.35834315327784" lon="9.641194263155302"><ele>1172.6666666666667</ele><time>2026-03-28T11:43:23.001Z</time></trkpt><trkpt lat="46.35848070752449" lon="9.641265835598805"><ele>1176.0</ele><time>2026-03-28T11:43:24.001Z</time></trkpt><trkpt lat="46.358635980999026" lon="9.641270497324752"><ele>1176.0</ele><time>2026-03-28T11:43:25.001Z</time></trkpt><trkpt lat="46.35878628814452" lon="9.641284463478224"><ele>1176.0</ele><time>2026-03-28T11:43:26.001Z</time></trkpt><trkpt lat="46.35892942518004" lon="9.641344634780557"><ele>1176.0</ele><time>2026-03-28T11:43:27.001Z</time></trkpt><trkpt lat="46.359064988189886" lon="9.641480557904607"><ele>1176.6666666666667</ele><time>2026-03-28T11:43:28.001Z</time></trkpt><trkpt lat="46.35915496933609" lon="9.641677169943106"><ele>1177.3333333333335</ele><time>2026-03-28T11:43:29.001Z</time></trkpt><trkpt lat="46.359235432799906" lon="9.641871232963958"><ele>1178.0</ele><time>2026-03-28T11:43:30.001Z</time></trkpt><trkpt lat="46.359333378261084" lon="9.642054256066631"><ele>1179.5</ele><time>2026-03-28T11:43:31.001Z</time></trkpt><trkpt lat="46.35940829720613" lon="9.642248511762693"><ele>1181.0</ele><time>2026-03-28T11:43:32Z</time></trkpt><trkpt lat="46.35948959906372" lon="9.64242135864855"><ele>1182.5</ele><time>2026-03-28T11:43:33Z</time></trkpt><trkpt lat="46.35955622849504" lon="9.64257135487265"><ele>1184.0</ele><time>2026-03-28T11:43:34Z</time></trkpt><trkpt lat="46.359586178557684" lon="9.642712894793904"><ele>1185.8</ele><time>2026-03-28T11:43:35Z</time></trkpt><trkpt lat="46.35955901804366" lon="9.642846434532213"><ele>1187.6000000000001</ele><time>2026-03-28T11:43:36Z</time></trkpt><trkpt lat="46.359488051686505" lon="9.642945745956341"><ele>1189.4</ele><time>2026-03-28T11:43:37Z</time></trkpt><trkpt lat="46.35937739364221" lon="9.642954977189856"><ele>1191.2</ele><time>2026-03-28T11:43:38Z</time></trkpt><trkpt lat="46.3592824379605" lon="9.643019305138885"><ele>1193.0</ele><time>2026-03-28T11:43:39Z</time></trkpt><trkpt lat="46.35917455772909" lon="9.6430935272304"><ele>1193.0</ele><time>2026-03-28T11:43:40Z</time></trkpt><trkpt lat="46.35904812645261" lon="9.643182805980901"><ele>1193.0</ele><time>2026-03-28T11:43:41Z</time></trkpt><trkpt lat="46.35891726494117" lon="9.643288214759801"><ele>1193.0</ele><time>2026-03-28T11:43:42Z</time></trkpt><trkpt lat="46.35878245699946" lon="9.643390239194229"><ele>1193.0</ele><time>2026-03-28T11:43:43Z</time></trkpt><trkpt lat="46.35865018807834" lon="9.64349426680062"><ele>1192.5</ele><time>2026-03-28T11:43:44Z</time></trkpt><trkpt lat="46.358531566925016" lon="9.643589841537988"><ele>1192.0</ele><time>2026-03-28T11:43:45Z</time></trkpt><trkpt lat="46.35842303154011" lon="9.64367243332942"><ele>1191.5</ele><time>2026-03-28T11:43:46Z</time></trkpt><trkpt lat="46.35832025498461" lon="9.64375074762249"><ele>1191.0</ele><time>2026-03-28T11:43:47Z</time></trkpt><trkpt lat="46.358235962986846" lon="9.643837151016452"><ele>1193.2</ele><time>2026-03-28T11:43:48Z</time></trkpt><trkpt lat="46.358205521169985" lon="9.643962632559605"><ele>1195.3999999999999</ele><time>2026-03-28T11:43:49Z</time></trkpt><trkpt lat="46.358225355007455" lon="9.644095362499002"><ele>1197.6</ele><time>2026-03-28T11:43:50Z</time></trkpt><trkpt lat="46.35829959183848" lon="9.644192930515658"><ele>1199.8</ele><time>2026-03-28T11:43:51Z</time></trkpt><trkpt lat="46.35839598025128" lon="9.644240833499943"><ele>1202.0</ele><time>2026-03-28T11:43:52Z</time></trkpt><trkpt lat="46.358512312780796" lon="9.64426216303898"><ele>1202.0</ele><time>2026-03-28T11:43:53Z</time></trkpt><trkpt lat="46.3586460681202" lon="9.644297210837896"><ele>1202.0</ele><time>2026-03-28T11:43:54Z</time></trkpt><trkpt lat="46.35879521507907" lon="9.644353477966382"><ele>1202.0</ele><time>2026-03-28T11:43:55Z</time></trkpt><trkpt lat="46.358969951525836" lon="9.644424110924746"><ele>1208.0</ele><time>2026-03-28T11:43:56Z</time></trkpt><trkpt lat="46.359148088851214" lon="9.644516683597079"><ele>1214.0</ele><time>2026-03-28T11:43:57Z</time></trkpt><trkpt lat="46.35932985519114" lon="9.644639446391361"><ele>1220.0</ele><time>2026-03-28T11:43:58Z</time></trkpt><trkpt lat="46.35950298422084" lon="9.644766164804587"><ele>1220.0</ele><time>2026-03-28T11:43:59Z</time></trkpt><trkpt lat="46.3596566489024" lon="9.644912740113114"><ele>1220.0</ele><time>2026-03-28T11:44:00Z</time></trkpt><trkpt lat="46.35978188062055" lon="9.645094452433579"><ele>1220.0</ele><time>2026-03-28T11:44:01Z</time></trkpt><trkpt lat="46.35993466380727" lon="9.64524459018767"><ele>1225.6666666666667</ele><time>2026-03-28T11:44:02Z</time></trkpt><trkpt lat="46.3601170506017" lon="9.645307996418993"><ele>1231.3333333333333</ele><time>2026-03-28T11:44:03Z</time></trkpt><trkpt lat="46.36030774612902" lon="9.645385021584824"><ele>1237.0</ele><time>2026-03-28T11:44:04Z</time></trkpt><trkpt lat="46.36050418775695" lon="9.645456108486123"><ele>1236.6666666666665</ele><time>2026-03-28T11:44:05Z</time></trkpt><trkpt lat="46.36068586364231" lon="9.645547018219366"><ele>1236.3333333333333</ele><time>2026-03-28T11:44:06Z</time></trkpt><trkpt lat="46.36084355994898" lon="9.64564099608351"><ele>1236.0</ele><time>2026-03-28T11:44:07Z</time></trkpt><trkpt lat="46.360982672185386" lon="9.64577922908296"><ele>1236.0</ele><time>2026-03-28T11:44:08Z</time></trkpt><trkpt lat="46.36110342977973" lon="9.645939433829051"><ele>1236.0</ele><time>2026-03-28T11:44:09Z</time></trkpt><trkpt lat="46.36123108137504" lon="9.6460804772781"><ele>1236.0</ele><time>2026-03-28T11:44:10Z</time></trkpt><trkpt lat="46.36138618549018" lon="9.646153631438999"><ele>1239.3333333333333</ele><time>2026-03-28T11:44:11Z</time></trkpt><trkpt lat="46.36154076059587" lon="9.646221651077424"><ele>1242.6666666666665</ele><time>2026-03-28T11:44:12Z</time></trkpt><trkpt lat="46.36169196552103" lon="9.646272961405476"><ele>1246.0</ele><time>2026-03-28T11:44:13Z</time></trkpt><trkpt lat="46.36182520156696" lon="9.646326663707914"><ele>1246.0</ele><time>2026-03-28T11:44:14Z</time></trkpt><trkpt lat="46.3619406475487" lon="9.64637557530839"><ele>1246.0</ele><time>2026-03-28T11:44:15Z</time></trkpt><trkpt lat="46.362029401388064" lon="9.646408430531453"><ele>1246.0</ele><time>2026-03-28T11:44:16Z</time></trkpt><trkpt lat="46.36210452590803" lon="9.646446342716686"><ele>1246.0</ele><time>2026-03-28T11:44:17Z</time></trkpt><trkpt lat="46.362162762462304" lon="9.646503224436842"><ele>1246.0</ele><time>2026-03-28T11:44:18Z</time></trkpt><trkpt lat="46.362196358817584" lon="9.64659092649534"><ele>1246.0</ele><time>2026-03-28T11:44:19Z</time></trkpt><trkpt lat="46.36213637212487" lon="9.646747522459634"><ele>1246.0</ele><time>2026-03-28T11:44:21Z</time></trkpt><trkpt lat="46.362076637038555" lon="9.646838238580669"><ele>1246.0</ele><time>2026-03-28T11:44:22Z</time></trkpt><trkpt lat="46.3619957556842" lon="9.646916273515991"><ele>1246.0</ele><time>2026-03-28T11:44:23Z</time></trkpt><trkpt lat="46.361911355578634" lon="9.647019015130345"><ele>1246.0</ele><time>2026-03-28T11:44:24Z</time></trkpt><trkpt lat="46.36181934713627" lon="9.647120985703863"><ele>1246.0</ele><time>2026-03-28T11:44:25Z</time></trkpt><trkpt lat="46.361724280900305" lon="9.647233221906633"><ele>1250.3333333333333</ele><time>2026-03-28T11:44:26Z</time></trkpt><trkpt lat="46.36159801948909" lon="9.647347201722194"><ele>1254.6666666666667</ele><time>2026-03-28T11:44:27Z</time></trkpt><trkpt lat="46.361461409978254" lon="9.647480503092709"><ele>1259.0</ele><time>2026-03-28T11:44:28Z</time></trkpt><trkpt lat="46.361320492105584" lon="9.647568297116598"><ele>1259.0</ele><time>2026-03-28T11:44:29Z</time></trkpt><trkpt lat="46.36119620519968" lon="9.647594268157242"><ele>1259.0</ele><time>2026-03-28T11:44:30Z</time></trkpt><trkpt lat="46.36102565603712" lon="9.647553220012089"><ele>1259.0</ele><time>2026-03-28T11:44:31Z</time></trkpt><trkpt lat="46.360869043621136" lon="9.647628282937903"><ele>1259.0</ele><time>2026-03-28T11:44:33Z</time></trkpt><trkpt lat="46.36080177504707" lon="9.647708651141869"><ele>1259.0</ele><time>2026-03-28T11:44:34Z</time></trkpt><trkpt lat="46.36077820098391" lon="9.647845952661399"><ele>1259.0</ele><time>2026-03-28T11:44:35Z</time></trkpt><trkpt lat="46.360818592594406" lon="9.647992116188457"><ele>1259.0</ele><time>2026-03-28T11:44:36Z</time></trkpt><trkpt lat="46.36092197763204" lon="9.648124700246191"><ele>1259.0</ele><time>2026-03-28T11:44:37Z</time></trkpt><trkpt lat="46.361050229054925" lon="9.648243877590748"><ele>1262.6666666666667</ele><time>2026-03-28T11:44:38Z</time></trkpt><trkpt lat="46.36119540816182" lon="9.648393578503082"><ele>1266.3333333333333</ele><time>2026-03-28T11:44:39.001Z</time></trkpt><trkpt lat="46.3613527667945" lon="9.648554137430922"><ele>1270.0</ele><time>2026-03-28T11:44:40.001Z</time></trkpt><trkpt lat="46.36152318452457" lon="9.648711293976008"><ele>1276.0</ele><time>2026-03-28T11:44:41.001Z</time></trkpt><trkpt lat="46.36169459096759" lon="9.648840135645685"><ele>1282.0</ele><time>2026-03-28T11:44:42.001Z</time></trkpt><trkpt lat="46.36185692687099" lon="9.648947169702145"><ele>1288.0</ele><time>2026-03-28T11:44:43.001Z</time></trkpt><trkpt lat="46.36203315650674" lon="9.649020784433667"><ele>1288.0</ele><time>2026-03-28T11:44:44.001Z</time></trkpt><trkpt lat="46.36221270807897" lon="9.649040332438306"><ele>1288.0</ele><time>2026-03-28T11:44:45.001Z</time></trkpt><trkpt lat="46.362381834052144" lon="9.649014803229331"><ele>1288.0</ele><time>2026-03-28T11:44:46.001Z</time></trkpt><trkpt lat="46.362534275405466" lon="9.648993071150178"><ele>1288.0</ele><time>2026-03-28T11:44:47.001Z</time></trkpt><trkpt lat="46.36264887686276" lon="9.649108708778654"><ele>1288.0</ele><time>2026-03-28T11:44:48.001Z</time></trkpt><trkpt lat="46.362732468002406" lon="9.649279529281758"><ele>1288.0</ele><time>2026-03-28T11:44:49.001Z</time></trkpt><trkpt lat="46.36285831481814" lon="9.649467559883025"><ele>1288.0</ele><time>2026-03-28T11:44:50.001Z</time></trkpt><trkpt lat="46.36301565548798" lon="9.64961296783143"><ele>1288.0</ele><time>2026-03-28T11:44:51.001Z</time></trkpt><trkpt lat="46.3631708369245" lon="9.649799683394967"><ele>1288.0</ele><time>2026-03-28T11:44:52.001Z</time></trkpt><trkpt lat="46.363335871884495" lon="9.649973602307796"><ele>1288.0</ele><time>2026-03-28T11:44:53.001Z</time></trkpt><trkpt lat="46.36349937974626" lon="9.650119934159992"><ele>1288.0</ele><time>2026-03-28T11:44:54.001Z</time></trkpt><trkpt lat="46.363668396513226" lon="9.650197149128896"><ele>1288.0</ele><time>2026-03-28T11:44:55.001Z</time></trkpt><trkpt lat="46.36382674797858" lon="9.65023212881707"><ele>1287.0</ele><time>2026-03-28T11:44:56.001Z</time></trkpt><trkpt lat="46.36396197477532" lon="9.650249534705988"><ele>1286.0</ele><time>2026-03-28T11:44:57.001Z</time></trkpt><trkpt lat="46.36404209024756" lon="9.65028640834531"><ele>1285.0</ele><time>2026-03-28T11:44:58.001Z</time></trkpt><trkpt lat="46.364080719780496" lon="9.650369848605642"><ele>1284.0</ele><time>2026-03-28T11:44:59.001Z</time></trkpt><trkpt lat="46.364071839295406" lon="9.650477248536449"><ele>1283.0</ele><time>2026-03-28T11:45:00.001Z</time></trkpt><trkpt lat="46.36402167769783" lon="9.65059470427454"><ele>1285.75</ele><time>2026-03-28T11:45:01.001Z</time></trkpt><trkpt lat="46.36389491405857" lon="9.650678471432746"><ele>1288.5</ele><time>2026-03-28T11:45:02.001Z</time></trkpt><trkpt lat="46.3638280595411" lon="9.650853028121706"><ele>1291.25</ele><time>2026-03-28T11:45:03.001Z</time></trkpt><trkpt lat="46.36379391111448" lon="9.651071379276484"><ele>1294.0</ele><time>2026-03-28T11:45:04.001Z</time></trkpt><trkpt lat="46.36373586429522" lon="9.651245487692833"><ele>1298.25</ele><time>2026-03-28T11:45:05.001Z</time></trkpt><trkpt lat="46.36364312953935" lon="9.65137906325161"><ele>1302.5</ele><time>2026-03-28T11:45:06.001Z</time></trkpt><trkpt lat="46.36351774354079" lon="9.651432105054747"><ele>1306.75</ele><time>2026-03-28T11:45:07.001Z</time></trkpt><trkpt lat="46.363389872358816" lon="9.651407597593673"><ele>1311.0</ele><time>2026-03-28T11:45:08.001Z</time></trkpt><trkpt lat="46.36323974438253" lon="9.651389616506114"><ele>1311.0</ele><time>2026-03-28T11:45:09.001Z</time></trkpt><trkpt lat="46.363052602798966" lon="9.651382277145082"><ele>1311.0</ele><time>2026-03-28T11:45:10.001Z</time></trkpt><trkpt lat="46.362889910794514" lon="9.651349737603715"><ele>1311.0</ele><time>2026-03-28T11:45:11.001Z</time></trkpt><trkpt lat="46.36277214954329" lon="9.65133590878104"><ele>1312.8333333333333</ele><time>2026-03-28T11:45:12.001Z</time></trkpt><trkpt lat="46.3626855729468" lon="9.651345476474004"><ele>1314.6666666666667</ele><time>2026-03-28T11:45:13.001Z</time></trkpt><trkpt lat="46.362625727679564" lon="9.651414686555608"><ele>1316.5</ele><time>2026-03-28T11:45:14.001Z</time></trkpt><trkpt lat="46.3625955487964" lon="9.651533193539725"><ele>1318.3333333333335</ele><time>2026-03-28T11:45:15.001Z</time></trkpt><trkpt lat="46.36260540387564" lon="9.651679165391169"><ele>1320.1666666666667</ele><time>2026-03-28T11:45:16.001Z</time></trkpt><trkpt lat="46.362673157342115" lon="9.651769953242972"><ele>1322.0</ele><time>2026-03-28T11:45:17.001Z</time></trkpt><trkpt lat="46.36277625112448" lon="9.65181580247442"><ele>1322.0</ele><time>2026-03-28T11:45:18.001Z</time></trkpt><trkpt lat="46.3629034574917" lon="9.651846295037327"><ele>1322.0</ele><time>2026-03-28T11:45:19.001Z</time></trkpt><trkpt lat="46.36304243157368" lon="9.651888229688323"><ele>1322.0</ele><time>2026-03-28T11:45:20.001Z</time></trkpt><trkpt lat="46.36318361279642" lon="9.651982609249421"><ele>1322.0</ele><time>2026-03-28T11:45:21.001Z</time></trkpt><trkpt lat="46.36331558666425" lon="9.652141942251175"><ele>1323.0</ele><time>2026-03-28T11:45:22.001Z</time></trkpt><trkpt lat="46.36340764031861" lon="9.652351342054912"><ele>1324.0</ele><time>2026-03-28T11:45:23.001Z</time></trkpt><trkpt lat="46.36352627686398" lon="9.652546348067478"><ele>1325.0</ele><time>2026-03-28T11:45:24.001Z</time></trkpt><trkpt lat="46.363632545967896" lon="9.65275824170789"><ele>1327.3333333333335</ele><time>2026-03-28T11:45:25.001Z</time></trkpt><trkpt lat="46.36376334313937" lon="9.652958046961757"><ele>1329.6666666666667</ele><time>2026-03-28T11:45:26.001Z</time></trkpt><trkpt lat="46.36392519636768" lon="9.653130973168949"><ele>1332.0</ele><time>2026-03-28T11:45:27.001Z</time></trkpt><trkpt lat="46.36409666352254" lon="9.653272699325244"><ele>1332.0</ele><time>2026-03-28T11:45:28.001Z</time></trkpt><trkpt lat="46.364287227968724" lon="9.65337291604216"><ele>1332.0</ele><time>2026-03-28T11:45:29Z</time></trkpt><trkpt lat="46.364499242402495" lon="9.653444729568031"><ele>1332.0</ele><time>2026-03-28T11:45:30Z</time></trkpt><trkpt lat="46.364741489514664" lon="9.653495038588776"><ele>1329.0</ele><time>2026-03-28T11:45:31Z</time></trkpt><trkpt lat="46.36498475511211" lon="9.653525535123897"><ele>1326.0</ele><time>2026-03-28T11:45:32Z</time></trkpt><trkpt lat="46.36520582005286" lon="9.653598407324669"><ele>1329.0</ele><time>2026-03-28T11:45:33Z</time></trkpt><trkpt lat="46.36539488127005" lon="9.653645203619933"><ele>1332.0</ele><time>2026-03-28T11:45:34Z</time></trkpt><trkpt lat="46.365572797045594" lon="9.653689126065506"><ele>1335.0</ele><time>2026-03-28T11:45:35Z</time></trkpt><trkpt lat="46.36573327963293" lon="9.653711337390552"><ele>1335.0</ele><time>2026-03-28T11:45:36Z</time></trkpt><trkpt lat="46.36586403614525" lon="9.653749349782329"><ele>1335.0</ele><time>2026-03-28T11:45:37Z</time></trkpt><trkpt lat="46.36598104703377" lon="9.653783789761162"><ele>1335.0</ele><time>2026-03-28T11:45:38Z</time></trkpt><trkpt lat="46.36608498311588" lon="9.653814436861616"><ele>1335.0</ele><time>2026-03-28T11:45:39Z</time></trkpt><trkpt lat="46.3661694037386" lon="9.653834290431526"><ele>1335.0</ele><time>2026-03-28T11:45:40Z</time></trkpt><trkpt lat="46.36624086919851" lon="9.653852617644477"><ele>1335.0</ele><time>2026-03-28T11:45:41Z</time></trkpt><trkpt lat="46.36631451094305" lon="9.653865902752766"><ele>1335.0</ele><time>2026-03-28T11:45:42Z</time></trkpt><trkpt lat="46.36639708780768" lon="9.653881248184973"><ele>1335.0</ele><time>2026-03-28T11:45:43Z</time></trkpt><trkpt lat="46.36648175221502" lon="9.653902985586736"><ele>1335.0</ele><time>2026-03-28T11:45:44Z</time></trkpt><trkpt lat="46.36655917185044" lon="9.653930996706967"><ele>1335.0</ele><time>2026-03-28T11:45:45Z</time></trkpt><trkpt lat="46.36662413651399" lon="9.65396580288171"><ele>1335.0</ele><time>2026-03-28T11:45:46Z</time></trkpt><trkpt lat="46.36667836347397" lon="9.654015054992144"><ele>1335.1666666666667</ele><time>2026-03-28T11:45:47Z</time></trkpt><trkpt lat="46.36672200803258" lon="9.654089585092422"><ele>1335.3333333333333</ele><time>2026-03-28T11:45:48Z</time></trkpt><trkpt lat="46.366750473390326" lon="9.654178808218024"><ele>1335.5</ele><time>2026-03-28T11:45:49Z</time></trkpt><trkpt lat="46.36676601371176" lon="9.654283895421976"><ele>1335.6666666666665</ele><time>2026-03-28T11:45:50Z</time></trkpt><trkpt lat="46.36676515859156" lon="9.654404393718616"><ele>1335.8333333333333</ele><time>2026-03-28T11:45:51Z</time></trkpt><trkpt lat="46.366717797168505" lon="9.654536206021307"><ele>1336.0</ele><time>2026-03-28T11:45:52Z</time></trkpt><trkpt lat="46.3666543034213" lon="9.654649985324443"><ele>1338.1999999999998</ele><time>2026-03-28T11:45:53Z</time></trkpt><trkpt lat="46.366600261128546" lon="9.654767911241153"><ele>1340.3999999999999</ele><time>2026-03-28T11:45:54Z</time></trkpt><trkpt lat="46.36655660887159" lon="9.654892308052082"><ele>1342.6</ele><time>2026-03-28T11:45:55Z</time></trkpt><trkpt lat="46.36649705479235" lon="9.655003300687302"><ele>1344.8</ele><time>2026-03-28T11:45:56Z</time></trkpt><trkpt lat="46.366439164376075" lon="9.655120055336049"><ele>1347.0</ele><time>2026-03-28T11:45:57Z</time></trkpt><trkpt lat="46.36637824630912" lon="9.655232435214586"><ele>1347.8</ele><time>2026-03-28T11:45:58Z</time></trkpt><trkpt lat="46.366311480883624" lon="9.655330820566142"><ele>1348.6</ele><time>2026-03-28T11:45:59Z</time></trkpt><trkpt lat="46.36623392477145" lon="9.655419252108613"><ele>1349.3999999999999</ele><time>2026-03-28T11:46:00Z</time></trkpt><trkpt lat="46.36615118294213" lon="9.65551149821204"><ele>1350.1999999999998</ele><time>2026-03-28T11:46:01Z</time></trkpt><trkpt lat="46.366061890286254" lon="9.655601257861498"><ele>1351.0</ele><time>2026-03-28T11:46:02Z</time></trkpt><trkpt lat="46.365974939854034" lon="9.655685134604434"><ele>1351.0</ele><time>2026-03-28T11:46:03Z</time></trkpt><trkpt lat="46.365884892848385" lon="9.655766486626135"><ele>1351.0</ele><time>2026-03-28T11:46:04Z</time></trkpt><trkpt lat="46.36579890278348" lon="9.655847763434958"><ele>1351.0</ele><time>2026-03-28T11:46:05Z</time></trkpt><trkpt lat="46.36571942897602" lon="9.655925590885449"><ele>1351.0</ele><time>2026-03-28T11:46:06Z</time></trkpt><trkpt lat="46.365636519699216" lon="9.656006961499985"><ele>1351.0</ele><time>2026-03-28T11:46:07Z</time></trkpt><trkpt lat="46.3655513050886" lon="9.656087651278419"><ele>1354.4</ele><time>2026-03-28T11:46:08Z</time></trkpt><trkpt lat="46.365480762644054" lon="9.656149729183333"><ele>1357.8</ele><time>2026-03-28T11:46:09Z</time></trkpt><trkpt lat="46.365423449051676" lon="9.656197067704165"><ele>1361.2</ele><time>2026-03-28T11:46:10Z</time></trkpt><trkpt lat="46.36533159933523" lon="9.656299766080865"><ele>1364.6000000000001</ele><time>2026-03-28T11:46:12Z</time></trkpt><trkpt lat="46.365295650104" lon="9.656382194225754"><ele>1368.0</ele><time>2026-03-28T11:46:13Z</time></trkpt><trkpt lat="46.365274598145916" lon="9.656562310508672"><ele>1368.0</ele><time>2026-03-28T11:46:15Z</time></trkpt><trkpt lat="46.36531729531107" lon="9.656666616574867"><ele>1368.0</ele><time>2026-03-28T11:46:16Z</time></trkpt><trkpt lat="46.36541100996535" lon="9.656733261472926"><ele>1368.0</ele><time>2026-03-28T11:46:17Z</time></trkpt><trkpt lat="46.36551284642327" lon="9.656776813243184"><ele>1368.0</ele><time>2026-03-28T11:46:18Z</time></trkpt><trkpt lat="46.36563123846852" lon="9.656855758958036"><ele>1368.0</ele><time>2026-03-28T11:46:19Z</time></trkpt><trkpt lat="46.365793595968526" lon="9.656930156466787"><ele>1370.0</ele><time>2026-03-28T11:46:20Z</time></trkpt><trkpt lat="46.36599488186358" lon="9.657026054068858"><ele>1372.0</ele><time>2026-03-28T11:46:21Z</time></trkpt><trkpt lat="46.36621568656746" lon="9.657121303814558"><ele>1374.0</ele><time>2026-03-28T11:46:22Z</time></trkpt><trkpt lat="46.36641936458262" lon="9.657224820517666"><ele>1375.0</ele><time>2026-03-28T11:46:23Z</time></trkpt><trkpt lat="46.36660719744304" lon="9.657289519160395"><ele>1376.0</ele><time>2026-03-28T11:46:24Z</time></trkpt><trkpt lat="46.366799735172144" lon="9.657355226810695"><ele>1377.0</ele><time>2026-03-28T11:46:25Z</time></trkpt><trkpt lat="46.36700411233135" lon="9.657319132384929"><ele>1379.0</ele><time>2026-03-28T11:46:26Z</time></trkpt><trkpt lat="46.36720789686931" lon="9.657304504517853"><ele>1381.0</ele><time>2026-03-28T11:46:27Z</time></trkpt><trkpt lat="46.36740428181743" lon="9.657291246943506"><ele>1383.0</ele><time>2026-03-28T11:46:28Z</time></trkpt><trkpt lat="46.36760058176935" lon="9.657294135148323"><ele>1383.0</ele><time>2026-03-28T11:46:29Z</time></trkpt><trkpt lat="46.367798391034846" lon="9.657321399381122"><ele>1383.0</ele><time>2026-03-28T11:46:30Z</time></trkpt><trkpt lat="46.3680011088066" lon="9.657370073436987"><ele>1383.0</ele><time>2026-03-28T11:46:31Z</time></trkpt><trkpt lat="46.368200689971694" lon="9.657443293722526"><ele>1385.3333333333333</ele><time>2026-03-28T11:46:32Z</time></trkpt><trkpt lat="46.36840335339018" lon="9.65754128138681"><ele>1387.6666666666665</ele><time>2026-03-28T11:46:33Z</time></trkpt><trkpt lat="46.368607290374065" lon="9.657668947994305"><ele>1390.0</ele><time>2026-03-28T11:46:34Z</time></trkpt><trkpt lat="46.36881171455401" lon="9.657797400297127"><ele>1394.3333333333333</ele><time>2026-03-28T11:46:35Z</time></trkpt><trkpt lat="46.369015469421306" lon="9.657891545304155"><ele>1398.6666666666667</ele><time>2026-03-28T11:46:36Z</time></trkpt><trkpt lat="46.36922415939935" lon="9.657932998348196"><ele>1403.0</ele><time>2026-03-28T11:46:37Z</time></trkpt><trkpt lat="46.36942957124832" lon="9.657949402980353"><ele>1403.0</ele><time>2026-03-28T11:46:38Z</time></trkpt><trkpt lat="46.36961689684372" lon="9.658015309805453"><ele>1403.0</ele><time>2026-03-28T11:46:39Z</time></trkpt><trkpt lat="46.369802031392474" lon="9.658124656551912"><ele>1403.0</ele><time>2026-03-28T11:46:40Z</time></trkpt><trkpt lat="46.36999973276255" lon="9.658258817439116"><ele>1405.6666666666667</ele><time>2026-03-28T11:46:41Z</time></trkpt><trkpt lat="46.370189082836774" lon="9.658392856680234"><ele>1408.3333333333333</ele><time>2026-03-28T11:46:42Z</time></trkpt><trkpt lat="46.370376436071574" lon="9.658517383866748"><ele>1411.0</ele><time>2026-03-28T11:46:43Z</time></trkpt><trkpt lat="46.37054799599106" lon="9.6586921249937"><ele>1414.3333333333333</ele><time>2026-03-28T11:46:44Z</time></trkpt><trkpt lat="46.37072167668178" lon="9.658876220454125"><ele>1417.6666666666667</ele><time>2026-03-28T11:46:45Z</time></trkpt><trkpt lat="46.37089047476801" lon="9.659052174390425"><ele>1421.0</ele><time>2026-03-28T11:46:46Z</time></trkpt><trkpt lat="46.37104356993672" lon="9.659212606443957"><ele>1421.0</ele><time>2026-03-28T11:46:47Z</time></trkpt><trkpt lat="46.371174009480455" lon="9.659391282598616"><ele>1421.0</ele><time>2026-03-28T11:46:48Z</time></trkpt><trkpt lat="46.37131010849162" lon="9.659532859521823"><ele>1421.0</ele><time>2026-03-28T11:46:49Z</time></trkpt><trkpt lat="46.3714153723848" lon="9.659690504176266"><ele>1426.0</ele><time>2026-03-28T11:46:50Z</time></trkpt><trkpt lat="46.37154197518546" lon="9.659768916550114"><ele>1431.0</ele><time>2026-03-28T11:46:51Z</time></trkpt><trkpt lat="46.371695236036715" lon="9.659779340004146"><ele>1436.0</ele><time>2026-03-28T11:46:52Z</time></trkpt><trkpt lat="46.37186189705325" lon="9.659744761063813"><ele>1436.0</ele><time>2026-03-28T11:46:53.001Z</time></trkpt><trkpt lat="46.372049911262444" lon="9.65969753471932"><ele>1436.0</ele><time>2026-03-28T11:46:54.001Z</time></trkpt><trkpt lat="46.372246168510195" lon="9.659705162392031"><ele>1436.0</ele><time>2026-03-28T11:46:55.001Z</time></trkpt><trkpt lat="46.37244943877425" lon="9.659748114548005"><ele>1438.0</ele><time>2026-03-28T11:46:56.001Z</time></trkpt><trkpt lat="46.372656742335664" lon="9.659784353511577"><ele>1440.0</ele><time>2026-03-28T11:46:57.001Z</time></trkpt><trkpt lat="46.37286563934666" lon="9.659777391149925"><ele>1442.0</ele><time>2026-03-28T11:46:58.001Z</time></trkpt><trkpt lat="46.3730644805271" lon="9.659749587438128"><ele>1446.0</ele><time>2026-03-28T11:46:59.001Z</time></trkpt><trkpt lat="46.37326563980384" lon="9.65967064021367"><ele>1450.0</ele><time>2026-03-28T11:47:00.001Z</time></trkpt><trkpt lat="46.373462789447" lon="9.65956214520881"><ele>1454.0</ele><time>2026-03-28T11:47:01.001Z</time></trkpt><trkpt lat="46.373650169916004" lon="9.65945296398421"><ele>1447.3333333333335</ele><time>2026-03-28T11:47:02.001Z</time></trkpt><trkpt lat="46.37383933302256" lon="9.659385308076512"><ele>1440.6666666666667</ele><time>2026-03-28T11:47:03.001Z</time></trkpt><trkpt lat="46.37403418237947" lon="9.659357475376863"><ele>1434.0</ele><time>2026-03-28T11:47:04.001Z</time></trkpt><trkpt lat="46.37422962017631" lon="9.659396210279038"><ele>1436.0</ele><time>2026-03-28T11:47:05.001Z</time></trkpt><trkpt lat="46.37442421084121" lon="9.65945907877045"><ele>1438.0</ele><time>2026-03-28T11:47:06.001Z</time></trkpt><trkpt lat="46.37461653434037" lon="9.659560671999294"><ele>1440.0</ele><time>2026-03-28T11:47:07.001Z</time></trkpt><trkpt lat="46.374813978711224" lon="9.659692677524632"><ele>1440.0</ele><time>2026-03-28T11:47:08.001Z</time></trkpt><trkpt lat="46.37502118227789" lon="9.659807574299473"><ele>1440.0</ele><time>2026-03-28T11:47:09.001Z</time></trkpt><trkpt lat="46.37526016126446" lon="9.659904390395436"><ele>1440.0</ele><time>2026-03-28T11:47:10.001Z</time></trkpt><trkpt lat="46.375509545315104" lon="9.65999390115723"><ele>1440.0</ele><time>2026-03-28T11:47:11.001Z</time></trkpt><trkpt lat="46.375760042469345" lon="9.660079322442673"><ele>1436.5</ele><time>2026-03-28T11:47:12.001Z</time></trkpt><trkpt lat="46.375979115169756" lon="9.660140842997777"><ele>1433.0</ele><time>2026-03-28T11:47:13.001Z</time></trkpt><trkpt lat="46.376220957343214" lon="9.660225437334852"><ele>1436.0</ele><time>2026-03-28T11:47:14.001Z</time></trkpt><trkpt lat="46.376453922497205" lon="9.660314556821366"><ele>1439.0</ele><time>2026-03-28T11:47:15.001Z</time></trkpt><trkpt lat="46.37669281172851" lon="9.660396552103075"><ele>1439.0</ele><time>2026-03-28T11:47:16.001Z</time></trkpt><trkpt lat="46.37692974618906" lon="9.660487741698436"><ele>1439.0</ele><time>2026-03-28T11:47:17.001Z</time></trkpt><trkpt lat="46.37716909229663" lon="9.66056590481858"><ele>1438.5</ele><time>2026-03-28T11:47:18.001Z</time></trkpt><trkpt lat="46.37741828693583" lon="9.660639028544873"><ele>1438.0</ele><time>2026-03-28T11:47:19.001Z</time></trkpt><trkpt lat="46.377664324906505" lon="9.66069162646728"><ele>1438.0</ele><time>2026-03-28T11:47:20.001Z</time></trkpt><trkpt lat="46.377916755132034" lon="9.660730623434848"><ele>1438.0</ele><time>2026-03-28T11:47:21.001Z</time></trkpt><trkpt lat="46.378167514624" lon="9.660766255989602"><ele>1437.0</ele><time>2026-03-28T11:47:22.001Z</time></trkpt><trkpt lat="46.378417836498215" lon="9.660786256103354"><ele>1436.0</ele><time>2026-03-28T11:47:23.001Z</time></trkpt><trkpt lat="46.3786606652745" lon="9.660808078432646"><ele>1437.0</ele><time>2026-03-28T11:47:24.001Z</time></trkpt><trkpt lat="46.37890070365507" lon="9.660830846564432"><ele>1438.0</ele><time>2026-03-28T11:47:25.001Z</time></trkpt><trkpt lat="46.3791323509421" lon="9.66085814331707"><ele>1438.0</ele><time>2026-03-28T11:47:26.001Z</time></trkpt><trkpt lat="46.37936071329653" lon="9.660890835038092"><ele>1438.0</ele><time>2026-03-28T11:47:27.001Z</time></trkpt><trkpt lat="46.37958586373776" lon="9.660920211706962"><ele>1438.5</ele><time>2026-03-28T11:47:28.001Z</time></trkpt><trkpt lat="46.379819152169986" lon="9.660945155953025"><ele>1439.0</ele><time>2026-03-28T11:47:29.001Z</time></trkpt><trkpt lat="46.38004516493558" lon="9.660974187639084"><ele>1439.0</ele><time>2026-03-28T11:47:30.001Z</time></trkpt><trkpt lat="46.3802708732094" lon="9.660998205057414"><ele>1439.0</ele><time>2026-03-28T11:47:31.001Z</time></trkpt><trkpt lat="46.380493979265424" lon="9.66102958008633"><ele>1441.5</ele><time>2026-03-28T11:47:32.001Z</time></trkpt><trkpt lat="46.38072030398809" lon="9.661050453830569"><ele>1444.0</ele><time>2026-03-28T11:47:33.001Z</time></trkpt><trkpt lat="46.38094783945753" lon="9.661072510459867"><ele>1444.0</ele><time>2026-03-28T11:47:34.001Z</time></trkpt><trkpt lat="46.3811722786391" lon="9.6610937429035"><ele>1444.0</ele><time>2026-03-28T11:47:35Z</time></trkpt><trkpt lat="46.381382819650796" lon="9.661125626234165"><ele>1444.0</ele><time>2026-03-28T11:47:36Z</time></trkpt><trkpt lat="46.38159487296974" lon="9.66116116212293"><ele>1443.0</ele><time>2026-03-28T11:47:37Z</time></trkpt><trkpt lat="46.381805388490875" lon="9.661205753104039"><ele>1442.0</ele><time>2026-03-28T11:47:38Z</time></trkpt><trkpt lat="46.38202004566883" lon="9.661270942907539"><ele>1441.0</ele><time>2026-03-28T11:47:39Z</time></trkpt><trkpt lat="46.38222421022968" lon="9.661377626751692"><ele>1441.0</ele><time>2026-03-28T11:47:40Z</time></trkpt><trkpt lat="46.38243103152942" lon="9.661490944910607"><ele>1441.0</ele><time>2026-03-28T11:47:41Z</time></trkpt><trkpt lat="46.382637906673246" lon="9.66160738589096"><ele>1441.0</ele><time>2026-03-28T11:47:42Z</time></trkpt><trkpt lat="46.382850009224576" lon="9.661718135307305"><ele>1441.3333333333333</ele><time>2026-03-28T11:47:43Z</time></trkpt><trkpt lat="46.383064875251534" lon="9.661819370076687"><ele>1441.6666666666667</ele><time>2026-03-28T11:47:44Z</time></trkpt><trkpt lat="46.38327348030684" lon="9.661931437992193"><ele>1442.0</ele><time>2026-03-28T11:47:45Z</time></trkpt><trkpt lat="46.38348728571784" lon="9.662041159794851"><ele>1442.6666666666667</ele><time>2026-03-28T11:47:46Z</time></trkpt><trkpt lat="46.383691187522324" lon="9.662147047116296"><ele>1443.3333333333333</ele><time>2026-03-28T11:47:47Z</time></trkpt><trkpt lat="46.38389498074572" lon="9.662255415872181"><ele>1444.0</ele><time>2026-03-28T11:47:48Z</time></trkpt><trkpt lat="46.384105674587815" lon="9.662358594866559"><ele>1444.0</ele><time>2026-03-28T11:47:49Z</time></trkpt><trkpt lat="46.384313660758345" lon="9.662462321850631"><ele>1444.0</ele><time>2026-03-28T11:47:50Z</time></trkpt><trkpt lat="46.38451854868033" lon="9.662566528586986"><ele>1444.0</ele><time>2026-03-28T11:47:51Z</time></trkpt><trkpt lat="46.38472167151455" lon="9.662680153910971"><ele>1445.0</ele><time>2026-03-28T11:47:52Z</time></trkpt><trkpt lat="46.384925246852745" lon="9.66279023703281"><ele>1446.0</ele><time>2026-03-28T11:47:53Z</time></trkpt><trkpt lat="46.38513359038099" lon="9.662898860762569"><ele>1447.0</ele><time>2026-03-28T11:47:54Z</time></trkpt><trkpt lat="46.38534222546713" lon="9.663003705130139"><ele>1447.6666666666665</ele><time>2026-03-28T11:47:55Z</time></trkpt><trkpt lat="46.385547784960075" lon="9.663107966817417"><ele>1448.3333333333333</ele><time>2026-03-28T11:47:56Z</time></trkpt><trkpt lat="46.385748610437055" lon="9.663211246838026"><ele>1449.0</ele><time>2026-03-28T11:47:57Z</time></trkpt><trkpt lat="46.38595471957551" lon="9.663311570275578"><ele>1449.0</ele><time>2026-03-28T11:47:58Z</time></trkpt><trkpt lat="46.38615487533172" lon="9.663411499633034"><ele>1449.0</ele><time>2026-03-28T11:47:59Z</time></trkpt><trkpt lat="46.38634175508401" lon="9.663511921878198"><ele>1449.0</ele><time>2026-03-28T11:48:00Z</time></trkpt><trkpt lat="46.386525834645646" lon="9.663607496589227"><ele>1449.0</ele><time>2026-03-28T11:48:01Z</time></trkpt><trkpt lat="46.38671097152234" lon="9.66370131358808"><ele>1449.0</ele><time>2026-03-28T11:48:02Z</time></trkpt><trkpt lat="46.38689780370317" lon="9.6637993512475"><ele>1449.0</ele><time>2026-03-28T11:48:03Z</time></trkpt><trkpt lat="46.387088642794666" lon="9.663897002343502"><ele>1449.6666666666667</ele><time>2026-03-28T11:48:04Z</time></trkpt><trkpt lat="46.38728231501539" lon="9.663999603236626"><ele>1450.3333333333335</ele><time>2026-03-28T11:48:05Z</time></trkpt><trkpt lat="46.387476513545074" lon="9.664100007875778"><ele>1451.0</ele><time>2026-03-28T11:48:06Z</time></trkpt><trkpt lat="46.38767262754279" lon="9.664202796268741"><ele>1451.0</ele><time>2026-03-28T11:48:07Z</time></trkpt><trkpt lat="46.38786104215129" lon="9.664299063673939"><ele>1451.0</ele><time>2026-03-28T11:48:08Z</time></trkpt><trkpt lat="46.388041004197824" lon="9.664392582605558"><ele>1451.0</ele><time>2026-03-28T11:48:09Z</time></trkpt><trkpt lat="46.38821668147902" lon="9.664490838229087"><ele>1452.6666666666667</ele><time>2026-03-28T11:48:10Z</time></trkpt><trkpt lat="46.388396786451516" lon="9.664590667955071"><ele>1454.3333333333333</ele><time>2026-03-28T11:48:11Z</time></trkpt><trkpt lat="46.38857768031313" lon="9.664690586906962"><ele>1456.0</ele><time>2026-03-28T11:48:12Z</time></trkpt><trkpt lat="46.38876025209451" lon="9.664781321627089"><ele>1456.0</ele><time>2026-03-28T11:48:13Z</time></trkpt><trkpt lat="46.38894476476344" lon="9.664869098398938"><ele>1456.0</ele><time>2026-03-28T11:48:14Z</time></trkpt><trkpt lat="46.38913448492189" lon="9.664956802971602"><ele>1456.0</ele><time>2026-03-28T11:48:15Z</time></trkpt><trkpt lat="46.389324865584726" lon="9.665049023950235"><ele>1456.0</ele><time>2026-03-28T11:48:16Z</time></trkpt><trkpt lat="46.38948747778998" lon="9.665147252180626"><ele>1456.0</ele><time>2026-03-28T11:48:17Z</time></trkpt><trkpt lat="46.38963644110286" lon="9.665225270887282"><ele>1456.0</ele><time>2026-03-28T11:48:18Z</time></trkpt><trkpt lat="46.38977697143681" lon="9.665297187596614"><ele>1456.5</ele><time>2026-03-28T11:48:19Z</time></trkpt><trkpt lat="46.38991010918385" lon="9.665355626970863"><ele>1457.0</ele><time>2026-03-28T11:48:20Z</time></trkpt><trkpt lat="46.39004926282533" lon="9.665421594897767"><ele>1457.5</ele><time>2026-03-28T11:48:21Z</time></trkpt><trkpt lat="46.39018808193459" lon="9.665493398508925"><ele>1458.0</ele><time>2026-03-28T11:48:22Z</time></trkpt><trkpt lat="46.39032477567241" lon="9.665579393879712"><ele>1458.0</ele><time>2026-03-28T11:48:23Z</time></trkpt><trkpt lat="46.39044648448126" lon="9.6656739850262"><ele>1458.0</ele><time>2026-03-28T11:48:24Z</time></trkpt><trkpt lat="46.39056136243903" lon="9.665779143174195"><ele>1458.0</ele><time>2026-03-28T11:48:25Z</time></trkpt><trkpt lat="46.39067838726433" lon="9.665911807050202"><ele>1458.0</ele><time>2026-03-28T11:48:26Z</time></trkpt><trkpt lat="46.390795880929176" lon="9.66605850928846"><ele>1460.0</ele><time>2026-03-28T11:48:27Z</time></trkpt><trkpt lat="46.3909243882321" lon="9.666194325349394"><ele>1462.0</ele><time>2026-03-28T11:48:28Z</time></trkpt><trkpt lat="46.391056697940996" lon="9.666305201354547"><ele>1464.0</ele><time>2026-03-28T11:48:29Z</time></trkpt><trkpt lat="46.39122509899073" lon="9.666417913262483"><ele>1464.0</ele><time>2026-03-28T11:48:30Z</time></trkpt><trkpt lat="46.39136431301919" lon="9.666521967909647"><ele>1464.0</ele><time>2026-03-28T11:48:31Z</time></trkpt><trkpt lat="46.39150316841992" lon="9.66663286000789"><ele>1464.0</ele><time>2026-03-28T11:48:32Z</time></trkpt><trkpt lat="46.39164192379507" lon="9.66675002452959"><ele>1464.0</ele><time>2026-03-28T11:48:33Z</time></trkpt><trkpt lat="46.391805782643004" lon="9.666876206756548"><ele>1464.0</ele><time>2026-03-28T11:48:34Z</time></trkpt><trkpt lat="46.3919451295373" lon="9.667056470353721"><ele>1464.0</ele><time>2026-03-28T11:48:35Z</time></trkpt><trkpt lat="46.39209152881406" lon="9.667226668363393"><ele>1466.0</ele><time>2026-03-28T11:48:36Z</time></trkpt><trkpt lat="46.39224753328198" lon="9.667405309785265"><ele>1468.0</ele><time>2026-03-28T11:48:37Z</time></trkpt><trkpt lat="46.39241147775681" lon="9.667578922436466"><ele>1470.0</ele><time>2026-03-28T11:48:38Z</time></trkpt><trkpt lat="46.392566395131865" lon="9.667756318237632"><ele>1471.0</ele><time>2026-03-28T11:48:39Z</time></trkpt><trkpt lat="46.392723404943915" lon="9.667930686131452"><ele>1472.0</ele><time>2026-03-28T11:48:40Z</time></trkpt><trkpt lat="46.392880061136346" lon="9.668103658575415"><ele>1473.0</ele><time>2026-03-28T11:48:41Z</time></trkpt><trkpt lat="46.393037744103964" lon="9.668273021875784"><ele>1475.6666666666667</ele><time>2026-03-28T11:48:42Z</time></trkpt><trkpt lat="46.39318773814765" lon="9.668444555291586"><ele>1478.3333333333335</ele><time>2026-03-28T11:48:43Z</time></trkpt><trkpt lat="46.393332318575794" lon="9.66861507943246"><ele>1481.0</ele><time>2026-03-28T11:48:44Z</time></trkpt><trkpt lat="46.39348022899026" lon="9.668792945490695"><ele>1481.0</ele><time>2026-03-28T11:48:45Z</time></trkpt><trkpt lat="46.39359060475163" lon="9.668988899474524"><ele>1481.0</ele><time>2026-03-28T11:48:46Z</time></trkpt><trkpt lat="46.39368487571759" lon="9.669214054557006"><ele>1481.0</ele><time>2026-03-28T11:48:47Z</time></trkpt><trkpt lat="46.39375962642193" lon="9.669455083153187"><ele>1485.3333333333335</ele><time>2026-03-28T11:48:48Z</time></trkpt><trkpt lat="46.393815104133154" lon="9.669715425985048"><ele>1489.6666666666667</ele><time>2026-03-28T11:48:49Z</time></trkpt><trkpt lat="46.393861119858556" lon="9.670012096712677"><ele>1494.0</ele><time>2026-03-28T11:48:50Z</time></trkpt><trkpt lat="46.39389146443608" lon="9.670265865742245"><ele>1497.3333333333333</ele><time>2026-03-28T11:48:51Z</time></trkpt><trkpt lat="46.39391962965111" lon="9.670528653066917"><ele>1500.6666666666665</ele><time>2026-03-28T11:48:52Z</time></trkpt><trkpt lat="46.39394286575807" lon="9.670804262944378"><ele>1504.0</ele><time>2026-03-28T11:48:53Z</time></trkpt><trkpt lat="46.3939433710797" lon="9.671066761878059"><ele>1505.8000000000002</ele><time>2026-03-28T11:48:54Z</time></trkpt><trkpt lat="46.39391708192152" lon="9.671288370459239"><ele>1507.6000000000001</ele><time>2026-03-28T11:48:55Z</time></trkpt><trkpt lat="46.393886377157294" lon="9.671427330308848"><ele>1509.4</ele><time>2026-03-28T11:48:56Z</time></trkpt><trkpt lat="46.393901256243545" lon="9.671526578045361"><ele>1511.2</ele><time>2026-03-28T11:48:57Z</time></trkpt><trkpt lat="46.3939732725107" lon="9.671597653955825"><ele>1513.0</ele><time>2026-03-28T11:48:58Z</time></trkpt><trkpt lat="46.394072695320524" lon="9.671598775137081"><ele>1513.0</ele><time>2026-03-28T11:48:59Z</time></trkpt><trkpt lat="46.39416037757465" lon="9.671530018280803"><ele>1513.0</ele><time>2026-03-28T11:49:00Z</time></trkpt><trkpt lat="46.394229213054636" lon="9.671398847649717"><ele>1513.0</ele><time>2026-03-28T11:49:01Z</time></trkpt><trkpt lat="46.39427262037268" lon="9.67122541018305"><ele>1513.0</ele><time>2026-03-28T11:49:02Z</time></trkpt><trkpt lat="46.39430349786839" lon="9.67108293311249"><ele>1513.0</ele><time>2026-03-28T11:49:03Z</time></trkpt><trkpt lat="46.39434882153743" lon="9.670983248762635"><ele>1513.0</ele><time>2026-03-28T11:49:04Z</time></trkpt><trkpt lat="46.39442910350211" lon="9.670917113077355"><ele>1513.0</ele><time>2026-03-28T11:49:05Z</time></trkpt><trkpt lat="46.394517084791104" lon="9.670922679479176"><ele>1513.0</ele><time>2026-03-28T11:49:06Z</time></trkpt><trkpt lat="46.39458673958336" lon="9.670998302439164"><ele>1513.0</ele><time>2026-03-28T11:49:07Z</time></trkpt><trkpt lat="46.39461461618702" lon="9.671122633844622"><ele>1513.0</ele><time>2026-03-28T11:49:08Z</time></trkpt><trkpt lat="46.39459974688417" lon="9.671259645758331"><ele>1513.0</ele><time>2026-03-28T11:49:09Z</time></trkpt><trkpt lat="46.394510855627644" lon="9.671378577568886"><ele>1513.0</ele><time>2026-03-28T11:49:10Z</time></trkpt><trkpt lat="46.394438443112385" lon="9.671536021339636"><ele>1513.0</ele><time>2026-03-28T11:49:11Z</time></trkpt><trkpt lat="46.39435372619769" lon="9.671724252211929"><ele>1513.0</ele><time>2026-03-28T11:49:12Z</time></trkpt><trkpt lat="46.39427452571824" lon="9.67193359139702"><ele>1514.5</ele><time>2026-03-28T11:49:13Z</time></trkpt><trkpt lat="46.394208328766375" lon="9.67213327634071"><ele>1516.0</ele><time>2026-03-28T11:49:14Z</time></trkpt><trkpt lat="46.394188736213906" lon="9.672336818945345"><ele>1517.5</ele><time>2026-03-28T11:49:15Z</time></trkpt><trkpt lat="46.39421560463267" lon="9.67255537409526"><ele>1519.0</ele><time>2026-03-28T11:49:16Z</time></trkpt><trkpt lat="46.394280102545956" lon="9.672766749668254"><ele>1521.6666666666665</ele><time>2026-03-28T11:49:17Z</time></trkpt><trkpt lat="46.39436540330063" lon="9.672983996333478"><ele>1524.3333333333333</ele><time>2026-03-28T11:49:18Z</time></trkpt><trkpt lat="46.39437988730487" lon="9.673223143144332"><ele>1527.0</ele><time>2026-03-28T11:49:19Z</time></trkpt><trkpt lat="46.39436640752398" lon="9.67345669270438"><ele>1531.6666666666665</ele><time>2026-03-28T11:49:20Z</time></trkpt><trkpt lat="46.3943455611649" lon="9.673732954041492"><ele>1536.3333333333333</ele><time>2026-03-28T11:49:21Z</time></trkpt><trkpt lat="46.3943719144799" lon="9.674008085626346"><ele>1541.0</ele><time>2026-03-28T11:49:22Z</time></trkpt><trkpt lat="46.39440966256126" lon="9.67427746988493"><ele>1545.0</ele><time>2026-03-28T11:49:23Z</time></trkpt><trkpt lat="46.394470720319475" lon="9.674526514270369"><ele>1549.0</ele><time>2026-03-28T11:49:24Z</time></trkpt><trkpt lat="46.39446110383886" lon="9.674756231041387"><ele>1553.0</ele><time>2026-03-28T11:49:25Z</time></trkpt><trkpt lat="46.39442517841872" lon="9.675002285664394"><ele>1553.0</ele><time>2026-03-28T11:49:26Z</time></trkpt><trkpt lat="46.394404804743026" lon="9.675254197159349"><ele>1553.0</ele><time>2026-03-28T11:49:27Z</time></trkpt><trkpt lat="46.394410921102796" lon="9.675451258747529"><ele>1553.0</ele><time>2026-03-28T11:49:28.001Z</time></trkpt><trkpt lat="46.394451241065084" lon="9.675652250160466"><ele>1558.6666666666665</ele><time>2026-03-28T11:49:29.001Z</time></trkpt><trkpt lat="46.3945419918289" lon="9.675858133278279"><ele>1564.3333333333335</ele><time>2026-03-28T11:49:30.001Z</time></trkpt><trkpt lat="46.39462865045022" lon="9.676090354166947"><ele>1570.0</ele><time>2026-03-28T11:49:31.001Z</time></trkpt><trkpt lat="46.39466896057187" lon="9.676301843907996"><ele>1565.3333333333335</ele><time>2026-03-28T11:49:32.001Z</time></trkpt><trkpt lat="46.39470980141218" lon="9.676512580270463"><ele>1560.6666666666665</ele><time>2026-03-28T11:49:33.001Z</time></trkpt><trkpt lat="46.39476958344383" lon="9.676722326313161"><ele>1556.0</ele><time>2026-03-28T11:49:34.001Z</time></trkpt><trkpt lat="46.39485751120181" lon="9.676921672341017"><ele>1555.25</ele><time>2026-03-28T11:49:35.001Z</time></trkpt><trkpt lat="46.39498380826949" lon="9.677062984154917"><ele>1554.5</ele><time>2026-03-28T11:49:36.001Z</time></trkpt><trkpt lat="46.39511258132266" lon="9.677139173692321"><ele>1553.75</ele><time>2026-03-28T11:49:37.001Z</time></trkpt><trkpt lat="46.39525200938443" lon="9.67717996071689"><ele>1553.0</ele><time>2026-03-28T11:49:38.001Z</time></trkpt><trkpt lat="46.39541839052683" lon="9.67719425772781"><ele>1554.0</ele><time>2026-03-28T11:49:39.001Z</time></trkpt><trkpt lat="46.39556367674929" lon="9.677277085132989"><ele>1555.0</ele><time>2026-03-28T11:49:40.001Z</time></trkpt><trkpt lat="46.395726669321064" lon="9.677370611115355"><ele>1556.0</ele><time>2026-03-28T11:49:41.001Z</time></trkpt><trkpt lat="46.39588375221415" lon="9.677538345997593"><ele>1556.0</ele><time>2026-03-28T11:49:42.001Z</time></trkpt><trkpt lat="46.396023725094594" lon="9.677734694947889"><ele>1556.0</ele><time>2026-03-28T11:49:43.001Z</time></trkpt><trkpt lat="46.39617180871079" lon="9.677930384856374"><ele>1556.0</ele><time>2026-03-28T11:49:44.001Z</time></trkpt><trkpt lat="46.39632953054824" lon="9.67808673060382"><ele>1557.6666666666665</ele><time>2026-03-28T11:49:45.001Z</time></trkpt><trkpt lat="46.396492350387604" lon="9.678239658832625"><ele>1559.3333333333335</ele><time>2026-03-28T11:49:46.001Z</time></trkpt><trkpt lat="46.39666235612867" lon="9.678391261188576"><ele>1561.0</ele><time>2026-03-28T11:49:47.001Z</time></trkpt><trkpt lat="46.39683596996647" lon="9.67853850752984"><ele>1562.3333333333335</ele><time>2026-03-28T11:49:48.001Z</time></trkpt><trkpt lat="46.397012782067236" lon="9.678694034275845"><ele>1563.6666666666665</ele><time>2026-03-28T11:49:49.001Z</time></trkpt><trkpt lat="46.397181992507115" lon="9.678881044641017"><ele>1565.0</ele><time>2026-03-28T11:49:50.001Z</time></trkpt><trkpt lat="46.397342766241586" lon="9.679109356816346"><ele>1565.0</ele><time>2026-03-28T11:49:51.001Z</time></trkpt><trkpt lat="46.397492310146305" lon="9.679354745537854"><ele>1565.0</ele><time>2026-03-28T11:49:52.001Z</time></trkpt><trkpt lat="46.39761983220933" lon="9.679637042105755"><ele>1558.5</ele><time>2026-03-28T11:49:53.001Z</time></trkpt><trkpt lat="46.39774977018343" lon="9.679923984574588"><ele>1552.0</ele><time>2026-03-28T11:49:54Z</time></trkpt><trkpt lat="46.39784805308371" lon="9.680232912752155"><ele>1550.5</ele><time>2026-03-28T11:49:55Z</time></trkpt><trkpt lat="46.39793718500609" lon="9.680543112043546"><ele>1549.0</ele><time>2026-03-28T11:49:56Z</time></trkpt><trkpt lat="46.398029501061416" lon="9.680848509077531"><ele>1553.0</ele><time>2026-03-28T11:49:57Z</time></trkpt><trkpt lat="46.398133719967205" lon="9.681131877194733"><ele>1557.0</ele><time>2026-03-28T11:49:58Z</time></trkpt><trkpt lat="46.398251178910336" lon="9.681390437424481"><ele>1561.0</ele><time>2026-03-28T11:49:59Z</time></trkpt><trkpt lat="46.39836736515583" lon="9.681633090996593"><ele>1561.0</ele><time>2026-03-28T11:50:00Z</time></trkpt><trkpt lat="46.39847245205609" lon="9.68187593349589"><ele>1561.0</ele><time>2026-03-28T11:50:01Z</time></trkpt><trkpt lat="46.398555981763636" lon="9.682132412688615"><ele>1561.0</ele><time>2026-03-28T11:50:02Z</time></trkpt><trkpt lat="46.398625763209054" lon="9.682393790431524"><ele>1559.6666666666667</ele><time>2026-03-28T11:50:03Z</time></trkpt><trkpt lat="46.398653897705955" lon="9.682667870449416"><ele>1558.3333333333335</ele><time>2026-03-28T11:50:04Z</time></trkpt><trkpt lat="46.39867346095895" lon="9.682937148684424"><ele>1557.0</ele><time>2026-03-28T11:50:05Z</time></trkpt><trkpt lat="46.398678647177476" lon="9.683208959726826"><ele>1557.0</ele><time>2026-03-28T11:50:06Z</time></trkpt><trkpt lat="46.39868194757112" lon="9.68348886480801"><ele>1557.0</ele><time>2026-03-28T11:50:07Z</time></trkpt><trkpt lat="46.398658673516366" lon="9.683770993821486"><ele>1557.0</ele><time>2026-03-28T11:50:08Z</time></trkpt><trkpt lat="46.39863083969756" lon="9.684049980759097"><ele>1558.3333333333335</ele><time>2026-03-28T11:50:09Z</time></trkpt><trkpt lat="46.398591451203" lon="9.68432637334096"><ele>1559.6666666666667</ele><time>2026-03-28T11:50:10Z</time></trkpt><trkpt lat="46.39853562013238" lon="9.684601036830548"><ele>1561.0</ele><time>2026-03-28T11:50:11Z</time></trkpt><trkpt lat="46.39846140182263" lon="9.684872891390045"><ele>1561.0</ele><time>2026-03-28T11:50:12Z</time></trkpt><trkpt lat="46.39836997479639" lon="9.685132534295265"><ele>1561.0</ele><time>2026-03-28T11:50:13Z</time></trkpt><trkpt lat="46.39824583584378" lon="9.685367896930742"><ele>1561.0</ele><time>2026-03-28T11:50:14Z</time></trkpt><trkpt lat="46.398115569628196" lon="9.68560412478859"><ele>1561.6666666666667</ele><time>2026-03-28T11:50:15Z</time></trkpt><trkpt lat="46.39797224904236" lon="9.685842826597664"><ele>1562.3333333333335</ele><time>2026-03-28T11:50:16Z</time></trkpt><trkpt lat="46.3978419264589" lon="9.686098579644712"><ele>1563.0</ele><time>2026-03-28T11:50:17Z</time></trkpt><trkpt lat="46.397722516843764" lon="9.686407716909741"><ele>1566.0</ele><time>2026-03-28T11:50:18Z</time></trkpt><trkpt lat="46.39763052293971" lon="9.686747264103666"><ele>1569.0</ele><time>2026-03-28T11:50:19Z</time></trkpt><trkpt lat="46.39755394041188" lon="9.687066446601172"><ele>1570.5</ele><time>2026-03-28T11:50:20Z</time></trkpt><trkpt lat="46.39742102993577" lon="9.687333791122262"><ele>1572.0</ele><time>2026-03-28T11:50:21Z</time></trkpt><trkpt lat="46.397376423208264" lon="9.687402058579394"><ele>1573.5</ele><time>2026-03-28T11:50:22Z</time></trkpt><trkpt lat="46.39726810267789" lon="9.687551536606152"><ele>1575.0</ele><time>2026-03-28T11:50:23Z</time></trkpt><trkpt lat="46.39716259040612" lon="9.687692475659919"><ele>1577.5</ele><time>2026-03-28T11:50:24Z</time></trkpt><trkpt lat="46.39708826800861" lon="9.687843697255968"><ele>1580.0</ele><time>2026-03-28T11:50:25Z</time></trkpt><trkpt lat="46.39705333494686" lon="9.687997334532442"><ele>1582.5</ele><time>2026-03-28T11:50:26Z</time></trkpt><trkpt lat="46.397087492406776" lon="9.688175332656899"><ele>1585.0</ele><time>2026-03-28T11:50:27Z</time></trkpt><trkpt lat="46.39718336357099" lon="9.688324031052229"><ele>1587.25</ele><time>2026-03-28T11:50:28Z</time></trkpt><trkpt lat="46.397327559077624" lon="9.688388616653477"><ele>1589.5</ele><time>2026-03-28T11:50:29Z</time></trkpt><trkpt lat="46.397455830149376" lon="9.688261683955218"><ele>1591.75</ele><time>2026-03-28T11:50:30Z</time></trkpt><trkpt lat="46.39753912701766" lon="9.688120800274675"><ele>1594.0</ele><time>2026-03-28T11:50:32Z</time></trkpt><trkpt lat="46.39766886483518" lon="9.687903879625148"><ele>1592.3333333333335</ele><time>2026-03-28T11:50:33Z</time></trkpt><trkpt lat="46.397834624566926" lon="9.687683295868148"><ele>1590.6666666666665</ele><time>2026-03-28T11:50:34Z</time></trkpt><trkpt lat="46.398005265296085" lon="9.687489463967786"><ele>1589.0</ele><time>2026-03-28T11:50:35Z</time></trkpt><trkpt lat="46.39815469837378" lon="9.687339498357973"><ele>1589.0</ele><time>2026-03-28T11:50:36Z</time></trkpt><trkpt lat="46.39829894621748" lon="9.687195379873788"><ele>1589.0</ele><time>2026-03-28T11:50:37Z</time></trkpt><trkpt lat="46.39842152371652" lon="9.687031242392148"><ele>1589.0</ele><time>2026-03-28T11:50:38Z</time></trkpt><trkpt lat="46.3985174793622" lon="9.686882634309809"><ele>1587.6</ele><time>2026-03-28T11:50:39Z</time></trkpt><trkpt lat="46.398603750130526" lon="9.686761840270544"><ele>1586.2</ele><time>2026-03-28T11:50:40Z</time></trkpt><trkpt lat="46.39870958514155" lon="9.686725969421365"><ele>1584.8</ele><time>2026-03-28T11:50:41Z</time></trkpt><trkpt lat="46.39881156413192" lon="9.686728825570857"><ele>1583.3999999999999</ele><time>2026-03-28T11:50:42Z</time></trkpt><trkpt lat="46.39886769649086" lon="9.686821955624245"><ele>1582.0</ele><time>2026-03-28T11:50:43Z</time></trkpt><trkpt lat="46.39889110714076" lon="9.686927823417651"><ele>1583.3999999999999</ele><time>2026-03-28T11:50:44Z</time></trkpt><trkpt lat="46.39888145638654" lon="9.687046850572846"><ele>1584.8</ele><time>2026-03-28T11:50:45Z</time></trkpt><trkpt lat="46.3988358534479" lon="9.687162758909945"><ele>1586.2</ele><time>2026-03-28T11:50:46Z</time></trkpt><trkpt lat="46.39875012663747" lon="9.687248138767073"><ele>1587.6</ele><time>2026-03-28T11:50:47Z</time></trkpt><trkpt lat="46.39863721496629" lon="9.68735223015954"><ele>1589.0</ele><time>2026-03-28T11:50:48Z</time></trkpt><trkpt lat="46.39850216705419" lon="9.687489674502467"><ele>1589.0</ele><time>2026-03-28T11:50:49Z</time></trkpt><trkpt lat="46.39834628672169" lon="9.687664692268065"><ele>1589.0</ele><time>2026-03-28T11:50:50Z</time></trkpt><trkpt lat="46.39818506025247" lon="9.687874050587244"><ele>1589.0</ele><time>2026-03-28T11:50:51Z</time></trkpt><trkpt lat="46.39804923882554" lon="9.688125010679308"><ele>1590.6666666666665</ele><time>2026-03-28T11:50:52Z</time></trkpt><trkpt lat="46.39795372172202" lon="9.688364571588025"><ele>1592.3333333333335</ele><time>2026-03-28T11:50:53Z</time></trkpt><trkpt lat="46.39788330059892" lon="9.688620214152182"><ele>1594.0</ele><time>2026-03-28T11:50:54Z</time></trkpt><trkpt lat="46.39782489390554" lon="9.68888926384734"><ele>1602.0</ele><time>2026-03-28T11:50:55Z</time></trkpt><trkpt lat="46.39775680954659" lon="9.689139421119284"><ele>1610.0</ele><time>2026-03-28T11:50:56Z</time></trkpt><trkpt lat="46.3976253864319" lon="9.689302774821458"><ele>1618.0</ele><time>2026-03-28T11:50:57Z</time></trkpt><trkpt lat="46.3974983185114" lon="9.689496471117218"><ele>1627.6666666666667</ele><time>2026-03-28T11:50:58Z</time></trkpt><trkpt lat="46.39739577498135" lon="9.689698367574032"><ele>1637.3333333333335</ele><time>2026-03-28T11:50:59Z</time></trkpt><trkpt lat="46.397295873382284" lon="9.689868562754363"><ele>1647.0</ele><time>2026-03-28T11:51:00Z</time></trkpt><trkpt lat="46.39721054436113" lon="9.690036296055112"><ele>1647.75</ele><time>2026-03-28T11:51:01Z</time></trkpt><trkpt lat="46.3971578499621" lon="9.690242522982729"><ele>1648.5</ele><time>2026-03-28T11:51:02Z</time></trkpt><trkpt lat="46.39709312446836" lon="9.690455950245164"><ele>1649.25</ele><time>2026-03-28T11:51:03Z</time></trkpt><trkpt lat="46.39702941371625" lon="9.690627370990203"><ele>1650.0</ele><time>2026-03-28T11:51:04Z</time></trkpt><trkpt lat="46.3969590358328" lon="9.690743639087458"><ele>1650.0</ele><time>2026-03-28T11:51:05Z</time></trkpt><trkpt lat="46.39686973276501" lon="9.690818899595266"><ele>1650.0</ele><time>2026-03-28T11:51:06Z</time></trkpt><trkpt lat="46.3967534645626" lon="9.690853502873232"><ele>1650.0</ele><time>2026-03-28T11:51:07.001Z</time></trkpt><trkpt lat="46.39662508898119" lon="9.690765140391509"><ele>1650.0</ele><time>2026-03-28T11:51:08.001Z</time></trkpt><trkpt lat="46.39650953173064" lon="9.690714274302689"><ele>1650.0</ele><time>2026-03-28T11:51:09.001Z</time></trkpt><trkpt lat="46.396425480537836" lon="9.690659674797322"><ele>1650.0</ele><time>2026-03-28T11:51:10.001Z</time></trkpt><trkpt lat="46.396349662209026" lon="9.690616344018112"><ele>1650.0</ele><time>2026-03-28T11:51:11.001Z</time></trkpt><trkpt lat="46.39627194446541" lon="9.690561720202412"><ele>1650.0</ele><time>2026-03-28T11:51:12.001Z</time></trkpt><trkpt lat="46.39619439438671" lon="9.690512067592794"><ele>1650.0</ele><time>2026-03-28T11:51:13.001Z</time></trkpt><trkpt lat="46.396132430662036" lon="9.690446898574478"><ele>1650.0</ele><time>2026-03-28T11:51:14.001Z</time></trkpt><trkpt lat="46.39608613290933" lon="9.690375965341445"><ele>1653.2</ele><time>2026-03-28T11:51:15.001Z</time></trkpt><trkpt lat="46.39603612156178" lon="9.690240321801227"><ele>1656.4</ele><time>2026-03-28T11:51:17.001Z</time></trkpt><trkpt lat="46.3959832838343" lon="9.690145436930678"><ele>1659.6</ele><time>2026-03-28T11:51:19.001Z</time></trkpt><trkpt lat="46.395891651110475" lon="9.690214377672133"><ele>1662.8</ele><time>2026-03-28T11:51:21.001Z</time></trkpt><trkpt lat="46.39588883635831" lon="9.69032036563924"><ele>1666.0</ele><time>2026-03-28T11:51:22.001Z</time></trkpt><trkpt lat="46.39592701617039" lon="9.690430658086541"><ele>1669.75</ele><time>2026-03-28T11:51:23.001Z</time></trkpt><trkpt lat="46.39599158835414" lon="9.690545461978578"><ele>1673.5</ele><time>2026-03-28T11:51:24.001Z</time></trkpt><trkpt lat="46.39607106776524" lon="9.690671836062569"><ele>1677.25</ele><time>2026-03-28T11:51:25.001Z</time></trkpt><trkpt lat="46.39617337862395" lon="9.690797567151737"><ele>1681.0</ele><time>2026-03-28T11:51:26.001Z</time></trkpt><trkpt lat="46.396303267134954" lon="9.690929506899932"><ele>1685.3333333333335</ele><time>2026-03-28T11:51:27.001Z</time></trkpt><trkpt lat="46.3964486190657" lon="9.691081701182739"><ele>1689.6666666666665</ele><time>2026-03-28T11:51:28.001Z</time></trkpt><trkpt lat="46.396576490380184" lon="9.691199013500595"><ele>1694.0</ele><time>2026-03-28T11:51:29.001Z</time></trkpt><trkpt lat="46.39670465571561" lon="9.691246868128578"><ele>1694.0</ele><time>2026-03-28T11:51:30.001Z</time></trkpt><trkpt lat="46.396849959706266" lon="9.691254076919458"><ele>1694.0</ele><time>2026-03-28T11:51:31.001Z</time></trkpt><trkpt lat="46.396964744005444" lon="9.691230560300562"><ele>1694.0</ele><time>2026-03-28T11:51:32.001Z</time></trkpt><trkpt lat="46.39703806884138" lon="9.691224947543773"><ele>1694.0</ele><time>2026-03-28T11:51:33.001Z</time></trkpt><trkpt lat="46.39709009621849" lon="9.691292939358283"><ele>1694.0</ele><time>2026-03-28T11:51:35.001Z</time></trkpt><trkpt lat="46.39699762668968" lon="9.691420701453987"><ele>1694.0</ele><time>2026-03-28T11:51:37.001Z</time></trkpt><trkpt lat="46.39689315515427" lon="9.691362889396736"><ele>1694.0</ele><time>2026-03-28T11:51:38.001Z</time></trkpt><trkpt lat="46.39674913386653" lon="9.69134973782346"><ele>1694.0</ele><time>2026-03-28T11:51:39.001Z</time></trkpt><trkpt lat="46.396576693732875" lon="9.691329560553367"><ele>1694.0</ele><time>2026-03-28T11:51:40.001Z</time></trkpt><trkpt lat="46.396395003117455" lon="9.691303855648188"><ele>1689.6666666666665</ele><time>2026-03-28T11:51:41.001Z</time></trkpt><trkpt lat="46.39624131681065" lon="9.691260856906583"><ele>1685.3333333333335</ele><time>2026-03-28T11:51:42.001Z</time></trkpt><trkpt lat="46.39612434128491" lon="9.691127108260137"><ele>1681.0</ele><time>2026-03-28T11:51:43.001Z</time></trkpt><trkpt lat="46.39599325866846" lon="9.691029491550518"><ele>1681.0</ele><time>2026-03-28T11:51:44.001Z</time></trkpt><trkpt lat="46.395871864868404" lon="9.690914751306616"><ele>1681.0</ele><time>2026-03-28T11:51:45.001Z</time></trkpt><trkpt lat="46.39575747300543" lon="9.690815454784998"><ele>1681.0</ele><time>2026-03-28T11:51:46.001Z</time></trkpt><trkpt lat="46.39567139287673" lon="9.690682001189776"><ele>1681.0</ele><time>2026-03-28T11:51:47.001Z</time></trkpt><trkpt lat="46.39559587594669" lon="9.690556965731057"><ele>1681.0</ele><time>2026-03-28T11:51:48.001Z</time></trkpt><trkpt lat="46.39553339067996" lon="9.690419938228795"><ele>1681.0</ele><time>2026-03-28T11:51:49.001Z</time></trkpt><trkpt lat="46.39548806648797" lon="9.690271132068347"><ele>1681.0</ele><time>2026-03-28T11:51:50.001Z</time></trkpt><trkpt lat="46.39546616733381" lon="9.690109896303225"><ele>1681.0</ele><time>2026-03-28T11:51:51.001Z</time></trkpt><trkpt lat="46.39545845365185" lon="9.68994511479806"><ele>1680.0</ele><time>2026-03-28T11:51:52.001Z</time></trkpt><trkpt lat="46.39544087549995" lon="9.689791531664305"><ele>1679.0</ele><time>2026-03-28T11:51:53Z</time></trkpt><trkpt lat="46.395443023207584" lon="9.68966835327266"><ele>1678.0</ele><time>2026-03-28T11:51:54Z</time></trkpt><trkpt lat="46.39544901830666" lon="9.689573684564362"><ele>1677.0</ele><time>2026-03-28T11:51:55Z</time></trkpt><trkpt lat="46.395430848225" lon="9.689435171078996"><ele>1676.0</ele><time>2026-03-28T11:51:57Z</time></trkpt><trkpt lat="46.3953275902382" lon="9.689424413086282"><ele>1683.0</ele><time>2026-03-28T11:51:59Z</time></trkpt><trkpt lat="46.39528382558605" lon="9.689599551811066"><ele>1690.0</ele><time>2026-03-28T11:52:01Z</time></trkpt><trkpt lat="46.39529672890417" lon="9.68974470799171"><ele>1697.0</ele><time>2026-03-28T11:52:02Z</time></trkpt><trkpt lat="46.39532630135567" lon="9.689929158367928"><ele>1704.0</ele><time>2026-03-28T11:52:03Z</time></trkpt><trkpt lat="46.39534202034703" lon="9.690143639633334"><ele>1709.0</ele><time>2026-03-28T11:52:04Z</time></trkpt><trkpt lat="46.39532601599338" lon="9.690359145585743"><ele>1714.0</ele><time>2026-03-28T11:52:05Z</time></trkpt><trkpt lat="46.395333220529345" lon="9.690598193294296"><ele>1719.0</ele><time>2026-03-28T11:52:06Z</time></trkpt><trkpt lat="46.3954016700752" lon="9.690801875119671"><ele>1719.0</ele><time>2026-03-28T11:52:07Z</time></trkpt><trkpt lat="46.39546191730913" lon="9.690983936927605"><ele>1719.0</ele><time>2026-03-28T11:52:08Z</time></trkpt><trkpt lat="46.39551702177378" lon="9.691160047907491"><ele>1719.0</ele><time>2026-03-28T11:52:09Z</time></trkpt><trkpt lat="46.39561626319301" lon="9.691331625009912"><ele>1719.0</ele><time>2026-03-28T11:52:10Z</time></trkpt><trkpt lat="46.39574762449344" lon="9.691446015585596"><ele>1718.0</ele><time>2026-03-28T11:52:11Z</time></trkpt><trkpt lat="46.395846767677234" lon="9.691547744277752"><ele>1717.0</ele><time>2026-03-28T11:52:12Z</time></trkpt><trkpt lat="46.395914959140214" lon="9.691640606351472"><ele>1716.0</ele><time>2026-03-28T11:52:13Z</time></trkpt><trkpt lat="46.39595978981256" lon="9.691776049804215"><ele>1715.0</ele><time>2026-03-28T11:52:15Z</time></trkpt><trkpt lat="46.39584974267513" lon="9.691836883932597"><ele>1714.0</ele><time>2026-03-28T11:52:17Z</time></trkpt><trkpt lat="46.39577730237402" lon="9.691768912178663"><ele>1714.0</ele><time>2026-03-28T11:52:18Z</time></trkpt><trkpt lat="46.395715615659036" lon="9.691602329661448"><ele>1714.0</ele><time>2026-03-28T11:52:19Z</time></trkpt><trkpt lat="46.395584997593765" lon="9.691487894294184"><ele>1714.0</ele><time>2026-03-28T11:52:20Z</time></trkpt><trkpt lat="46.395432843665525" lon="9.69135681595425"><ele>1715.6666666666667</ele><time>2026-03-28T11:52:21Z</time></trkpt><trkpt lat="46.395255123361935" lon="9.691247344135137"><ele>1717.3333333333335</ele><time>2026-03-28T11:52:22Z</time></trkpt><trkpt lat="46.39512195756563" lon="9.69115602644502"><ele>1719.0</ele><time>2026-03-28T11:52:23Z</time></trkpt><trkpt lat="46.39502148867575" lon="9.691083155153162"><ele>1719.0</ele><time>2026-03-28T11:52:24Z</time></trkpt><trkpt lat="46.39493495723756" lon="9.690994835343453"><ele>1719.0</ele><time>2026-03-28T11:52:25Z</time></trkpt><trkpt lat="46.39487921731878" lon="9.690865374428515"><ele>1719.0</ele><time>2026-03-28T11:52:26Z</time></trkpt><trkpt lat="46.39488533048864" lon="9.69069516072515"><ele>1719.0</ele><time>2026-03-28T11:52:27Z</time></trkpt><trkpt lat="46.39493338916878" lon="9.690542149829229"><ele>1719.0</ele><time>2026-03-28T11:52:28Z</time></trkpt><trkpt lat="46.39495837594547" lon="9.690372156213702"><ele>1719.0</ele><time>2026-03-28T11:52:29Z</time></trkpt><trkpt lat="46.39498376098111" lon="9.690269673887668"><ele>1719.0</ele><time>2026-03-28T11:52:30Z</time></trkpt><trkpt lat="46.39491399989028" lon="9.690126858497518"><ele>1719.0</ele><time>2026-03-28T11:52:32Z</time></trkpt><trkpt lat="46.3948220665137" lon="9.690195079165434"><ele>1719.0</ele><time>2026-03-28T11:52:33Z</time></trkpt><trkpt lat="46.394788120819044" lon="9.690348413556903"><ele>1719.0</ele><time>2026-03-28T11:52:34Z</time></trkpt><trkpt lat="46.39477964868657" lon="9.69052392111106"><ele>1719.0</ele><time>2026-03-28T11:52:35Z</time></trkpt><trkpt lat="46.39475814039729" lon="9.690730838845996"><ele>1719.0</ele><time>2026-03-28T11:52:36Z</time></trkpt><trkpt lat="46.39471435797872" lon="9.690915471672486"><ele>1719.0</ele><time>2026-03-28T11:52:37Z</time></trkpt><trkpt lat="46.39471791912929" lon="9.691077887472652"><ele>1719.0</ele><time>2026-03-28T11:52:38Z</time></trkpt><trkpt lat="46.394787111285105" lon="9.6912016445355"><ele>1722.8333333333333</ele><time>2026-03-28T11:52:39Z</time></trkpt><trkpt lat="46.39485270738694" lon="9.691289445470018"><ele>1726.6666666666665</ele><time>2026-03-28T11:52:40Z</time></trkpt><trkpt lat="46.39489513512482" lon="9.691364207259925"><ele>1730.5</ele><time>2026-03-28T11:52:41Z</time></trkpt><trkpt lat="46.394808579456566" lon="9.691445933676786"><ele>1734.3333333333333</ele><time>2026-03-28T11:52:43Z</time></trkpt><trkpt lat="46.394740480581575" lon="9.69142393347589"><ele>1738.1666666666665</ele><time>2026-03-28T11:52:44Z</time></trkpt><trkpt lat="46.39472344008941" lon="9.691304244805401"><ele>1742.0</ele><time>2026-03-28T11:52:45Z</time></trkpt><trkpt lat="46.39470003073325" lon="9.691166397235358"><ele>1747.25</ele><time>2026-03-28T11:52:46Z</time></trkpt><trkpt lat="46.394638331771226" lon="9.691001904139114"><ele>1752.5</ele><time>2026-03-28T11:52:47Z</time></trkpt><trkpt lat="46.394601776513056" lon="9.690818099701792"><ele>1757.75</ele><time>2026-03-28T11:52:48Z</time></trkpt><trkpt lat="46.39460816557658" lon="9.690650536068137"><ele>1763.0</ele><time>2026-03-28T11:52:49Z</time></trkpt><trkpt lat="46.39464735769516" lon="9.69047846058042"><ele>1762.9999999999998</ele><time>2026-03-28T11:52:50Z</time></trkpt><trkpt lat="46.39464735960203" lon="9.690315566177942"><ele>1763.0</ele><time>2026-03-28T11:52:51Z</time></trkpt><trkpt lat="46.39460930392385" lon="9.690177522304305"><ele>1763.0</ele><time>2026-03-28T11:52:52Z</time></trkpt><trkpt lat="46.39454888734907" lon="9.690100433900263"><ele>1763.0</ele><time>2026-03-28T11:52:53Z</time></trkpt><trkpt lat="46.394478786711915" lon="9.690095828316137"><ele>1762.9999999999998</ele><time>2026-03-28T11:52:54Z</time></trkpt><trkpt lat="46.39443321426034" lon="9.6901880526561"><ele>1763.0</ele><time>2026-03-28T11:52:55Z</time></trkpt><trkpt lat="46.39442062482096" lon="9.690298255645073"><ele>1763.0</ele><time>2026-03-28T11:52:56Z</time></trkpt><trkpt lat="46.39444732503343" lon="9.690427773165503"><ele>1763.0000000000002</ele><time>2026-03-28T11:52:57Z</time></trkpt><trkpt lat="46.39448969520049" lon="9.690560090904231"><ele>1763.0000000000002</ele><time>2026-03-28T11:52:58Z</time></trkpt><trkpt lat="46.3944827830126" lon="9.69073466266423"><ele>1763.0</ele><time>2026-03-28T11:52:59Z</time></trkpt><trkpt lat="46.39444969662845" lon="9.690918691368994"><ele>1763.0</ele><time>2026-03-28T11:53:00Z</time></trkpt><trkpt lat="46.39442657256734" lon="9.691101621910638"><ele>1766.0</ele><time>2026-03-28T11:53:01Z</time></trkpt><trkpt lat="46.39444038414779" lon="9.691275327093406"><ele>1769.0000000000002</ele><time>2026-03-28T11:53:02Z</time></trkpt><trkpt lat="46.39447569104613" lon="9.691422892018347"><ele>1772.0000000000002</ele><time>2026-03-28T11:53:03Z</time></trkpt><trkpt lat="46.39451083950742" lon="9.691543012300391"><ele>1775.0</ele><time>2026-03-28T11:53:04Z</time></trkpt><trkpt lat="46.394555702247146" lon="9.691648862021735"><ele>1778.0</ele><time>2026-03-28T11:53:05Z</time></trkpt><trkpt lat="46.39462188095547" lon="9.691746101940256"><ele>1775.8000000000002</ele><time>2026-03-28T11:53:06Z</time></trkpt><trkpt lat="46.394728796315604" lon="9.691830633198862"><ele>1773.6000000000001</ele><time>2026-03-28T11:53:07Z</time></trkpt><trkpt lat="46.394833475528976" lon="9.691897760601897"><ele>1771.3999999999999</ele><time>2026-03-28T11:53:08Z</time></trkpt><trkpt lat="46.39492099893704" lon="9.6919294422899"><ele>1769.1999999999998</ele><time>2026-03-28T11:53:09Z</time></trkpt><trkpt lat="46.395025831794655" lon="9.6919967903033"><ele>1767.0</ele><time>2026-03-28T11:53:11Z</time></trkpt><trkpt lat="46.395090760860526" lon="9.692091890170202"><ele>1767.0</ele><time>2026-03-28T11:53:13Z</time></trkpt><trkpt lat="46.395071677248964" lon="9.692220331209505"><ele>1767.0</ele><time>2026-03-28T11:53:15Z</time></trkpt><trkpt lat="46.394964077931206" lon="9.692234038219594"><ele>1767.0</ele><time>2026-03-28T11:53:17Z</time></trkpt><trkpt lat="46.39492076937747" lon="9.69215318998244"><ele>1767.0</ele><time>2026-03-28T11:53:18Z</time></trkpt><trkpt lat="46.39488822079709" lon="9.69207281288315"><ele>1767.0</ele><time>2026-03-28T11:53:19Z</time></trkpt><trkpt lat="46.394808284954" lon="9.691978546158353"><ele>1767.0</ele><time>2026-03-28T11:53:21Z</time></trkpt><trkpt lat="46.39471332593546" lon="9.692041213314097"><ele>1767.0</ele><time>2026-03-28T11:53:23Z</time></trkpt><trkpt lat="46.394699664362015" lon="9.692136820250035"><ele>1766.9999999999998</ele><time>2026-03-28T11:53:24Z</time></trkpt><trkpt lat="46.39472906201012" lon="9.692237300670415"><ele>1766.9999999999998</ele><time>2026-03-28T11:53:25Z</time></trkpt><trkpt lat="46.394806639996894" lon="9.692320798379326"><ele>1767.0</ele><time>2026-03-28T11:53:26Z</time></trkpt><trkpt lat="46.3948994401822" lon="9.692435062223348"><ele>1767.0</ele><time>2026-03-28T11:53:27Z</time></trkpt><trkpt lat="46.395020629217086" lon="9.692580716942338"><ele>1767.0</ele><time>2026-03-28T11:53:28Z</time></trkpt><trkpt lat="46.395180483100944" lon="9.692676698786036"><ele>1767.0</ele><time>2026-03-28T11:53:29Z</time></trkpt><trkpt lat="46.39535317929245" lon="9.692750079934227"><ele>1767.0</ele><time>2026-03-28T11:53:30Z</time></trkpt><trkpt lat="46.395523716350795" lon="9.692773209007637"><ele>1769.3999999999999</ele><time>2026-03-28T11:53:31Z</time></trkpt><trkpt lat="46.39564567650678" lon="9.692798640449213"><ele>1771.7999999999997</ele><time>2026-03-28T11:53:32Z</time></trkpt><trkpt lat="46.395728733727466" lon="9.692833657477031"><ele>1774.2</ele><time>2026-03-28T11:53:33Z</time></trkpt><trkpt lat="46.39577135276056" lon="9.692913960914257"><ele>1776.6</ele><time>2026-03-28T11:53:34Z</time></trkpt><trkpt lat="46.39579848908543" lon="9.693037225011716"><ele>1779.0</ele><time>2026-03-28T11:53:35Z</time></trkpt><trkpt lat="46.395812365733704" lon="9.693187114175814"><ele>1779.0</ele><time>2026-03-28T11:53:36Z</time></trkpt><trkpt lat="46.3958465874728" lon="9.693292267996386"><ele>1779.0</ele><time>2026-03-28T11:53:37Z</time></trkpt><trkpt lat="46.39591832292121" lon="9.693348010832663"><ele>1779.0</ele><time>2026-03-28T11:53:38Z</time></trkpt><trkpt lat="46.396062329496324" lon="9.693387531761514"><ele>1779.0</ele><time>2026-03-28T11:53:39Z</time></trkpt><trkpt lat="46.39616687052067" lon="9.69340153367564"><ele>1779.0</ele><time>2026-03-28T11:53:40Z</time></trkpt><trkpt lat="46.39622626104095" lon="9.693456515381229"><ele>1779.0</ele><time>2026-03-28T11:53:41Z</time></trkpt><trkpt lat="46.39618531703129" lon="9.693595152648573"><ele>1779.0</ele><time>2026-03-28T11:53:43Z</time></trkpt><trkpt lat="46.396104196956344" lon="9.693577747270576"><ele>1779.0</ele><time>2026-03-28T11:53:44Z</time></trkpt><trkpt lat="46.39604047899684" lon="9.69352070435282"><ele>1779.0</ele><time>2026-03-28T11:53:45Z</time></trkpt><trkpt lat="46.395920718781625" lon="9.693489041823513"><ele>1779.0</ele><time>2026-03-28T11:53:46Z</time></trkpt><trkpt lat="46.39582603816123" lon="9.6934397654734"><ele>1779.0</ele><time>2026-03-28T11:53:47Z</time></trkpt><trkpt lat="46.39575026955568" lon="9.693455182305872"><ele>1779.0</ele><time>2026-03-28T11:53:48Z</time></trkpt><trkpt lat="46.395706678851504" lon="9.693531718257972"><ele>1779.0</ele><time>2026-03-28T11:53:49Z</time></trkpt><trkpt lat="46.395693319643605" lon="9.693640254826589"><ele>1779.0</ele><time>2026-03-28T11:53:50Z</time></trkpt><trkpt lat="46.39575155650386" lon="9.693719659239463"><ele>1779.0</ele><time>2026-03-28T11:53:51Z</time></trkpt><trkpt lat="46.39585200575776" lon="9.693750631697396"><ele>1779.0</ele><time>2026-03-28T11:53:52Z</time></trkpt><trkpt lat="46.395982093175895" lon="9.693745171175564"><ele>1782.2</ele><time>2026-03-28T11:53:53Z</time></trkpt><trkpt lat="46.396104132607604" lon="9.6937660824199"><ele>1785.4</ele><time>2026-03-28T11:53:54Z</time></trkpt><trkpt lat="46.396182824578936" lon="9.693868227024614"><ele>1788.6</ele><time>2026-03-28T11:53:55Z</time></trkpt><trkpt lat="46.396201144626325" lon="9.694001579930513"><ele>1791.8</ele><time>2026-03-28T11:53:56Z</time></trkpt><trkpt lat="46.39614222088527" lon="9.694132777463762"><ele>1795.0</ele><time>2026-03-28T11:53:57Z</time></trkpt><trkpt lat="46.39605837412987" lon="9.694256721943908"><ele>1795.75</ele><time>2026-03-28T11:53:58Z</time></trkpt><trkpt lat="46.395979809569305" lon="9.694447741762376"><ele>1796.5</ele><time>2026-03-28T11:53:59Z</time></trkpt><trkpt lat="46.395914924844384" lon="9.694602669725722"><ele>1797.25</ele><time>2026-03-28T11:54:00Z</time></trkpt><trkpt lat="46.39590680491895" lon="9.69475414947624"><ele>1798.0</ele><time>2026-03-28T11:54:01Z</time></trkpt><trkpt lat="46.3959246088226" lon="9.69486383580735"><ele>1798.0</ele><time>2026-03-28T11:54:02Z</time></trkpt><trkpt lat="46.39600719239177" lon="9.69493842805751"><ele>1798.0</ele><time>2026-03-28T11:54:03Z</time></trkpt><trkpt lat="46.39611980430291" lon="9.694929374993912"><ele>1798.0</ele><time>2026-03-28T11:54:04Z</time></trkpt><trkpt lat="46.39624078299346" lon="9.694890004880598"><ele>1798.0</ele><time>2026-03-28T11:54:05Z</time></trkpt><trkpt lat="46.3963983523167" lon="9.694814416297637"><ele>1799.0</ele><time>2026-03-28T11:54:06Z</time></trkpt><trkpt lat="46.396588870368284" lon="9.694730608052154"><ele>1800.0</ele><time>2026-03-28T11:54:07Z</time></trkpt><trkpt lat="46.39676383494364" lon="9.694683246207436"><ele>1801.0</ele><time>2026-03-28T11:54:08Z</time></trkpt><trkpt lat="46.39691578148241" lon="9.694694932220523"><ele>1801.0</ele><time>2026-03-28T11:54:09Z</time></trkpt><trkpt lat="46.3970412893422" lon="9.694735313573137"><ele>1801.0</ele><time>2026-03-28T11:54:10Z</time></trkpt><trkpt lat="46.39714057498665" lon="9.694766855973123"><ele>1801.0</ele><time>2026-03-28T11:54:11Z</time></trkpt><trkpt lat="46.39722372321632" lon="9.694781194183"><ele>1801.0</ele><time>2026-03-28T11:54:12Z</time></trkpt><trkpt lat="46.39733139086017" lon="9.694720995607225"><ele>1801.0</ele><time>2026-03-28T11:54:14Z</time></trkpt><trkpt lat="46.39740723710574" lon="9.694608424367159"><ele>1800.2857142857142</ele><time>2026-03-28T11:54:16Z</time></trkpt><trkpt lat="46.39747723004545" lon="9.694545481444367"><ele>1799.5714285714284</ele><time>2026-03-28T11:54:18Z</time></trkpt><trkpt lat="46.397548944993304" lon="9.694541311034998"><ele>1798.8571428571427</ele><time>2026-03-28T11:54:27Z</time></trkpt><trkpt lat="46.397616031844564" lon="9.694561140295992"><ele>1798.142857142857</ele><time>2026-03-28T12:02:19Z</time></trkpt><trkpt lat="46.397675165469515" lon="9.694599864272107"><ele>1797.428571428571</ele><time>2026-03-28T12:02:30Z</time></trkpt><trkpt lat="46.397753877450505" lon="9.694575117420886"><ele>1796.7142857142856</ele><time>2026-03-28T12:02:47Z</time></trkpt><trkpt lat="46.397783255022006" lon="9.694494336307253"><ele>1796.0</ele><time>2026-03-28T12:20:12.999Z</time></trkpt><trkpt lat="46.39781094525455" lon="9.694403493391144"><ele>1796.0</ele><time>2026-03-28T12:20:20.999Z</time></trkpt><trkpt lat="46.39784037046855" lon="9.694319393223552"><ele>1795.9999999999998</ele><time>2026-03-28T12:20:29.999Z</time></trkpt><trkpt lat="46.397817056183825" lon="9.69440666173777"><ele>1796.0</ele><time>2026-03-28T12:21:09.999Z</time></trkpt><trkpt lat="46.39778212457936" lon="9.694490551817672"><ele>1796.0</ele><time>2026-03-28T12:21:20Z</time></trkpt><trkpt lat="46.39773005009673" lon="9.694544305161283"><ele>1795.9999999999998</ele><time>2026-03-28T12:25:26.999Z</time></trkpt><trkpt lat="46.397677895567234" lon="9.694599745207556"><ele>1796.0</ele><time>2026-03-28T12:25:42Z</time></trkpt><trkpt lat="46.39761423537623" lon="9.694606152518906"><ele>1796.0</ele><time>2026-03-28T12:25:59.999Z</time></trkpt><trkpt lat="46.39756738213263" lon="9.694537814822615"><ele>1797.5714285714284</ele><time>2026-03-28T12:26:21.999Z</time></trkpt><trkpt lat="46.39760418152703" lon="9.694454965864637"><ele>1799.1428571428569</ele><time>2026-03-28T12:27:09.999Z</time></trkpt><trkpt lat="46.39755275773387" lon="9.69452136407725"><ele>1800.7142857142858</ele><time>2026-03-28T12:27:32Z</time></trkpt><trkpt lat="46.39760966106361" lon="9.694571913439212"><ele>1802.2857142857142</ele><time>2026-03-28T12:31:51Z</time></trkpt><trkpt lat="46.39755835041191" lon="9.694643923830446"><ele>1803.857142857143</ele><time>2026-03-28T12:34:08Z</time></trkpt><trkpt lat="46.397475691995815" lon="9.694627491357277"><ele>1805.4285714285716</ele><time>2026-03-28T12:34:11Z</time></trkpt><trkpt lat="46.397387231473196" lon="9.694603896230419"><ele>1807.0000000000002</ele><time>2026-03-28T12:34:14Z</time></trkpt><trkpt lat="46.39731674985939" lon="9.694630913472594"><ele>1807.0000000000002</ele><time>2026-03-28T12:34:17Z</time></trkpt><trkpt lat="46.39730933745976" lon="9.694731222514907"><ele>1807.0</ele><time>2026-03-28T12:35:07.999Z</time></trkpt><trkpt lat="46.39735316950118" lon="9.694830955174202"><ele>1807.0</ele><time>2026-03-28T12:35:12.999Z</time></trkpt><trkpt lat="46.39742111697016" lon="9.69485315740781"><ele>1807.0</ele><time>2026-03-28T12:35:14.999Z</time></trkpt><trkpt lat="46.397495743195954" lon="9.694871001739228"><ele>1807.0000000000002</ele><time>2026-03-28T12:35:16.999Z</time></trkpt><trkpt lat="46.39758134570546" lon="9.694892455716822"><ele>1807.0</ele><time>2026-03-28T12:35:18.999Z</time></trkpt><trkpt lat="46.39766503454102" lon="9.694913200706965"><ele>1807.0000000000002</ele><time>2026-03-28T12:35:20.999Z</time></trkpt><trkpt lat="46.39774029636871" lon="9.69492394314757"><ele>1807.0</ele><time>2026-03-28T12:35:22.999Z</time></trkpt><trkpt lat="46.39785292249217" lon="9.694934091356208"><ele>1807.0</ele><time>2026-03-28T12:35:24.999Z</time></trkpt><trkpt lat="46.397925289448146" lon="9.694930240649287"><ele>1807.0</ele><time>2026-03-28T12:35:25.999Z</time></trkpt><trkpt lat="46.39799179996625" lon="9.694922080837856"><ele>1807.0000000000002</ele><time>2026-03-28T12:35:26.999Z</time></trkpt><trkpt lat="46.39806072835341" lon="9.694904694296525"><ele>1807.0</ele><time>2026-03-28T12:35:27.999Z</time></trkpt><trkpt lat="46.398147287186355" lon="9.694880998271149"><ele>1807.8333333333335</ele><time>2026-03-28T12:35:28.999Z</time></trkpt><trkpt lat="46.398218204164195" lon="9.694859013085852"><ele>1808.6666666666667</ele><time>2026-03-28T12:35:29.999Z</time></trkpt><trkpt lat="46.398296581458105" lon="9.69482683588729"><ele>1809.5</ele><time>2026-03-28T12:35:30.999Z</time></trkpt><trkpt lat="46.398382642846336" lon="9.694809445156643"><ele>1810.3333333333335</ele><time>2026-03-28T12:35:31.999Z</time></trkpt><trkpt lat="46.39846925026282" lon="9.694800001384786"><ele>1811.1666666666667</ele><time>2026-03-28T12:35:32.999Z</time></trkpt><trkpt lat="46.398557101490184" lon="9.694793348589672"><ele>1812.0</ele><time>2026-03-28T12:35:33.999Z</time></trkpt><trkpt lat="46.39864504831345" lon="9.694803452332192"><ele>1812.0</ele><time>2026-03-28T12:35:34.999Z</time></trkpt><trkpt lat="46.39873968747792" lon="9.694834643626116"><ele>1812.0</ele><time>2026-03-28T12:35:35.999Z</time></trkpt><trkpt lat="46.398815597373805" lon="9.69490576377947"><ele>1812.0</ele><time>2026-03-28T12:35:36.999Z</time></trkpt><trkpt lat="46.39888975202958" lon="9.6949668462156"><ele>1812.0</ele><time>2026-03-28T12:35:37.999Z</time></trkpt><trkpt lat="46.39896794792011" lon="9.695006829149692"><ele>1812.0</ele><time>2026-03-28T12:35:38.999Z</time></trkpt><trkpt lat="46.39904131960011" lon="9.695069383792367"><ele>1812.0</ele><time>2026-03-28T12:35:39.999Z</time></trkpt><trkpt lat="46.39911819668299" lon="9.695141122231865"><ele>1812.3999999999999</ele><time>2026-03-28T12:35:40.999Z</time></trkpt><trkpt lat="46.39919808041823" lon="9.695205680973993"><ele>1812.7999999999997</ele><time>2026-03-28T12:35:41.999Z</time></trkpt><trkpt lat="46.399279095536144" lon="9.695274395818416"><ele>1813.2</ele><time>2026-03-28T12:35:42.999Z</time></trkpt><trkpt lat="46.39935738157113" lon="9.695346226335928"><ele>1813.6</ele><time>2026-03-28T12:35:43.999Z</time></trkpt><trkpt lat="46.399432082272504" lon="9.695421980855023"><ele>1814.0</ele><time>2026-03-28T12:35:44.999Z</time></trkpt><trkpt lat="46.399514389887244" lon="9.695482758321265"><ele>1814.0</ele><time>2026-03-28T12:35:45.999Z</time></trkpt><trkpt lat="46.39959284646268" lon="9.695552078218961"><ele>1814.0</ele><time>2026-03-28T12:35:46.999Z</time></trkpt><trkpt lat="46.3996741128201" lon="9.695619936349978"><ele>1814.0</ele><time>2026-03-28T12:35:47.999Z</time></trkpt><trkpt lat="46.39976305122578" lon="9.695710970751245"><ele>1814.0</ele><time>2026-03-28T12:35:48.999Z</time></trkpt><trkpt lat="46.39984733031501" lon="9.69576329781055"><ele>1814.0</ele><time>2026-03-28T12:35:49.999Z</time></trkpt><trkpt lat="46.39992560990423" lon="9.695822402529865"><ele>1815.0</ele><time>2026-03-28T12:35:50.999Z</time></trkpt><trkpt lat="46.40000299331285" lon="9.695873893630859"><ele>1816.0</ele><time>2026-03-28T12:35:51.999Z</time></trkpt><trkpt lat="46.40009047869376" lon="9.695845534239167"><ele>1817.0</ele><time>2026-03-28T12:35:53Z</time></trkpt><trkpt lat="46.40017494215649" lon="9.695818109381014"><ele>1818.0</ele><time>2026-03-28T12:35:54Z</time></trkpt><trkpt lat="46.40026418361655" lon="9.695769135052004"><ele>1819.0</ele><time>2026-03-28T12:35:55Z</time></trkpt><trkpt lat="46.400352584668475" lon="9.695706173797015"><ele>1819.0</ele><time>2026-03-28T12:35:56Z</time></trkpt><trkpt lat="46.40044328856088" lon="9.69564054022576"><ele>1819.0</ele><time>2026-03-28T12:35:57Z</time></trkpt><trkpt lat="46.40053094307464" lon="9.695572172161103"><ele>1819.0</ele><time>2026-03-28T12:35:58Z</time></trkpt><trkpt lat="46.40061245587432" lon="9.695511739718375"><ele>1819.0</ele><time>2026-03-28T12:35:59Z</time></trkpt><trkpt lat="46.40069140325174" lon="9.695454970124251"><ele>1819.0</ele><time>2026-03-28T12:36:00Z</time></trkpt><trkpt lat="46.400771144138545" lon="9.695406511645354"><ele>1819.0</ele><time>2026-03-28T12:36:01Z</time></trkpt><trkpt lat="46.40084744799446" lon="9.695360617968156"><ele>1819.0</ele><time>2026-03-28T12:36:02Z</time></trkpt><trkpt lat="46.40093814481427" lon="9.695300262612205"><ele>1819.0</ele><time>2026-03-28T12:36:03Z</time></trkpt><trkpt lat="46.40103697254456" lon="9.69528932181451"><ele>1819.0</ele><time>2026-03-28T12:36:04Z</time></trkpt><trkpt lat="46.40112687523574" lon="9.69527590256998"><ele>1819.0</ele><time>2026-03-28T12:36:05Z</time></trkpt><trkpt lat="46.40120765374417" lon="9.695302447064137"><ele>1819.0</ele><time>2026-03-28T12:36:06Z</time></trkpt><trkpt lat="46.40129023228558" lon="9.695329070425593"><ele>1819.0</ele><time>2026-03-28T12:36:07Z</time></trkpt><trkpt lat="46.40138390850837" lon="9.695372746312541"><ele>1819.0</ele><time>2026-03-28T12:36:08Z</time></trkpt><trkpt lat="46.40148874361525" lon="9.695424148432695"><ele>1819.0</ele><time>2026-03-28T12:36:09Z</time></trkpt><trkpt lat="46.401584784084946" lon="9.695478395350872"><ele>1819.0</ele><time>2026-03-28T12:36:10Z</time></trkpt><trkpt lat="46.40170167241689" lon="9.695539245630131"><ele>1818.25</ele><time>2026-03-28T12:36:11Z</time></trkpt><trkpt lat="46.40181690149014" lon="9.69558990765654"><ele>1817.5</ele><time>2026-03-28T12:36:12Z</time></trkpt><trkpt lat="46.401939938556374" lon="9.6956262788622"><ele>1816.75</ele><time>2026-03-28T12:36:13Z</time></trkpt><trkpt lat="46.40207109552937" lon="9.695641302866676"><ele>1816.0</ele><time>2026-03-28T12:36:14Z</time></trkpt><trkpt lat="46.40220593148502" lon="9.69564671603276"><ele>1815.5</ele><time>2026-03-28T12:36:15Z</time></trkpt><trkpt lat="46.402345112300466" lon="9.69564096760968"><ele>1815.0</ele><time>2026-03-28T12:36:16Z</time></trkpt><trkpt lat="46.402484271395714" lon="9.695638858537931"><ele>1814.5</ele><time>2026-03-28T12:36:17Z</time></trkpt><trkpt lat="46.40262174925324" lon="9.695634358589501"><ele>1814.0</ele><time>2026-03-28T12:36:18Z</time></trkpt><trkpt lat="46.40276476107533" lon="9.695636616625233"><ele>1814.0</ele><time>2026-03-28T12:36:19Z</time></trkpt><trkpt lat="46.402902201544315" lon="9.695654586092527"><ele>1814.0</ele><time>2026-03-28T12:36:20Z</time></trkpt><trkpt lat="46.40302531032572" lon="9.695681176428083"><ele>1814.0</ele><time>2026-03-28T12:36:21Z</time></trkpt><trkpt lat="46.40314403704846" lon="9.695686334528313"><ele>1814.0</ele><time>2026-03-28T12:36:22Z</time></trkpt><trkpt lat="46.40327241589651" lon="9.695669740768293"><ele>1813.25</ele><time>2026-03-28T12:36:23Z</time></trkpt><trkpt lat="46.40340241609331" lon="9.69564549100641"><ele>1812.5</ele><time>2026-03-28T12:36:24Z</time></trkpt><trkpt lat="46.403523407210045" lon="9.695590448066135"><ele>1811.75</ele><time>2026-03-28T12:36:25Z</time></trkpt><trkpt lat="46.403643075699335" lon="9.695529070311286"><ele>1811.0</ele><time>2026-03-28T12:36:26Z</time></trkpt><trkpt lat="46.40376539067378" lon="9.695451092902285"><ele>1811.0</ele><time>2026-03-28T12:36:27Z</time></trkpt><trkpt lat="46.40387671478402" lon="9.69535830372726"><ele>1811.0</ele><time>2026-03-28T12:36:28Z</time></trkpt><trkpt lat="46.403974075287024" lon="9.695246733093876"><ele>1811.0</ele><time>2026-03-28T12:36:29Z</time></trkpt><trkpt lat="46.40406325286237" lon="9.695129295169046"><ele>1811.0</ele><time>2026-03-28T12:36:30Z</time></trkpt><trkpt lat="46.40415290870284" lon="9.695000701679914"><ele>1811.0</ele><time>2026-03-28T12:36:31Z</time></trkpt><trkpt lat="46.40424125090227" lon="9.694887759022718"><ele>1811.0</ele><time>2026-03-28T12:36:32Z</time></trkpt><trkpt lat="46.404335747166584" lon="9.694789531479413"><ele>1811.0</ele><time>2026-03-28T12:36:33Z</time></trkpt><trkpt lat="46.404417856514684" lon="9.694715762181733"><ele>1811.0</ele><time>2026-03-28T12:36:34Z</time></trkpt><trkpt lat="46.40453258931111" lon="9.694723924011058"><ele>1811.0</ele><time>2026-03-28T12:36:35Z</time></trkpt><trkpt lat="46.40464072880438" lon="9.694743460552742"><ele>1811.25</ele><time>2026-03-28T12:36:36Z</time></trkpt><trkpt lat="46.404735891587244" lon="9.694783951032058"><ele>1811.5</ele><time>2026-03-28T12:36:37Z</time></trkpt><trkpt lat="46.404846649672415" lon="9.694826993237431"><ele>1811.75</ele><time>2026-03-28T12:36:38Z</time></trkpt><trkpt lat="46.40495159403285" lon="9.694910049948327"><ele>1812.0</ele><time>2026-03-28T12:36:39Z</time></trkpt><trkpt lat="46.40506393937437" lon="9.694987879382778"><ele>1812.0</ele><time>2026-03-28T12:36:40Z</time></trkpt><trkpt lat="46.40518239749822" lon="9.69507924120809"><ele>1812.0</ele><time>2026-03-28T12:36:41Z</time></trkpt><trkpt lat="46.40530023506693" lon="9.6951811272386"><ele>1812.0</ele><time>2026-03-28T12:36:42Z</time></trkpt><trkpt lat="46.405412704419675" lon="9.695300374368331"><ele>1812.0</ele><time>2026-03-28T12:36:43Z</time></trkpt><trkpt lat="46.40552317945586" lon="9.695454677819722"><ele>1812.3333333333335</ele><time>2026-03-28T12:36:44Z</time></trkpt><trkpt lat="46.40563349318239" lon="9.695612386920008"><ele>1812.6666666666667</ele><time>2026-03-28T12:36:45Z</time></trkpt><trkpt lat="46.40574769720556" lon="9.695774526140122"><ele>1813.0</ele><time>2026-03-28T12:36:46Z</time></trkpt><trkpt lat="46.40585289305975" lon="9.695942582393215"><ele>1811.0</ele><time>2026-03-28T12:36:47Z</time></trkpt><trkpt lat="46.405954985047835" lon="9.696103455600753"><ele>1809.0</ele><time>2026-03-28T12:36:48Z</time></trkpt><trkpt lat="46.406064794934345" lon="9.696263410042434"><ele>1807.0</ele><time>2026-03-28T12:36:49Z</time></trkpt><trkpt lat="46.406170936469145" lon="9.696424171390275"><ele>1807.0</ele><time>2026-03-28T12:36:50Z</time></trkpt><trkpt lat="46.406267326254046" lon="9.696585561224719"><ele>1807.0</ele><time>2026-03-28T12:36:51Z</time></trkpt><trkpt lat="46.406340772468845" lon="9.696756729575075"><ele>1807.0</ele><time>2026-03-28T12:36:52Z</time></trkpt><trkpt lat="46.40639965094614" lon="9.696937984923732"><ele>1807.0</ele><time>2026-03-28T12:36:53Z</time></trkpt><trkpt lat="46.40644051735587" lon="9.69712548007024"><ele>1807.6666666666667</ele><time>2026-03-28T12:36:54Z</time></trkpt><trkpt lat="46.40643900678884" lon="9.697338644335813"><ele>1808.3333333333335</ele><time>2026-03-28T12:36:55Z</time></trkpt><trkpt lat="46.40647500138572" lon="9.697559867657635"><ele>1809.0</ele><time>2026-03-28T12:36:56Z</time></trkpt><trkpt lat="46.40649561600528" lon="9.697792425782728"><ele>1807.6666666666665</ele><time>2026-03-28T12:36:57Z</time></trkpt><trkpt lat="46.406518793664894" lon="9.698037688972063"><ele>1806.3333333333333</ele><time>2026-03-28T12:36:58Z</time></trkpt><trkpt lat="46.406551483566815" lon="9.698276213656715"><ele>1805.0</ele><time>2026-03-28T12:36:59Z</time></trkpt><trkpt lat="46.40659238709398" lon="9.698507473261746"><ele>1804.6666666666665</ele><time>2026-03-28T12:37:00Z</time></trkpt><trkpt lat="46.40663918843631" lon="9.698742867853772"><ele>1804.3333333333335</ele><time>2026-03-28T12:37:01Z</time></trkpt><trkpt lat="46.4066920373632" lon="9.698982951045117"><ele>1804.0</ele><time>2026-03-28T12:37:02Z</time></trkpt><trkpt lat="46.40676251693741" lon="9.699212418176883"><ele>1804.0</ele><time>2026-03-28T12:37:03Z</time></trkpt><trkpt lat="46.40682872162372" lon="9.699431668343479"><ele>1804.0</ele><time>2026-03-28T12:37:04Z</time></trkpt><trkpt lat="46.40690549171125" lon="9.69964934752107"><ele>1804.0</ele><time>2026-03-28T12:37:05Z</time></trkpt><trkpt lat="46.40698617155724" lon="9.699848115210326"><ele>1804.0</ele><time>2026-03-28T12:37:06Z</time></trkpt><trkpt lat="46.40707486789936" lon="9.700029000691984"><ele>1804.0</ele><time>2026-03-28T12:37:07Z</time></trkpt><trkpt lat="46.40716974984941" lon="9.70019793724746"><ele>1804.0</ele><time>2026-03-28T12:37:08Z</time></trkpt><trkpt lat="46.407268656790514" lon="9.700371182313901"><ele>1804.3333333333335</ele><time>2026-03-28T12:37:09Z</time></trkpt><trkpt lat="46.40737696706852" lon="9.700540658214724"><ele>1804.6666666666665</ele><time>2026-03-28T12:37:10Z</time></trkpt><trkpt lat="46.40749410842439" lon="9.700715813383834"><ele>1805.0</ele><time>2026-03-28T12:37:11Z</time></trkpt><trkpt lat="46.40760789706854" lon="9.70089206539724"><ele>1805.0</ele><time>2026-03-28T12:37:12Z</time></trkpt><trkpt lat="46.40772643399066" lon="9.701070001828445"><ele>1805.0</ele><time>2026-03-28T12:37:13Z</time></trkpt><trkpt lat="46.40784028367599" lon="9.701242440797627"><ele>1805.0</ele><time>2026-03-28T12:37:14Z</time></trkpt><trkpt lat="46.40795190758655" lon="9.7014151358303"><ele>1806.0</ele><time>2026-03-28T12:37:15Z</time></trkpt><trkpt lat="46.40806025804601" lon="9.701590983438054"><ele>1807.0</ele><time>2026-03-28T12:37:16Z</time></trkpt><trkpt lat="46.40816291663486" lon="9.701767328524065"><ele>1808.0</ele><time>2026-03-28T12:37:17Z</time></trkpt><trkpt lat="46.40825967703954" lon="9.70196114237106"><ele>1805.6666666666665</ele><time>2026-03-28T12:37:18Z</time></trkpt><trkpt lat="46.40831773218116" lon="9.702185411228866"><ele>1803.3333333333335</ele><time>2026-03-28T12:37:19Z</time></trkpt><trkpt lat="46.408372878237735" lon="9.702410122748306"><ele>1801.0</ele><time>2026-03-28T12:37:20Z</time></trkpt><trkpt lat="46.408435607479404" lon="9.70263223176487"><ele>1800.0</ele><time>2026-03-28T12:37:21Z</time></trkpt><trkpt lat="46.408474708782784" lon="9.702856194099997"><ele>1799.0</ele><time>2026-03-28T12:37:22Z</time></trkpt><trkpt lat="46.40852569571046" lon="9.703071069180618"><ele>1798.0</ele><time>2026-03-28T12:37:23Z</time></trkpt><trkpt lat="46.40859922927359" lon="9.703265285106033"><ele>1798.0</ele><time>2026-03-28T12:37:24Z</time></trkpt><trkpt lat="46.40869617168676" lon="9.703434437164239"><ele>1798.0</ele><time>2026-03-28T12:37:24.999Z</time></trkpt><trkpt lat="46.408811966751216" lon="9.703585154160212"><ele>1798.0</ele><time>2026-03-28T12:37:25.999Z</time></trkpt><trkpt lat="46.40894636462965" lon="9.703715774790783"><ele>1798.3333333333335</ele><time>2026-03-28T12:37:26.999Z</time></trkpt><trkpt lat="46.40909223204712" lon="9.703837802232199"><ele>1798.6666666666665</ele><time>2026-03-28T12:37:27.999Z</time></trkpt><trkpt lat="46.40924691126898" lon="9.703947106090894"><ele>1799.0</ele><time>2026-03-28T12:37:28.999Z</time></trkpt><trkpt lat="46.40940637996821" lon="9.704061268075087"><ele>1799.0</ele><time>2026-03-28T12:37:29.999Z</time></trkpt><trkpt lat="46.40957090610113" lon="9.70417983424214"><ele>1799.0</ele><time>2026-03-28T12:37:30.999Z</time></trkpt><trkpt lat="46.409728017002735" lon="9.704315851707191"><ele>1799.0</ele><time>2026-03-28T12:37:31.999Z</time></trkpt><trkpt lat="46.4098756301245" lon="9.704478089419073"><ele>1802.6666666666665</ele><time>2026-03-28T12:37:32.999Z</time></trkpt><trkpt lat="46.409988729532074" lon="9.704676087105089"><ele>1806.3333333333335</ele><time>2026-03-28T12:37:33.999Z</time></trkpt><trkpt lat="46.410088706884714" lon="9.704877879489649"><ele>1810.0</ele><time>2026-03-28T12:37:34.999Z</time></trkpt><trkpt lat="46.410168969352796" lon="9.705098909073456"><ele>1808.0</ele><time>2026-03-28T12:37:35.999Z</time></trkpt><trkpt lat="46.41023489682861" lon="9.705338133084764"><ele>1806.0</ele><time>2026-03-28T12:37:36.999Z</time></trkpt><trkpt lat="46.41028527001878" lon="9.705591044131998"><ele>1804.0</ele><time>2026-03-28T12:37:37.999Z</time></trkpt><trkpt lat="46.410336700062665" lon="9.705852900409004"><ele>1803.0</ele><time>2026-03-28T12:37:38.999Z</time></trkpt><trkpt lat="46.41040060075602" lon="9.706110961211069"><ele>1802.0</ele><time>2026-03-28T12:37:39.999Z</time></trkpt><trkpt lat="46.41044772245186" lon="9.706370289619132"><ele>1801.0</ele><time>2026-03-28T12:37:40.999Z</time></trkpt><trkpt lat="46.41049422785749" lon="9.70664010331393"><ele>1806.3333333333335</ele><time>2026-03-28T12:37:41.999Z</time></trkpt><trkpt lat="46.410547120509406" lon="9.706910379016247"><ele>1811.6666666666665</ele><time>2026-03-28T12:37:42.999Z</time></trkpt><trkpt lat="46.41060001118671" lon="9.70718185110127"><ele>1817.0</ele><time>2026-03-28T12:37:43.999Z</time></trkpt><trkpt lat="46.41064938395154" lon="9.707456875677686"><ele>1817.0</ele><time>2026-03-28T12:37:44.999Z</time></trkpt><trkpt lat="46.410685112086604" lon="9.707726822102344"><ele>1817.0</ele><time>2026-03-28T12:37:45.999Z</time></trkpt><trkpt lat="46.41071705975003" lon="9.70800302687379"><ele>1817.0</ele><time>2026-03-28T12:37:46.999Z</time></trkpt><trkpt lat="46.41074700987928" lon="9.708283646507056"><ele>1813.3333333333333</ele><time>2026-03-28T12:37:47.999Z</time></trkpt><trkpt lat="46.410786879282846" lon="9.708556563987672"><ele>1809.6666666666665</ele><time>2026-03-28T12:37:48.999Z</time></trkpt><trkpt lat="46.41085148192394" lon="9.708803365916236"><ele>1806.0</ele><time>2026-03-28T12:37:49.999Z</time></trkpt><trkpt lat="46.410944931841854" lon="9.709028168282412"><ele>1804.6666666666665</ele><time>2026-03-28T12:37:50.999Z</time></trkpt><trkpt lat="46.41106279086194" lon="9.709219320800992"><ele>1803.3333333333333</ele><time>2026-03-28T12:37:51.999Z</time></trkpt><trkpt lat="46.41119594152866" lon="9.709387223704853"><ele>1802.0</ele><time>2026-03-28T12:37:52.999Z</time></trkpt><trkpt lat="46.41133543918512" lon="9.709559156353947"><ele>1805.0</ele><time>2026-03-28T12:37:53.999Z</time></trkpt><trkpt lat="46.411448234433514" lon="9.709764963121735"><ele>1808.0</ele><time>2026-03-28T12:37:54.999Z</time></trkpt><trkpt lat="46.41154609795338" lon="9.709984275568777"><ele>1811.0</ele><time>2026-03-28T12:37:55.999Z</time></trkpt><trkpt lat="46.41163279186547" lon="9.710229037424767"><ele>1808.3333333333333</ele><time>2026-03-28T12:37:56.999Z</time></trkpt><trkpt lat="46.411718929585994" lon="9.710476101834791"><ele>1805.6666666666665</ele><time>2026-03-28T12:37:57.999Z</time></trkpt><trkpt lat="46.41179336801343" lon="9.710721498477648"><ele>1803.0</ele><time>2026-03-28T12:37:59Z</time></trkpt><trkpt lat="46.411876761082766" lon="9.710970477070118"><ele>1801.3333333333335</ele><time>2026-03-28T12:38:00Z</time></trkpt><trkpt lat="46.41197561188025" lon="9.711204378314072"><ele>1799.6666666666667</ele><time>2026-03-28T12:38:01Z</time></trkpt><trkpt lat="46.41208937988363" lon="9.711432307722205"><ele>1798.0</ele><time>2026-03-28T12:38:02Z</time></trkpt><trkpt lat="46.412213552805035" lon="9.711656348569743"><ele>1799.3333333333335</ele><time>2026-03-28T12:38:03Z</time></trkpt><trkpt lat="46.412337132682694" lon="9.711864095853777"><ele>1800.6666666666665</ele><time>2026-03-28T12:38:04Z</time></trkpt><trkpt lat="46.41245883192049" lon="9.712064646668399"><ele>1802.0</ele><time>2026-03-28T12:38:05Z</time></trkpt><trkpt lat="46.41257757995761" lon="9.712268865340597"><ele>1802.0</ele><time>2026-03-28T12:38:06Z</time></trkpt><trkpt lat="46.412712132506044" lon="9.712446430031461"><ele>1802.0</ele><time>2026-03-28T12:38:07Z</time></trkpt><trkpt lat="46.41285419878921" lon="9.712604087120232"><ele>1802.0</ele><time>2026-03-28T12:38:08Z</time></trkpt><trkpt lat="46.41300412179314" lon="9.712753723281622"><ele>1802.0</ele><time>2026-03-28T12:38:09Z</time></trkpt><trkpt lat="46.413153624559406" lon="9.712902293460665"><ele>1802.0</ele><time>2026-03-28T12:38:10Z</time></trkpt><trkpt lat="46.413293970523185" lon="9.713059563660039"><ele>1802.0</ele><time>2026-03-28T12:38:11Z</time></trkpt><trkpt lat="46.41343090743207" lon="9.713226828252802"><ele>1802.0</ele><time>2026-03-28T12:38:12Z</time></trkpt><trkpt lat="46.41356538043161" lon="9.713400741252237"><ele>1802.0</ele><time>2026-03-28T12:38:13Z</time></trkpt><trkpt lat="46.413692573017926" lon="9.71357857405869"><ele>1802.0</ele><time>2026-03-28T12:38:14Z</time></trkpt><trkpt lat="46.41381268227459" lon="9.71376513049968"><ele>1803.6666666666665</ele><time>2026-03-28T12:38:15Z</time></trkpt><trkpt lat="46.41390436103816" lon="9.71397916298823"><ele>1805.3333333333335</ele><time>2026-03-28T12:38:16Z</time></trkpt><trkpt lat="46.41398662066936" lon="9.714201264420153"><ele>1807.0</ele><time>2026-03-28T12:38:17Z</time></trkpt><trkpt lat="46.41408055168499" lon="9.71442217791277"><ele>1807.0</ele><time>2026-03-28T12:38:18Z</time></trkpt><trkpt lat="46.41416512738093" lon="9.714658147084233"><ele>1807.0</ele><time>2026-03-28T12:38:19Z</time></trkpt><trkpt lat="46.41426546914691" lon="9.714886215057158"><ele>1807.0</ele><time>2026-03-28T12:38:20Z</time></trkpt><trkpt lat="46.41437248683088" lon="9.715115122014543"><ele>1804.6666666666667</ele><time>2026-03-28T12:38:21Z</time></trkpt><trkpt lat="46.41447784244585" lon="9.715341459751116"><ele>1802.3333333333335</ele><time>2026-03-28T12:38:22Z</time></trkpt><trkpt lat="46.414578070449686" lon="9.715582893570684"><ele>1800.0</ele><time>2026-03-28T12:38:23Z</time></trkpt><trkpt lat="46.414675188596" lon="9.715831909301151"><ele>1805.3333333333335</ele><time>2026-03-28T12:38:24Z</time></trkpt><trkpt lat="46.414766084240334" lon="9.71608387078671"><ele>1810.6666666666667</ele><time>2026-03-28T12:38:25Z</time></trkpt><trkpt lat="46.414844738125595" lon="9.716342315463981"><ele>1816.0</ele><time>2026-03-28T12:38:26Z</time></trkpt><trkpt lat="46.41491225921812" lon="9.716608282006941"><ele>1816.0</ele><time>2026-03-28T12:38:27Z</time></trkpt><trkpt lat="46.41497248672661" lon="9.716869922772341"><ele>1816.0</ele><time>2026-03-28T12:38:28Z</time></trkpt><trkpt lat="46.41503464290835" lon="9.717128324501303"><ele>1816.0</ele><time>2026-03-28T12:38:29Z</time></trkpt><trkpt lat="46.41509482088314" lon="9.71738233944559"><ele>1813.0</ele><time>2026-03-28T12:38:30Z</time></trkpt><trkpt lat="46.41516004423496" lon="9.71763033668559"><ele>1810.0</ele><time>2026-03-28T12:38:31Z</time></trkpt><trkpt lat="46.415242588676016" lon="9.71785914519044"><ele>1807.0</ele><time>2026-03-28T12:38:32Z</time></trkpt><trkpt lat="46.41535156149659" lon="9.718054890824071"><ele>1805.3333333333335</ele><time>2026-03-28T12:38:33Z</time></trkpt><trkpt lat="46.415479362315835" lon="9.718240346258712"><ele>1803.6666666666665</ele><time>2026-03-28T12:38:34Z</time></trkpt><trkpt lat="46.41561590278864" lon="9.718415682372747"><ele>1802.0</ele><time>2026-03-28T12:38:35Z</time></trkpt><trkpt lat="46.41574754555467" lon="9.718620918277937"><ele>1805.6666666666665</ele><time>2026-03-28T12:38:36Z</time></trkpt><trkpt lat="46.41585571020353" lon="9.718849840384292"><ele>1809.3333333333335</ele><time>2026-03-28T12:38:37Z</time></trkpt><trkpt lat="46.41594529936634" lon="9.71910261468484"><ele>1813.0</ele><time>2026-03-28T12:38:38Z</time></trkpt><trkpt lat="46.41601817333915" lon="9.71937019307652"><ele>1811.0</ele><time>2026-03-28T12:38:39Z</time></trkpt><trkpt lat="46.41607533950097" lon="9.719634432324728"><ele>1809.0</ele><time>2026-03-28T12:38:40Z</time></trkpt><trkpt lat="46.41616328415586" lon="9.719899149326675"><ele>1807.0</ele><time>2026-03-28T12:38:41Z</time></trkpt><trkpt lat="46.41625101534836" lon="9.72016465427912"><ele>1814.6666666666667</ele><time>2026-03-28T12:38:42Z</time></trkpt><trkpt lat="46.41634907856044" lon="9.720412450662366"><ele>1822.3333333333335</ele><time>2026-03-28T12:38:43Z</time></trkpt><trkpt lat="46.416453783264764" lon="9.720660222502124"><ele>1830.0</ele><time>2026-03-28T12:38:44Z</time></trkpt><trkpt lat="46.41655149405637" lon="9.720904970491198"><ele>1826.0</ele><time>2026-03-28T12:38:45Z</time></trkpt><trkpt lat="46.41663958040806" lon="9.721151289325459"><ele>1822.0</ele><time>2026-03-28T12:38:46Z</time></trkpt><trkpt lat="46.41671310628578" lon="9.721404290813588"><ele>1818.0</ele><time>2026-03-28T12:38:47Z</time></trkpt><trkpt lat="46.41677727827248" lon="9.721658908521345"><ele>1814.6666666666665</ele><time>2026-03-28T12:38:48Z</time></trkpt><trkpt lat="46.41684537946921" lon="9.721908725066648"><ele>1811.3333333333333</ele><time>2026-03-28T12:38:49Z</time></trkpt><trkpt lat="46.416912477439176" lon="9.722157430832764"><ele>1808.0</ele><time>2026-03-28T12:38:50Z</time></trkpt><trkpt lat="46.4169876262391" lon="9.722407161435255"><ele>1808.0</ele><time>2026-03-28T12:38:51Z</time></trkpt><trkpt lat="46.41706211346517" lon="9.722659104330226"><ele>1808.0</ele><time>2026-03-28T12:38:52Z</time></trkpt><trkpt lat="46.4171384818921" lon="9.722905977659224"><ele>1808.0</ele><time>2026-03-28T12:38:53Z</time></trkpt><trkpt lat="46.41721633064859" lon="9.723154953316023"><ele>1812.0</ele><time>2026-03-28T12:38:54Z</time></trkpt><trkpt lat="46.417298214568675" lon="9.723403982216134"><ele>1816.0</ele><time>2026-03-28T12:38:55Z</time></trkpt><trkpt lat="46.417384187746116" lon="9.723651436045609"><ele>1820.0</ele><time>2026-03-28T12:38:56Z</time></trkpt><trkpt lat="46.417469532331026" lon="9.723896198769177"><ele>1820.0</ele><time>2026-03-28T12:38:57Z</time></trkpt><trkpt lat="46.417552583999374" lon="9.72414502903797"><ele>1820.0</ele><time>2026-03-28T12:38:58Z</time></trkpt><trkpt lat="46.417628808448704" lon="9.724397564881263"><ele>1820.0</ele><time>2026-03-28T12:38:59Z</time></trkpt><trkpt lat="46.41769435733506" lon="9.724649803332959"><ele>1816.0</ele><time>2026-03-28T12:39:00Z</time></trkpt><trkpt lat="46.41776060532821" lon="9.724893235032805"><ele>1812.0</ele><time>2026-03-28T12:39:01Z</time></trkpt><trkpt lat="46.41782242991949" lon="9.725135991407283"><ele>1808.0</ele><time>2026-03-28T12:39:02Z</time></trkpt><trkpt lat="46.417885977147726" lon="9.725372505916788"><ele>1806.0</ele><time>2026-03-28T12:39:03Z</time></trkpt><trkpt lat="46.41795792841006" lon="9.725593901725937"><ele>1804.0</ele><time>2026-03-28T12:39:04Z</time></trkpt><trkpt lat="46.41803901067979" lon="9.725811872631615"><ele>1802.0</ele><time>2026-03-28T12:39:05Z</time></trkpt><trkpt lat="46.418128381264935" lon="9.726033451167146"><ele>1805.6666666666665</ele><time>2026-03-28T12:39:06Z</time></trkpt><trkpt lat="46.418220951547866" lon="9.726252580429337"><ele>1809.3333333333335</ele><time>2026-03-28T12:39:07Z</time></trkpt><trkpt lat="46.418318734059284" lon="9.726471814277968"><ele>1813.0</ele><time>2026-03-28T12:39:08Z</time></trkpt><trkpt lat="46.41841395792774" lon="9.726691145683322"><ele>1812.3333333333335</ele><time>2026-03-28T12:39:09Z</time></trkpt><trkpt lat="46.41850157819854" lon="9.726905466424194"><ele>1811.6666666666665</ele><time>2026-03-28T12:39:10Z</time></trkpt><trkpt lat="46.418596922314826" lon="9.727107896515905"><ele>1811.0</ele><time>2026-03-28T12:39:11Z</time></trkpt><trkpt lat="46.41870549923467" lon="9.727287180928244"><ele>1812.3333333333333</ele><time>2026-03-28T12:39:12Z</time></trkpt><trkpt lat="46.41883364409384" lon="9.727432885038775"><ele>1813.6666666666665</ele><time>2026-03-28T12:39:13Z</time></trkpt><trkpt lat="46.41897605319273" lon="9.72752402762401"><ele>1815.0</ele><time>2026-03-28T12:39:14Z</time></trkpt><trkpt lat="46.41913297144535" lon="9.727564047386336"><ele>1815.0</ele><time>2026-03-28T12:39:15Z</time></trkpt><trkpt lat="46.419303987275406" lon="9.727511076568097"><ele>1815.0</ele><time>2026-03-28T12:39:16Z</time></trkpt><trkpt lat="46.41945892707375" lon="9.727381323054717"><ele>1815.0</ele><time>2026-03-28T12:39:17Z</time></trkpt><trkpt lat="46.419596899057765" lon="9.727219901286475"><ele>1812.75</ele><time>2026-03-28T12:39:18Z</time></trkpt><trkpt lat="46.4197256977697" lon="9.727066459021339"><ele>1810.5</ele><time>2026-03-28T12:39:19Z</time></trkpt><trkpt lat="46.419849430077434" lon="9.726926403411621"><ele>1808.25</ele><time>2026-03-28T12:39:20Z</time></trkpt><trkpt lat="46.419951972024855" lon="9.726824732865705"><ele>1806.0</ele><time>2026-03-28T12:39:21Z</time></trkpt><trkpt lat="46.420020146022814" lon="9.726749104203584"><ele>1806.0</ele><time>2026-03-28T12:39:22Z</time></trkpt><trkpt lat="46.42016484935938" lon="9.726650172359335"><ele>1806.0</ele><time>2026-03-28T12:39:23Z</time></trkpt><trkpt lat="46.420320648323354" lon="9.726587343453248"><ele>1806.0</ele><time>2026-03-28T12:39:23.999Z</time></trkpt><trkpt lat="46.420490775929224" lon="9.726562538120158"><ele>1803.3333333333335</ele><time>2026-03-28T12:39:24.999Z</time></trkpt><trkpt lat="46.420671763583066" lon="9.726546167318324"><ele>1800.6666666666667</ele><time>2026-03-28T12:39:25.999Z</time></trkpt><trkpt lat="46.42086117400211" lon="9.726517804279219"><ele>1798.0</ele><time>2026-03-28T12:39:26.999Z</time></trkpt><trkpt lat="46.42098326075423" lon="9.726425580009451"><ele>1798.0</ele><time>2026-03-28T12:39:27.999Z</time></trkpt><trkpt lat="46.421159723053144" lon="9.726418135312292"><ele>1798.0</ele><time>2026-03-28T12:39:28.999Z</time></trkpt><trkpt lat="46.42133277912522" lon="9.726387265632988"><ele>1798.0</ele><time>2026-03-28T12:39:29.999Z</time></trkpt><trkpt lat="46.42150902500484" lon="9.726382453704698"><ele>1798.0</ele><time>2026-03-28T12:39:30.999Z</time></trkpt><trkpt lat="46.42168219333032" lon="9.726380683008873"><ele>1798.0</ele><time>2026-03-28T12:39:31.999Z</time></trkpt><trkpt lat="46.42185527009988" lon="9.726376219705738"><ele>1798.0</ele><time>2026-03-28T12:39:32.999Z</time></trkpt><trkpt lat="46.422028224853634" lon="9.726367644203405"><ele>1799.3333333333335</ele><time>2026-03-28T12:39:33.999Z</time></trkpt><trkpt lat="46.42220051482602" lon="9.726361018322928"><ele>1800.6666666666665</ele><time>2026-03-28T12:39:34.999Z</time></trkpt><trkpt lat="46.422372977098966" lon="9.72635595351522"><ele>1802.0</ele><time>2026-03-28T12:39:35.999Z</time></trkpt><trkpt lat="46.42254618693185" lon="9.726355992963374"><ele>1802.0</ele><time>2026-03-28T12:39:36.999Z</time></trkpt><trkpt lat="46.42271630090285" lon="9.72637037799312"><ele>1802.0</ele><time>2026-03-28T12:39:37.999Z</time></trkpt><trkpt lat="46.42288869375308" lon="9.726426386430695"><ele>1802.0</ele><time>2026-03-28T12:39:38.999Z</time></trkpt><trkpt lat="46.42305973592397" lon="9.726480383984459"><ele>1807.6666666666665</ele><time>2026-03-28T12:39:39.999Z</time></trkpt><trkpt lat="46.42322883601045" lon="9.726554190576227"><ele>1813.3333333333335</ele><time>2026-03-28T12:39:40.999Z</time></trkpt><trkpt lat="46.42339304719486" lon="9.726648215512812"><ele>1819.0</ele><time>2026-03-28T12:39:41.999Z</time></trkpt><trkpt lat="46.42355632017441" lon="9.726753351706156"><ele>1819.0</ele><time>2026-03-28T12:39:42.999Z</time></trkpt><trkpt lat="46.423706668225336" lon="9.726889668224818"><ele>1819.0</ele><time>2026-03-28T12:39:43.999Z</time></trkpt><trkpt lat="46.42385754027289" lon="9.727047598270598"><ele>1819.0</ele><time>2026-03-28T12:39:44.999Z</time></trkpt><trkpt lat="46.42400479450076" lon="9.727218059435655"><ele>1819.0</ele><time>2026-03-28T12:39:45.999Z</time></trkpt><trkpt lat="46.424143657273895" lon="9.727399692823534"><ele>1819.0</ele><time>2026-03-28T12:39:46.999Z</time></trkpt><trkpt lat="46.424282319229725" lon="9.72758841296034"><ele>1819.0</ele><time>2026-03-28T12:39:47.999Z</time></trkpt><trkpt lat="46.424429320704284" lon="9.727756617816523"><ele>1822.0</ele><time>2026-03-28T12:39:48.999Z</time></trkpt><trkpt lat="46.42456384001702" lon="9.727947353068204"><ele>1825.0</ele><time>2026-03-28T12:39:49.999Z</time></trkpt><trkpt lat="46.424702768936875" lon="9.728154719744946"><ele>1828.0</ele><time>2026-03-28T12:39:50.999Z</time></trkpt><trkpt lat="46.42484162044414" lon="9.728344076705937"><ele>1828.0</ele><time>2026-03-28T12:39:51.999Z</time></trkpt><trkpt lat="46.424973771421584" lon="9.728536643395344"><ele>1828.0</ele><time>2026-03-28T12:39:52.999Z</time></trkpt><trkpt lat="46.42509869785502" lon="9.728727765233497"><ele>1828.0</ele><time>2026-03-28T12:39:53.999Z</time></trkpt><trkpt lat="46.42521523079781" lon="9.728925145202862"><ele>1824.6666666666667</ele><time>2026-03-28T12:39:54.999Z</time></trkpt><trkpt lat="46.4253184197231" lon="9.72912976784483"><ele>1821.3333333333335</ele><time>2026-03-28T12:39:55.999Z</time></trkpt><trkpt lat="46.425401063405324" lon="9.729331246839694"><ele>1818.0</ele><time>2026-03-28T12:39:56.999Z</time></trkpt><trkpt lat="46.42548491673806" lon="9.729557288948477"><ele>1818.0</ele><time>2026-03-28T12:39:57.999Z</time></trkpt><trkpt lat="46.42557302627409" lon="9.729786488612447"><ele>1818.0</ele><time>2026-03-28T12:39:58.999Z</time></trkpt><trkpt lat="46.42565849286944" lon="9.730014676262604"><ele>1818.0</ele><time>2026-03-28T12:39:59.999Z</time></trkpt><trkpt lat="46.425748756505975" lon="9.730255337387526"><ele>1816.3333333333335</ele><time>2026-03-28T12:40:00.999Z</time></trkpt><trkpt lat="46.425854340101104" lon="9.730491438499213"><ele>1814.6666666666667</ele><time>2026-03-28T12:40:01.999Z</time></trkpt><trkpt lat="46.42598038014883" lon="9.73071123192162"><ele>1813.0</ele><time>2026-03-28T12:40:02.999Z</time></trkpt><trkpt lat="46.42611151503092" lon="9.730937867860504"><ele>1809.6666666666667</ele><time>2026-03-28T12:40:03.999Z</time></trkpt><trkpt lat="46.42624231691189" lon="9.731153768075066"><ele>1806.3333333333335</ele><time>2026-03-28T12:40:05Z</time></trkpt><trkpt lat="46.4263707486347" lon="9.731379866623438"><ele>1803.0</ele><time>2026-03-28T12:40:06Z</time></trkpt><trkpt lat="46.42650576816022" lon="9.731586838316725"><ele>1804.3333333333335</ele><time>2026-03-28T12:40:07Z</time></trkpt><trkpt lat="46.426638156009886" lon="9.73179719746861"><ele>1805.6666666666667</ele><time>2026-03-28T12:40:08Z</time></trkpt><trkpt lat="46.426761113546284" lon="9.73199927264392"><ele>1807.0</ele><time>2026-03-28T12:40:09Z</time></trkpt><trkpt lat="46.42687625484336" lon="9.732208279721918"><ele>1807.0</ele><time>2026-03-28T12:40:10Z</time></trkpt><trkpt lat="46.42698714104303" lon="9.732419180392988"><ele>1807.0</ele><time>2026-03-28T12:40:11Z</time></trkpt><trkpt lat="46.42709445809571" lon="9.732634838714501"><ele>1807.0</ele><time>2026-03-28T12:40:12Z</time></trkpt><trkpt lat="46.427190808623884" lon="9.732843130038363"><ele>1811.3333333333335</ele><time>2026-03-28T12:40:13Z</time></trkpt><trkpt lat="46.427286754735725" lon="9.733041477342605"><ele>1815.6666666666665</ele><time>2026-03-28T12:40:14Z</time></trkpt><trkpt lat="46.42739250100053" lon="9.733211104622088"><ele>1820.0</ele><time>2026-03-28T12:40:15Z</time></trkpt><trkpt lat="46.42752063676521" lon="9.733366342386987"><ele>1820.0</ele><time>2026-03-28T12:40:16Z</time></trkpt><trkpt lat="46.42765788312189" lon="9.733531849090214"><ele>1820.0</ele><time>2026-03-28T12:40:17Z</time></trkpt><trkpt lat="46.427787920311204" lon="9.73367796059883"><ele>1820.0</ele><time>2026-03-28T12:40:18Z</time></trkpt><trkpt lat="46.42791241070928" lon="9.733826152061622"><ele>1822.0</ele><time>2026-03-28T12:40:19Z</time></trkpt><trkpt lat="46.428036713666756" lon="9.733969283707864"><ele>1824.0</ele><time>2026-03-28T12:40:20Z</time></trkpt><trkpt lat="46.428184410494424" lon="9.734084281788046"><ele>1826.0</ele><time>2026-03-28T12:40:21Z</time></trkpt><trkpt lat="46.42833126544075" lon="9.734203230719158"><ele>1826.0</ele><time>2026-03-28T12:40:22Z</time></trkpt><trkpt lat="46.42848235239777" lon="9.734306467787494"><ele>1826.0</ele><time>2026-03-28T12:40:23Z</time></trkpt><trkpt lat="46.428590467315814" lon="9.734456368714893"><ele>1826.0</ele><time>2026-03-28T12:40:24Z</time></trkpt><trkpt lat="46.428685177406905" lon="9.73463416662164"><ele>1822.5</ele><time>2026-03-28T12:40:25Z</time></trkpt><trkpt lat="46.42876159407472" lon="9.734804098832006"><ele>1819.0</ele><time>2026-03-28T12:40:26Z</time></trkpt><trkpt lat="46.4288014935233" lon="9.73499678221078"><ele>1815.5</ele><time>2026-03-28T12:40:27Z</time></trkpt><trkpt lat="46.42878525170704" lon="9.735188243083384"><ele>1812.0</ele><time>2026-03-28T12:40:28Z</time></trkpt><trkpt lat="46.42876320122456" lon="9.735408545316728"><ele>1809.6666666666665</ele><time>2026-03-28T12:40:29Z</time></trkpt><trkpt lat="46.42872860994122" lon="9.735613754508456"><ele>1807.3333333333333</ele><time>2026-03-28T12:40:30Z</time></trkpt><trkpt lat="46.42869641533213" lon="9.735851546226606"><ele>1805.0</ele><time>2026-03-28T12:40:31Z</time></trkpt><trkpt lat="46.4286914253266" lon="9.736107881245045"><ele>1805.0</ele><time>2026-03-28T12:40:32Z</time></trkpt><trkpt lat="46.42869651855754" lon="9.73635357588861"><ele>1805.0</ele><time>2026-03-28T12:40:33Z</time></trkpt><trkpt lat="46.428703546516346" lon="9.736576687194894"><ele>1805.0</ele><time>2026-03-28T12:40:34Z</time></trkpt><trkpt lat="46.428730984703684" lon="9.736769340479473"><ele>1802.3333333333333</ele><time>2026-03-28T12:40:35Z</time></trkpt><trkpt lat="46.428806619079836" lon="9.736958104150863"><ele>1799.6666666666665</ele><time>2026-03-28T12:40:36Z</time></trkpt><trkpt lat="46.428917130544036" lon="9.737155909836366"><ele>1797.0</ele><time>2026-03-28T12:40:37Z</time></trkpt><trkpt lat="46.429031594714644" lon="9.73736780038957"><ele>1799.3333333333335</ele><time>2026-03-28T12:40:38Z</time></trkpt><trkpt lat="46.429144161229345" lon="9.737595395021106"><ele>1801.6666666666667</ele><time>2026-03-28T12:40:39Z</time></trkpt><trkpt lat="46.429254284707824" lon="9.737805190224886"><ele>1804.0</ele><time>2026-03-28T12:40:40Z</time></trkpt><trkpt lat="46.42936342517369" lon="9.737989646944046"><ele>1804.0</ele><time>2026-03-28T12:40:41Z</time></trkpt><trkpt lat="46.42946913631054" lon="9.738156395377537"><ele>1804.0</ele><time>2026-03-28T12:40:42Z</time></trkpt><trkpt lat="46.42957278825959" lon="9.738317291840477"><ele>1804.0</ele><time>2026-03-28T12:40:43Z</time></trkpt><trkpt lat="46.42968176735759" lon="9.738468199110443"><ele>1804.0</ele><time>2026-03-28T12:40:44Z</time></trkpt><trkpt lat="46.429803359757955" lon="9.738611070575113"><ele>1804.0</ele><time>2026-03-28T12:40:45Z</time></trkpt><trkpt lat="46.42993718364114" lon="9.738741183799048"><ele>1804.0</ele><time>2026-03-28T12:40:46Z</time></trkpt><trkpt lat="46.43007047838044" lon="9.738865263541184"><ele>1804.0</ele><time>2026-03-28T12:40:47Z</time></trkpt><trkpt lat="46.43019594073556" lon="9.7390142068125"><ele>1804.0</ele><time>2026-03-28T12:40:48Z</time></trkpt><trkpt lat="46.43031065973543" lon="9.739185513506246"><ele>1804.0</ele><time>2026-03-28T12:40:49Z</time></trkpt><trkpt lat="46.43041745709918" lon="9.739368533156993"><ele>1811.3333333333335</ele><time>2026-03-28T12:40:50Z</time></trkpt><trkpt lat="46.43050842021351" lon="9.739569449968002"><ele>1818.6666666666665</ele><time>2026-03-28T12:40:51Z</time></trkpt><trkpt lat="46.430595011906476" lon="9.73978229501619"><ele>1826.0</ele><time>2026-03-28T12:40:52Z</time></trkpt><trkpt lat="46.43068170219172" lon="9.739994906367166"><ele>1826.0</ele><time>2026-03-28T12:40:53Z</time></trkpt><trkpt lat="46.430772407469114" lon="9.740210562417655"><ele>1826.0</ele><time>2026-03-28T12:40:54Z</time></trkpt><trkpt lat="46.430863957926135" lon="9.740433306051303"><ele>1826.0</ele><time>2026-03-28T12:40:55Z</time></trkpt><trkpt lat="46.43095648201508" lon="9.740659023343733"><ele>1822.0</ele><time>2026-03-28T12:40:56Z</time></trkpt><trkpt lat="46.431040087632944" lon="9.740875679771243"><ele>1818.0</ele><time>2026-03-28T12:40:57Z</time></trkpt><trkpt lat="46.43111230392092" lon="9.741087218230641"><ele>1814.0</ele><time>2026-03-28T12:40:58Z</time></trkpt><trkpt lat="46.431165601929834" lon="9.741317071435471"><ele>1811.0</ele><time>2026-03-28T12:40:59Z</time></trkpt><trkpt lat="46.43121805052001" lon="9.741540126805619"><ele>1808.0</ele><time>2026-03-28T12:41:00Z</time></trkpt><trkpt lat="46.43125684802364" lon="9.741781464192256"><ele>1805.0</ele><time>2026-03-28T12:41:01Z</time></trkpt><trkpt lat="46.43129939613951" lon="9.742021529760297"><ele>1811.0</ele><time>2026-03-28T12:41:02Z</time></trkpt><trkpt lat="46.43134828283133" lon="9.742256949309482"><ele>1817.0</ele><time>2026-03-28T12:41:03Z</time></trkpt><trkpt lat="46.43139733242444" lon="9.742489897490273"><ele>1823.0</ele><time>2026-03-28T12:41:04Z</time></trkpt><trkpt lat="46.43145785748053" lon="9.742707630622958"><ele>1817.6666666666665</ele><time>2026-03-28T12:41:05Z</time></trkpt><trkpt lat="46.43152551134351" lon="9.74290987348288"><ele>1812.3333333333335</ele><time>2026-03-28T12:41:06Z</time></trkpt><trkpt lat="46.431606702355474" lon="9.743099670842447"><ele>1807.0</ele><time>2026-03-28T12:41:07Z</time></trkpt><trkpt lat="46.431711802516126" lon="9.743259860618611"><ele>1807.0</ele><time>2026-03-28T12:41:08Z</time></trkpt><trkpt lat="46.43182922491997" lon="9.743409168795418"><ele>1807.0</ele><time>2026-03-28T12:41:09Z</time></trkpt><trkpt lat="46.43195568580026" lon="9.743564034779832"><ele>1807.0</ele><time>2026-03-28T12:41:10Z</time></trkpt><trkpt lat="46.43207878856751" lon="9.743733700645437"><ele>1809.6666666666667</ele><time>2026-03-28T12:41:11Z</time></trkpt><trkpt lat="46.432204481508634" lon="9.743906082325958"><ele>1812.3333333333335</ele><time>2026-03-28T12:41:12Z</time></trkpt><trkpt lat="46.432323336134544" lon="9.7440915229897"><ele>1815.0</ele><time>2026-03-28T12:41:13Z</time></trkpt><trkpt lat="46.432432073074054" lon="9.744278792346993"><ele>1812.6666666666665</ele><time>2026-03-28T12:41:14Z</time></trkpt><trkpt lat="46.432527829475546" lon="9.744494189112595"><ele>1810.3333333333333</ele><time>2026-03-28T12:41:15Z</time></trkpt><trkpt lat="46.43260982208857" lon="9.74472414549788"><ele>1808.0</ele><time>2026-03-28T12:41:16Z</time></trkpt><trkpt lat="46.43268462913025" lon="9.744965076324187"><ele>1808.0</ele><time>2026-03-28T12:41:17Z</time></trkpt><trkpt lat="46.432742221725206" lon="9.745208935592583"><ele>1808.0</ele><time>2026-03-28T12:41:18Z</time></trkpt><trkpt lat="46.432784338509926" lon="9.745464321311626"><ele>1808.0</ele><time>2026-03-28T12:41:19Z</time></trkpt><trkpt lat="46.43279327934335" lon="9.745730135212979"><ele>1807.0</ele><time>2026-03-28T12:41:20Z</time></trkpt><trkpt lat="46.43281411056994" lon="9.745994385469503"><ele>1806.0</ele><time>2026-03-28T12:41:21Z</time></trkpt><trkpt lat="46.43280112197029" lon="9.74626451412459"><ele>1805.0</ele><time>2026-03-28T12:41:22Z</time></trkpt><trkpt lat="46.43276682849897" lon="9.74653171247189"><ele>1805.0</ele><time>2026-03-28T12:41:23Z</time></trkpt><trkpt lat="46.43272697571269" lon="9.746804656980421"><ele>1805.0</ele><time>2026-03-28T12:41:24Z</time></trkpt><trkpt lat="46.43269487461099" lon="9.747069352396322"><ele>1805.0</ele><time>2026-03-28T12:41:25Z</time></trkpt><trkpt lat="46.4326756794481" lon="9.747329707688419"><ele>1805.0</ele><time>2026-03-28T12:41:26Z</time></trkpt><trkpt lat="46.432660601224136" lon="9.747597504055754"><ele>1805.0</ele><time>2026-03-28T12:41:27Z</time></trkpt><trkpt lat="46.43266108656385" lon="9.747860400988596"><ele>1805.0</ele><time>2026-03-28T12:41:27.999Z</time></trkpt><trkpt lat="46.43267754542365" lon="9.748134243451563"><ele>1804.3333333333333</ele><time>2026-03-28T12:41:28.999Z</time></trkpt><trkpt lat="46.432699717091225" lon="9.748400152550168"><ele>1803.6666666666665</ele><time>2026-03-28T12:41:29.999Z</time></trkpt><trkpt lat="46.43275079127347" lon="9.748677130876512"><ele>1803.0</ele><time>2026-03-28T12:41:30.999Z</time></trkpt><trkpt lat="46.43282491688003" lon="9.74894948900785"><ele>1801.6666666666665</ele><time>2026-03-28T12:41:31.999Z</time></trkpt><trkpt lat="46.432910980952784" lon="9.749218107457862"><ele>1800.3333333333333</ele><time>2026-03-28T12:41:32.999Z</time></trkpt><trkpt lat="46.43299310994852" lon="9.74948183592905"><ele>1799.0</ele><time>2026-03-28T12:41:33.999Z</time></trkpt><trkpt lat="46.43308328770268" lon="9.74974094264286"><ele>1801.0</ele><time>2026-03-28T12:41:34.999Z</time></trkpt><trkpt lat="46.43318028321523" lon="9.750008160725557"><ele>1803.0</ele><time>2026-03-28T12:41:35.999Z</time></trkpt><trkpt lat="46.43328633715018" lon="9.750270471271296"><ele>1805.0</ele><time>2026-03-28T12:41:36.999Z</time></trkpt><trkpt lat="46.433399303115536" lon="9.750522712353023"><ele>1805.0</ele><time>2026-03-28T12:41:37.999Z</time></trkpt><trkpt lat="46.43352039764094" lon="9.750771001361263"><ele>1805.0</ele><time>2026-03-28T12:41:38.999Z</time></trkpt><trkpt lat="46.43363595237643" lon="9.751006220051336"><ele>1805.0</ele><time>2026-03-28T12:41:39.999Z</time></trkpt><trkpt lat="46.433755046240655" lon="9.751224705772916"><ele>1804.6666666666665</ele><time>2026-03-28T12:41:40.999Z</time></trkpt><trkpt lat="46.43387178272768" lon="9.751436794902311"><ele>1804.3333333333335</ele><time>2026-03-28T12:41:41.999Z</time></trkpt><trkpt lat="46.4339907549054" lon="9.751658190848948"><ele>1804.0</ele><time>2026-03-28T12:41:42.999Z</time></trkpt><trkpt lat="46.43409977077623" lon="9.751882044858068"><ele>1804.0</ele><time>2026-03-28T12:41:43.999Z</time></trkpt><trkpt lat="46.434196732582585" lon="9.752118961225792"><ele>1804.0</ele><time>2026-03-28T12:41:44.999Z</time></trkpt><trkpt lat="46.434281637653605" lon="9.75235523568141"><ele>1804.0</ele><time>2026-03-28T12:41:45.999Z</time></trkpt><trkpt lat="46.434357102522924" lon="9.752595363330041"><ele>1803.0</ele><time>2026-03-28T12:41:46.999Z</time></trkpt><trkpt lat="46.434419838960174" lon="9.752841896030452"><ele>1802.0</ele><time>2026-03-28T12:41:47.999Z</time></trkpt><trkpt lat="46.43448171262183" lon="9.753089005853132"><ele>1801.0</ele><time>2026-03-28T12:41:48.999Z</time></trkpt><trkpt lat="46.43453805214041" lon="9.753341412163765"><ele>1801.3333333333335</ele><time>2026-03-28T12:41:49.999Z</time></trkpt><trkpt lat="46.4345980985352" lon="9.753587537643808"><ele>1801.6666666666665</ele><time>2026-03-28T12:41:50.999Z</time></trkpt><trkpt lat="46.434665796623506" lon="9.753829170666739"><ele>1802.0</ele><time>2026-03-28T12:41:51.999Z</time></trkpt><trkpt lat="46.43474344767695" lon="9.754067620141042"><ele>1801.6666666666665</ele><time>2026-03-28T12:41:52.999Z</time></trkpt><trkpt lat="46.434831088340424" lon="9.754303284154899"><ele>1801.3333333333335</ele><time>2026-03-28T12:41:53.999Z</time></trkpt><trkpt lat="46.43493231576977" lon="9.754537090063106"><ele>1801.0</ele><time>2026-03-28T12:41:54.999Z</time></trkpt><trkpt lat="46.435044737136494" lon="9.754767919228454"><ele>1801.0</ele><time>2026-03-28T12:41:55.999Z</time></trkpt><trkpt lat="46.43517086054694" lon="9.754993672612185"><ele>1801.0</ele><time>2026-03-28T12:41:56.999Z</time></trkpt><trkpt lat="46.435297208373754" lon="9.755219814785626"><ele>1801.0</ele><time>2026-03-28T12:41:57.999Z</time></trkpt><trkpt lat="46.43543067678831" lon="9.755449755420564"><ele>1802.3333333333335</ele><time>2026-03-28T12:41:58.999Z</time></trkpt><trkpt lat="46.43556464452655" lon="9.755685448107762"><ele>1803.6666666666665</ele><time>2026-03-28T12:41:59.999Z</time></trkpt><trkpt lat="46.43569475040846" lon="9.755912981076632"><ele>1805.0</ele><time>2026-03-28T12:42:00.999Z</time></trkpt><trkpt lat="46.43582038148855" lon="9.756154097010329"><ele>1805.0</ele><time>2026-03-28T12:42:01.999Z</time></trkpt><trkpt lat="46.435932233732885" lon="9.756402701289664"><ele>1805.0</ele><time>2026-03-28T12:42:02.999Z</time></trkpt><trkpt lat="46.43603151879671" lon="9.756652917648541"><ele>1805.0</ele><time>2026-03-28T12:42:03.999Z</time></trkpt><trkpt lat="46.43611488054076" lon="9.756904430355437"><ele>1803.0</ele><time>2026-03-28T12:42:04.999Z</time></trkpt><trkpt lat="46.43618691213331" lon="9.757173132505512"><ele>1801.0</ele><time>2026-03-28T12:42:05.999Z</time></trkpt><trkpt lat="46.43625141378285" lon="9.757450129933755"><ele>1799.0</ele><time>2026-03-28T12:42:06.999Z</time></trkpt><trkpt lat="46.43630910284713" lon="9.75772283417934"><ele>1807.3333333333333</ele><time>2026-03-28T12:42:07.999Z</time></trkpt><trkpt lat="46.43637600898865" lon="9.757993243023737"><ele>1815.6666666666665</ele><time>2026-03-28T12:42:08.999Z</time></trkpt><trkpt lat="46.43645886976793" lon="9.758251473036092"><ele>1824.0</ele><time>2026-03-28T12:42:09.999Z</time></trkpt><trkpt lat="46.43655619833885" lon="9.758505257877552"><ele>1818.0</ele><time>2026-03-28T12:42:11Z</time></trkpt><trkpt lat="46.43666343535318" lon="9.758752072910308"><ele>1812.0</ele><time>2026-03-28T12:42:12Z</time></trkpt><trkpt lat="46.4367781786548" lon="9.759001226289115"><ele>1806.0</ele><time>2026-03-28T12:42:13Z</time></trkpt><trkpt lat="46.436898150644254" lon="9.759250400880536"><ele>1803.0</ele><time>2026-03-28T12:42:14Z</time></trkpt><trkpt lat="46.437015109915556" lon="9.759494811292754"><ele>1800.0</ele><time>2026-03-28T12:42:15Z</time></trkpt><trkpt lat="46.43712839413061" lon="9.759737048327944"><ele>1797.0</ele><time>2026-03-28T12:42:16Z</time></trkpt><trkpt lat="46.43723914341091" lon="9.759984047190004"><ele>1803.6666666666665</ele><time>2026-03-28T12:42:17Z</time></trkpt><trkpt lat="46.43734757118717" lon="9.760231730967138"><ele>1810.3333333333333</ele><time>2026-03-28T12:42:18Z</time></trkpt><trkpt lat="46.43745971682581" lon="9.760478924298432"><ele>1817.0</ele><time>2026-03-28T12:42:19Z</time></trkpt><trkpt lat="46.43755255223835" lon="9.760762155827567"><ele>1812.3333333333333</ele><time>2026-03-28T12:42:20Z</time></trkpt><trkpt lat="46.437633173870246" lon="9.76104821547054"><ele>1807.6666666666665</ele><time>2026-03-28T12:42:21Z</time></trkpt><trkpt lat="46.437697066089704" lon="9.76134149827749"><ele>1803.0</ele><time>2026-03-28T12:42:22Z</time></trkpt><trkpt lat="46.43774919180906" lon="9.761631609052916"><ele>1802.3333333333335</ele><time>2026-03-28T12:42:23Z</time></trkpt><trkpt lat="46.43778749023608" lon="9.76193043989799"><ele>1801.6666666666667</ele><time>2026-03-28T12:42:24Z</time></trkpt><trkpt lat="46.43781157306064" lon="9.762232723948692"><ele>1801.0</ele><time>2026-03-28T12:42:25Z</time></trkpt><trkpt lat="46.437836688516526" lon="9.762532641227597"><ele>1800.3333333333335</ele><time>2026-03-28T12:42:26Z</time></trkpt><trkpt lat="46.43786918949323" lon="9.762822612435857"><ele>1799.6666666666665</ele><time>2026-03-28T12:42:27Z</time></trkpt><trkpt lat="46.43791747606351" lon="9.76310388244843"><ele>1799.0</ele><time>2026-03-28T12:42:28Z</time></trkpt><trkpt lat="46.437986253925054" lon="9.763379831654078"><ele>1799.6666666666665</ele><time>2026-03-28T12:42:29Z</time></trkpt><trkpt lat="46.43806096140247" lon="9.763655040381414"><ele>1800.3333333333335</ele><time>2026-03-28T12:42:30Z</time></trkpt><trkpt lat="46.43814766051899" lon="9.76392779723037"><ele>1801.0</ele><time>2026-03-28T12:42:31Z</time></trkpt><trkpt lat="46.438239584520566" lon="9.764192213703046"><ele>1800.6666666666667</ele><time>2026-03-28T12:42:32Z</time></trkpt><trkpt lat="46.43833465001817" lon="9.764456711417775"><ele>1800.3333333333335</ele><time>2026-03-28T12:42:33Z</time></trkpt><trkpt lat="46.43842833760405" lon="9.764710221323849"><ele>1800.0</ele><time>2026-03-28T12:42:34Z</time></trkpt><trkpt lat="46.43851815173917" lon="9.764945708528566"><ele>1800.0</ele><time>2026-03-28T12:42:35Z</time></trkpt><trkpt lat="46.43860646096" lon="9.765157367295775"><ele>1800.0</ele><time>2026-03-28T12:42:36Z</time></trkpt><trkpt lat="46.438685874796796" lon="9.765328500995215"><ele>1800.0</ele><time>2026-03-28T12:42:37Z</time></trkpt><trkpt lat="46.438761019908526" lon="9.765472881130618"><ele>1800.0</ele><time>2026-03-28T12:42:38Z</time></trkpt><trkpt lat="46.43881846973736" lon="9.76559569959602"><ele>1800.0</ele><time>2026-03-28T12:42:39Z</time></trkpt><trkpt lat="46.43885507016328" lon="9.765705721510644"><ele>1800.0</ele><time>2026-03-28T12:42:40Z</time></trkpt><trkpt lat="46.43886841514449" lon="9.765824174618515"><ele>1800.0</ele><time>2026-03-28T12:42:41Z</time></trkpt><trkpt lat="46.43887633853305" lon="9.765952555828388"><ele>1800.0</ele><time>2026-03-28T12:42:42Z</time></trkpt><trkpt lat="46.438915978402086" lon="9.766061704715764"><ele>1800.0</ele><time>2026-03-28T12:42:43Z</time></trkpt><trkpt lat="46.438979203301464" lon="9.766161051985513"><ele>1800.0</ele><time>2026-03-28T12:42:44Z</time></trkpt><trkpt lat="46.439045207843286" lon="9.766272335720336"><ele>1799.5</ele><time>2026-03-28T12:42:45Z</time></trkpt><trkpt lat="46.43910279248886" lon="9.766419444626521"><ele>1799.0</ele><time>2026-03-28T12:42:46Z</time></trkpt><trkpt lat="46.43919624560942" lon="9.766564785645633"><ele>1798.5</ele><time>2026-03-28T12:42:47Z</time></trkpt><trkpt lat="46.43928901688237" lon="9.766738354472306"><ele>1798.0</ele><time>2026-03-28T12:42:48Z</time></trkpt><trkpt lat="46.43933665902259" lon="9.766993608585919"><ele>1798.0</ele><time>2026-03-28T12:42:49Z</time></trkpt><trkpt lat="46.43942403214184" lon="9.767229092725525"><ele>1798.0</ele><time>2026-03-28T12:42:50Z</time></trkpt><trkpt lat="46.439518954126505" lon="9.76746962236029"><ele>1798.0</ele><time>2026-03-28T12:42:51Z</time></trkpt><trkpt lat="46.43963248019015" lon="9.767728213440208"><ele>1797.5</ele><time>2026-03-28T12:42:52Z</time></trkpt><trkpt lat="46.439777782139714" lon="9.768008369790481"><ele>1797.0</ele><time>2026-03-28T12:42:53Z</time></trkpt><trkpt lat="46.439943452399255" lon="9.768305111298744"><ele>1797.0</ele><time>2026-03-28T12:42:54Z</time></trkpt><trkpt lat="46.43994350236826" lon="9.76848731334462"><ele>1797.0</ele><time>2026-03-28T12:42:55Z</time></trkpt><trkpt lat="46.440062176483835" lon="9.768775511436903"><ele>1797.0</ele><time>2026-03-28T12:42:56Z</time></trkpt><trkpt lat="46.44018756665111" lon="9.76907002122272"><ele>1796.0</ele><time>2026-03-28T12:42:57Z</time></trkpt><trkpt lat="46.44031461439796" lon="9.769372544299172"><ele>1795.0</ele><time>2026-03-28T12:42:58Z</time></trkpt><trkpt lat="46.440438431579814" lon="9.769685655405302"><ele>1795.5</ele><time>2026-03-28T12:42:59Z</time></trkpt><trkpt lat="46.440566483360264" lon="9.769999422881652"><ele>1796.0</ele><time>2026-03-28T12:43:00Z</time></trkpt><trkpt lat="46.440695537899515" lon="9.770313601026578"><ele>1796.0</ele><time>2026-03-28T12:43:01Z</time></trkpt><trkpt lat="46.44082551112835" lon="9.77063519174598"><ele>1796.0</ele><time>2026-03-28T12:43:02Z</time></trkpt><trkpt lat="46.44095356377779" lon="9.770953705957243"><ele>1796.0</ele><time>2026-03-28T12:43:03Z</time></trkpt><trkpt lat="46.44108101947458" lon="9.771271401857987"><ele>1796.0</ele><time>2026-03-28T12:43:04Z</time></trkpt><trkpt lat="46.44121159263735" lon="9.771586499382758"><ele>1794.5</ele><time>2026-03-28T12:43:05Z</time></trkpt><trkpt lat="46.44133772605702" lon="9.77190162159197"><ele>1793.0</ele><time>2026-03-28T12:43:06Z</time></trkpt><trkpt lat="46.44146531813099" lon="9.772219840881997"><ele>1793.0</ele><time>2026-03-28T12:43:07Z</time></trkpt><trkpt lat="46.44159440952472" lon="9.772535921421035"><ele>1793.0</ele><time>2026-03-28T12:43:08Z</time></trkpt><trkpt lat="46.44172296621966" lon="9.772845690170284"><ele>1793.0</ele><time>2026-03-28T12:43:09Z</time></trkpt><trkpt lat="46.44185122955569" lon="9.77315715627344"><ele>1793.0</ele><time>2026-03-28T12:43:10Z</time></trkpt><trkpt lat="46.44198058378384" lon="9.773468416944297"><ele>1793.0</ele><time>2026-03-28T12:43:11Z</time></trkpt><trkpt lat="46.44210576836026" lon="9.773781137378412"><ele>1793.0</ele><time>2026-03-28T12:43:12Z</time></trkpt><trkpt lat="46.44223007529088" lon="9.774084463781827"><ele>1792.5</ele><time>2026-03-28T12:43:13Z</time></trkpt><trkpt lat="46.44235179594608" lon="9.774386099111872"><ele>1792.0</ele><time>2026-03-28T12:43:14Z</time></trkpt><trkpt lat="46.44247713842304" lon="9.774674434419968"><ele>1792.0</ele><time>2026-03-28T12:43:15Z</time></trkpt><trkpt lat="46.44260584246302" lon="9.77494148363215"><ele>1792.0</ele><time>2026-03-28T12:43:16Z</time></trkpt><trkpt lat="46.44275093369882" lon="9.775174523489124"><ele>1792.0</ele><time>2026-03-28T12:43:17Z</time></trkpt><trkpt lat="46.44292976135712" lon="9.775350018449807"><ele>1796.0</ele><time>2026-03-28T12:43:18Z</time></trkpt><trkpt lat="46.443121563061354" lon="9.775521781273524"><ele>1800.0</ele><time>2026-03-28T12:43:19Z</time></trkpt><trkpt lat="46.44332369253767" lon="9.775667377660142"><ele>1800.0</ele><time>2026-03-28T12:43:20Z</time></trkpt><trkpt lat="46.44352762799483" lon="9.77583151298811"><ele>1800.0</ele><time>2026-03-28T12:43:21Z</time></trkpt><trkpt lat="46.44371650936118" lon="9.776005061080813"><ele>1801.6666666666665</ele><time>2026-03-28T12:43:22Z</time></trkpt><trkpt lat="46.44390073658267" lon="9.776205809426967"><ele>1803.3333333333333</ele><time>2026-03-28T12:43:23Z</time></trkpt><trkpt lat="46.444077664869575" lon="9.776387441662813"><ele>1805.0</ele><time>2026-03-28T12:43:24Z</time></trkpt><trkpt lat="46.44424878795705" lon="9.7765926407727"><ele>1805.0</ele><time>2026-03-28T12:43:25Z</time></trkpt><trkpt lat="46.444399830939794" lon="9.776829018876986"><ele>1805.0</ele><time>2026-03-28T12:43:26Z</time></trkpt><trkpt lat="46.44452722938743" lon="9.777086259560134"><ele>1805.0</ele><time>2026-03-28T12:43:27Z</time></trkpt><trkpt lat="46.444637615735175" lon="9.777363029826704"><ele>1805.6666666666665</ele><time>2026-03-28T12:43:27.999Z</time></trkpt><trkpt lat="46.444738806195595" lon="9.77763456430428"><ele>1806.3333333333335</ele><time>2026-03-28T12:43:28.999Z</time></trkpt><trkpt lat="46.444845559729536" lon="9.777863320002064"><ele>1807.0</ele><time>2026-03-28T12:43:29.999Z</time></trkpt><trkpt lat="46.444935723217384" lon="9.778097244892635"><ele>1807.0</ele><time>2026-03-28T12:43:30.999Z</time></trkpt><trkpt lat="46.44500595373629" lon="9.778319728906657"><ele>1807.0</ele><time>2026-03-28T12:43:31.999Z</time></trkpt><trkpt lat="46.44502285284674" lon="9.778634002253495"><ele>1807.0</ele><time>2026-03-28T12:43:32.999Z</time></trkpt><trkpt lat="46.4450645138916" lon="9.778896092619515"><ele>1805.0</ele><time>2026-03-28T12:43:33.999Z</time></trkpt><trkpt lat="46.445138796923914" lon="9.779114454107914"><ele>1803.0</ele><time>2026-03-28T12:43:34.999Z</time></trkpt><trkpt lat="46.445250869921566" lon="9.779298638312534"><ele>1801.0</ele><time>2026-03-28T12:43:35.999Z</time></trkpt><trkpt lat="46.44539492832921" lon="9.779423850792417"><ele>1802.0</ele><time>2026-03-28T12:43:36.999Z</time></trkpt><trkpt lat="46.445545846993916" lon="9.779525110015301"><ele>1803.0</ele><time>2026-03-28T12:43:37.999Z</time></trkpt><trkpt lat="46.44570819654964" lon="9.779658135505104"><ele>1804.0</ele><time>2026-03-28T12:43:38.999Z</time></trkpt><trkpt lat="46.44586557952162" lon="9.779799291832605"><ele>1804.0</ele><time>2026-03-28T12:43:39.999Z</time></trkpt><trkpt lat="46.4459916121152" lon="9.779980463987917"><ele>1804.0</ele><time>2026-03-28T12:43:40.999Z</time></trkpt><trkpt lat="46.446062646628796" lon="9.780226418571042"><ele>1804.0</ele><time>2026-03-28T12:43:41.999Z</time></trkpt><trkpt lat="46.4461662327409" lon="9.780449976306155"><ele>1802.6666666666667</ele><time>2026-03-28T12:43:42.999Z</time></trkpt><trkpt lat="46.44627134630627" lon="9.78067896362596"><ele>1801.3333333333335</ele><time>2026-03-28T12:43:43.999Z</time></trkpt><trkpt lat="46.44641173736575" lon="9.780864899918846"><ele>1800.0</ele><time>2026-03-28T12:43:44.999Z</time></trkpt><trkpt lat="46.44654321238933" lon="9.781046592642825"><ele>1800.0</ele><time>2026-03-28T12:43:45.999Z</time></trkpt><trkpt lat="46.44666343900735" lon="9.781253007751237"><ele>1800.0</ele><time>2026-03-28T12:43:46.999Z</time></trkpt><trkpt lat="46.446788519494675" lon="9.781420189269918"><ele>1800.0</ele><time>2026-03-28T12:43:47.999Z</time></trkpt><trkpt lat="46.446909787548066" lon="9.78158881750333"><ele>1800.0</ele><time>2026-03-28T12:43:48.999Z</time></trkpt><trkpt lat="46.447041465187105" lon="9.781704007558885"><ele>1800.0</ele><time>2026-03-28T12:43:49.999Z</time></trkpt><trkpt lat="46.44716680657272" lon="9.781818854950357"><ele>1800.0</ele><time>2026-03-28T12:43:50.999Z</time></trkpt><trkpt lat="46.44728369461027" lon="9.781922105354353"><ele>1800.0</ele><time>2026-03-28T12:43:51.999Z</time></trkpt><trkpt lat="46.4473885528747" lon="9.782037178174471"><ele>1800.75</ele><time>2026-03-28T12:43:52.999Z</time></trkpt><trkpt lat="46.447476290068224" lon="9.782165527355643"><ele>1801.5</ele><time>2026-03-28T12:43:53.999Z</time></trkpt><trkpt lat="46.44753629322036" lon="9.782305428432354"><ele>1802.25</ele><time>2026-03-28T12:43:54.999Z</time></trkpt><trkpt lat="46.44757054409819" lon="9.782465719559704"><ele>1803.0</ele><time>2026-03-28T12:43:55.999Z</time></trkpt><trkpt lat="46.44760667673104" lon="9.782641965284064"><ele>1801.25</ele><time>2026-03-28T12:43:56.999Z</time></trkpt><trkpt lat="46.447652900785826" lon="9.78280577829689"><ele>1799.5</ele><time>2026-03-28T12:43:57.999Z</time></trkpt><trkpt lat="46.44769770267932" lon="9.782956925149396"><ele>1797.75</ele><time>2026-03-28T12:43:58.999Z</time></trkpt><trkpt lat="46.447763430981276" lon="9.7831079358288"><ele>1796.0</ele><time>2026-03-28T12:43:59.999Z</time></trkpt><trkpt lat="46.44785556943653" lon="9.783235851815721"><ele>1796.0</ele><time>2026-03-28T12:44:00.999Z</time></trkpt><trkpt lat="46.447968205702516" lon="9.783332256184512"><ele>1796.0</ele><time>2026-03-28T12:44:01.999Z</time></trkpt><trkpt lat="46.44810339437516" lon="9.783427792313992"><ele>1796.0</ele><time>2026-03-28T12:44:02.999Z</time></trkpt><trkpt lat="46.44825066149651" lon="9.783533533872943"><ele>1796.0</ele><time>2026-03-28T12:44:03.999Z</time></trkpt><trkpt lat="46.44841030825838" lon="9.783663806974225"><ele>1796.0</ele><time>2026-03-28T12:44:04.999Z</time></trkpt><trkpt lat="46.44857340184523" lon="9.783812199399705"><ele>1796.0</ele><time>2026-03-28T12:44:05.999Z</time></trkpt><trkpt lat="46.44874924783982" lon="9.783932947261818"><ele>1796.0</ele><time>2026-03-28T12:44:06.999Z</time></trkpt><trkpt lat="46.4489428891367" lon="9.784049776853218"><ele>1795.0</ele><time>2026-03-28T12:44:07.999Z</time></trkpt><trkpt lat="46.44913697908616" lon="9.784148341930685"><ele>1794.0</ele><time>2026-03-28T12:44:08.999Z</time></trkpt><trkpt lat="46.44931865171482" lon="9.784248171811734"><ele>1793.0</ele><time>2026-03-28T12:44:09.999Z</time></trkpt><trkpt lat="46.449471736435065" lon="9.784394225929896"><ele>1793.0</ele><time>2026-03-28T12:44:10.999Z</time></trkpt><trkpt lat="46.44961180864506" lon="9.78454904126887"><ele>1793.0</ele><time>2026-03-28T12:44:11.999Z</time></trkpt><trkpt lat="46.44974401080367" lon="9.784718381151237"><ele>1793.0</ele><time>2026-03-28T12:44:12.999Z</time></trkpt><trkpt lat="46.44986912341544" lon="9.78489997645549"><ele>1793.0</ele><time>2026-03-28T12:44:13.999Z</time></trkpt><trkpt lat="46.44999972149122" lon="9.785076446658133"><ele>1793.0</ele><time>2026-03-28T12:44:14.999Z</time></trkpt><trkpt lat="46.450132618256454" lon="9.785232871295785"><ele>1793.0</ele><time>2026-03-28T12:44:15.999Z</time></trkpt><trkpt lat="46.4502942931866" lon="9.785359219221814"><ele>1796.3333333333333</ele><time>2026-03-28T12:44:17Z</time></trkpt><trkpt lat="46.45046895725366" lon="9.78548628624058"><ele>1799.6666666666665</ele><time>2026-03-28T12:44:18Z</time></trkpt><trkpt lat="46.45064687958852" lon="9.785616926520042"><ele>1803.0</ele><time>2026-03-28T12:44:19Z</time></trkpt><trkpt lat="46.45082203805388" lon="9.785751517746206"><ele>1803.0</ele><time>2026-03-28T12:44:20Z</time></trkpt><trkpt lat="46.451007085998434" lon="9.785885968866593"><ele>1803.0</ele><time>2026-03-28T12:44:21Z</time></trkpt><trkpt lat="46.4511888022417" lon="9.786028914891066"><ele>1803.0</ele><time>2026-03-28T12:44:22Z</time></trkpt><trkpt lat="46.45136896326327" lon="9.78618228938897"><ele>1803.6666666666665</ele><time>2026-03-28T12:44:23Z</time></trkpt><trkpt lat="46.45153708900887" lon="9.786364391991551"><ele>1804.3333333333333</ele><time>2026-03-28T12:44:24Z</time></trkpt><trkpt lat="46.451705924604326" lon="9.786548245505779"><ele>1805.0</ele><time>2026-03-28T12:44:25Z</time></trkpt><trkpt lat="46.45188001884419" lon="9.78672021124111"><ele>1807.0</ele><time>2026-03-28T12:44:26Z</time></trkpt><trkpt lat="46.452049959426766" lon="9.786905989046355"><ele>1809.0</ele><time>2026-03-28T12:44:27Z</time></trkpt><trkpt lat="46.452219095482306" lon="9.78709324885386"><ele>1811.0</ele><time>2026-03-28T12:44:28Z</time></trkpt><trkpt lat="46.45239360229922" lon="9.787286484540477"><ele>1811.0</ele><time>2026-03-28T12:44:29Z</time></trkpt><trkpt lat="46.45255898935534" lon="9.787472964018214"><ele>1811.0</ele><time>2026-03-28T12:44:30Z</time></trkpt><trkpt lat="46.45272885329859" lon="9.787656314463954"><ele>1811.0</ele><time>2026-03-28T12:44:31Z</time></trkpt><trkpt lat="46.45289393535549" lon="9.7878360988125"><ele>1810.3333333333333</ele><time>2026-03-28T12:44:32Z</time></trkpt><trkpt lat="46.45306106757844" lon="9.788007522945287"><ele>1809.6666666666665</ele><time>2026-03-28T12:44:33Z</time></trkpt><trkpt lat="46.453238098869235" lon="9.788159722297404"><ele>1809.0</ele><time>2026-03-28T12:44:34Z</time></trkpt><trkpt lat="46.45341526714065" lon="9.78830376410133"><ele>1809.0</ele><time>2026-03-28T12:44:35Z</time></trkpt><trkpt lat="46.453591658143985" lon="9.788453088127492"><ele>1809.0</ele><time>2026-03-28T12:44:36Z</time></trkpt><trkpt lat="46.453762866433976" lon="9.788599926627393"><ele>1809.0</ele><time>2026-03-28T12:44:37Z</time></trkpt><trkpt lat="46.45393332429046" lon="9.788747923783173"><ele>1808.0</ele><time>2026-03-28T12:44:38Z</time></trkpt><trkpt lat="46.45410391931888" lon="9.788886172989336"><ele>1807.0</ele><time>2026-03-28T12:44:39Z</time></trkpt><trkpt lat="46.45426923531134" lon="9.78903436335012"><ele>1806.0</ele><time>2026-03-28T12:44:40Z</time></trkpt><trkpt lat="46.45442821453548" lon="9.789182187641437"><ele>1804.6666666666665</ele><time>2026-03-28T12:44:41Z</time></trkpt><trkpt lat="46.454575132085196" lon="9.78934540886135"><ele>1803.3333333333333</ele><time>2026-03-28T12:44:42Z</time></trkpt><trkpt lat="46.45471867680589" lon="9.789522768232096"><ele>1802.0</ele><time>2026-03-28T12:44:43Z</time></trkpt><trkpt lat="46.454865986559355" lon="9.789659648968373"><ele>1802.0</ele><time>2026-03-28T12:44:44Z</time></trkpt><trkpt lat="46.45502404199405" lon="9.789776544253897"><ele>1802.0</ele><time>2026-03-28T12:44:45Z</time></trkpt><trkpt lat="46.45517461015684" lon="9.789904682240053"><ele>1802.0</ele><time>2026-03-28T12:44:46Z</time></trkpt><trkpt lat="46.4553231803008" lon="9.790053183474287"><ele>1801.3333333333333</ele><time>2026-03-28T12:44:47Z</time></trkpt><trkpt lat="46.45546701188984" lon="9.790220682096747"><ele>1800.6666666666665</ele><time>2026-03-28T12:44:48Z</time></trkpt><trkpt lat="46.45561195809841" lon="9.790397528701476"><ele>1800.0</ele><time>2026-03-28T12:44:49Z</time></trkpt><trkpt lat="46.45574901848288" lon="9.790581332280707"><ele>1800.0</ele><time>2026-03-28T12:44:50Z</time></trkpt><trkpt lat="46.45587069338449" lon="9.790771270924186"><ele>1800.0</ele><time>2026-03-28T12:44:51Z</time></trkpt><trkpt lat="46.45598563729938" lon="9.790939403758204"><ele>1800.0</ele><time>2026-03-28T12:44:52Z</time></trkpt><trkpt lat="46.45608614884496" lon="9.791101725974329"><ele>1799.6</ele><time>2026-03-28T12:44:53Z</time></trkpt><trkpt lat="46.45617427920193" lon="9.791249541496784"><ele>1799.2</ele><time>2026-03-28T12:44:54Z</time></trkpt><trkpt lat="46.4562343545829" lon="9.791407232182424"><ele>1798.8000000000002</ele><time>2026-03-28T12:44:55Z</time></trkpt><trkpt lat="46.456290640299805" lon="9.791522641815815"><ele>1798.4</ele><time>2026-03-28T12:44:56Z</time></trkpt><trkpt lat="46.45629799662416" lon="9.791643449096483"><ele>1798.0</ele><time>2026-03-28T12:44:57Z</time></trkpt><trkpt lat="46.456289754993165" lon="9.791755377792754"><ele>1799.0</ele><time>2026-03-28T12:44:58Z</time></trkpt><trkpt lat="46.45630423498321" lon="9.791868866260954"><ele>1800.0000000000002</ele><time>2026-03-28T12:44:59Z</time></trkpt><trkpt lat="46.456362407572776" lon="9.79196869784082"><ele>1801.0000000000002</ele><time>2026-03-28T12:45:00Z</time></trkpt><trkpt lat="46.456427257476726" lon="9.792078562959377"><ele>1802.0</ele><time>2026-03-28T12:45:01Z</time></trkpt><trkpt lat="46.45645732254196" lon="9.792199519436407"><ele>1803.0</ele><time>2026-03-28T12:45:02Z</time></trkpt><trkpt lat="46.45647126353408" lon="9.792334781227762"><ele>1803.0</ele><time>2026-03-28T12:45:03Z</time></trkpt><trkpt lat="46.456478512239805" lon="9.792455902718226"><ele>1803.0000000000002</ele><time>2026-03-28T12:45:04Z</time></trkpt><trkpt lat="46.4564941383017" lon="9.79257424428435"><ele>1803.0000000000002</ele><time>2026-03-28T12:45:05Z</time></trkpt><trkpt lat="46.45651900352843" lon="9.792688236649887"><ele>1803.0</ele><time>2026-03-28T12:45:06Z</time></trkpt><trkpt lat="46.456549074025645" lon="9.792823724687365"><ele>1803.0</ele><time>2026-03-28T12:45:07Z</time></trkpt><trkpt lat="46.45657901921561" lon="9.792976433479307"><ele>1803.25</ele><time>2026-03-28T12:45:08Z</time></trkpt><trkpt lat="46.45661144576214" lon="9.793147496252907"><ele>1803.5</ele><time>2026-03-28T12:45:09Z</time></trkpt><trkpt lat="46.45664013126175" lon="9.793332970696744"><ele>1803.75</ele><time>2026-03-28T12:45:10Z</time></trkpt><trkpt lat="46.456678634050846" lon="9.793530526261515"><ele>1804.0</ele><time>2026-03-28T12:45:11Z</time></trkpt><trkpt lat="46.456716278211495" lon="9.793739549713758"><ele>1803.3333333333335</ele><time>2026-03-28T12:45:12Z</time></trkpt><trkpt lat="46.456759671610506" lon="9.793964058325775"><ele>1802.6666666666665</ele><time>2026-03-28T12:45:13Z</time></trkpt><trkpt lat="46.45680902188018" lon="9.794198963670079"><ele>1802.0</ele><time>2026-03-28T12:45:14Z</time></trkpt><trkpt lat="46.456851718581675" lon="9.794450224901572"><ele>1801.3333333333333</ele><time>2026-03-28T12:45:15Z</time></trkpt><trkpt lat="46.45689728360729" lon="9.794706963730231"><ele>1800.6666666666665</ele><time>2026-03-28T12:45:16Z</time></trkpt><trkpt lat="46.45695689059272" lon="9.794969194699794"><ele>1800.0</ele><time>2026-03-28T12:45:17Z</time></trkpt><trkpt lat="46.45702623569414" lon="9.795225431392826"><ele>1800.0</ele><time>2026-03-28T12:45:18Z</time></trkpt><trkpt lat="46.457106426320664" lon="9.795483432426096"><ele>1800.0</ele><time>2026-03-28T12:45:19Z</time></trkpt><trkpt lat="46.457197371561676" lon="9.795740102637422"><ele>1800.0</ele><time>2026-03-28T12:45:20Z</time></trkpt><trkpt lat="46.45729934691184" lon="9.795983624233894"><ele>1801.6666666666665</ele><time>2026-03-28T12:45:21Z</time></trkpt><trkpt lat="46.45741711051763" lon="9.796228351632399"><ele>1803.3333333333333</ele><time>2026-03-28T12:45:22Z</time></trkpt><trkpt lat="46.457557217379794" lon="9.796467400977072"><ele>1805.0</ele><time>2026-03-28T12:45:23Z</time></trkpt><trkpt lat="46.4576993352409" lon="9.796698415330928"><ele>1804.6666666666665</ele><time>2026-03-28T12:45:24Z</time></trkpt><trkpt lat="46.457849612300734" lon="9.79691608417265"><ele>1804.3333333333335</ele><time>2026-03-28T12:45:25Z</time></trkpt><trkpt lat="46.45800905227626" lon="9.797118595818427"><ele>1804.0</ele><time>2026-03-28T12:45:26Z</time></trkpt><trkpt lat="46.45818504829474" lon="9.797291166671656"><ele>1804.0</ele><time>2026-03-28T12:45:27Z</time></trkpt><trkpt lat="46.45836560474742" lon="9.797451819913904"><ele>1804.0</ele><time>2026-03-28T12:45:27.999Z</time></trkpt><trkpt lat="46.458549025840036" lon="9.797600402813838"><ele>1804.0</ele><time>2026-03-28T12:45:28.999Z</time></trkpt><trkpt lat="46.45873505333886" lon="9.797729214874833"><ele>1803.3333333333335</ele><time>2026-03-28T12:45:29.999Z</time></trkpt><trkpt lat="46.45892050679327" lon="9.797836462728323"><ele>1802.6666666666665</ele><time>2026-03-28T12:45:30.999Z</time></trkpt><trkpt lat="46.45910575229067" lon="9.797917727471225"><ele>1802.0</ele><time>2026-03-28T12:45:31.999Z</time></trkpt><trkpt lat="46.459279340633834" lon="9.79797048163962"><ele>1802.0</ele><time>2026-03-28T12:45:32.999Z</time></trkpt><trkpt lat="46.459438430217425" lon="9.79802994614616"><ele>1802.0</ele><time>2026-03-28T12:45:33.999Z</time></trkpt><trkpt lat="46.45959298145181" lon="9.798052630576226"><ele>1802.0</ele><time>2026-03-28T12:45:34.999Z</time></trkpt><trkpt lat="46.45971271280222" lon="9.798064724945569"><ele>1802.0</ele><time>2026-03-28T12:45:35.999Z</time></trkpt><trkpt lat="46.4598070409723" lon="9.798056368798415"><ele>1801.4999999999998</ele><time>2026-03-28T12:45:36.999Z</time></trkpt><trkpt lat="46.45988542370516" lon="9.798084662392"><ele>1801.0</ele><time>2026-03-28T12:45:37.999Z</time></trkpt><trkpt lat="46.45994475337548" lon="9.798122800439746"><ele>1800.5</ele><time>2026-03-28T12:45:38.999Z</time></trkpt><trkpt lat="46.46004103200443" lon="9.798197543432549"><ele>1800.0</ele><time>2026-03-28T12:45:40.999Z</time></trkpt><trkpt lat="46.46014618326531" lon="9.798220085755403"><ele>1799.4999999999998</ele><time>2026-03-28T12:45:42.999Z</time></trkpt><trkpt lat="46.460206749688545" lon="9.798167838893413"><ele>1799.0</ele><time>2026-03-28T12:45:43.999Z</time></trkpt><trkpt lat="46.46029066676866" lon="9.798104992558963"><ele>1799.0</ele><time>2026-03-28T12:45:45.999Z</time></trkpt><trkpt lat="46.46039991740266" lon="9.798048294442808"><ele>1799.0</ele><time>2026-03-28T12:45:47.999Z</time></trkpt><trkpt lat="46.46048787323287" lon="9.798025158474323"><ele>1799.0</ele><time>2026-03-28T12:45:48.999Z</time></trkpt><trkpt lat="46.46059263689683" lon="9.79802360688051"><ele>1799.0</ele><time>2026-03-28T12:45:49.999Z</time></trkpt><trkpt lat="46.46070220527834" lon="9.797996027596191"><ele>1799.0</ele><time>2026-03-28T12:45:50.999Z</time></trkpt><trkpt lat="46.46083403154137" lon="9.797959244266751"><ele>1798.6666666666665</ele><time>2026-03-28T12:45:51.999Z</time></trkpt><trkpt lat="46.460988298662905" lon="9.797913144365411"><ele>1798.3333333333335</ele><time>2026-03-28T12:45:52.999Z</time></trkpt><trkpt lat="46.46117281414804" lon="9.797853447814724"><ele>1798.0</ele><time>2026-03-28T12:45:53.999Z</time></trkpt><trkpt lat="46.461365006055395" lon="9.797763440539226"><ele>1797.3333333333335</ele><time>2026-03-28T12:45:54.999Z</time></trkpt><trkpt lat="46.46157570743335" lon="9.797716130535232"><ele>1796.6666666666665</ele><time>2026-03-28T12:45:55.999Z</time></trkpt><trkpt lat="46.4617834589172" lon="9.797647573505893"><ele>1796.0</ele><time>2026-03-28T12:45:56.999Z</time></trkpt><trkpt lat="46.46197856874342" lon="9.797586538969467"><ele>1797.6666666666665</ele><time>2026-03-28T12:45:57.999Z</time></trkpt><trkpt lat="46.462173539955124" lon="9.79751637538421"><ele>1799.3333333333335</ele><time>2026-03-28T12:45:58.999Z</time></trkpt><trkpt lat="46.462377008910636" lon="9.797477447829921"><ele>1801.0</ele><time>2026-03-28T12:45:59.999Z</time></trkpt><trkpt lat="46.462575226912136" lon="9.797438785181313"><ele>1801.0</ele><time>2026-03-28T12:46:00.999Z</time></trkpt><trkpt lat="46.462779856568446" lon="9.797406793511309"><ele>1801.0</ele><time>2026-03-28T12:46:01.999Z</time></trkpt><trkpt lat="46.462988161358794" lon="9.797422575972204"><ele>1801.0</ele><time>2026-03-28T12:46:02.999Z</time></trkpt><trkpt lat="46.463192797212244" lon="9.797429948090707"><ele>1801.0</ele><time>2026-03-28T12:46:03.999Z</time></trkpt><trkpt lat="46.4633887467572" lon="9.79745482238119"><ele>1801.0</ele><time>2026-03-28T12:46:04.999Z</time></trkpt><trkpt lat="46.463583654035176" lon="9.797501915267956"><ele>1801.0</ele><time>2026-03-28T12:46:05.999Z</time></trkpt><trkpt lat="46.46378418638974" lon="9.797547151404164"><ele>1797.6666666666667</ele><time>2026-03-28T12:46:06.999Z</time></trkpt><trkpt lat="46.46397510371774" lon="9.797618745676973"><ele>1794.3333333333335</ele><time>2026-03-28T12:46:07.999Z</time></trkpt><trkpt lat="46.46415813710408" lon="9.797691158364884"><ele>1791.0</ele><time>2026-03-28T12:46:08.999Z</time></trkpt><trkpt lat="46.464339330704334" lon="9.797772257802817"><ele>1791.0</ele><time>2026-03-28T12:46:09.999Z</time></trkpt><trkpt lat="46.464516540237135" lon="9.797856330148067"><ele>1791.0</ele><time>2026-03-28T12:46:10.999Z</time></trkpt><trkpt lat="46.46469450951288" lon="9.797942465925308"><ele>1791.0</ele><time>2026-03-28T12:46:11.999Z</time></trkpt><trkpt lat="46.46487098922833" lon="9.798030352170638"><ele>1794.0</ele><time>2026-03-28T12:46:12.999Z</time></trkpt><trkpt lat="46.46504334176808" lon="9.798117281874154"><ele>1797.0</ele><time>2026-03-28T12:46:13.999Z</time></trkpt><trkpt lat="46.465216526454896" lon="9.798203476236269"><ele>1800.0</ele><time>2026-03-28T12:46:14.999Z</time></trkpt><trkpt lat="46.46538399714935" lon="9.798290555568366"><ele>1798.6666666666665</ele><time>2026-03-28T12:46:15.999Z</time></trkpt><trkpt lat="46.46555334931605" lon="9.798384925690623"><ele>1797.3333333333333</ele><time>2026-03-28T12:46:16.999Z</time></trkpt><trkpt lat="46.46571826768582" lon="9.798501956122488"><ele>1796.0</ele><time>2026-03-28T12:46:17.999Z</time></trkpt><trkpt lat="46.4658755445926" lon="9.798638367550597"><ele>1796.0</ele><time>2026-03-28T12:46:18.999Z</time></trkpt><trkpt lat="46.466026339350414" lon="9.798798777391786"><ele>1796.0</ele><time>2026-03-28T12:46:19.999Z</time></trkpt><trkpt lat="46.46615088635637" lon="9.798988207562164"><ele>1796.0</ele><time>2026-03-28T12:46:20.999Z</time></trkpt><trkpt lat="46.46627135935938" lon="9.799180941991635"><ele>1797.3333333333333</ele><time>2026-03-28T12:46:21.999Z</time></trkpt><trkpt lat="46.46638063489834" lon="9.799392497091633"><ele>1798.6666666666665</ele><time>2026-03-28T12:46:23Z</time></trkpt><trkpt lat="46.466480049197315" lon="9.799617439593261"><ele>1800.0</ele><time>2026-03-28T12:46:24Z</time></trkpt><trkpt lat="46.46656072391372" lon="9.799853816372154"><ele>1800.0</ele><time>2026-03-28T12:46:25Z</time></trkpt><trkpt lat="46.466659767458005" lon="9.80009717338551"><ele>1800.0</ele><time>2026-03-28T12:46:26Z</time></trkpt><trkpt lat="46.46673568751961" lon="9.800342514615526"><ele>1800.0</ele><time>2026-03-28T12:46:27Z</time></trkpt><trkpt lat="46.46681527593923" lon="9.800578685351487"><ele>1799.0</ele><time>2026-03-28T12:46:28Z</time></trkpt><trkpt lat="46.466895388416226" lon="9.800813092000771"><ele>1798.0</ele><time>2026-03-28T12:46:29Z</time></trkpt><trkpt lat="46.46698220631048" lon="9.801034393436527"><ele>1797.0</ele><time>2026-03-28T12:46:30Z</time></trkpt><trkpt lat="46.46708616650594" lon="9.801245100916171"><ele>1798.6666666666665</ele><time>2026-03-28T12:46:31Z</time></trkpt><trkpt lat="46.46720601129207" lon="9.801441311416635"><ele>1800.3333333333333</ele><time>2026-03-28T12:46:32Z</time></trkpt><trkpt lat="46.46734073277683" lon="9.801603942164112"><ele>1802.0</ele><time>2026-03-28T12:46:33Z</time></trkpt><trkpt lat="46.46749660035943" lon="9.801728110404293"><ele>1802.0</ele><time>2026-03-28T12:46:34Z</time></trkpt><trkpt lat="46.46765435277228" lon="9.801811158508652"><ele>1802.0</ele><time>2026-03-28T12:46:35Z</time></trkpt><trkpt lat="46.467802517353924" lon="9.801871847386806"><ele>1802.0</ele><time>2026-03-28T12:46:36Z</time></trkpt><trkpt lat="46.46793832517222" lon="9.801917199377513"><ele>1800.75</ele><time>2026-03-28T12:46:37Z</time></trkpt><trkpt lat="46.46806680226771" lon="9.801959104323176"><ele>1799.5</ele><time>2026-03-28T12:46:38Z</time></trkpt><trkpt lat="46.4681722115998" lon="9.802024748449318"><ele>1798.25</ele><time>2026-03-28T12:46:39Z</time></trkpt><trkpt lat="46.468277445058455" lon="9.802093847248527"><ele>1797.0</ele><time>2026-03-28T12:46:40Z</time></trkpt><trkpt lat="46.468378926810146" lon="9.802111740532336"><ele>1797.0</ele><time>2026-03-28T12:46:41Z</time></trkpt><trkpt lat="46.46849037242349" lon="9.802108045507234"><ele>1797.0</ele><time>2026-03-28T12:46:42Z</time></trkpt><trkpt lat="46.468628799500536" lon="9.80212498157205"><ele>1797.0</ele><time>2026-03-28T12:46:43Z</time></trkpt><trkpt lat="46.46879707860427" lon="9.802171179896831"><ele>1797.0</ele><time>2026-03-28T12:46:44Z</time></trkpt><trkpt lat="46.46899619992769" lon="9.80222877740174"><ele>1799.0</ele><time>2026-03-28T12:46:45Z</time></trkpt><trkpt lat="46.46922904503584" lon="9.802293597185534"><ele>1801.0</ele><time>2026-03-28T12:46:46Z</time></trkpt><trkpt lat="46.46946885258661" lon="9.80235813769015"><ele>1804.0</ele><time>2026-03-28T12:46:47Z</time></trkpt><trkpt lat="46.469688593327554" lon="9.802442848376767"><ele>1807.0</ele><time>2026-03-28T12:46:48Z</time></trkpt><trkpt lat="46.46989273831823" lon="9.802527076934313"><ele>1810.0</ele><time>2026-03-28T12:46:49Z</time></trkpt><trkpt lat="46.47009090618413" lon="9.802620903953118"><ele>1806.6666666666667</ele><time>2026-03-28T12:46:50Z</time></trkpt><trkpt lat="46.47029941145107" lon="9.802721489891637"><ele>1803.3333333333335</ele><time>2026-03-28T12:46:51Z</time></trkpt><trkpt lat="46.47049476423248" lon="9.8028654389579"><ele>1800.0</ele><time>2026-03-28T12:46:52Z</time></trkpt><trkpt lat="46.470681673163774" lon="9.80300484383823"><ele>1800.0</ele><time>2026-03-28T12:46:53Z</time></trkpt><trkpt lat="46.47084584797466" lon="9.803171542960884"><ele>1800.0</ele><time>2026-03-28T12:46:54Z</time></trkpt><trkpt lat="46.47100648686536" lon="9.803341367100046"><ele>1800.0</ele><time>2026-03-28T12:46:55Z</time></trkpt><trkpt lat="46.471144409626525" lon="9.803559306271445"><ele>1797.3333333333335</ele><time>2026-03-28T12:46:56Z</time></trkpt><trkpt lat="46.4712633413926" lon="9.803808242181951"><ele>1794.6666666666667</ele><time>2026-03-28T12:46:57Z</time></trkpt><trkpt lat="46.47136861343042" lon="9.804060700235228"><ele>1792.0</ele><time>2026-03-28T12:46:58Z</time></trkpt><trkpt lat="46.47147737114611" lon="9.80430555264831"><ele>1793.3333333333335</ele><time>2026-03-28T12:46:59Z</time></trkpt><trkpt lat="46.471605546099866" lon="9.804527991280455"><ele>1794.6666666666665</ele><time>2026-03-28T12:47:00Z</time></trkpt><trkpt lat="46.471759946170515" lon="9.804729458125218"><ele>1796.0</ele><time>2026-03-28T12:47:01Z</time></trkpt><trkpt lat="46.47193031665197" lon="9.804915514268524"><ele>1796.0</ele><time>2026-03-28T12:47:02Z</time></trkpt><trkpt lat="46.47209763281366" lon="9.805073451824173"><ele>1796.0</ele><time>2026-03-28T12:47:03Z</time></trkpt><trkpt lat="46.47225156799987" lon="9.805224862420092"><ele>1796.0</ele><time>2026-03-28T12:47:04Z</time></trkpt><trkpt lat="46.47241427122186" lon="9.805379041404905"><ele>1796.0</ele><time>2026-03-28T12:47:05Z</time></trkpt><trkpt lat="46.472566306371824" lon="9.805536067838341"><ele>1796.0</ele><time>2026-03-28T12:47:06Z</time></trkpt><trkpt lat="46.47272034523647" lon="9.80569771384637"><ele>1796.0</ele><time>2026-03-28T12:47:07Z</time></trkpt><trkpt lat="46.47287032791566" lon="9.805872121059087"><ele>1796.6666666666665</ele><time>2026-03-28T12:47:08Z</time></trkpt><trkpt lat="46.47301898310096" lon="9.806062252192948"><ele>1797.3333333333335</ele><time>2026-03-28T12:47:09Z</time></trkpt><trkpt lat="46.47315805242847" lon="9.806258407235722"><ele>1798.0</ele><time>2026-03-28T12:47:10Z</time></trkpt><trkpt lat="46.4732860557464" lon="9.80646160425168"><ele>1798.0</ele><time>2026-03-28T12:47:11Z</time></trkpt><trkpt lat="46.473404822301845" lon="9.806672474014883"><ele>1798.0</ele><time>2026-03-28T12:47:12Z</time></trkpt><trkpt lat="46.47351092549393" lon="9.80690713710972"><ele>1798.0</ele><time>2026-03-28T12:47:13Z</time></trkpt><trkpt lat="46.473599154349905" lon="9.807174660698413"><ele>1797.3333333333335</ele><time>2026-03-28T12:47:14Z</time></trkpt><trkpt lat="46.47367822886152" lon="9.807454527586467"><ele>1796.6666666666665</ele><time>2026-03-28T12:47:15Z</time></trkpt><trkpt lat="46.47375079440717" lon="9.807745199926213"><ele>1796.0</ele><time>2026-03-28T12:47:16Z</time></trkpt><trkpt lat="46.47381905280847" lon="9.808033865757984"><ele>1796.0</ele><time>2026-03-28T12:47:17Z</time></trkpt><trkpt lat="46.47387847947639" lon="9.808323295685417"><ele>1796.0</ele><time>2026-03-28T12:47:18Z</time></trkpt><trkpt lat="46.473938187053676" lon="9.80861342564668"><ele>1796.0</ele><time>2026-03-28T12:47:19Z</time></trkpt><trkpt lat="46.47399593300797" lon="9.808915670047327"><ele>1794.6666666666665</ele><time>2026-03-28T12:47:20Z</time></trkpt><trkpt lat="46.474050965197485" lon="9.809226753763065"><ele>1793.3333333333335</ele><time>2026-03-28T12:47:21Z</time></trkpt><trkpt lat="46.47411019464262" lon="9.809535316988331"><ele>1792.0</ele><time>2026-03-28T12:47:21.999Z</time></trkpt><trkpt lat="46.47417790208109" lon="9.809848519119981"><ele>1792.5</ele><time>2026-03-28T12:47:22.999Z</time></trkpt><trkpt lat="46.474256428677066" lon="9.81016103079199"><ele>1793.0</ele><time>2026-03-28T12:47:23.999Z</time></trkpt><trkpt lat="46.474338917250556" lon="9.8104643232394"><ele>1793.0</ele><time>2026-03-28T12:47:24.999Z</time></trkpt><trkpt lat="46.47442202190321" lon="9.810741967370566"><ele>1793.0</ele><time>2026-03-28T12:47:25.999Z</time></trkpt><trkpt lat="46.47451368049855" lon="9.81102910053649"><ele>1793.0</ele><time>2026-03-28T12:47:26.999Z</time></trkpt><trkpt lat="46.474614920075176" lon="9.811322558473535"><ele>1793.3333333333333</ele><time>2026-03-28T12:47:27.999Z</time></trkpt><trkpt lat="46.47471947552327" lon="9.811610424294305"><ele>1793.6666666666665</ele><time>2026-03-28T12:47:28.999Z</time></trkpt><trkpt lat="46.47482817300746" lon="9.811891646256905"><ele>1794.0</ele><time>2026-03-28T12:47:29.999Z</time></trkpt><trkpt lat="46.47493996783498" lon="9.812167088250016"><ele>1794.0</ele><time>2026-03-28T12:47:30.999Z</time></trkpt><trkpt lat="46.475052516048706" lon="9.812447172274933"><ele>1794.0</ele><time>2026-03-28T12:47:31.999Z</time></trkpt><trkpt lat="46.47516332277845" lon="9.812732922576021"><ele>1794.0</ele><time>2026-03-28T12:47:32.999Z</time></trkpt><trkpt lat="46.475275154043445" lon="9.813023395675051"><ele>1792.5</ele><time>2026-03-28T12:47:33.999Z</time></trkpt><trkpt lat="46.47538310852836" lon="9.813320167996133"><ele>1791.0</ele><time>2026-03-28T12:47:34.999Z</time></trkpt><trkpt lat="46.475484060030226" lon="9.81362540938085"><ele>1794.0</ele><time>2026-03-28T12:47:35.999Z</time></trkpt><trkpt lat="46.475579681062975" lon="9.813933381950363"><ele>1797.0</ele><time>2026-03-28T12:47:36.999Z</time></trkpt><trkpt lat="46.47566574141285" lon="9.81424518463502"><ele>1798.5</ele><time>2026-03-28T12:47:37.999Z</time></trkpt><trkpt lat="46.475740751393204" lon="9.81456084992971"><ele>1800.0</ele><time>2026-03-28T12:47:38.999Z</time></trkpt><trkpt lat="46.47581048927957" lon="9.814875562449046"><ele>1798.5</ele><time>2026-03-28T12:47:39.999Z</time></trkpt><trkpt lat="46.47587602873102" lon="9.815189893350622"><ele>1797.0</ele><time>2026-03-28T12:47:40.999Z</time></trkpt><trkpt lat="46.475934344029284" lon="9.815509629498337"><ele>1797.0</ele><time>2026-03-28T12:47:41.999Z</time></trkpt><trkpt lat="46.47598484696099" lon="9.815831156736099"><ele>1797.0</ele><time>2026-03-28T12:47:42.999Z</time></trkpt><trkpt lat="46.47603282254726" lon="9.816157289043229"><ele>1796.6666666666665</ele><time>2026-03-28T12:47:43.999Z</time></trkpt><trkpt lat="46.476081901512444" lon="9.81647760858722"><ele>1796.3333333333333</ele><time>2026-03-28T12:47:44.999Z</time></trkpt><trkpt lat="46.47613123167556" lon="9.816792529688191"><ele>1796.0</ele><time>2026-03-28T12:47:45.999Z</time></trkpt><trkpt lat="46.47618059036888" lon="9.817111742549722"><ele>1796.0</ele><time>2026-03-28T12:47:46.999Z</time></trkpt><trkpt lat="46.47623068378939" lon="9.81743939839905"><ele>1796.0</ele><time>2026-03-28T12:47:47.999Z</time></trkpt><trkpt lat="46.47628215309532" lon="9.8177611694893"><ele>1803.0</ele><time>2026-03-28T12:47:48.999Z</time></trkpt><trkpt lat="46.47633630409013" lon="9.818088863119316"><ele>1810.0</ele><time>2026-03-28T12:47:49.999Z</time></trkpt><trkpt lat="46.4763918054664" lon="9.818422596432553"><ele>1810.0</ele><time>2026-03-28T12:47:50.999Z</time></trkpt><trkpt lat="46.476452121498255" lon="9.818758867010516"><ele>1810.0</ele><time>2026-03-28T12:47:51.999Z</time></trkpt><trkpt lat="46.47651884502088" lon="9.819095721445857"><ele>1807.0</ele><time>2026-03-28T12:47:52.999Z</time></trkpt><trkpt lat="46.47659094136467" lon="9.819432690124396"><ele>1804.0</ele><time>2026-03-28T12:47:53.999Z</time></trkpt><trkpt lat="46.47668025007592" lon="9.819771556996324"><ele>1804.0</ele><time>2026-03-28T12:47:54.999Z</time></trkpt><trkpt lat="46.476793158921865" lon="9.820110538059652"><ele>1804.0</ele><time>2026-03-28T12:47:55.999Z</time></trkpt><trkpt lat="46.4769173421089" lon="9.820442386927901"><ele>1802.0</ele><time>2026-03-28T12:47:56.999Z</time></trkpt><trkpt lat="46.47705810735552" lon="9.82076635433021"><ele>1800.0</ele><time>2026-03-28T12:47:57.999Z</time></trkpt><trkpt lat="46.47720023092477" lon="9.821078954755793"><ele>1800.0</ele><time>2026-03-28T12:47:58.999Z</time></trkpt><trkpt lat="46.47734568283187" lon="9.82138487488275"><ele>1800.0</ele><time>2026-03-28T12:47:59.999Z</time></trkpt><trkpt lat="46.47749462602405" lon="9.821677509748486"><ele>1799.5</ele><time>2026-03-28T12:48:00.999Z</time></trkpt><trkpt lat="46.47764948869724" lon="9.821965748486951"><ele>1799.0</ele><time>2026-03-28T12:48:01.999Z</time></trkpt><trkpt lat="46.477810313490785" lon="9.822240842515097"><ele>1803.0</ele><time>2026-03-28T12:48:02.999Z</time></trkpt><trkpt lat="46.47796034061329" lon="9.822534725009264"><ele>1807.0</ele><time>2026-03-28T12:48:03.999Z</time></trkpt><trkpt lat="46.47811054662805" lon="9.822805064509009"><ele>1798.0</ele><time>2026-03-28T12:48:04.999Z</time></trkpt><trkpt lat="46.47830698210133" lon="9.82299936525703"><ele>1789.0</ele><time>2026-03-28T12:48:05.999Z</time></trkpt><trkpt lat="46.478461321978706" lon="9.823226142160356"><ele>1789.0</ele><time>2026-03-28T12:48:06.999Z</time></trkpt><trkpt lat="46.478613121749135" lon="9.823443667056585"><ele>1789.0</ele><time>2026-03-28T12:48:07.999Z</time></trkpt><trkpt lat="46.478763395793266" lon="9.823663364799376"><ele>1789.0</ele><time>2026-03-28T12:48:08.999Z</time></trkpt><trkpt lat="46.478919338304806" lon="9.823874163120784"><ele>1787.6666666666667</ele><time>2026-03-28T12:48:09.999Z</time></trkpt><trkpt lat="46.47906560909648" lon="9.824076680381822"><ele>1786.3333333333335</ele><time>2026-03-28T12:48:10.999Z</time></trkpt><trkpt lat="46.47921153437423" lon="9.824270144540492"><ele>1785.0</ele><time>2026-03-28T12:48:11.999Z</time></trkpt><trkpt lat="46.4793590994171" lon="9.824463024261952"><ele>1784.3333333333335</ele><time>2026-03-28T12:48:12.999Z</time></trkpt><trkpt lat="46.47949946740231" lon="9.82465462317152"><ele>1783.6666666666667</ele><time>2026-03-28T12:48:13.999Z</time></trkpt><trkpt lat="46.47963591195068" lon="9.82485061266991"><ele>1783.0</ele><time>2026-03-28T12:48:14.999Z</time></trkpt><trkpt lat="46.479773849221075" lon="9.825058389134004"><ele>1786.6666666666667</ele><time>2026-03-28T12:48:15.999Z</time></trkpt><trkpt lat="46.479893865241756" lon="9.825296183564545"><ele>1790.3333333333335</ele><time>2026-03-28T12:48:16.999Z</time></trkpt><trkpt lat="46.48000170289924" lon="9.82554529315387"><ele>1794.0</ele><time>2026-03-28T12:48:17.999Z</time></trkpt><trkpt lat="46.48008767433682" lon="9.825816426034272"><ele>1791.6666666666665</ele><time>2026-03-28T12:48:18.999Z</time></trkpt><trkpt lat="46.480153124693445" lon="9.82608475131267"><ele>1789.3333333333333</ele><time>2026-03-28T12:48:19.999Z</time></trkpt><trkpt lat="46.48019522037457" lon="9.826361629191542"><ele>1787.0</ele><time>2026-03-28T12:48:20.999Z</time></trkpt><trkpt lat="46.480231374932444" lon="9.826638801169821"><ele>1785.3333333333333</ele><time>2026-03-28T12:48:21.999Z</time></trkpt><trkpt lat="46.48027507510812" lon="9.826909005498374"><ele>1783.6666666666665</ele><time>2026-03-28T12:48:22.999Z</time></trkpt><trkpt lat="46.48032115795691" lon="9.827172744041572"><ele>1782.0</ele><time>2026-03-28T12:48:23.999Z</time></trkpt><trkpt lat="46.480373103143414" lon="9.827431023442623"><ele>1781.6666666666665</ele><time>2026-03-28T12:48:24.999Z</time></trkpt><trkpt lat="46.48041835313516" lon="9.827699384204628"><ele>1781.3333333333333</ele><time>2026-03-28T12:48:25.999Z</time></trkpt><trkpt lat="46.480462687200834" lon="9.827967557251345"><ele>1781.0</ele><time>2026-03-28T12:48:26.999Z</time></trkpt><trkpt lat="46.48050414882925" lon="9.828229150533705"><ele>1781.3333333333333</ele><time>2026-03-28T12:48:27.999Z</time></trkpt><trkpt lat="46.480544677434835" lon="9.828487228148518"><ele>1781.6666666666665</ele><time>2026-03-28T12:48:29Z</time></trkpt><trkpt lat="46.48059042679543" lon="9.828728471781202"><ele>1782.0</ele><time>2026-03-28T12:48:30Z</time></trkpt><trkpt lat="46.480645452962456" lon="9.828965299309129"><ele>1782.0</ele><time>2026-03-28T12:48:31Z</time></trkpt><trkpt lat="46.48072778685247" lon="9.829202904990339"><ele>1782.0</ele><time>2026-03-28T12:48:32Z</time></trkpt><trkpt lat="46.480830710779045" lon="9.829419948061568"><ele>1782.0</ele><time>2026-03-28T12:48:33Z</time></trkpt><trkpt lat="46.48094003002693" lon="9.829629375978021"><ele>1781.3333333333335</ele><time>2026-03-28T12:48:34Z</time></trkpt><trkpt lat="46.481050407382675" lon="9.829838243879399"><ele>1780.6666666666667</ele><time>2026-03-28T12:48:35Z</time></trkpt><trkpt lat="46.48115935331408" lon="9.830051170505188"><ele>1780.0</ele><time>2026-03-28T12:48:36Z</time></trkpt><trkpt lat="46.481262004386174" lon="9.83025565530444"><ele>1779.6666666666667</ele><time>2026-03-28T12:48:37Z</time></trkpt><trkpt lat="46.4813588688885" lon="9.830447978346498"><ele>1779.3333333333335</ele><time>2026-03-28T12:48:38Z</time></trkpt><trkpt lat="46.48144962522008" lon="9.830638010183355"><ele>1779.0</ele><time>2026-03-28T12:48:39Z</time></trkpt><trkpt lat="46.48153319023672" lon="9.830811153073054"><ele>1779.0</ele><time>2026-03-28T12:48:40Z</time></trkpt><trkpt lat="46.481620882117724" lon="9.830966126085315"><ele>1779.0</ele><time>2026-03-28T12:48:41Z</time></trkpt><trkpt lat="46.481684211130975" lon="9.831076466018326"><ele>1779.0</ele><time>2026-03-28T12:48:42Z</time></trkpt><trkpt lat="46.481734987403414" lon="9.831146832640366"><ele>1779.0</ele><time>2026-03-28T12:48:43Z</time></trkpt><trkpt lat="46.4817882243599" lon="9.831278644307488"><ele>1779.0</ele><time>2026-03-28T12:48:45Z</time></trkpt><trkpt lat="46.48182587227972" lon="9.831428672664899"><ele>1779.0</ele><time>2026-03-28T12:48:47Z</time></trkpt><trkpt lat="46.481875035962105" lon="9.831506015276066"><ele>1779.0</ele><time>2026-03-28T12:48:48Z</time></trkpt><trkpt lat="46.481949895053205" lon="9.831547105762393"><ele>1779.0</ele><time>2026-03-28T12:48:49Z</time></trkpt><trkpt lat="46.482034179589945" lon="9.831582627788732"><ele>1779.0</ele><time>2026-03-28T12:48:50Z</time></trkpt><trkpt lat="46.482125978110915" lon="9.831625200442133"><ele>1779.0</ele><time>2026-03-28T12:48:51Z</time></trkpt><trkpt lat="46.48221484785366" lon="9.831706600345223"><ele>1779.0</ele><time>2026-03-28T12:48:52Z</time></trkpt><trkpt lat="46.48230197796213" lon="9.831804071515283"><ele>1778.25</ele><time>2026-03-28T12:48:53Z</time></trkpt><trkpt lat="46.482392097750626" lon="9.831915974183005"><ele>1777.5</ele><time>2026-03-28T12:48:54Z</time></trkpt><trkpt lat="46.48249872093515" lon="9.832042007958904"><ele>1776.75</ele><time>2026-03-28T12:48:55Z</time></trkpt><trkpt lat="46.482615445613085" lon="9.832167829074963"><ele>1776.0</ele><time>2026-03-28T12:48:56Z</time></trkpt><trkpt lat="46.48273609383604" lon="9.832304189865768"><ele>1776.0</ele><time>2026-03-28T12:48:57Z</time></trkpt><trkpt lat="46.48284742951757" lon="9.832444578396911"><ele>1776.0</ele><time>2026-03-28T12:48:58Z</time></trkpt><trkpt lat="46.48296472828482" lon="9.83258011674228"><ele>1776.0</ele><time>2026-03-28T12:48:59Z</time></trkpt><trkpt lat="46.48308870942628" lon="9.832718342895602"><ele>1776.0</ele><time>2026-03-28T12:49:00Z</time></trkpt><trkpt lat="46.483206350828375" lon="9.83284425925038"><ele>1776.0</ele><time>2026-03-28T12:49:01Z</time></trkpt><trkpt lat="46.48330623421246" lon="9.832964065859924"><ele>1776.0</ele><time>2026-03-28T12:49:02Z</time></trkpt><trkpt lat="46.483396835553286" lon="9.833083399783844"><ele>1776.0</ele><time>2026-03-28T12:49:03Z</time></trkpt><trkpt lat="46.483476763516435" lon="9.833171029134052"><ele>1776.0</ele><time>2026-03-28T12:49:04Z</time></trkpt><trkpt lat="46.48354239865963" lon="9.833268258964251"><ele>1776.0</ele><time>2026-03-28T12:49:05Z</time></trkpt><trkpt lat="46.48359414644404" lon="9.833352971640412"><ele>1776.0</ele><time>2026-03-28T12:49:07Z</time></trkpt><trkpt lat="46.4836364577977" lon="9.833423767234684"><ele>1776.0</ele><time>2026-03-28T12:49:11Z</time></trkpt><trkpt lat="46.483662309638554" lon="9.833517443392235"><ele>1776.0</ele><time>2026-03-28T12:49:13Z</time></trkpt><trkpt lat="46.48379075717487" lon="9.833612944372895"><ele>1775.75</ele><time>2026-03-28T12:49:15Z</time></trkpt><trkpt lat="46.48389153886192" lon="9.833674307207291"><ele>1775.5</ele><time>2026-03-28T12:49:16Z</time></trkpt><trkpt lat="46.48400157665644" lon="9.833776462805721"><ele>1775.25</ele><time>2026-03-28T12:49:17Z</time></trkpt><trkpt lat="46.48411884237358" lon="9.833902485342028"><ele>1775.0</ele><time>2026-03-28T12:49:18Z</time></trkpt><trkpt lat="46.484238648082325" lon="9.834036577084644"><ele>1775.0</ele><time>2026-03-28T12:49:19Z</time></trkpt><trkpt lat="46.48436446544192" lon="9.834172391324808"><ele>1775.0</ele><time>2026-03-28T12:49:20Z</time></trkpt><trkpt lat="46.48448738611761" lon="9.834282986764956"><ele>1775.0</ele><time>2026-03-28T12:49:21Z</time></trkpt><trkpt lat="46.484606646020275" lon="9.834384798120627"><ele>1775.0</ele><time>2026-03-28T12:49:22Z</time></trkpt><trkpt lat="46.48472123321541" lon="9.834473147360637"><ele>1775.75</ele><time>2026-03-28T12:49:22.999Z</time></trkpt><trkpt lat="46.4848244616414" lon="9.83455917471063"><ele>1776.5</ele><time>2026-03-28T12:49:23.999Z</time></trkpt><trkpt lat="46.48493603631356" lon="9.834638177580155"><ele>1777.25</ele><time>2026-03-28T12:49:24.999Z</time></trkpt><trkpt lat="46.48504868960712" lon="9.834718578382024"><ele>1778.0</ele><time>2026-03-28T12:49:25.999Z</time></trkpt><trkpt lat="46.485161204732265" lon="9.834808855759194"><ele>1778.0</ele><time>2026-03-28T12:49:26.999Z</time></trkpt><trkpt lat="46.48530323008486" lon="9.834890763773043"><ele>1778.0</ele><time>2026-03-28T12:49:27.999Z</time></trkpt><trkpt lat="46.48542291715688" lon="9.834974799483007"><ele>1778.0</ele><time>2026-03-28T12:49:28.999Z</time></trkpt><trkpt lat="46.48554105719731" lon="9.83506810310442"><ele>1778.0</ele><time>2026-03-28T12:49:29.999Z</time></trkpt><trkpt lat="46.485655702731876" lon="9.83514521341256"><ele>1777.4999999999998</ele><time>2026-03-28T12:49:30.999Z</time></trkpt><trkpt lat="46.485751943362295" lon="9.835227040817644"><ele>1777.0</ele><time>2026-03-28T12:49:31.999Z</time></trkpt><trkpt lat="46.48583452898174" lon="9.83528830073834"><ele>1776.5</ele><time>2026-03-28T12:49:32.999Z</time></trkpt><trkpt lat="46.485906352978894" lon="9.835347343553805"><ele>1776.0</ele><time>2026-03-28T12:49:33.999Z</time></trkpt><trkpt lat="46.48597965273001" lon="9.835401789699555"><ele>1775.4999999999998</ele><time>2026-03-28T12:49:34.999Z</time></trkpt><trkpt lat="46.48604816563377" lon="9.83544969847891"><ele>1775.0</ele><time>2026-03-28T12:49:35.999Z</time></trkpt><trkpt lat="46.48612856428499" lon="9.83552243406331"><ele>1775.0</ele><time>2026-03-28T12:49:36.999Z</time></trkpt><trkpt lat="46.48622955336994" lon="9.835613192483551"><ele>1775.0</ele><time>2026-03-28T12:49:37.999Z</time></trkpt><trkpt lat="46.486324842084294" lon="9.835692446556614"><ele>1775.0</ele><time>2026-03-28T12:49:38.999Z</time></trkpt><trkpt lat="46.48641272738155" lon="9.835752660657676"><ele>1775.0</ele><time>2026-03-28T12:49:39.999Z</time></trkpt><trkpt lat="46.48651721538802" lon="9.835805712781628"><ele>1775.0</ele><time>2026-03-28T12:49:40.999Z</time></trkpt><trkpt lat="46.486628760837576" lon="9.835861307542055"><ele>1775.0</ele><time>2026-03-28T12:49:41.999Z</time></trkpt><trkpt lat="46.486734392207914" lon="9.835902826220648"><ele>1775.0</ele><time>2026-03-28T12:49:42.999Z</time></trkpt><trkpt lat="46.48683005475193" lon="9.83593297040386"><ele>1775.0</ele><time>2026-03-28T12:49:43.999Z</time></trkpt><trkpt lat="46.486926466648406" lon="9.835960913248222"><ele>1775.0</ele><time>2026-03-28T12:49:44.999Z</time></trkpt><trkpt lat="46.487020375060006" lon="9.83599096330957"><ele>1775.0</ele><time>2026-03-28T12:49:45.999Z</time></trkpt><trkpt lat="46.48711684368039" lon="9.836021413034858"><ele>1775.0</ele><time>2026-03-28T12:49:46.999Z</time></trkpt><trkpt lat="46.487220560311044" lon="9.836054868591297"><ele>1775.0</ele><time>2026-03-28T12:49:47.999Z</time></trkpt><trkpt lat="46.48732762825968" lon="9.836091819117627"><ele>1775.0</ele><time>2026-03-28T12:49:48.999Z</time></trkpt><trkpt lat="46.48743029178913" lon="9.836131370658315"><ele>1775.0</ele><time>2026-03-28T12:49:49.999Z</time></trkpt><trkpt lat="46.48753924727259" lon="9.836158510633638"><ele>1775.0</ele><time>2026-03-28T12:49:50.999Z</time></trkpt><trkpt lat="46.48764050297046" lon="9.836192583471869"><ele>1775.0</ele><time>2026-03-28T12:49:51.999Z</time></trkpt><trkpt lat="46.487746210642094" lon="9.836232003200536"><ele>1775.0</ele><time>2026-03-28T12:49:52.999Z</time></trkpt><trkpt lat="46.48783916248262" lon="9.83626512303065"><ele>1775.0</ele><time>2026-03-28T12:49:53.999Z</time></trkpt><trkpt lat="46.487924993977366" lon="9.83629251006098"><ele>1775.0</ele><time>2026-03-28T12:49:54.999Z</time></trkpt><trkpt lat="46.48801054418864" lon="9.836315048286108"><ele>1775.0</ele><time>2026-03-28T12:49:55.999Z</time></trkpt><trkpt lat="46.4880847772938" lon="9.83634283713449"><ele>1774.8</ele><time>2026-03-28T12:49:56.999Z</time></trkpt><trkpt lat="46.48817418713924" lon="9.836418427265887"><ele>1774.6</ele><time>2026-03-28T12:49:58.999Z</time></trkpt><trkpt lat="46.48828359488194" lon="9.8364900864385"><ele>1774.4</ele><time>2026-03-28T12:50:00.999Z</time></trkpt><trkpt lat="46.48835354027588" lon="9.8364832421877"><ele>1774.2</ele><time>2026-03-28T12:50:01.999Z</time></trkpt><trkpt lat="46.48842483502816" lon="9.83644933120188"><ele>1774.0</ele><time>2026-03-28T12:50:02.999Z</time></trkpt><trkpt lat="46.4885070276367" lon="9.836397422665941"><ele>1774.0</ele><time>2026-03-28T12:50:03.999Z</time></trkpt><trkpt lat="46.48860398475416" lon="9.836354820716373"><ele>1774.0</ele><time>2026-03-28T12:50:04.999Z</time></trkpt><trkpt lat="46.48870163058014" lon="9.836323388066315"><ele>1774.0</ele><time>2026-03-28T12:50:05.999Z</time></trkpt><trkpt lat="46.488798642273295" lon="9.8362736005289"><ele>1774.0</ele><time>2026-03-28T12:50:06.999Z</time></trkpt><trkpt lat="46.48889430792284" lon="9.836208105931968"><ele>1774.0</ele><time>2026-03-28T12:50:07.999Z</time></trkpt><trkpt lat="46.488983721375554" lon="9.836137309051521"><ele>1774.0</ele><time>2026-03-28T12:50:08.999Z</time></trkpt><trkpt lat="46.489068079263944" lon="9.836066768212781"><ele>1774.0</ele><time>2026-03-28T12:50:09.999Z</time></trkpt><trkpt lat="46.48914873358174" lon="9.835997021798718"><ele>1774.0</ele><time>2026-03-28T12:50:10.999Z</time></trkpt><trkpt lat="46.489228740654255" lon="9.83593224453743"><ele>1774.0</ele><time>2026-03-28T12:50:11.999Z</time></trkpt><trkpt lat="46.48930362066194" lon="9.835866230854904"><ele>1774.0</ele><time>2026-03-28T12:50:12.999Z</time></trkpt><trkpt lat="46.4893811060133" lon="9.835801383801588"><ele>1774.0000000000002</ele><time>2026-03-28T12:50:13.999Z</time></trkpt><trkpt lat="46.489457282344816" lon="9.835745879631844"><ele>1774.0</ele><time>2026-03-28T12:50:14.999Z</time></trkpt><trkpt lat="46.4895284359372" lon="9.83568136730727"><ele>1774.0</ele><time>2026-03-28T12:50:15.999Z</time></trkpt><trkpt lat="46.48960758931637" lon="9.835641703303537"><ele>1774.0</ele><time>2026-03-28T12:50:16.999Z</time></trkpt><trkpt lat="46.48968991922905" lon="9.835564309220288"><ele>1774.0000000000002</ele><time>2026-03-28T12:50:17.999Z</time></trkpt><trkpt lat="46.489786013197524" lon="9.835540824013814"><ele>1774.0</ele><time>2026-03-28T12:50:18.999Z</time></trkpt><trkpt lat="46.48989300110427" lon="9.835509027051454"><ele>1774.0</ele><time>2026-03-28T12:50:19.999Z</time></trkpt><trkpt lat="46.49001020508299" lon="9.835490201413345"><ele>1774.0</ele><time>2026-03-28T12:50:20.999Z</time></trkpt><trkpt lat="46.49012202265932" lon="9.83548040590431"><ele>1774.0</ele><time>2026-03-28T12:50:21.999Z</time></trkpt><trkpt lat="46.49022619350312" lon="9.835465424047376"><ele>1774.0</ele><time>2026-03-28T12:50:22.999Z</time></trkpt><trkpt lat="46.490327522727284" lon="9.83548181757224"><ele>1774.0</ele><time>2026-03-28T12:50:23.999Z</time></trkpt><trkpt lat="46.49042292740917" lon="9.835497335985423"><ele>1773.6</ele><time>2026-03-28T12:50:24.999Z</time></trkpt><trkpt lat="46.49051343439774" lon="9.83550690711904"><ele>1773.2</ele><time>2026-03-28T12:50:25.999Z</time></trkpt><trkpt lat="46.49060508762749" lon="9.83550973525798"><ele>1772.7999999999997</ele><time>2026-03-28T12:50:26.999Z</time></trkpt><trkpt lat="46.49070117786851" lon="9.835521105292647"><ele>1772.3999999999999</ele><time>2026-03-28T12:50:27.999Z</time></trkpt><trkpt lat="46.4908087342663" lon="9.835535124563274"><ele>1772.0</ele><time>2026-03-28T12:50:28.999Z</time></trkpt><trkpt lat="46.49092045342249" lon="9.835567506091145"><ele>1772.0</ele><time>2026-03-28T12:50:29.999Z</time></trkpt><trkpt lat="46.491043304488855" lon="9.835583781900224"><ele>1772.0</ele><time>2026-03-28T12:50:30.999Z</time></trkpt><trkpt lat="46.491160106526614" lon="9.835599255418735"><ele>1772.0</ele><time>2026-03-28T12:50:31.999Z</time></trkpt><trkpt lat="46.49128890462867" lon="9.83561626236333"><ele>1772.0</ele><time>2026-03-28T12:50:32.999Z</time></trkpt><trkpt lat="46.49141454744463" lon="9.835610718198396"><ele>1772.1999999999998</ele><time>2026-03-28T12:50:33.999Z</time></trkpt><trkpt lat="46.49151270847155" lon="9.835640676577134"><ele>1772.3999999999999</ele><time>2026-03-28T12:50:35Z</time></trkpt><trkpt lat="46.49161092805816" lon="9.835662044754272"><ele>1772.6000000000001</ele><time>2026-03-28T12:50:36Z</time></trkpt><trkpt lat="46.49172085707833" lon="9.835685843677753"><ele>1772.8000000000002</ele><time>2026-03-28T12:50:37Z</time></trkpt><trkpt lat="46.49183913472529" lon="9.835702470309599"><ele>1773.0</ele><time>2026-03-28T12:50:38Z</time></trkpt><trkpt lat="46.491960532582766" lon="9.835722259976905"><ele>1773.0</ele><time>2026-03-28T12:50:39Z</time></trkpt><trkpt lat="46.49208361534477" lon="9.835753536213424"><ele>1773.0</ele><time>2026-03-28T12:50:40Z</time></trkpt><trkpt lat="46.49220416585908" lon="9.835772866724222"><ele>1773.0</ele><time>2026-03-28T12:50:41Z</time></trkpt><trkpt lat="46.49231120477722" lon="9.835794650403036"><ele>1773.0</ele><time>2026-03-28T12:50:42Z</time></trkpt><trkpt lat="46.4924182019165" lon="9.83580564446705"><ele>1773.5</ele><time>2026-03-28T12:50:43Z</time></trkpt><trkpt lat="46.492540070793616" lon="9.835846819970465"><ele>1774.0</ele><time>2026-03-28T12:50:44Z</time></trkpt><trkpt lat="46.492665152313045" lon="9.835909413020067"><ele>1774.5</ele><time>2026-03-28T12:50:45Z</time></trkpt><trkpt lat="46.49280498166893" lon="9.835981814344972"><ele>1775.0</ele><time>2026-03-28T12:50:46Z</time></trkpt><trkpt lat="46.49294640762302" lon="9.836066152601372"><ele>1775.0</ele><time>2026-03-28T12:50:47Z</time></trkpt><trkpt lat="46.49309026135361" lon="9.836169716571263"><ele>1775.0</ele><time>2026-03-28T12:50:48Z</time></trkpt><trkpt lat="46.493232767281555" lon="9.83629408162009"><ele>1775.0</ele><time>2026-03-28T12:50:49Z</time></trkpt><trkpt lat="46.493371960947066" lon="9.83643820165868"><ele>1775.0</ele><time>2026-03-28T12:50:50Z</time></trkpt><trkpt lat="46.49349430443846" lon="9.83657826800128"><ele>1775.0</ele><time>2026-03-28T12:50:51Z</time></trkpt><trkpt lat="46.493596904636924" lon="9.836713620191087"><ele>1775.0</ele><time>2026-03-28T12:50:52Z</time></trkpt><trkpt lat="46.493684189207904" lon="9.836857002813373"><ele>1775.0</ele><time>2026-03-28T12:50:53Z</time></trkpt><trkpt lat="46.49376131253839" lon="9.836998049518096"><ele>1776.0</ele><time>2026-03-28T12:50:54Z</time></trkpt><trkpt lat="46.49384115951082" lon="9.837120874115431"><ele>1777.0</ele><time>2026-03-28T12:50:55Z</time></trkpt><trkpt lat="46.49389689496652" lon="9.837275913725122"><ele>1778.0</ele><time>2026-03-28T12:50:56Z</time></trkpt><trkpt lat="46.493963484577726" lon="9.837427891154789"><ele>1779.0</ele><time>2026-03-28T12:50:57Z</time></trkpt><trkpt lat="46.494027342345575" lon="9.837594977408278"><ele>1778.0</ele><time>2026-03-28T12:50:58Z</time></trkpt><trkpt lat="46.494089469318595" lon="9.83775971721245"><ele>1777.0</ele><time>2026-03-28T12:50:59Z</time></trkpt><trkpt lat="46.49414974169615" lon="9.837927124881743"><ele>1776.0</ele><time>2026-03-28T12:51:00Z</time></trkpt><trkpt lat="46.49420490408546" lon="9.838101957603023"><ele>1775.0</ele><time>2026-03-28T12:51:01Z</time></trkpt><trkpt lat="46.494262157876925" lon="9.838255604244784"><ele>1775.0</ele><time>2026-03-28T12:51:02Z</time></trkpt><trkpt lat="46.49431638850843" lon="9.838416926047717"><ele>1775.0</ele><time>2026-03-28T12:51:03Z</time></trkpt><trkpt lat="46.494372232808864" lon="9.838589324707906"><ele>1775.0</ele><time>2026-03-28T12:51:04Z</time></trkpt><trkpt lat="46.49444184432608" lon="9.838766708529235"><ele>1775.0</ele><time>2026-03-28T12:51:05Z</time></trkpt><trkpt lat="46.49450631630498" lon="9.838940783778463"><ele>1775.0</ele><time>2026-03-28T12:51:06Z</time></trkpt><trkpt lat="46.494576761981484" lon="9.839096643240223"><ele>1775.0</ele><time>2026-03-28T12:51:07Z</time></trkpt><trkpt lat="46.49464869812646" lon="9.839252965217623"><ele>1775.0</ele><time>2026-03-28T12:51:08Z</time></trkpt><trkpt lat="46.49472342215939" lon="9.839402102041145"><ele>1775.0</ele><time>2026-03-28T12:51:09Z</time></trkpt><trkpt lat="46.4947928996001" lon="9.839555577623688"><ele>1774.75</ele><time>2026-03-28T12:51:10Z</time></trkpt><trkpt lat="46.494876109889184" lon="9.839697250299533"><ele>1774.5</ele><time>2026-03-28T12:51:11Z</time></trkpt><trkpt lat="46.49496247759157" lon="9.83983229854626"><ele>1774.25</ele><time>2026-03-28T12:51:12Z</time></trkpt><trkpt lat="46.495051942876565" lon="9.839964092179697"><ele>1774.0</ele><time>2026-03-28T12:51:13Z</time></trkpt><trkpt lat="46.49514394895301" lon="9.84009961788964"><ele>1775.0</ele><time>2026-03-28T12:51:14Z</time></trkpt><trkpt lat="46.495239474631134" lon="9.840230773446036"><ele>1776.0</ele><time>2026-03-28T12:51:15Z</time></trkpt><trkpt lat="46.49533334751872" lon="9.84036587197314"><ele>1777.0</ele><time>2026-03-28T12:51:16Z</time></trkpt><trkpt lat="46.49543195265698" lon="9.840495336310237"><ele>1778.0</ele><time>2026-03-28T12:51:17Z</time></trkpt><trkpt lat="46.495530123903315" lon="9.840626331893263"><ele>1778.0</ele><time>2026-03-28T12:51:18Z</time></trkpt><trkpt lat="46.49562489725715" lon="9.840753199083942"><ele>1778.0</ele><time>2026-03-28T12:51:19Z</time></trkpt><trkpt lat="46.495721714292564" lon="9.840893926706102"><ele>1778.0</ele><time>2026-03-28T12:51:20Z</time></trkpt><trkpt lat="46.495812084458215" lon="9.841024977366665"><ele>1778.0</ele><time>2026-03-28T12:51:21Z</time></trkpt><trkpt lat="46.495900091213635" lon="9.841168976769854"><ele>1776.0</ele><time>2026-03-28T12:51:22Z</time></trkpt><trkpt lat="46.49598167424518" lon="9.841323025616665"><ele>1774.0</ele><time>2026-03-28T12:51:23Z</time></trkpt><trkpt lat="46.496067120410736" lon="9.841484861584785"><ele>1772.0</ele><time>2026-03-28T12:51:24Z</time></trkpt><trkpt lat="46.49614710673242" lon="9.841647602136188"><ele>1770.0</ele><time>2026-03-28T12:51:25Z</time></trkpt><trkpt lat="46.49621526192429" lon="9.841814491477246"><ele>1773.25</ele><time>2026-03-28T12:51:26Z</time></trkpt><trkpt lat="46.49628428212073" lon="9.84198165733444"><ele>1776.5</ele><time>2026-03-28T12:51:27Z</time></trkpt><trkpt lat="46.496334993436975" lon="9.842143998713212"><ele>1779.75</ele><time>2026-03-28T12:51:28Z</time></trkpt><trkpt lat="46.496380629077215" lon="9.842302456792577"><ele>1783.0</ele><time>2026-03-28T12:51:29Z</time></trkpt><trkpt lat="46.49640708839863" lon="9.842461866640226"><ele>1783.0</ele><time>2026-03-28T12:51:29.999Z</time></trkpt><trkpt lat="46.49644561299584" lon="9.842619619473645"><ele>1783.0</ele><time>2026-03-28T12:51:30.999Z</time></trkpt><trkpt lat="46.49647682513347" lon="9.842780651447583"><ele>1783.0</ele><time>2026-03-28T12:51:31.999Z</time></trkpt><trkpt lat="46.49650976977694" lon="9.842944005585718"><ele>1783.0</ele><time>2026-03-28T12:51:32.999Z</time></trkpt><trkpt lat="46.496541375850576" lon="9.843104665579267"><ele>1781.6000000000001</ele><time>2026-03-28T12:51:33.999Z</time></trkpt><trkpt lat="46.49657267491119" lon="9.843249557664132"><ele>1780.2000000000003</ele><time>2026-03-28T12:51:34.999Z</time></trkpt><trkpt lat="46.496600473821886" lon="9.843376623502744"><ele>1778.8</ele><time>2026-03-28T12:51:35.999Z</time></trkpt><trkpt lat="46.49662992546605" lon="9.843499481814641"><ele>1777.4</ele><time>2026-03-28T12:51:36.999Z</time></trkpt><trkpt lat="46.49665572033035" lon="9.84362169769801"><ele>1776.0</ele><time>2026-03-28T12:51:37.999Z</time></trkpt><trkpt lat="46.49667021908736" lon="9.843745939116044"><ele>1775.3333333333333</ele><time>2026-03-28T12:51:38.999Z</time></trkpt><trkpt lat="46.496669385813604" lon="9.843867529929856"><ele>1774.6666666666665</ele><time>2026-03-28T12:51:39.999Z</time></trkpt><trkpt lat="46.4966743193611" lon="9.843988803799999"><ele>1774.0</ele><time>2026-03-28T12:51:40.999Z</time></trkpt><trkpt lat="46.49671465495437" lon="9.844091424049843"><ele>1773.3333333333333</ele><time>2026-03-28T12:51:41.999Z</time></trkpt><trkpt lat="46.49677314643024" lon="9.844185336010746"><ele>1772.6666666666665</ele><time>2026-03-28T12:51:42.999Z</time></trkpt><trkpt lat="46.49681859988529" lon="9.844270053161619"><ele>1772.0</ele><time>2026-03-28T12:51:43.999Z</time></trkpt><trkpt lat="46.49684201990159" lon="9.844360205774331"><ele>1771.6666666666665</ele><time>2026-03-28T12:51:44.999Z</time></trkpt><trkpt lat="46.49686571720689" lon="9.844461345545788"><ele>1771.3333333333333</ele><time>2026-03-28T12:51:45.999Z</time></trkpt><trkpt lat="46.49689363928169" lon="9.844578401030494"><ele>1771.0</ele><time>2026-03-28T12:51:46.999Z</time></trkpt><trkpt lat="46.496927533538525" lon="9.844697462741399"><ele>1770.6666666666665</ele><time>2026-03-28T12:51:47.999Z</time></trkpt><trkpt lat="46.49695884510741" lon="9.84482349245646"><ele>1770.3333333333333</ele><time>2026-03-28T12:51:48.999Z</time></trkpt><trkpt lat="46.49699231457989" lon="9.844953132127465"><ele>1770.0</ele><time>2026-03-28T12:51:49.999Z</time></trkpt><trkpt lat="46.4970201659946" lon="9.845075567166292"><ele>1769.5</ele><time>2026-03-28T12:51:50.999Z</time></trkpt><trkpt lat="46.497048763817695" lon="9.845195165060806"><ele>1769.0</ele><time>2026-03-28T12:51:51.999Z</time></trkpt><trkpt lat="46.4970739074733" lon="9.84530273284872"><ele>1768.5</ele><time>2026-03-28T12:51:52.999Z</time></trkpt><trkpt lat="46.49709988211493" lon="9.84541457705139"><ele>1768.0</ele><time>2026-03-28T12:51:53.999Z</time></trkpt><trkpt lat="46.49712607665946" lon="9.845527187271571"><ele>1767.5</ele><time>2026-03-28T12:51:54.999Z</time></trkpt><trkpt lat="46.49715478433102" lon="9.845639207015505"><ele>1767.0</ele><time>2026-03-28T12:51:55.999Z</time></trkpt><trkpt lat="46.4971823022223" lon="9.845747475235676"><ele>1768.1666666666667</ele><time>2026-03-28T12:51:56.999Z</time></trkpt><trkpt lat="46.49720573648966" lon="9.845838887345037"><ele>1769.3333333333335</ele><time>2026-03-28T12:51:57.999Z</time></trkpt><trkpt lat="46.49723874841503" lon="9.845968403683614"><ele>1770.5</ele><time>2026-03-28T12:51:59.999Z</time></trkpt><trkpt lat="46.497270770615266" lon="9.846083645086468"><ele>1771.6666666666667</ele><time>2026-03-28T12:52:01.999Z</time></trkpt><trkpt lat="46.4973001459626" lon="9.846188606646107"><ele>1772.8333333333335</ele><time>2026-03-28T12:52:04.999Z</time></trkpt><trkpt lat="46.497341580622894" lon="9.846316829973137"><ele>1774.0</ele><time>2026-03-28T12:52:07.999Z</time></trkpt><trkpt lat="46.497371968765165" lon="9.84641442931844"><ele>1774.0</ele><time>2026-03-28T12:52:09.999Z</time></trkpt><trkpt lat="46.49740250056732" lon="9.846511452146787"><ele>1774.0</ele><time>2026-03-28T12:52:11.999Z</time></trkpt><trkpt lat="46.49744067044512" lon="9.846638889290201"><ele>1774.0</ele><time>2026-03-28T12:52:13.999Z</time></trkpt><trkpt lat="46.49748033665347" lon="9.846778031716998"><ele>1774.0</ele><time>2026-03-28T12:52:15.999Z</time></trkpt><trkpt lat="46.4975164150255" lon="9.846926979272345"><ele>1774.0</ele><time>2026-03-28T12:52:17.999Z</time></trkpt><trkpt lat="46.49756974580067" lon="9.847079886546043"><ele>1774.0</ele><time>2026-03-28T12:52:19.999Z</time></trkpt><trkpt lat="46.49762965051238" lon="9.847222096370295"><ele>1774.0</ele><time>2026-03-28T12:52:21.999Z</time></trkpt><trkpt lat="46.49767740645682" lon="9.847361706116532"><ele>1774.0</ele><time>2026-03-28T12:52:23.999Z</time></trkpt><trkpt lat="46.49769204174758" lon="9.847452788117668"><ele>1774.0</ele><time>2026-03-28T12:52:25.999Z</time></trkpt><trkpt lat="46.49771007123569" lon="9.847598219274275"><ele>1774.0</ele><time>2026-03-28T12:52:28.999Z</time></trkpt><trkpt lat="46.49765797546544" lon="9.847756920483347"><ele>1774.0000000000002</ele><time>2026-03-28T12:52:30.999Z</time></trkpt><trkpt lat="46.49761036183849" lon="9.847896348970805"><ele>1774.0</ele><time>2026-03-28T12:52:32.999Z</time></trkpt><trkpt lat="46.49757130361533" lon="9.848007309262913"><ele>1774.0</ele><time>2026-03-28T12:52:34.999Z</time></trkpt><trkpt lat="46.49755714203076" lon="9.848100756289178"><ele>1774.0</ele><time>2026-03-28T12:52:36.999Z</time></trkpt><trkpt lat="46.49751451028165" lon="9.848171133266057"><ele>1774.0000000000002</ele><time>2026-03-28T12:52:38.999Z</time></trkpt><trkpt lat="46.497541855727924" lon="9.848285339086148"><ele>1774.0</ele><time>2026-03-28T12:52:42Z</time></trkpt><trkpt lat="46.49757342301442" lon="9.848367031072637"><ele>1774.0000000000002</ele><time>2026-03-28T13:02:06.999Z</time></trkpt><trkpt lat="46.4975792560727" lon="9.848254378694815"><ele>1774.0</ele><time>2026-03-28T13:02:13.999Z</time></trkpt><trkpt lat="46.49756317458232" lon="9.848103042902018"><ele>1774.0</ele><time>2026-03-28T13:02:15.999Z</time></trkpt><trkpt lat="46.49759378371693" lon="9.848010663441011"><ele>1774.0</ele><time>2026-03-28T13:02:16.999Z</time></trkpt><trkpt lat="46.497628710483674" lon="9.847929911102826"><ele>1774.0000000000002</ele><time>2026-03-28T13:02:17.999Z</time></trkpt><trkpt lat="46.497680803623076" lon="9.847792549842893"><ele>1774.0</ele><time>2026-03-28T13:02:19.999Z</time></trkpt><trkpt lat="46.49771802907921" lon="9.847685061262409"><ele>1774.0000000000002</ele><time>2026-03-28T13:02:21.999Z</time></trkpt><trkpt lat="46.49777954960919" lon="9.847642971895974"><ele>1774.0</ele><time>2026-03-28T13:02:25.999Z</time></trkpt><trkpt lat="46.497892725782215" lon="9.847683309990497"><ele>1774.0</ele><time>2026-03-28T13:02:27.999Z</time></trkpt><trkpt lat="46.49793939512797" lon="9.847752351369854"><ele>1774.0</ele><time>2026-03-28T13:02:28.999Z</time></trkpt><trkpt lat="46.497984237976404" lon="9.847845163426934"><ele>1774.0000000000002</ele><time>2026-03-28T13:02:29.999Z</time></trkpt><trkpt lat="46.49804939722092" lon="9.847961083986887"><ele>1774.0</ele><time>2026-03-28T13:02:30.999Z</time></trkpt><trkpt lat="46.49811766302909" lon="9.848085707623706"><ele>1773.75</ele><time>2026-03-28T13:02:31.999Z</time></trkpt><trkpt lat="46.4981961087416" lon="9.848214776492378"><ele>1773.5</ele><time>2026-03-28T13:02:32.999Z</time></trkpt><trkpt lat="46.498283419075456" lon="9.848352565805992"><ele>1773.25</ele><time>2026-03-28T13:02:33.999Z</time></trkpt><trkpt lat="46.49837486054945" lon="9.848492149264096"><ele>1773.0</ele><time>2026-03-28T13:02:34.999Z</time></trkpt><trkpt lat="46.498463966334015" lon="9.848629519864655"><ele>1772.5</ele><time>2026-03-28T13:02:35.999Z</time></trkpt><trkpt lat="46.4985548092454" lon="9.848770905624239"><ele>1772.0</ele><time>2026-03-28T13:02:36.999Z</time></trkpt><trkpt lat="46.49865999001682" lon="9.848918589485983"><ele>1771.5</ele><time>2026-03-28T13:02:37.999Z</time></trkpt><trkpt lat="46.49876347145037" lon="9.849076557618435"><ele>1771.0</ele><time>2026-03-28T13:02:38.999Z</time></trkpt><trkpt lat="46.498867177569146" lon="9.849236137915474"><ele>1769.6666666666667</ele><time>2026-03-28T13:02:39.999Z</time></trkpt><trkpt lat="46.498966314498716" lon="9.84940009558501"><ele>1768.3333333333335</ele><time>2026-03-28T13:02:40.999Z</time></trkpt><trkpt lat="46.499075064156145" lon="9.849566344623216"><ele>1767.0</ele><time>2026-03-28T13:02:41.999Z</time></trkpt><trkpt lat="46.49917641735986" lon="9.849729545367499"><ele>1767.0</ele><time>2026-03-28T13:02:42.999Z</time></trkpt><trkpt lat="46.49927439677249" lon="9.849888592632656"><ele>1767.0</ele><time>2026-03-28T13:02:43.999Z</time></trkpt><trkpt lat="46.49937677400307" lon="9.850049872513067"><ele>1767.0</ele><time>2026-03-28T13:02:44.999Z</time></trkpt><trkpt lat="46.499487598910115" lon="9.8502077329205"><ele>1766.3333333333335</ele><time>2026-03-28T13:02:45.999Z</time></trkpt><trkpt lat="46.499601469026985" lon="9.850369172767302"><ele>1765.6666666666667</ele><time>2026-03-28T13:02:46.999Z</time></trkpt><trkpt lat="46.499708901998424" lon="9.850543680506657"><ele>1765.0</ele><time>2026-03-28T13:02:47.999Z</time></trkpt><trkpt lat="46.4998212128354" lon="9.85071404751959"><ele>1765.0</ele><time>2026-03-28T13:02:48.999Z</time></trkpt><trkpt lat="46.4999363602613" lon="9.850885081828222"><ele>1765.0</ele><time>2026-03-28T13:02:49.999Z</time></trkpt><trkpt lat="46.50005212812571" lon="9.851050277868532"><ele>1765.0</ele><time>2026-03-28T13:02:50.999Z</time></trkpt><trkpt lat="46.500162572560036" lon="9.851237174201426"><ele>1765.0</ele><time>2026-03-28T13:02:51.999Z</time></trkpt><trkpt lat="46.50027615928365" lon="9.851405935432213"><ele>1765.0</ele><time>2026-03-28T13:02:52.999Z</time></trkpt><trkpt lat="46.500385067101355" lon="9.851581960010384"><ele>1765.0</ele><time>2026-03-28T13:02:53.999Z</time></trkpt><trkpt lat="46.50050120510864" lon="9.851759254476928"><ele>1766.6666666666667</ele><time>2026-03-28T13:02:54.999Z</time></trkpt><trkpt lat="46.5006287700546" lon="9.85192655191436"><ele>1768.3333333333335</ele><time>2026-03-28T13:02:55.999Z</time></trkpt><trkpt lat="46.500763429220854" lon="9.852092186537526"><ele>1770.0</ele><time>2026-03-28T13:02:56.999Z</time></trkpt><trkpt lat="46.5009272285157" lon="9.852282821128936"><ele>1770.0</ele><time>2026-03-28T13:02:57.999Z</time></trkpt><trkpt lat="46.50111341987009" lon="9.85247445456417"><ele>1770.0</ele><time>2026-03-28T13:02:58.999Z</time></trkpt><trkpt lat="46.50128639726478" lon="9.852648202572842"><ele>1770.0</ele><time>2026-03-28T13:02:59.999Z</time></trkpt><trkpt lat="46.50144408425445" lon="9.852801519632532"><ele>1769.6666666666665</ele><time>2026-03-28T13:03:00.999Z</time></trkpt><trkpt lat="46.50162887750164" lon="9.852956238113249"><ele>1769.3333333333333</ele><time>2026-03-28T13:03:01.999Z</time></trkpt><trkpt lat="46.501825955593546" lon="9.853115119150996"><ele>1769.0</ele><time>2026-03-28T13:03:02.999Z</time></trkpt><trkpt lat="46.50204754919054" lon="9.853281819919635"><ele>1771.3333333333333</ele><time>2026-03-28T13:03:03.999Z</time></trkpt><trkpt lat="46.50219446048801" lon="9.853383487194764"><ele>1773.6666666666665</ele><time>2026-03-28T13:03:04.999Z</time></trkpt><trkpt lat="46.50211383210867" lon="9.853473880392674"><ele>1776.0</ele><time>2026-03-28T13:03:05.999Z</time></trkpt><trkpt lat="46.50228913829447" lon="9.853621502275619"><ele>1776.0</ele><time>2026-03-28T13:03:06.999Z</time></trkpt><trkpt lat="46.502447451864306" lon="9.853767111106832"><ele>1776.0</ele><time>2026-03-28T13:03:07.999Z</time></trkpt><trkpt lat="46.50260033839891" lon="9.853925914220138"><ele>1776.0</ele><time>2026-03-28T13:03:08.999Z</time></trkpt><trkpt lat="46.50275986737644" lon="9.85407967718203"><ele>1775.6666666666665</ele><time>2026-03-28T13:03:09.999Z</time></trkpt><trkpt lat="46.50292125059302" lon="9.854234301203618"><ele>1775.3333333333333</ele><time>2026-03-28T13:03:10.999Z</time></trkpt><trkpt lat="46.50307921882358" lon="9.854385817041036"><ele>1775.0</ele><time>2026-03-28T13:03:11.999Z</time></trkpt><trkpt lat="46.50324194441922" lon="9.854542037197119"><ele>1772.0</ele><time>2026-03-28T13:03:12.999Z</time></trkpt><trkpt lat="46.50340278584764" lon="9.854697128378424"><ele>1769.0</ele><time>2026-03-28T13:03:13.999Z</time></trkpt><trkpt lat="46.503559523524046" lon="9.854853165343107"><ele>1766.0</ele><time>2026-03-28T13:03:14.999Z</time></trkpt><trkpt lat="46.503716615868974" lon="9.855009085367003"><ele>1764.3333333333333</ele><time>2026-03-28T13:03:15.999Z</time></trkpt><trkpt lat="46.503871625768966" lon="9.855158001315706"><ele>1762.6666666666665</ele><time>2026-03-28T13:03:16.999Z</time></trkpt><trkpt lat="46.50401970389885" lon="9.855312117391477"><ele>1761.0</ele><time>2026-03-28T13:03:17.999Z</time></trkpt><trkpt lat="46.50417537613157" lon="9.855466062632173"><ele>1761.0</ele><time>2026-03-28T13:03:18.999Z</time></trkpt><trkpt lat="46.50433124833246" lon="9.855618418241312"><ele>1761.0</ele><time>2026-03-28T13:03:19.999Z</time></trkpt><trkpt lat="46.50448995771558" lon="9.855770703948567"><ele>1761.0</ele><time>2026-03-28T13:03:20.999Z</time></trkpt><trkpt lat="46.50464550590547" lon="9.855920270724019"><ele>1752.6666666666665</ele><time>2026-03-28T13:03:21.999Z</time></trkpt><trkpt lat="46.50480120159021" lon="9.85607143831518"><ele>1744.3333333333333</ele><time>2026-03-28T13:03:22.999Z</time></trkpt><trkpt lat="46.50495530684038" lon="9.856217690470455"><ele>1736.0</ele><time>2026-03-28T13:03:23.999Z</time></trkpt><trkpt lat="46.5051061444248" lon="9.856363938446266"><ele>1736.0</ele><time>2026-03-28T13:03:24.999Z</time></trkpt><trkpt lat="46.505258796468" lon="9.85651436699294"><ele>1736.0</ele><time>2026-03-28T13:03:25.999Z</time></trkpt><trkpt lat="46.50541488386016" lon="9.856660271862458"><ele>1736.0</ele><time>2026-03-28T13:03:26.999Z</time></trkpt><trkpt lat="46.50557519192736" lon="9.856804804224643"><ele>1731.0</ele><time>2026-03-28T13:03:27.999Z</time></trkpt><trkpt lat="46.505725345807086" lon="9.856954005257814"><ele>1726.0</ele><time>2026-03-28T13:03:28.999Z</time></trkpt><trkpt lat="46.505871041345685" lon="9.85710042715635"><ele>1721.0</ele><time>2026-03-28T13:03:29.999Z</time></trkpt><trkpt lat="46.506022476889456" lon="9.857246677912459"><ele>1721.0</ele><time>2026-03-28T13:03:30.999Z</time></trkpt><trkpt lat="46.50617920920052" lon="9.857391712296137"><ele>1721.0</ele><time>2026-03-28T13:03:31.999Z</time></trkpt><trkpt lat="46.50632091328824" lon="9.857542170890728"><ele>1721.0</ele><time>2026-03-28T13:03:32.999Z</time></trkpt><trkpt lat="46.50645440638094" lon="9.857674300222142"><ele>1719.75</ele><time>2026-03-28T13:03:33.999Z</time></trkpt><trkpt lat="46.5065832542921" lon="9.857800742910728"><ele>1718.5</ele><time>2026-03-28T13:03:34.999Z</time></trkpt><trkpt lat="46.50671088884941" lon="9.857932211981318"><ele>1717.25</ele><time>2026-03-28T13:03:35.999Z</time></trkpt><trkpt lat="46.50678080552869" lon="9.858025560945011"><ele>1716.0</ele><time>2026-03-28T13:03:36.999Z</time></trkpt><trkpt lat="46.50684049508272" lon="9.858107728578156"><ele>1716.0</ele><time>2026-03-28T13:03:37.999Z</time></trkpt><trkpt lat="46.50691018725409" lon="9.85819129269552"><ele>1716.0</ele><time>2026-03-28T13:03:38.999Z</time></trkpt><trkpt lat="46.5070000375393" lon="9.858272283484306"><ele>1716.0</ele><time>2026-03-28T13:03:39.999Z</time></trkpt><trkpt lat="46.50707004343791" lon="9.858347489338808"><ele>1716.0</ele><time>2026-03-28T13:03:40.999Z</time></trkpt><trkpt lat="46.50714062353739" lon="9.858424624711377"><ele>1716.0</ele><time>2026-03-28T13:03:41.999Z</time></trkpt><trkpt lat="46.507215228878124" lon="9.858501112811918"><ele>1716.0</ele><time>2026-03-28T13:03:42.999Z</time></trkpt><trkpt lat="46.5072843365018" lon="9.858577997844094"><ele>1716.0</ele><time>2026-03-28T13:03:43.999Z</time></trkpt><trkpt lat="46.50735127714359" lon="9.858664464622263"><ele>1716.0</ele><time>2026-03-28T13:03:44.999Z</time></trkpt><trkpt lat="46.50742172910186" lon="9.858745523849457"><ele>1716.0</ele><time>2026-03-28T13:03:45.999Z</time></trkpt><trkpt lat="46.50750861707085" lon="9.858826993671334"><ele>1716.0</ele><time>2026-03-28T13:03:46.999Z</time></trkpt><trkpt lat="46.507598581687354" lon="9.85892632034536"><ele>1716.0</ele><time>2026-03-28T13:03:47.999Z</time></trkpt><trkpt lat="46.507696894848046" lon="9.859036219202878"><ele>1716.0</ele><time>2026-03-28T13:03:48.999Z</time></trkpt><trkpt lat="46.50779365218981" lon="9.859149871290409"><ele>1716.0</ele><time>2026-03-28T13:03:49.999Z</time></trkpt><trkpt lat="46.50788879577485" lon="9.859270044173886"><ele>1716.0</ele><time>2026-03-28T13:03:50.999Z</time></trkpt><trkpt lat="46.5079887909658" lon="9.859394286903212"><ele>1715.75</ele><time>2026-03-28T13:03:51.999Z</time></trkpt><trkpt lat="46.508083931176806" lon="9.859528064395425"><ele>1715.5</ele><time>2026-03-28T13:03:52.999Z</time></trkpt><trkpt lat="46.5081859109461" lon="9.859678268270104"><ele>1715.25</ele><time>2026-03-28T13:03:53.999Z</time></trkpt><trkpt lat="46.50828576297043" lon="9.859829007786022"><ele>1715.0</ele><time>2026-03-28T13:03:54.999Z</time></trkpt><trkpt lat="46.508389929537664" lon="9.859991501624492"><ele>1715.3333333333333</ele><time>2026-03-28T13:03:55.999Z</time></trkpt><trkpt lat="46.50848931005759" lon="9.860161765616022"><ele>1715.6666666666665</ele><time>2026-03-28T13:03:56.999Z</time></trkpt><trkpt lat="46.50858996998083" lon="9.86033929146215"><ele>1716.0</ele><time>2026-03-28T13:03:57.999Z</time></trkpt><trkpt lat="46.50869305539057" lon="9.860522467363117"><ele>1716.3333333333335</ele><time>2026-03-28T13:03:58.999Z</time></trkpt><trkpt lat="46.50879438496504" lon="9.860710996269475"><ele>1716.6666666666667</ele><time>2026-03-28T13:03:59.999Z</time></trkpt><trkpt lat="46.508886791197355" lon="9.860899573205744"><ele>1717.0</ele><time>2026-03-28T13:04:00.999Z</time></trkpt><trkpt lat="46.5089812801583" lon="9.861092057103235"><ele>1717.3333333333335</ele><time>2026-03-28T13:04:01.999Z</time></trkpt><trkpt lat="46.5090702804029" lon="9.861288516560775"><ele>1717.6666666666665</ele><time>2026-03-28T13:04:02.999Z</time></trkpt><trkpt lat="46.50915818163772" lon="9.861484468589724"><ele>1718.0</ele><time>2026-03-28T13:04:03.999Z</time></trkpt><trkpt lat="46.50923826139384" lon="9.861684327928147"><ele>1717.6666666666665</ele><time>2026-03-28T13:04:04.999Z</time></trkpt><trkpt lat="46.5093165872506" lon="9.861894744568021"><ele>1717.3333333333335</ele><time>2026-03-28T13:04:05.999Z</time></trkpt><trkpt lat="46.50939591738082" lon="9.862104965013293"><ele>1717.0</ele><time>2026-03-28T13:04:06.999Z</time></trkpt><trkpt lat="46.50947257514201" lon="9.86232198053581"><ele>1717.0</ele><time>2026-03-28T13:04:07.999Z</time></trkpt><trkpt lat="46.50954527147219" lon="9.862547115320542"><ele>1717.0</ele><time>2026-03-28T13:04:08.999Z</time></trkpt><trkpt lat="46.509612255278526" lon="9.86276598785258"><ele>1717.0</ele><time>2026-03-28T13:04:09.999Z</time></trkpt><trkpt lat="46.50967850345929" lon="9.862990399274612"><ele>1716.6666666666667</ele><time>2026-03-28T13:04:10.999Z</time></trkpt><trkpt lat="46.509744935296105" lon="9.863220109330568"><ele>1716.3333333333335</ele><time>2026-03-28T13:04:11.999Z</time></trkpt><trkpt lat="46.50981190930019" lon="9.863459200399998"><ele>1716.0</ele><time>2026-03-28T13:04:12.999Z</time></trkpt><trkpt lat="46.50986757508385" lon="9.863698338672751"><ele>1716.0</ele><time>2026-03-28T13:04:13.999Z</time></trkpt><trkpt lat="46.50992160573299" lon="9.863931928226156"><ele>1716.0</ele><time>2026-03-28T13:04:14.999Z</time></trkpt><trkpt lat="46.509971094575995" lon="9.8641671567972"><ele>1716.0</ele><time>2026-03-28T13:04:15.999Z</time></trkpt><trkpt lat="46.51001512929052" lon="9.864399387715634"><ele>1716.3333333333335</ele><time>2026-03-28T13:04:16.999Z</time></trkpt><trkpt lat="46.5100569219982" lon="9.864635241638698"><ele>1716.6666666666667</ele><time>2026-03-28T13:04:17.999Z</time></trkpt><trkpt lat="46.51010118261708" lon="9.864873014977647"><ele>1717.0</ele><time>2026-03-28T13:04:18.999Z</time></trkpt><trkpt lat="46.51014461640791" lon="9.86510432824865"><ele>1717.0</ele><time>2026-03-28T13:04:19.999Z</time></trkpt><trkpt lat="46.51019204739299" lon="9.865334268935609"><ele>1717.0</ele><time>2026-03-28T13:04:20.999Z</time></trkpt><trkpt lat="46.510237112984555" lon="9.865568385927544"><ele>1717.0</ele><time>2026-03-28T13:04:21.999Z</time></trkpt><trkpt lat="46.51028559401784" lon="9.865804720723341"><ele>1717.3333333333335</ele><time>2026-03-28T13:04:22.999Z</time></trkpt><trkpt lat="46.51033417731595" lon="9.866040052145248"><ele>1717.6666666666665</ele><time>2026-03-28T13:04:23.999Z</time></trkpt><trkpt lat="46.510392513963374" lon="9.866282179309241"><ele>1718.0</ele><time>2026-03-28T13:04:24.999Z</time></trkpt><trkpt lat="46.51044425929071" lon="9.86652561526618"><ele>1717.3333333333333</ele><time>2026-03-28T13:04:25.999Z</time></trkpt><trkpt lat="46.51049551466292" lon="9.866776505302846"><ele>1716.6666666666665</ele><time>2026-03-28T13:04:26.999Z</time></trkpt><trkpt lat="46.51055499983569" lon="9.867025306456274"><ele>1716.0</ele><time>2026-03-28T13:04:27.999Z</time></trkpt><trkpt lat="46.51061038482937" lon="9.867264402825068"><ele>1715.6666666666665</ele><time>2026-03-28T13:04:28.999Z</time></trkpt><trkpt lat="46.51066344033076" lon="9.867514910398485"><ele>1715.3333333333333</ele><time>2026-03-28T13:04:29.999Z</time></trkpt><trkpt lat="46.51072382718331" lon="9.867762154353164"><ele>1715.0</ele><time>2026-03-28T13:04:30.999Z</time></trkpt><trkpt lat="46.510783849181315" lon="9.86801711963846"><ele>1714.6666666666665</ele><time>2026-03-28T13:04:31.999Z</time></trkpt><trkpt lat="46.510846186305066" lon="9.868261288691931"><ele>1714.3333333333335</ele><time>2026-03-28T13:04:32.999Z</time></trkpt><trkpt lat="46.51090624706521" lon="9.868513130015902"><ele>1714.0</ele><time>2026-03-28T13:04:33.999Z</time></trkpt><trkpt lat="46.510964440765534" lon="9.86875943277285"><ele>1714.6666666666667</ele><time>2026-03-28T13:04:34.999Z</time></trkpt><trkpt lat="46.511027501414674" lon="9.869011492865166"><ele>1715.3333333333335</ele><time>2026-03-28T13:04:35.999Z</time></trkpt><trkpt lat="46.5110870681307" lon="9.869251484255953"><ele>1716.0</ele><time>2026-03-28T13:04:36.999Z</time></trkpt><trkpt lat="46.51114957475241" lon="9.869494445947357"><ele>1716.3333333333335</ele><time>2026-03-28T13:04:37.999Z</time></trkpt><trkpt lat="46.5112189262268" lon="9.869736633261752"><ele>1716.6666666666667</ele><time>2026-03-28T13:04:38.999Z</time></trkpt><trkpt lat="46.51128547839019" lon="9.869983218242412"><ele>1717.0</ele><time>2026-03-28T13:04:39.999Z</time></trkpt><trkpt lat="46.511355637784824" lon="9.870227359385998"><ele>1717.3333333333335</ele><time>2026-03-28T13:04:40.999Z</time></trkpt><trkpt lat="46.51142210592416" lon="9.870473371829515"><ele>1717.6666666666665</ele><time>2026-03-28T13:04:41.999Z</time></trkpt><trkpt lat="46.511484281315795" lon="9.870727046699669"><ele>1718.0</ele><time>2026-03-28T13:04:42.999Z</time></trkpt><trkpt lat="46.5115582170746" lon="9.8709512445335"><ele>1719.3333333333333</ele><time>2026-03-28T13:04:43.999Z</time></trkpt><trkpt lat="46.51162635169933" lon="9.87117886050464"><ele>1720.6666666666665</ele><time>2026-03-28T13:04:44.999Z</time></trkpt><trkpt lat="46.511688482393744" lon="9.871387968348198"><ele>1722.0</ele><time>2026-03-28T13:04:45.999Z</time></trkpt><trkpt lat="46.51175271780556" lon="9.87159157454953"><ele>1723.3333333333335</ele><time>2026-03-28T13:04:46.999Z</time></trkpt><trkpt lat="46.51181969408137" lon="9.871807770932724"><ele>1724.6666666666667</ele><time>2026-03-28T13:04:47.999Z</time></trkpt><trkpt lat="46.511882945454936" lon="9.872029881802813"><ele>1726.0</ele><time>2026-03-28T13:04:48.999Z</time></trkpt><trkpt lat="46.51193710615762" lon="9.8722497451657"><ele>1726.0</ele><time>2026-03-28T13:04:49.999Z</time></trkpt><trkpt lat="46.51196859862855" lon="9.872494035132448"><ele>1726.0</ele><time>2026-03-28T13:04:50.999Z</time></trkpt><trkpt lat="46.511998078099886" lon="9.872738253712708"><ele>1726.0</ele><time>2026-03-28T13:04:51.999Z</time></trkpt><trkpt lat="46.512018420461516" lon="9.872988675248617"><ele>1726.6666666666667</ele><time>2026-03-28T13:04:52.999Z</time></trkpt><trkpt lat="46.5120267388048" lon="9.873240451217791"><ele>1727.3333333333335</ele><time>2026-03-28T13:04:53.999Z</time></trkpt><trkpt lat="46.51201606534341" lon="9.873484823764622"><ele>1728.0</ele><time>2026-03-28T13:04:54.999Z</time></trkpt><trkpt lat="46.512002128900235" lon="9.873721533469817"><ele>1728.3333333333335</ele><time>2026-03-28T13:04:55.999Z</time></trkpt><trkpt lat="46.51198444564497" lon="9.873947807390655"><ele>1728.6666666666667</ele><time>2026-03-28T13:04:56.999Z</time></trkpt><trkpt lat="46.511946314726785" lon="9.874154234632975"><ele>1729.0</ele><time>2026-03-28T13:04:57.999Z</time></trkpt><trkpt lat="46.51190320662638" lon="9.87437412754347"><ele>1728.3333333333335</ele><time>2026-03-28T13:04:58.999Z</time></trkpt><trkpt lat="46.511856762679024" lon="9.874582765426386"><ele>1727.6666666666665</ele><time>2026-03-28T13:04:59.999Z</time></trkpt><trkpt lat="46.51180258615168" lon="9.874784280623473"><ele>1727.0</ele><time>2026-03-28T13:05:00.999Z</time></trkpt><trkpt lat="46.51174716336702" lon="9.87499576972563"><ele>1726.0</ele><time>2026-03-28T13:05:01.999Z</time></trkpt><trkpt lat="46.511678246508055" lon="9.875206538054547"><ele>1725.0</ele><time>2026-03-28T13:05:02.999Z</time></trkpt><trkpt lat="46.511631233113874" lon="9.875461499352422"><ele>1724.0</ele><time>2026-03-28T13:05:03.999Z</time></trkpt><trkpt lat="46.511571064039565" lon="9.875727541985924"><ele>1723.3333333333333</ele><time>2026-03-28T13:05:04.999Z</time></trkpt><trkpt lat="46.51150358440521" lon="9.875971619966757"><ele>1722.6666666666665</ele><time>2026-03-28T13:05:05.999Z</time></trkpt><trkpt lat="46.511444573811936" lon="9.876185792154033"><ele>1722.0</ele><time>2026-03-28T13:05:06.999Z</time></trkpt><trkpt lat="46.511393300407995" lon="9.876396814348533"><ele>1722.0</ele><time>2026-03-28T13:05:07.999Z</time></trkpt><trkpt lat="46.51135345662981" lon="9.87657580046912"><ele>1722.0</ele><time>2026-03-28T13:05:08.999Z</time></trkpt><trkpt lat="46.511341095687506" lon="9.876752050635151"><ele>1722.0</ele><time>2026-03-28T13:05:09.999Z</time></trkpt><trkpt lat="46.51133954324857" lon="9.876910172424365"><ele>1722.0</ele><time>2026-03-28T13:05:10.999Z</time></trkpt><trkpt lat="46.51135407624417" lon="9.877057596645944"><ele>1722.5</ele><time>2026-03-28T13:05:11.999Z</time></trkpt><trkpt lat="46.51137350318133" lon="9.8771825904036"><ele>1723.0</ele><time>2026-03-28T13:05:12.999Z</time></trkpt><trkpt lat="46.51139042345319" lon="9.877284919546252"><ele>1723.5</ele><time>2026-03-28T13:05:13.999Z</time></trkpt><trkpt lat="46.511406696798694" lon="9.877391061075699"><ele>1724.0</ele><time>2026-03-28T13:05:14.999Z</time></trkpt><trkpt lat="46.511417417422344" lon="9.8774864934886"><ele>1724.5</ele><time>2026-03-28T13:05:15.999Z</time></trkpt><trkpt lat="46.51143909013778" lon="9.877636120269257"><ele>1725.0</ele><time>2026-03-28T13:05:18Z</time></trkpt><trkpt lat="46.51144631800448" lon="9.877781022443175"><ele>1725.4</ele><time>2026-03-28T13:05:20Z</time></trkpt><trkpt lat="46.51144628881576" lon="9.87794509758115"><ele>1725.8</ele><time>2026-03-28T13:05:22Z</time></trkpt><trkpt lat="46.5114482620594" lon="9.878121738701202"><ele>1726.1999999999998</ele><time>2026-03-28T13:05:24Z</time></trkpt><trkpt lat="46.511428889046925" lon="9.878260882496864"><ele>1726.6</ele><time>2026-03-28T13:05:26Z</time></trkpt><trkpt lat="46.511406560429435" lon="9.878383772430885"><ele>1727.0</ele><time>2026-03-28T13:05:28Z</time></trkpt><trkpt lat="46.51137440256716" lon="9.878515423719634"><ele>1726.9999999999998</ele><time>2026-03-28T13:05:30Z</time></trkpt><trkpt lat="46.511335289421424" lon="9.878601621054148"><ele>1727.0</ele><time>2026-03-28T13:05:31Z</time></trkpt><trkpt lat="46.51129804727601" lon="9.878677798531049"><ele>1727.0</ele><time>2026-03-28T13:05:32Z</time></trkpt><trkpt lat="46.511253015106554" lon="9.878830703661277"><ele>1727.0</ele><time>2026-03-28T13:05:34Z</time></trkpt><trkpt lat="46.51123439148159" lon="9.878918207396875"><ele>1726.9999999999998</ele><time>2026-03-28T13:05:35Z</time></trkpt><trkpt lat="46.51118473628774" lon="9.879020358365649"><ele>1727.0</ele><time>2026-03-28T13:05:36Z</time></trkpt><trkpt lat="46.51110753993008" lon="9.879133526624749"><ele>1727.0</ele><time>2026-03-28T13:05:37Z</time></trkpt><trkpt lat="46.51100124348342" lon="9.879215935175306"><ele>1727.0</ele><time>2026-03-28T13:05:38Z</time></trkpt><trkpt lat="46.5108994365736" lon="9.879304588745164"><ele>1727.0</ele><time>2026-03-28T13:05:39Z</time></trkpt><trkpt lat="46.51078486522662" lon="9.87942398090908"><ele>1727.0</ele><time>2026-03-28T13:05:40Z</time></trkpt><trkpt lat="46.51063854363767" lon="9.87952571261194"><ele>1726.6666666666665</ele><time>2026-03-28T13:05:41Z</time></trkpt><trkpt lat="46.51048010180818" lon="9.879659329620747"><ele>1726.3333333333335</ele><time>2026-03-28T13:05:42Z</time></trkpt><trkpt lat="46.51032191637517" lon="9.879793403257805"><ele>1726.0</ele><time>2026-03-28T13:05:43Z</time></trkpt><trkpt lat="46.5101739829745" lon="9.879940664933144"><ele>1727.3333333333335</ele><time>2026-03-28T13:05:44Z</time></trkpt><trkpt lat="46.51003595443214" lon="9.88006103839109"><ele>1728.6666666666665</ele><time>2026-03-28T13:05:45Z</time></trkpt><trkpt lat="46.509901356021516" lon="9.880184083361158"><ele>1730.0</ele><time>2026-03-28T13:05:46Z</time></trkpt><trkpt lat="46.50976494185194" lon="9.880318416600035"><ele>1730.3333333333333</ele><time>2026-03-28T13:05:47Z</time></trkpt><trkpt lat="46.50963140038608" lon="9.880464304183107"><ele>1730.6666666666665</ele><time>2026-03-28T13:05:48Z</time></trkpt><trkpt lat="46.50949495342931" lon="9.880624949786036"><ele>1731.0</ele><time>2026-03-28T13:05:49Z</time></trkpt><trkpt lat="46.509360374617025" lon="9.880792299621652"><ele>1732.0</ele><time>2026-03-28T13:05:50Z</time></trkpt><trkpt lat="46.50923431513666" lon="9.88095933730962"><ele>1733.0</ele><time>2026-03-28T13:05:51Z</time></trkpt><trkpt lat="46.509111897592476" lon="9.881132170514025"><ele>1734.0</ele><time>2026-03-28T13:05:52Z</time></trkpt><trkpt lat="46.50899641156027" lon="9.881312107361309"><ele>1734.0</ele><time>2026-03-28T13:05:53Z</time></trkpt><trkpt lat="46.508892921606886" lon="9.881486877563894"><ele>1734.0</ele><time>2026-03-28T13:05:54Z</time></trkpt><trkpt lat="46.50879469844215" lon="9.881665703846547"><ele>1734.0</ele><time>2026-03-28T13:05:55Z</time></trkpt><trkpt lat="46.50869538904984" lon="9.881856119581188"><ele>1734.0</ele><time>2026-03-28T13:05:56Z</time></trkpt><trkpt lat="46.50860247761029" lon="9.882056711062587"><ele>1734.0</ele><time>2026-03-28T13:05:57Z</time></trkpt><trkpt lat="46.50850530679975" lon="9.882256604439299"><ele>1734.0</ele><time>2026-03-28T13:05:58Z</time></trkpt><trkpt lat="46.508414607090316" lon="9.882481233583928"><ele>1736.3333333333335</ele><time>2026-03-28T13:05:59Z</time></trkpt><trkpt lat="46.50831701223932" lon="9.882698211836395"><ele>1738.6666666666667</ele><time>2026-03-28T13:06:00Z</time></trkpt><trkpt lat="46.50821900741764" lon="9.88290077727736"><ele>1741.0</ele><time>2026-03-28T13:06:01Z</time></trkpt><trkpt lat="46.50812543075428" lon="9.883086744644194"><ele>1741.0</ele><time>2026-03-28T13:06:02Z</time></trkpt><trkpt lat="46.508026095288116" lon="9.88327492762402"><ele>1741.0</ele><time>2026-03-28T13:06:03Z</time></trkpt><trkpt lat="46.50792370523937" lon="9.883464954999845"><ele>1741.0</ele><time>2026-03-28T13:06:04Z</time></trkpt><trkpt lat="46.50781881855656" lon="9.88365876659035"><ele>1740.0</ele><time>2026-03-28T13:06:05Z</time></trkpt><trkpt lat="46.50770948317613" lon="9.883847043989938"><ele>1739.0</ele><time>2026-03-28T13:06:06Z</time></trkpt><trkpt lat="46.50759198515671" lon="9.884044093473051"><ele>1738.0</ele><time>2026-03-28T13:06:07Z</time></trkpt><trkpt lat="46.5074513141176" lon="9.884223917929019"><ele>1737.3333333333335</ele><time>2026-03-28T13:06:08Z</time></trkpt><trkpt lat="46.5073117946084" lon="9.884410696204018"><ele>1736.6666666666665</ele><time>2026-03-28T13:06:09Z</time></trkpt><trkpt lat="46.50717600761193" lon="9.884588062673087"><ele>1736.0</ele><time>2026-03-28T13:06:10Z</time></trkpt><trkpt lat="46.507033035557264" lon="9.884764285956528"><ele>1736.0</ele><time>2026-03-28T13:06:11Z</time></trkpt><trkpt lat="46.50688305560291" lon="9.884943044481831"><ele>1736.0</ele><time>2026-03-28T13:06:12Z</time></trkpt><trkpt lat="46.50673256437994" lon="9.88512256322743"><ele>1736.0</ele><time>2026-03-28T13:06:13Z</time></trkpt><trkpt lat="46.50658432040743" lon="9.885297490549691"><ele>1737.6666666666665</ele><time>2026-03-28T13:06:14Z</time></trkpt><trkpt lat="46.50644891448972" lon="9.885459484607834"><ele>1739.3333333333335</ele><time>2026-03-28T13:06:15Z</time></trkpt><trkpt lat="46.506330784693844" lon="9.88562135519387"><ele>1741.0</ele><time>2026-03-28T13:06:16Z</time></trkpt><trkpt lat="46.506208742667255" lon="9.885757909756116"><ele>1741.0</ele><time>2026-03-28T13:06:17Z</time></trkpt><trkpt lat="46.50608673960653" lon="9.885890311228444"><ele>1741.0</ele><time>2026-03-28T13:06:18Z</time></trkpt><trkpt lat="46.505960470772926" lon="9.886015652214269"><ele>1741.0</ele><time>2026-03-28T13:06:19Z</time></trkpt><trkpt lat="46.50583003810332" lon="9.886117797911853"><ele>1743.25</ele><time>2026-03-28T13:06:20Z</time></trkpt><trkpt lat="46.50570106324018" lon="9.886193321591305"><ele>1745.5</ele><time>2026-03-28T13:06:21Z</time></trkpt><trkpt lat="46.505556661330886" lon="9.886270326945532"><ele>1747.75</ele><time>2026-03-28T13:06:22Z</time></trkpt><trkpt lat="46.50540660526289" lon="9.886296926780693"><ele>1750.0</ele><time>2026-03-28T13:06:23Z</time></trkpt><trkpt lat="46.505262237023295" lon="9.886323419812756"><ele>1750.25</ele><time>2026-03-28T13:06:24Z</time></trkpt><trkpt lat="46.50512317591347" lon="9.886358450989722"><ele>1750.5</ele><time>2026-03-28T13:06:25Z</time></trkpt><trkpt lat="46.5049903014505" lon="9.88639538501718"><ele>1750.75</ele><time>2026-03-28T13:06:26Z</time></trkpt><trkpt lat="46.504853276594325" lon="9.886433472576483"><ele>1751.0</ele><time>2026-03-28T13:06:27Z</time></trkpt><trkpt lat="46.50471114236148" lon="9.886474220733028"><ele>1750.5</ele><time>2026-03-28T13:06:28Z</time></trkpt><trkpt lat="46.504572721491" lon="9.886519279736916"><ele>1750.0</ele><time>2026-03-28T13:06:29Z</time></trkpt><trkpt lat="46.50444273531885" lon="9.886570385690403"><ele>1749.5</ele><time>2026-03-28T13:06:30Z</time></trkpt><trkpt lat="46.50431440316709" lon="9.886643833153883"><ele>1749.0</ele><time>2026-03-28T13:06:31Z</time></trkpt><trkpt lat="46.50418678140912" lon="9.886724503221961"><ele>1750.25</ele><time>2026-03-28T13:06:32Z</time></trkpt><trkpt lat="46.50405845341359" lon="9.886808350045909"><ele>1751.5</ele><time>2026-03-28T13:06:33Z</time></trkpt><trkpt lat="46.503936553922166" lon="9.88691955427394"><ele>1752.75</ele><time>2026-03-28T13:06:34Z</time></trkpt><trkpt lat="46.503807800487145" lon="9.887018443420358"><ele>1754.0</ele><time>2026-03-28T13:06:35Z</time></trkpt><trkpt lat="46.50368140848808" lon="9.88712401428858"><ele>1754.0</ele><time>2026-03-28T13:06:36Z</time></trkpt><trkpt lat="46.50353648108832" lon="9.88721433245905"><ele>1754.0</ele><time>2026-03-28T13:06:37Z</time></trkpt><trkpt lat="46.503404572611586" lon="9.887327447342114"><ele>1754.0</ele><time>2026-03-28T13:06:38Z</time></trkpt><trkpt lat="46.50328708764867" lon="9.88744820166482"><ele>1754.0</ele><time>2026-03-28T13:06:39Z</time></trkpt><trkpt lat="46.50314816722167" lon="9.887550231921221"><ele>1754.0</ele><time>2026-03-28T13:06:40Z</time></trkpt><trkpt lat="46.50299578378998" lon="9.887660393884882"><ele>1754.0</ele><time>2026-03-28T13:06:41Z</time></trkpt><trkpt lat="46.50284191141374" lon="9.887745415801191"><ele>1753.3333333333333</ele><time>2026-03-28T13:06:42Z</time></trkpt><trkpt lat="46.50268393485182" lon="9.887838137690963"><ele>1752.6666666666665</ele><time>2026-03-28T13:06:43Z</time></trkpt><trkpt lat="46.502516662533075" lon="9.887897384912412"><ele>1752.0</ele><time>2026-03-28T13:06:44Z</time></trkpt><trkpt lat="46.5023469327682" lon="9.887990156430504"><ele>1752.0</ele><time>2026-03-28T13:06:45Z</time></trkpt><trkpt lat="46.50213625995774" lon="9.888104294981577"><ele>1752.0</ele><time>2026-03-28T13:06:46Z</time></trkpt><trkpt lat="46.50189701978719" lon="9.888233165195686"><ele>1748.0</ele><time>2026-03-28T13:06:47Z</time></trkpt><trkpt lat="46.50163615573477" lon="9.888375637317449"><ele>1744.0</ele><time>2026-03-28T13:06:48Z</time></trkpt><trkpt lat="46.50137405535442" lon="9.888520152975106"><ele>1743.5</ele><time>2026-03-28T13:06:49Z</time></trkpt><trkpt lat="46.501142602649345" lon="9.888670242913141"><ele>1743.0</ele><time>2026-03-28T13:06:50Z</time></trkpt><trkpt lat="46.500908242965636" lon="9.888787818721388"><ele>1743.0</ele><time>2026-03-28T13:06:51Z</time></trkpt><trkpt lat="46.50067723805003" lon="9.888911148321785"><ele>1743.0</ele><time>2026-03-28T13:06:52Z</time></trkpt><trkpt lat="46.5004404219134" lon="9.889049800359142"><ele>1743.0</ele><time>2026-03-28T13:06:53Z</time></trkpt><trkpt lat="46.500208285366114" lon="9.889189110074902"><ele>1743.0</ele><time>2026-03-28T13:06:54Z</time></trkpt><trkpt lat="46.49997876735932" lon="9.889328029567714"><ele>1743.0</ele><time>2026-03-28T13:06:55Z</time></trkpt><trkpt lat="46.499760395225344" lon="9.88946075552943"><ele>1743.0</ele><time>2026-03-28T13:06:56Z</time></trkpt><trkpt lat="46.499539280645386" lon="9.889603705464525"><ele>1745.5</ele><time>2026-03-28T13:06:57Z</time></trkpt><trkpt lat="46.49931152650842" lon="9.889757280690644"><ele>1748.0</ele><time>2026-03-28T13:06:58Z</time></trkpt><trkpt lat="46.49908853521411" lon="9.8899129213923"><ele>1748.0</ele><time>2026-03-28T13:06:59Z</time></trkpt><trkpt lat="46.49885962238014" lon="9.89008517378208"><ele>1748.0</ele><time>2026-03-28T13:07:00Z</time></trkpt><trkpt lat="46.4986402900849" lon="9.890258735381966"><ele>1748.5</ele><time>2026-03-28T13:07:01Z</time></trkpt><trkpt lat="46.49842379887011" lon="9.89044263805455"><ele>1749.0</ele><time>2026-03-28T13:07:01.999Z</time></trkpt><trkpt lat="46.49820399289387" lon="9.890636033995035"><ele>1749.0</ele><time>2026-03-28T13:07:02.999Z</time></trkpt><trkpt lat="46.497985495346306" lon="9.890836134330353"><ele>1749.0</ele><time>2026-03-28T13:07:03.999Z</time></trkpt><trkpt lat="46.497767566066784" lon="9.891030693087204"><ele>1751.0</ele><time>2026-03-28T13:07:04.999Z</time></trkpt><trkpt lat="46.497551247718874" lon="9.891240845119057"><ele>1753.0</ele><time>2026-03-28T13:07:05.999Z</time></trkpt><trkpt lat="46.49733829017981" lon="9.891451554277948"><ele>1753.0</ele><time>2026-03-28T13:07:06.999Z</time></trkpt><trkpt lat="46.4971306978163" lon="9.891662471811362"><ele>1753.0</ele><time>2026-03-28T13:07:07.999Z</time></trkpt><trkpt lat="46.49691865475045" lon="9.891880175559566"><ele>1752.0</ele><time>2026-03-28T13:07:08.999Z</time></trkpt><trkpt lat="46.49670610332628" lon="9.892086811375988"><ele>1751.0</ele><time>2026-03-28T13:07:09.999Z</time></trkpt><trkpt lat="46.49649336010111" lon="9.892300033666402"><ele>1751.0</ele><time>2026-03-28T13:07:10.999Z</time></trkpt><trkpt lat="46.49628316652585" lon="9.892521103537806"><ele>1751.0</ele><time>2026-03-28T13:07:11.999Z</time></trkpt><trkpt lat="46.49607045600633" lon="9.892743104309885"><ele>1752.5</ele><time>2026-03-28T13:07:12.999Z</time></trkpt><trkpt lat="46.4958546815236" lon="9.892964707660333"><ele>1754.0</ele><time>2026-03-28T13:07:13.999Z</time></trkpt><trkpt lat="46.495640513437074" lon="9.89318327697841"><ele>1754.0</ele><time>2026-03-28T13:07:14.999Z</time></trkpt><trkpt lat="46.495428524344476" lon="9.89339888773787"><ele>1754.0</ele><time>2026-03-28T13:07:15.999Z</time></trkpt><trkpt lat="46.49521922052777" lon="9.893614406094633"><ele>1754.0</ele><time>2026-03-28T13:07:16.999Z</time></trkpt><trkpt lat="46.49501340656042" lon="9.893834100606234"><ele>1754.0</ele><time>2026-03-28T13:07:17.999Z</time></trkpt><trkpt lat="46.494803277318006" lon="9.89404964561071"><ele>1755.5</ele><time>2026-03-28T13:07:18.999Z</time></trkpt><trkpt lat="46.494595384371024" lon="9.894259683525496"><ele>1757.0</ele><time>2026-03-28T13:07:19.999Z</time></trkpt><trkpt lat="46.49438525063935" lon="9.894472873968093"><ele>1757.0</ele><time>2026-03-28T13:07:20.999Z</time></trkpt><trkpt lat="46.49417722991447" lon="9.8946919027206"><ele>1757.0</ele><time>2026-03-28T13:07:21.999Z</time></trkpt><trkpt lat="46.49397338744225" lon="9.894906759446396"><ele>1761.0</ele><time>2026-03-28T13:07:23Z</time></trkpt><trkpt lat="46.49376958871209" lon="9.895117193059706"><ele>1765.0</ele><time>2026-03-28T13:07:24Z</time></trkpt><trkpt lat="46.49355966594867" lon="9.89532884655713"><ele>1765.0</ele><time>2026-03-28T13:07:25Z</time></trkpt><trkpt lat="46.49335084778377" lon="9.895544498762305"><ele>1765.0</ele><time>2026-03-28T13:07:26Z</time></trkpt><trkpt lat="46.493144392960204" lon="9.89576263306588"><ele>1765.5</ele><time>2026-03-28T13:07:27Z</time></trkpt><trkpt lat="46.49293394123453" lon="9.895980973534764"><ele>1766.0</ele><time>2026-03-28T13:07:28Z</time></trkpt><trkpt lat="46.49272711461637" lon="9.8961930703708"><ele>1766.0</ele><time>2026-03-28T13:07:29Z</time></trkpt><trkpt lat="46.49253029115235" lon="9.896401193035219"><ele>1766.0</ele><time>2026-03-28T13:07:30Z</time></trkpt><trkpt lat="46.492338741902024" lon="9.896626859659834"><ele>1766.0</ele><time>2026-03-28T13:07:31Z</time></trkpt><trkpt lat="46.49216500148636" lon="9.896860052236034"><ele>1766.0</ele><time>2026-03-28T13:07:32Z</time></trkpt><trkpt lat="46.492011416719016" lon="9.897110204359404"><ele>1765.6666666666665</ele><time>2026-03-28T13:07:33Z</time></trkpt><trkpt lat="46.49185314127441" lon="9.897346294737778"><ele>1765.3333333333335</ele><time>2026-03-28T13:07:34Z</time></trkpt><trkpt lat="46.4917133558154" lon="9.897563211538086"><ele>1765.0</ele><time>2026-03-28T13:07:35Z</time></trkpt><trkpt lat="46.49164999729714" lon="9.897857937570263"><ele>1766.25</ele><time>2026-03-28T13:07:36Z</time></trkpt><trkpt lat="46.491571795028726" lon="9.898069709870612"><ele>1767.5</ele><time>2026-03-28T13:07:37Z</time></trkpt><trkpt lat="46.49150667993464" lon="9.89825393046255"><ele>1768.75</ele><time>2026-03-28T13:07:38Z</time></trkpt><trkpt lat="46.4914539834896" lon="9.898404236890432"><ele>1770.0</ele><time>2026-03-28T13:07:39Z</time></trkpt><trkpt lat="46.491397178516195" lon="9.898536144982753"><ele>1771.6</ele><time>2026-03-28T13:07:40Z</time></trkpt><trkpt lat="46.49133502175102" lon="9.898644448756729"><ele>1773.2</ele><time>2026-03-28T13:07:41Z</time></trkpt><trkpt lat="46.491274786451136" lon="9.898735262513874"><ele>1774.8000000000002</ele><time>2026-03-28T13:07:42Z</time></trkpt><trkpt lat="46.49124448471012" lon="9.898849951911702"><ele>1776.4</ele><time>2026-03-28T13:07:43Z</time></trkpt><trkpt lat="46.49124898391383" lon="9.898990031023295"><ele>1778.0</ele><time>2026-03-28T13:07:44Z</time></trkpt><trkpt lat="46.49127160492355" lon="9.899165377807469"><ele>1778.6666666666665</ele><time>2026-03-28T13:07:45Z</time></trkpt><trkpt lat="46.49124916620158" lon="9.899360718716443"><ele>1779.3333333333335</ele><time>2026-03-28T13:07:46Z</time></trkpt><trkpt lat="46.49119439563035" lon="9.899570229602043"><ele>1780.0</ele><time>2026-03-28T13:07:47Z</time></trkpt><trkpt lat="46.49113468763082" lon="9.899790486669291"><ele>1780.0</ele><time>2026-03-28T13:07:48Z</time></trkpt><trkpt lat="46.49107892397377" lon="9.900006795764764"><ele>1780.0</ele><time>2026-03-28T13:07:49Z</time></trkpt><trkpt lat="46.49102100761037" lon="9.900226054818535"><ele>1780.0</ele><time>2026-03-28T13:07:50Z</time></trkpt><trkpt lat="46.490952568806804" lon="9.900452545412675"><ele>1781.6666666666667</ele><time>2026-03-28T13:07:51Z</time></trkpt><trkpt lat="46.4908765414364" lon="9.900684054422827"><ele>1783.3333333333335</ele><time>2026-03-28T13:07:52Z</time></trkpt><trkpt lat="46.490792095920675" lon="9.90090047395889"><ele>1785.0</ele><time>2026-03-28T13:07:53Z</time></trkpt><trkpt lat="46.49070711523456" lon="9.901111313563009"><ele>1785.6666666666665</ele><time>2026-03-28T13:07:54Z</time></trkpt><trkpt lat="46.49061874055306" lon="9.901321521400927"><ele>1786.3333333333333</ele><time>2026-03-28T13:07:55Z</time></trkpt><trkpt lat="46.49052053385554" lon="9.901536723980488"><ele>1787.0</ele><time>2026-03-28T13:07:56Z</time></trkpt><trkpt lat="46.49041123584694" lon="9.901750408406926"><ele>1790.0</ele><time>2026-03-28T13:07:57Z</time></trkpt><trkpt lat="46.49029780063261" lon="9.90195481620833"><ele>1793.0</ele><time>2026-03-28T13:07:58Z</time></trkpt><trkpt lat="46.49017974717077" lon="9.902157252791689"><ele>1796.0</ele><time>2026-03-28T13:07:59Z</time></trkpt><trkpt lat="46.490052780986524" lon="9.902360928813609"><ele>1796.0</ele><time>2026-03-28T13:08:00Z</time></trkpt><trkpt lat="46.48992672081001" lon="9.902554219391003"><ele>1796.0</ele><time>2026-03-28T13:08:01Z</time></trkpt><trkpt lat="46.48979604201249" lon="9.902733142009806"><ele>1796.0</ele><time>2026-03-28T13:08:02Z</time></trkpt><trkpt lat="46.48965805714757" lon="9.902905160733505"><ele>1799.3333333333333</ele><time>2026-03-28T13:08:03Z</time></trkpt><trkpt lat="46.48951269293021" lon="9.903069934251771"><ele>1802.6666666666665</ele><time>2026-03-28T13:08:04Z</time></trkpt><trkpt lat="46.48935915501349" lon="9.90323137587098"><ele>1806.0</ele><time>2026-03-28T13:08:05Z</time></trkpt><trkpt lat="46.48919660867164" lon="9.903376050337215"><ele>1808.0</ele><time>2026-03-28T13:08:06Z</time></trkpt><trkpt lat="46.48903059412374" lon="9.903523775207118"><ele>1810.0</ele><time>2026-03-28T13:08:07Z</time></trkpt><trkpt lat="46.48886826481607" lon="9.903666988232844"><ele>1812.0</ele><time>2026-03-28T13:08:08Z</time></trkpt><trkpt lat="46.48870735730093" lon="9.903801881879351"><ele>1812.3333333333335</ele><time>2026-03-28T13:08:09Z</time></trkpt><trkpt lat="46.488539540694426" lon="9.90394708855168"><ele>1812.6666666666667</ele><time>2026-03-28T13:08:10Z</time></trkpt><trkpt lat="46.48836308239363" lon="9.904083257976634"><ele>1813.0</ele><time>2026-03-28T13:08:11Z</time></trkpt><trkpt lat="46.488188908196335" lon="9.904239471836146"><ele>1814.3333333333335</ele><time>2026-03-28T13:08:12Z</time></trkpt><trkpt lat="46.48801763987762" lon="9.904416075791085"><ele>1815.6666666666665</ele><time>2026-03-28T13:08:13Z</time></trkpt><trkpt lat="46.487844423328355" lon="9.90461063177693"><ele>1817.0</ele><time>2026-03-28T13:08:14Z</time></trkpt><trkpt lat="46.48767753363015" lon="9.90481671733056"><ele>1817.3333333333333</ele><time>2026-03-28T13:08:15Z</time></trkpt><trkpt lat="46.48751849487285" lon="9.905045955356654"><ele>1817.6666666666665</ele><time>2026-03-28T13:08:16Z</time></trkpt><trkpt lat="46.487375104061954" lon="9.905297237814853"><ele>1818.0</ele><time>2026-03-28T13:08:17Z</time></trkpt><trkpt lat="46.48724040270443" lon="9.905529899835596"><ele>1816.3333333333335</ele><time>2026-03-28T13:08:18Z</time></trkpt><trkpt lat="46.4871129060314" lon="9.905777513045283"><ele>1814.6666666666667</ele><time>2026-03-28T13:08:19Z</time></trkpt><trkpt lat="46.486990237322345" lon="9.906020794675785"><ele>1813.0</ele><time>2026-03-28T13:08:20Z</time></trkpt><trkpt lat="46.486871148333734" lon="9.906251408853057"><ele>1811.6666666666667</ele><time>2026-03-28T13:08:21Z</time></trkpt><trkpt lat="46.486748005285385" lon="9.906479871721636"><ele>1810.3333333333335</ele><time>2026-03-28T13:08:22Z</time></trkpt><trkpt lat="46.48663133892809" lon="9.906715403081249"><ele>1809.0</ele><time>2026-03-28T13:08:23Z</time></trkpt><trkpt lat="46.486510918823996" lon="9.906946781688164"><ele>1812.3333333333335</ele><time>2026-03-28T13:08:24Z</time></trkpt><trkpt lat="46.486385391222946" lon="9.90718539025882"><ele>1815.6666666666667</ele><time>2026-03-28T13:08:25Z</time></trkpt><trkpt lat="46.4862627223477" lon="9.90742265510275"><ele>1819.0</ele><time>2026-03-28T13:08:26Z</time></trkpt><trkpt lat="46.48614240279207" lon="9.907663534437015"><ele>1819.3333333333335</ele><time>2026-03-28T13:08:27Z</time></trkpt><trkpt lat="46.48601440853188" lon="9.907910443976714"><ele>1819.6666666666665</ele><time>2026-03-28T13:08:28Z</time></trkpt><trkpt lat="46.48589091586736" lon="9.908153465938948"><ele>1820.0</ele><time>2026-03-28T13:08:29Z</time></trkpt><trkpt lat="46.48577338133879" lon="9.908393165837875"><ele>1820.3333333333333</ele><time>2026-03-28T13:08:30Z</time></trkpt><trkpt lat="46.48565324265917" lon="9.908625132802737"><ele>1820.6666666666665</ele><time>2026-03-28T13:08:31Z</time></trkpt><trkpt lat="46.48553529660259" lon="9.908856504922197"><ele>1821.0</ele><time>2026-03-28T13:08:32Z</time></trkpt><trkpt lat="46.48541978917174" lon="9.90908639794271"><ele>1822.0</ele><time>2026-03-28T13:08:33Z</time></trkpt><trkpt lat="46.48530107216422" lon="9.909315587546324"><ele>1823.0</ele><time>2026-03-28T13:08:34Z</time></trkpt><trkpt lat="46.48518527750328" lon="9.909543807874174"><ele>1824.0</ele><time>2026-03-28T13:08:35Z</time></trkpt><trkpt lat="46.48506726900361" lon="9.909769396693472"><ele>1824.0</ele><time>2026-03-28T13:08:36Z</time></trkpt><trkpt lat="46.48494412737857" lon="9.90999619444991"><ele>1824.0</ele><time>2026-03-28T13:08:37Z</time></trkpt><trkpt lat="46.484818282837765" lon="9.91022360654793"><ele>1824.0</ele><time>2026-03-28T13:08:38Z</time></trkpt><trkpt lat="46.48468637024763" lon="9.910445491187408"><ele>1823.0</ele><time>2026-03-28T13:08:39Z</time></trkpt><trkpt lat="46.484551594526366" lon="9.910670087201822"><ele>1822.0</ele><time>2026-03-28T13:08:40Z</time></trkpt><trkpt lat="46.484402694590706" lon="9.910898861774498"><ele>1821.0</ele><time>2026-03-28T13:08:41Z</time></trkpt><trkpt lat="46.48425151192459" lon="9.911121701435567"><ele>1824.0</ele><time>2026-03-28T13:08:42Z</time></trkpt><trkpt lat="46.48409648550694" lon="9.911351490262131"><ele>1827.0</ele><time>2026-03-28T13:08:43Z</time></trkpt><trkpt lat="46.48393933226227" lon="9.911582649264101"><ele>1830.0</ele><time>2026-03-28T13:08:44Z</time></trkpt><trkpt lat="46.48378750293945" lon="9.911813263443307"><ele>1827.6666666666665</ele><time>2026-03-28T13:08:45Z</time></trkpt><trkpt lat="46.48361965111958" lon="9.912020408662451"><ele>1825.3333333333333</ele><time>2026-03-28T13:08:46Z</time></trkpt><trkpt lat="46.483483227086026" lon="9.912272343415834"><ele>1823.0</ele><time>2026-03-28T13:08:47Z</time></trkpt><trkpt lat="46.48332882061819" lon="9.912482418602986"><ele>1823.6666666666665</ele><time>2026-03-28T13:08:48Z</time></trkpt><trkpt lat="46.48316566092375" lon="9.912683316700516"><ele>1824.3333333333335</ele><time>2026-03-28T13:08:49Z</time></trkpt><trkpt lat="46.482990928758305" lon="9.912881383784741"><ele>1825.0</ele><time>2026-03-28T13:08:50Z</time></trkpt><trkpt lat="46.48279867890059" lon="9.913093035357287"><ele>1825.0</ele><time>2026-03-28T13:08:51Z</time></trkpt><trkpt lat="46.48264889460157" lon="9.913294647471584"><ele>1825.0</ele><time>2026-03-28T13:08:52Z</time></trkpt><trkpt lat="46.482493551327224" lon="9.913523193777682"><ele>1825.0</ele><time>2026-03-28T13:08:53Z</time></trkpt><trkpt lat="46.48242439603542" lon="9.913813407869645"><ele>1826.0</ele><time>2026-03-28T13:08:54Z</time></trkpt><trkpt lat="46.48227148148365" lon="9.914038527490241"><ele>1827.0</ele><time>2026-03-28T13:08:55Z</time></trkpt><trkpt lat="46.48211469467258" lon="9.914262324635075"><ele>1828.0</ele><time>2026-03-28T13:08:55.999Z</time></trkpt><trkpt lat="46.48196346919226" lon="9.914487554497514"><ele>1828.0</ele><time>2026-03-28T13:08:56.999Z</time></trkpt><trkpt lat="46.48181350970312" lon="9.91470758819988"><ele>1828.0</ele><time>2026-03-28T13:08:57.999Z</time></trkpt><trkpt lat="46.48165650953561" lon="9.914904879210631"><ele>1828.0</ele><time>2026-03-28T13:08:58.999Z</time></trkpt><trkpt lat="46.48151593281996" lon="9.915108952338596"><ele>1828.0</ele><time>2026-03-28T13:08:59.999Z</time></trkpt><trkpt lat="46.48137619444904" lon="9.9153159493594"><ele>1828.0</ele><time>2026-03-28T13:09:00.999Z</time></trkpt><trkpt lat="46.48125269093516" lon="9.915546854697604"><ele>1828.0</ele><time>2026-03-28T13:09:01.999Z</time></trkpt><trkpt lat="46.48111713680045" lon="9.915758503900506"><ele>1829.3333333333335</ele><time>2026-03-28T13:09:02.999Z</time></trkpt><trkpt lat="46.480990227451116" lon="9.915983158905055"><ele>1830.6666666666665</ele><time>2026-03-28T13:09:03.999Z</time></trkpt><trkpt lat="46.48086852526702" lon="9.916222999158801"><ele>1832.0</ele><time>2026-03-28T13:09:04.999Z</time></trkpt><trkpt lat="46.48075277596962" lon="9.916471716892733"><ele>1832.0</ele><time>2026-03-28T13:09:05.999Z</time></trkpt><trkpt lat="46.48064311064655" lon="9.916716096722437"><ele>1832.0</ele><time>2026-03-28T13:09:06.999Z</time></trkpt><trkpt lat="46.48053737409252" lon="9.9169645590457"><ele>1832.0</ele><time>2026-03-28T13:09:07.999Z</time></trkpt><trkpt lat="46.48042484627345" lon="9.91721927341815"><ele>1831.6666666666665</ele><time>2026-03-28T13:09:08.999Z</time></trkpt><trkpt lat="46.48029933249644" lon="9.917462974947522"><ele>1831.3333333333335</ele><time>2026-03-28T13:09:09.999Z</time></trkpt><trkpt lat="46.48018400785155" lon="9.917721353359143"><ele>1831.0</ele><time>2026-03-28T13:09:10.999Z</time></trkpt><trkpt lat="46.48006787199253" lon="9.917981548220324"><ele>1832.0</ele><time>2026-03-28T13:09:11.999Z</time></trkpt><trkpt lat="46.479960766088276" lon="9.918254018991075"><ele>1833.0</ele><time>2026-03-28T13:09:12.999Z</time></trkpt><trkpt lat="46.479839503344294" lon="9.918518107743694"><ele>1834.0</ele><time>2026-03-28T13:09:13.999Z</time></trkpt><trkpt lat="46.47971893866091" lon="9.918788652741569"><ele>1834.6666666666667</ele><time>2026-03-28T13:09:14.999Z</time></trkpt><trkpt lat="46.47959704778658" lon="9.919056478282425"><ele>1835.3333333333335</ele><time>2026-03-28T13:09:15.999Z</time></trkpt><trkpt lat="46.479468190540075" lon="9.919327326660389"><ele>1836.0</ele><time>2026-03-28T13:09:16.999Z</time></trkpt><trkpt lat="46.47934979693455" lon="9.919611551554556"><ele>1836.0</ele><time>2026-03-28T13:09:17.999Z</time></trkpt><trkpt lat="46.479198209660524" lon="9.919855506857994"><ele>1836.0</ele><time>2026-03-28T13:09:18.999Z</time></trkpt><trkpt lat="46.4790506789422" lon="9.920115566540087"><ele>1834.0</ele><time>2026-03-28T13:09:19.999Z</time></trkpt><trkpt lat="46.478860051949255" lon="9.920325188450569"><ele>1832.0</ele><time>2026-03-28T13:09:20.999Z</time></trkpt><trkpt lat="46.478664031522634" lon="9.920538937703965"><ele>1832.0</ele><time>2026-03-28T13:09:21.999Z</time></trkpt><trkpt lat="46.4784578777464" lon="9.920752627666964"><ele>1832.0</ele><time>2026-03-28T13:09:22.999Z</time></trkpt><trkpt lat="46.47826027494033" lon="9.920982863123387"><ele>1835.0</ele><time>2026-03-28T13:09:23.999Z</time></trkpt><trkpt lat="46.47805163413379" lon="9.921189668298785"><ele>1838.0</ele><time>2026-03-28T13:09:24.999Z</time></trkpt><trkpt lat="46.47784552954865" lon="9.9214050741445"><ele>1838.0</ele><time>2026-03-28T13:09:25.999Z</time></trkpt><trkpt lat="46.47764223255988" lon="9.92161060929481"><ele>1838.0</ele><time>2026-03-28T13:09:26.999Z</time></trkpt><trkpt lat="46.4774433995261" lon="9.92181618501533"><ele>1841.0</ele><time>2026-03-28T13:09:27.999Z</time></trkpt><trkpt lat="46.47724304663672" lon="9.921997348523234"><ele>1844.0</ele><time>2026-03-28T13:09:29.001Z</time></trkpt><trkpt lat="46.47704960331388" lon="9.922197216773906"><ele>1844.0</ele><time>2026-03-28T13:09:30.001Z</time></trkpt><trkpt lat="46.47686523528765" lon="9.922396940998354"><ele>1844.0</ele><time>2026-03-28T13:09:31.001Z</time></trkpt><trkpt lat="46.47666470610785" lon="9.922572509570696"><ele>1848.0</ele><time>2026-03-28T13:09:32.001Z</time></trkpt><trkpt lat="46.47644894471684" lon="9.92271176560815"><ele>1852.0</ele><time>2026-03-28T13:09:33.001Z</time></trkpt><trkpt lat="46.476224708135916" lon="9.922846199187445"><ele>1852.0</ele><time>2026-03-28T13:09:34.001Z</time></trkpt><trkpt lat="46.47599795429692" lon="9.922953056352396"><ele>1852.0</ele><time>2026-03-28T13:09:35.001Z</time></trkpt><trkpt lat="46.475764989333825" lon="9.923028592701723"><ele>1852.0</ele><time>2026-03-28T13:09:36.001Z</time></trkpt><trkpt lat="46.475528899680604" lon="9.923083394501708"><ele>1852.0</ele><time>2026-03-28T13:09:37.001Z</time></trkpt><trkpt lat="46.4752956156757" lon="9.923122643348574"><ele>1848.5</ele><time>2026-03-28T13:09:38.001Z</time></trkpt><trkpt lat="46.475064111245395" lon="9.92316235293906"><ele>1845.0</ele><time>2026-03-28T13:09:39.001Z</time></trkpt><trkpt lat="46.4748420785167" lon="9.923226198329724"><ele>1845.0</ele><time>2026-03-28T13:09:40.001Z</time></trkpt><trkpt lat="46.47463897575682" lon="9.923338486191795"><ele>1845.0</ele><time>2026-03-28T13:09:41.001Z</time></trkpt><trkpt lat="46.4744503203218" lon="9.92350480532058"><ele>1845.0</ele><time>2026-03-28T13:09:42.001Z</time></trkpt><trkpt lat="46.47428148167648" lon="9.923719372473782"><ele>1846.5</ele><time>2026-03-28T13:09:43.001Z</time></trkpt><trkpt lat="46.47413697308642" lon="9.923977264266988"><ele>1848.0</ele><time>2026-03-28T13:09:44.001Z</time></trkpt><trkpt lat="46.473985776646984" lon="9.924253767379929"><ele>1846.0</ele><time>2026-03-28T13:09:45Z</time></trkpt><trkpt lat="46.47382244384573" lon="9.924513499915424"><ele>1844.0</ele><time>2026-03-28T13:09:46Z</time></trkpt><trkpt lat="46.47363462165802" lon="9.924730081177305"><ele>1844.0</ele><time>2026-03-28T13:09:47Z</time></trkpt><trkpt lat="46.47342782718699" lon="9.924915712898326"><ele>1844.0</ele><time>2026-03-28T13:09:48Z</time></trkpt><trkpt lat="46.473219785411345" lon="9.925096775133522"><ele>1845.5</ele><time>2026-03-28T13:09:49Z</time></trkpt><trkpt lat="46.47301456372377" lon="9.925286221873295"><ele>1847.0</ele><time>2026-03-28T13:09:50Z</time></trkpt><trkpt lat="46.472812771705144" lon="9.925476783012158"><ele>1847.0</ele><time>2026-03-28T13:09:51Z</time></trkpt><trkpt lat="46.47261851041391" lon="9.925662113844439"><ele>1847.0</ele><time>2026-03-28T13:09:52Z</time></trkpt><trkpt lat="46.47243063054025" lon="9.925832113567166"><ele>1848.6666666666665</ele><time>2026-03-28T13:09:53Z</time></trkpt><trkpt lat="46.472244703135516" lon="9.926004971595173"><ele>1850.3333333333335</ele><time>2026-03-28T13:09:54Z</time></trkpt><trkpt lat="46.4720526313208" lon="9.926171313915685"><ele>1852.0</ele><time>2026-03-28T13:09:55Z</time></trkpt><trkpt lat="46.471864726638096" lon="9.926344011652647"><ele>1852.0</ele><time>2026-03-28T13:09:56Z</time></trkpt><trkpt lat="46.471675945444275" lon="9.926517305570695"><ele>1852.0</ele><time>2026-03-28T13:09:57Z</time></trkpt><trkpt lat="46.47148395342771" lon="9.926691179405488"><ele>1854.0</ele><time>2026-03-28T13:09:58Z</time></trkpt><trkpt lat="46.4712886731352" lon="9.926865659075936"><ele>1856.0</ele><time>2026-03-28T13:09:59Z</time></trkpt><trkpt lat="46.4710864769261" lon="9.92703497670031"><ele>1856.0</ele><time>2026-03-28T13:10:00Z</time></trkpt><trkpt lat="46.470877854218834" lon="9.927195599316681"><ele>1856.0</ele><time>2026-03-28T13:10:01Z</time></trkpt><trkpt lat="46.47066442225054" lon="9.927347103052234"><ele>1856.0</ele><time>2026-03-28T13:10:02Z</time></trkpt><trkpt lat="46.470448114863004" lon="9.927491781156624"><ele>1856.0</ele><time>2026-03-28T13:10:03Z</time></trkpt><trkpt lat="46.47023475552131" lon="9.927644124932858"><ele>1858.0</ele><time>2026-03-28T13:10:04Z</time></trkpt><trkpt lat="46.470026460339426" lon="9.927800833716793"><ele>1860.0</ele><time>2026-03-28T13:10:05Z</time></trkpt><trkpt lat="46.4698137521388" lon="9.92795714244183"><ele>1860.5</ele><time>2026-03-28T13:10:06Z</time></trkpt><trkpt lat="46.46959836416885" lon="9.928115613090986"><ele>1861.0</ele><time>2026-03-28T13:10:07Z</time></trkpt><trkpt lat="46.46938482475576" lon="9.928277770250567"><ele>1862.5</ele><time>2026-03-28T13:10:08Z</time></trkpt><trkpt lat="46.46916844933316" lon="9.928437680337666"><ele>1864.0</ele><time>2026-03-28T13:10:09Z</time></trkpt><trkpt lat="46.46895293461224" lon="9.92859788665395"><ele>1863.0</ele><time>2026-03-28T13:10:10Z</time></trkpt><trkpt lat="46.46873978997785" lon="9.928752074073198"><ele>1862.0</ele><time>2026-03-28T13:10:11Z</time></trkpt><trkpt lat="46.4685252918359" lon="9.92891078519013"><ele>1862.0</ele><time>2026-03-28T13:10:12Z</time></trkpt><trkpt lat="46.46831067614886" lon="9.929070628156222"><ele>1862.0</ele><time>2026-03-28T13:10:13Z</time></trkpt><trkpt lat="46.46809882716649" lon="9.929241622044017"><ele>1865.0</ele><time>2026-03-28T13:10:14Z</time></trkpt><trkpt lat="46.46789763971867" lon="9.92943084863894"><ele>1868.0</ele><time>2026-03-28T13:10:15Z</time></trkpt><trkpt lat="46.46770370204092" lon="9.929641640417664"><ele>1868.0</ele><time>2026-03-28T13:10:16Z</time></trkpt><trkpt lat="46.46750861373291" lon="9.929872342577864"><ele>1868.0</ele><time>2026-03-28T13:10:17Z</time></trkpt><trkpt lat="46.46730568306786" lon="9.930120023816377"><ele>1867.5</ele><time>2026-03-28T13:10:18Z</time></trkpt><trkpt lat="46.467099179456156" lon="9.930378586059918"><ele>1867.0</ele><time>2026-03-28T13:10:19Z</time></trkpt><trkpt lat="46.466894212116806" lon="9.930607677294315"><ele>1867.0</ele><time>2026-03-28T13:10:20Z</time></trkpt><trkpt lat="46.466696848303066" lon="9.930818066230557"><ele>1867.0</ele><time>2026-03-28T13:10:21Z</time></trkpt><trkpt lat="46.46650831070652" lon="9.931012069658909"><ele>1868.0</ele><time>2026-03-28T13:10:22Z</time></trkpt><trkpt lat="46.466328302933746" lon="9.93122100583403"><ele>1869.0</ele><time>2026-03-28T13:10:23Z</time></trkpt><trkpt lat="46.46615959942189" lon="9.93145671091914"><ele>1874.0</ele><time>2026-03-28T13:10:24Z</time></trkpt><trkpt lat="46.46600301967648" lon="9.931726965812466"><ele>1879.0</ele><time>2026-03-28T13:10:25Z</time></trkpt><trkpt lat="46.46585803376656" lon="9.932027660788835"><ele>1879.0</ele><time>2026-03-28T13:10:26Z</time></trkpt><trkpt lat="46.46569268007133" lon="9.932312451497447"><ele>1879.0</ele><time>2026-03-28T13:10:27Z</time></trkpt><trkpt lat="46.46550350395314" lon="9.932548251873868"><ele>1881.0</ele><time>2026-03-28T13:10:28Z</time></trkpt><trkpt lat="46.4652934704626" lon="9.932728059738995"><ele>1883.0</ele><time>2026-03-28T13:10:29Z</time></trkpt><trkpt lat="46.465066790036" lon="9.932868532998192"><ele>1883.0</ele><time>2026-03-28T13:10:30Z</time></trkpt><trkpt lat="46.464841027015794" lon="9.933006299327843"><ele>1883.0</ele><time>2026-03-28T13:10:31Z</time></trkpt><trkpt lat="46.46464135903476" lon="9.933168888041571"><ele>1882.3333333333333</ele><time>2026-03-28T13:10:32Z</time></trkpt><trkpt lat="46.46446783144873" lon="9.933354681401102"><ele>1881.6666666666665</ele><time>2026-03-28T13:10:33Z</time></trkpt><trkpt lat="46.46431404793916" lon="9.933546876122216"><ele>1881.0</ele><time>2026-03-28T13:10:34Z</time></trkpt><trkpt lat="46.46416643379365" lon="9.933762949865756"><ele>1881.0</ele><time>2026-03-28T13:10:35Z</time></trkpt><trkpt lat="46.46401663114932" lon="9.933978594118294"><ele>1881.0</ele><time>2026-03-28T13:10:36Z</time></trkpt><trkpt lat="46.46386102936421" lon="9.934190188808927"><ele>1881.0</ele><time>2026-03-28T13:10:37Z</time></trkpt><trkpt lat="46.463712963231224" lon="9.93438842722073"><ele>1881.3333333333335</ele><time>2026-03-28T13:10:38Z</time></trkpt><trkpt lat="46.46357030995451" lon="9.934571533002497"><ele>1881.6666666666667</ele><time>2026-03-28T13:10:39Z</time></trkpt><trkpt lat="46.463425245992056" lon="9.934743322926067"><ele>1882.0</ele><time>2026-03-28T13:10:40Z</time></trkpt><trkpt lat="46.463274879664326" lon="9.934907206928182"><ele>1882.6666666666667</ele><time>2026-03-28T13:10:41Z</time></trkpt><trkpt lat="46.46311392627232" lon="9.935066244639412"><ele>1883.3333333333335</ele><time>2026-03-28T13:10:42Z</time></trkpt><trkpt lat="46.462954687352095" lon="9.935229919337564"><ele>1884.0</ele><time>2026-03-28T13:10:43Z</time></trkpt><trkpt lat="46.462810103348865" lon="9.935422618729763"><ele>1884.0</ele><time>2026-03-28T13:10:44Z</time></trkpt><trkpt lat="46.46266908540667" lon="9.93564477262129"><ele>1884.0</ele><time>2026-03-28T13:10:45Z</time></trkpt><trkpt lat="46.46253725336132" lon="9.935891265706084"><ele>1884.0</ele><time>2026-03-28T13:10:46Z</time></trkpt><trkpt lat="46.462410812194854" lon="9.9361572726258"><ele>1889.5</ele><time>2026-03-28T13:10:47Z</time></trkpt><trkpt lat="46.462293436287325" lon="9.936439146440984"><ele>1895.0</ele><time>2026-03-28T13:10:48Z</time></trkpt><trkpt lat="46.46218442075003" lon="9.936728801282943"><ele>1894.5</ele><time>2026-03-28T13:10:49Z</time></trkpt><trkpt lat="46.46208404432659" lon="9.937026520252918"><ele>1894.0</ele><time>2026-03-28T13:10:50Z</time></trkpt><trkpt lat="46.4619872206505" lon="9.937329557547542"><ele>1898.6666666666667</ele><time>2026-03-28T13:10:51Z</time></trkpt><trkpt lat="46.46188964454667" lon="9.937617261121856"><ele>1903.3333333333335</ele><time>2026-03-28T13:10:52Z</time></trkpt><trkpt lat="46.46178702956824" lon="9.937887601955131"><ele>1908.0</ele><time>2026-03-28T13:10:53Z</time></trkpt><trkpt lat="46.461675121338914" lon="9.938133829737557"><ele>1908.0</ele><time>2026-03-28T13:10:54Z</time></trkpt><trkpt lat="46.46156277018888" lon="9.938360451901596"><ele>1908.0</ele><time>2026-03-28T13:10:55Z</time></trkpt><trkpt lat="46.46145266809873" lon="9.93858177820718"><ele>1908.0</ele><time>2026-03-28T13:10:56Z</time></trkpt><trkpt lat="46.461341484825084" lon="9.938784677213027"><ele>1908.3333333333335</ele><time>2026-03-28T13:10:57Z</time></trkpt><trkpt lat="46.4611978780955" lon="9.938905618743496"><ele>1908.6666666666667</ele><time>2026-03-28T13:10:58Z</time></trkpt><trkpt lat="46.46104211344054" lon="9.93902508438849"><ele>1909.0</ele><time>2026-03-28T13:10:59Z</time></trkpt><trkpt lat="46.46087816558392" lon="9.939151171549257"><ele>1910.3333333333335</ele><time>2026-03-28T13:11:00Z</time></trkpt><trkpt lat="46.460713628678675" lon="9.939299510629654"><ele>1911.6666666666665</ele><time>2026-03-28T13:11:01Z</time></trkpt><trkpt lat="46.46055658620891" lon="9.939477240926509"><ele>1913.0</ele><time>2026-03-28T13:11:02Z</time></trkpt><trkpt lat="46.46040294434304" lon="9.939650691529238"><ele>1913.0</ele><time>2026-03-28T13:11:03Z</time></trkpt><trkpt lat="46.460245567809594" lon="9.939790652323362"><ele>1913.0</ele><time>2026-03-28T13:11:04Z</time></trkpt><trkpt lat="46.46009903370525" lon="9.939922085262745"><ele>1913.0</ele><time>2026-03-28T13:11:05Z</time></trkpt><trkpt lat="46.459950440057625" lon="9.940026953232692"><ele>1918.6666666666665</ele><time>2026-03-28T13:11:06Z</time></trkpt><trkpt lat="46.45980259765481" lon="9.94012340026295"><ele>1924.3333333333335</ele><time>2026-03-28T13:11:07Z</time></trkpt><trkpt lat="46.4596613104149" lon="9.940235279199067"><ele>1930.0</ele><time>2026-03-28T13:11:08Z</time></trkpt><trkpt lat="46.45951350371482" lon="9.940303635730064"><ele>1932.4</ele><time>2026-03-28T13:11:09Z</time></trkpt><trkpt lat="46.45937677311878" lon="9.940352402210536"><ele>1934.8</ele><time>2026-03-28T13:11:10Z</time></trkpt><trkpt lat="46.45925500467952" lon="9.940366884094555"><ele>1937.1999999999998</ele><time>2026-03-28T13:11:11Z</time></trkpt><trkpt lat="46.45917067710659" lon="9.940364152702921"><ele>1939.6</ele><time>2026-03-28T13:11:12Z</time></trkpt><trkpt lat="46.45907573228975" lon="9.940391394910327"><ele>1942.0</ele><time>2026-03-28T13:11:14Z</time></trkpt><trkpt lat="46.45901271571393" lon="9.9404406478177"><ele>1942.0</ele><time>2026-03-28T13:11:26Z</time></trkpt><trkpt lat="46.45894178793648" lon="9.940496021283648"><ele>1941.9999999999998</ele><time>2026-03-28T13:12:55Z</time></trkpt><trkpt lat="46.45885775127993" lon="9.940550794442581"><ele>1941.9999999999998</ele><time>2026-03-28T13:13:39.999Z</time></trkpt><trkpt lat="46.45876138753468" lon="9.940683661230654"><ele>1942.0</ele><time>2026-03-28T13:13:42Z</time></trkpt><trkpt lat="46.45870316038869" lon="9.940761496867509"><ele>1942.0</ele><time>2026-03-28T13:13:43Z</time></trkpt><trkpt lat="46.45864436012561" lon="9.94083734450603"><ele>1942.0</ele><time>2026-03-28T13:13:44Z</time></trkpt><trkpt lat="46.45856781851912" lon="9.940913201489558"><ele>1941.9999999999998</ele><time>2026-03-28T13:13:45Z</time></trkpt><trkpt lat="46.458486927002774" lon="9.941001878706901"><ele>1941.9999999999998</ele><time>2026-03-28T13:13:46Z</time></trkpt><trkpt lat="46.45839278922625" lon="9.941081152713606"><ele>1942.0</ele><time>2026-03-28T13:13:47Z</time></trkpt><trkpt lat="46.458288000907" lon="9.941154788854218"><ele>1942.0</ele><time>2026-03-28T13:13:48Z</time></trkpt><trkpt lat="46.45817888635025" lon="9.94115993856053"><ele>1942.0</ele><time>2026-03-28T13:13:49Z</time></trkpt><trkpt lat="46.45806094177034" lon="9.941104126067186"><ele>1942.0</ele><time>2026-03-28T13:13:50Z</time></trkpt><trkpt lat="46.45798191597687" lon="9.94119780803531"><ele>1942.0</ele><time>2026-03-28T13:13:51Z</time></trkpt><trkpt lat="46.45784992604017" lon="9.941155212574754"><ele>1942.0</ele><time>2026-03-28T13:13:52Z</time></trkpt><trkpt lat="46.45771372093041" lon="9.941156279420852"><ele>1940.25</ele><time>2026-03-28T13:13:53Z</time></trkpt><trkpt lat="46.457567245510134" lon="9.941191910694831"><ele>1938.5</ele><time>2026-03-28T13:13:54Z</time></trkpt><trkpt lat="46.45742253816889" lon="9.941281019996937"><ele>1936.75</ele><time>2026-03-28T13:13:55Z</time></trkpt><trkpt lat="46.45730749979395" lon="9.941400627806951"><ele>1935.0</ele><time>2026-03-28T13:13:56Z</time></trkpt><trkpt lat="46.45720972674363" lon="9.941551986142427"><ele>1935.0</ele><time>2026-03-28T13:13:57Z</time></trkpt><trkpt lat="46.45712372294025" lon="9.941706200925163"><ele>1935.0</ele><time>2026-03-28T13:13:58Z</time></trkpt><trkpt lat="46.457041508847475" lon="9.94183977422587"><ele>1935.0</ele><time>2026-03-28T13:13:59Z</time></trkpt><trkpt lat="46.4569545118946" lon="9.941966753828828"><ele>1935.0</ele><time>2026-03-28T13:14:00Z</time></trkpt><trkpt lat="46.45686647980085" lon="9.942085973197122"><ele>1936.1666666666667</ele><time>2026-03-28T13:14:01Z</time></trkpt><trkpt lat="46.45676999202207" lon="9.942152061129605"><ele>1937.3333333333335</ele><time>2026-03-28T13:14:02Z</time></trkpt><trkpt lat="46.45668901380946" lon="9.942231836051402"><ele>1938.5</ele><time>2026-03-28T13:14:03Z</time></trkpt><trkpt lat="46.45662740307722" lon="9.942305516905737"><ele>1939.6666666666667</ele><time>2026-03-28T13:14:04Z</time></trkpt><trkpt lat="46.45662146845982" lon="9.942408400461602"><ele>1940.8333333333335</ele><time>2026-03-28T13:14:05Z</time></trkpt><trkpt lat="46.456671108562006" lon="9.942478424645634"><ele>1942.0</ele><time>2026-03-28T13:14:06Z</time></trkpt><trkpt lat="46.45675506351024" lon="9.942497744860994"><ele>1942.0</ele><time>2026-03-28T13:14:07Z</time></trkpt><trkpt lat="46.45684854846434" lon="9.942448265291242"><ele>1942.0</ele><time>2026-03-28T13:14:08Z</time></trkpt><trkpt lat="46.456945818007384" lon="9.942358263925243"><ele>1942.0</ele><time>2026-03-28T13:14:09Z</time></trkpt><trkpt lat="46.45704329220368" lon="9.94226385428424"><ele>1942.0</ele><time>2026-03-28T13:14:10Z</time></trkpt><trkpt lat="46.45714690917049" lon="9.942179238436989"><ele>1944.3999999999999</ele><time>2026-03-28T13:14:11Z</time></trkpt><trkpt lat="46.45725174375198" lon="9.942105292377324"><ele>1946.7999999999997</ele><time>2026-03-28T13:14:12Z</time></trkpt><trkpt lat="46.457350212356" lon="9.942050264307557"><ele>1949.2</ele><time>2026-03-28T13:14:13Z</time></trkpt><trkpt lat="46.45744680555619" lon="9.942033157010943"><ele>1951.6</ele><time>2026-03-28T13:14:14Z</time></trkpt><trkpt lat="46.45755493881318" lon="9.94201267936017"><ele>1954.0</ele><time>2026-03-28T13:14:15Z</time></trkpt><trkpt lat="46.457662137644206" lon="9.942021959691361"><ele>1954.0000000000002</ele><time>2026-03-28T13:14:16Z</time></trkpt><trkpt lat="46.457742723263316" lon="9.942032948709006"><ele>1954.0</ele><time>2026-03-28T13:14:17Z</time></trkpt><trkpt lat="46.45781082774428" lon="9.942048308909339"><ele>1954.0</ele><time>2026-03-28T13:14:18Z</time></trkpt><trkpt lat="46.45789521018836" lon="9.942067504594313"><ele>1954.0</ele><time>2026-03-28T13:14:19Z</time></trkpt><trkpt lat="46.457993966075186" lon="9.942113472820528"><ele>1954.0000000000002</ele><time>2026-03-28T13:14:20Z</time></trkpt><trkpt lat="46.45808820067205" lon="9.942128784344039"><ele>1954.0</ele><time>2026-03-28T13:14:21Z</time></trkpt><trkpt lat="46.45813586058591" lon="9.942205514943232"><ele>1954.0000000000002</ele><time>2026-03-28T13:14:22Z</time></trkpt><trkpt lat="46.458145152010594" lon="9.942304755588921"><ele>1954.0</ele><time>2026-03-28T13:14:23Z</time></trkpt><trkpt lat="46.458118204000606" lon="9.942398591349857"><ele>1954.0</ele><time>2026-03-28T13:14:24Z</time></trkpt><trkpt lat="46.45804626921873" lon="9.942460790854454"><ele>1954.0</ele><time>2026-03-28T13:14:25Z</time></trkpt><trkpt lat="46.45796435671362" lon="9.942411667252198"><ele>1954.0000000000002</ele><time>2026-03-28T13:14:26Z</time></trkpt><trkpt lat="46.457894620440555" lon="9.942413394967272"><ele>1954.0</ele><time>2026-03-28T13:14:27Z</time></trkpt><trkpt lat="46.45780746586531" lon="9.942427192865672"><ele>1954.0</ele><time>2026-03-28T13:14:28Z</time></trkpt><trkpt lat="46.45770855853482" lon="9.942466948000073"><ele>1954.0</ele><time>2026-03-28T13:14:29Z</time></trkpt><trkpt lat="46.457609598765266" lon="9.94252842857848"><ele>1954.0</ele><time>2026-03-28T13:14:30Z</time></trkpt><trkpt lat="46.4575298294325" lon="9.94259638565563"><ele>1954.0</ele><time>2026-03-28T13:14:31Z</time></trkpt><trkpt lat="46.457469893599665" lon="9.9426519113456"><ele>1954.0</ele><time>2026-03-28T13:14:32Z</time></trkpt><trkpt lat="46.457377442031294" lon="9.94273543006017"><ele>1955.4</ele><time>2026-03-28T13:14:34Z</time></trkpt><trkpt lat="46.45727304732932" lon="9.942822247128582"><ele>1956.8000000000002</ele><time>2026-03-28T13:14:36Z</time></trkpt><trkpt lat="46.45716689837531" lon="9.94282815711058"><ele>1958.1999999999998</ele><time>2026-03-28T13:14:38Z</time></trkpt><trkpt lat="46.45705453403526" lon="9.942857492913216"><ele>1959.6</ele><time>2026-03-28T13:14:40Z</time></trkpt><trkpt lat="46.45699064333702" lon="9.942879181851703"><ele>1961.0</ele><time>2026-03-28T13:14:42Z</time></trkpt><trkpt lat="46.4569500053969" lon="9.942975740811056"><ele>1960.9999999999998</ele><time>2026-03-28T13:16:26Z</time></trkpt><trkpt lat="46.456895908662524" lon="9.943070334725045"><ele>1961.0</ele><time>2026-03-28T13:16:27Z</time></trkpt><trkpt lat="46.45683162010151" lon="9.943142353444665"><ele>1961.0</ele><time>2026-03-28T13:16:28Z</time></trkpt><trkpt lat="46.45679560026412" lon="9.943247919133652"><ele>1961.0</ele><time>2026-03-28T13:16:29Z</time></trkpt><trkpt lat="46.45674598509447" lon="9.943341657484904"><ele>1960.9999999999998</ele><time>2026-03-28T13:16:30Z</time></trkpt><trkpt lat="46.456703100880056" lon="9.943422327138004"><ele>1961.0</ele><time>2026-03-28T13:16:31Z</time></trkpt><trkpt lat="46.456653551751565" lon="9.94351053221773"><ele>1963.1666666666665</ele><time>2026-03-28T13:16:32Z</time></trkpt><trkpt lat="46.456609866266845" lon="9.943602947013606"><ele>1965.3333333333333</ele><time>2026-03-28T13:16:33Z</time></trkpt><trkpt lat="46.4565738094644" lon="9.943699939642293"><ele>1967.5</ele><time>2026-03-28T13:16:34Z</time></trkpt><trkpt lat="46.45653176030484" lon="9.943794630663195"><ele>1969.6666666666665</ele><time>2026-03-28T13:16:35Z</time></trkpt><trkpt lat="46.456483984107436" lon="9.943897071033117"><ele>1971.8333333333333</ele><time>2026-03-28T13:16:36Z</time></trkpt><trkpt lat="46.45643676018549" lon="9.94399868180786"><ele>1974.0</ele><time>2026-03-28T13:16:37Z</time></trkpt><trkpt lat="46.45639042242164" lon="9.944100585012572"><ele>1974.0</ele><time>2026-03-28T13:16:38Z</time></trkpt><trkpt lat="46.45635175741511" lon="9.944196421408142"><ele>1974.0</ele><time>2026-03-28T13:16:39Z</time></trkpt><trkpt lat="46.45630341899294" lon="9.94427433935793"><ele>1974.0</ele><time>2026-03-28T13:16:39.999Z</time></trkpt><trkpt lat="46.45624622783012" lon="9.944352128796357"><ele>1974.0</ele><time>2026-03-28T13:16:40.999Z</time></trkpt><trkpt lat="46.45617971670055" lon="9.94441792775281"><ele>1974.0</ele><time>2026-03-28T13:16:41.999Z</time></trkpt><trkpt lat="46.45610371491433" lon="9.944480435748098"><ele>1974.0</ele><time>2026-03-28T13:16:42.999Z</time></trkpt><trkpt lat="46.45600510645011" lon="9.944540613693098"><ele>1977.0</ele><time>2026-03-28T13:16:43.999Z</time></trkpt><trkpt lat="46.45588500239139" lon="9.944592325170152"><ele>1980.0</ele><time>2026-03-28T13:16:44.999Z</time></trkpt><trkpt lat="46.45575713256186" lon="9.944637520084342"><ele>1983.0</ele><time>2026-03-28T13:16:45.999Z</time></trkpt><trkpt lat="46.45561833767171" lon="9.944680137090748"><ele>1986.0</ele><time>2026-03-28T13:16:46.999Z</time></trkpt><trkpt lat="46.455484784366895" lon="9.944725271639136"><ele>1986.75</ele><time>2026-03-28T13:16:47.999Z</time></trkpt><trkpt lat="46.45536902000256" lon="9.944755944058278"><ele>1987.5</ele><time>2026-03-28T13:16:48.999Z</time></trkpt><trkpt lat="46.45529807146792" lon="9.94484524907501"><ele>1988.25</ele><time>2026-03-28T13:16:49.999Z</time></trkpt><trkpt lat="46.45514894237259" lon="9.945042874483228"><ele>1989.0</ele><time>2026-03-28T13:16:50.999Z</time></trkpt><trkpt lat="46.45506834264497" lon="9.945190993737976"><ele>1989.0</ele><time>2026-03-28T13:16:51.999Z</time></trkpt><trkpt lat="46.45497886305417" lon="9.9453709517956"><ele>1989.0</ele><time>2026-03-28T13:16:52.999Z</time></trkpt><trkpt lat="46.45486434052833" lon="9.945574325575246"><ele>1989.0</ele><time>2026-03-28T13:16:53.999Z</time></trkpt><trkpt lat="46.45472690438873" lon="9.945772742856454"><ele>1992.0</ele><time>2026-03-28T13:16:54.999Z</time></trkpt><trkpt lat="46.4545536860438" lon="9.945904984434916"><ele>1995.0</ele><time>2026-03-28T13:16:55.999Z</time></trkpt><trkpt lat="46.45438718046071" lon="9.946039437082142"><ele>1998.0</ele><time>2026-03-28T13:16:56.999Z</time></trkpt><trkpt lat="46.45422446636341" lon="9.946168257876888"><ele>1998.0</ele><time>2026-03-28T13:16:57.999Z</time></trkpt><trkpt lat="46.454073192460335" lon="9.946295008976957"><ele>1998.0</ele><time>2026-03-28T13:16:58.999Z</time></trkpt><trkpt lat="46.45393907414366" lon="9.946447799965755"><ele>1998.0</ele><time>2026-03-28T13:16:59.999Z</time></trkpt><trkpt lat="46.45380891898907" lon="9.946580212353213"><ele>1998.0</ele><time>2026-03-28T13:17:00.999Z</time></trkpt><trkpt lat="46.45371068888133" lon="9.946738920603156"><ele>1998.0</ele><time>2026-03-28T13:17:01.999Z</time></trkpt><trkpt lat="46.45363531295732" lon="9.946928939375903"><ele>1998.0</ele><time>2026-03-28T13:17:02.999Z</time></trkpt><trkpt lat="46.453572839399094" lon="9.947141671537835"><ele>1998.0</ele><time>2026-03-28T13:17:03.999Z</time></trkpt><trkpt lat="46.4535107866061" lon="9.947366427993215"><ele>1998.0</ele><time>2026-03-28T13:17:04.999Z</time></trkpt><trkpt lat="46.453447432198374" lon="9.947594217330794"><ele>1998.0</ele><time>2026-03-28T13:17:05.999Z</time></trkpt><trkpt lat="46.45337722128545" lon="9.947824694364819"><ele>2001.0</ele><time>2026-03-28T13:17:06.999Z</time></trkpt><trkpt lat="46.453306803616314" lon="9.948055814421268"><ele>2004.0</ele><time>2026-03-28T13:17:07.999Z</time></trkpt><trkpt lat="46.453235488162356" lon="9.948290481022353"><ele>2007.0</ele><time>2026-03-28T13:17:08.999Z</time></trkpt><trkpt lat="46.45316191804883" lon="9.94852442078146"><ele>2006.0</ele><time>2026-03-28T13:17:09.999Z</time></trkpt><trkpt lat="46.453092716469406" lon="9.948755483099662"><ele>2005.0</ele><time>2026-03-28T13:17:10.999Z</time></trkpt><trkpt lat="46.453026177949106" lon="9.948988396677743"><ele>2004.0</ele><time>2026-03-28T13:17:11.999Z</time></trkpt><trkpt lat="46.45292890290396" lon="9.949175813829235"><ele>2006.25</ele><time>2026-03-28T13:17:12.999Z</time></trkpt><trkpt lat="46.4528236661099" lon="9.94932288877353"><ele>2008.5</ele><time>2026-03-28T13:17:13.999Z</time></trkpt><trkpt lat="46.45270938757017" lon="9.949453597046848"><ele>2010.75</ele><time>2026-03-28T13:17:14.999Z</time></trkpt><trkpt lat="46.45260600356361" lon="9.949596069294108"><ele>2013.0</ele><time>2026-03-28T13:17:15.999Z</time></trkpt><trkpt lat="46.452503803292586" lon="9.94973912750252"><ele>2013.0</ele><time>2026-03-28T13:17:16.999Z</time></trkpt><trkpt lat="46.45243312501442" lon="9.949924374429019"><ele>2013.0</ele><time>2026-03-28T13:17:17.999Z</time></trkpt><trkpt lat="46.45240522231395" lon="9.95013885473623"><ele>2013.0</ele><time>2026-03-28T13:17:18.999Z</time></trkpt><trkpt lat="46.4524183537007" lon="9.95036016642459"><ele>2013.0</ele><time>2026-03-28T13:17:19.999Z</time></trkpt><trkpt lat="46.45246268107783" lon="9.9505650806721"><ele>2014.25</ele><time>2026-03-28T13:17:20.999Z</time></trkpt><trkpt lat="46.45251807257602" lon="9.950754206529355"><ele>2015.5</ele><time>2026-03-28T13:17:21.999Z</time></trkpt><trkpt lat="46.45255853671398" lon="9.950944429223002"><ele>2016.75</ele><time>2026-03-28T13:17:22.999Z</time></trkpt><trkpt lat="46.452586596304286" lon="9.951149286118339"><ele>2018.0</ele><time>2026-03-28T13:17:23.999Z</time></trkpt><trkpt lat="46.45259826107494" lon="9.951361314939783"><ele>2019.0</ele><time>2026-03-28T13:17:24.999Z</time></trkpt><trkpt lat="46.45258805136977" lon="9.95158403767846"><ele>2020.0</ele><time>2026-03-28T13:17:25.999Z</time></trkpt><trkpt lat="46.45252403481338" lon="9.951786845764438"><ele>2021.0</ele><time>2026-03-28T13:17:26.999Z</time></trkpt><trkpt lat="46.45245806156701" lon="9.951988814394715"><ele>2022.3333333333333</ele><time>2026-03-28T13:17:27.999Z</time></trkpt><trkpt lat="46.45236622400168" lon="9.952199616645105"><ele>2023.6666666666665</ele><time>2026-03-28T13:17:28.999Z</time></trkpt><trkpt lat="46.45224807374024" lon="9.952415018027054"><ele>2025.0</ele><time>2026-03-28T13:17:29.999Z</time></trkpt><trkpt lat="46.45210069611807" lon="9.952596983775443"><ele>2025.0</ele><time>2026-03-28T13:17:30.999Z</time></trkpt><trkpt lat="46.45193152779489" lon="9.95274919545886"><ele>2025.0</ele><time>2026-03-28T13:17:31.999Z</time></trkpt><trkpt lat="46.451737753900574" lon="9.95291791412259"><ele>2025.0</ele><time>2026-03-28T13:17:32.999Z</time></trkpt><trkpt lat="46.45152047362289" lon="9.953104950131413"><ele>2023.0</ele><time>2026-03-28T13:17:33.999Z</time></trkpt><trkpt lat="46.451286244708996" lon="9.953306575635404"><ele>2021.0</ele><time>2026-03-28T13:17:34.999Z</time></trkpt><trkpt lat="46.45104300162943" lon="9.953523667884731"><ele>2021.0</ele><time>2026-03-28T13:17:35.999Z</time></trkpt><trkpt lat="46.45083541034959" lon="9.95372444332781"><ele>2021.0</ele><time>2026-03-28T13:17:36.999Z</time></trkpt><trkpt lat="46.45066194568513" lon="9.953950891410795"><ele>2021.0</ele><time>2026-03-28T13:17:37.999Z</time></trkpt><trkpt lat="46.45048806803878" lon="9.95416154228004"><ele>2021.0</ele><time>2026-03-28T13:17:38.999Z</time></trkpt><trkpt lat="46.45030854737083" lon="9.954387118862638"><ele>2023.0</ele><time>2026-03-28T13:17:39.999Z</time></trkpt><trkpt lat="46.450154946207284" lon="9.95466124196503"><ele>2025.0</ele><time>2026-03-28T13:17:40.999Z</time></trkpt><trkpt lat="46.449980905302574" lon="9.954919316245094"><ele>2024.5</ele><time>2026-03-28T13:17:41.999Z</time></trkpt><trkpt lat="46.44981698898952" lon="9.955197578491905"><ele>2024.0</ele><time>2026-03-28T13:17:42.999Z</time></trkpt><trkpt lat="46.44965061087125" lon="9.955475843836492"><ele>2023.5</ele><time>2026-03-28T13:17:43.999Z</time></trkpt><trkpt lat="46.44948719274397" lon="9.955747727003821"><ele>2023.0</ele><time>2026-03-28T13:17:44.999Z</time></trkpt><trkpt lat="46.449332454769774" lon="9.956003108845401"><ele>2023.0</ele><time>2026-03-28T13:17:45.999Z</time></trkpt><trkpt lat="46.449193191566856" lon="9.956266719043644"><ele>2023.0</ele><time>2026-03-28T13:17:46.999Z</time></trkpt><trkpt lat="46.44904133850019" lon="9.956524729811145"><ele>2025.0</ele><time>2026-03-28T13:17:47.999Z</time></trkpt><trkpt lat="46.4488955795947" lon="9.956804129870795"><ele>2027.0</ele><time>2026-03-28T13:17:48.999Z</time></trkpt><trkpt lat="46.44878186827722" lon="9.957109327823943"><ele>2027.0</ele><time>2026-03-28T13:17:49.999Z</time></trkpt><trkpt lat="46.44869005737058" lon="9.957437345988346"><ele>2027.0</ele><time>2026-03-28T13:17:50.999Z</time></trkpt><trkpt lat="46.448613134634826" lon="9.957804878601117"><ele>2027.0</ele><time>2026-03-28T13:17:51.999Z</time></trkpt><trkpt lat="46.44854568150508" lon="9.958137761322812"><ele>2027.0</ele><time>2026-03-28T13:17:53Z</time></trkpt><trkpt lat="46.44847446439609" lon="9.958480624884283"><ele>2030.0</ele><time>2026-03-28T13:17:54Z</time></trkpt><trkpt lat="46.44839900015773" lon="9.95881610786839"><ele>2033.0</ele><time>2026-03-28T13:17:55Z</time></trkpt><trkpt lat="46.44832375066735" lon="9.959144900822068"><ele>2035.0</ele><time>2026-03-28T13:17:56Z</time></trkpt><trkpt lat="46.44825245178323" lon="9.959471920736167"><ele>2037.0</ele><time>2026-03-28T13:17:57Z</time></trkpt><trkpt lat="46.44818254801589" lon="9.959790434633339"><ele>2040.0</ele><time>2026-03-28T13:17:58Z</time></trkpt><trkpt lat="46.44810831226446" lon="9.960117056148473"><ele>2043.0</ele><time>2026-03-28T13:17:59Z</time></trkpt><trkpt lat="46.44802709221866" lon="9.96044967036981"><ele>2040.5</ele><time>2026-03-28T13:18:00Z</time></trkpt><trkpt lat="46.447948064713984" lon="9.960784885440328"><ele>2038.0</ele><time>2026-03-28T13:18:01Z</time></trkpt><trkpt lat="46.44787210947688" lon="9.961118779228979"><ele>2037.6666666666667</ele><time>2026-03-28T13:18:02Z</time></trkpt><trkpt lat="46.447807184136096" lon="9.961384589219634"><ele>2037.3333333333335</ele><time>2026-03-28T13:18:03Z</time></trkpt><trkpt lat="46.44775366101929" lon="9.961610053512674"><ele>2037.0</ele><time>2026-03-28T13:18:04Z</time></trkpt><trkpt lat="46.44769244789863" lon="9.961839155679337"><ele>2037.0</ele><time>2026-03-28T13:18:05Z</time></trkpt><trkpt lat="46.44762703129747" lon="9.962101968991181"><ele>2037.0</ele><time>2026-03-28T13:18:06Z</time></trkpt><trkpt lat="46.44756393430525" lon="9.962389560301405"><ele>2037.0</ele><time>2026-03-28T13:18:07Z</time></trkpt><trkpt lat="46.44749489793691" lon="9.962689883355152"><ele>2038.6666666666665</ele><time>2026-03-28T13:18:08Z</time></trkpt><trkpt lat="46.44742472992425" lon="9.962993740903592"><ele>2040.3333333333333</ele><time>2026-03-28T13:18:09Z</time></trkpt><trkpt lat="46.44735183758481" lon="9.963306222551006"><ele>2042.0</ele><time>2026-03-28T13:18:10Z</time></trkpt><trkpt lat="46.447283208530855" lon="9.963613839337928"><ele>2042.5</ele><time>2026-03-28T13:18:11Z</time></trkpt><trkpt lat="46.44721459141703" lon="9.963928774362326"><ele>2043.0</ele><time>2026-03-28T13:18:12Z</time></trkpt><trkpt lat="46.447145866828386" lon="9.964237119395728"><ele>2042.0</ele><time>2026-03-28T13:18:13Z</time></trkpt><trkpt lat="46.44707705436767" lon="9.964542738218636"><ele>2041.0</ele><time>2026-03-28T13:18:14Z</time></trkpt><trkpt lat="46.44701049062229" lon="9.96485136204481"><ele>2040.0</ele><time>2026-03-28T13:18:15Z</time></trkpt><trkpt lat="46.44693416657667" lon="9.965168944059378"><ele>2040.0</ele><time>2026-03-28T13:18:16Z</time></trkpt><trkpt lat="46.446859129429335" lon="9.96550666230211"><ele>2040.0</ele><time>2026-03-28T13:18:17Z</time></trkpt><trkpt lat="46.44678356383974" lon="9.965826586204367"><ele>2042.5</ele><time>2026-03-28T13:18:18Z</time></trkpt><trkpt lat="46.44670388406893" lon="9.966158265569735"><ele>2045.0</ele><time>2026-03-28T13:18:19Z</time></trkpt><trkpt lat="46.4466088348103" lon="9.966479029284237"><ele>2048.0</ele><time>2026-03-28T13:18:20Z</time></trkpt><trkpt lat="46.446491178627966" lon="9.966778010504694"><ele>2051.0</ele><time>2026-03-28T13:18:21Z</time></trkpt><trkpt lat="46.44634791465434" lon="9.96706063604189"><ele>2047.5</ele><time>2026-03-28T13:18:22Z</time></trkpt><trkpt lat="46.446188385981074" lon="9.967334229683345"><ele>2044.0</ele><time>2026-03-28T13:18:23Z</time></trkpt><trkpt lat="46.446023793747685" lon="9.967604685592066"><ele>2044.0</ele><time>2026-03-28T13:18:24Z</time></trkpt><trkpt lat="46.445870973988924" lon="9.967867758156613"><ele>2044.0</ele><time>2026-03-28T13:18:25Z</time></trkpt><trkpt lat="46.44572493784243" lon="9.968131563555461"><ele>2043.0</ele><time>2026-03-28T13:18:26Z</time></trkpt><trkpt lat="46.44557351215023" lon="9.968396699956388"><ele>2042.0</ele><time>2026-03-28T13:18:27Z</time></trkpt><trkpt lat="46.4454273654426" lon="9.968660024333174"><ele>2044.0</ele><time>2026-03-28T13:18:28Z</time></trkpt><trkpt lat="46.44529699772116" lon="9.968929180358893"><ele>2046.0</ele><time>2026-03-28T13:18:29Z</time></trkpt><trkpt lat="46.44519099532632" lon="9.969214926665112"><ele>2046.3333333333335</ele><time>2026-03-28T13:18:30Z</time></trkpt><trkpt lat="46.445104173132606" lon="9.96951526301024"><ele>2046.6666666666667</ele><time>2026-03-28T13:18:31Z</time></trkpt><trkpt lat="46.445033418641984" lon="9.96981504493855"><ele>2047.0</ele><time>2026-03-28T13:18:32Z</time></trkpt><trkpt lat="46.444983697590175" lon="9.970126153493123"><ele>2048.0</ele><time>2026-03-28T13:18:33Z</time></trkpt><trkpt lat="46.44494892365083" lon="9.970450651879545"><ele>2049.0</ele><time>2026-03-28T13:18:34Z</time></trkpt><trkpt lat="46.44491024367622" lon="9.970788386450684"><ele>2048.5</ele><time>2026-03-28T13:18:35Z</time></trkpt><trkpt lat="46.444854281326975" lon="9.971127751220696"><ele>2048.0</ele><time>2026-03-28T13:18:36Z</time></trkpt><trkpt lat="46.44477905226252" lon="9.971461904502391"><ele>2048.5</ele><time>2026-03-28T13:18:37Z</time></trkpt><trkpt lat="46.44468555479545" lon="9.97177779856274"><ele>2049.0</ele><time>2026-03-28T13:18:38Z</time></trkpt><trkpt lat="46.44457448825055" lon="9.972082219916146"><ele>2051.5</ele><time>2026-03-28T13:18:39Z</time></trkpt><trkpt lat="46.44444707351975" lon="9.972365933237628"><ele>2054.0</ele><time>2026-03-28T13:18:40Z</time></trkpt><trkpt lat="46.44430171415086" lon="9.972636627144432"><ele>2054.0</ele><time>2026-03-28T13:18:41Z</time></trkpt><trkpt lat="46.44414318893501" lon="9.972884893621929"><ele>2054.0</ele><time>2026-03-28T13:18:42Z</time></trkpt><trkpt lat="46.443968187492544" lon="9.973121559655063"><ele>2058.0</ele><time>2026-03-28T13:18:43Z</time></trkpt><trkpt lat="46.44378148892899" lon="9.973346060025936"><ele>2062.0</ele><time>2026-03-28T13:18:43.999Z</time></trkpt><trkpt lat="46.44359528358504" lon="9.97357077186394"><ele>2062.0</ele><time>2026-03-28T13:18:44.999Z</time></trkpt><trkpt lat="46.443418286796046" lon="9.973812307847368"><ele>2062.0</ele><time>2026-03-28T13:18:45.999Z</time></trkpt><trkpt lat="46.443257056732044" lon="9.974090236673838"><ele>2059.5</ele><time>2026-03-28T13:18:46.999Z</time></trkpt><trkpt lat="46.443120244999456" lon="9.974397287420931"><ele>2057.0</ele><time>2026-03-28T13:18:47.999Z</time></trkpt><trkpt lat="46.44300959363159" lon="9.974710218958112"><ele>2060.5</ele><time>2026-03-28T13:18:48.999Z</time></trkpt><trkpt lat="46.44291608081625" lon="9.97500919491802"><ele>2064.0</ele><time>2026-03-28T13:18:49.999Z</time></trkpt><trkpt lat="46.44282342370214" lon="9.975304277305954"><ele>2064.0</ele><time>2026-03-28T13:18:50.999Z</time></trkpt><trkpt lat="46.44273619207575" lon="9.975582569806564"><ele>2064.0</ele><time>2026-03-28T13:18:51.999Z</time></trkpt><trkpt lat="46.44267256385084" lon="9.975859908569515"><ele>2064.0</ele><time>2026-03-28T13:18:52.999Z</time></trkpt><trkpt lat="46.44264925842008" lon="9.976159993468043"><ele>2064.3333333333335</ele><time>2026-03-28T13:18:53.999Z</time></trkpt><trkpt lat="46.442670083231064" lon="9.976465442799894"><ele>2064.666666666667</ele><time>2026-03-28T13:18:54.999Z</time></trkpt><trkpt lat="46.44272673905722" lon="9.97675947973891"><ele>2065.0</ele><time>2026-03-28T13:18:55.999Z</time></trkpt><trkpt lat="46.442794927652166" lon="9.977054334457085"><ele>2066.666666666667</ele><time>2026-03-28T13:18:56.999Z</time></trkpt><trkpt lat="46.44286202161561" lon="9.97733553857035"><ele>2068.3333333333335</ele><time>2026-03-28T13:18:57.999Z</time></trkpt><trkpt lat="46.4429120569974" lon="9.9776175588087"><ele>2070.0</ele><time>2026-03-28T13:18:58.999Z</time></trkpt><trkpt lat="46.442934527836044" lon="9.97790401515271"><ele>2071.0</ele><time>2026-03-28T13:18:59.999Z</time></trkpt><trkpt lat="46.44293087577884" lon="9.978205675962998"><ele>2072.0</ele><time>2026-03-28T13:19:00.999Z</time></trkpt><trkpt lat="46.442894432905966" lon="9.978518819005926"><ele>2073.0</ele><time>2026-03-28T13:19:01.999Z</time></trkpt><trkpt lat="46.44284572868422" lon="9.978831918280706"><ele>2073.0</ele><time>2026-03-28T13:19:02.999Z</time></trkpt><trkpt lat="46.442787427192734" lon="9.979158869491542"><ele>2073.0</ele><time>2026-03-28T13:19:03.999Z</time></trkpt><trkpt lat="46.4427295253118" lon="9.979476303723072"><ele>2073.3333333333335</ele><time>2026-03-28T13:19:04.999Z</time></trkpt><trkpt lat="46.44267776954943" lon="9.979773140049504"><ele>2073.666666666667</ele><time>2026-03-28T13:19:05.999Z</time></trkpt><trkpt lat="46.44262506752793" lon="9.980048517883608"><ele>2074.0</ele><time>2026-03-28T13:19:06.999Z</time></trkpt><trkpt lat="46.44258969277178" lon="9.980323147919853"><ele>2075.0</ele><time>2026-03-28T13:19:07.999Z</time></trkpt><trkpt lat="46.44255299326039" lon="9.980605290355836"><ele>2076.0</ele><time>2026-03-28T13:19:08.999Z</time></trkpt><trkpt lat="46.442515715485236" lon="9.980887688267204"><ele>2077.0</ele><time>2026-03-28T13:19:09.999Z</time></trkpt><trkpt lat="46.44247483797714" lon="9.981172360384008"><ele>2077.3333333333335</ele><time>2026-03-28T13:19:10.999Z</time></trkpt><trkpt lat="46.44243405501092" lon="9.981462548344744"><ele>2077.6666666666665</ele><time>2026-03-28T13:19:11.999Z</time></trkpt><trkpt lat="46.442390468479545" lon="9.981755190717504"><ele>2078.0</ele><time>2026-03-28T13:19:12.999Z</time></trkpt><trkpt lat="46.44234944146311" lon="9.982050852221695"><ele>2078.0</ele><time>2026-03-28T13:19:13.999Z</time></trkpt><trkpt lat="46.44230697956461" lon="9.982351826591868"><ele>2078.0</ele><time>2026-03-28T13:19:14.999Z</time></trkpt><trkpt lat="46.44227286879597" lon="9.982655367793985"><ele>2078.0</ele><time>2026-03-28T13:19:15.999Z</time></trkpt><trkpt lat="46.442245055352906" lon="9.982964622449144"><ele>2078.0</ele><time>2026-03-28T13:19:16.999Z</time></trkpt><trkpt lat="46.442221938190215" lon="9.983284157592207"><ele>2078.0</ele><time>2026-03-28T13:19:17.999Z</time></trkpt><trkpt lat="46.44219010262652" lon="9.983609228905891"><ele>2078.0</ele><time>2026-03-28T13:19:18.999Z</time></trkpt><trkpt lat="46.44211426679805" lon="9.98397438193492"><ele>2078.0</ele><time>2026-03-28T13:19:19.999Z</time></trkpt><trkpt lat="46.44204724800044" lon="9.984337901016367"><ele>2078.0</ele><time>2026-03-28T13:19:20.999Z</time></trkpt><trkpt lat="46.44214325280327" lon="9.98449609957184"><ele>2078.0</ele><time>2026-03-28T13:19:21.999Z</time></trkpt><trkpt lat="46.442130714284914" lon="9.984779852309636"><ele>2079.6666666666665</ele><time>2026-03-28T13:19:22.999Z</time></trkpt><trkpt lat="46.442111079322146" lon="9.985044108887784"><ele>2081.3333333333335</ele><time>2026-03-28T13:19:23.999Z</time></trkpt><trkpt lat="46.44205167669336" lon="9.985274675551683"><ele>2083.0</ele><time>2026-03-28T13:19:24.999Z</time></trkpt><trkpt lat="46.44197400323921" lon="9.985493868444845"><ele>2083.0</ele><time>2026-03-28T13:19:25.999Z</time></trkpt><trkpt lat="46.441868907610896" lon="9.98567868452214"><ele>2083.0</ele><time>2026-03-28T13:19:26.999Z</time></trkpt><trkpt lat="46.44174147620628" lon="9.985788045662265"><ele>2083.0</ele><time>2026-03-28T13:19:27.999Z</time></trkpt><trkpt lat="46.441589786669134" lon="9.985894203795755"><ele>2084.3333333333335</ele><time>2026-03-28T13:19:28.999Z</time></trkpt><trkpt lat="46.441438212549166" lon="9.985967755038654"><ele>2085.6666666666665</ele><time>2026-03-28T13:19:29.999Z</time></trkpt><trkpt lat="46.44126993893683" lon="9.986028531671561"><ele>2087.0</ele><time>2026-03-28T13:19:30.999Z</time></trkpt><trkpt lat="46.44108988695295" lon="9.986100164574681"><ele>2087.0</ele><time>2026-03-28T13:19:31.999Z</time></trkpt><trkpt lat="46.44091496639309" lon="9.986186614484202"><ele>2087.0</ele><time>2026-03-28T13:19:32.999Z</time></trkpt><trkpt lat="46.44075188439523" lon="9.986289630422615"><ele>2087.0</ele><time>2026-03-28T13:19:33.999Z</time></trkpt><trkpt lat="46.440607081923666" lon="9.986459985596417"><ele>2087.0</ele><time>2026-03-28T13:19:34.999Z</time></trkpt><trkpt lat="46.44049904293981" lon="9.986682196727221"><ele>2087.0</ele><time>2026-03-28T13:19:35.999Z</time></trkpt><trkpt lat="46.440401227110286" lon="9.986907294167848"><ele>2087.0</ele><time>2026-03-28T13:19:36.999Z</time></trkpt><trkpt lat="46.44030712702035" lon="9.98714991010582"><ele>2087.0</ele><time>2026-03-28T13:19:37.999Z</time></trkpt><trkpt lat="46.440217878990524" lon="9.987418992586624"><ele>2087.0</ele><time>2026-03-28T13:19:38.999Z</time></trkpt><trkpt lat="46.440117346344834" lon="9.987695093082895"><ele>2087.0</ele><time>2026-03-28T13:19:39.999Z</time></trkpt><trkpt lat="46.43999664807865" lon="9.987951729391146"><ele>2087.0</ele><time>2026-03-28T13:19:40.999Z</time></trkpt><trkpt lat="46.4398616648593" lon="9.988197128056589"><ele>2087.0</ele><time>2026-03-28T13:19:41.999Z</time></trkpt><trkpt lat="46.43972344824336" lon="9.988432424957747"><ele>2087.0</ele><time>2026-03-28T13:19:42.999Z</time></trkpt><trkpt lat="46.439578848464464" lon="9.988666165646206"><ele>2087.0</ele><time>2026-03-28T13:19:43.999Z</time></trkpt><trkpt lat="46.439430357709774" lon="9.98890087164947"><ele>2087.0</ele><time>2026-03-28T13:19:44.999Z</time></trkpt><trkpt lat="46.439285127381744" lon="9.989129700055301"><ele>2087.0</ele><time>2026-03-28T13:19:45.999Z</time></trkpt><trkpt lat="46.4391382900138" lon="9.98936378214457"><ele>2088.6666666666665</ele><time>2026-03-28T13:19:46.999Z</time></trkpt><trkpt lat="46.438990360309866" lon="9.989598181468104"><ele>2090.3333333333335</ele><time>2026-03-28T13:19:47.999Z</time></trkpt><trkpt lat="46.438838235949554" lon="9.989839908874709"><ele>2092.0</ele><time>2026-03-28T13:19:48.999Z</time></trkpt><trkpt lat="46.43868807707338" lon="9.990077503933431"><ele>2092.0</ele><time>2026-03-28T13:19:49.999Z</time></trkpt><trkpt lat="46.43852623229703" lon="9.990330766382892"><ele>2092.0</ele><time>2026-03-28T13:19:50.999Z</time></trkpt><trkpt lat="46.43835112107334" lon="9.99060865259925"><ele>2091.5</ele><time>2026-03-28T13:19:51.999Z</time></trkpt><trkpt lat="46.4381641070292" lon="9.99089466034671"><ele>2091.0</ele><time>2026-03-28T13:19:52.999Z</time></trkpt><trkpt lat="46.43797440638223" lon="9.99117777551188"><ele>2093.0</ele><time>2026-03-28T13:19:53.999Z</time></trkpt><trkpt lat="46.4377881130576" lon="9.991452719502513"><ele>2095.0</ele><time>2026-03-28T13:19:54.999Z</time></trkpt><trkpt lat="46.437611205562874" lon="9.991721698592139"><ele>2095.0</ele><time>2026-03-28T13:19:55.999Z</time></trkpt><trkpt lat="46.43744625351495" lon="9.991977553466095"><ele>2095.0</ele><time>2026-03-28T13:19:56.999Z</time></trkpt><trkpt lat="46.43728921037233" lon="9.992229295866188"><ele>2095.0</ele><time>2026-03-28T13:19:58Z</time></trkpt><trkpt lat="46.43714498642292" lon="9.992483071219434"><ele>2095.0</ele><time>2026-03-28T13:19:59Z</time></trkpt><trkpt lat="46.437019088559815" lon="9.992727441579044"><ele>2095.0</ele><time>2026-03-28T13:20:00Z</time></trkpt><trkpt lat="46.43691685083177" lon="9.992998235166011"><ele>2097.666666666667</ele><time>2026-03-28T13:20:01Z</time></trkpt><trkpt lat="46.43680736927632" lon="9.993255985891311"><ele>2100.3333333333335</ele><time>2026-03-28T13:20:02Z</time></trkpt><trkpt lat="46.43669349539668" lon="9.9934935476805"><ele>2103.0</ele><time>2026-03-28T13:20:03Z</time></trkpt><trkpt lat="46.4365906773107" lon="9.993741944360151"><ele>2104.3333333333335</ele><time>2026-03-28T13:20:04Z</time></trkpt><trkpt lat="46.43649357449644" lon="9.99397653360425"><ele>2105.666666666667</ele><time>2026-03-28T13:20:05Z</time></trkpt><trkpt lat="46.43640956584095" lon="9.994215895890301"><ele>2107.0</ele><time>2026-03-28T13:20:06Z</time></trkpt><trkpt lat="46.43630678914956" lon="9.99443421403417"><ele>2108.3333333333335</ele><time>2026-03-28T13:20:07Z</time></trkpt><trkpt lat="46.43621651089778" lon="9.994673670459656"><ele>2109.6666666666665</ele><time>2026-03-28T13:20:08Z</time></trkpt><trkpt lat="46.43613064682618" lon="9.994897962061547"><ele>2111.0</ele><time>2026-03-28T13:20:09.001Z</time></trkpt><trkpt lat="46.43602663284233" lon="9.99510702737643"><ele>2111.6666666666665</ele><time>2026-03-28T13:20:10Z</time></trkpt><trkpt lat="46.43588798229598" lon="9.995260479875695"><ele>2112.3333333333335</ele><time>2026-03-28T13:20:11Z</time></trkpt><trkpt lat="46.43574366163781" lon="9.995403821414428"><ele>2113.0</ele><time>2026-03-28T13:20:12Z</time></trkpt><trkpt lat="46.43557858418972" lon="9.995518403085022"><ele>2114.3333333333335</ele><time>2026-03-28T13:20:13Z</time></trkpt><trkpt lat="46.43541338045857" lon="9.99564940613998"><ele>2115.6666666666665</ele><time>2026-03-28T13:20:14Z</time></trkpt><trkpt lat="46.43524720569193" lon="9.995745852539915"><ele>2117.0</ele><time>2026-03-28T13:20:15Z</time></trkpt><trkpt lat="46.43508158222486" lon="9.995847318863008"><ele>2117.6666666666665</ele><time>2026-03-28T13:20:16Z</time></trkpt><trkpt lat="46.434910504939005" lon="9.995949354966468"><ele>2118.3333333333335</ele><time>2026-03-28T13:20:17Z</time></trkpt><trkpt lat="46.4347445549088" lon="9.996075008101807"><ele>2119.0</ele><time>2026-03-28T13:20:18Z</time></trkpt><trkpt lat="46.4345824560763" lon="9.996241528206497"><ele>2120.3333333333335</ele><time>2026-03-28T13:20:19Z</time></trkpt><trkpt lat="46.43441875338318" lon="9.996400822318465"><ele>2121.6666666666665</ele><time>2026-03-28T13:20:20Z</time></trkpt><trkpt lat="46.43425842254834" lon="9.996566348637502"><ele>2123.0</ele><time>2026-03-28T13:20:21Z</time></trkpt><trkpt lat="46.43409083519282" lon="9.996698368939223"><ele>2124.6666666666665</ele><time>2026-03-28T13:20:22Z</time></trkpt><trkpt lat="46.43391650390051" lon="9.996774521292238"><ele>2126.3333333333335</ele><time>2026-03-28T13:20:23Z</time></trkpt><trkpt lat="46.43372883725261" lon="9.99679872763814"><ele>2128.0</ele><time>2026-03-28T13:20:24Z</time></trkpt><trkpt lat="46.43354674674051" lon="9.996815832796734"><ele>2128.666666666667</ele><time>2026-03-28T13:20:25Z</time></trkpt><trkpt lat="46.43337060031424" lon="9.996853703585746"><ele>2129.3333333333335</ele><time>2026-03-28T13:20:26Z</time></trkpt><trkpt lat="46.433205597350195" lon="9.99693270508705"><ele>2130.0</ele><time>2026-03-28T13:20:27Z</time></trkpt><trkpt lat="46.433062176063025" lon="9.997067621758971"><ele>2130.0</ele><time>2026-03-28T13:20:28Z</time></trkpt><trkpt lat="46.432933516526134" lon="9.997249323328978"><ele>2130.0</ele><time>2026-03-28T13:20:29Z</time></trkpt><trkpt lat="46.432828815741196" lon="9.997473070236099"><ele>2130.0</ele><time>2026-03-28T13:20:30Z</time></trkpt><trkpt lat="46.4327246828979" lon="9.997693737573492"><ele>2131.0</ele><time>2026-03-28T13:20:31Z</time></trkpt><trkpt lat="46.43260182978428" lon="9.997867401855826"><ele>2132.0</ele><time>2026-03-28T13:20:32Z</time></trkpt><trkpt lat="46.43244295156322" lon="9.997958658574532"><ele>2133.0</ele><time>2026-03-28T13:20:33Z</time></trkpt><trkpt lat="46.43226896616654" lon="9.997977191792277"><ele>2133.0</ele><time>2026-03-28T13:20:34Z</time></trkpt><trkpt lat="46.432088373544296" lon="9.997955931688"><ele>2133.0</ele><time>2026-03-28T13:20:35Z</time></trkpt><trkpt lat="46.43190431829864" lon="9.99794292935337"><ele>2133.0</ele><time>2026-03-28T13:20:36Z</time></trkpt><trkpt lat="46.43172724411359" lon="9.997979860016438"><ele>2133.0</ele><time>2026-03-28T13:20:37Z</time></trkpt><trkpt lat="46.43156205586079" lon="9.998082409349381"><ele>2133.0</ele><time>2026-03-28T13:20:38Z</time></trkpt><trkpt lat="46.431423833791655" lon="9.998237674460634"><ele>2133.0</ele><time>2026-03-28T13:20:39Z</time></trkpt><trkpt lat="46.43129262113018" lon="9.998432914853357"><ele>2136.3333333333335</ele><time>2026-03-28T13:20:40Z</time></trkpt><trkpt lat="46.43114770555732" lon="9.998614244440697"><ele>2139.666666666667</ele><time>2026-03-28T13:20:41Z</time></trkpt><trkpt lat="46.43097776872203" lon="9.998765970485284"><ele>2143.0</ele><time>2026-03-28T13:20:42Z</time></trkpt><trkpt lat="46.43079026956912" lon="9.998872933924678"><ele>2143.0</ele><time>2026-03-28T13:20:43Z</time></trkpt><trkpt lat="46.43058242321525" lon="9.99893617880764"><ele>2143.0</ele><time>2026-03-28T13:20:44Z</time></trkpt><trkpt lat="46.430368743053336" lon="9.99899339405596"><ele>2143.0</ele><time>2026-03-28T13:20:45Z</time></trkpt><trkpt lat="46.430163235225336" lon="9.999047306484798"><ele>2141.666666666667</ele><time>2026-03-28T13:20:46Z</time></trkpt><trkpt lat="46.429970583213084" lon="9.999107454638036"><ele>2140.3333333333335</ele><time>2026-03-28T13:20:47Z</time></trkpt><trkpt lat="46.42978147122243" lon="9.999160077131398"><ele>2139.0</ele><time>2026-03-28T13:20:48Z</time></trkpt><trkpt lat="46.42959150564838" lon="9.999208046041534"><ele>2148.3333333333335</ele><time>2026-03-28T13:20:49Z</time></trkpt><trkpt lat="46.42940210261154" lon="9.999236258590713"><ele>2157.666666666667</ele><time>2026-03-28T13:20:50Z</time></trkpt><trkpt lat="46.42921939353044" lon="9.999241981876086"><ele>2167.0</ele><time>2026-03-28T13:20:51Z</time></trkpt><trkpt lat="46.42904449728259" lon="9.999254357087413"><ele>2167.0</ele><time>2026-03-28T13:20:52Z</time></trkpt><trkpt lat="46.42886177501119" lon="9.9992918911541"><ele>2167.0</ele><time>2026-03-28T13:20:53Z</time></trkpt><trkpt lat="46.42867863338935" lon="9.999292693534551"><ele>2167.0</ele><time>2026-03-28T13:20:54Z</time></trkpt><trkpt lat="46.42848903125321" lon="9.999273863980955"><ele>2167.0</ele><time>2026-03-28T13:20:55Z</time></trkpt><trkpt lat="46.428289467835235" lon="9.999249908342017"><ele>2167.0</ele><time>2026-03-28T13:20:56Z</time></trkpt><trkpt lat="46.428072229523565" lon="9.999236601499042"><ele>2167.0</ele><time>2026-03-28T13:20:57Z</time></trkpt><trkpt lat="46.4278472474764" lon="9.999220261357339"><ele>2167.0</ele><time>2026-03-28T13:20:58Z</time></trkpt><trkpt lat="46.42762605850573" lon="9.999200373880493"><ele>2167.0</ele><time>2026-03-28T13:20:59Z</time></trkpt><trkpt lat="46.42740743614107" lon="9.999185543426567"><ele>2167.0</ele><time>2026-03-28T13:21:00Z</time></trkpt><trkpt lat="46.427201752798716" lon="9.999163665543271"><ele>2162.666666666667</ele><time>2026-03-28T13:21:01Z</time></trkpt><trkpt lat="46.42701157319416" lon="9.999143190025826"><ele>2158.3333333333335</ele><time>2026-03-28T13:21:02Z</time></trkpt><trkpt lat="46.42683266276584" lon="9.999127191146869"><ele>2154.0</ele><time>2026-03-28T13:21:03Z</time></trkpt><trkpt lat="46.42666783242412" lon="9.999130836492046"><ele>2156.6666666666665</ele><time>2026-03-28T13:21:04Z</time></trkpt><trkpt lat="46.4265083952841" lon="9.999179014187478"><ele>2159.333333333333</ele><time>2026-03-28T13:21:05Z</time></trkpt><trkpt lat="46.42633258136515" lon="9.999282899167993"><ele>2162.0</ele><time>2026-03-28T13:21:06Z</time></trkpt><trkpt lat="46.42613669188367" lon="9.999430500498303"><ele>2162.0</ele><time>2026-03-28T13:21:06.999Z</time></trkpt><trkpt lat="46.42591839982322" lon="9.999580567671979"><ele>2162.0</ele><time>2026-03-28T13:21:07.999Z</time></trkpt><trkpt lat="46.42567867015558" lon="9.99972845668498"><ele>2165.5</ele><time>2026-03-28T13:21:08.999Z</time></trkpt><trkpt lat="46.4254224989704" lon="9.999899786627925"><ele>2169.0</ele><time>2026-03-28T13:21:09.999Z</time></trkpt><trkpt lat="46.42515488852572" lon="10.000081069653197"><ele>2169.0</ele><time>2026-03-28T13:21:10.999Z</time></trkpt><trkpt lat="46.424874150428735" lon="10.000261340234504"><ele>2169.0</ele><time>2026-03-28T13:21:11.999Z</time></trkpt><trkpt lat="46.424608803545446" lon="10.000425926455694"><ele>2170.0</ele><time>2026-03-28T13:21:12.999Z</time></trkpt><trkpt lat="46.42437023170181" lon="10.000581049744067"><ele>2171.0</ele><time>2026-03-28T13:21:13.999Z</time></trkpt><trkpt lat="46.4241350359869" lon="10.000742146167722"><ele>2175.0</ele><time>2026-03-28T13:21:14.999Z</time></trkpt><trkpt lat="46.423893569213156" lon="10.000919133217115"><ele>2179.0</ele><time>2026-03-28T13:21:15.999Z</time></trkpt><trkpt lat="46.423653594079205" lon="10.001134917962471"><ele>2180.0</ele><time>2026-03-28T13:21:16.999Z</time></trkpt><trkpt lat="46.4234060558212" lon="10.00137503285101"><ele>2181.0</ele><time>2026-03-28T13:21:17.999Z</time></trkpt><trkpt lat="46.423170248249974" lon="10.00159593285238"><ele>2185.5</ele><time>2026-03-28T13:21:18.999Z</time></trkpt><trkpt lat="46.42295269160542" lon="10.001776489632535"><ele>2190.0</ele><time>2026-03-28T13:21:19.999Z</time></trkpt><trkpt lat="46.422741125929846" lon="10.001930490546016"><ele>2190.0</ele><time>2026-03-28T13:21:20.999Z</time></trkpt><trkpt lat="46.422517021396985" lon="10.0020760156376"><ele>2190.0</ele><time>2026-03-28T13:21:21.999Z</time></trkpt><trkpt lat="46.42229083838744" lon="10.002209571079632"><ele>2190.5</ele><time>2026-03-28T13:21:22.999Z</time></trkpt><trkpt lat="46.422070276692935" lon="10.002338989298007"><ele>2191.0</ele><time>2026-03-28T13:21:23.999Z</time></trkpt><trkpt lat="46.421858044242796" lon="10.002467381200152"><ele>2195.5</ele><time>2026-03-28T13:21:24.999Z</time></trkpt><trkpt lat="46.42165087892837" lon="10.002593667165264"><ele>2200.0</ele><time>2026-03-28T13:21:25.999Z</time></trkpt><trkpt lat="46.421441140030815" lon="10.002715213689578"><ele>2202.3333333333335</ele><time>2026-03-28T13:21:26.999Z</time></trkpt><trkpt lat="46.42123775045402" lon="10.002830524380535"><ele>2204.6666666666665</ele><time>2026-03-28T13:21:27.999Z</time></trkpt><trkpt lat="46.42103508243387" lon="10.002948632125609"><ele>2207.0</ele><time>2026-03-28T13:21:28.999Z</time></trkpt><trkpt lat="46.420838613757624" lon="10.003060577616505"><ele>2207.0</ele><time>2026-03-28T13:21:29.999Z</time></trkpt><trkpt lat="46.42066111260313" lon="10.003170829022215"><ele>2207.0</ele><time>2026-03-28T13:21:30.999Z</time></trkpt><trkpt lat="46.42050718689847" lon="10.003292625947045"><ele>2207.0</ele><time>2026-03-28T13:21:31.999Z</time></trkpt><trkpt lat="46.420362475608876" lon="10.00339568865302"><ele>2211.333333333333</ele><time>2026-03-28T13:21:32.999Z</time></trkpt><trkpt lat="46.420249141571354" lon="10.003548552135138"><ele>2215.6666666666665</ele><time>2026-03-28T13:21:33.999Z</time></trkpt><trkpt lat="46.420139628338866" lon="10.003693616388759"><ele>2220.0</ele><time>2026-03-28T13:21:34.999Z</time></trkpt><trkpt lat="46.42003433621796" lon="10.003859616996282"><ele>2220.0</ele><time>2026-03-28T13:21:35.999Z</time></trkpt><trkpt lat="46.41994599119903" lon="10.004035513314808"><ele>2220.0</ele><time>2026-03-28T13:21:36.999Z</time></trkpt><trkpt lat="46.41986275261317" lon="10.004230555383373"><ele>2220.0</ele><time>2026-03-28T13:21:37.999Z</time></trkpt><trkpt lat="46.419790258417684" lon="10.004435315067617"><ele>2220.3333333333335</ele><time>2026-03-28T13:21:38.999Z</time></trkpt><trkpt lat="46.41973411288924" lon="10.00463784518418"><ele>2220.666666666667</ele><time>2026-03-28T13:21:39.999Z</time></trkpt><trkpt lat="46.419687386835925" lon="10.004837951009728"><ele>2221.0</ele><time>2026-03-28T13:21:40.999Z</time></trkpt><trkpt lat="46.41965002153166" lon="10.00506683045276"><ele>2221.0</ele><time>2026-03-28T13:21:41.999Z</time></trkpt><trkpt lat="46.41962211833152" lon="10.005309183085389"><ele>2221.0</ele><time>2026-03-28T13:21:42.999Z</time></trkpt><trkpt lat="46.41959439672716" lon="10.005549253574438"><ele>2221.0</ele><time>2026-03-28T13:21:43.999Z</time></trkpt><trkpt lat="46.41956368941311" lon="10.005786410918365"><ele>2221.666666666667</ele><time>2026-03-28T13:21:44.999Z</time></trkpt><trkpt lat="46.4195326157356" lon="10.006019723600634"><ele>2222.3333333333335</ele><time>2026-03-28T13:21:45.999Z</time></trkpt><trkpt lat="46.4195008002916" lon="10.006257464026204"><ele>2223.0</ele><time>2026-03-28T13:21:46.999Z</time></trkpt><trkpt lat="46.41947343688081" lon="10.006496331413107"><ele>2224.6666666666665</ele><time>2026-03-28T13:21:47.999Z</time></trkpt><trkpt lat="46.41944097642638" lon="10.00674000826666"><ele>2226.333333333333</ele><time>2026-03-28T13:21:48.999Z</time></trkpt><trkpt lat="46.41939599294156" lon="10.006984950720813"><ele>2228.0</ele><time>2026-03-28T13:21:49.999Z</time></trkpt><trkpt lat="46.41933420523554" lon="10.007233864631488"><ele>2228.0</ele><time>2026-03-28T13:21:50.999Z</time></trkpt><trkpt lat="46.41923442176626" lon="10.007455952258189"><ele>2228.0</ele><time>2026-03-28T13:21:51.999Z</time></trkpt><trkpt lat="46.41912886765658" lon="10.007678561974858"><ele>2228.0</ele><time>2026-03-28T13:21:52.999Z</time></trkpt><trkpt lat="46.41901284221179" lon="10.007881490202704"><ele>2228.333333333333</ele><time>2026-03-28T13:21:53.999Z</time></trkpt><trkpt lat="46.418873055056615" lon="10.008067749429022"><ele>2228.6666666666665</ele><time>2026-03-28T13:21:54.999Z</time></trkpt><trkpt lat="46.41872811888835" lon="10.00823028584112"><ele>2229.0</ele><time>2026-03-28T13:21:55.999Z</time></trkpt><trkpt lat="46.41857815805591" lon="10.008406169180786"><ele>2230.6666666666665</ele><time>2026-03-28T13:21:56.999Z</time></trkpt><trkpt lat="46.4184536082292" lon="10.008598115190155"><ele>2232.333333333333</ele><time>2026-03-28T13:21:57.999Z</time></trkpt><trkpt lat="46.41832168988313" lon="10.008812714423113"><ele>2234.0</ele><time>2026-03-28T13:21:58.999Z</time></trkpt><trkpt lat="46.418189504217544" lon="10.00901713040424"><ele>2233.333333333333</ele><time>2026-03-28T13:21:59.999Z</time></trkpt><trkpt lat="46.418091855785605" lon="10.009282783674687"><ele>2232.6666666666665</ele><time>2026-03-28T13:22:00.999Z</time></trkpt><trkpt lat="46.41798861803738" lon="10.009494184987815"><ele>2232.0</ele><time>2026-03-28T13:22:01.999Z</time></trkpt><trkpt lat="46.41791281212384" lon="10.009650678656921"><ele>2232.0</ele><time>2026-03-28T13:22:02.999Z</time></trkpt><trkpt lat="46.41786668558391" lon="10.009797425631426"><ele>2232.0</ele><time>2026-03-28T13:22:04Z</time></trkpt><trkpt lat="46.417860271761185" lon="10.00997133593474"><ele>2232.0</ele><time>2026-03-28T13:22:05Z</time></trkpt><trkpt lat="46.417882418722165" lon="10.010179995393864"><ele>2232.0</ele><time>2026-03-28T13:22:06Z</time></trkpt><trkpt lat="46.4179187859291" lon="10.010428199240902"><ele>2232.3333333333335</ele><time>2026-03-28T13:22:07Z</time></trkpt><trkpt lat="46.41794056787688" lon="10.01069940386675"><ele>2232.666666666667</ele><time>2026-03-28T13:22:08Z</time></trkpt><trkpt lat="46.41796284010477" lon="10.010968966152669"><ele>2233.0</ele><time>2026-03-28T13:22:09Z</time></trkpt><trkpt lat="46.41794076144052" lon="10.011225588294645"><ele>2235.0</ele><time>2026-03-28T13:22:10Z</time></trkpt><trkpt lat="46.41791686615471" lon="10.011479001206753"><ele>2237.0</ele><time>2026-03-28T13:22:11Z</time></trkpt><trkpt lat="46.417879911792" lon="10.011722584259418"><ele>2239.0</ele><time>2026-03-28T13:22:12Z</time></trkpt><trkpt lat="46.41783188405336" lon="10.011946336048037"><ele>2241.666666666667</ele><time>2026-03-28T13:22:13Z</time></trkpt><trkpt lat="46.41775253995151" lon="10.012163545724073"><ele>2244.3333333333335</ele><time>2026-03-28T13:22:14Z</time></trkpt><trkpt lat="46.41764083004601" lon="10.012345778439292"><ele>2247.0</ele><time>2026-03-28T13:22:15Z</time></trkpt><trkpt lat="46.41749845223072" lon="10.01250382311829"><ele>2248.3333333333335</ele><time>2026-03-28T13:22:16Z</time></trkpt><trkpt lat="46.41733284648425" lon="10.012657516523575"><ele>2249.666666666667</ele><time>2026-03-28T13:22:17Z</time></trkpt><trkpt lat="46.417159948981954" lon="10.012819505685428"><ele>2251.0</ele><time>2026-03-28T13:22:18Z</time></trkpt><trkpt lat="46.41702470743912" lon="10.013031782610826"><ele>2251.0</ele><time>2026-03-28T13:22:19Z</time></trkpt><trkpt lat="46.41685731073647" lon="10.01316474444839"><ele>2251.0</ele><time>2026-03-28T13:22:20Z</time></trkpt><trkpt lat="46.416698109354435" lon="10.013302864611559"><ele>2251.0</ele><time>2026-03-28T13:22:21Z</time></trkpt><trkpt lat="46.416528709885775" lon="10.013430891181843"><ele>2252.3333333333335</ele><time>2026-03-28T13:22:22Z</time></trkpt><trkpt lat="46.41633766700084" lon="10.01345487928196"><ele>2253.6666666666665</ele><time>2026-03-28T13:22:23Z</time></trkpt><trkpt lat="46.41616856921606" lon="10.013526221869922"><ele>2255.0</ele><time>2026-03-28T13:22:24Z</time></trkpt><trkpt lat="46.4160322027152" lon="10.01363960575622"><ele>2255.0</ele><time>2026-03-28T13:22:25Z</time></trkpt><trkpt lat="46.41590903155238" lon="10.013753516065345"><ele>2255.0</ele><time>2026-03-28T13:22:26Z</time></trkpt><trkpt lat="46.41580900304617" lon="10.013940919254658"><ele>2255.0</ele><time>2026-03-28T13:22:27Z</time></trkpt><trkpt lat="46.415726579890226" lon="10.014174752850248"><ele>2258.0</ele><time>2026-03-28T13:22:28Z</time></trkpt><trkpt lat="46.41565307277988" lon="10.014422877527105"><ele>2261.0</ele><time>2026-03-28T13:22:29Z</time></trkpt><trkpt lat="46.41558578619215" lon="10.014651044060034"><ele>2264.0</ele><time>2026-03-28T13:22:30Z</time></trkpt><trkpt lat="46.41554668656827" lon="10.014916683410565"><ele>2266.333333333333</ele><time>2026-03-28T13:22:31Z</time></trkpt><trkpt lat="46.41552515044475" lon="10.015177059377184"><ele>2268.6666666666665</ele><time>2026-03-28T13:22:32Z</time></trkpt><trkpt lat="46.41552393829575" lon="10.01545821011974"><ele>2271.0</ele><time>2026-03-28T13:22:33Z</time></trkpt><trkpt lat="46.415531864260636" lon="10.01574769067269"><ele>2271.6666666666665</ele><time>2026-03-28T13:22:34Z</time></trkpt><trkpt lat="46.41553082166865" lon="10.016020233254737"><ele>2272.333333333333</ele><time>2026-03-28T13:22:35Z</time></trkpt><trkpt lat="46.415527165899746" lon="10.016282915908768"><ele>2273.0</ele><time>2026-03-28T13:22:36Z</time></trkpt><trkpt lat="46.41551997368408" lon="10.016532711806365"><ele>2272.333333333333</ele><time>2026-03-28T13:22:37Z</time></trkpt><trkpt lat="46.41551709305516" lon="10.01677706251821"><ele>2271.6666666666665</ele><time>2026-03-28T13:22:38Z</time></trkpt><trkpt lat="46.41551472972941" lon="10.017013831556133"><ele>2271.0</ele><time>2026-03-28T13:22:39Z</time></trkpt><trkpt lat="46.41552591614888" lon="10.017239499491486"><ele>2271.0</ele><time>2026-03-28T13:22:40Z</time></trkpt><trkpt lat="46.41555280011041" lon="10.017447076469132"><ele>2271.0</ele><time>2026-03-28T13:22:41Z</time></trkpt><trkpt lat="46.415604583323905" lon="10.01766946507545"><ele>2271.0</ele><time>2026-03-28T13:22:42Z</time></trkpt><trkpt lat="46.41567719397893" lon="10.0179097226157"><ele>2270.6666666666665</ele><time>2026-03-28T13:22:43Z</time></trkpt><trkpt lat="46.41575450919272" lon="10.018155745421511"><ele>2270.333333333333</ele><time>2026-03-28T13:22:44Z</time></trkpt><trkpt lat="46.41582266343149" lon="10.018398032445333"><ele>2270.0</ele><time>2026-03-28T13:22:45Z</time></trkpt><trkpt lat="46.415896896879985" lon="10.018628249984147"><ele>2269.6666666666665</ele><time>2026-03-28T13:22:46Z</time></trkpt><trkpt lat="46.415988716218706" lon="10.01885720558108"><ele>2269.3333333333335</ele><time>2026-03-28T13:22:47Z</time></trkpt><trkpt lat="46.41609088629491" lon="10.019077211380297"><ele>2269.0</ele><time>2026-03-28T13:22:48Z</time></trkpt><trkpt lat="46.416199744225004" lon="10.019296667152142"><ele>2268.666666666667</ele><time>2026-03-28T13:22:49Z</time></trkpt><trkpt lat="46.41628878074293" lon="10.019516333276275"><ele>2268.3333333333335</ele><time>2026-03-28T13:22:50Z</time></trkpt><trkpt lat="46.416400555216455" lon="10.019710415847063"><ele>2268.0</ele><time>2026-03-28T13:22:51Z</time></trkpt><trkpt lat="46.416488400386505" lon="10.019900421877352"><ele>2272.25</ele><time>2026-03-28T13:22:52Z</time></trkpt><trkpt lat="46.41656620452114" lon="10.020075220340164"><ele>2276.5</ele><time>2026-03-28T13:22:53Z</time></trkpt><trkpt lat="46.41662936997091" lon="10.020238251478565"><ele>2280.75</ele><time>2026-03-28T13:22:54Z</time></trkpt><trkpt lat="46.416692085835244" lon="10.02038360542196"><ele>2285.0</ele><time>2026-03-28T13:22:55Z</time></trkpt><trkpt lat="46.41675036930158" lon="10.02051538076076"><ele>2285.0</ele><time>2026-03-28T13:22:56Z</time></trkpt><trkpt lat="46.4167574906116" lon="10.020671626214368"><ele>2285.0</ele><time>2026-03-28T13:22:57Z</time></trkpt><trkpt lat="46.41670406214879" lon="10.020817996464334"><ele>2285.0</ele><time>2026-03-28T13:22:58Z</time></trkpt><trkpt lat="46.41663420491142" lon="10.0209431771918"><ele>2285.0</ele><time>2026-03-28T13:22:59Z</time></trkpt><trkpt lat="46.41654089876755" lon="10.021027991835364"><ele>2285.0</ele><time>2026-03-28T13:23:00Z</time></trkpt><trkpt lat="46.416427624267875" lon="10.021040946244806"><ele>2285.25</ele><time>2026-03-28T13:23:01Z</time></trkpt><trkpt lat="46.41630932335365" lon="10.021001830255493"><ele>2285.5</ele><time>2026-03-28T13:23:02Z</time></trkpt><trkpt lat="46.416176555354596" lon="10.020934678020973"><ele>2285.75</ele><time>2026-03-28T13:23:03Z</time></trkpt><trkpt lat="46.41602123955667" lon="10.020866999949321"><ele>2286.0</ele><time>2026-03-28T13:23:04Z</time></trkpt><trkpt lat="46.415875254038895" lon="10.02078580106047"><ele>2282.3333333333335</ele><time>2026-03-28T13:23:05Z</time></trkpt><trkpt lat="46.41571874764803" lon="10.020749613982558"><ele>2278.666666666667</ele><time>2026-03-28T13:23:06Z</time></trkpt><trkpt lat="46.415549267652516" lon="10.020755153378422"><ele>2275.0</ele><time>2026-03-28T13:23:07Z</time></trkpt><trkpt lat="46.41537359625185" lon="10.020764110135747"><ele>2273.666666666667</ele><time>2026-03-28T13:23:08Z</time></trkpt><trkpt lat="46.41520172432583" lon="10.020752193404409"><ele>2272.3333333333335</ele><time>2026-03-28T13:23:09Z</time></trkpt><trkpt lat="46.41502545291434" lon="10.020724433008851"><ele>2271.0</ele><time>2026-03-28T13:23:10Z</time></trkpt><trkpt lat="46.41485243608486" lon="10.020693599570086"><ele>2271.0</ele><time>2026-03-28T13:23:11Z</time></trkpt><trkpt lat="46.41468572932661" lon="10.020648324569562"><ele>2271.0</ele><time>2026-03-28T13:23:12Z</time></trkpt><trkpt lat="46.41453214445669" lon="10.020649568664961"><ele>2271.0</ele><time>2026-03-28T13:23:13Z</time></trkpt><trkpt lat="46.41438885852813" lon="10.020637190928639"><ele>2270.0</ele><time>2026-03-28T13:23:14Z</time></trkpt><trkpt lat="46.41424183008625" lon="10.020670084518859"><ele>2269.0</ele><time>2026-03-28T13:23:15Z</time></trkpt><trkpt lat="46.414084611923386" lon="10.020739518741955"><ele>2268.0</ele><time>2026-03-28T13:23:15.999Z</time></trkpt><trkpt lat="46.413910066609915" lon="10.020799010800685"><ele>2268.0</ele><time>2026-03-28T13:23:16.999Z</time></trkpt><trkpt lat="46.41374334807252" lon="10.020789667666884"><ele>2268.0</ele><time>2026-03-28T13:23:17.999Z</time></trkpt><trkpt lat="46.41359158123025" lon="10.020774645535644"><ele>2268.0</ele><time>2026-03-28T13:23:18.999Z</time></trkpt><trkpt lat="46.4134500030369" lon="10.020823107278009"><ele>2276.0</ele><time>2026-03-28T13:23:19.999Z</time></trkpt><trkpt lat="46.41331441423473" lon="10.020899760115272"><ele>2284.0</ele><time>2026-03-28T13:23:20.999Z</time></trkpt><trkpt lat="46.41317443510925" lon="10.021016855161374"><ele>2292.0</ele><time>2026-03-28T13:23:21.999Z</time></trkpt><trkpt lat="46.413031855227466" lon="10.02113829697255"><ele>2291.0</ele><time>2026-03-28T13:23:22.999Z</time></trkpt><trkpt lat="46.41289784650297" lon="10.02123968144658"><ele>2290.0</ele><time>2026-03-28T13:23:23.999Z</time></trkpt><trkpt lat="46.41275492929869" lon="10.021333521170583"><ele>2289.0</ele><time>2026-03-28T13:23:24.999Z</time></trkpt><trkpt lat="46.41262012576389" lon="10.021388516225349"><ele>2288.0</ele><time>2026-03-28T13:23:25.999Z</time></trkpt><trkpt lat="46.41248450536392" lon="10.021427078118581"><ele>2288.0</ele><time>2026-03-28T13:23:26.999Z</time></trkpt><trkpt lat="46.41234291085452" lon="10.021424757213216"><ele>2288.0</ele><time>2026-03-28T13:23:27.999Z</time></trkpt><trkpt lat="46.412201161527975" lon="10.021395496626129"><ele>2288.0</ele><time>2026-03-28T13:23:28.999Z</time></trkpt><trkpt lat="46.41206475886262" lon="10.021335432842628"><ele>2288.0</ele><time>2026-03-28T13:23:29.999Z</time></trkpt><trkpt lat="46.41191888215042" lon="10.021294562113585"><ele>2289.25</ele><time>2026-03-28T13:23:30.999Z</time></trkpt><trkpt lat="46.41177977357" lon="10.02124735323971"><ele>2290.5</ele><time>2026-03-28T13:23:31.999Z</time></trkpt><trkpt lat="46.41164400083311" lon="10.0212356882599"><ele>2291.75</ele><time>2026-03-28T13:23:32.999Z</time></trkpt><trkpt lat="46.41150408968499" lon="10.021266961709191"><ele>2293.0</ele><time>2026-03-28T13:23:33.999Z</time></trkpt><trkpt lat="46.41137594440643" lon="10.021314507937156"><ele>2293.2000000000003</ele><time>2026-03-28T13:23:34.999Z</time></trkpt><trkpt lat="46.411266794829444" lon="10.021380616124842"><ele>2293.4</ele><time>2026-03-28T13:23:35.999Z</time></trkpt><trkpt lat="46.41117802810999" lon="10.021454098365297"><ele>2293.6000000000004</ele><time>2026-03-28T13:23:36.999Z</time></trkpt><trkpt lat="46.41110148344687" lon="10.02153995655366"><ele>2293.8</ele><time>2026-03-28T13:23:37.999Z</time></trkpt><trkpt lat="46.41102920878074" lon="10.021635564471477"><ele>2294.0</ele><time>2026-03-28T13:23:38.999Z</time></trkpt><trkpt lat="46.41095332338997" lon="10.021768642986522"><ele>2297.0</ele><time>2026-03-28T13:23:39.999Z</time></trkpt><trkpt lat="46.41086174233409" lon="10.021942594041247"><ele>2300.0</ele><time>2026-03-28T13:23:40.999Z</time></trkpt><trkpt lat="46.41078876613209" lon="10.022175339804525"><ele>2303.0</ele><time>2026-03-28T13:23:41.999Z</time></trkpt><trkpt lat="46.41075072856537" lon="10.02245592131005"><ele>2303.333333333333</ele><time>2026-03-28T13:23:42.999Z</time></trkpt><trkpt lat="46.41072345703836" lon="10.02276859799993"><ele>2303.6666666666665</ele><time>2026-03-28T13:23:43.999Z</time></trkpt><trkpt lat="46.410716128373146" lon="10.02310054601547"><ele>2304.0</ele><time>2026-03-28T13:23:44.999Z</time></trkpt><trkpt lat="46.410702149461706" lon="10.023413654083239"><ele>2304.0</ele><time>2026-03-28T13:23:45.999Z</time></trkpt><trkpt lat="46.41071249799511" lon="10.023705747577907"><ele>2304.0</ele><time>2026-03-28T13:23:46.999Z</time></trkpt><trkpt lat="46.41070497550197" lon="10.024002137067809"><ele>2304.0</ele><time>2026-03-28T13:23:47.999Z</time></trkpt><trkpt lat="46.410691981090935" lon="10.02431819401866"><ele>2304.3333333333335</ele><time>2026-03-28T13:23:48.999Z</time></trkpt><trkpt lat="46.41067902350807" lon="10.024632240487827"><ele>2304.666666666667</ele><time>2026-03-28T13:23:49.999Z</time></trkpt><trkpt lat="46.41066517027704" lon="10.0249491439431"><ele>2305.0</ele><time>2026-03-28T13:23:50.999Z</time></trkpt><trkpt lat="46.41066008895877" lon="10.025267416825683"><ele>2307.666666666667</ele><time>2026-03-28T13:23:51.999Z</time></trkpt><trkpt lat="46.410668681989556" lon="10.02558696799596"><ele>2310.3333333333335</ele><time>2026-03-28T13:23:52.999Z</time></trkpt><trkpt lat="46.41068214787602" lon="10.025897482049086"><ele>2313.0</ele><time>2026-03-28T13:23:53.999Z</time></trkpt><trkpt lat="46.410680588671326" lon="10.026181712289869"><ele>2314.0</ele><time>2026-03-28T13:23:54.999Z</time></trkpt><trkpt lat="46.41070945120437" lon="10.026435951966425"><ele>2315.0</ele><time>2026-03-28T13:23:55.999Z</time></trkpt><trkpt lat="46.41075654829713" lon="10.026658325249496"><ele>2316.0</ele><time>2026-03-28T13:23:56.999Z</time></trkpt><trkpt lat="46.410792680303224" lon="10.02688261945755"><ele>2318.0</ele><time>2026-03-28T13:23:57.999Z</time></trkpt><trkpt lat="46.41083205146909" lon="10.027119880989204"><ele>2320.0</ele><time>2026-03-28T13:23:58.999Z</time></trkpt><trkpt lat="46.41087383999927" lon="10.027362427945349"><ele>2322.0</ele><time>2026-03-28T13:23:59.999Z</time></trkpt><trkpt lat="46.41090240644767" lon="10.027621738405596"><ele>2322.0</ele><time>2026-03-28T13:24:00.999Z</time></trkpt><trkpt lat="46.410944760921595" lon="10.027865347685768"><ele>2322.0</ele><time>2026-03-28T13:24:01.999Z</time></trkpt><trkpt lat="46.41100434371936" lon="10.028096764480043"><ele>2322.0</ele><time>2026-03-28T13:24:02.999Z</time></trkpt><trkpt lat="46.41105586808694" lon="10.02832503040824"><ele>2322.0</ele><time>2026-03-28T13:24:03.999Z</time></trkpt><trkpt lat="46.41112357059067" lon="10.028538750226419"><ele>2322.0</ele><time>2026-03-28T13:24:04.999Z</time></trkpt><trkpt lat="46.41120469105367" lon="10.0287431627089"><ele>2322.0</ele><time>2026-03-28T13:24:05.999Z</time></trkpt><trkpt lat="46.41129297373108" lon="10.028930925155956"><ele>2324.3333333333335</ele><time>2026-03-28T13:24:06.999Z</time></trkpt><trkpt lat="46.41138408644021" lon="10.029117725863046"><ele>2326.666666666667</ele><time>2026-03-28T13:24:07.999Z</time></trkpt><trkpt lat="46.4114577085353" lon="10.029310632962336"><ele>2329.0</ele><time>2026-03-28T13:24:08.999Z</time></trkpt><trkpt lat="46.41150357766473" lon="10.029511306412768"><ele>2329.0</ele><time>2026-03-28T13:24:10Z</time></trkpt><trkpt lat="46.411500021932255" lon="10.029720720253552"><ele>2329.0</ele><time>2026-03-28T13:24:11Z</time></trkpt><trkpt lat="46.411461925909684" lon="10.029905407811794"><ele>2329.0</ele><time>2026-03-28T13:24:12Z</time></trkpt><trkpt lat="46.411412619153026" lon="10.030104513576735"><ele>2329.0</ele><time>2026-03-28T13:24:13Z</time></trkpt><trkpt lat="46.41136147392178" lon="10.030298794934179"><ele>2328.75</ele><time>2026-03-28T13:24:14Z</time></trkpt><trkpt lat="46.411332093724816" lon="10.030495651041322"><ele>2328.5</ele><time>2026-03-28T13:24:15Z</time></trkpt><trkpt lat="46.41131788700751" lon="10.030700178836797"><ele>2328.25</ele><time>2026-03-28T13:24:16Z</time></trkpt><trkpt lat="46.41134260892905" lon="10.030912651791374"><ele>2328.0</ele><time>2026-03-28T13:24:17Z</time></trkpt><trkpt lat="46.411394986723124" lon="10.031133012104105"><ele>2326.6666666666665</ele><time>2026-03-28T13:24:18Z</time></trkpt><trkpt lat="46.41145244472339" lon="10.031351233960402"><ele>2325.333333333333</ele><time>2026-03-28T13:24:19Z</time></trkpt><trkpt lat="46.41146186748038" lon="10.031577776703067"><ele>2324.0</ele><time>2026-03-28T13:24:20Z</time></trkpt><trkpt lat="46.411446585522604" lon="10.031797126313084"><ele>2321.0</ele><time>2026-03-28T13:24:21Z</time></trkpt><trkpt lat="46.411422174418846" lon="10.032026176887314"><ele>2318.0</ele><time>2026-03-28T13:24:22Z</time></trkpt><trkpt lat="46.41140725144591" lon="10.032241264183464"><ele>2315.0</ele><time>2026-03-28T13:24:23Z</time></trkpt><trkpt lat="46.411412503659506" lon="10.032446941136254"><ele>2311.0</ele><time>2026-03-28T13:24:24Z</time></trkpt><trkpt lat="46.41145310587241" lon="10.03264770728112"><ele>2307.0</ele><time>2026-03-28T13:24:25Z</time></trkpt><trkpt lat="46.411525593677354" lon="10.032827082582031"><ele>2303.0</ele><time>2026-03-28T13:24:26Z</time></trkpt><trkpt lat="46.41162844533191" lon="10.032968402937772"><ele>2299.0</ele><time>2026-03-28T13:24:27Z</time></trkpt><trkpt lat="46.41174429233956" lon="10.033080610433988"><ele>2299.0</ele><time>2026-03-28T13:24:28Z</time></trkpt><trkpt lat="46.411879717587794" lon="10.033176488648166"><ele>2299.0</ele><time>2026-03-28T13:24:29Z</time></trkpt><trkpt lat="46.41199873636044" lon="10.0333096042112"><ele>2299.0</ele><time>2026-03-28T13:24:30Z</time></trkpt><trkpt lat="46.41212080349574" lon="10.033426559891618"><ele>2299.0</ele><time>2026-03-28T13:24:31Z</time></trkpt><trkpt lat="46.41220484988986" lon="10.033616018101503"><ele>2301.3333333333335</ele><time>2026-03-28T13:24:32Z</time></trkpt><trkpt lat="46.41227212876407" lon="10.033811653981642"><ele>2303.6666666666665</ele><time>2026-03-28T13:24:33Z</time></trkpt><trkpt lat="46.412335389980285" lon="10.034016388958827"><ele>2306.0</ele><time>2026-03-28T13:24:34Z</time></trkpt><trkpt lat="46.41240599007011" lon="10.034213121519436"><ele>2300.25</ele><time>2026-03-28T13:24:35Z</time></trkpt><trkpt lat="46.412475668651346" lon="10.0344109400064"><ele>2294.5</ele><time>2026-03-28T13:24:36Z</time></trkpt><trkpt lat="46.41257403713688" lon="10.034560701842166"><ele>2288.75</ele><time>2026-03-28T13:24:37Z</time></trkpt><trkpt lat="46.41269211738837" lon="10.034658588832576"><ele>2283.0</ele><time>2026-03-28T13:24:38Z</time></trkpt><trkpt lat="46.4128299505361" lon="10.03473434479646"><ele>2283.0</ele><time>2026-03-28T13:24:39Z</time></trkpt><trkpt lat="46.412973097393426" lon="10.034792860071764"><ele>2283.0</ele><time>2026-03-28T13:24:40Z</time></trkpt><trkpt lat="46.413108580357225" lon="10.034866357983752"><ele>2283.0</ele><time>2026-03-28T13:24:41Z</time></trkpt><trkpt lat="46.41324490993411" lon="10.034992704909941"><ele>2282.0</ele><time>2026-03-28T13:24:42Z</time></trkpt><trkpt lat="46.413372246382686" lon="10.035139374698577"><ele>2281.0</ele><time>2026-03-28T13:24:43Z</time></trkpt><trkpt lat="46.41348202407169" lon="10.035304212549683"><ele>2280.0</ele><time>2026-03-28T13:24:44Z</time></trkpt><trkpt lat="46.41358676478589" lon="10.0355040431664"><ele>2280.0</ele><time>2026-03-28T13:24:45Z</time></trkpt><trkpt lat="46.413678945851366" lon="10.035714600657771"><ele>2280.0</ele><time>2026-03-28T13:24:46Z</time></trkpt><trkpt lat="46.413757276496" lon="10.035940992373618"><ele>2280.0</ele><time>2026-03-28T13:24:47Z</time></trkpt><trkpt lat="46.4138685130919" lon="10.036146810158654"><ele>2280.6666666666665</ele><time>2026-03-28T13:24:48Z</time></trkpt><trkpt lat="46.4139836724869" lon="10.036330941432372"><ele>2281.333333333333</ele><time>2026-03-28T13:24:49Z</time></trkpt><trkpt lat="46.4140991659446" lon="10.036513870201082"><ele>2282.0</ele><time>2026-03-28T13:24:50Z</time></trkpt><trkpt lat="46.41419717876917" lon="10.036705300192914"><ele>2273.0</ele><time>2026-03-28T13:24:51Z</time></trkpt><trkpt lat="46.41426502716136" lon="10.03692382743063"><ele>2264.0</ele><time>2026-03-28T13:24:52Z</time></trkpt><trkpt lat="46.414276165420276" lon="10.037169116060104"><ele>2255.0</ele><time>2026-03-28T13:24:53Z</time></trkpt><trkpt lat="46.41426695911728" lon="10.037403794719605"><ele>2250.6666666666665</ele><time>2026-03-28T13:24:54Z</time></trkpt><trkpt lat="46.414277356399694" lon="10.037626183615089"><ele>2246.3333333333335</ele><time>2026-03-28T13:24:55Z</time></trkpt><trkpt lat="46.41429518135497" lon="10.037850262855565"><ele>2242.0</ele><time>2026-03-28T13:24:56Z</time></trkpt><trkpt lat="46.41434916111577" lon="10.038059733316873"><ele>2242.0</ele><time>2026-03-28T13:24:57Z</time></trkpt><trkpt lat="46.414439873372764" lon="10.038236607167066"><ele>2242.0</ele><time>2026-03-28T13:24:58Z</time></trkpt><trkpt lat="46.414554444079435" lon="10.038381000862332"><ele>2242.0</ele><time>2026-03-28T13:24:59Z</time></trkpt><trkpt lat="46.414685738509014" lon="10.038504619561644"><ele>2243.666666666667</ele><time>2026-03-28T13:25:00Z</time></trkpt><trkpt lat="46.414812889599034" lon="10.03862502035901"><ele>2245.3333333333335</ele><time>2026-03-28T13:25:01Z</time></trkpt><trkpt lat="46.41492504726898" lon="10.038778065033071"><ele>2247.0</ele><time>2026-03-28T13:25:02Z</time></trkpt><trkpt lat="46.415016196675374" lon="10.038957555538124"><ele>2242.5</ele><time>2026-03-28T13:25:03Z</time></trkpt><trkpt lat="46.415088345039194" lon="10.039144687798583"><ele>2238.0</ele><time>2026-03-28T13:25:04Z</time></trkpt><trkpt lat="46.415159445191065" lon="10.039335872542702"><ele>2233.5</ele><time>2026-03-28T13:25:05Z</time></trkpt><trkpt lat="46.4152402857817" lon="10.039515986190537"><ele>2229.0</ele><time>2026-03-28T13:25:06Z</time></trkpt><trkpt lat="46.4153338578482" lon="10.039681151935621"><ele>2229.0</ele><time>2026-03-28T13:25:07Z</time></trkpt><trkpt lat="46.415435586121006" lon="10.039841641714919"><ele>2229.0</ele><time>2026-03-28T13:25:08Z</time></trkpt><trkpt lat="46.415535339652365" lon="10.039982705682863"><ele>2229.0</ele><time>2026-03-28T13:25:09Z</time></trkpt><trkpt lat="46.41564134546856" lon="10.040104079959248"><ele>2229.0</ele><time>2026-03-28T13:25:10Z</time></trkpt><trkpt lat="46.41573033619182" lon="10.040236808212292"><ele>2230.8333333333335</ele><time>2026-03-28T13:25:11Z</time></trkpt><trkpt lat="46.41581442752165" lon="10.040341567786733"><ele>2232.6666666666665</ele><time>2026-03-28T13:25:12Z</time></trkpt><trkpt lat="46.41588240257152" lon="10.040434181961173"><ele>2234.5</ele><time>2026-03-28T13:25:13Z</time></trkpt><trkpt lat="46.41588077717542" lon="10.04054639299767"><ele>2236.333333333333</ele><time>2026-03-28T13:25:14Z</time></trkpt><trkpt lat="46.41585282924887" lon="10.040630313632642"><ele>2238.1666666666665</ele><time>2026-03-28T13:25:15Z</time></trkpt><trkpt lat="46.415791929850535" lon="10.04066804800854"><ele>2240.0</ele><time>2026-03-28T13:25:16Z</time></trkpt><trkpt lat="46.41572973444541" lon="10.040645239248894"><ele>2240.0</ele><time>2026-03-28T13:25:16.999Z</time></trkpt><trkpt lat="46.415654632663234" lon="10.040566494476497"><ele>2240.0</ele><time>2026-03-28T13:25:17.999Z</time></trkpt><trkpt lat="46.415567342069615" lon="10.040439416947004"><ele>2240.0</ele><time>2026-03-28T13:25:18.999Z</time></trkpt><trkpt lat="46.41547448191772" lon="10.04027857631361"><ele>2240.0</ele><time>2026-03-28T13:25:19.999Z</time></trkpt><trkpt lat="46.41537195455266" lon="10.040111714431962"><ele>2236.333333333333</ele><time>2026-03-28T13:25:20.999Z</time></trkpt><trkpt lat="46.41526448086062" lon="10.03993351722438"><ele>2232.6666666666665</ele><time>2026-03-28T13:25:21.999Z</time></trkpt><trkpt lat="46.41516388848416" lon="10.039758527372374"><ele>2229.0</ele><time>2026-03-28T13:25:22.999Z</time></trkpt><trkpt lat="46.41506226252886" lon="10.039609111436178"><ele>2229.0</ele><time>2026-03-28T13:25:23.999Z</time></trkpt><trkpt lat="46.4149409236101" lon="10.039484557360622"><ele>2229.0</ele><time>2026-03-28T13:25:24.999Z</time></trkpt><trkpt lat="46.414706112106984" lon="10.039417582558796"><ele>2229.0</ele><time>2026-03-28T13:25:25.999Z</time></trkpt><trkpt lat="46.4145350961243" lon="10.039334012679609"><ele>2223.0</ele><time>2026-03-28T13:25:26.999Z</time></trkpt><trkpt lat="46.414354221047944" lon="10.039274908214455"><ele>2217.0</ele><time>2026-03-28T13:25:27.999Z</time></trkpt><trkpt lat="46.414174292753934" lon="10.039231452299116"><ele>2211.0</ele><time>2026-03-28T13:25:28.999Z</time></trkpt><trkpt lat="46.41400368677427" lon="10.039175463128975"><ele>2210.3333333333335</ele><time>2026-03-28T13:25:29.999Z</time></trkpt><trkpt lat="46.41384134407887" lon="10.039093557385812"><ele>2209.666666666667</ele><time>2026-03-28T13:25:30.999Z</time></trkpt><trkpt lat="46.41367255311443" lon="10.038996001756223"><ele>2209.0</ele><time>2026-03-28T13:25:31.999Z</time></trkpt><trkpt lat="46.41351644039345" lon="10.038849432234125"><ele>2209.0</ele><time>2026-03-28T13:25:32.999Z</time></trkpt><trkpt lat="46.41336759676224" lon="10.038704282167611"><ele>2209.0</ele><time>2026-03-28T13:25:33.999Z</time></trkpt><trkpt lat="46.41322577574132" lon="10.038552947077388"><ele>2209.0</ele><time>2026-03-28T13:25:34.999Z</time></trkpt><trkpt lat="46.413089853671806" lon="10.038405670688922"><ele>2202.666666666667</ele><time>2026-03-28T13:25:35.999Z</time></trkpt><trkpt lat="46.41295095407983" lon="10.038281521805846"><ele>2196.3333333333335</ele><time>2026-03-28T13:25:36.999Z</time></trkpt><trkpt lat="46.412822045981315" lon="10.038145866091469"><ele>2190.0</ele><time>2026-03-28T13:25:37.999Z</time></trkpt><trkpt lat="46.41269823979343" lon="10.038012972983507"><ele>2190.0</ele><time>2026-03-28T13:25:38.999Z</time></trkpt><trkpt lat="46.41256749747781" lon="10.037897675385292"><ele>2190.0</ele><time>2026-03-28T13:25:39.999Z</time></trkpt><trkpt lat="46.412427096046315" lon="10.037838340823964"><ele>2190.0</ele><time>2026-03-28T13:25:40.999Z</time></trkpt><trkpt lat="46.41228248601276" lon="10.037854475185808"><ele>2190.0</ele><time>2026-03-28T13:25:41.999Z</time></trkpt><trkpt lat="46.41214844459744" lon="10.037946714211275"><ele>2185.3333333333335</ele><time>2026-03-28T13:25:42.999Z</time></trkpt><trkpt lat="46.41203368752614" lon="10.038101915495151"><ele>2180.666666666667</ele><time>2026-03-28T13:25:43.999Z</time></trkpt><trkpt lat="46.41195726502852" lon="10.038306889805854"><ele>2176.0</ele><time>2026-03-28T13:25:44.999Z</time></trkpt><trkpt lat="46.41193066247483" lon="10.038527623820569"><ele>2176.0</ele><time>2026-03-28T13:25:45.999Z</time></trkpt><trkpt lat="46.41195164489101" lon="10.038750867501193"><ele>2176.0</ele><time>2026-03-28T13:25:46.999Z</time></trkpt><trkpt lat="46.41201336278123" lon="10.03895422260996"><ele>2176.0</ele><time>2026-03-28T13:25:47.999Z</time></trkpt><trkpt lat="46.41216462150238" lon="10.039128531932205"><ele>2178.0</ele><time>2026-03-28T13:25:48.999Z</time></trkpt><trkpt lat="46.41229485308474" lon="10.03924274283088"><ele>2180.0</ele><time>2026-03-28T13:25:49.999Z</time></trkpt><trkpt lat="46.41241664996284" lon="10.039356417590833"><ele>2182.0</ele><time>2026-03-28T13:25:50.999Z</time></trkpt><trkpt lat="46.41250443187784" lon="10.039491856203663"><ele>2184.0</ele><time>2026-03-28T13:25:51.999Z</time></trkpt><trkpt lat="46.412534032897376" lon="10.039672950008281"><ele>2184.0</ele><time>2026-03-28T13:25:52.999Z</time></trkpt><trkpt lat="46.412527590029406" lon="10.039850495147055"><ele>2184.0</ele><time>2026-03-28T13:25:53.999Z</time></trkpt><trkpt lat="46.41253173728287" lon="10.040048714396663"><ele>2184.0</ele><time>2026-03-28T13:25:54.999Z</time></trkpt><trkpt lat="46.41254880942971" lon="10.040248719900417"><ele>2184.0</ele><time>2026-03-28T13:25:55.999Z</time></trkpt><trkpt lat="46.4125831674705" lon="10.040450092294575"><ele>2181.25</ele><time>2026-03-28T13:25:56.999Z</time></trkpt><trkpt lat="46.412656608260924" lon="10.040629791178354"><ele>2178.5</ele><time>2026-03-28T13:25:57.999Z</time></trkpt><trkpt lat="46.412755749007694" lon="10.040769825807136"><ele>2175.75</ele><time>2026-03-28T13:25:58.999Z</time></trkpt><trkpt lat="46.41288393690971" lon="10.04086923963305"><ele>2173.0</ele><time>2026-03-28T13:25:59.999Z</time></trkpt><trkpt lat="46.41303428410694" lon="10.040944201870245"><ele>2172.666666666667</ele><time>2026-03-28T13:26:00.999Z</time></trkpt><trkpt lat="46.4131828840837" lon="10.041034464909599"><ele>2172.3333333333335</ele><time>2026-03-28T13:26:01.999Z</time></trkpt><trkpt lat="46.4133164179219" lon="10.041142255838514"><ele>2172.0</ele><time>2026-03-28T13:26:02.999Z</time></trkpt><trkpt lat="46.41344416683146" lon="10.041258153318541"><ele>2172.0</ele><time>2026-03-28T13:26:03.999Z</time></trkpt><trkpt lat="46.413591488474836" lon="10.041309938446245"><ele>2172.0</ele><time>2026-03-28T13:26:04.999Z</time></trkpt><trkpt lat="46.41370875892122" lon="10.041414574289751"><ele>2172.0</ele><time>2026-03-28T13:26:05.999Z</time></trkpt><trkpt lat="46.413803490786925" lon="10.041524602071027"><ele>2172.0</ele><time>2026-03-28T13:26:06.999Z</time></trkpt><trkpt lat="46.41386188188656" lon="10.04168185851952"><ele>2171.0</ele><time>2026-03-28T13:26:07.999Z</time></trkpt><trkpt lat="46.41386894740924" lon="10.041879472968981"><ele>2170.0</ele><time>2026-03-28T13:26:08.999Z</time></trkpt><trkpt lat="46.41387751292312" lon="10.042100485507468"><ele>2169.0</ele><time>2026-03-28T13:26:09.999Z</time></trkpt><trkpt lat="46.41387939592142" lon="10.042336702219114"><ele>2168.6666666666665</ele><time>2026-03-28T13:26:10.999Z</time></trkpt><trkpt lat="46.41387043154355" lon="10.042571973463582"><ele>2168.333333333333</ele><time>2026-03-28T13:26:11.999Z</time></trkpt><trkpt lat="46.41383263836649" lon="10.042796968761486"><ele>2168.0</ele><time>2026-03-28T13:26:12.999Z</time></trkpt><trkpt lat="46.41377264145936" lon="10.043021980703784"><ele>2159.333333333333</ele><time>2026-03-28T13:26:13.999Z</time></trkpt><trkpt lat="46.413716087176816" lon="10.043251196577764"><ele>2150.6666666666665</ele><time>2026-03-28T13:26:14.999Z</time></trkpt><trkpt lat="46.41364808563348" lon="10.043461653011256"><ele>2142.0</ele><time>2026-03-28T13:26:16Z</time></trkpt><trkpt lat="46.413599609569616" lon="10.043672297622882"><ele>2141.75</ele><time>2026-03-28T13:26:17Z</time></trkpt><trkpt lat="46.41357666036617" lon="10.04387318238595"><ele>2141.5</ele><time>2026-03-28T13:26:18Z</time></trkpt><trkpt lat="46.41358471376361" lon="10.044087363154977"><ele>2141.25</ele><time>2026-03-28T13:26:19Z</time></trkpt><trkpt lat="46.41359828954106" lon="10.044292531165913"><ele>2141.0</ele><time>2026-03-28T13:26:20Z</time></trkpt><trkpt lat="46.41360737590693" lon="10.04449827441239"><ele>2141.0</ele><time>2026-03-28T13:26:21Z</time></trkpt><trkpt lat="46.41361436634226" lon="10.044677925007319"><ele>2141.0</ele><time>2026-03-28T13:26:22Z</time></trkpt><trkpt lat="46.413598777154" lon="10.044838787918378"><ele>2141.0</ele><time>2026-03-28T13:26:23Z</time></trkpt><trkpt lat="46.413509496537856" lon="10.044974579858117"><ele>2141.0</ele><time>2026-03-28T13:26:24Z</time></trkpt><trkpt lat="46.41341568621687" lon="10.045074502081695"><ele>2140.75</ele><time>2026-03-28T13:26:25Z</time></trkpt><trkpt lat="46.41329977637395" lon="10.045109903344777"><ele>2140.5</ele><time>2026-03-28T13:26:26Z</time></trkpt><trkpt lat="46.41316259951705" lon="10.045151454800683"><ele>2140.25</ele><time>2026-03-28T13:26:27Z</time></trkpt><trkpt lat="46.413027825603216" lon="10.045186704816254"><ele>2140.0</ele><time>2026-03-28T13:26:28Z</time></trkpt><trkpt lat="46.4129074545261" lon="10.045253506928038"><ele>2139.25</ele><time>2026-03-28T13:26:29Z</time></trkpt><trkpt lat="46.41280887742383" lon="10.045326419675417"><ele>2138.5</ele><time>2026-03-28T13:26:30Z</time></trkpt><trkpt lat="46.4127454630642" lon="10.045452413271168"><ele>2137.75</ele><time>2026-03-28T13:26:31Z</time></trkpt><trkpt lat="46.41272783633843" lon="10.04562371377548"><ele>2137.0</ele><time>2026-03-28T13:26:32Z</time></trkpt><trkpt lat="46.41276074059159" lon="10.045817751041856"><ele>2133.5</ele><time>2026-03-28T13:26:33Z</time></trkpt><trkpt lat="46.41280005531194" lon="10.046048534952158"><ele>2130.0</ele><time>2026-03-28T13:26:34Z</time></trkpt><trkpt lat="46.41282034901532" lon="10.046259617515187"><ele>2126.5</ele><time>2026-03-28T13:26:35Z</time></trkpt><trkpt lat="46.41285972483738" lon="10.046411055779066"><ele>2123.0</ele><time>2026-03-28T13:26:36Z</time></trkpt><trkpt lat="46.41289511238662" lon="10.046526039287052"><ele>2123.0</ele><time>2026-03-28T13:26:37Z</time></trkpt><trkpt lat="46.41295095044588" lon="10.046622877176251"><ele>2123.0</ele><time>2026-03-28T13:26:38Z</time></trkpt><trkpt lat="46.41304001259795" lon="10.046676692458703"><ele>2123.0</ele><time>2026-03-28T13:26:39Z</time></trkpt><trkpt lat="46.41314374285594" lon="10.046709384562634"><ele>2123.0</ele><time>2026-03-28T13:26:40Z</time></trkpt><trkpt lat="46.41325826228805" lon="10.046719640853897"><ele>2123.0</ele><time>2026-03-28T13:26:41Z</time></trkpt><trkpt lat="46.41339638222322" lon="10.046706437007783"><ele>2121.5</ele><time>2026-03-28T13:26:42Z</time></trkpt><trkpt lat="46.41352190683409" lon="10.046700476923215"><ele>2120.0</ele><time>2026-03-28T13:26:43Z</time></trkpt><trkpt lat="46.4136489194039" lon="10.046701394718514"><ele>2118.5</ele><time>2026-03-28T13:26:44Z</time></trkpt><trkpt lat="46.41376893170983" lon="10.046739521004643"><ele>2117.0</ele><time>2026-03-28T13:26:45Z</time></trkpt><trkpt lat="46.413864436498336" lon="10.046843100353092"><ele>2119.4</ele><time>2026-03-28T13:26:46Z</time></trkpt><trkpt lat="46.413947198678386" lon="10.046958551853475"><ele>2121.7999999999997</ele><time>2026-03-28T13:26:47Z</time></trkpt><trkpt lat="46.413991342856505" lon="10.04708748025158"><ele>2124.2</ele><time>2026-03-28T13:26:48Z</time></trkpt><trkpt lat="46.413991044893166" lon="10.047233164194964"><ele>2126.6</ele><time>2026-03-28T13:26:49Z</time></trkpt><trkpt lat="46.41393903131792" lon="10.04731392989027"><ele>2129.0</ele><time>2026-03-28T13:26:50Z</time></trkpt><trkpt lat="46.41385795208078" lon="10.047345278663201"><ele>2126.0</ele><time>2026-03-28T13:26:51Z</time></trkpt><trkpt lat="46.41376646869767" lon="10.047341328117609"><ele>2123.0</ele><time>2026-03-28T13:26:52Z</time></trkpt><trkpt lat="46.413642455280254" lon="10.047355684683499"><ele>2120.0</ele><time>2026-03-28T13:26:53Z</time></trkpt><trkpt lat="46.41351435451179" lon="10.047381615826435"><ele>2117.0</ele><time>2026-03-28T13:26:54Z</time></trkpt><trkpt lat="46.41338348068195" lon="10.047397516333398"><ele>2117.0</ele><time>2026-03-28T13:26:55Z</time></trkpt><trkpt lat="46.413257655267074" lon="10.047418121329414"><ele>2117.0</ele><time>2026-03-28T13:26:56Z</time></trkpt><trkpt lat="46.41314826869669" lon="10.047438547388902"><ele>2117.0</ele><time>2026-03-28T13:26:57Z</time></trkpt><trkpt lat="46.413069218308365" lon="10.047488200234383"><ele>2117.0</ele><time>2026-03-28T13:26:58Z</time></trkpt><trkpt lat="46.41299981662794" lon="10.04754966426607"><ele>2117.0</ele><time>2026-03-28T13:26:59Z</time></trkpt><trkpt lat="46.41302120031311" lon="10.047728561300067"><ele>2114.4</ele><time>2026-03-28T13:27:00Z</time></trkpt><trkpt lat="46.41306721070545" lon="10.04785581250072"><ele>2111.7999999999997</ele><time>2026-03-28T13:27:01Z</time></trkpt><trkpt lat="46.41312946626866" lon="10.047976267456352"><ele>2109.2</ele><time>2026-03-28T13:27:02Z</time></trkpt><trkpt lat="46.41317761069891" lon="10.048099549375356"><ele>2106.6</ele><time>2026-03-28T13:27:03Z</time></trkpt><trkpt lat="46.413205271570675" lon="10.048214614685676"><ele>2104.0</ele><time>2026-03-28T13:27:04Z</time></trkpt><trkpt lat="46.413203209528895" lon="10.048319590199242"><ele>2101.4</ele><time>2026-03-28T13:27:05Z</time></trkpt><trkpt lat="46.41315410135644" lon="10.048418331915755"><ele>2098.8</ele><time>2026-03-28T13:27:06Z</time></trkpt><trkpt lat="46.41307897527272" lon="10.048483566314495"><ele>2096.2</ele><time>2026-03-28T13:27:07Z</time></trkpt><trkpt lat="46.412991406538914" lon="10.048493404099796"><ele>2093.6</ele><time>2026-03-28T13:27:08Z</time></trkpt><trkpt lat="46.412913271504834" lon="10.04842393058757"><ele>2091.0</ele><time>2026-03-28T13:27:09Z</time></trkpt><trkpt lat="46.41286384142187" lon="10.04826902303462"><ele>2091.0</ele><time>2026-03-28T13:27:10Z</time></trkpt><trkpt lat="46.412793919239355" lon="10.048102750403302"><ele>2091.0</ele><time>2026-03-28T13:27:11Z</time></trkpt><trkpt lat="46.41271010220905" lon="10.047952707049959"><ele>2091.0</ele><time>2026-03-28T13:27:12Z</time></trkpt><trkpt lat="46.41264086440582" lon="10.047815784959825"><ele>2091.0</ele><time>2026-03-28T13:27:13Z</time></trkpt><trkpt lat="46.41254847573954" lon="10.047731052655728"><ele>2091.0</ele><time>2026-03-28T13:27:14Z</time></trkpt><trkpt lat="46.412436522419426" lon="10.047710465997959"><ele>2091.0</ele><time>2026-03-28T13:27:15Z</time></trkpt><trkpt lat="46.41232468069187" lon="10.047768705426362"><ele>2091.0</ele><time>2026-03-28T13:27:16Z</time></trkpt><trkpt lat="46.41222031301422" lon="10.04788947174656"><ele>2091.0</ele><time>2026-03-28T13:27:17Z</time></trkpt><trkpt lat="46.41209492470521" lon="10.04802866546611"><ele>2087.3333333333335</ele><time>2026-03-28T13:27:17.999Z</time></trkpt><trkpt lat="46.41193916695047" lon="10.048147530755935"><ele>2083.666666666667</ele><time>2026-03-28T13:27:18.999Z</time></trkpt><trkpt lat="46.41178725869204" lon="10.04828635725486"><ele>2080.0</ele><time>2026-03-28T13:27:19.999Z</time></trkpt><trkpt lat="46.411643664010604" lon="10.048417667368462"><ele>2079.0</ele><time>2026-03-28T13:27:20.999Z</time></trkpt><trkpt lat="46.41151025016103" lon="10.048566737939499"><ele>2078.0</ele><time>2026-03-28T13:27:21.999Z</time></trkpt><trkpt lat="46.4113647267731" lon="10.048672742024037"><ele>2077.0</ele><time>2026-03-28T13:27:22.999Z</time></trkpt><trkpt lat="46.411228877609105" lon="10.048798220123187"><ele>2073.0</ele><time>2026-03-28T13:27:23.999Z</time></trkpt><trkpt lat="46.41110530603797" lon="10.048940797216229"><ele>2069.0</ele><time>2026-03-28T13:27:24.999Z</time></trkpt><trkpt lat="46.410974783179675" lon="10.04906071500073"><ele>2065.0</ele><time>2026-03-28T13:27:25.999Z</time></trkpt><trkpt lat="46.410856027370954" lon="10.04919490637631"><ele>2065.0</ele><time>2026-03-28T13:27:26.999Z</time></trkpt><trkpt lat="46.410736753013005" lon="10.049296527941227"><ele>2065.0</ele><time>2026-03-28T13:27:27.999Z</time></trkpt><trkpt lat="46.41069755916901" lon="10.049550154067292"><ele>2065.0</ele><time>2026-03-28T13:27:28.999Z</time></trkpt><trkpt lat="46.41067036240569" lon="10.049725563488558"><ele>2065.0</ele><time>2026-03-28T13:27:29.999Z</time></trkpt><trkpt lat="46.41068612414692" lon="10.049906168884783"><ele>2064.5</ele><time>2026-03-28T13:27:30.999Z</time></trkpt><trkpt lat="46.4107322791713" lon="10.05007558353347"><ele>2064.0</ele><time>2026-03-28T13:27:31.999Z</time></trkpt><trkpt lat="46.410810229008526" lon="10.050221536804294"><ele>2063.5</ele><time>2026-03-28T13:27:32.999Z</time></trkpt><trkpt lat="46.41091129333117" lon="10.050339238916171"><ele>2063.0</ele><time>2026-03-28T13:27:33.999Z</time></trkpt><trkpt lat="46.41103067111496" lon="10.050428479027927"><ele>2063.0</ele><time>2026-03-28T13:27:34.999Z</time></trkpt><trkpt lat="46.41114520609443" lon="10.050502776450928"><ele>2063.0</ele><time>2026-03-28T13:27:35.999Z</time></trkpt><trkpt lat="46.41125450465768" lon="10.050591729259878"><ele>2063.0</ele><time>2026-03-28T13:27:36.999Z</time></trkpt><trkpt lat="46.4113383335812" lon="10.050703497749259"><ele>2063.0</ele><time>2026-03-28T13:27:37.999Z</time></trkpt><trkpt lat="46.41139608729519" lon="10.050821852051943"><ele>2061.2000000000003</ele><time>2026-03-28T13:27:38.999Z</time></trkpt><trkpt lat="46.41139805464437" lon="10.0509616323334"><ele>2059.4</ele><time>2026-03-28T13:27:39.999Z</time></trkpt><trkpt lat="46.41135818986835" lon="10.051086316003818"><ele>2057.6000000000004</ele><time>2026-03-28T13:27:40.999Z</time></trkpt><trkpt lat="46.41133644519313" lon="10.051255569884084"><ele>2055.8</ele><time>2026-03-28T13:27:41.999Z</time></trkpt><trkpt lat="46.411306318815484" lon="10.051438466106777"><ele>2054.0</ele><time>2026-03-28T13:27:42.999Z</time></trkpt><trkpt lat="46.41126150722523" lon="10.051607612104432"><ele>2051.25</ele><time>2026-03-28T13:27:43.999Z</time></trkpt><trkpt lat="46.41120563801932" lon="10.05174998990649"><ele>2048.5</ele><time>2026-03-28T13:27:44.999Z</time></trkpt><trkpt lat="46.4111103992513" lon="10.051812235130111"><ele>2045.75</ele><time>2026-03-28T13:27:45.999Z</time></trkpt><trkpt lat="46.410997000464704" lon="10.051875693607338"><ele>2043.0</ele><time>2026-03-28T13:27:46.999Z</time></trkpt><trkpt lat="46.41085775629789" lon="10.05193442156163"><ele>2043.0</ele><time>2026-03-28T13:27:47.999Z</time></trkpt><trkpt lat="46.41070747490299" lon="10.051969276730482"><ele>2043.0</ele><time>2026-03-28T13:27:48.999Z</time></trkpt><trkpt lat="46.41055825512864" lon="10.051958204059082"><ele>2043.0</ele><time>2026-03-28T13:27:49.999Z</time></trkpt><trkpt lat="46.41038458467691" lon="10.05188934983888"><ele>2041.0</ele><time>2026-03-28T13:27:50.999Z</time></trkpt><trkpt lat="46.41025653313406" lon="10.051822840974369"><ele>2039.0</ele><time>2026-03-28T13:27:51.999Z</time></trkpt><trkpt lat="46.41014019707503" lon="10.051745176333974"><ele>2037.0</ele><time>2026-03-28T13:27:52.999Z</time></trkpt><trkpt lat="46.410024581101965" lon="10.051732269360699"><ele>2035.0</ele><time>2026-03-28T13:27:53.999Z</time></trkpt><trkpt lat="46.409910874834885" lon="10.051800169950907"><ele>2035.0</ele><time>2026-03-28T13:27:54.999Z</time></trkpt><trkpt lat="46.409802447099196" lon="10.051928736077127"><ele>2035.0</ele><time>2026-03-28T13:27:55.999Z</time></trkpt><trkpt lat="46.409682495252895" lon="10.052087458284896"><ele>2035.0</ele><time>2026-03-28T13:27:56.999Z</time></trkpt><trkpt lat="46.40955929091565" lon="10.05223638470214"><ele>2031.25</ele><time>2026-03-28T13:27:57.999Z</time></trkpt><trkpt lat="46.409424585212186" lon="10.052289962543956"><ele>2027.5</ele><time>2026-03-28T13:27:58.999Z</time></trkpt><trkpt lat="46.40932560276812" lon="10.05230442862638"><ele>2023.75</ele><time>2026-03-28T13:27:59.999Z</time></trkpt><trkpt lat="46.409224818944274" lon="10.052257327722327"><ele>2020.0</ele><time>2026-03-28T13:28:00.999Z</time></trkpt><trkpt lat="46.40913240729023" lon="10.052178536552349"><ele>2020.0</ele><time>2026-03-28T13:28:01.999Z</time></trkpt><trkpt lat="46.409089548679496" lon="10.052011768319812"><ele>2020.0</ele><time>2026-03-28T13:28:02.999Z</time></trkpt><trkpt lat="46.409032308125234" lon="10.051833562780995"><ele>2020.0</ele><time>2026-03-28T13:28:03.999Z</time></trkpt><trkpt lat="46.40902209237333" lon="10.051632571746659"><ele>2020.0</ele><time>2026-03-28T13:28:04.999Z</time></trkpt><trkpt lat="46.409085428939285" lon="10.05146044819408"><ele>2020.0</ele><time>2026-03-28T13:28:05.999Z</time></trkpt><trkpt lat="46.409129289453006" lon="10.051293283741664"><ele>2020.0</ele><time>2026-03-28T13:28:06.999Z</time></trkpt><trkpt lat="46.40913613750732" lon="10.05112440421283"><ele>2020.0</ele><time>2026-03-28T13:28:07.999Z</time></trkpt><trkpt lat="46.40909132967555" lon="10.050938820289186"><ele>2020.0</ele><time>2026-03-28T13:28:08.999Z</time></trkpt><trkpt lat="46.40897694139968" lon="10.05078889985101"><ele>2020.0</ele><time>2026-03-28T13:28:09.999Z</time></trkpt><trkpt lat="46.408859511329865" lon="10.050616432801425"><ele>2020.0</ele><time>2026-03-28T13:28:10.999Z</time></trkpt><trkpt lat="46.40873840303328" lon="10.050438128114259"><ele>2020.0</ele><time>2026-03-28T13:28:11.999Z</time></trkpt><trkpt lat="46.40863136689139" lon="10.050281690082473"><ele>2016.5</ele><time>2026-03-28T13:28:12.999Z</time></trkpt><trkpt lat="46.40851888163431" lon="10.050146093700654"><ele>2013.0</ele><time>2026-03-28T13:28:13.999Z</time></trkpt><trkpt lat="46.40837967012387" lon="10.05005288515159"><ele>2009.5</ele><time>2026-03-28T13:28:14.999Z</time></trkpt><trkpt lat="46.40823103184462" lon="10.050036293401952"><ele>2006.0</ele><time>2026-03-28T13:28:15.999Z</time></trkpt><trkpt lat="46.40809552183235" lon="10.050083497041403"><ele>1999.25</ele><time>2026-03-28T13:28:16.999Z</time></trkpt><trkpt lat="46.40797047170986" lon="10.050193722382216"><ele>1992.5</ele><time>2026-03-28T13:28:17.999Z</time></trkpt><trkpt lat="46.40787752524778" lon="10.050351593586521"><ele>1985.75</ele><time>2026-03-28T13:28:18.999Z</time></trkpt><trkpt lat="46.40782104489488" lon="10.050531791324634"><ele>1979.0</ele><time>2026-03-28T13:28:19.999Z</time></trkpt><trkpt lat="46.40779960683951" lon="10.050730721255523"><ele>1977.0</ele><time>2026-03-28T13:28:20.999Z</time></trkpt><trkpt lat="46.40779906188116" lon="10.050954340409852"><ele>1975.0</ele><time>2026-03-28T13:28:22Z</time></trkpt><trkpt lat="46.40781136126213" lon="10.051195948419165"><ele>1973.0</ele><time>2026-03-28T13:28:23Z</time></trkpt><trkpt lat="46.407808200729754" lon="10.051437089030747"><ele>1972.3333333333333</ele><time>2026-03-28T13:28:24Z</time></trkpt><trkpt lat="46.40780900235671" lon="10.051665860498678"><ele>1971.6666666666665</ele><time>2026-03-28T13:28:25Z</time></trkpt><trkpt lat="46.40781484144592" lon="10.051902674348273"><ele>1971.0</ele><time>2026-03-28T13:28:26Z</time></trkpt><trkpt lat="46.40783342072435" lon="10.05212836517695"><ele>1971.0</ele><time>2026-03-28T13:28:27Z</time></trkpt><trkpt lat="46.40787532618708" lon="10.052355091795672"><ele>1971.0</ele><time>2026-03-28T13:28:28Z</time></trkpt><trkpt lat="46.407946279090396" lon="10.052569486246762"><ele>1971.0</ele><time>2026-03-28T13:28:29Z</time></trkpt><trkpt lat="46.40802656694468" lon="10.052770867134873"><ele>1972.75</ele><time>2026-03-28T13:28:30Z</time></trkpt><trkpt lat="46.40809785378963" lon="10.052980539503215"><ele>1974.5</ele><time>2026-03-28T13:28:31Z</time></trkpt><trkpt lat="46.4081071612521" lon="10.05318827080417"><ele>1976.25</ele><time>2026-03-28T13:28:32Z</time></trkpt><trkpt lat="46.40815701666986" lon="10.053362276143618"><ele>1978.0</ele><time>2026-03-28T13:28:33Z</time></trkpt><trkpt lat="46.40821165829389" lon="10.053538201443967"><ele>1978.0</ele><time>2026-03-28T13:28:34Z</time></trkpt><trkpt lat="46.40830625118756" lon="10.053673419753073"><ele>1978.0</ele><time>2026-03-28T13:28:35Z</time></trkpt><trkpt lat="46.40841380399202" lon="10.053800655935945"><ele>1978.0</ele><time>2026-03-28T13:28:36Z</time></trkpt><trkpt lat="46.40850500325812" lon="10.053942330745492"><ele>1978.0</ele><time>2026-03-28T13:28:37Z</time></trkpt><trkpt lat="46.40860841982769" lon="10.0540676171534"><ele>1976.5</ele><time>2026-03-28T13:28:38Z</time></trkpt><trkpt lat="46.408723563786886" lon="10.054169598468718"><ele>1975.0</ele><time>2026-03-28T13:28:39Z</time></trkpt><trkpt lat="46.408865837091525" lon="10.054210694933767"><ele>1973.5</ele><time>2026-03-28T13:28:40Z</time></trkpt><trkpt lat="46.40902619395407" lon="10.05422002264137"><ele>1972.0</ele><time>2026-03-28T13:28:41Z</time></trkpt><trkpt lat="46.409185854788646" lon="10.054229056270648"><ele>1972.0</ele><time>2026-03-28T13:28:42Z</time></trkpt><trkpt lat="46.40933845950669" lon="10.054252284654623"><ele>1972.0</ele><time>2026-03-28T13:28:43Z</time></trkpt><trkpt lat="46.40948640792536" lon="10.054299948410243"><ele>1972.0</ele><time>2026-03-28T13:28:44Z</time></trkpt><trkpt lat="46.40961922842914" lon="10.054336328184736"><ele>1972.0</ele><time>2026-03-28T13:28:45Z</time></trkpt><trkpt lat="46.409728698270605" lon="10.054414785895473"><ele>1971.5</ele><time>2026-03-28T13:28:46Z</time></trkpt><trkpt lat="46.40981449547369" lon="10.054537558703142"><ele>1971.0</ele><time>2026-03-28T13:28:47Z</time></trkpt><trkpt lat="46.40983316166593" lon="10.054739575329707"><ele>1970.5</ele><time>2026-03-28T13:28:48Z</time></trkpt><trkpt lat="46.409840462536025" lon="10.054958123523374"><ele>1970.0</ele><time>2026-03-28T13:28:49Z</time></trkpt><trkpt lat="46.40984889420897" lon="10.055200441049916"><ele>1968.5</ele><time>2026-03-28T13:28:50Z</time></trkpt><trkpt lat="46.40984819649816" lon="10.055420829243134"><ele>1967.0</ele><time>2026-03-28T13:28:51Z</time></trkpt><trkpt lat="46.40981889823605" lon="10.055619142513628"><ele>1965.5</ele><time>2026-03-28T13:28:52Z</time></trkpt><trkpt lat="46.40975672663924" lon="10.055812718329928"><ele>1964.0</ele><time>2026-03-28T13:28:53Z</time></trkpt><trkpt lat="46.40963050887066" lon="10.05593531677725"><ele>1964.0</ele><time>2026-03-28T13:28:54Z</time></trkpt><trkpt lat="46.40951277811438" lon="10.056095380476721"><ele>1964.0</ele><time>2026-03-28T13:28:55Z</time></trkpt><trkpt lat="46.40937734180051" lon="10.056276097162195"><ele>1964.0</ele><time>2026-03-28T13:28:56Z</time></trkpt><trkpt lat="46.40925261591309" lon="10.056442522532652"><ele>1964.0</ele><time>2026-03-28T13:28:57Z</time></trkpt><trkpt lat="46.40913829160307" lon="10.056602752185228"><ele>1964.0</ele><time>2026-03-28T13:28:58Z</time></trkpt><trkpt lat="46.409035474496626" lon="10.056770813414499"><ele>1964.0</ele><time>2026-03-28T13:28:59Z</time></trkpt><trkpt lat="46.40899318821237" lon="10.057013167623378"><ele>1958.3333333333333</ele><time>2026-03-28T13:29:00Z</time></trkpt><trkpt lat="46.40899454048318" lon="10.057245486637086"><ele>1952.6666666666665</ele><time>2026-03-28T13:29:01Z</time></trkpt><trkpt lat="46.40901747681642" lon="10.05750126656906"><ele>1947.0</ele><time>2026-03-28T13:29:02Z</time></trkpt><trkpt lat="46.40904269891818" lon="10.057731775625518"><ele>1945.5</ele><time>2026-03-28T13:29:03Z</time></trkpt><trkpt lat="46.40903940444817" lon="10.057929015950686"><ele>1944.0</ele><time>2026-03-28T13:29:04Z</time></trkpt><trkpt lat="46.409048301277686" lon="10.058123945381439"><ele>1942.5</ele><time>2026-03-28T13:29:05Z</time></trkpt><trkpt lat="46.40903328647515" lon="10.058323303138472"><ele>1941.0</ele><time>2026-03-28T13:29:06Z</time></trkpt><trkpt lat="46.40900635528889" lon="10.058527795610368"><ele>1939.6666666666665</ele><time>2026-03-28T13:29:07Z</time></trkpt><trkpt lat="46.40895994540493" lon="10.05873939210311"><ele>1938.3333333333333</ele><time>2026-03-28T13:29:08Z</time></trkpt><trkpt lat="46.408868648353156" lon="10.058928063892353"><ele>1937.0</ele><time>2026-03-28T13:29:09Z</time></trkpt><trkpt lat="46.408770172615455" lon="10.059096888733839"><ele>1936.6666666666665</ele><time>2026-03-28T13:29:10Z</time></trkpt><trkpt lat="46.40864608654459" lon="10.059257267498342"><ele>1936.3333333333335</ele><time>2026-03-28T13:29:11Z</time></trkpt><trkpt lat="46.408501398529246" lon="10.059388628450739"><ele>1936.0</ele><time>2026-03-28T13:29:12Z</time></trkpt><trkpt lat="46.40834695459918" lon="10.059482037613465"><ele>1936.0</ele><time>2026-03-28T13:29:13Z</time></trkpt><trkpt lat="46.40817072200403" lon="10.059566446599288"><ele>1936.0</ele><time>2026-03-28T13:29:14Z</time></trkpt><trkpt lat="46.40799882679351" lon="10.059680212536142"><ele>1936.0</ele><time>2026-03-28T13:29:15Z</time></trkpt><trkpt lat="46.40783339596734" lon="10.059805782069168"><ele>1932.6666666666667</ele><time>2026-03-28T13:29:16Z</time></trkpt><trkpt lat="46.407669045807495" lon="10.059995783461407"><ele>1929.3333333333335</ele><time>2026-03-28T13:29:17Z</time></trkpt><trkpt lat="46.407510165744384" lon="10.06021536256267"><ele>1926.0</ele><time>2026-03-28T13:29:18Z</time></trkpt><trkpt lat="46.40736824622007" lon="10.060424283388636"><ele>1926.0</ele><time>2026-03-28T13:29:19Z</time></trkpt><trkpt lat="46.407215638970015" lon="10.06057320786839"><ele>1926.0</ele><time>2026-03-28T13:29:19.999Z</time></trkpt><trkpt lat="46.407080784211146" lon="10.060703521825587"><ele>1926.0</ele><time>2026-03-28T13:29:20.999Z</time></trkpt><trkpt lat="46.4069316533104" lon="10.060802671003351"><ele>1921.0</ele><time>2026-03-28T13:29:21.999Z</time></trkpt><trkpt lat="46.40676039790125" lon="10.060833995916454"><ele>1916.0</ele><time>2026-03-28T13:29:22.999Z</time></trkpt><trkpt lat="46.406585268146486" lon="10.060892616795844"><ele>1911.0</ele><time>2026-03-28T13:29:23.999Z</time></trkpt><trkpt lat="46.40641184648151" lon="10.060973009233994"><ele>1916.0</ele><time>2026-03-28T13:29:24.999Z</time></trkpt><trkpt lat="46.406233018418746" lon="10.060991616579582"><ele>1921.0</ele><time>2026-03-28T13:29:25.999Z</time></trkpt><trkpt lat="46.40608253999335" lon="10.061045906773156"><ele>1926.0</ele><time>2026-03-28T13:29:26.999Z</time></trkpt><trkpt lat="46.40592775545542" lon="10.061130516502914"><ele>1926.0</ele><time>2026-03-28T13:29:27.999Z</time></trkpt><trkpt lat="46.40579525442709" lon="10.061252968607208"><ele>1926.0</ele><time>2026-03-28T13:29:28.999Z</time></trkpt><trkpt lat="46.4056622652014" lon="10.061400221360003"><ele>1926.0</ele><time>2026-03-28T13:29:29.999Z</time></trkpt><trkpt lat="46.40552508913569" lon="10.061512015486674"><ele>1919.3333333333335</ele><time>2026-03-28T13:29:30.999Z</time></trkpt><trkpt lat="46.405384554907656" lon="10.061623999776028"><ele>1912.6666666666667</ele><time>2026-03-28T13:29:31.999Z</time></trkpt><trkpt lat="46.40523197643701" lon="10.061676486339321"><ele>1906.0</ele><time>2026-03-28T13:29:32.999Z</time></trkpt><trkpt lat="46.40506684651247" lon="10.061699262478902"><ele>1906.0</ele><time>2026-03-28T13:29:33.999Z</time></trkpt><trkpt lat="46.40491952084003" lon="10.06176019479317"><ele>1906.0</ele><time>2026-03-28T13:29:34.999Z</time></trkpt><trkpt lat="46.40478414600219" lon="10.061827939818611"><ele>1906.0</ele><time>2026-03-28T13:29:35.999Z</time></trkpt><trkpt lat="46.404654149977134" lon="10.061947900696246"><ele>1904.6666666666667</ele><time>2026-03-28T13:29:36.999Z</time></trkpt><trkpt lat="46.40455692272742" lon="10.062179727742295"><ele>1903.3333333333335</ele><time>2026-03-28T13:29:37.999Z</time></trkpt><trkpt lat="46.40452843581684" lon="10.06243729425961"><ele>1902.0</ele><time>2026-03-28T13:29:38.999Z</time></trkpt><trkpt lat="46.40451388244553" lon="10.062717745882567"><ele>1898.3333333333335</ele><time>2026-03-28T13:29:39.999Z</time></trkpt><trkpt lat="46.4045154846838" lon="10.062999283116609"><ele>1894.6666666666667</ele><time>2026-03-28T13:29:40.999Z</time></trkpt><trkpt lat="46.404514928112995" lon="10.063249848650326"><ele>1891.0</ele><time>2026-03-28T13:29:41.999Z</time></trkpt><trkpt lat="46.40449696628355" lon="10.063489473301187"><ele>1891.0</ele><time>2026-03-28T13:29:42.999Z</time></trkpt><trkpt lat="46.404493573056534" lon="10.063717002841994"><ele>1891.0</ele><time>2026-03-28T13:29:43.999Z</time></trkpt><trkpt lat="46.40448549040905" lon="10.063945228808684"><ele>1891.0</ele><time>2026-03-28T13:29:44.999Z</time></trkpt><trkpt lat="46.40448308105445" lon="10.064158160426143"><ele>1889.3333333333335</ele><time>2026-03-28T13:29:45.999Z</time></trkpt><trkpt lat="46.404419062802745" lon="10.064359649632372"><ele>1887.6666666666665</ele><time>2026-03-28T13:29:46.999Z</time></trkpt><trkpt lat="46.40434230238584" lon="10.064574100374806"><ele>1886.0</ele><time>2026-03-28T13:29:47.999Z</time></trkpt><trkpt lat="46.40423628304732" lon="10.064770849381187"><ele>1886.0</ele><time>2026-03-28T13:29:48.999Z</time></trkpt><trkpt lat="46.40411028101441" lon="10.06494556534061"><ele>1886.0</ele><time>2026-03-28T13:29:49.999Z</time></trkpt><trkpt lat="46.40398046556769" lon="10.06511420916533"><ele>1886.0</ele><time>2026-03-28T13:29:50.999Z</time></trkpt><trkpt lat="46.40385001264495" lon="10.065299978990325"><ele>1886.3333333333333</ele><time>2026-03-28T13:29:51.999Z</time></trkpt><trkpt lat="46.403722151339366" lon="10.065468487316851"><ele>1886.6666666666665</ele><time>2026-03-28T13:29:52.999Z</time></trkpt><trkpt lat="46.403597610702036" lon="10.065636760353284"><ele>1887.0</ele><time>2026-03-28T13:29:53.999Z</time></trkpt><trkpt lat="46.40347266740377" lon="10.065795257591395"><ele>1883.3333333333335</ele><time>2026-03-28T13:29:54.999Z</time></trkpt><trkpt lat="46.40334993815644" lon="10.06594308708917"><ele>1879.6666666666667</ele><time>2026-03-28T13:29:55.999Z</time></trkpt><trkpt lat="46.403213259383605" lon="10.066095867611375"><ele>1876.0</ele><time>2026-03-28T13:29:56.999Z</time></trkpt><trkpt lat="46.40306307200819" lon="10.066198244951266"><ele>1877.6666666666667</ele><time>2026-03-28T13:29:57.999Z</time></trkpt><trkpt lat="46.40290147154409" lon="10.066271599111692"><ele>1879.3333333333335</ele><time>2026-03-28T13:29:58.999Z</time></trkpt><trkpt lat="46.402718905021196" lon="10.066347709045129"><ele>1881.0</ele><time>2026-03-28T13:29:59.999Z</time></trkpt><trkpt lat="46.40252561045203" lon="10.066389511217178"><ele>1881.0</ele><time>2026-03-28T13:30:00.999Z</time></trkpt><trkpt lat="46.40232780880551" lon="10.06645754708102"><ele>1881.0</ele><time>2026-03-28T13:30:01.999Z</time></trkpt><trkpt lat="46.40212763745249" lon="10.06652781228443"><ele>1881.0</ele><time>2026-03-28T13:30:02.999Z</time></trkpt><trkpt lat="46.40192738729316" lon="10.066591649177868"><ele>1881.0</ele><time>2026-03-28T13:30:03.999Z</time></trkpt><trkpt lat="46.40171929134894" lon="10.066653118809857"><ele>1881.0</ele><time>2026-03-28T13:30:04.999Z</time></trkpt><trkpt lat="46.40151172493916" lon="10.066699110495987"><ele>1881.0</ele><time>2026-03-28T13:30:05.999Z</time></trkpt><trkpt lat="46.40131098821284" lon="10.066782673190401"><ele>1882.3333333333335</ele><time>2026-03-28T13:30:06.999Z</time></trkpt><trkpt lat="46.40111029939022" lon="10.066857822552137"><ele>1883.6666666666667</ele><time>2026-03-28T13:30:07.999Z</time></trkpt><trkpt lat="46.400907548694164" lon="10.066917190180686"><ele>1885.0</ele><time>2026-03-28T13:30:08.999Z</time></trkpt><trkpt lat="46.40070216335059" lon="10.066961425565875"><ele>1885.0</ele><time>2026-03-28T13:30:09.999Z</time></trkpt><trkpt lat="46.40050143068287" lon="10.066987448841262"><ele>1885.0</ele><time>2026-03-28T13:30:10.999Z</time></trkpt><trkpt lat="46.4003063493507" lon="10.066992772818724"><ele>1885.0</ele><time>2026-03-28T13:30:11.999Z</time></trkpt><trkpt lat="46.40011137153975" lon="10.06698156892312"><ele>1885.0</ele><time>2026-03-28T13:30:12.999Z</time></trkpt><trkpt lat="46.39991251202611" lon="10.06696409470858"><ele>1885.0</ele><time>2026-03-28T13:30:13.999Z</time></trkpt><trkpt lat="46.39971935719426" lon="10.066937453906688"><ele>1885.0</ele><time>2026-03-28T13:30:14.999Z</time></trkpt><trkpt lat="46.39952711917047" lon="10.06691460597309"><ele>1883.6666666666667</ele><time>2026-03-28T13:30:15.999Z</time></trkpt><trkpt lat="46.39933387831368" lon="10.066906152665084"><ele>1882.3333333333335</ele><time>2026-03-28T13:30:16.999Z</time></trkpt><trkpt lat="46.399140562772416" lon="10.066916671973232"><ele>1881.0</ele><time>2026-03-28T13:30:17.999Z</time></trkpt><trkpt lat="46.398950974745276" lon="10.066942599809678"><ele>1878.6666666666665</ele><time>2026-03-28T13:30:18.999Z</time></trkpt><trkpt lat="46.39876927457923" lon="10.066968505577224"><ele>1876.3333333333333</ele><time>2026-03-28T13:30:19.999Z</time></trkpt><trkpt lat="46.39858368223953" lon="10.066996147315473"><ele>1874.0</ele><time>2026-03-28T13:30:20.999Z</time></trkpt><trkpt lat="46.398394920326126" lon="10.066976104151163"><ele>1874.0</ele><time>2026-03-28T13:30:21.999Z</time></trkpt><trkpt lat="46.3982252927649" lon="10.066906198854074"><ele>1874.0</ele><time>2026-03-28T13:30:22.999Z</time></trkpt><trkpt lat="46.39806394461862" lon="10.066785693506437"><ele>1874.0</ele><time>2026-03-28T13:30:23.999Z</time></trkpt><trkpt lat="46.39789316318448" lon="10.066691684920052"><ele>1868.3333333333333</ele><time>2026-03-28T13:30:24.999Z</time></trkpt><trkpt lat="46.39770360689836" lon="10.066655077115932"><ele>1862.6666666666665</ele><time>2026-03-28T13:30:25.999Z</time></trkpt><trkpt lat="46.397505825121385" lon="10.066665240384037"><ele>1857.0</ele><time>2026-03-28T13:30:26.999Z</time></trkpt><trkpt lat="46.397315818657255" lon="10.066697698223662"><ele>1862.3333333333335</ele><time>2026-03-28T13:30:28Z</time></trkpt><trkpt lat="46.39713531092232" lon="10.066694569629268"><ele>1867.6666666666667</ele><time>2026-03-28T13:30:29Z</time></trkpt><trkpt lat="46.396968084473286" lon="10.066633249695187"><ele>1873.0</ele><time>2026-03-28T13:30:30Z</time></trkpt><trkpt lat="46.3968080639903" lon="10.066508084714872"><ele>1873.0</ele><time>2026-03-28T13:30:31Z</time></trkpt><trkpt lat="46.39662559042616" lon="10.066345155733487"><ele>1873.0</ele><time>2026-03-28T13:30:32Z</time></trkpt><trkpt lat="46.39640208286646" lon="10.066207932176214"><ele>1861.0</ele><time>2026-03-28T13:30:33Z</time></trkpt><trkpt lat="46.39616554064863" lon="10.066110017797596"><ele>1849.0</ele><time>2026-03-28T13:30:34Z</time></trkpt><trkpt lat="46.39596130243723" lon="10.066007066119466"><ele>1849.0</ele><time>2026-03-28T13:30:35Z</time></trkpt><trkpt lat="46.39577564811391" lon="10.065955259493375"><ele>1849.0</ele><time>2026-03-28T13:30:36Z</time></trkpt><trkpt lat="46.395594832696645" lon="10.065931316490182"><ele>1849.0</ele><time>2026-03-28T13:30:37Z</time></trkpt><trkpt lat="46.395399112484455" lon="10.065981494968796"><ele>1842.5</ele><time>2026-03-28T13:30:38Z</time></trkpt><trkpt lat="46.395186706338805" lon="10.066098491242053"><ele>1836.0</ele><time>2026-03-28T13:30:39Z</time></trkpt><trkpt lat="46.39496068198886" lon="10.06620919043521"><ele>1836.0</ele><time>2026-03-28T13:30:40Z</time></trkpt><trkpt lat="46.394766275918954" lon="10.066293157463647"><ele>1836.0</ele><time>2026-03-28T13:30:41Z</time></trkpt><trkpt lat="46.394592229984305" lon="10.066315833906584"><ele>1836.0</ele><time>2026-03-28T13:30:42Z</time></trkpt><trkpt lat="46.394440856827885" lon="10.066253917324076"><ele>1836.8</ele><time>2026-03-28T13:30:43Z</time></trkpt><trkpt lat="46.394315259910115" lon="10.06619056159339"><ele>1837.6</ele><time>2026-03-28T13:30:44Z</time></trkpt><trkpt lat="46.39421326320738" lon="10.066148022028255"><ele>1838.4</ele><time>2026-03-28T13:30:45Z</time></trkpt><trkpt lat="46.39414083280041" lon="10.06612921867177"><ele>1839.2</ele><time>2026-03-28T13:30:46Z</time></trkpt><trkpt lat="46.39406032453079" lon="10.066158958046563"><ele>1840.0</ele><time>2026-03-28T13:30:47Z</time></trkpt><trkpt lat="46.3940196162074" lon="10.066308115628809"><ele>1840.0</ele><time>2026-03-28T13:30:48Z</time></trkpt><trkpt lat="46.394033652864074" lon="10.06642727050486"><ele>1840.0</ele><time>2026-03-28T13:30:49Z</time></trkpt><trkpt lat="46.394134142115135" lon="10.06651104770225"><ele>1840.0</ele><time>2026-03-28T13:30:50Z</time></trkpt><trkpt lat="46.39425792741071" lon="10.06652126985505"><ele>1840.0</ele><time>2026-03-28T13:30:51Z</time></trkpt><trkpt lat="46.39439866753784" lon="10.066541244183036"><ele>1840.0</ele><time>2026-03-28T13:30:52Z</time></trkpt><trkpt lat="46.39455627938853" lon="10.066571648584848"><ele>1840.0</ele><time>2026-03-28T13:30:53Z</time></trkpt><trkpt lat="46.39470821135933" lon="10.066622048370064"><ele>1840.0</ele><time>2026-03-28T13:30:54Z</time></trkpt><trkpt lat="46.39486154280534" lon="10.06667388476334"><ele>1830.0</ele><time>2026-03-28T13:30:55Z</time></trkpt><trkpt lat="46.395019435836126" lon="10.066726898962484"><ele>1820.0</ele><time>2026-03-28T13:30:56Z</time></trkpt><trkpt lat="46.39518261306058" lon="10.066760343798004"><ele>1810.0</ele><time>2026-03-28T13:30:57Z</time></trkpt><trkpt lat="46.39534541632956" lon="10.066771354112943"><ele>1810.0</ele><time>2026-03-28T13:30:58Z</time></trkpt><trkpt lat="46.39550228506507" lon="10.066758116221536"><ele>1810.0</ele><time>2026-03-28T13:30:59Z</time></trkpt><trkpt lat="46.39564760478434" lon="10.066726343101491"><ele>1810.0</ele><time>2026-03-28T13:31:00Z</time></trkpt><trkpt lat="46.39578148111386" lon="10.066695422778107"><ele>1810.0</ele><time>2026-03-28T13:31:01Z</time></trkpt><trkpt lat="46.39588873929112" lon="10.066671101624213"><ele>1810.6666666666667</ele><time>2026-03-28T13:31:02Z</time></trkpt><trkpt lat="46.39596572794381" lon="10.066696466555674"><ele>1811.3333333333335</ele><time>2026-03-28T13:31:03Z</time></trkpt><trkpt lat="46.39600594683225" lon="10.066771285573738"><ele>1812.0</ele><time>2026-03-28T13:31:04Z</time></trkpt><trkpt lat="46.395981605322056" lon="10.066893379644085"><ele>1812.6666666666665</ele><time>2026-03-28T13:31:06Z</time></trkpt><trkpt lat="46.39591709839966" lon="10.066945175918693"><ele>1813.3333333333333</ele><time>2026-03-28T13:31:07Z</time></trkpt><trkpt lat="46.395795122797956" lon="10.066981630515373"><ele>1814.0</ele><time>2026-03-28T13:31:08Z</time></trkpt><trkpt lat="46.39567644979129" lon="10.067006438405386"><ele>1812.6666666666665</ele><time>2026-03-28T13:31:09Z</time></trkpt><trkpt lat="46.39545257388947" lon="10.067087677599018"><ele>1811.3333333333335</ele><time>2026-03-28T13:31:10Z</time></trkpt><trkpt lat="46.39525926205994" lon="10.067164094419002"><ele>1810.0</ele><time>2026-03-28T13:31:11Z</time></trkpt><trkpt lat="46.39505118462572" lon="10.067257308943631"><ele>1810.0</ele><time>2026-03-28T13:31:12Z</time></trkpt><trkpt lat="46.394913738729656" lon="10.067275844440577"><ele>1810.0</ele><time>2026-03-28T13:31:13Z</time></trkpt><trkpt lat="46.39473354024116" lon="10.067357165505518"><ele>1810.0</ele><time>2026-03-28T13:31:14Z</time></trkpt><trkpt lat="46.39455973642227" lon="10.067437287413497"><ele>1800.6666666666667</ele><time>2026-03-28T13:31:15Z</time></trkpt><trkpt lat="46.394395800596456" lon="10.067512132074542"><ele>1791.3333333333335</ele><time>2026-03-28T13:31:16Z</time></trkpt><trkpt lat="46.39424988546627" lon="10.067620222937833"><ele>1782.0</ele><time>2026-03-28T13:31:17Z</time></trkpt><trkpt lat="46.39412636122453" lon="10.067778270504737"><ele>1782.0</ele><time>2026-03-28T13:31:18Z</time></trkpt><trkpt lat="46.394022639940296" lon="10.067961835099403"><ele>1782.0</ele><time>2026-03-28T13:31:19Z</time></trkpt><trkpt lat="46.393930177736806" lon="10.068158600060494"><ele>1782.0</ele><time>2026-03-28T13:31:20Z</time></trkpt><trkpt lat="46.39385237469014" lon="10.068361057955698"><ele>1770.3333333333335</ele><time>2026-03-28T13:31:21Z</time></trkpt><trkpt lat="46.39380305363771" lon="10.068568171455334"><ele>1758.6666666666667</ele><time>2026-03-28T13:31:22Z</time></trkpt><trkpt lat="46.393783940728696" lon="10.068796391193604"><ele>1747.0</ele><time>2026-03-28T13:31:23Z</time></trkpt><trkpt lat="46.39378121095849" lon="10.069015857373877"><ele>1747.0</ele><time>2026-03-28T13:31:24Z</time></trkpt><trkpt lat="46.393799577123204" lon="10.069211286722467"><ele>1747.0</ele><time>2026-03-28T13:31:24.999Z</time></trkpt><trkpt lat="46.39384388360558" lon="10.069370000987995"><ele>1747.0</ele><time>2026-03-28T13:31:25.999Z</time></trkpt><trkpt lat="46.39392620408823" lon="10.069495971780515"><ele>1747.0</ele><time>2026-03-28T13:31:26.999Z</time></trkpt><trkpt lat="46.39403412778333" lon="10.069606968720718"><ele>1754.6666666666667</ele><time>2026-03-28T13:31:27.999Z</time></trkpt><trkpt lat="46.394163929500046" lon="10.06971321106634"><ele>1762.3333333333335</ele><time>2026-03-28T13:31:28.999Z</time></trkpt><trkpt lat="46.39430305749252" lon="10.069800200336413"><ele>1770.0</ele><time>2026-03-28T13:31:29.999Z</time></trkpt><trkpt lat="46.394450938039355" lon="10.06984576367308"><ele>1770.0</ele><time>2026-03-28T13:31:30.999Z</time></trkpt><trkpt lat="46.39460492584858" lon="10.069848782533414"><ele>1770.0</ele><time>2026-03-28T13:31:31.999Z</time></trkpt><trkpt lat="46.39474911373596" lon="10.069818489188453"><ele>1770.0</ele><time>2026-03-28T13:31:32.999Z</time></trkpt><trkpt lat="46.39488136170669" lon="10.069773656326246"><ele>1770.0</ele><time>2026-03-28T13:31:33.999Z</time></trkpt><trkpt lat="46.395014056638246" lon="10.069737480078235"><ele>1769.0</ele><time>2026-03-28T13:31:34.999Z</time></trkpt><trkpt lat="46.39513914055738" lon="10.06974644030078"><ele>1768.0</ele><time>2026-03-28T13:31:35.999Z</time></trkpt><trkpt lat="46.395211983182804" lon="10.069877354251807"><ele>1767.0</ele><time>2026-03-28T13:31:36.999Z</time></trkpt><trkpt lat="46.395255604703735" lon="10.070012772192591"><ele>1766.0</ele><time>2026-03-28T13:31:37.999Z</time></trkpt><trkpt lat="46.39524205288018" lon="10.07015413586827"><ele>1765.0</ele><time>2026-03-28T13:31:38.999Z</time></trkpt><trkpt lat="46.39517724478824" lon="10.070260559842824"><ele>1764.5</ele><time>2026-03-28T13:31:39.999Z</time></trkpt><trkpt lat="46.395068201830135" lon="10.070354237991731"><ele>1764.0</ele><time>2026-03-28T13:31:40.999Z</time></trkpt><trkpt lat="46.39494940958372" lon="10.070474038927056"><ele>1763.5</ele><time>2026-03-28T13:31:41.999Z</time></trkpt><trkpt lat="46.394802804527345" lon="10.070567525568398"><ele>1763.0</ele><time>2026-03-28T13:31:42.999Z</time></trkpt><trkpt lat="46.39464853532521" lon="10.070606806415183"><ele>1763.0</ele><time>2026-03-28T13:31:43.999Z</time></trkpt><trkpt lat="46.39450328020272" lon="10.070577408532698"><ele>1763.0</ele><time>2026-03-28T13:31:44.999Z</time></trkpt><trkpt lat="46.39435879718757" lon="10.070580231269794"><ele>1763.0</ele><time>2026-03-28T13:31:45.999Z</time></trkpt><trkpt lat="46.39421496309943" lon="10.07064496589057"><ele>1763.0</ele><time>2026-03-28T13:31:46.999Z</time></trkpt><trkpt lat="46.394100506809146" lon="10.070781560692966"><ele>1760.25</ele><time>2026-03-28T13:31:47.999Z</time></trkpt><trkpt lat="46.39399136643966" lon="10.070919151487912"><ele>1757.5</ele><time>2026-03-28T13:31:48.999Z</time></trkpt><trkpt lat="46.39388634909205" lon="10.071056269055367"><ele>1754.75</ele><time>2026-03-28T13:31:49.999Z</time></trkpt><trkpt lat="46.39378216826925" lon="10.071140578478738"><ele>1752.0</ele><time>2026-03-28T13:31:50.999Z</time></trkpt><trkpt lat="46.39369596619572" lon="10.071151378142503"><ele>1749.5</ele><time>2026-03-28T13:31:51.999Z</time></trkpt><trkpt lat="46.39361836475568" lon="10.071031107897307"><ele>1747.0</ele><time>2026-03-28T13:31:52.999Z</time></trkpt><trkpt lat="46.39352157473161" lon="10.070894708731451"><ele>1744.5</ele><time>2026-03-28T13:31:53.999Z</time></trkpt><trkpt lat="46.39339132278849" lon="10.070720505732876"><ele>1742.0</ele><time>2026-03-28T13:31:54.999Z</time></trkpt><trkpt lat="46.39324886903346" lon="10.070529792329557"><ele>1742.0</ele><time>2026-03-28T13:31:55.999Z</time></trkpt><trkpt lat="46.39310102298413" lon="10.070349391160216"><ele>1742.0</ele><time>2026-03-28T13:31:56.999Z</time></trkpt><trkpt lat="46.392992736000956" lon="10.070159461547266"><ele>1742.0</ele><time>2026-03-28T13:31:57.999Z</time></trkpt><trkpt lat="46.392878231412446" lon="10.069987591913613"><ele>1739.0</ele><time>2026-03-28T13:31:58.999Z</time></trkpt><trkpt lat="46.392785499854405" lon="10.06979567703361"><ele>1736.0</ele><time>2026-03-28T13:31:59.999Z</time></trkpt><trkpt lat="46.392692992554565" lon="10.0696058645565"><ele>1733.0</ele><time>2026-03-28T13:32:00.999Z</time></trkpt><trkpt lat="46.39260396404321" lon="10.069410656991492"><ele>1733.0</ele><time>2026-03-28T13:32:01.999Z</time></trkpt><trkpt lat="46.392520685173274" lon="10.069206866648138"><ele>1733.0</ele><time>2026-03-28T13:32:02.999Z</time></trkpt><trkpt lat="46.392441942734244" lon="10.069002929285674"><ele>1733.0</ele><time>2026-03-28T13:32:03.999Z</time></trkpt><trkpt lat="46.39238172307282" lon="10.068791325443808"><ele>1731.5</ele><time>2026-03-28T13:32:04.999Z</time></trkpt><trkpt lat="46.39234077105773" lon="10.068571438603003"><ele>1730.0</ele><time>2026-03-28T13:32:05.999Z</time></trkpt><trkpt lat="46.392309496181205" lon="10.068363725535253"><ele>1728.5</ele><time>2026-03-28T13:32:06.999Z</time></trkpt><trkpt lat="46.3922731123791" lon="10.068201483783314"><ele>1727.0</ele><time>2026-03-28T13:32:07.999Z</time></trkpt><trkpt lat="46.392207465459535" lon="10.068092429424818"><ele>1726.0</ele><time>2026-03-28T13:32:08.999Z</time></trkpt><trkpt lat="46.392106690304615" lon="10.068066825328586"><ele>1725.0</ele><time>2026-03-28T13:32:09.999Z</time></trkpt><trkpt lat="46.391993745491455" lon="10.068086780730317"><ele>1724.0</ele><time>2026-03-28T13:32:10.999Z</time></trkpt><trkpt lat="46.3918610161137" lon="10.068206817165809"><ele>1723.0</ele><time>2026-03-28T13:32:11.999Z</time></trkpt><trkpt lat="46.3917376806824" lon="10.068308727857639"><ele>1720.5</ele><time>2026-03-28T13:32:12.999Z</time></trkpt><trkpt lat="46.391627093664276" lon="10.068414732178084"><ele>1718.0</ele><time>2026-03-28T13:32:13.999Z</time></trkpt><trkpt lat="46.391543105459576" lon="10.068530704367276"><ele>1715.5</ele><time>2026-03-28T13:32:14.999Z</time></trkpt><trkpt lat="46.391491345277444" lon="10.068696267680824"><ele>1713.0</ele><time>2026-03-28T13:32:15.999Z</time></trkpt><trkpt lat="46.39147812293223" lon="10.068881950533976"><ele>1713.0</ele><time>2026-03-28T13:32:16.999Z</time></trkpt><trkpt lat="46.39148596101653" lon="10.069081219984032"><ele>1713.0</ele><time>2026-03-28T13:32:17.999Z</time></trkpt><trkpt lat="46.391515585656315" lon="10.06927286389941"><ele>1713.0</ele><time>2026-03-28T13:32:18.999Z</time></trkpt><trkpt lat="46.39157785937373" lon="10.069475654150072"><ele>1713.0</ele><time>2026-03-28T13:32:19.999Z</time></trkpt><trkpt lat="46.39166917076113" lon="10.069693029226825"><ele>1711.0</ele><time>2026-03-28T13:32:20.999Z</time></trkpt><trkpt lat="46.39167167912745" lon="10.0699467089673"><ele>1709.0</ele><time>2026-03-28T13:32:21.999Z</time></trkpt><trkpt lat="46.39167170288406" lon="10.070256546244877"><ele>1707.0</ele><time>2026-03-28T13:32:22.999Z</time></trkpt><trkpt lat="46.391721892660826" lon="10.070599166052787"><ele>1703.3333333333335</ele><time>2026-03-28T13:32:23.999Z</time></trkpt><trkpt lat="46.391771610244774" lon="10.070906888150065"><ele>1699.6666666666667</ele><time>2026-03-28T13:32:24.999Z</time></trkpt><trkpt lat="46.391794474715326" lon="10.071215416776798"><ele>1696.0</ele><time>2026-03-28T13:32:25.999Z</time></trkpt><trkpt lat="46.39179688344007" lon="10.071522721305929"><ele>1692.3333333333335</ele><time>2026-03-28T13:32:26.999Z</time></trkpt><trkpt lat="46.39181404521692" lon="10.071822144170495"><ele>1688.6666666666665</ele><time>2026-03-28T13:32:27.999Z</time></trkpt><trkpt lat="46.391845112902416" lon="10.072102743023397"><ele>1685.0</ele><time>2026-03-28T13:32:28.999Z</time></trkpt><trkpt lat="46.39187876068494" lon="10.072378138505785"><ele>1680.0</ele><time>2026-03-28T13:32:29.999Z</time></trkpt><trkpt lat="46.39191192119866" lon="10.072649295987041"><ele>1675.0</ele><time>2026-03-28T13:32:30.999Z</time></trkpt><trkpt lat="46.39194274307031" lon="10.072907709123417"><ele>1670.0</ele><time>2026-03-28T13:32:31.999Z</time></trkpt><trkpt lat="46.39196653020946" lon="10.073115479768301"><ele>1665.25</ele><time>2026-03-28T13:32:32.999Z</time></trkpt><trkpt lat="46.39200521687122" lon="10.073289622268753"><ele>1660.5</ele><time>2026-03-28T13:32:34Z</time></trkpt><trkpt lat="46.392095422343324" lon="10.073416502789023"><ele>1655.75</ele><time>2026-03-28T13:32:35Z</time></trkpt><trkpt lat="46.39220476384256" lon="10.073527284862923"><ele>1651.0</ele><time>2026-03-28T13:32:36Z</time></trkpt><trkpt lat="46.392338759610396" lon="10.073639270151885"><ele>1665.3333333333335</ele><time>2026-03-28T13:32:37Z</time></trkpt><trkpt lat="46.39249583450393" lon="10.073763375749706"><ele>1679.6666666666665</ele><time>2026-03-28T13:32:38Z</time></trkpt><trkpt lat="46.392629989905515" lon="10.073880675111743"><ele>1694.0</ele><time>2026-03-28T13:32:39Z</time></trkpt><trkpt lat="46.392744557797826" lon="10.074001628063336"><ele>1689.0</ele><time>2026-03-28T13:32:40Z</time></trkpt><trkpt lat="46.39282221887317" lon="10.074107706833148"><ele>1684.0</ele><time>2026-03-28T13:32:41Z</time></trkpt><trkpt lat="46.39281358360941" lon="10.074271750964538"><ele>1679.0</ele><time>2026-03-28T13:32:42Z</time></trkpt><trkpt lat="46.39278075343868" lon="10.074397513296695"><ele>1674.0</ele><time>2026-03-28T13:32:43Z</time></trkpt><trkpt lat="46.39274465071792" lon="10.07453438919684"><ele>1669.0</ele><time>2026-03-28T13:32:44Z</time></trkpt><trkpt lat="46.39264242070969" lon="10.074684533125664"><ele>1669.0</ele><time>2026-03-28T13:32:45Z</time></trkpt><trkpt lat="46.39253109338707" lon="10.074824944189183"><ele>1669.0</ele><time>2026-03-28T13:32:46Z</time></trkpt><trkpt lat="46.39241511574185" lon="10.074944871470683"><ele>1669.0</ele><time>2026-03-28T13:32:47Z</time></trkpt><trkpt lat="46.39229096343107" lon="10.074999899645494"><ele>1669.0</ele><time>2026-03-28T13:32:48Z</time></trkpt><trkpt lat="46.39217388392748" lon="10.075073087236351"><ele>1665.0</ele><time>2026-03-28T13:32:49Z</time></trkpt><trkpt lat="46.39207247097178" lon="10.075155303244616"><ele>1661.0</ele><time>2026-03-28T13:32:50Z</time></trkpt><trkpt lat="46.3919842805959" lon="10.075267195604226"><ele>1657.0</ele><time>2026-03-28T13:32:51Z</time></trkpt><trkpt lat="46.39191081364816" lon="10.075417544208507"><ele>1653.0</ele><time>2026-03-28T13:32:52Z</time></trkpt><trkpt lat="46.391867011005395" lon="10.075625148079052"><ele>1653.6666666666665</ele><time>2026-03-28T13:32:53Z</time></trkpt><trkpt lat="46.39182920323988" lon="10.075834741000117"><ele>1654.3333333333333</ele><time>2026-03-28T13:32:54Z</time></trkpt><trkpt lat="46.391780831250884" lon="10.076069950060385"><ele>1655.0</ele><time>2026-03-28T13:32:55Z</time></trkpt><trkpt lat="46.39175106517903" lon="10.076298942904788"><ele>1655.0</ele><time>2026-03-28T13:32:56Z</time></trkpt><trkpt lat="46.39171122851758" lon="10.076468069687147"><ele>1655.0</ele><time>2026-03-28T13:32:57Z</time></trkpt><trkpt lat="46.39167420639048" lon="10.076614822962723"><ele>1655.0</ele><time>2026-03-28T13:32:58Z</time></trkpt><trkpt lat="46.39164039397718" lon="10.076757850431397"><ele>1655.0</ele><time>2026-03-28T13:32:59Z</time></trkpt><trkpt lat="46.391600554484604" lon="10.076910082977982"><ele>1655.0</ele><time>2026-03-28T13:33:00Z</time></trkpt><trkpt lat="46.39154576343423" lon="10.077059281672879"><ele>1655.0</ele><time>2026-03-28T13:33:01Z</time></trkpt><trkpt lat="46.39147630738394" lon="10.077218541480338"><ele>1655.0</ele><time>2026-03-28T13:33:02Z</time></trkpt><trkpt lat="46.39139170236633" lon="10.077345184139483"><ele>1655.0</ele><time>2026-03-28T13:33:03Z</time></trkpt><trkpt lat="46.39131288961447" lon="10.077483784443304"><ele>1655.0</ele><time>2026-03-28T13:33:04Z</time></trkpt><trkpt lat="46.39123119251984" lon="10.077600642413373"><ele>1651.5</ele><time>2026-03-28T13:33:05Z</time></trkpt><trkpt lat="46.391145431194374" lon="10.077717630807392"><ele>1648.0</ele><time>2026-03-28T13:33:06Z</time></trkpt><trkpt lat="46.391045902599544" lon="10.077861622460025"><ele>1644.5</ele><time>2026-03-28T13:33:07Z</time></trkpt><trkpt lat="46.39092277338124" lon="10.078052615511247"><ele>1641.0</ele><time>2026-03-28T13:33:08Z</time></trkpt><trkpt lat="46.39078578748349" lon="10.078287113300165"><ele>1641.0</ele><time>2026-03-28T13:33:09Z</time></trkpt><trkpt lat="46.39065523785127" lon="10.078508114871493"><ele>1641.0</ele><time>2026-03-28T13:33:10Z</time></trkpt><trkpt lat="46.39052411102466" lon="10.078715860314187"><ele>1641.0</ele><time>2026-03-28T13:33:11Z</time></trkpt><trkpt lat="46.390373052764446" lon="10.078874556986998"><ele>1633.3333333333335</ele><time>2026-03-28T13:33:12Z</time></trkpt><trkpt lat="46.390219939149986" lon="10.079008405103952"><ele>1625.6666666666667</ele><time>2026-03-28T13:33:13Z</time></trkpt><trkpt lat="46.39006525708763" lon="10.079133027437313"><ele>1618.0</ele><time>2026-03-28T13:33:14Z</time></trkpt><trkpt lat="46.38991797127436" lon="10.079272353561478"><ele>1618.0</ele><time>2026-03-28T13:33:15Z</time></trkpt><trkpt lat="46.38978041137442" lon="10.079411354957864"><ele>1618.0</ele><time>2026-03-28T13:33:16Z</time></trkpt><trkpt lat="46.38965437771135" lon="10.079570607398212"><ele>1618.0</ele><time>2026-03-28T13:33:17Z</time></trkpt><trkpt lat="46.38954008764901" lon="10.07974718906143"><ele>1618.0</ele><time>2026-03-28T13:33:17.999Z</time></trkpt><trkpt lat="46.3894331759704" lon="10.079946615998093"><ele>1618.0</ele><time>2026-03-28T13:33:18.999Z</time></trkpt><trkpt lat="46.38931713507988" lon="10.080096002851588"><ele>1618.0</ele><time>2026-03-28T13:33:19.999Z</time></trkpt><trkpt lat="46.38918113712679" lon="10.08019854030266"><ele>1618.0</ele><time>2026-03-28T13:33:20.999Z</time></trkpt><trkpt lat="46.389024222905825" lon="10.080241396587931"><ele>1618.0</ele><time>2026-03-28T13:33:21.999Z</time></trkpt><trkpt lat="46.3888562667111" lon="10.0802305559752"><ele>1618.0</ele><time>2026-03-28T13:33:22.999Z</time></trkpt><trkpt lat="46.38865107021979" lon="10.080209860782634"><ele>1614.5</ele><time>2026-03-28T13:33:23.999Z</time></trkpt><trkpt lat="46.38842097177773" lon="10.080185399489032"><ele>1611.0</ele><time>2026-03-28T13:33:24.999Z</time></trkpt><trkpt lat="46.38818234166636" lon="10.080176535366757"><ele>1609.6666666666665</ele><time>2026-03-28T13:33:25.999Z</time></trkpt><trkpt lat="46.38795365601597" lon="10.080147057633974"><ele>1608.3333333333333</ele><time>2026-03-28T13:33:26.999Z</time></trkpt><trkpt lat="46.38773920281422" lon="10.080093231095756"><ele>1607.0</ele><time>2026-03-28T13:33:27.999Z</time></trkpt><trkpt lat="46.38752655997004" lon="10.080025825886478"><ele>1595.0</ele><time>2026-03-28T13:33:28.999Z</time></trkpt><trkpt lat="46.3873251198679" lon="10.079925865040426"><ele>1583.0</ele><time>2026-03-28T13:33:29.999Z</time></trkpt><trkpt lat="46.387119902639185" lon="10.079853109479776"><ele>1571.0</ele><time>2026-03-28T13:33:30.999Z</time></trkpt><trkpt lat="46.386914996477245" lon="10.079770423216074"><ele>1570.6666666666665</ele><time>2026-03-28T13:33:31.999Z</time></trkpt><trkpt lat="46.38672023167031" lon="10.079713294761694"><ele>1570.3333333333335</ele><time>2026-03-28T13:33:32.999Z</time></trkpt><trkpt lat="46.38651721899154" lon="10.07970089881312"><ele>1570.0</ele><time>2026-03-28T13:33:33.999Z</time></trkpt><trkpt lat="46.38632822531496" lon="10.079717744898762"><ele>1568.0</ele><time>2026-03-28T13:33:34.999Z</time></trkpt><trkpt lat="46.38613603219276" lon="10.07970346243782"><ele>1566.0</ele><time>2026-03-28T13:33:35.999Z</time></trkpt><trkpt lat="46.38596866928893" lon="10.079725794976003"><ele>1564.0</ele><time>2026-03-28T13:33:36.999Z</time></trkpt><trkpt lat="46.38581543850014" lon="10.079791395025557"><ele>1564.0</ele><time>2026-03-28T13:33:37.999Z</time></trkpt><trkpt lat="46.38570584992839" lon="10.07990019796791"><ele>1564.0</ele><time>2026-03-28T13:33:38.999Z</time></trkpt><trkpt lat="46.385611973079754" lon="10.08000615754504"><ele>1564.0</ele><time>2026-03-28T13:33:39.999Z</time></trkpt><trkpt lat="46.38552040546604" lon="10.080058613262699"><ele>1564.0</ele><time>2026-03-28T13:33:40.999Z</time></trkpt><trkpt lat="46.385422458368254" lon="10.080037204825198"><ele>1564.0</ele><time>2026-03-28T13:33:41.999Z</time></trkpt><trkpt lat="46.385325031051934" lon="10.07992672079524"><ele>1568.5</ele><time>2026-03-28T13:33:42.999Z</time></trkpt><trkpt lat="46.385225144583465" lon="10.079793063670243"><ele>1573.0</ele><time>2026-03-28T13:33:43.999Z</time></trkpt><trkpt lat="46.38512705892382" lon="10.079660739303968"><ele>1577.5</ele><time>2026-03-28T13:33:44.999Z</time></trkpt><trkpt lat="46.385048296417956" lon="10.079508360261599"><ele>1582.0</ele><time>2026-03-28T13:33:45.999Z</time></trkpt><trkpt lat="46.3849865715741" lon="10.079308996251802"><ele>1577.3333333333335</ele><time>2026-03-28T13:33:46.999Z</time></trkpt><trkpt lat="46.3849234440145" lon="10.07907353124666"><ele>1572.6666666666665</ele><time>2026-03-28T13:33:47.999Z</time></trkpt><trkpt lat="46.38487630123102" lon="10.0788220799757"><ele>1568.0</ele><time>2026-03-28T13:33:48.999Z</time></trkpt><trkpt lat="46.384815821060236" lon="10.07860148684753"><ele>1568.0</ele><time>2026-03-28T13:33:49.999Z</time></trkpt><trkpt lat="46.384743021688784" lon="10.078386301847432"><ele>1568.0</ele><time>2026-03-28T13:33:50.999Z</time></trkpt><trkpt lat="46.384674688830614" lon="10.078174770037986"><ele>1568.0</ele><time>2026-03-28T13:33:51.999Z</time></trkpt><trkpt lat="46.38457535457856" lon="10.07799625606094"><ele>1569.5</ele><time>2026-03-28T13:33:52.999Z</time></trkpt><trkpt lat="46.38446701087996" lon="10.077825909221913"><ele>1571.0</ele><time>2026-03-28T13:33:53.999Z</time></trkpt><trkpt lat="46.384388848579576" lon="10.077656746420088"><ele>1572.5</ele><time>2026-03-28T13:33:54.999Z</time></trkpt><trkpt lat="46.3843478876495" lon="10.07745794929832"><ele>1574.0</ele><time>2026-03-28T13:33:55.999Z</time></trkpt><trkpt lat="46.3843190524063" lon="10.077251112837844"><ele>1569.5</ele><time>2026-03-28T13:33:56.999Z</time></trkpt><trkpt lat="46.3842274737149" lon="10.07709332473295"><ele>1565.0</ele><time>2026-03-28T13:33:57.999Z</time></trkpt><trkpt lat="46.38427021670071" lon="10.076901510169282"><ele>1560.5</ele><time>2026-03-28T13:33:58.999Z</time></trkpt><trkpt lat="46.3843260243478" lon="10.07668781334369"><ele>1556.0</ele><time>2026-03-28T13:33:59.999Z</time></trkpt><trkpt lat="46.38438163048283" lon="10.076456208577353"><ele>1555.75</ele><time>2026-03-28T13:34:00.999Z</time></trkpt><trkpt lat="46.384419906421215" lon="10.076232196477674"><ele>1555.5</ele><time>2026-03-28T13:34:01.999Z</time></trkpt><trkpt lat="46.38442321555779" lon="10.076032590708918"><ele>1555.25</ele><time>2026-03-28T13:34:02.999Z</time></trkpt><trkpt lat="46.384397343784876" lon="10.075872060512047"><ele>1555.0</ele><time>2026-03-28T13:34:03.999Z</time></trkpt><trkpt lat="46.38432014693462" lon="10.075696044177098"><ele>1551.6666666666667</ele><time>2026-03-28T13:34:04.999Z</time></trkpt><trkpt lat="46.384224564049184" lon="10.07549266314561"><ele>1548.3333333333335</ele><time>2026-03-28T13:34:05.999Z</time></trkpt><trkpt lat="46.384137944906314" lon="10.075273611301991"><ele>1545.0</ele><time>2026-03-28T13:34:06.999Z</time></trkpt><trkpt lat="46.38405700250504" lon="10.075054519773193"><ele>1546.0</ele><time>2026-03-28T13:34:07.999Z</time></trkpt><trkpt lat="46.38398007627626" lon="10.074843067751729"><ele>1547.0</ele><time>2026-03-28T13:34:08.999Z</time></trkpt><trkpt lat="46.383902885563685" lon="10.074643512904654"><ele>1548.0</ele><time>2026-03-28T13:34:09.999Z</time></trkpt><trkpt lat="46.38381119816639" lon="10.074461784085635"><ele>1548.0</ele><time>2026-03-28T13:34:10.999Z</time></trkpt><trkpt lat="46.38370450547362" lon="10.074318580899337"><ele>1548.0</ele><time>2026-03-28T13:34:11.999Z</time></trkpt><trkpt lat="46.383575040791406" lon="10.074206165935706"><ele>1548.0</ele><time>2026-03-28T13:34:12.999Z</time></trkpt><trkpt lat="46.38341274164708" lon="10.074102629692838"><ele>1536.3333333333333</ele><time>2026-03-28T13:34:13.999Z</time></trkpt><trkpt lat="46.38323092983675" lon="10.074017397628943"><ele>1524.6666666666665</ele><time>2026-03-28T13:34:14.999Z</time></trkpt><trkpt lat="46.383047205154526" lon="10.073931534149816"><ele>1513.0</ele><time>2026-03-28T13:34:15.999Z</time></trkpt><trkpt lat="46.3828680059514" lon="10.073844253388552"><ele>1513.0</ele><time>2026-03-28T13:34:16.999Z</time></trkpt><trkpt lat="46.382697352694166" lon="10.073781988657398"><ele>1513.0</ele><time>2026-03-28T13:34:17.999Z</time></trkpt><trkpt lat="46.38251879748366" lon="10.073781758690144"><ele>1513.0</ele><time>2026-03-28T13:34:18.999Z</time></trkpt><trkpt lat="46.38234322579937" lon="10.073850638478747"><ele>1505.3333333333333</ele><time>2026-03-28T13:34:19.999Z</time></trkpt><trkpt lat="46.38213934744199" lon="10.073997163550485"><ele>1497.6666666666667</ele><time>2026-03-28T13:34:20.999Z</time></trkpt><trkpt lat="46.38194923506134" lon="10.074065757498191"><ele>1490.0</ele><time>2026-03-28T13:34:21.999Z</time></trkpt><trkpt lat="46.38175885284403" lon="10.074100285297583"><ele>1492.0</ele><time>2026-03-28T13:34:22.999Z</time></trkpt><trkpt lat="46.381577101909016" lon="10.074114162852165"><ele>1494.0</ele><time>2026-03-28T13:34:23.999Z</time></trkpt><trkpt lat="46.38139661354883" lon="10.07410549785568"><ele>1496.0</ele><time>2026-03-28T13:34:24.999Z</time></trkpt><trkpt lat="46.38121224034832" lon="10.074065466088403"><ele>1496.0</ele><time>2026-03-28T13:34:25.999Z</time></trkpt><trkpt lat="46.38101103247714" lon="10.073986553491945"><ele>1496.0</ele><time>2026-03-28T13:34:26.999Z</time></trkpt><trkpt lat="46.38081819622807" lon="10.073850557411657"><ele>1496.0</ele><time>2026-03-28T13:34:27.999Z</time></trkpt><trkpt lat="46.380605746277034" lon="10.073745912368953"><ele>1504.6666666666667</ele><time>2026-03-28T13:34:28.999Z</time></trkpt><trkpt lat="46.38040281171365" lon="10.07362112297045"><ele>1513.3333333333333</ele><time>2026-03-28T13:34:29.999Z</time></trkpt><trkpt lat="46.38021113679199" lon="10.07350196034892"><ele>1522.0</ele><time>2026-03-28T13:34:30.999Z</time></trkpt><trkpt lat="46.38001664125154" lon="10.073365904579711"><ele>1523.0</ele><time>2026-03-28T13:34:31.999Z</time></trkpt><trkpt lat="46.379832670057496" lon="10.073216472868772"><ele>1524.0</ele><time>2026-03-28T13:34:32.998Z</time></trkpt><trkpt lat="46.37966347401892" lon="10.073032465295768"><ele>1525.0</ele><time>2026-03-28T13:34:33.998Z</time></trkpt><trkpt lat="46.379544351303394" lon="10.072808293520373"><ele>1525.0</ele><time>2026-03-28T13:34:34.998Z</time></trkpt><trkpt lat="46.37943950754565" lon="10.072576486628977"><ele>1525.0</ele><time>2026-03-28T13:34:35.998Z</time></trkpt><trkpt lat="46.37937274394138" lon="10.072323047513441"><ele>1525.0</ele><time>2026-03-28T13:34:36.998Z</time></trkpt><trkpt lat="46.37930918272299" lon="10.072072768972367"><ele>1514.6666666666665</ele><time>2026-03-28T13:34:37.998Z</time></trkpt><trkpt lat="46.37924744180195" lon="10.071851208610422"><ele>1504.3333333333333</ele><time>2026-03-28T13:34:38.998Z</time></trkpt><trkpt lat="46.37915394512096" lon="10.071653047719495"><ele>1494.0</ele><time>2026-03-28T13:34:40Z</time></trkpt><trkpt lat="46.37902996370656" lon="10.071498830262785"><ele>1491.6666666666667</ele><time>2026-03-28T13:34:41Z</time></trkpt><trkpt lat="46.378880567814804" lon="10.071339220894165"><ele>1489.3333333333335</ele><time>2026-03-28T13:34:42Z</time></trkpt><trkpt lat="46.37870300802283" lon="10.071189050140047"><ele>1487.0</ele><time>2026-03-28T13:34:43Z</time></trkpt><trkpt lat="46.378562518584054" lon="10.070995956586787"><ele>1487.0</ele><time>2026-03-28T13:34:44Z</time></trkpt><trkpt lat="46.37842139567394" lon="10.070849823439438"><ele>1487.0</ele><time>2026-03-28T13:34:45Z</time></trkpt><trkpt lat="46.37827030115094" lon="10.07077320639603"><ele>1487.0</ele><time>2026-03-28T13:34:46Z</time></trkpt><trkpt lat="46.37812619550279" lon="10.07073715514593"><ele>1485.25</ele><time>2026-03-28T13:34:47Z</time></trkpt><trkpt lat="46.37798581656779" lon="10.070703771298055"><ele>1483.5</ele><time>2026-03-28T13:34:48Z</time></trkpt><trkpt lat="46.37787911066098" lon="10.070620058256786"><ele>1481.75</ele><time>2026-03-28T13:34:49Z</time></trkpt><trkpt lat="46.37781200594351" lon="10.070479856427992"><ele>1480.0</ele><time>2026-03-28T13:34:50Z</time></trkpt><trkpt lat="46.377750805501755" lon="10.070321161406987"><ele>1480.0</ele><time>2026-03-28T13:34:51Z</time></trkpt><trkpt lat="46.377681530073815" lon="10.070131254155443"><ele>1480.0</ele><time>2026-03-28T13:34:52Z</time></trkpt><trkpt lat="46.37762227432508" lon="10.069947355494694"><ele>1480.0</ele><time>2026-03-28T13:34:53Z</time></trkpt><trkpt lat="46.377515009504364" lon="10.069798654243556"><ele>1480.0</ele><time>2026-03-28T13:34:54Z</time></trkpt><trkpt lat="46.37736465227715" lon="10.06969106745532"><ele>1477.3333333333333</ele><time>2026-03-28T13:34:55Z</time></trkpt><trkpt lat="46.37718449040303" lon="10.069613877692301"><ele>1474.6666666666667</ele><time>2026-03-28T13:34:56Z</time></trkpt><trkpt lat="46.376991754295645" lon="10.069540910042152"><ele>1472.0</ele><time>2026-03-28T13:34:57Z</time></trkpt><trkpt lat="46.37680571605259" lon="10.069411748058698"><ele>1472.0</ele><time>2026-03-28T13:34:58Z</time></trkpt><trkpt lat="46.376651117335" lon="10.069158857175983"><ele>1472.0</ele><time>2026-03-28T13:34:59Z</time></trkpt><trkpt lat="46.376477558351695" lon="10.068976127725133"><ele>1472.0</ele><time>2026-03-28T13:35:00Z</time></trkpt><trkpt lat="46.376312131098814" lon="10.068797994990968"><ele>1461.5</ele><time>2026-03-28T13:35:01Z</time></trkpt><trkpt lat="46.37610505274735" lon="10.068653020244929"><ele>1451.0</ele><time>2026-03-28T13:35:02Z</time></trkpt><trkpt lat="46.37586365747473" lon="10.068529876643117"><ele>1451.0</ele><time>2026-03-28T13:35:03Z</time></trkpt><trkpt lat="46.37560261607839" lon="10.068431122971159"><ele>1451.0</ele><time>2026-03-28T13:35:04Z</time></trkpt><trkpt lat="46.37533151095621" lon="10.068343177984293"><ele>1431.6666666666667</ele><time>2026-03-28T13:35:05Z</time></trkpt><trkpt lat="46.375095313981795" lon="10.06827046649144"><ele>1412.3333333333333</ele><time>2026-03-28T13:35:06Z</time></trkpt><trkpt lat="46.37491087791792" lon="10.068207331819028"><ele>1393.0</ele><time>2026-03-28T13:35:07Z</time></trkpt><trkpt lat="46.37476118534174" lon="10.068199851025575"><ele>1390.3333333333333</ele><time>2026-03-28T13:35:08Z</time></trkpt><trkpt lat="46.374614272023535" lon="10.068244069858583"><ele>1387.6666666666667</ele><time>2026-03-28T13:35:09Z</time></trkpt><trkpt lat="46.37446020130611" lon="10.068366796838001"><ele>1385.0</ele><time>2026-03-28T13:35:10Z</time></trkpt><trkpt lat="46.374288201721484" lon="10.068533172336306"><ele>1394.0</ele><time>2026-03-28T13:35:11Z</time></trkpt><trkpt lat="46.37411520932645" lon="10.068700460174611"><ele>1403.0</ele><time>2026-03-28T13:35:12Z</time></trkpt><trkpt lat="46.37392728699109" lon="10.068767334593689"><ele>1412.0</ele><time>2026-03-28T13:35:13Z</time></trkpt><trkpt lat="46.373731886377996" lon="10.068788478848681"><ele>1412.0</ele><time>2026-03-28T13:35:14Z</time></trkpt><trkpt lat="46.37354045418125" lon="10.068833628982564"><ele>1412.0</ele><time>2026-03-28T13:35:15Z</time></trkpt><trkpt lat="46.3733384018814" lon="10.06885783953616"><ele>1412.0</ele><time>2026-03-28T13:35:16Z</time></trkpt><trkpt lat="46.37313660258515" lon="10.068936371037273"><ele>1414.3333333333335</ele><time>2026-03-28T13:35:17Z</time></trkpt><trkpt lat="46.37293304751752" lon="10.069048411972844"><ele>1416.6666666666667</ele><time>2026-03-28T13:35:18Z</time></trkpt><trkpt lat="46.37272252298641" lon="10.069136033542465"><ele>1419.0</ele><time>2026-03-28T13:35:19Z</time></trkpt><trkpt lat="46.37250444679397" lon="10.069210073013641"><ele>1419.0</ele><time>2026-03-28T13:35:20Z</time></trkpt><trkpt lat="46.372290760707344" lon="10.069313757083211"><ele>1419.0</ele><time>2026-03-28T13:35:21Z</time></trkpt><trkpt lat="46.372080993080516" lon="10.069418840653912"><ele>1419.0</ele><time>2026-03-28T13:35:22Z</time></trkpt><trkpt lat="46.3718702423536" lon="10.069538244282969"><ele>1411.0</ele><time>2026-03-28T13:35:23Z</time></trkpt><trkpt lat="46.371664973663265" lon="10.069647226308186"><ele>1403.0</ele><time>2026-03-28T13:35:24Z</time></trkpt><trkpt lat="46.37146602281451" lon="10.069763309470126"><ele>1395.0</ele><time>2026-03-28T13:35:25Z</time></trkpt><trkpt lat="46.371289883387306" lon="10.06991004280997"><ele>1396.0</ele><time>2026-03-28T13:35:26Z</time></trkpt><trkpt lat="46.37113861452891" lon="10.070086188524577"><ele>1397.0</ele><time>2026-03-28T13:35:26.999Z</time></trkpt><trkpt lat="46.371011148573466" lon="10.070294122764123"><ele>1398.0</ele><time>2026-03-28T13:35:27.999Z</time></trkpt><trkpt lat="46.37089794447493" lon="10.070512673508205"><ele>1398.0</ele><time>2026-03-28T13:35:28.999Z</time></trkpt><trkpt lat="46.370779816785564" lon="10.070709055602823"><ele>1398.0</ele><time>2026-03-28T13:35:29.999Z</time></trkpt><trkpt lat="46.37062709559729" lon="10.070829180523935"><ele>1398.0</ele><time>2026-03-28T13:35:30.999Z</time></trkpt><trkpt lat="46.37045274565471" lon="10.070931955387426"><ele>1396.0</ele><time>2026-03-28T13:35:31.999Z</time></trkpt><trkpt lat="46.37023831676217" lon="10.071028797836592"><ele>1394.0</ele><time>2026-03-28T13:35:32.999Z</time></trkpt><trkpt lat="46.37001160310413" lon="10.07115277608172"><ele>1394.0</ele><time>2026-03-28T13:35:33.999Z</time></trkpt><trkpt lat="46.369765362631625" lon="10.071266905434273"><ele>1394.0</ele><time>2026-03-28T13:35:34.999Z</time></trkpt><trkpt lat="46.36953422118688" lon="10.071385780336044"><ele>1392.6666666666667</ele><time>2026-03-28T13:35:35.999Z</time></trkpt><trkpt lat="46.36933667204034" lon="10.07153947771873"><ele>1391.3333333333333</ele><time>2026-03-28T13:35:36.999Z</time></trkpt><trkpt lat="46.36915831307092" lon="10.071735906569897"><ele>1390.0</ele><time>2026-03-28T13:35:37.999Z</time></trkpt><trkpt lat="46.36900116333643" lon="10.071979193754593"><ele>1380.0</ele><time>2026-03-28T13:35:38.999Z</time></trkpt><trkpt lat="46.368849459357584" lon="10.072244809335233"><ele>1370.0</ele><time>2026-03-28T13:35:39.999Z</time></trkpt><trkpt lat="46.36868372994454" lon="10.072464026638272"><ele>1370.0</ele><time>2026-03-28T13:35:40.999Z</time></trkpt><trkpt lat="46.36848574783499" lon="10.072586015413806"><ele>1370.0</ele><time>2026-03-28T13:35:41.999Z</time></trkpt><trkpt lat="46.36832997710768" lon="10.072721733766898"><ele>1370.0</ele><time>2026-03-28T13:35:42.999Z</time></trkpt><trkpt lat="46.368196444903" lon="10.072881466790335"><ele>1370.0</ele><time>2026-03-28T13:35:43.999Z</time></trkpt><trkpt lat="46.36809955442722" lon="10.073130597456437"><ele>1370.0</ele><time>2026-03-28T13:35:44.999Z</time></trkpt><trkpt lat="46.3680026765998" lon="10.073378492271926"><ele>1370.0</ele><time>2026-03-28T13:35:45.999Z</time></trkpt><trkpt lat="46.36789828424757" lon="10.073644319324181"><ele>1366.3333333333335</ele><time>2026-03-28T13:35:46.999Z</time></trkpt><trkpt lat="46.367758271032606" lon="10.073882798040616"><ele>1362.6666666666667</ele><time>2026-03-28T13:35:47.999Z</time></trkpt><trkpt lat="46.36758207035158" lon="10.074048475510313"><ele>1359.0</ele><time>2026-03-28T13:35:48.999Z</time></trkpt><trkpt lat="46.367390069960045" lon="10.074175104421172"><ele>1357.5</ele><time>2026-03-28T13:35:49.999Z</time></trkpt><trkpt lat="46.367168442885855" lon="10.07426986054078"><ele>1356.0</ele><time>2026-03-28T13:35:50.999Z</time></trkpt><trkpt lat="46.366938043045444" lon="10.074389882833344"><ele>1356.0</ele><time>2026-03-28T13:35:51.999Z</time></trkpt><trkpt lat="46.36669895224251" lon="10.074470209825218"><ele>1356.0</ele><time>2026-03-28T13:35:52.999Z</time></trkpt><trkpt lat="46.36648805513273" lon="10.074620908910465"><ele>1352.0</ele><time>2026-03-28T13:35:53.999Z</time></trkpt><trkpt lat="46.36626833703471" lon="10.07483730147729"><ele>1348.0</ele><time>2026-03-28T13:35:54.999Z</time></trkpt><trkpt lat="46.366053954798915" lon="10.075054635847236"><ele>1348.0</ele><time>2026-03-28T13:35:55.999Z</time></trkpt><trkpt lat="46.3658114044674" lon="10.075207377454314"><ele>1348.0</ele><time>2026-03-28T13:35:56.999Z</time></trkpt><trkpt lat="46.36556659944862" lon="10.075323132464248"><ele>1335.0</ele><time>2026-03-28T13:35:57.999Z</time></trkpt><trkpt lat="46.36533778318005" lon="10.075466551549251"><ele>1322.0</ele><time>2026-03-28T13:35:58.999Z</time></trkpt><trkpt lat="46.36512079949694" lon="10.075615881088533"><ele>1337.0</ele><time>2026-03-28T13:35:59.999Z</time></trkpt><trkpt lat="46.36492191187492" lon="10.075804284577094"><ele>1352.0</ele><time>2026-03-28T13:36:00.999Z</time></trkpt><trkpt lat="46.36472282893569" lon="10.07599000875547"><ele>1338.5</ele><time>2026-03-28T13:36:01.999Z</time></trkpt><trkpt lat="46.364492437788776" lon="10.076077853387666"><ele>1325.0</ele><time>2026-03-28T13:36:02.999Z</time></trkpt><trkpt lat="46.36423435421968" lon="10.07619730026224"><ele>1325.0</ele><time>2026-03-28T13:36:03.999Z</time></trkpt><trkpt lat="46.36395796222487" lon="10.076330330071695"><ele>1325.0</ele><time>2026-03-28T13:36:04.999Z</time></trkpt><trkpt lat="46.363667368247874" lon="10.076458997721168"><ele>1330.0</ele><time>2026-03-28T13:36:05.999Z</time></trkpt><trkpt lat="46.36338645311506" lon="10.07661481691866"><ele>1335.0</ele><time>2026-03-28T13:36:06.999Z</time></trkpt><trkpt lat="46.36311114029159" lon="10.076762774223603"><ele>1318.0</ele><time>2026-03-28T13:36:07.999Z</time></trkpt><trkpt lat="46.36286778166632" lon="10.076905969336487"><ele>1301.0</ele><time>2026-03-28T13:36:08.999Z</time></trkpt><trkpt lat="46.36261695223247" lon="10.077023034924778"><ele>1301.0</ele><time>2026-03-28T13:36:09.999Z</time></trkpt><trkpt lat="46.36238419557821" lon="10.077147877541769"><ele>1301.0</ele><time>2026-03-28T13:36:10.999Z</time></trkpt><trkpt lat="46.36216967456734" lon="10.077282554473038"><ele>1302.6666666666667</ele><time>2026-03-28T13:36:11.999Z</time></trkpt><trkpt lat="46.36195408310217" lon="10.077376211089076"><ele>1304.3333333333333</ele><time>2026-03-28T13:36:12.999Z</time></trkpt><trkpt lat="46.361746582721835" lon="10.07746116976973"><ele>1306.0</ele><time>2026-03-28T13:36:13.999Z</time></trkpt><trkpt lat="46.3615537243701" lon="10.077535212594588"><ele>1306.0</ele><time>2026-03-28T13:36:14.999Z</time></trkpt><trkpt lat="46.36137990808125" lon="10.077651153141973"><ele>1306.0</ele><time>2026-03-28T13:36:15.999Z</time></trkpt><trkpt lat="46.361240916077385" lon="10.077812359522174"><ele>1306.0</ele><time>2026-03-28T13:36:16.999Z</time></trkpt><trkpt lat="46.361139458437144" lon="10.077998537035421"><ele>1304.75</ele><time>2026-03-28T13:36:17.999Z</time></trkpt><trkpt lat="46.36106317285489" lon="10.078181758134242"><ele>1303.5</ele><time>2026-03-28T13:36:18.999Z</time></trkpt><trkpt lat="46.360977649519114" lon="10.078341499264189"><ele>1302.25</ele><time>2026-03-28T13:36:19.999Z</time></trkpt><trkpt lat="46.3608443999738" lon="10.0784327211068"><ele>1301.0</ele><time>2026-03-28T13:36:20.999Z</time></trkpt><trkpt lat="46.36067069909801" lon="10.078486487203318"><ele>1296.0</ele><time>2026-03-28T13:36:21.999Z</time></trkpt><trkpt lat="46.36048004356285" lon="10.0785097402633"><ele>1291.0</ele><time>2026-03-28T13:36:22.999Z</time></trkpt><trkpt lat="46.360287841567725" lon="10.078516673931848"><ele>1286.0</ele><time>2026-03-28T13:36:23.999Z</time></trkpt><trkpt lat="46.36010356424539" lon="10.07850135130259"><ele>1286.0</ele><time>2026-03-28T13:36:24.999Z</time></trkpt><trkpt lat="46.3599391552091" lon="10.078452359327665"><ele>1286.0</ele><time>2026-03-28T13:36:25.999Z</time></trkpt><trkpt lat="46.35979659367433" lon="10.078408661895358"><ele>1286.0</ele><time>2026-03-28T13:36:26.999Z</time></trkpt><trkpt lat="46.35966968073002" lon="10.078422892651364"><ele>1286.0</ele><time>2026-03-28T13:36:27.999Z</time></trkpt><trkpt lat="46.35954327473802" lon="10.078480318945642"><ele>1284.0</ele><time>2026-03-28T13:36:28.999Z</time></trkpt><trkpt lat="46.35941216684579" lon="10.078476185810773"><ele>1282.0</ele><time>2026-03-28T13:36:29.999Z</time></trkpt><trkpt lat="46.359285484812574" lon="10.078502493254295"><ele>1280.0</ele><time>2026-03-28T13:36:30.999Z</time></trkpt><trkpt lat="46.35915480847234" lon="10.078499743906011"><ele>1278.0</ele><time>2026-03-28T13:36:31.999Z</time></trkpt><trkpt lat="46.35903609045032" lon="10.078496426235203"><ele>1278.0</ele><time>2026-03-28T13:36:32.999Z</time></trkpt><trkpt lat="46.358925718918776" lon="10.078502931231831"><ele>1278.0</ele><time>2026-03-28T13:36:33.999Z</time></trkpt><trkpt lat="46.35884323961964" lon="10.078508546163405"><ele>1278.0</ele><time>2026-03-28T13:36:34.999Z</time></trkpt><trkpt lat="46.35874487788872" lon="10.078517368051255"><ele>1278.0</ele><time>2026-03-28T13:36:36.999Z</time></trkpt><trkpt lat="46.35867586884164" lon="10.078518454836734"><ele>1278.0</ele><time>2026-03-28T13:36:49Z</time></trkpt><trkpt lat="46.35854417714345" lon="10.078487262059028"><ele>1281.0</ele><time>2026-03-28T13:36:51Z</time></trkpt><trkpt lat="46.3584545833873" lon="10.078413449373294"><ele>1284.0</ele><time>2026-03-28T13:36:52Z</time></trkpt><trkpt lat="46.358375267728604" lon="10.078306181193259"><ele>1287.0</ele><time>2026-03-28T13:36:53Z</time></trkpt><trkpt lat="46.35830964035035" lon="10.078187542620432"><ele>1290.0</ele><time>2026-03-28T13:36:54Z</time></trkpt><trkpt lat="46.35824845774178" lon="10.07805775755579"><ele>1293.0</ele><time>2026-03-28T13:36:55Z</time></trkpt><trkpt lat="46.35818228599161" lon="10.077928273223707"><ele>1284.4</ele><time>2026-03-28T13:36:56Z</time></trkpt><trkpt lat="46.3581025566906" lon="10.077807991927692"><ele>1275.8000000000002</ele><time>2026-03-28T13:36:57Z</time></trkpt><trkpt lat="46.358009313861686" lon="10.077718420591612"><ele>1267.2</ele><time>2026-03-28T13:36:58Z</time></trkpt><trkpt lat="46.35790877017954" lon="10.077675762016671"><ele>1258.6</ele><time>2026-03-28T13:36:59Z</time></trkpt><trkpt lat="46.35779284118771" lon="10.07768274235574"><ele>1250.0</ele><time>2026-03-28T13:37:00Z</time></trkpt><trkpt lat="46.35766092828554" lon="10.077704221395996"><ele>1250.0</ele><time>2026-03-28T13:37:01Z</time></trkpt><trkpt lat="46.35752936655404" lon="10.077718802111391"><ele>1250.0</ele><time>2026-03-28T13:37:02Z</time></trkpt><trkpt lat="46.357378801488444" lon="10.077709629045666"><ele>1250.0</ele><time>2026-03-28T13:37:03Z</time></trkpt><trkpt lat="46.35721136075326" lon="10.077666387256043"><ele>1251.6666666666667</ele><time>2026-03-28T13:37:04Z</time></trkpt><trkpt lat="46.3570291770342" lon="10.077612391236135"><ele>1253.3333333333333</ele><time>2026-03-28T13:37:05Z</time></trkpt><trkpt lat="46.35682919734885" lon="10.077563118838393"><ele>1255.0</ele><time>2026-03-28T13:37:06Z</time></trkpt><trkpt lat="46.35660185252209" lon="10.077497582296417"><ele>1243.0</ele><time>2026-03-28T13:37:07Z</time></trkpt><trkpt lat="46.35636374756193" lon="10.077392074155382"><ele>1231.0</ele><time>2026-03-28T13:37:08Z</time></trkpt><trkpt lat="46.35613426120674" lon="10.0772650398617"><ele>1231.0</ele><time>2026-03-28T13:37:09Z</time></trkpt><trkpt lat="46.355912580559654" lon="10.077130391265142"><ele>1231.0</ele><time>2026-03-28T13:37:10Z</time></trkpt><trkpt lat="46.355697071396925" lon="10.07697287659653"><ele>1242.0</ele><time>2026-03-28T13:37:11Z</time></trkpt><trkpt lat="46.35548047216687" lon="10.076768391575003"><ele>1253.0</ele><time>2026-03-28T13:37:12Z</time></trkpt><trkpt lat="46.35540242707382" lon="10.076908472365057"><ele>1264.0</ele><time>2026-03-28T13:37:13Z</time></trkpt><trkpt lat="46.35523000992272" lon="10.076721154547252"><ele>1247.6666666666665</ele><time>2026-03-28T13:37:14Z</time></trkpt><trkpt lat="46.35505606688797" lon="10.076523392773368"><ele>1231.3333333333333</ele><time>2026-03-28T13:37:15Z</time></trkpt><trkpt lat="46.35489170015219" lon="10.076334412122945"><ele>1215.0</ele><time>2026-03-28T13:37:16Z</time></trkpt><trkpt lat="46.3547112056425" lon="10.076179505492734"><ele>1209.0</ele><time>2026-03-28T13:37:17Z</time></trkpt><trkpt lat="46.354525386403736" lon="10.076032022641217"><ele>1203.0</ele><time>2026-03-28T13:37:18Z</time></trkpt><trkpt lat="46.35433653409712" lon="10.07587512243671"><ele>1197.0</ele><time>2026-03-28T13:37:19Z</time></trkpt><trkpt lat="46.354170079360884" lon="10.075680803264769"><ele>1197.0</ele><time>2026-03-28T13:37:20Z</time></trkpt><trkpt lat="46.35399495399398" lon="10.075534025741756"><ele>1197.0</ele><time>2026-03-28T13:37:21Z</time></trkpt><trkpt lat="46.353817371309304" lon="10.075401333143503"><ele>1197.0</ele><time>2026-03-28T13:37:22Z</time></trkpt><trkpt lat="46.353622434423315" lon="10.075323636048047"><ele>1202.3333333333333</ele><time>2026-03-28T13:37:23Z</time></trkpt><trkpt lat="46.35343389080983" lon="10.07524471387618"><ele>1207.6666666666665</ele><time>2026-03-28T13:37:24Z</time></trkpt><trkpt lat="46.3532445431319" lon="10.075173605604755"><ele>1213.0</ele><time>2026-03-28T13:37:25Z</time></trkpt><trkpt lat="46.353076572721925" lon="10.07504327004684"><ele>1214.5</ele><time>2026-03-28T13:37:26Z</time></trkpt><trkpt lat="46.35294051393806" lon="10.074917334360485"><ele>1216.0</ele><time>2026-03-28T13:37:27Z</time></trkpt><trkpt lat="46.35282918276582" lon="10.074776683375477"><ele>1217.5</ele><time>2026-03-28T13:37:28Z</time></trkpt><trkpt lat="46.35276401490479" lon="10.0746416579217"><ele>1219.0</ele><time>2026-03-28T13:37:29Z</time></trkpt><trkpt lat="46.35272316674851" lon="10.074522851632086"><ele>1219.0</ele><time>2026-03-28T13:37:30Z</time></trkpt><trkpt lat="46.35269047666763" lon="10.07443169412039"><ele>1219.0</ele><time>2026-03-28T13:37:31Z</time></trkpt><trkpt lat="46.35214626814643" lon="10.074606098753252"><ele>1219.0</ele><time>2026-03-28T13:37:32Z</time></trkpt><trkpt lat="46.35247029134718" lon="10.074341078757852"><ele>1219.0</ele><time>2026-03-28T13:37:33Z</time></trkpt><trkpt lat="46.3525443650904" lon="10.073392230434344"><ele>1210.6666666666665</ele><time>2026-03-28T13:37:34Z</time></trkpt><trkpt lat="46.352440209730005" lon="10.073198351032719"><ele>1202.3333333333333</ele><time>2026-03-28T13:37:35Z</time></trkpt><trkpt lat="46.35226794084863" lon="10.073063133819202"><ele>1194.0</ele><time>2026-03-28T13:37:36Z</time></trkpt><trkpt lat="46.35209873272802" lon="10.072943274303645"><ele>1194.0</ele><time>2026-03-28T13:37:37Z</time></trkpt><trkpt lat="46.35194429289993" lon="10.072828197018218"><ele>1194.0</ele><time>2026-03-28T13:37:37.999Z</time></trkpt><trkpt lat="46.35180146613983" lon="10.072698153749903"><ele>1194.0</ele><time>2026-03-28T13:37:38.999Z</time></trkpt><trkpt lat="46.3516709606545" lon="10.07255808009919"><ele>1190.25</ele><time>2026-03-28T13:37:39.999Z</time></trkpt><trkpt lat="46.351567067189464" lon="10.072413683296691"><ele>1186.5</ele><time>2026-03-28T13:37:40.999Z</time></trkpt><trkpt lat="46.35150435925055" lon="10.072233684855545"><ele>1182.75</ele><time>2026-03-28T13:37:41.999Z</time></trkpt><trkpt lat="46.35146671409771" lon="10.072058845199656"><ele>1179.0</ele><time>2026-03-28T13:37:42.999Z</time></trkpt><trkpt lat="46.35149639710534" lon="10.071872913835689"><ele>1179.0</ele><time>2026-03-28T13:37:43.999Z</time></trkpt><trkpt lat="46.351525644618945" lon="10.071660646284027"><ele>1179.0</ele><time>2026-03-28T13:37:44.999Z</time></trkpt><trkpt lat="46.351496466122704" lon="10.071471045283007"><ele>1179.0</ele><time>2026-03-28T13:37:45.999Z</time></trkpt><trkpt lat="46.3514350023072" lon="10.071274831014614"><ele>1179.0</ele><time>2026-03-28T13:37:46.999Z</time></trkpt><trkpt lat="46.351328474520486" lon="10.071058027717674"><ele>1181.0</ele><time>2026-03-28T13:37:47.999Z</time></trkpt><trkpt lat="46.351233212049955" lon="10.070823130029574"><ele>1183.0</ele><time>2026-03-28T13:37:48.999Z</time></trkpt><trkpt lat="46.3511564653919" lon="10.070546289058099"><ele>1185.0</ele><time>2026-03-28T13:37:49.999Z</time></trkpt><trkpt lat="46.351035254880735" lon="10.070318029628124"><ele>1178.3333333333333</ele><time>2026-03-28T13:37:50.999Z</time></trkpt><trkpt lat="46.35089720489816" lon="10.07008720319753"><ele>1171.6666666666665</ele><time>2026-03-28T13:37:51.999Z</time></trkpt><trkpt lat="46.35073831038075" lon="10.069902227022167"><ele>1165.0</ele><time>2026-03-28T13:37:52.999Z</time></trkpt><trkpt lat="46.35056603228971" lon="10.06977172863467"><ele>1162.6666666666665</ele><time>2026-03-28T13:37:53.999Z</time></trkpt><trkpt lat="46.35039065594025" lon="10.069697580927256"><ele>1160.3333333333333</ele><time>2026-03-28T13:37:54.999Z</time></trkpt><trkpt lat="46.350191708813334" lon="10.069619617384337"><ele>1158.0</ele><time>2026-03-28T13:37:55.999Z</time></trkpt><trkpt lat="46.3500593621292" lon="10.069428082548088"><ele>1158.0</ele><time>2026-03-28T13:37:56.999Z</time></trkpt><trkpt lat="46.34994894516375" lon="10.06921900454269"><ele>1158.0</ele><time>2026-03-28T13:37:57.999Z</time></trkpt><trkpt lat="46.349847589981444" lon="10.068995200817687"><ele>1158.0</ele><time>2026-03-28T13:37:58.999Z</time></trkpt><trkpt lat="46.34973521506875" lon="10.0687746785849"><ele>1156.3333333333333</ele><time>2026-03-28T13:37:59.999Z</time></trkpt><trkpt lat="46.34960835961485" lon="10.068628102414769"><ele>1154.6666666666665</ele><time>2026-03-28T13:38:00.999Z</time></trkpt><trkpt lat="46.349439959186306" lon="10.068489560010713"><ele>1153.0</ele><time>2026-03-28T13:38:01.999Z</time></trkpt><trkpt lat="46.34923932146904" lon="10.068369597075895"><ele>1143.3333333333333</ele><time>2026-03-28T13:38:02.999Z</time></trkpt><trkpt lat="46.34903085742267" lon="10.068246552013033"><ele>1133.6666666666667</ele><time>2026-03-28T13:38:03.999Z</time></trkpt><trkpt lat="46.348818819966205" lon="10.068146876575328"><ele>1124.0</ele><time>2026-03-28T13:38:04.999Z</time></trkpt><trkpt lat="46.348606877091356" lon="10.068079193984513"><ele>1124.0</ele><time>2026-03-28T13:38:05.999Z</time></trkpt><trkpt lat="46.34838450958749" lon="10.06804001481201"><ele>1124.0</ele><time>2026-03-28T13:38:06.999Z</time></trkpt><trkpt lat="46.34817717456127" lon="10.068053567706016"><ele>1124.0</ele><time>2026-03-28T13:38:07.999Z</time></trkpt><trkpt lat="46.34798053801306" lon="10.068086674020991"><ele>1125.3333333333335</ele><time>2026-03-28T13:38:08.999Z</time></trkpt><trkpt lat="46.34778635188708" lon="10.068029040022667"><ele>1126.6666666666667</ele><time>2026-03-28T13:38:09.999Z</time></trkpt><trkpt lat="46.347604664880855" lon="10.067928045317425"><ele>1128.0</ele><time>2026-03-28T13:38:10.999Z</time></trkpt><trkpt lat="46.34737304496245" lon="10.067776976116486"><ele>1132.5</ele><time>2026-03-28T13:38:11.999Z</time></trkpt><trkpt lat="46.34710012719564" lon="10.06760456349946"><ele>1137.0</ele><time>2026-03-28T13:38:12.999Z</time></trkpt><trkpt lat="46.34679975533738" lon="10.067414266826132"><ele>1133.5</ele><time>2026-03-28T13:38:13.999Z</time></trkpt><trkpt lat="46.34649732651347" lon="10.067221916004643"><ele>1130.0</ele><time>2026-03-28T13:38:14.999Z</time></trkpt><trkpt lat="46.34622586652408" lon="10.067041866240078"><ele>1130.0</ele><time>2026-03-28T13:38:15.999Z</time></trkpt><trkpt lat="46.345987881559346" lon="10.066860849375479"><ele>1130.0</ele><time>2026-03-28T13:38:16.999Z</time></trkpt><trkpt lat="46.34578457712237" lon="10.066660919559203"><ele>1128.6666666666667</ele><time>2026-03-28T13:38:17.999Z</time></trkpt><trkpt lat="46.34560135319146" lon="10.066471829010743"><ele>1127.3333333333333</ele><time>2026-03-28T13:38:18.999Z</time></trkpt><trkpt lat="46.34544912975118" lon="10.066304615030692"><ele>1126.0</ele><time>2026-03-28T13:38:19.999Z</time></trkpt><trkpt lat="46.345345381697385" lon="10.066116478710645"><ele>1126.0</ele><time>2026-03-28T13:38:20.999Z</time></trkpt><trkpt lat="46.34524926799383" lon="10.065896065329579"><ele>1126.0</ele><time>2026-03-28T13:38:21.999Z</time></trkpt><trkpt lat="46.34512784301113" lon="10.065749460701818"><ele>1126.0</ele><time>2026-03-28T13:38:22.999Z</time></trkpt><trkpt lat="46.34498155472829" lon="10.065596098551007"><ele>1123.6666666666665</ele><time>2026-03-28T13:38:23.999Z</time></trkpt><trkpt lat="46.34478741720291" lon="10.065478339878078"><ele>1121.3333333333333</ele><time>2026-03-28T13:38:24.999Z</time></trkpt><trkpt lat="46.34458626054249" lon="10.065382885945635"><ele>1119.0</ele><time>2026-03-28T13:38:25.999Z</time></trkpt><trkpt lat="46.34443461538855" lon="10.065254851836972"><ele>1119.0</ele><time>2026-03-28T13:38:26.999Z</time></trkpt><trkpt lat="46.34431597879608" lon="10.065141848657568"><ele>1119.0</ele><time>2026-03-28T13:38:27.999Z</time></trkpt><trkpt lat="46.34423808038725" lon="10.064994778807286"><ele>1119.0</ele><time>2026-03-28T13:38:28.999Z</time></trkpt><trkpt lat="46.34420683313574" lon="10.064801167227035"><ele>1119.0</ele><time>2026-03-28T13:38:29.999Z</time></trkpt><trkpt lat="46.34419458234475" lon="10.064554156779613"><ele>1112.3333333333333</ele><time>2026-03-28T13:38:30.999Z</time></trkpt><trkpt lat="46.34418157371671" lon="10.06425188838176"><ele>1105.6666666666665</ele><time>2026-03-28T13:38:31.999Z</time></trkpt><trkpt lat="46.3441467237237" lon="10.06396779735956"><ele>1099.0</ele><time>2026-03-28T13:38:32.999Z</time></trkpt><trkpt lat="46.34409035157698" lon="10.063700315269102"><ele>1096.6666666666665</ele><time>2026-03-28T13:38:33.999Z</time></trkpt><trkpt lat="46.34404580021335" lon="10.063452846806"><ele>1094.3333333333333</ele><time>2026-03-28T13:38:34.999Z</time></trkpt><trkpt lat="46.34401435716672" lon="10.063208682629355"><ele>1092.0</ele><time>2026-03-28T13:38:35.999Z</time></trkpt><trkpt lat="46.343985385409304" lon="10.062972741331448"><ele>1091.0</ele><time>2026-03-28T13:38:36.999Z</time></trkpt><trkpt lat="46.343960100856066" lon="10.062749116531403"><ele>1090.0</ele><time>2026-03-28T13:38:37.999Z</time></trkpt><trkpt lat="46.34393341970372" lon="10.062513139902457"><ele>1089.0</ele><time>2026-03-28T13:38:38.999Z</time></trkpt><trkpt lat="46.34389478951291" lon="10.06231893287135"><ele>1088.2</ele><time>2026-03-28T13:38:39.999Z</time></trkpt><trkpt lat="46.34388674557593" lon="10.062145531308134"><ele>1087.4</ele><time>2026-03-28T13:38:40.999Z</time></trkpt><trkpt lat="46.343859232292985" lon="10.062016661427167"><ele>1086.6</ele><time>2026-03-28T13:38:41.999Z</time></trkpt><trkpt lat="46.343834388807686" lon="10.061903885158385"><ele>1085.8</ele><time>2026-03-28T13:38:42.999Z</time></trkpt><trkpt lat="46.34372180340655" lon="10.061816560351382"><ele>1085.0</ele><time>2026-03-28T13:38:43.999Z</time></trkpt><trkpt lat="46.34364542573253" lon="10.061709994333151"><ele>1085.5</ele><time>2026-03-28T13:38:44.999Z</time></trkpt><trkpt lat="46.34356955301986" lon="10.061601768467964"><ele>1086.0</ele><time>2026-03-28T13:38:45.999Z</time></trkpt><trkpt lat="46.34347607228792" lon="10.061493823414592"><ele>1086.5</ele><time>2026-03-28T13:38:46.999Z</time></trkpt><trkpt lat="46.34338018008628" lon="10.061350744725642"><ele>1087.0</ele><time>2026-03-28T13:38:47.999Z</time></trkpt><trkpt lat="46.34326978423564" lon="10.061236237393718"><ele>1087.0</ele><time>2026-03-28T13:38:48.999Z</time></trkpt><trkpt lat="46.34313395360677" lon="10.061116770564373"><ele>1087.0</ele><time>2026-03-28T13:38:49.999Z</time></trkpt><trkpt lat="46.34299263387508" lon="10.060997916899595"><ele>1087.0</ele><time>2026-03-28T13:38:50.999Z</time></trkpt><trkpt lat="46.342851378916556" lon="10.060884360512803"><ele>1088.3333333333333</ele><time>2026-03-28T13:38:52Z</time></trkpt><trkpt lat="46.3427012916689" lon="10.060793725067995"><ele>1089.6666666666667</ele><time>2026-03-28T13:38:53Z</time></trkpt><trkpt lat="46.34256141759474" lon="10.06067973478025"><ele>1091.0</ele><time>2026-03-28T13:38:54Z</time></trkpt><trkpt lat="46.34242347042539" lon="10.060576091713585"><ele>1089.0</ele><time>2026-03-28T13:38:55Z</time></trkpt><trkpt lat="46.34229205939103" lon="10.060471477242638"><ele>1087.0</ele><time>2026-03-28T13:38:56Z</time></trkpt><trkpt lat="46.342151468207504" lon="10.060377714838712"><ele>1085.0</ele><time>2026-03-28T13:38:57Z</time></trkpt><trkpt lat="46.342017921263384" lon="10.060273734900418"><ele>1085.0</ele><time>2026-03-28T13:38:58Z</time></trkpt><trkpt lat="46.341881135917404" lon="10.060182195317205"><ele>1085.0</ele><time>2026-03-28T13:38:59Z</time></trkpt><trkpt lat="46.341744968886026" lon="10.060111375412188"><ele>1085.0</ele><time>2026-03-28T13:39:00Z</time></trkpt><trkpt lat="46.34161111951701" lon="10.060062610263818"><ele>1085.0</ele><time>2026-03-28T13:39:01Z</time></trkpt><trkpt lat="46.34146615484224" lon="10.060037035207998"><ele>1083.6666666666667</ele><time>2026-03-28T13:39:02Z</time></trkpt><trkpt lat="46.3413196856169" lon="10.05999302989793"><ele>1082.3333333333333</ele><time>2026-03-28T13:39:03Z</time></trkpt><trkpt lat="46.34116690854449" lon="10.0599482262029"><ele>1081.0</ele><time>2026-03-28T13:39:04Z</time></trkpt><trkpt lat="46.34101207385754" lon="10.059897404369423"><ele>1078.3333333333333</ele><time>2026-03-28T13:39:05Z</time></trkpt><trkpt lat="46.34086720310236" lon="10.059845403947854"><ele>1075.6666666666667</ele><time>2026-03-28T13:39:06Z</time></trkpt><trkpt lat="46.34071808786983" lon="10.059850112739383"><ele>1073.0</ele><time>2026-03-28T13:39:07Z</time></trkpt><trkpt lat="46.34056287445537" lon="10.059874438195648"><ele>1073.6666666666667</ele><time>2026-03-28T13:39:08Z</time></trkpt><trkpt lat="46.34039400029189" lon="10.05994022742994"><ele>1074.3333333333333</ele><time>2026-03-28T13:39:09Z</time></trkpt><trkpt lat="46.340232753535574" lon="10.06001215964997"><ele>1075.0</ele><time>2026-03-28T13:39:10Z</time></trkpt><trkpt lat="46.340066732947825" lon="10.060078253681723"><ele>1075.0</ele><time>2026-03-28T13:39:11Z</time></trkpt><trkpt lat="46.33989411851826" lon="10.06013787205585"><ele>1075.0</ele><time>2026-03-28T13:39:12Z</time></trkpt><trkpt lat="46.339720348910475" lon="10.06019762781216"><ele>1075.0</ele><time>2026-03-28T13:39:13Z</time></trkpt><trkpt lat="46.33954698881454" lon="10.060254450018135"><ele>1071.3333333333333</ele><time>2026-03-28T13:39:14Z</time></trkpt><trkpt lat="46.33937757151644" lon="10.060309962073413"><ele>1067.6666666666667</ele><time>2026-03-28T13:39:15Z</time></trkpt><trkpt lat="46.3392116161015" lon="10.060371156658688"><ele>1064.0</ele><time>2026-03-28T13:39:16Z</time></trkpt><trkpt lat="46.339046760497254" lon="10.060426772421689"><ele>1064.0</ele><time>2026-03-28T13:39:17Z</time></trkpt><trkpt lat="46.33888542608202" lon="10.060486371144654"><ele>1064.0</ele><time>2026-03-28T13:39:18Z</time></trkpt><trkpt lat="46.338723467640925" lon="10.060549257421723"><ele>1064.0</ele><time>2026-03-28T13:39:19Z</time></trkpt><trkpt lat="46.33855334795394" lon="10.060610429225957"><ele>1063.6666666666667</ele><time>2026-03-28T13:39:20Z</time></trkpt><trkpt lat="46.33838717766749" lon="10.060669231404543"><ele>1063.3333333333333</ele><time>2026-03-28T13:39:21Z</time></trkpt><trkpt lat="46.338230180579366" lon="10.060734955301545"><ele>1063.0</ele><time>2026-03-28T13:39:22Z</time></trkpt><trkpt lat="46.33807011342109" lon="10.060812280372582"><ele>1061.6666666666665</ele><time>2026-03-28T13:39:23Z</time></trkpt><trkpt lat="46.337904565999864" lon="10.060902482661499"><ele>1060.3333333333333</ele><time>2026-03-28T13:39:24Z</time></trkpt><trkpt lat="46.33773433567652" lon="10.061005170653154"><ele>1059.0</ele><time>2026-03-28T13:39:25Z</time></trkpt><trkpt lat="46.33755848361376" lon="10.061115865921641"><ele>1059.0</ele><time>2026-03-28T13:39:26Z</time></trkpt><trkpt lat="46.337377559234376" lon="10.061212580967485"><ele>1059.0</ele><time>2026-03-28T13:39:27Z</time></trkpt><trkpt lat="46.337194240396464" lon="10.061288012913577"><ele>1059.0</ele><time>2026-03-28T13:39:28Z</time></trkpt><trkpt lat="46.336986959685326" lon="10.061312766466289"><ele>1057.5</ele><time>2026-03-28T13:39:29Z</time></trkpt><trkpt lat="46.3367591124748" lon="10.06132797415898"><ele>1056.0</ele><time>2026-03-28T13:39:30Z</time></trkpt><trkpt lat="46.336505826212615" lon="10.061299042748606"><ele>1055.0</ele><time>2026-03-28T13:39:31Z</time></trkpt><trkpt lat="46.33621438991713" lon="10.061261917756577"><ele>1054.0</ele><time>2026-03-28T13:39:32Z</time></trkpt><trkpt lat="46.33589141691006" lon="10.061238033090104"><ele>1056.5</ele><time>2026-03-28T13:39:33Z</time></trkpt><trkpt lat="46.33554652891675" lon="10.061184000031414"><ele>1059.0</ele><time>2026-03-28T13:39:34Z</time></trkpt><trkpt lat="46.33518494954315" lon="10.061118583339962"><ele>1059.0</ele><time>2026-03-28T13:39:35Z</time></trkpt><trkpt lat="46.334834431014215" lon="10.061066003398993"><ele>1059.0</ele><time>2026-03-28T13:39:36Z</time></trkpt><trkpt lat="46.334496363724874" lon="10.06097700142143"><ele>1062.0</ele><time>2026-03-28T13:39:37Z</time></trkpt><trkpt lat="46.33417870441051" lon="10.060846255733525"><ele>1065.0</ele><time>2026-03-28T13:39:38Z</time></trkpt><trkpt lat="46.33388648265989" lon="10.06068358790012"><ele>1058.0</ele><time>2026-03-28T13:39:39Z</time></trkpt><trkpt lat="46.33359463942911" lon="10.06050363771423"><ele>1051.0</ele><time>2026-03-28T13:39:39.999Z</time></trkpt><trkpt lat="46.333298196065805" lon="10.060321519274245"><ele>1057.5</ele><time>2026-03-28T13:39:40.999Z</time></trkpt><trkpt lat="46.333009308383645" lon="10.06010208259068"><ele>1064.0</ele><time>2026-03-28T13:39:41.999Z</time></trkpt><trkpt lat="46.33274218700436" lon="10.059895991026"><ele>1051.0</ele><time>2026-03-28T13:39:42.999Z</time></trkpt><trkpt lat="46.332478779134114" lon="10.059702557469663"><ele>1038.0</ele><time>2026-03-28T13:39:43.999Z</time></trkpt><trkpt lat="46.33219668639684" lon="10.05952494340447"><ele>1036.5</ele><time>2026-03-28T13:39:44.999Z</time></trkpt><trkpt lat="46.33189719336568" lon="10.059355976545307"><ele>1035.0</ele><time>2026-03-28T13:39:45.999Z</time></trkpt><trkpt lat="46.33160942828047" lon="10.059198644316265"><ele>1030.5</ele><time>2026-03-28T13:39:46.999Z</time></trkpt><trkpt lat="46.331330989372326" lon="10.059044310406371"><ele>1026.0</ele><time>2026-03-28T13:39:47.999Z</time></trkpt><trkpt lat="46.33106609507552" lon="10.05887740099615"><ele>1026.0</ele><time>2026-03-28T13:39:48.999Z</time></trkpt><trkpt lat="46.33081444337455" lon="10.058801659997545"><ele>1026.0</ele><time>2026-03-28T13:39:49.999Z</time></trkpt><trkpt lat="46.33059564401717" lon="10.058708688836766"><ele>1025.0</ele><time>2026-03-28T13:39:50.999Z</time></trkpt><trkpt lat="46.33038097168119" lon="10.058662503375134"><ele>1024.0</ele><time>2026-03-28T13:39:51.999Z</time></trkpt><trkpt lat="46.33016957654051" lon="10.058595353162591"><ele>1023.0</ele><time>2026-03-28T13:39:52.999Z</time></trkpt><trkpt lat="46.32997424507325" lon="10.058535932159435"><ele>1023.0</ele><time>2026-03-28T13:39:53.999Z</time></trkpt><trkpt lat="46.32978516266062" lon="10.058474586874391"><ele>1023.0</ele><time>2026-03-28T13:39:54.999Z</time></trkpt><trkpt lat="46.32960119707533" lon="10.058415563584408"><ele>1023.0</ele><time>2026-03-28T13:39:55.999Z</time></trkpt><trkpt lat="46.329425304752505" lon="10.05832366262176"><ele>1022.0</ele><time>2026-03-28T13:39:56.999Z</time></trkpt><trkpt lat="46.329262442592814" lon="10.058193913387463"><ele>1021.0</ele><time>2026-03-28T13:39:57.999Z</time></trkpt><trkpt lat="46.32909771290468" lon="10.05814454921047"><ele>1020.0</ele><time>2026-03-28T13:39:58.999Z</time></trkpt><trkpt lat="46.328890878277555" lon="10.058218944871633"><ele>1020.0</ele><time>2026-03-28T13:39:59.999Z</time></trkpt><trkpt lat="46.32873034396511" lon="10.058171576705908"><ele>1020.0</ele><time>2026-03-28T13:40:00.999Z</time></trkpt><trkpt lat="46.328591251400475" lon="10.058131312015039"><ele>1020.0</ele><time>2026-03-28T13:40:01.999Z</time></trkpt><trkpt lat="46.32846108534364" lon="10.058069053469554"><ele>1020.0</ele><time>2026-03-28T13:40:02.999Z</time></trkpt><trkpt lat="46.32833456109149" lon="10.05806920296141"><ele>1020.0</ele><time>2026-03-28T13:40:03.999Z</time></trkpt><trkpt lat="46.32821379791555" lon="10.058043402832945"><ele>1020.0</ele><time>2026-03-28T13:40:04.999Z</time></trkpt><trkpt lat="46.32814658600867" lon="10.057958575673599"><ele>1020.0</ele><time>2026-03-28T13:40:05.999Z</time></trkpt><trkpt lat="46.328121862060364" lon="10.057839069166187"><ele>1020.0</ele><time>2026-03-28T13:40:06.999Z</time></trkpt><trkpt lat="46.32813005257525" lon="10.05769132689593"><ele>1020.0</ele><time>2026-03-28T13:40:07.999Z</time></trkpt><trkpt lat="46.32817086676866" lon="10.057559402596988"><ele>1020.0</ele><time>2026-03-28T13:40:08.999Z</time></trkpt><trkpt lat="46.32820870359114" lon="10.057453198042673"><ele>1020.0</ele><time>2026-03-28T13:40:09.999Z</time></trkpt><trkpt lat="46.32819148806903" lon="10.05735246418218"><ele>1020.0</ele><time>2026-03-28T13:40:10.999Z</time></trkpt><trkpt lat="46.328160285436034" lon="10.05723816078782"><ele>1020.0</ele><time>2026-03-28T13:40:11.999Z</time></trkpt><trkpt lat="46.328032185138895" lon="10.057217485338322"><ele>1020.0</ele><time>2026-03-28T13:40:12.999Z</time></trkpt><trkpt lat="46.32791632076142" lon="10.057170306243641"><ele>1019.5</ele><time>2026-03-28T13:40:13.999Z</time></trkpt><trkpt lat="46.32779570455674" lon="10.057082040251052"><ele>1019.0</ele><time>2026-03-28T13:40:14.999Z</time></trkpt><trkpt lat="46.32766514884319" lon="10.05698734063925"><ele>1018.5</ele><time>2026-03-28T13:40:15.999Z</time></trkpt><trkpt lat="46.32753417245992" lon="10.056898814804013"><ele>1018.0</ele><time>2026-03-28T13:40:16.999Z</time></trkpt><trkpt lat="46.32739049695146" lon="10.056850992476596"><ele>1018.0</ele><time>2026-03-28T13:40:17.999Z</time></trkpt><trkpt lat="46.32724496576865" lon="10.056822624715624"><ele>1018.0</ele><time>2026-03-28T13:40:18.999Z</time></trkpt><trkpt lat="46.327108416320215" lon="10.056812223154543"><ele>1018.0</ele><time>2026-03-28T13:40:19.999Z</time></trkpt><trkpt lat="46.32697711702626" lon="10.05682218735323"><ele>1018.0</ele><time>2026-03-28T13:40:20.999Z</time></trkpt><trkpt lat="46.32685273294976" lon="10.056826485537425"><ele>1017.4</ele><time>2026-03-28T13:40:21.999Z</time></trkpt><trkpt lat="46.32673383021344" lon="10.05683774457603"><ele>1016.8</ele><time>2026-03-28T13:40:22.999Z</time></trkpt><trkpt lat="46.32663869244522" lon="10.056842063845401"><ele>1016.2</ele><time>2026-03-28T13:40:23.999Z</time></trkpt><trkpt lat="46.32657419166306" lon="10.056834715463559"><ele>1015.6</ele><time>2026-03-28T13:40:24.999Z</time></trkpt><trkpt lat="46.32645698203937" lon="10.056826633268189"><ele>1015.0</ele><time>2026-03-28T13:40:26.999Z</time></trkpt><trkpt lat="46.32633624717427" lon="10.056825196676899"><ele>1014.6</ele><time>2026-03-28T13:40:28.999Z</time></trkpt><trkpt lat="46.326262620497985" lon="10.056820273949494"><ele>1014.2</ele><time>2026-03-28T13:40:29.999Z</time></trkpt><trkpt lat="46.32617714535978" lon="10.056810784033392"><ele>1013.8</ele><time>2026-03-28T13:40:30.999Z</time></trkpt><trkpt lat="46.3260798371131" lon="10.056802997798307"><ele>1013.4</ele><time>2026-03-28T13:40:31.999Z</time></trkpt><trkpt lat="46.32596743369468" lon="10.056789342759409"><ele>1013.0</ele><time>2026-03-28T13:40:32.999Z</time></trkpt><trkpt lat="46.32582274516751" lon="10.056752891095385"><ele>1013.0</ele><time>2026-03-28T13:40:33.999Z</time></trkpt><trkpt lat="46.325665591931326" lon="10.05668163170366"><ele>1013.0</ele><time>2026-03-28T13:40:34.999Z</time></trkpt><trkpt lat="46.3255059405352" lon="10.056599294092939"><ele>1013.0</ele><time>2026-03-28T13:40:35.999Z</time></trkpt><trkpt lat="46.32536044153416" lon="10.056514267988383"><ele>1013.0</ele><time>2026-03-28T13:40:36.999Z</time></trkpt><trkpt lat="46.325223997031834" lon="10.056442682477263"><ele>1013.0</ele><time>2026-03-28T13:40:37.999Z</time></trkpt><trkpt lat="46.32507604588353" lon="10.056361300599047"><ele>1013.0</ele><time>2026-03-28T13:40:38.999Z</time></trkpt><trkpt lat="46.32492570203981" lon="10.056292094872083"><ele>1013.0</ele><time>2026-03-28T13:40:39.999Z</time></trkpt><trkpt lat="46.324768567314685" lon="10.056240143667432"><ele>1013.0</ele><time>2026-03-28T13:40:40.999Z</time></trkpt><trkpt lat="46.32460914561932" lon="10.056190674439557"><ele>1013.0</ele><time>2026-03-28T13:40:41.999Z</time></trkpt><trkpt lat="46.324403000629616" lon="10.056176395854841"><ele>1012.3333333333334</ele><time>2026-03-28T13:40:42.999Z</time></trkpt><trkpt lat="46.3241704493082" lon="10.056150531787184"><ele>1011.6666666666667</ele><time>2026-03-28T13:40:43.999Z</time></trkpt><trkpt lat="46.32397734459749" lon="10.05615479073973"><ele>1011.0</ele><time>2026-03-28T13:40:44.999Z</time></trkpt><trkpt lat="46.32384479528472" lon="10.056148174839183"><ele>1010.5</ele><time>2026-03-28T13:40:45.999Z</time></trkpt><trkpt lat="46.3238409893789" lon="10.056045525806438"><ele>1010.0</ele><time>2026-03-28T13:40:46.999Z</time></trkpt><trkpt lat="46.32376208221692" lon="10.056029093211736"><ele>1009.5</ele><time>2026-03-28T13:40:47.999Z</time></trkpt><trkpt lat="46.3236993873303" lon="10.056052341265735"><ele>1009.0</ele><time>2026-03-28T13:40:48.999Z</time></trkpt><trkpt lat="46.32365869891052" lon="10.056145146885184"><ele>1008.5</ele><time>2026-03-28T13:40:49.999Z</time></trkpt><trkpt lat="46.32365796541163" lon="10.05626534532552"><ele>1008.0</ele><time>2026-03-28T13:40:50.999Z</time></trkpt><trkpt lat="46.32369379881477" lon="10.05637989865913"><ele>1008.0</ele><time>2026-03-28T13:40:51.999Z</time></trkpt><trkpt lat="46.32373728618603" lon="10.056508980477563"><ele>1008.0</ele><time>2026-03-28T13:40:52.999Z</time></trkpt><trkpt lat="46.32378338315811" lon="10.056665473695611"><ele>1008.0</ele><time>2026-03-28T13:40:53.999Z</time></trkpt><trkpt lat="46.323834227464744" lon="10.056832267818823"><ele>1008.0</ele><time>2026-03-28T13:40:54.999Z</time></trkpt><trkpt lat="46.32388327262468" lon="10.056979371721198"><ele>1008.0</ele><time>2026-03-28T13:40:55.999Z</time></trkpt><trkpt lat="46.32391876919707" lon="10.057110808238006"><ele>1008.0</ele><time>2026-03-28T13:40:56.999Z</time></trkpt><trkpt lat="46.32394361419832" lon="10.057224179395961"><ele>1008.0</ele><time>2026-03-28T13:40:58Z</time></trkpt><trkpt lat="46.32393544941076" lon="10.057325350523685"><ele>1008.0</ele><time>2026-03-28T13:40:59Z</time></trkpt><trkpt lat="46.3238950283874" lon="10.057406419882009"><ele>1008.0</ele><time>2026-03-28T13:41:00Z</time></trkpt><trkpt lat="46.3238374256452" lon="10.057474468627102"><ele>1008.0</ele><time>2026-03-28T13:41:01Z</time></trkpt><trkpt lat="46.323755868615734" lon="10.057516368108095"><ele>1008.0</ele><time>2026-03-28T13:41:02Z</time></trkpt><trkpt lat="46.32366576131353" lon="10.057580316207968"><ele>1008.0</ele><time>2026-03-28T13:41:03Z</time></trkpt><trkpt lat="46.3235421627111" lon="10.057632781290778"><ele>1008.0</ele><time>2026-03-28T13:41:04Z</time></trkpt><trkpt lat="46.32339222724999" lon="10.057657527031385"><ele>1008.0</ele><time>2026-03-28T13:41:05Z</time></trkpt><trkpt lat="46.32322941896756" lon="10.05772056514755"><ele>1007.0</ele><time>2026-03-28T13:41:06Z</time></trkpt><trkpt lat="46.32305941570756" lon="10.05778974676204"><ele>1006.0</ele><time>2026-03-28T13:41:07Z</time></trkpt><trkpt lat="46.32288715037519" lon="10.057869488244734"><ele>1005.0</ele><time>2026-03-28T13:41:08Z</time></trkpt><trkpt lat="46.322707161815416" lon="10.057955444192757"><ele>1005.0</ele><time>2026-03-28T13:41:09Z</time></trkpt><trkpt lat="46.32251686526531" lon="10.058026015656457"><ele>1005.0</ele><time>2026-03-28T13:41:10Z</time></trkpt><trkpt lat="46.32231675590801" lon="10.058107612060729"><ele>1005.0</ele><time>2026-03-28T13:41:11Z</time></trkpt><trkpt lat="46.322090822730004" lon="10.058198162793573"><ele>1004.5</ele><time>2026-03-28T13:41:12Z</time></trkpt><trkpt lat="46.32183571644869" lon="10.058300540872866"><ele>1004.0</ele><time>2026-03-28T13:41:13Z</time></trkpt><trkpt lat="46.32154112291195" lon="10.058395790228666"><ele>1004.0</ele><time>2026-03-28T13:41:14Z</time></trkpt><trkpt lat="46.321228832908254" lon="10.058525836252526"><ele>1004.0</ele><time>2026-03-28T13:41:15Z</time></trkpt><trkpt lat="46.32093339635364" lon="10.058648825919288"><ele>1004.0</ele><time>2026-03-28T13:41:16Z</time></trkpt><trkpt lat="46.32067277807883" lon="10.058776861231719"><ele>1004.0</ele><time>2026-03-28T13:41:17Z</time></trkpt><trkpt lat="46.320432638363386" lon="10.058878187532166"><ele>1003.3333333333334</ele><time>2026-03-28T13:41:18Z</time></trkpt><trkpt lat="46.32021333877049" lon="10.058966152235318"><ele>1002.6666666666667</ele><time>2026-03-28T13:41:19Z</time></trkpt><trkpt lat="46.32004110124661" lon="10.059161050509095"><ele>1002.0</ele><time>2026-03-28T13:41:20Z</time></trkpt><trkpt lat="46.319847214644156" lon="10.059113060375589"><ele>1002.0</ele><time>2026-03-28T13:41:21Z</time></trkpt><trkpt lat="46.31969032751025" lon="10.059171406347861"><ele>1002.0</ele><time>2026-03-28T13:41:22Z</time></trkpt><trkpt lat="46.31953264745187" lon="10.059209039055741"><ele>1002.0</ele><time>2026-03-28T13:41:23Z</time></trkpt><trkpt lat="46.31937288050082" lon="10.059222950149435"><ele>1002.0</ele><time>2026-03-28T13:41:24Z</time></trkpt><trkpt lat="46.319216207288676" lon="10.059183913004308"><ele>1002.0</ele><time>2026-03-28T13:41:25Z</time></trkpt><trkpt lat="46.31907703130345" lon="10.059186255839911"><ele>1002.0</ele><time>2026-03-28T13:41:26Z</time></trkpt><trkpt lat="46.31891646737058" lon="10.059188958711195"><ele>1001.6666666666667</ele><time>2026-03-28T13:41:27Z</time></trkpt><trkpt lat="46.318737996285655" lon="10.059191963023991"><ele>1001.3333333333334</ele><time>2026-03-28T13:41:28Z</time></trkpt><trkpt lat="46.31856181033044" lon="10.059196207032505"><ele>1001.0</ele><time>2026-03-28T13:41:29Z</time></trkpt><trkpt lat="46.31838953383766" lon="10.059215603043345"><ele>1001.0</ele><time>2026-03-28T13:41:30Z</time></trkpt><trkpt lat="46.31821783119326" lon="10.059209291802633"><ele>1001.0</ele><time>2026-03-28T13:41:31Z</time></trkpt><trkpt lat="46.31805961833397" lon="10.059228779398408"><ele>1001.0</ele><time>2026-03-28T13:41:32Z</time></trkpt><trkpt lat="46.31791269419067" lon="10.059290476288446"><ele>1001.0</ele><time>2026-03-28T13:41:33Z</time></trkpt><trkpt lat="46.31778354896929" lon="10.059415357999665"><ele>1001.0</ele><time>2026-03-28T13:41:34Z</time></trkpt><trkpt lat="46.31765783324061" lon="10.059577888996262"><ele>1001.0</ele><time>2026-03-28T13:41:35Z</time></trkpt><trkpt lat="46.31754251558727" lon="10.059750649507384"><ele>1001.0</ele><time>2026-03-28T13:41:36Z</time></trkpt><trkpt lat="46.31742581966638" lon="10.059896570548595"><ele>1001.0</ele><time>2026-03-28T13:41:37Z</time></trkpt><trkpt lat="46.31732844011146" lon="10.059998930731666"><ele>1001.0</ele><time>2026-03-28T13:41:38Z</time></trkpt><trkpt lat="46.317232504629494" lon="10.060052898889378"><ele>1001.0</ele><time>2026-03-28T13:41:38.999Z</time></trkpt><trkpt lat="46.317146968302374" lon="10.06003401318946"><ele>1001.4</ele><time>2026-03-28T13:41:39.999Z</time></trkpt><trkpt lat="46.31706812599444" lon="10.059949051811238"><ele>1001.8</ele><time>2026-03-28T13:41:40.999Z</time></trkpt><trkpt lat="46.31701915667155" lon="10.059806646674625"><ele>1002.1999999999999</ele><time>2026-03-28T13:41:41.999Z</time></trkpt><trkpt lat="46.316938641531316" lon="10.059717054402167"><ele>1002.5999999999999</ele><time>2026-03-28T13:41:42.999Z</time></trkpt><trkpt lat="46.31684419579469" lon="10.059665540256836"><ele>1003.0</ele><time>2026-03-28T13:41:43.999Z</time></trkpt><trkpt lat="46.31672266704268" lon="10.05967442749318"><ele>1003.0</ele><time>2026-03-28T13:41:44.999Z</time></trkpt><trkpt lat="46.31659556134789" lon="10.059724346940461"><ele>1003.0</ele><time>2026-03-28T13:41:45.999Z</time></trkpt><trkpt lat="46.31645683380661" lon="10.05979847268462"><ele>1003.0</ele><time>2026-03-28T13:41:46.999Z</time></trkpt><trkpt lat="46.31630443327597" lon="10.059847314748733"><ele>1003.0</ele><time>2026-03-28T13:41:47.999Z</time></trkpt><trkpt lat="46.31614216998094" lon="10.059902969442001"><ele>1001.6666666666666</ele><time>2026-03-28T13:41:48.999Z</time></trkpt><trkpt lat="46.315976888697385" lon="10.05995473519856"><ele>1000.3333333333333</ele><time>2026-03-28T13:41:49.999Z</time></trkpt><trkpt lat="46.315816280701874" lon="10.060000998537939"><ele>999.0</ele><time>2026-03-28T13:41:50.999Z</time></trkpt><trkpt lat="46.31565523283045" lon="10.06005429903848"><ele>998.6666666666667</ele><time>2026-03-28T13:41:51.999Z</time></trkpt><trkpt lat="46.315487592278394" lon="10.06011011648684"><ele>998.3333333333334</ele><time>2026-03-28T13:41:52.999Z</time></trkpt><trkpt lat="46.31532393496311" lon="10.060167566121665"><ele>998.0</ele><time>2026-03-28T13:41:53.999Z</time></trkpt><trkpt lat="46.31516328526669" lon="10.060222240274125"><ele>998.0</ele><time>2026-03-28T13:41:54.999Z</time></trkpt><trkpt lat="46.31500312918674" lon="10.060274226268342"><ele>998.0</ele><time>2026-03-28T13:41:55.999Z</time></trkpt><trkpt lat="46.314844370187" lon="10.060328300152774"><ele>998.0</ele><time>2026-03-28T13:41:56.999Z</time></trkpt><trkpt lat="46.31469607981946" lon="10.060376310425664"><ele>998.0</ele><time>2026-03-28T13:41:57.999Z</time></trkpt><trkpt lat="46.31454732227407" lon="10.060430984262211"><ele>998.0</ele><time>2026-03-28T13:41:58.999Z</time></trkpt><trkpt lat="46.314409552758505" lon="10.06049071451131"><ele>998.0</ele><time>2026-03-28T13:41:59.999Z</time></trkpt><trkpt lat="46.3142862056895" lon="10.060568169901778"><ele>998.0</ele><time>2026-03-28T13:42:00.999Z</time></trkpt><trkpt lat="46.31417447263121" lon="10.060685209560553"><ele>997.8</ele><time>2026-03-28T13:42:01.999Z</time></trkpt><trkpt lat="46.31408288086029" lon="10.060813030341277"><ele>997.5999999999999</ele><time>2026-03-28T13:42:02.999Z</time></trkpt><trkpt lat="46.31399234099998" lon="10.060928201757807"><ele>997.4000000000001</ele><time>2026-03-28T13:42:03.999Z</time></trkpt><trkpt lat="46.31390851006033" lon="10.061022357861827"><ele>997.2</ele><time>2026-03-28T13:42:04.999Z</time></trkpt><trkpt lat="46.3138402943512" lon="10.061096325685913"><ele>997.0</ele><time>2026-03-28T13:42:05.999Z</time></trkpt><trkpt lat="46.31377050560318" lon="10.06117718275457"><ele>997.0</ele><time>2026-03-28T13:42:06.999Z</time></trkpt><trkpt lat="46.31368898512929" lon="10.061267199617626"><ele>997.0</ele><time>2026-03-28T13:42:07.999Z</time></trkpt><trkpt lat="46.31359878733985" lon="10.06137278949409"><ele>997.0</ele><time>2026-03-28T13:42:08.999Z</time></trkpt><trkpt lat="46.31351434335989" lon="10.061472630613727"><ele>997.0</ele><time>2026-03-28T13:42:09.999Z</time></trkpt><trkpt lat="46.31341904836931" lon="10.06154518331976"><ele>997.0</ele><time>2026-03-28T13:42:10.999Z</time></trkpt><trkpt lat="46.31330506786796" lon="10.061632338011394"><ele>996.25</ele><time>2026-03-28T13:42:11.999Z</time></trkpt><trkpt lat="46.31318848282353" lon="10.061713828515037"><ele>995.5</ele><time>2026-03-28T13:42:12.999Z</time></trkpt><trkpt lat="46.313064855344045" lon="10.06181436853709"><ele>994.75</ele><time>2026-03-28T13:42:13.999Z</time></trkpt><trkpt lat="46.312931047407844" lon="10.061891519999978"><ele>994.0</ele><time>2026-03-28T13:42:14.999Z</time></trkpt><trkpt lat="46.31280108940369" lon="10.061971313476072"><ele>993.5</ele><time>2026-03-28T13:42:15.999Z</time></trkpt><trkpt lat="46.31267594179326" lon="10.06204876968084"><ele>993.0</ele><time>2026-03-28T13:42:16.999Z</time></trkpt><trkpt lat="46.31255338133414" lon="10.062123178830388"><ele>992.5</ele><time>2026-03-28T13:42:17.999Z</time></trkpt><trkpt lat="46.31243067283081" lon="10.062203031050297"><ele>992.0</ele><time>2026-03-28T13:42:18.999Z</time></trkpt><trkpt lat="46.312309617726726" lon="10.062281868870093"><ele>991.0</ele><time>2026-03-28T13:42:19.999Z</time></trkpt><trkpt lat="46.312192492139445" lon="10.06234656739416"><ele>990.0</ele><time>2026-03-28T13:42:20.999Z</time></trkpt><trkpt lat="46.312074953622954" lon="10.062409431389877"><ele>989.0</ele><time>2026-03-28T13:42:21.999Z</time></trkpt><trkpt lat="46.31195230941892" lon="10.062472476074177"><ele>988.0</ele><time>2026-03-28T13:42:22.999Z</time></trkpt><trkpt lat="46.311826627501894" lon="10.062546747992023"><ele>987.5</ele><time>2026-03-28T13:42:23.999Z</time></trkpt><trkpt lat="46.31170621674738" lon="10.062622102371902"><ele>987.0</ele><time>2026-03-28T13:42:24.999Z</time></trkpt><trkpt lat="46.31159747000163" lon="10.062694689570037"><ele>986.5</ele><time>2026-03-28T13:42:25.999Z</time></trkpt><trkpt lat="46.31148009073667" lon="10.062768026574629"><ele>986.0</ele><time>2026-03-28T13:42:26.999Z</time></trkpt><trkpt lat="46.31136714960174" lon="10.062827953384899"><ele>985.75</ele><time>2026-03-28T13:42:27.999Z</time></trkpt><trkpt lat="46.3112577016104" lon="10.062874011243274"><ele>985.5</ele><time>2026-03-28T13:42:28.999Z</time></trkpt><trkpt lat="46.3111394222773" lon="10.062914829670177"><ele>985.25</ele><time>2026-03-28T13:42:29.999Z</time></trkpt><trkpt lat="46.31102553436942" lon="10.062969865900607"><ele>985.0</ele><time>2026-03-28T13:42:30.999Z</time></trkpt><trkpt lat="46.31091219871474" lon="10.063045414685229"><ele>985.0</ele><time>2026-03-28T13:42:31.999Z</time></trkpt><trkpt lat="46.310788103033836" lon="10.063130451617951"><ele>985.0</ele><time>2026-03-28T13:42:32.999Z</time></trkpt><trkpt lat="46.31065694753849" lon="10.063226605185335"><ele>985.0</ele><time>2026-03-28T13:42:33.999Z</time></trkpt><trkpt lat="46.310541080639" lon="10.063355139699878"><ele>985.0</ele><time>2026-03-28T13:42:34.999Z</time></trkpt><trkpt lat="46.31039821815371" lon="10.06345897816315"><ele>985.0</ele><time>2026-03-28T13:42:35.999Z</time></trkpt><trkpt lat="46.31024139012273" lon="10.063558589941987"><ele>985.0</ele><time>2026-03-28T13:42:36.999Z</time></trkpt><trkpt lat="46.310062427028384" lon="10.063671647587391"><ele>985.0</ele><time>2026-03-28T13:42:37.999Z</time></trkpt><trkpt lat="46.30986869268833" lon="10.063823242142945"><ele>984.0</ele><time>2026-03-28T13:42:38.999Z</time></trkpt><trkpt lat="46.30966304566085" lon="10.06392997962994"><ele>983.0</ele><time>2026-03-28T13:42:39.999Z</time></trkpt><trkpt lat="46.309415445569144" lon="10.064089045642103"><ele>982.5</ele><time>2026-03-28T13:42:40.999Z</time></trkpt><trkpt lat="46.30914713842274" lon="10.064260351657303"><ele>982.0</ele><time>2026-03-28T13:42:41.999Z</time></trkpt><trkpt lat="46.30885297397658" lon="10.064447914122798"><ele>982.0</ele><time>2026-03-28T13:42:42.999Z</time></trkpt><trkpt lat="46.308558152890186" lon="10.064636260658924"><ele>982.0</ele><time>2026-03-28T13:42:43.999Z</time></trkpt><trkpt lat="46.30829714153145" lon="10.064823199351512"><ele>981.0</ele><time>2026-03-28T13:42:44.999Z</time></trkpt><trkpt lat="46.30803810204512" lon="10.06498452556068"><ele>980.0</ele><time>2026-03-28T13:42:45.999Z</time></trkpt><trkpt lat="46.30778702686337" lon="10.065142266872087"><ele>980.0</ele><time>2026-03-28T13:42:46.999Z</time></trkpt><trkpt lat="46.30753535543679" lon="10.065315745400227"><ele>980.0</ele><time>2026-03-28T13:42:47.999Z</time></trkpt><trkpt lat="46.30729156640929" lon="10.065501366912251"><ele>980.5</ele><time>2026-03-28T13:42:48.999Z</time></trkpt><trkpt lat="46.307049816548876" lon="10.065694496739704"><ele>981.0</ele><time>2026-03-28T13:42:49.999Z</time></trkpt><trkpt lat="46.30681409664559" lon="10.065875050856839"><ele>980.0</ele><time>2026-03-28T13:42:50.999Z</time></trkpt><trkpt lat="46.30659262272158" lon="10.066045811659427"><ele>979.0</ele><time>2026-03-28T13:42:51.999Z</time></trkpt><trkpt lat="46.30638308741085" lon="10.066206280366622"><ele>979.3333333333333</ele><time>2026-03-28T13:42:52.999Z</time></trkpt><trkpt lat="46.306182608394955" lon="10.06635575772099"><ele>979.6666666666667</ele><time>2026-03-28T13:42:53.999Z</time></trkpt><trkpt lat="46.30599114113049" lon="10.066508700022943"><ele>980.0</ele><time>2026-03-28T13:42:54.999Z</time></trkpt><trkpt lat="46.305799910845906" lon="10.066649564557128"><ele>980.0</ele><time>2026-03-28T13:42:55.999Z</time></trkpt><trkpt lat="46.3056183569285" lon="10.066792015034595"><ele>980.0</ele><time>2026-03-28T13:42:56.999Z</time></trkpt><trkpt lat="46.30544075604717" lon="10.06692559950891"><ele>980.0</ele><time>2026-03-28T13:42:57.999Z</time></trkpt><trkpt lat="46.3052679103967" lon="10.067058425231455"><ele>980.0</ele><time>2026-03-28T13:42:58.998Z</time></trkpt><trkpt lat="46.30510767756589" lon="10.067200740098187"><ele>980.0</ele><time>2026-03-28T13:42:59.998Z</time></trkpt><trkpt lat="46.30496747972733" lon="10.067381164446823"><ele>980.0</ele><time>2026-03-28T13:43:00.998Z</time></trkpt><trkpt lat="46.30485858715365" lon="10.067623565364611"><ele>980.0</ele><time>2026-03-28T13:43:01.998Z</time></trkpt><trkpt lat="46.30481495497921" lon="10.067928293270066"><ele>980.0</ele><time>2026-03-28T13:43:02.998Z</time></trkpt><trkpt lat="46.30472596270841" lon="10.068200380879016"><ele>980.0</ele><time>2026-03-28T13:43:04Z</time></trkpt><trkpt lat="46.30465175179808" lon="10.068453519010768"><ele>982.3333333333334</ele><time>2026-03-28T13:43:05Z</time></trkpt><trkpt lat="46.304575143070636" lon="10.068696894145925"><ele>984.6666666666667</ele><time>2026-03-28T13:43:06Z</time></trkpt><trkpt lat="46.304498045870154" lon="10.068933405647474"><ele>987.0</ele><time>2026-03-28T13:43:07Z</time></trkpt><trkpt lat="46.304421628320725" lon="10.069160750735088"><ele>987.0</ele><time>2026-03-28T13:43:08Z</time></trkpt><trkpt lat="46.30434687843945" lon="10.069379458452866"><ele>987.0</ele><time>2026-03-28T13:43:09Z</time></trkpt><trkpt lat="46.30428049908324" lon="10.069602920842394"><ele>987.0</ele><time>2026-03-28T13:43:10Z</time></trkpt><trkpt lat="46.30420725867742" lon="10.06981559960778"><ele>984.3333333333333</ele><time>2026-03-28T13:43:11Z</time></trkpt><trkpt lat="46.30413783810885" lon="10.070025717741734"><ele>981.6666666666666</ele><time>2026-03-28T13:43:12Z</time></trkpt><trkpt lat="46.30407105041647" lon="10.070217703552867"><ele>979.0</ele><time>2026-03-28T13:43:13Z</time></trkpt><trkpt lat="46.30400014058459" lon="10.070407421907518"><ele>979.0</ele><time>2026-03-28T13:43:14Z</time></trkpt><trkpt lat="46.303914972304085" lon="10.070583274607255"><ele>979.0</ele><time>2026-03-28T13:43:15Z</time></trkpt><trkpt lat="46.30380747251922" lon="10.070748193788454"><ele>979.0</ele><time>2026-03-28T13:43:16Z</time></trkpt><trkpt lat="46.30368875947862" lon="10.070896823976447"><ele>980.0</ele><time>2026-03-28T13:43:17Z</time></trkpt><trkpt lat="46.30355503766967" lon="10.071010123075443"><ele>981.0</ele><time>2026-03-28T13:43:18Z</time></trkpt><trkpt lat="46.303421598377376" lon="10.07110856684926"><ele>982.0</ele><time>2026-03-28T13:43:19Z</time></trkpt><trkpt lat="46.303278809987134" lon="10.071149850625186"><ele>982.0</ele><time>2026-03-28T13:43:20Z</time></trkpt><trkpt lat="46.30313697295467" lon="10.071213342903398"><ele>982.0</ele><time>2026-03-28T13:43:21Z</time></trkpt><trkpt lat="46.30298160374969" lon="10.07124568358795"><ele>982.0</ele><time>2026-03-28T13:43:22Z</time></trkpt><trkpt lat="46.30282246781614" lon="10.071281027160193"><ele>983.6666666666666</ele><time>2026-03-28T13:43:23Z</time></trkpt><trkpt lat="46.30266343422446" lon="10.071317836116483"><ele>985.3333333333333</ele><time>2026-03-28T13:43:24Z</time></trkpt><trkpt lat="46.30251833801613" lon="10.07135836818464"><ele>987.0</ele><time>2026-03-28T13:43:25Z</time></trkpt><trkpt lat="46.302374867855136" lon="10.07139489355701"><ele>989.6666666666667</ele><time>2026-03-28T13:43:26Z</time></trkpt><trkpt lat="46.30223102638991" lon="10.071434678070835"><ele>992.3333333333334</ele><time>2026-03-28T13:43:27Z</time></trkpt><trkpt lat="46.30208173679176" lon="10.071472898432953"><ele>995.0</ele><time>2026-03-28T13:43:28Z</time></trkpt><trkpt lat="46.30191981179896" lon="10.071514475391199"><ele>995.0</ele><time>2026-03-28T13:43:29Z</time></trkpt><trkpt lat="46.301755498507056" lon="10.071558537759696"><ele>995.0</ele><time>2026-03-28T13:43:30Z</time></trkpt><trkpt lat="46.301604443340054" lon="10.071595553575582"><ele>995.0</ele><time>2026-03-28T13:43:31Z</time></trkpt><trkpt lat="46.3014600395163" lon="10.071633425549557"><ele>996.6666666666667</ele><time>2026-03-28T13:43:32Z</time></trkpt><trkpt lat="46.301294758356555" lon="10.071657147185256"><ele>998.3333333333333</ele><time>2026-03-28T13:43:33Z</time></trkpt><trkpt lat="46.30112852766744" lon="10.071701852741757"><ele>1000.0</ele><time>2026-03-28T13:43:34Z</time></trkpt><trkpt lat="46.300943453018334" lon="10.071751626131066"><ele>1000.0</ele><time>2026-03-28T13:43:35Z</time></trkpt><trkpt lat="46.30074349346348" lon="10.071819871243534"><ele>1000.0</ele><time>2026-03-28T13:43:36Z</time></trkpt><trkpt lat="46.30058723599652" lon="10.072276780562971"><ele>999.6666666666666</ele><time>2026-03-28T13:43:37Z</time></trkpt><trkpt lat="46.30041473312891" lon="10.072450393358322"><ele>999.3333333333333</ele><time>2026-03-28T13:43:38Z</time></trkpt><trkpt lat="46.300234372399295" lon="10.07261842623502"><ele>999.0</ele><time>2026-03-28T13:43:39Z</time></trkpt><trkpt lat="46.30004816919954" lon="10.072786237877478"><ele>999.0</ele><time>2026-03-28T13:43:40Z</time></trkpt><trkpt lat="46.29985430690117" lon="10.072963890042882"><ele>999.0</ele><time>2026-03-28T13:43:41Z</time></trkpt><trkpt lat="46.29966133079356" lon="10.073138940034353"><ele>990.5</ele><time>2026-03-28T13:43:42Z</time></trkpt><trkpt lat="46.29946495100433" lon="10.073321711593877"><ele>982.0</ele><time>2026-03-28T13:43:43Z</time></trkpt><trkpt lat="46.29926949442087" lon="10.073506983059938"><ele>982.0</ele><time>2026-03-28T13:43:44Z</time></trkpt><trkpt lat="46.299078099555736" lon="10.073694411478881"><ele>982.0</ele><time>2026-03-28T13:43:45Z</time></trkpt><trkpt lat="46.29887089648415" lon="10.073870517486483"><ele>980.5</ele><time>2026-03-28T13:43:46Z</time></trkpt><trkpt lat="46.298613715061826" lon="10.074034679825777"><ele>979.0</ele><time>2026-03-28T13:43:46.999Z</time></trkpt><trkpt lat="46.2983855773938" lon="10.074214925232516"><ele>976.0</ele><time>2026-03-28T13:43:47.999Z</time></trkpt><trkpt lat="46.298258591734786" lon="10.074448511071667"><ele>973.0</ele><time>2026-03-28T13:43:48.999Z</time></trkpt><trkpt lat="46.29806916039489" lon="10.074642862421161"><ele>970.0</ele><time>2026-03-28T13:43:49.999Z</time></trkpt><trkpt lat="46.297861225706136" lon="10.074831346576552"><ele>969.5</ele><time>2026-03-28T13:43:50.999Z</time></trkpt><trkpt lat="46.297658582278295" lon="10.075021333231422"><ele>969.0</ele><time>2026-03-28T13:43:51.999Z</time></trkpt><trkpt lat="46.29745942643206" lon="10.075216369021934"><ele>969.0</ele><time>2026-03-28T13:43:52.999Z</time></trkpt><trkpt lat="46.29726202842838" lon="10.075410192240842"><ele>969.0</ele><time>2026-03-28T13:43:53.999Z</time></trkpt><trkpt lat="46.29706412274359" lon="10.075604163498955"><ele>967.5</ele><time>2026-03-28T13:43:54.999Z</time></trkpt><trkpt lat="46.296865065400226" lon="10.075791852587464"><ele>966.0</ele><time>2026-03-28T13:43:55.999Z</time></trkpt><trkpt lat="46.29666664110206" lon="10.075982506344662"><ele>966.0</ele><time>2026-03-28T13:43:56.999Z</time></trkpt><trkpt lat="46.296473553505955" lon="10.076174733021276"><ele>966.0</ele><time>2026-03-28T13:43:57.999Z</time></trkpt><trkpt lat="46.296283175338466" lon="10.076357677173027"><ele>966.0</ele><time>2026-03-28T13:43:58.999Z</time></trkpt><trkpt lat="46.29609655743743" lon="10.076531783817634"><ele>966.0</ele><time>2026-03-28T13:43:59.999Z</time></trkpt><trkpt lat="46.295914572272125" lon="10.076704398163221"><ele>966.0</ele><time>2026-03-28T13:44:00.999Z</time></trkpt><trkpt lat="46.29574143082739" lon="10.07687601573041"><ele>966.6666666666667</ele><time>2026-03-28T13:44:01.999Z</time></trkpt><trkpt lat="46.295579054643774" lon="10.077046327680291"><ele>967.3333333333334</ele><time>2026-03-28T13:44:02.999Z</time></trkpt><trkpt lat="46.29542210507915" lon="10.077208080771122"><ele>968.0</ele><time>2026-03-28T13:44:03.999Z</time></trkpt><trkpt lat="46.295268032239505" lon="10.077362369656269"><ele>967.3333333333334</ele><time>2026-03-28T13:44:04.999Z</time></trkpt><trkpt lat="46.29512067422601" lon="10.077498931600323"><ele>966.6666666666667</ele><time>2026-03-28T13:44:05.999Z</time></trkpt><trkpt lat="46.29497228011778" lon="10.07762192029233"><ele>966.0</ele><time>2026-03-28T13:44:06.999Z</time></trkpt><trkpt lat="46.294819610555216" lon="10.077688004082923"><ele>966.0</ele><time>2026-03-28T13:44:07.999Z</time></trkpt><trkpt lat="46.29466246543038" lon="10.077739386234233"><ele>966.0</ele><time>2026-03-28T13:44:08.999Z</time></trkpt><trkpt lat="46.29449464201736" lon="10.077763530582441"><ele>966.0</ele><time>2026-03-28T13:44:09.999Z</time></trkpt><trkpt lat="46.29430537357757" lon="10.077776712481231"><ele>966.0</ele><time>2026-03-28T13:44:10.999Z</time></trkpt><trkpt lat="46.294122131741176" lon="10.077795854814044"><ele>966.0</ele><time>2026-03-28T13:44:11.999Z</time></trkpt><trkpt lat="46.29393150546295" lon="10.077814570604406"><ele>966.0</ele><time>2026-03-28T13:44:12.999Z</time></trkpt><trkpt lat="46.29374077228689" lon="10.077831866803123"><ele>966.0</ele><time>2026-03-28T13:44:13.999Z</time></trkpt><trkpt lat="46.29356106737804" lon="10.077848217511228"><ele>966.0</ele><time>2026-03-28T13:44:14.999Z</time></trkpt><trkpt lat="46.293383237776695" lon="10.077866548592073"><ele>966.0</ele><time>2026-03-28T13:44:15.999Z</time></trkpt><trkpt lat="46.293209931066464" lon="10.077887844563103"><ele>966.3333333333333</ele><time>2026-03-28T13:44:16.999Z</time></trkpt><trkpt lat="46.2930374059782" lon="10.077913115704373"><ele>966.6666666666666</ele><time>2026-03-28T13:44:17.999Z</time></trkpt><trkpt lat="46.2928683278191" lon="10.077934075841258"><ele>967.0</ele><time>2026-03-28T13:44:18.999Z</time></trkpt><trkpt lat="46.292695146773845" lon="10.077953087970414"><ele>967.0</ele><time>2026-03-28T13:44:19.999Z</time></trkpt><trkpt lat="46.29252231980899" lon="10.07797284312404"><ele>967.0</ele><time>2026-03-28T13:44:20.999Z</time></trkpt><trkpt lat="46.292345180194175" lon="10.077996488476845"><ele>967.0</ele><time>2026-03-28T13:44:21.999Z</time></trkpt><trkpt lat="46.29216906226762" lon="10.077974566721986"><ele>969.0</ele><time>2026-03-28T13:44:22.999Z</time></trkpt><trkpt lat="46.29200011419756" lon="10.077993088120815"><ele>971.0</ele><time>2026-03-28T13:44:23.999Z</time></trkpt><trkpt lat="46.29183051138958" lon="10.078011681297282"><ele>973.0</ele><time>2026-03-28T13:44:24.999Z</time></trkpt><trkpt lat="46.2916701526778" lon="10.078029838501772"><ele>973.0</ele><time>2026-03-28T13:44:25.999Z</time></trkpt><trkpt lat="46.291508777488026" lon="10.078047723297736"><ele>973.0</ele><time>2026-03-28T13:44:26.999Z</time></trkpt><trkpt lat="46.29135455765641" lon="10.078062258563326"><ele>973.0</ele><time>2026-03-28T13:44:27.999Z</time></trkpt><trkpt lat="46.291199879515574" lon="10.078116719122157"><ele>980.6666666666666</ele><time>2026-03-28T13:44:28.999Z</time></trkpt><trkpt lat="46.291034377932576" lon="10.078116623107714"><ele>988.3333333333333</ele><time>2026-03-28T13:44:29.999Z</time></trkpt><trkpt lat="46.29086483227639" lon="10.078111738889243"><ele>996.0</ele><time>2026-03-28T13:44:30.999Z</time></trkpt><trkpt lat="46.29068620235352" lon="10.07812527510584"><ele>1002.0</ele><time>2026-03-28T13:44:31.999Z</time></trkpt><trkpt lat="46.29050743950573" lon="10.078118822076837"><ele>1008.0</ele><time>2026-03-28T13:44:32.999Z</time></trkpt><trkpt lat="46.29032888763588" lon="10.07816449441807"><ele>1014.0</ele><time>2026-03-28T13:44:33.999Z</time></trkpt><trkpt lat="46.29014312108641" lon="10.078183190212668"><ele>1014.0</ele><time>2026-03-28T13:44:34.999Z</time></trkpt><trkpt lat="46.289960175216756" lon="10.078216165864125"><ele>1014.0</ele><time>2026-03-28T13:44:35.999Z</time></trkpt><trkpt lat="46.289777149026335" lon="10.078262974360287"><ele>1014.0</ele><time>2026-03-28T13:44:36.999Z</time></trkpt><trkpt lat="46.289604580642795" lon="10.078301327402123"><ele>1003.3333333333333</ele><time>2026-03-28T13:44:37.999Z</time></trkpt><trkpt lat="46.28943063190805" lon="10.078325682896171"><ele>992.6666666666666</ele><time>2026-03-28T13:44:38.999Z</time></trkpt><trkpt lat="46.289253533200934" lon="10.078336627661528"><ele>982.0</ele><time>2026-03-28T13:44:39.999Z</time></trkpt><trkpt lat="46.28908325904595" lon="10.078300336008338"><ele>978.3333333333333</ele><time>2026-03-28T13:44:40.999Z</time></trkpt><trkpt lat="46.28892589691482" lon="10.078297930482043"><ele>974.6666666666667</ele><time>2026-03-28T13:44:41.999Z</time></trkpt><trkpt lat="46.28876612167333" lon="10.078296962952026"><ele>971.0</ele><time>2026-03-28T13:44:42.999Z</time></trkpt><trkpt lat="46.288616627885126" lon="10.078330134471953"><ele>971.0</ele><time>2026-03-28T13:44:43.999Z</time></trkpt><trkpt lat="46.2884795599254" lon="10.078436828983351"><ele>971.0</ele><time>2026-03-28T13:44:44.999Z</time></trkpt><trkpt lat="46.28835858585517" lon="10.078608784641906"><ele>971.0</ele><time>2026-03-28T13:44:45.999Z</time></trkpt><trkpt lat="46.288245367903" lon="10.07882696291868"><ele>971.0</ele><time>2026-03-28T13:44:46.999Z</time></trkpt><trkpt lat="46.28813135528157" lon="10.079037277739166"><ele>971.0</ele><time>2026-03-28T13:44:47.999Z</time></trkpt><trkpt lat="46.287980415388475" lon="10.079230302198887"><ele>971.0</ele><time>2026-03-28T13:44:48.999Z</time></trkpt><trkpt lat="46.287822565015624" lon="10.079394609263643"><ele>972.5</ele><time>2026-03-28T13:44:49.999Z</time></trkpt><trkpt lat="46.28763442904347" lon="10.079549114875194"><ele>974.0</ele><time>2026-03-28T13:44:50.999Z</time></trkpt><trkpt lat="46.287423592775795" lon="10.07969747798004"><ele>973.5</ele><time>2026-03-28T13:44:51.999Z</time></trkpt><trkpt lat="46.28719847047145" lon="10.079874779578725"><ele>973.0</ele><time>2026-03-28T13:44:52.999Z</time></trkpt><trkpt lat="46.28694962323148" lon="10.080042259196333"><ele>973.0</ele><time>2026-03-28T13:44:53.999Z</time></trkpt><trkpt lat="46.28669742061195" lon="10.080219794002364"><ele>973.0</ele><time>2026-03-28T13:44:54.999Z</time></trkpt><trkpt lat="46.28645480302662" lon="10.080409909000274"><ele>970.0</ele><time>2026-03-28T13:44:55.999Z</time></trkpt><trkpt lat="46.28622194140358" lon="10.080608293426149"><ele>967.0</ele><time>2026-03-28T13:44:56.999Z</time></trkpt><trkpt lat="46.28601906316136" lon="10.080781612904536"><ele>967.0</ele><time>2026-03-28T13:44:57.999Z</time></trkpt><trkpt lat="46.285827830061926" lon="10.08093654129689"><ele>967.0</ele><time>2026-03-28T13:44:58.999Z</time></trkpt><trkpt lat="46.28564204705259" lon="10.08105890489165"><ele>967.0</ele><time>2026-03-28T13:44:59.999Z</time></trkpt><trkpt lat="46.28544381174015" lon="10.081115398420206"><ele>970.3333333333333</ele><time>2026-03-28T13:45:00.999Z</time></trkpt><trkpt lat="46.285245360269016" lon="10.081139898921542"><ele>973.6666666666667</ele><time>2026-03-28T13:45:01.999Z</time></trkpt><trkpt lat="46.285046386906444" lon="10.08112142015043"><ele>977.0</ele><time>2026-03-28T13:45:02.999Z</time></trkpt><trkpt lat="46.28484495647981" lon="10.081105458502202"><ele>987.3333333333334</ele><time>2026-03-28T13:45:03.999Z</time></trkpt><trkpt lat="46.284649507110416" lon="10.081120133080907"><ele>997.6666666666667</ele><time>2026-03-28T13:45:04.999Z</time></trkpt><trkpt lat="46.28446037200084" lon="10.081186380815126"><ele>1008.0</ele><time>2026-03-28T13:45:05.999Z</time></trkpt><trkpt lat="46.28428343470749" lon="10.081323760908345"><ele>1008.0</ele><time>2026-03-28T13:45:06.999Z</time></trkpt><trkpt lat="46.28412008692588" lon="10.08151462154612"><ele>1008.0</ele><time>2026-03-28T13:45:07.999Z</time></trkpt><trkpt lat="46.28395566120543" lon="10.081720776058622"><ele>1008.0</ele><time>2026-03-28T13:45:08.999Z</time></trkpt><trkpt lat="46.28376582639328" lon="10.081865966278983"><ele>1013.5</ele><time>2026-03-28T13:45:10Z</time></trkpt><trkpt lat="46.283559871416045" lon="10.082013362263513"><ele>1019.0</ele><time>2026-03-28T13:45:11Z</time></trkpt><trkpt lat="46.28334470415108" lon="10.082133008540232"><ele>1019.0</ele><time>2026-03-28T13:45:12Z</time></trkpt><trkpt lat="46.2831509304171" lon="10.08227718402687"><ele>1019.0</ele><time>2026-03-28T13:45:13Z</time></trkpt><trkpt lat="46.282969324030525" lon="10.08244874479268"><ele>1019.0</ele><time>2026-03-28T13:45:14Z</time></trkpt><trkpt lat="46.2828122472742" lon="10.082642491610121"><ele>1028.3333333333335</ele><time>2026-03-28T13:45:15Z</time></trkpt><trkpt lat="46.282670723002944" lon="10.082853221102594"><ele>1037.6666666666667</ele><time>2026-03-28T13:45:16Z</time></trkpt><trkpt lat="46.28253321232146" lon="10.083078436950382"><ele>1047.0</ele><time>2026-03-28T13:45:17Z</time></trkpt><trkpt lat="46.28240837147564" lon="10.083320833409626"><ele>1046.0</ele><time>2026-03-28T13:45:18Z</time></trkpt><trkpt lat="46.28229225661993" lon="10.083546044381166"><ele>1045.0</ele><time>2026-03-28T13:45:19Z</time></trkpt><trkpt lat="46.28217908249154" lon="10.083751253605216"><ele>1044.0</ele><time>2026-03-28T13:45:20Z</time></trkpt><trkpt lat="46.28204684536317" lon="10.083916074814583"><ele>1044.0</ele><time>2026-03-28T13:45:21Z</time></trkpt><trkpt lat="46.28188435481602" lon="10.084015620493485"><ele>1044.0</ele><time>2026-03-28T13:45:22Z</time></trkpt><trkpt lat="46.281713453776405" lon="10.084121905425485"><ele>1044.0</ele><time>2026-03-28T13:45:23Z</time></trkpt><trkpt lat="46.281530891671935" lon="10.084236666473116"><ele>1038.6666666666667</ele><time>2026-03-28T13:45:24Z</time></trkpt><trkpt lat="46.28135519083127" lon="10.084344013345298"><ele>1033.3333333333335</ele><time>2026-03-28T13:45:25Z</time></trkpt><trkpt lat="46.281201800620636" lon="10.084458655237276"><ele>1028.0</ele><time>2026-03-28T13:45:26Z</time></trkpt><trkpt lat="46.281053277445494" lon="10.084544091920801"><ele>1028.0</ele><time>2026-03-28T13:45:27Z</time></trkpt><trkpt lat="46.280888739206596" lon="10.084646960126546"><ele>1028.0</ele><time>2026-03-28T13:45:28Z</time></trkpt><trkpt lat="46.28070810776778" lon="10.0847888308956"><ele>1028.0</ele><time>2026-03-28T13:45:29Z</time></trkpt><trkpt lat="46.28051006292984" lon="10.084970410071344"><ele>1029.5</ele><time>2026-03-28T13:45:30Z</time></trkpt><trkpt lat="46.28029296472497" lon="10.08516981438903"><ele>1031.0</ele><time>2026-03-28T13:45:31Z</time></trkpt><trkpt lat="46.28006553769168" lon="10.08540796007037"><ele>1031.0</ele><time>2026-03-28T13:45:32Z</time></trkpt><trkpt lat="46.2798611873572" lon="10.085643338597283"><ele>1031.0</ele><time>2026-03-28T13:45:33Z</time></trkpt><trkpt lat="46.27966658356558" lon="10.085855576594009"><ele>1030.0</ele><time>2026-03-28T13:45:34Z</time></trkpt><trkpt lat="46.27947707765759" lon="10.086040138712166"><ele>1029.0</ele><time>2026-03-28T13:45:35Z</time></trkpt><trkpt lat="46.2793035917926" lon="10.086270106502441"><ele>1029.0</ele><time>2026-03-28T13:45:36Z</time></trkpt><trkpt lat="46.279136769592654" lon="10.086449932344141"><ele>1029.0</ele><time>2026-03-28T13:45:37Z</time></trkpt><trkpt lat="46.2789889243659" lon="10.086606905473165"><ele>1029.0</ele><time>2026-03-28T13:45:38Z</time></trkpt><trkpt lat="46.278884241083375" lon="10.08677791203817"><ele>1030.3333333333333</ele><time>2026-03-28T13:45:39Z</time></trkpt><trkpt lat="46.278820260715214" lon="10.086991162995375"><ele>1031.6666666666665</ele><time>2026-03-28T13:45:40Z</time></trkpt><trkpt lat="46.27878081770688" lon="10.087211544768035"><ele>1033.0</ele><time>2026-03-28T13:45:41Z</time></trkpt><trkpt lat="46.2787416513217" lon="10.087424767192797"><ele>1024.0</ele><time>2026-03-28T13:45:42Z</time></trkpt><trkpt lat="46.278674944455005" lon="10.087619050148959"><ele>1015.0</ele><time>2026-03-28T13:45:43Z</time></trkpt><trkpt lat="46.27856762276496" lon="10.087783305500917"><ele>1006.0</ele><time>2026-03-28T13:45:44Z</time></trkpt><trkpt lat="46.278435647388065" lon="10.087918761249114"><ele>1006.0</ele><time>2026-03-28T13:45:45Z</time></trkpt><trkpt lat="46.27829681373324" lon="10.088024390581667"><ele>1006.0</ele><time>2026-03-28T13:45:46Z</time></trkpt><trkpt lat="46.27814305830188" lon="10.08810235627655"><ele>1006.0</ele><time>2026-03-28T13:45:47Z</time></trkpt><trkpt lat="46.27797804169125" lon="10.088189759483816"><ele>1008.0</ele><time>2026-03-28T13:45:48Z</time></trkpt><trkpt lat="46.277812722426106" lon="10.088340049805062"><ele>1010.0</ele><time>2026-03-28T13:45:49Z</time></trkpt><trkpt lat="46.27763328503145" lon="10.088570638833971"><ele>1012.0</ele><time>2026-03-28T13:45:50Z</time></trkpt><trkpt lat="46.27745167185217" lon="10.088825045558124"><ele>1012.0</ele><time>2026-03-28T13:45:51Z</time></trkpt><trkpt lat="46.27727002979851" lon="10.089022388878343"><ele>1012.0</ele><time>2026-03-28T13:45:52Z</time></trkpt><trkpt lat="46.277076399225585" lon="10.089179140668815"><ele>1012.0</ele><time>2026-03-28T13:45:53Z</time></trkpt><trkpt lat="46.27687132894368" lon="10.089325742750534"><ele>1016.3333333333333</ele><time>2026-03-28T13:45:53.999Z</time></trkpt><trkpt lat="46.276681559209756" lon="10.08946830454082"><ele>1020.6666666666667</ele><time>2026-03-28T13:45:54.999Z</time></trkpt><trkpt lat="46.27650960043648" lon="10.089621878857864"><ele>1025.0</ele><time>2026-03-28T13:45:55.999Z</time></trkpt><trkpt lat="46.27636427580193" lon="10.089807274547734"><ele>1020.3333333333334</ele><time>2026-03-28T13:45:56.999Z</time></trkpt><trkpt lat="46.276244046690195" lon="10.090021214591285"><ele>1015.6666666666667</ele><time>2026-03-28T13:45:57.999Z</time></trkpt><trkpt lat="46.27616500851749" lon="10.090247086587565"><ele>1011.0</ele><time>2026-03-28T13:45:58.999Z</time></trkpt><trkpt lat="46.27613612347816" lon="10.090530513170581"><ele>997.5</ele><time>2026-03-28T13:45:59.999Z</time></trkpt><trkpt lat="46.276104746285164" lon="10.090883977568415"><ele>984.0</ele><time>2026-03-28T13:46:00.999Z</time></trkpt><trkpt lat="46.27606558816676" lon="10.091253498187406"><ele>984.0</ele><time>2026-03-28T13:46:01.999Z</time></trkpt><trkpt lat="46.276017957161216" lon="10.091567241000636"><ele>984.0</ele><time>2026-03-28T13:46:02.999Z</time></trkpt><trkpt lat="46.275946881243286" lon="10.091834147378476"><ele>984.0</ele><time>2026-03-28T13:46:03.999Z</time></trkpt><trkpt lat="46.27584955302217" lon="10.09206023089511"><ele>981.0</ele><time>2026-03-28T13:46:04.999Z</time></trkpt><trkpt lat="46.27571903081188" lon="10.092251309775074"><ele>978.0</ele><time>2026-03-28T13:46:05.999Z</time></trkpt><trkpt lat="46.27556077067106" lon="10.092410645151736"><ele>975.0</ele><time>2026-03-28T13:46:06.999Z</time></trkpt><trkpt lat="46.275381568086864" lon="10.092515263939811"><ele>974.6666666666667</ele><time>2026-03-28T13:46:07.999Z</time></trkpt><trkpt lat="46.27520231947902" lon="10.092585423590942"><ele>974.3333333333334</ele><time>2026-03-28T13:46:08.999Z</time></trkpt><trkpt lat="46.27503915619717" lon="10.092649391825121"><ele>974.0</ele><time>2026-03-28T13:46:09.999Z</time></trkpt><trkpt lat="46.274894021416195" lon="10.09274256315305"><ele>987.3333333333334</ele><time>2026-03-28T13:46:10.999Z</time></trkpt><trkpt lat="46.27476961400753" lon="10.092876386364704"><ele>1000.6666666666667</ele><time>2026-03-28T13:46:11.999Z</time></trkpt><trkpt lat="46.274659413855225" lon="10.093055147195615"><ele>1014.0</ele><time>2026-03-28T13:46:12.999Z</time></trkpt><trkpt lat="46.27457107129614" lon="10.093273469063"><ele>1014.0</ele><time>2026-03-28T13:46:13.999Z</time></trkpt><trkpt lat="46.27450451328394" lon="10.093526224353017"><ele>1014.0</ele><time>2026-03-28T13:46:14.999Z</time></trkpt><trkpt lat="46.274429595514206" lon="10.09380639692493"><ele>1014.0</ele><time>2026-03-28T13:46:15.999Z</time></trkpt><trkpt lat="46.274314940093305" lon="10.094122611187492"><ele>1005.0</ele><time>2026-03-28T13:46:16.999Z</time></trkpt><trkpt lat="46.27419494424718" lon="10.09448115686497"><ele>996.0</ele><time>2026-03-28T13:46:17.999Z</time></trkpt><trkpt lat="46.274071370631496" lon="10.094862990735505"><ele>986.0</ele><time>2026-03-28T13:46:18.999Z</time></trkpt><trkpt lat="46.273954539366784" lon="10.095217003381508"><ele>976.0</ele><time>2026-03-28T13:46:19.999Z</time></trkpt><trkpt lat="46.273844635685165" lon="10.095537053459918"><ele>986.3333333333333</ele><time>2026-03-28T13:46:20.999Z</time></trkpt><trkpt lat="46.27374634196335" lon="10.095835222511344"><ele>996.6666666666667</ele><time>2026-03-28T13:46:21.999Z</time></trkpt><trkpt lat="46.27364647207912" lon="10.096114688700526"><ele>1007.0</ele><time>2026-03-28T13:46:22.999Z</time></trkpt><trkpt lat="46.27355455948713" lon="10.096355844447482"><ele>1007.0</ele><time>2026-03-28T13:46:23.999Z</time></trkpt><trkpt lat="46.273479901140455" lon="10.096542784351755"><ele>1007.0</ele><time>2026-03-28T13:46:24.999Z</time></trkpt><trkpt lat="46.273414870944066" lon="10.09668082286339"><ele>1007.0</ele><time>2026-03-28T13:46:25.999Z</time></trkpt><trkpt lat="46.273369078303126" lon="10.096796655703754"><ele>1007.0</ele><time>2026-03-28T13:46:26.999Z</time></trkpt><trkpt lat="46.27331981624703" lon="10.096895697643827"><ele>1007.0</ele><time>2026-03-28T13:46:27.999Z</time></trkpt><trkpt lat="46.27327264087197" lon="10.097000530987508"><ele>1003.8</ele><time>2026-03-28T13:46:28.999Z</time></trkpt><trkpt lat="46.27321783048862" lon="10.097102896437919"><ele>1000.6</ele><time>2026-03-28T13:46:29.999Z</time></trkpt><trkpt lat="46.27316686653248" lon="10.097204125344811"><ele>997.3999999999999</ele><time>2026-03-28T13:46:30.999Z</time></trkpt><trkpt lat="46.27308576247139" lon="10.097257547436344"><ele>994.1999999999999</ele><time>2026-03-28T13:46:31.999Z</time></trkpt><trkpt lat="46.27304097753598" lon="10.097342358244966"><ele>991.0</ele><time>2026-03-28T13:46:32.999Z</time></trkpt><trkpt lat="46.272975264553665" lon="10.097501787500288"><ele>990.9999999999999</ele><time>2026-03-28T13:46:34.999Z</time></trkpt><trkpt lat="46.272927031581204" lon="10.097578128625997"><ele>991.0</ele><time>2026-03-28T13:46:35.999Z</time></trkpt><trkpt lat="46.27288203928676" lon="10.097665213865149"><ele>991.0</ele><time>2026-03-28T13:46:36.999Z</time></trkpt><trkpt lat="46.27283396387438" lon="10.097753526607502"><ele>991.0</ele><time>2026-03-28T13:46:37.999Z</time></trkpt><trkpt lat="46.27278748278975" lon="10.097853701114651"><ele>990.9999999999999</ele><time>2026-03-28T13:46:38.999Z</time></trkpt><trkpt lat="46.27274613422413" lon="10.097945246465834"><ele>991.0</ele><time>2026-03-28T13:46:39.999Z</time></trkpt><trkpt lat="46.27272846161553" lon="10.098066323252738"><ele>991.0</ele><time>2026-03-28T13:46:40.999Z</time></trkpt><trkpt lat="46.272695970357795" lon="10.098186999681536"><ele>990.9999999999999</ele><time>2026-03-28T13:46:41.999Z</time></trkpt><trkpt lat="46.2726740916014" lon="10.098312581647964"><ele>990.9999999999999</ele><time>2026-03-28T13:46:42.999Z</time></trkpt><trkpt lat="46.27265850703118" lon="10.09845163049743"><ele>991.0</ele><time>2026-03-28T13:46:43.999Z</time></trkpt><trkpt lat="46.27265844275679" lon="10.098595713531026"><ele>991.0</ele><time>2026-03-28T13:46:44.999Z</time></trkpt><trkpt lat="46.27266324855844" lon="10.09874243824481"><ele>987.25</ele><time>2026-03-28T13:46:45.999Z</time></trkpt><trkpt lat="46.272673215910686" lon="10.098908235498515"><ele>983.5</ele><time>2026-03-28T13:46:46.999Z</time></trkpt><trkpt lat="46.27269204598268" lon="10.099071074153953"><ele>979.75</ele><time>2026-03-28T13:46:47.999Z</time></trkpt><trkpt lat="46.27271618697564" lon="10.099238468986085"><ele>976.0</ele><time>2026-03-28T13:46:48.999Z</time></trkpt><trkpt lat="46.272746543915986" lon="10.099440920331187"><ele>975.3333333333333</ele><time>2026-03-28T13:46:49.999Z</time></trkpt><trkpt lat="46.272780017645864" lon="10.099687795009032"><ele>974.6666666666667</ele><time>2026-03-28T13:46:50.999Z</time></trkpt><trkpt lat="46.27281435025888" lon="10.099967138716304"><ele>974.0</ele><time>2026-03-28T13:46:51.999Z</time></trkpt><trkpt lat="46.27284870602815" lon="10.100225809531242"><ele>976.0</ele><time>2026-03-28T13:46:52.999Z</time></trkpt><trkpt lat="46.27286525565994" lon="10.100461815195189"><ele>978.0</ele><time>2026-03-28T13:46:53.999Z</time></trkpt><trkpt lat="46.272875757745304" lon="10.100702605310195"><ele>980.0</ele><time>2026-03-28T13:46:54.999Z</time></trkpt><trkpt lat="46.27288424587786" lon="10.100951227119296"><ele>980.75</ele><time>2026-03-28T13:46:55.999Z</time></trkpt><trkpt lat="46.27288445011895" lon="10.101183686539024"><ele>981.5</ele><time>2026-03-28T13:46:56.999Z</time></trkpt><trkpt lat="46.272876816822034" lon="10.101399003276791"><ele>982.25</ele><time>2026-03-28T13:46:57.999Z</time></trkpt><trkpt lat="46.272861054053436" lon="10.101588099813437"><ele>983.0</ele><time>2026-03-28T13:46:58.999Z</time></trkpt><trkpt lat="46.27284452208218" lon="10.101771214246567"><ele>983.5</ele><time>2026-03-28T13:46:59.999Z</time></trkpt><trkpt lat="46.27280471684625" lon="10.1019360887409"><ele>984.0</ele><time>2026-03-28T13:47:00.999Z</time></trkpt><trkpt lat="46.272773472644666" lon="10.102104497902737"><ele>984.5</ele><time>2026-03-28T13:47:01.999Z</time></trkpt><trkpt lat="46.27273708310321" lon="10.102268135125037"><ele>985.0</ele><time>2026-03-28T13:47:02.999Z</time></trkpt><trkpt lat="46.27270536523033" lon="10.102433932015316"><ele>983.0</ele><time>2026-03-28T13:47:03.999Z</time></trkpt><trkpt lat="46.272653006217205" lon="10.10259307892578"><ele>981.0</ele><time>2026-03-28T13:47:04.999Z</time></trkpt><trkpt lat="46.272573668792084" lon="10.102747642533403"><ele>979.0</ele><time>2026-03-28T13:47:05.999Z</time></trkpt><trkpt lat="46.27248997930292" lon="10.102932747454496"><ele>977.0</ele><time>2026-03-28T13:47:06.999Z</time></trkpt><trkpt lat="46.27239951646835" lon="10.103100877078804"><ele>977.0</ele><time>2026-03-28T13:47:07.999Z</time></trkpt><trkpt lat="46.272311011077626" lon="10.10324561144126"><ele>977.0</ele><time>2026-03-28T13:47:08.999Z</time></trkpt><trkpt lat="46.272199512608296" lon="10.103402255853078"><ele>977.0</ele><time>2026-03-28T13:47:09.999Z</time></trkpt><trkpt lat="46.27205280916744" lon="10.103575095576174"><ele>981.3333333333334</ele><time>2026-03-28T13:47:10.999Z</time></trkpt><trkpt lat="46.271901648343004" lon="10.103736263120224"><ele>985.6666666666667</ele><time>2026-03-28T13:47:11.999Z</time></trkpt><trkpt lat="46.27176567327872" lon="10.103882730274352"><ele>990.0</ele><time>2026-03-28T13:47:12.999Z</time></trkpt><trkpt lat="46.27164330437663" lon="10.10402780473663"><ele>984.6666666666667</ele><time>2026-03-28T13:47:13.999Z</time></trkpt><trkpt lat="46.2715510856667" lon="10.104194706205861"><ele>979.3333333333334</ele><time>2026-03-28T13:47:15Z</time></trkpt><trkpt lat="46.27146362004701" lon="10.104377622122167"><ele>974.0</ele><time>2026-03-28T13:47:16Z</time></trkpt><trkpt lat="46.27139585560818" lon="10.104588895648591"><ele>978.75</ele><time>2026-03-28T13:47:17Z</time></trkpt><trkpt lat="46.27136220744759" lon="10.104800101108356"><ele>983.5</ele><time>2026-03-28T13:47:18Z</time></trkpt><trkpt lat="46.271344644139795" lon="10.105005326707147"><ele>988.25</ele><time>2026-03-28T13:47:19Z</time></trkpt><trkpt lat="46.27134529466031" lon="10.105204714768712"><ele>993.0</ele><time>2026-03-28T13:47:20Z</time></trkpt><trkpt lat="46.27134907134328" lon="10.10541027304749"><ele>993.0</ele><time>2026-03-28T13:47:21Z</time></trkpt><trkpt lat="46.27135285411908" lon="10.105620542033533"><ele>993.0</ele><time>2026-03-28T13:47:22Z</time></trkpt><trkpt lat="46.27135526448596" lon="10.105840700742794"><ele>993.0</ele><time>2026-03-28T13:47:23Z</time></trkpt><trkpt lat="46.27134038641842" lon="10.106060826918455"><ele>988.3333333333333</ele><time>2026-03-28T13:47:24Z</time></trkpt><trkpt lat="46.27134189253221" lon="10.106284176940772"><ele>983.6666666666666</ele><time>2026-03-28T13:47:25Z</time></trkpt><trkpt lat="46.27134255931958" lon="10.106514871511505"><ele>979.0</ele><time>2026-03-28T13:47:26Z</time></trkpt><trkpt lat="46.27134172743258" lon="10.10675150044773"><ele>975.3333333333333</ele><time>2026-03-28T13:47:27Z</time></trkpt><trkpt lat="46.27133592639944" lon="10.10698787959562"><ele>971.6666666666667</ele><time>2026-03-28T13:47:28Z</time></trkpt><trkpt lat="46.271320643445904" lon="10.107227717182273"><ele>968.0</ele><time>2026-03-28T13:47:29Z</time></trkpt><trkpt lat="46.271292073444194" lon="10.107465277213748"><ele>962.6666666666667</ele><time>2026-03-28T13:47:30Z</time></trkpt><trkpt lat="46.271248958355436" lon="10.107708738115841"><ele>957.3333333333333</ele><time>2026-03-28T13:47:31Z</time></trkpt><trkpt lat="46.27119242931984" lon="10.107961472608851"><ele>952.0</ele><time>2026-03-28T13:47:32Z</time></trkpt><trkpt lat="46.271138620901844" lon="10.108211776512679"><ele>946.3333333333333</ele><time>2026-03-28T13:47:33Z</time></trkpt><trkpt lat="46.27108957902735" lon="10.10845071460946"><ele>940.6666666666667</ele><time>2026-03-28T13:47:34Z</time></trkpt><trkpt lat="46.27103771035424" lon="10.108694351507166"><ele>935.0</ele><time>2026-03-28T13:47:35Z</time></trkpt><trkpt lat="46.270974762990434" lon="10.10893300731588"><ele>934.6666666666667</ele><time>2026-03-28T13:47:36Z</time></trkpt><trkpt lat="46.27087526992338" lon="10.10913533653037"><ele>934.3333333333333</ele><time>2026-03-28T13:47:37Z</time></trkpt><trkpt lat="46.27075268711809" lon="10.109323958290126"><ele>934.0</ele><time>2026-03-28T13:47:38Z</time></trkpt><trkpt lat="46.27062009724447" lon="10.109510979781088"><ele>932.6666666666666</ele><time>2026-03-28T13:47:39Z</time></trkpt><trkpt lat="46.27049300747555" lon="10.109712017083673"><ele>931.3333333333333</ele><time>2026-03-28T13:47:40Z</time></trkpt><trkpt lat="46.27036323526775" lon="10.10989453418606"><ele>930.0</ele><time>2026-03-28T13:47:41Z</time></trkpt><trkpt lat="46.27025329713248" lon="10.11009071268596"><ele>926.0</ele><time>2026-03-28T13:47:42Z</time></trkpt><trkpt lat="46.27015235104468" lon="10.11031571553496"><ele>922.0</ele><time>2026-03-28T13:47:43Z</time></trkpt><trkpt lat="46.270027192509794" lon="10.110532362383733"><ele>918.0</ele><time>2026-03-28T13:47:44Z</time></trkpt><trkpt lat="46.26989549868033" lon="10.110737215844333"><ele>913.0</ele><time>2026-03-28T13:47:45Z</time></trkpt><trkpt lat="46.26975407255929" lon="10.110961428410121"><ele>908.0</ele><time>2026-03-28T13:47:46Z</time></trkpt><trkpt lat="46.269611862961014" lon="10.111250464648068"><ele>905.5</ele><time>2026-03-28T13:47:47Z</time></trkpt><trkpt lat="46.26946120421894" lon="10.111589949664245"><ele>903.0</ele><time>2026-03-28T13:47:48Z</time></trkpt><trkpt lat="46.26930016908116" lon="10.11195991819142"><ele>903.0</ele><time>2026-03-28T13:47:49Z</time></trkpt><trkpt lat="46.26915242790692" lon="10.112294185043394"><ele>903.0</ele><time>2026-03-28T13:47:50Z</time></trkpt><trkpt lat="46.26900338611053" lon="10.112605709542871"><ele>896.0</ele><time>2026-03-28T13:47:51Z</time></trkpt><trkpt lat="46.26884431980802" lon="10.11288981092224"><ele>889.0</ele><time>2026-03-28T13:47:52Z</time></trkpt><trkpt lat="46.26867010329283" lon="10.113164588254666"><ele>889.0</ele><time>2026-03-28T13:47:53Z</time></trkpt><trkpt lat="46.26849307375252" lon="10.11343671894569"><ele>889.0</ele><time>2026-03-28T13:47:54Z</time></trkpt><trkpt lat="46.26830789971394" lon="10.11372369614036"><ele>889.0</ele><time>2026-03-28T13:47:55Z</time></trkpt><trkpt lat="46.268128632982716" lon="10.11400189996054"><ele>889.0</ele><time>2026-03-28T13:47:56Z</time></trkpt><trkpt lat="46.267955123440764" lon="10.114273710316324"><ele>883.5</ele><time>2026-03-28T13:47:57Z</time></trkpt><trkpt lat="46.26779101476061" lon="10.114530793853152"><ele>878.0</ele><time>2026-03-28T13:47:58Z</time></trkpt><trkpt lat="46.26763147679866" lon="10.114746555668084"><ele>885.0</ele><time>2026-03-28T13:47:59Z</time></trkpt><trkpt lat="46.26745890532983" lon="10.1149388989094"><ele>892.0</ele><time>2026-03-28T13:48:00Z</time></trkpt><trkpt lat="46.26725800682237" lon="10.11510739660123"><ele>877.5</ele><time>2026-03-28T13:48:01Z</time></trkpt><trkpt lat="46.267038589250326" lon="10.115267971906178"><ele>863.0</ele><time>2026-03-28T13:48:02Z</time></trkpt><trkpt lat="46.26683167323406" lon="10.115413985476463"><ele>863.0</ele><time>2026-03-28T13:48:03Z</time></trkpt><trkpt lat="46.266621914437344" lon="10.115573644141918"><ele>863.0</ele><time>2026-03-28T13:48:04Z</time></trkpt><trkpt lat="46.26639998111365" lon="10.11576633589595"><ele>860.5</ele><time>2026-03-28T13:48:05Z</time></trkpt><trkpt lat="46.26616454251298" lon="10.115975315821963"><ele>858.0</ele><time>2026-03-28T13:48:05.999Z</time></trkpt><trkpt lat="46.26594028052968" lon="10.11614087873393"><ele>858.0</ele><time>2026-03-28T13:48:06.999Z</time></trkpt><trkpt lat="46.26571070170553" lon="10.11627611344272"><ele>858.0</ele><time>2026-03-28T13:48:07.999Z</time></trkpt><trkpt lat="46.26547688534599" lon="10.116393331953958"><ele>856.5</ele><time>2026-03-28T13:48:08.999Z</time></trkpt><trkpt lat="46.26524869697177" lon="10.116497880405806"><ele>855.0</ele><time>2026-03-28T13:48:09.999Z</time></trkpt><trkpt lat="46.26502441010062" lon="10.116582464774206"><ele>855.0</ele><time>2026-03-28T13:48:10.999Z</time></trkpt><trkpt lat="46.264798356289646" lon="10.116651140205843"><ele>855.0</ele><time>2026-03-28T13:48:11.999Z</time></trkpt><trkpt lat="46.26457460288277" lon="10.11671083642324"><ele>846.0</ele><time>2026-03-28T13:48:12.999Z</time></trkpt><trkpt lat="46.26434815163099" lon="10.116771252629492"><ele>837.0</ele><time>2026-03-28T13:48:13.999Z</time></trkpt><trkpt lat="46.26412482766779" lon="10.116835853891338"><ele>831.0</ele><time>2026-03-28T13:48:14.999Z</time></trkpt><trkpt lat="46.26389886494718" lon="10.116911561987152"><ele>825.0</ele><time>2026-03-28T13:48:15.999Z</time></trkpt><trkpt lat="46.263693379689116" lon="10.117290033921304"><ele>828.0</ele><time>2026-03-28T13:48:16.999Z</time></trkpt><trkpt lat="46.26348219198747" lon="10.117477192757047"><ele>831.0</ele><time>2026-03-28T13:48:17.999Z</time></trkpt><trkpt lat="46.26328208762725" lon="10.117648147282729"><ele>824.6666666666667</ele><time>2026-03-28T13:48:18.999Z</time></trkpt><trkpt lat="46.26308888138623" lon="10.117814602831453"><ele>818.3333333333334</ele><time>2026-03-28T13:48:19.999Z</time></trkpt><trkpt lat="46.26290773163698" lon="10.117976475187351"><ele>812.0</ele><time>2026-03-28T13:48:20.999Z</time></trkpt><trkpt lat="46.262729697331665" lon="10.118140649343287"><ele>809.0</ele><time>2026-03-28T13:48:21.999Z</time></trkpt><trkpt lat="46.26255462877426" lon="10.118293205584418"><ele>806.0</ele><time>2026-03-28T13:48:22.999Z</time></trkpt><trkpt lat="46.262379850008216" lon="10.118444407558309"><ele>803.0</ele><time>2026-03-28T13:48:23.999Z</time></trkpt><trkpt lat="46.26220602072628" lon="10.118597209561425"><ele>803.0</ele><time>2026-03-28T13:48:24.999Z</time></trkpt><trkpt lat="46.26203243492437" lon="10.118748044984654"><ele>803.0</ele><time>2026-03-28T13:48:25.999Z</time></trkpt><trkpt lat="46.26187001495959" lon="10.118908247306024"><ele>803.0</ele><time>2026-03-28T13:48:26.999Z</time></trkpt><trkpt lat="46.26170858952416" lon="10.119090894833086"><ele>805.6666666666667</ele><time>2026-03-28T13:48:27.999Z</time></trkpt><trkpt lat="46.26155702262388" lon="10.11928996310819"><ele>808.3333333333333</ele><time>2026-03-28T13:48:28.999Z</time></trkpt><trkpt lat="46.26141216080842" lon="10.119501154655413"><ele>811.0</ele><time>2026-03-28T13:48:29.999Z</time></trkpt><trkpt lat="46.26127081161449" lon="10.119716832348228"><ele>808.6666666666666</ele><time>2026-03-28T13:48:30.999Z</time></trkpt><trkpt lat="46.26114270863723" lon="10.119932099796639"><ele>806.3333333333333</ele><time>2026-03-28T13:48:31.999Z</time></trkpt><trkpt lat="46.261018725481186" lon="10.120139233072019"><ele>804.0</ele><time>2026-03-28T13:48:32.999Z</time></trkpt><trkpt lat="46.260889086767165" lon="10.120341310358762"><ele>804.0</ele><time>2026-03-28T13:48:33.999Z</time></trkpt><trkpt lat="46.260769313173455" lon="10.120538515409665"><ele>804.0</ele><time>2026-03-28T13:48:34.999Z</time></trkpt><trkpt lat="46.26065064369817" lon="10.120733284556247"><ele>804.0</ele><time>2026-03-28T13:48:35.999Z</time></trkpt><trkpt lat="46.260532927576584" lon="10.120920563322708"><ele>795.6666666666667</ele><time>2026-03-28T13:48:36.999Z</time></trkpt><trkpt lat="46.260422737023" lon="10.12110760417989"><ele>787.3333333333334</ele><time>2026-03-28T13:48:37.999Z</time></trkpt><trkpt lat="46.260311482867394" lon="10.121296314976359"><ele>779.0</ele><time>2026-03-28T13:48:38.999Z</time></trkpt><trkpt lat="46.26020111881041" lon="10.121470840777185"><ele>781.3333333333334</ele><time>2026-03-28T13:48:39.999Z</time></trkpt><trkpt lat="46.26008744774585" lon="10.121649873068508"><ele>783.6666666666667</ele><time>2026-03-28T13:48:40.999Z</time></trkpt><trkpt lat="46.259974920262174" lon="10.121826109834736"><ele>786.0</ele><time>2026-03-28T13:48:41.999Z</time></trkpt><trkpt lat="46.25986512159172" lon="10.122009384094966"><ele>780.6666666666667</ele><time>2026-03-28T13:48:42.999Z</time></trkpt><trkpt lat="46.25976206132077" lon="10.122202201480409"><ele>775.3333333333334</ele><time>2026-03-28T13:48:43.999Z</time></trkpt><trkpt lat="46.259655050207094" lon="10.12241268901565"><ele>770.0</ele><time>2026-03-28T13:48:44.999Z</time></trkpt><trkpt lat="46.25955652160413" lon="10.122624653182742"><ele>770.0</ele><time>2026-03-28T13:48:45.999Z</time></trkpt><trkpt lat="46.2594502363598" lon="10.122819195663773"><ele>770.0</ele><time>2026-03-28T13:48:46.999Z</time></trkpt><trkpt lat="46.25936154240838" lon="10.12302250112008"><ele>770.0</ele><time>2026-03-28T13:48:47.999Z</time></trkpt><trkpt lat="46.259274436203505" lon="10.123217577789983"><ele>771.6666666666667</ele><time>2026-03-28T13:48:48.999Z</time></trkpt><trkpt lat="46.25918812291863" lon="10.123407423914873"><ele>773.3333333333333</ele><time>2026-03-28T13:48:49.999Z</time></trkpt><trkpt lat="46.2591096765298" lon="10.123607076274048"><ele>775.0</ele><time>2026-03-28T13:48:50.999Z</time></trkpt><trkpt lat="46.25902387532856" lon="10.123795133102254"><ele>775.0</ele><time>2026-03-28T13:48:51.999Z</time></trkpt><trkpt lat="46.25896552403371" lon="10.123992134032632"><ele>775.0</ele><time>2026-03-28T13:48:52.999Z</time></trkpt><trkpt lat="46.258928510148934" lon="10.124206257171005"><ele>775.0</ele><time>2026-03-28T13:48:53.999Z</time></trkpt><trkpt lat="46.2589184110343" lon="10.124429032794055"><ele>772.5</ele><time>2026-03-28T13:48:54.999Z</time></trkpt><trkpt lat="46.25891575531046" lon="10.124642250518358"><ele>770.0</ele><time>2026-03-28T13:48:55.999Z</time></trkpt><trkpt lat="46.25891276354768" lon="10.124841061983606"><ele>767.5</ele><time>2026-03-28T13:48:56.999Z</time></trkpt><trkpt lat="46.25889752049329" lon="10.12501508821758"><ele>765.0</ele><time>2026-03-28T13:48:57.999Z</time></trkpt><trkpt lat="46.25885906938594" lon="10.125147341918385"><ele>765.0</ele><time>2026-03-28T13:48:58.999Z</time></trkpt><trkpt lat="46.258779760486775" lon="10.125276145478539"><ele>765.0</ele><time>2026-03-28T13:48:59.999Z</time></trkpt><trkpt lat="46.258660257552776" lon="10.125392833442639"><ele>765.0</ele><time>2026-03-28T13:49:00.999Z</time></trkpt><trkpt lat="46.25853419399311" lon="10.125531687323324"><ele>765.0</ele><time>2026-03-28T13:49:01.999Z</time></trkpt><trkpt lat="46.258387810497005" lon="10.125663024155548"><ele>765.25</ele><time>2026-03-28T13:49:02.999Z</time></trkpt><trkpt lat="46.258289168063286" lon="10.125839348056662"><ele>765.5</ele><time>2026-03-28T13:49:03.999Z</time></trkpt><trkpt lat="46.25820002075032" lon="10.126007139884242"><ele>765.75</ele><time>2026-03-28T13:49:04.999Z</time></trkpt><trkpt lat="46.25813063661578" lon="10.126169145757927"><ele>766.0</ele><time>2026-03-28T13:49:05.999Z</time></trkpt><trkpt lat="46.2580858850245" lon="10.126411235214775"><ele>762.3333333333334</ele><time>2026-03-28T13:49:06.999Z</time></trkpt><trkpt lat="46.25803238692375" lon="10.126631863403567"><ele>758.6666666666666</ele><time>2026-03-28T13:49:07.999Z</time></trkpt><trkpt lat="46.257985412627015" lon="10.12684108186833"><ele>755.0</ele><time>2026-03-28T13:49:08.999Z</time></trkpt><trkpt lat="46.2579421583546" lon="10.127033870118682"><ele>755.0</ele><time>2026-03-28T13:49:09.999Z</time></trkpt><trkpt lat="46.25790998291439" lon="10.127246242075373"><ele>755.0</ele><time>2026-03-28T13:49:10.999Z</time></trkpt><trkpt lat="46.2578771605053" lon="10.127448740119105"><ele>755.0</ele><time>2026-03-28T13:49:11.999Z</time></trkpt><trkpt lat="46.25782723459714" lon="10.12764872220329"><ele>755.0</ele><time>2026-03-28T13:49:12.999Z</time></trkpt><trkpt lat="46.25775153112631" lon="10.127807876343907"><ele>754.75</ele><time>2026-03-28T13:49:13.999Z</time></trkpt><trkpt lat="46.25762833128298" lon="10.127903506493901"><ele>754.5</ele><time>2026-03-28T13:49:14.999Z</time></trkpt><trkpt lat="46.25748901776274" lon="10.127941639791928"><ele>754.25</ele><time>2026-03-28T13:49:15.999Z</time></trkpt><trkpt lat="46.257361005087404" lon="10.127915999714554"><ele>754.0</ele><time>2026-03-28T13:49:16.999Z</time></trkpt><trkpt lat="46.25725265021348" lon="10.127823765394696"><ele>749.6666666666667</ele><time>2026-03-28T13:49:17.999Z</time></trkpt><trkpt lat="46.257129523765116" lon="10.127701815051589"><ele>745.3333333333334</ele><time>2026-03-28T13:49:18.999Z</time></trkpt><trkpt lat="46.2569790201422" lon="10.127662867112083"><ele>741.0</ele><time>2026-03-28T13:49:19.999Z</time></trkpt><trkpt lat="46.256786219478606" lon="10.127694382730459"><ele>741.0</ele><time>2026-03-28T13:49:21Z</time></trkpt><trkpt lat="46.25658352716325" lon="10.12774245563408"><ele>741.0</ele><time>2026-03-28T13:49:22Z</time></trkpt><trkpt lat="46.25639575420128" lon="10.127771013812879"><ele>741.0</ele><time>2026-03-28T13:49:23Z</time></trkpt><trkpt lat="46.256219214470555" lon="10.127773869752632"><ele>737.6666666666666</ele><time>2026-03-28T13:49:24Z</time></trkpt><trkpt lat="46.256037901340335" lon="10.127748091190217"><ele>734.3333333333333</ele><time>2026-03-28T13:49:25Z</time></trkpt><trkpt lat="46.2558484347345" lon="10.127691240920127"><ele>731.0</ele><time>2026-03-28T13:49:26Z</time></trkpt><trkpt lat="46.25565589728175" lon="10.127627779401692"><ele>728.3333333333333</ele><time>2026-03-28T13:49:27Z</time></trkpt><trkpt lat="46.255468600136105" lon="10.1275666628022"><ele>725.6666666666666</ele><time>2026-03-28T13:49:28Z</time></trkpt><trkpt lat="46.255301752680595" lon="10.127519341965053"><ele>723.0</ele><time>2026-03-28T13:49:29Z</time></trkpt><trkpt lat="46.25515587048972" lon="10.127472683161248"><ele>723.0</ele><time>2026-03-28T13:49:30Z</time></trkpt><trkpt lat="46.255026403189504" lon="10.127409092629284"><ele>723.0</ele><time>2026-03-28T13:49:31Z</time></trkpt><trkpt lat="46.254917993305085" lon="10.127312225941619"><ele>723.0</ele><time>2026-03-28T13:49:32Z</time></trkpt><trkpt lat="46.254848621831016" lon="10.12714444073084"><ele>723.0</ele><time>2026-03-28T13:49:33Z</time></trkpt><trkpt lat="46.25475279508201" lon="10.126978676584669"><ele>720.25</ele><time>2026-03-28T13:49:34Z</time></trkpt><trkpt lat="46.25468355266153" lon="10.126796235569968"><ele>717.5</ele><time>2026-03-28T13:49:35Z</time></trkpt><trkpt lat="46.25459737408094" lon="10.12662438725984"><ele>714.75</ele><time>2026-03-28T13:49:36Z</time></trkpt><trkpt lat="46.254496103138464" lon="10.126491329069397"><ele>712.0</ele><time>2026-03-28T13:49:37Z</time></trkpt><trkpt lat="46.25436231805663" lon="10.126418615003844"><ele>710.0</ele><time>2026-03-28T13:49:38Z</time></trkpt><trkpt lat="46.254209457814184" lon="10.126407918958142"><ele>708.0</ele><time>2026-03-28T13:49:39Z</time></trkpt><trkpt lat="46.25405772598603" lon="10.126435281805533"><ele>706.0</ele><time>2026-03-28T13:49:40Z</time></trkpt><trkpt lat="46.25390771297033" lon="10.126472954872693"><ele>705.0</ele><time>2026-03-28T13:49:41Z</time></trkpt><trkpt lat="46.25375810222519" lon="10.126535159848324"><ele>704.0</ele><time>2026-03-28T13:49:42Z</time></trkpt><trkpt lat="46.253607733607" lon="10.12663545375825"><ele>703.0</ele><time>2026-03-28T13:49:43Z</time></trkpt><trkpt lat="46.25345537263781" lon="10.126778114097354"><ele>703.0</ele><time>2026-03-28T13:49:44Z</time></trkpt><trkpt lat="46.25329581449697" lon="10.126897272964886"><ele>703.0</ele><time>2026-03-28T13:49:45Z</time></trkpt><trkpt lat="46.25313036968699" lon="10.127028173944822"><ele>703.0</ele><time>2026-03-28T13:49:46Z</time></trkpt><trkpt lat="46.25295339106365" lon="10.127168461595879"><ele>701.0</ele><time>2026-03-28T13:49:47Z</time></trkpt><trkpt lat="46.25277559681987" lon="10.12730946015567"><ele>699.0</ele><time>2026-03-28T13:49:48Z</time></trkpt><trkpt lat="46.25259972448503" lon="10.127449048854551"><ele>697.0</ele><time>2026-03-28T13:49:49Z</time></trkpt><trkpt lat="46.25243359060743" lon="10.127599794006468"><ele>693.3333333333334</ele><time>2026-03-28T13:49:50Z</time></trkpt><trkpt lat="46.25226451549778" lon="10.127736074853006"><ele>689.6666666666666</ele><time>2026-03-28T13:49:51Z</time></trkpt><trkpt lat="46.25208789039712" lon="10.127871132686222"><ele>686.0</ele><time>2026-03-28T13:49:52Z</time></trkpt><trkpt lat="46.25191141481353" lon="10.127964992734293"><ele>686.0</ele><time>2026-03-28T13:49:53Z</time></trkpt><trkpt lat="46.25171852232518" lon="10.128013971682646"><ele>686.0</ele><time>2026-03-28T13:49:54Z</time></trkpt><trkpt lat="46.251511628439076" lon="10.128000738883285"><ele>686.0</ele><time>2026-03-28T13:49:55Z</time></trkpt><trkpt lat="46.251307406506356" lon="10.128030868203167"><ele>682.6666666666666</ele><time>2026-03-28T13:49:56Z</time></trkpt><trkpt lat="46.251106418940346" lon="10.128041037647604"><ele>679.3333333333334</ele><time>2026-03-28T13:49:57Z</time></trkpt><trkpt lat="46.25091204454482" lon="10.12805424720604"><ele>676.0</ele><time>2026-03-28T13:49:58Z</time></trkpt><trkpt lat="46.250726453811254" lon="10.128083610641681"><ele>676.0</ele><time>2026-03-28T13:49:59Z</time></trkpt><trkpt lat="46.25055317438633" lon="10.128139702852442"><ele>676.0</ele><time>2026-03-28T13:50:00Z</time></trkpt><trkpt lat="46.250387751155614" lon="10.1282314773809"><ele>676.0</ele><time>2026-03-28T13:50:01Z</time></trkpt><trkpt lat="46.250233042009434" lon="10.12835883246136"><ele>676.0</ele><time>2026-03-28T13:50:02Z</time></trkpt><trkpt lat="46.25008035771857" lon="10.128519815162951"><ele>676.0</ele><time>2026-03-28T13:50:03Z</time></trkpt><trkpt lat="46.249911220167675" lon="10.128690563057084"><ele>676.0</ele><time>2026-03-28T13:50:04Z</time></trkpt><trkpt lat="46.24975373601134" lon="10.128849152585657"><ele>672.3333333333334</ele><time>2026-03-28T13:50:05Z</time></trkpt><trkpt lat="46.24959730032613" lon="10.12900914140961"><ele>668.6666666666666</ele><time>2026-03-28T13:50:06Z</time></trkpt><trkpt lat="46.24943733868548" lon="10.129175063735046"><ele>665.0</ele><time>2026-03-28T13:50:07Z</time></trkpt><trkpt lat="46.24927461594792" lon="10.129332793596383"><ele>665.0</ele><time>2026-03-28T13:50:08Z</time></trkpt><trkpt lat="46.2491127841919" lon="10.129485684351359"><ele>665.0</ele><time>2026-03-28T13:50:09Z</time></trkpt><trkpt lat="46.248947171321234" lon="10.129630356980696"><ele>665.0</ele><time>2026-03-28T13:50:10Z</time></trkpt><trkpt lat="46.24877011338739" lon="10.129751378313555"><ele>663.6666666666666</ele><time>2026-03-28T13:50:11Z</time></trkpt><trkpt lat="46.24857537278194" lon="10.129831521473152"><ele>662.3333333333334</ele><time>2026-03-28T13:50:12Z</time></trkpt><trkpt lat="46.248378234153144" lon="10.129891482972523"><ele>661.0</ele><time>2026-03-28T13:50:13Z</time></trkpt><trkpt lat="46.24819131707766" lon="10.129952155161554"><ele>657.6666666666667</ele><time>2026-03-28T13:50:14Z</time></trkpt><trkpt lat="46.24801333088869" lon="10.130022257493579"><ele>654.3333333333334</ele><time>2026-03-28T13:50:15Z</time></trkpt><trkpt lat="46.24783385532493" lon="10.130063718841882"><ele>651.0</ele><time>2026-03-28T13:50:16Z</time></trkpt><trkpt lat="46.247661403730675" lon="10.130089681304854"><ele>651.0</ele><time>2026-03-28T13:50:17Z</time></trkpt><trkpt lat="46.24748257527762" lon="10.130093266309403"><ele>651.0</ele><time>2026-03-28T13:50:18Z</time></trkpt><trkpt lat="46.247303646868886" lon="10.130105613894727"><ele>651.0</ele><time>2026-03-28T13:50:19Z</time></trkpt><trkpt lat="46.24712555648903" lon="10.130134218629998"><ele>648.3333333333334</ele><time>2026-03-28T13:50:20Z</time></trkpt><trkpt lat="46.246942903561255" lon="10.130139086890555"><ele>645.6666666666667</ele><time>2026-03-28T13:50:21Z</time></trkpt><trkpt lat="46.24674365948164" lon="10.130167879910397"><ele>643.0</ele><time>2026-03-28T13:50:21.999Z</time></trkpt><trkpt lat="46.2465756304908" lon="10.130189641941712"><ele>640.6666666666667</ele><time>2026-03-28T13:50:22.999Z</time></trkpt><trkpt lat="46.24640762446539" lon="10.130244481090411"><ele>638.3333333333334</ele><time>2026-03-28T13:50:23.999Z</time></trkpt><trkpt lat="46.24625179456812" lon="10.130346714821018"><ele>636.0</ele><time>2026-03-28T13:50:24.999Z</time></trkpt><trkpt lat="46.24607842059008" lon="10.130441732500962"><ele>636.0</ele><time>2026-03-28T13:50:25.999Z</time></trkpt><trkpt lat="46.24590916730894" lon="10.13054038282127"><ele>636.0</ele><time>2026-03-28T13:50:26.999Z</time></trkpt><trkpt lat="46.24574388325529" lon="10.130637388225733"><ele>636.0</ele><time>2026-03-28T13:50:27.999Z</time></trkpt><trkpt lat="46.24557981595892" lon="10.130716168434928"><ele>634.6666666666666</ele><time>2026-03-28T13:50:28.999Z</time></trkpt><trkpt lat="46.245403509844124" lon="10.130788166735748"><ele>633.3333333333333</ele><time>2026-03-28T13:50:29.999Z</time></trkpt><trkpt lat="46.24522265618137" lon="10.130911942504808"><ele>632.0</ele><time>2026-03-28T13:50:30.999Z</time></trkpt><trkpt lat="46.24502176736517" lon="10.130980063162934"><ele>632.0</ele><time>2026-03-28T13:50:31.999Z</time></trkpt><trkpt lat="46.24481523992682" lon="10.13106055355718"><ele>632.0</ele><time>2026-03-28T13:50:32.999Z</time></trkpt><trkpt lat="46.24461192470563" lon="10.131143189682016"><ele>632.0</ele><time>2026-03-28T13:50:33.999Z</time></trkpt><trkpt lat="46.244411226880565" lon="10.131196396201393"><ele>628.6666666666666</ele><time>2026-03-28T13:50:34.999Z</time></trkpt><trkpt lat="46.24422552692419" lon="10.131270291535305"><ele>625.3333333333334</ele><time>2026-03-28T13:50:35.999Z</time></trkpt><trkpt lat="46.24404397070778" lon="10.131368057048016"><ele>622.0</ele><time>2026-03-28T13:50:36.999Z</time></trkpt><trkpt lat="46.24386370586359" lon="10.131443458266359"><ele>621.0</ele><time>2026-03-28T13:50:37.999Z</time></trkpt><trkpt lat="46.24368516845792" lon="10.13151617764523"><ele>620.0</ele><time>2026-03-28T13:50:38.999Z</time></trkpt><trkpt lat="46.243512156265304" lon="10.131589160225095"><ele>619.0</ele><time>2026-03-28T13:50:39.999Z</time></trkpt><trkpt lat="46.24334101700165" lon="10.131656849141871"><ele>619.0</ele><time>2026-03-28T13:50:40.999Z</time></trkpt><trkpt lat="46.24316339476563" lon="10.131727166679447"><ele>619.0</ele><time>2026-03-28T13:50:41.999Z</time></trkpt><trkpt lat="46.24299198402368" lon="10.131804547095362"><ele>619.0</ele><time>2026-03-28T13:50:42.999Z</time></trkpt><trkpt lat="46.24282962111849" lon="10.131914207933535"><ele>617.0</ele><time>2026-03-28T13:50:43.999Z</time></trkpt><trkpt lat="46.24268454919885" lon="10.132077906836104"><ele>615.0</ele><time>2026-03-28T13:50:44.999Z</time></trkpt><trkpt lat="46.24254259973256" lon="10.132249939051512"><ele>613.0</ele><time>2026-03-28T13:50:45.999Z</time></trkpt><trkpt lat="46.242422811195844" lon="10.132437075524376"><ele>608.6666666666667</ele><time>2026-03-28T13:50:46.999Z</time></trkpt><trkpt lat="46.24229517968548" lon="10.132630776504481"><ele>604.3333333333334</ele><time>2026-03-28T13:50:47.999Z</time></trkpt><trkpt lat="46.24217428399053" lon="10.132825862845818"><ele>600.0</ele><time>2026-03-28T13:50:48.999Z</time></trkpt><trkpt lat="46.242055411755864" lon="10.133010570121272"><ele>600.0</ele><time>2026-03-28T13:50:49.999Z</time></trkpt><trkpt lat="46.241944855118895" lon="10.133198924534584"><ele>600.0</ele><time>2026-03-28T13:50:50.999Z</time></trkpt><trkpt lat="46.24182520815744" lon="10.133362442289803"><ele>600.0</ele><time>2026-03-28T13:50:51.999Z</time></trkpt><trkpt lat="46.24170010569199" lon="10.133514593753542"><ele>601.0</ele><time>2026-03-28T13:50:52.999Z</time></trkpt><trkpt lat="46.24157289286788" lon="10.133649992421851"><ele>602.0</ele><time>2026-03-28T13:50:53.999Z</time></trkpt><trkpt lat="46.24144381350884" lon="10.133778961649478"><ele>603.0</ele><time>2026-03-28T13:50:54.999Z</time></trkpt><trkpt lat="46.24131275833837" lon="10.133906205302205"><ele>600.0</ele><time>2026-03-28T13:50:55.999Z</time></trkpt><trkpt lat="46.24114411016682" lon="10.134002483742059"><ele>597.0</ele><time>2026-03-28T13:50:56.999Z</time></trkpt><trkpt lat="46.24098657215686" lon="10.1341457884381"><ele>594.0</ele><time>2026-03-28T13:50:57.999Z</time></trkpt><trkpt lat="46.24082002538205" lon="10.134290498590822"><ele>593.6666666666666</ele><time>2026-03-28T13:50:58.999Z</time></trkpt><trkpt lat="46.2406459473961" lon="10.13444175253364"><ele>593.3333333333333</ele><time>2026-03-28T13:50:59.999Z</time></trkpt><trkpt lat="46.24046857997329" lon="10.13459844693762"><ele>593.0</ele><time>2026-03-28T13:51:00.999Z</time></trkpt><trkpt lat="46.24030684357218" lon="10.134759469041713"><ele>591.0</ele><time>2026-03-28T13:51:01.999Z</time></trkpt><trkpt lat="46.240133644500844" lon="10.134885200792198"><ele>589.0</ele><time>2026-03-28T13:51:02.999Z</time></trkpt><trkpt lat="46.23997107366191" lon="10.135026619283638"><ele>587.0</ele><time>2026-03-28T13:51:03.999Z</time></trkpt><trkpt lat="46.23980885684735" lon="10.135165844384295"><ele>584.3333333333333</ele><time>2026-03-28T13:51:04.999Z</time></trkpt><trkpt lat="46.23964702951763" lon="10.135304568219057"><ele>581.6666666666666</ele><time>2026-03-28T13:51:05.999Z</time></trkpt><trkpt lat="46.23948811169774" lon="10.135440797923643"><ele>579.0</ele><time>2026-03-28T13:51:06.999Z</time></trkpt><trkpt lat="46.239334375351525" lon="10.135572585890033"><ele>579.0</ele><time>2026-03-28T13:51:07.999Z</time></trkpt><trkpt lat="46.23920172101692" lon="10.135706083565253"><ele>579.0</ele><time>2026-03-28T13:51:08.999Z</time></trkpt><trkpt lat="46.23908930307687" lon="10.13578302852928"><ele>579.0</ele><time>2026-03-28T13:51:09.999Z</time></trkpt><trkpt lat="46.23900061162633" lon="10.1358638361905"><ele>579.0</ele><time>2026-03-28T13:51:10.999Z</time></trkpt><trkpt lat="46.2389266411521" lon="10.135938932223468"><ele>577.8333333333334</ele><time>2026-03-28T13:51:11.999Z</time></trkpt><trkpt lat="46.23886217255262" lon="10.136038841525815"><ele>576.6666666666666</ele><time>2026-03-28T13:51:12.999Z</time></trkpt><trkpt lat="46.238792688379675" lon="10.136113835244302"><ele>575.5</ele><time>2026-03-28T13:51:13.999Z</time></trkpt><trkpt lat="46.23872962989604" lon="10.136196016802904"><ele>574.3333333333333</ele><time>2026-03-28T13:51:14.999Z</time></trkpt><trkpt lat="46.23867068730709" lon="10.136279234626748"><ele>573.1666666666666</ele><time>2026-03-28T13:51:15.999Z</time></trkpt><trkpt lat="46.238603035208726" lon="10.136340884262282"><ele>572.0</ele><time>2026-03-28T13:51:16.999Z</time></trkpt><trkpt lat="46.2385462296244" lon="10.13641641318458"><ele>572.0</ele><time>2026-03-28T13:51:17.999Z</time></trkpt><trkpt lat="46.238484828726314" lon="10.136497617341591"><ele>572.0</ele><time>2026-03-28T13:51:18.999Z</time></trkpt><trkpt lat="46.23842028035888" lon="10.13662087640252"><ele>572.0</ele><time>2026-03-28T13:51:19.999Z</time></trkpt><trkpt lat="46.23831730815201" lon="10.136741051791661"><ele>572.0</ele><time>2026-03-28T13:51:20.999Z</time></trkpt><trkpt lat="46.23818766796008" lon="10.13686298403747"><ele>571.6666666666666</ele><time>2026-03-28T13:51:21.999Z</time></trkpt><trkpt lat="46.23803665716481" lon="10.13699428228989"><ele>571.3333333333334</ele><time>2026-03-28T13:51:22.999Z</time></trkpt><trkpt lat="46.237890351122665" lon="10.137121357091274"><ele>571.0</ele><time>2026-03-28T13:51:23.999Z</time></trkpt><trkpt lat="46.23777520006862" lon="10.137281675246571"><ele>569.3333333333334</ele><time>2026-03-28T13:51:24.999Z</time></trkpt><trkpt lat="46.23765860099671" lon="10.137432618353943"><ele>567.6666666666666</ele><time>2026-03-28T13:51:25.999Z</time></trkpt><trkpt lat="46.23753398092805" lon="10.137741886120772"><ele>566.0</ele><time>2026-03-28T13:51:27Z</time></trkpt><trkpt lat="46.23740996122147" lon="10.137910860056522"><ele>564.0</ele><time>2026-03-28T13:51:28Z</time></trkpt><trkpt lat="46.237295893686266" lon="10.138094106824035"><ele>562.0</ele><time>2026-03-28T13:51:29Z</time></trkpt><trkpt lat="46.23717526712754" lon="10.138242161069641"><ele>560.0</ele><time>2026-03-28T13:51:30Z</time></trkpt><trkpt lat="46.237056256436944" lon="10.138378934557494"><ele>559.75</ele><time>2026-03-28T13:51:31Z</time></trkpt><trkpt lat="46.23694569043531" lon="10.138510642986926"><ele>559.5</ele><time>2026-03-28T13:51:32Z</time></trkpt><trkpt lat="46.236839681336576" lon="10.138650421179046"><ele>559.25</ele><time>2026-03-28T13:51:33Z</time></trkpt><trkpt lat="46.23674211679735" lon="10.138782370853118"><ele>559.0</ele><time>2026-03-28T13:51:34Z</time></trkpt><trkpt lat="46.236639401394875" lon="10.138915009019057"><ele>558.5</ele><time>2026-03-28T13:51:35Z</time></trkpt><trkpt lat="46.23654707462301" lon="10.1390511130843"><ele>558.0</ele><time>2026-03-28T13:51:36Z</time></trkpt><trkpt lat="46.23645553418248" lon="10.13917746292141"><ele>557.5</ele><time>2026-03-28T13:51:37Z</time></trkpt><trkpt lat="46.23636437439219" lon="10.139290783091669"><ele>557.0</ele><time>2026-03-28T13:51:38Z</time></trkpt><trkpt lat="46.23628443465806" lon="10.139395568772748"><ele>557.0</ele><time>2026-03-28T13:51:39Z</time></trkpt><trkpt lat="46.2362010942815" lon="10.139504347133416"><ele>557.0</ele><time>2026-03-28T13:51:40Z</time></trkpt><trkpt lat="46.236122086547" lon="10.139609131602455"><ele>557.0</ele><time>2026-03-28T13:51:41Z</time></trkpt><trkpt lat="46.23604463803538" lon="10.139706105939922"><ele>557.0</ele><time>2026-03-28T13:51:42Z</time></trkpt><trkpt lat="46.23597087016251" lon="10.139800306164535"><ele>557.0</ele><time>2026-03-28T13:51:43Z</time></trkpt><trkpt lat="46.23589426872866" lon="10.139884513868662"><ele>557.0</ele><time>2026-03-28T13:51:44Z</time></trkpt><trkpt lat="46.23581222662384" lon="10.13992731609247"><ele>557.0</ele><time>2026-03-28T13:51:45Z</time></trkpt><trkpt lat="46.23574295742096" lon="10.139982031177711"><ele>557.0</ele><time>2026-03-28T13:51:46Z</time></trkpt><trkpt lat="46.23568277936339" lon="10.140024871441398"><ele>557.0</ele><time>2026-03-28T13:51:47Z</time></trkpt><trkpt lat="46.23560492427228" lon="10.140062627941907"><ele>557.0</ele><time>2026-03-28T13:51:49Z</time></trkpt><trkpt lat="46.23549539401581" lon="10.140089809236208"><ele>557.0</ele><time>2026-03-28T13:52:02Z</time></trkpt><trkpt lat="46.23540182617856" lon="10.140071248941421"><ele>558.6</ele><time>2026-03-28T13:52:03Z</time></trkpt><trkpt lat="46.23529420754472" lon="10.140024645131664"><ele>560.2</ele><time>2026-03-28T13:52:04Z</time></trkpt><trkpt lat="46.23518336186838" lon="10.139987616785035"><ele>561.8</ele><time>2026-03-28T13:52:05Z</time></trkpt><trkpt lat="46.23506972877624" lon="10.140029972714599"><ele>563.4</ele><time>2026-03-28T13:52:06Z</time></trkpt><trkpt lat="46.23499871602253" lon="10.140057988193307"><ele>565.0</ele><time>2026-03-28T13:52:07Z</time></trkpt><trkpt lat="46.23492227648993" lon="10.140142526291406"><ele>565.0</ele><time>2026-03-28T13:52:08Z</time></trkpt><trkpt lat="46.23482756886499" lon="10.140256511807975"><ele>565.0</ele><time>2026-03-28T13:52:09Z</time></trkpt><trkpt lat="46.2347061576781" lon="10.140411884320716"><ele>565.0</ele><time>2026-03-28T13:52:10Z</time></trkpt><trkpt lat="46.23456961493923" lon="10.140558509583812"><ele>561.6666666666667</ele><time>2026-03-28T13:52:11Z</time></trkpt><trkpt lat="46.23442051584965" lon="10.140712085802061"><ele>558.3333333333334</ele><time>2026-03-28T13:52:12Z</time></trkpt><trkpt lat="46.23429217114858" lon="10.140863755641455"><ele>555.0</ele><time>2026-03-28T13:52:13Z</time></trkpt><trkpt lat="46.234181376291126" lon="10.14106749580426"><ele>555.0</ele><time>2026-03-28T13:52:14Z</time></trkpt><trkpt lat="46.23408355892222" lon="10.141313787747116"><ele>555.0</ele><time>2026-03-28T13:52:15Z</time></trkpt><trkpt lat="46.233996936853195" lon="10.141555687172623"><ele>555.0</ele><time>2026-03-28T13:52:16Z</time></trkpt><trkpt lat="46.233917138912226" lon="10.141772036831528"><ele>554.75</ele><time>2026-03-28T13:52:17Z</time></trkpt><trkpt lat="46.23383624131195" lon="10.141956701836598"><ele>554.5</ele><time>2026-03-28T13:52:18Z</time></trkpt><trkpt lat="46.23374611023252" lon="10.14212832422593"><ele>554.25</ele><time>2026-03-28T13:52:19Z</time></trkpt><trkpt lat="46.233651315933336" lon="10.142273626928144"><ele>554.0</ele><time>2026-03-28T13:52:20Z</time></trkpt><trkpt lat="46.233550149142204" lon="10.14239694155665"><ele>552.5</ele><time>2026-03-28T13:52:21Z</time></trkpt><trkpt lat="46.233447732601505" lon="10.142502675599385"><ele>551.0</ele><time>2026-03-28T13:52:22Z</time></trkpt><trkpt lat="46.23334110994717" lon="10.142614515849214"><ele>549.5</ele><time>2026-03-28T13:52:23Z</time></trkpt><trkpt lat="46.23322289521661" lon="10.142734543545565"><ele>548.0</ele><time>2026-03-28T13:52:24Z</time></trkpt><trkpt lat="46.23310790293913" lon="10.142823822188117"><ele>548.0</ele><time>2026-03-28T13:52:25Z</time></trkpt><trkpt lat="46.23298953626699" lon="10.142918775850516"><ele>548.0</ele><time>2026-03-28T13:52:26Z</time></trkpt><trkpt lat="46.232872384539874" lon="10.143015542599851"><ele>548.0</ele><time>2026-03-28T13:52:27Z</time></trkpt><trkpt lat="46.23275083630915" lon="10.143104933746667"><ele>548.0</ele><time>2026-03-28T13:52:28Z</time></trkpt><trkpt lat="46.232630352394054" lon="10.143195293846023"><ele>544.75</ele><time>2026-03-28T13:52:28.999Z</time></trkpt><trkpt lat="46.23250198440985" lon="10.1432759462341"><ele>541.5</ele><time>2026-03-28T13:52:29.999Z</time></trkpt><trkpt lat="46.232371585881275" lon="10.143332733628926"><ele>538.25</ele><time>2026-03-28T13:52:30.999Z</time></trkpt><trkpt lat="46.232214423117924" lon="10.143376118837512"><ele>535.0</ele><time>2026-03-28T13:52:31.999Z</time></trkpt><trkpt lat="46.23205972175014" lon="10.143400827231579"><ele>535.0</ele><time>2026-03-28T13:52:32.999Z</time></trkpt><trkpt lat="46.23190433601264" lon="10.14342919339761"><ele>535.0</ele><time>2026-03-28T13:52:33.999Z</time></trkpt><trkpt lat="46.23175213332447" lon="10.143474684622426"><ele>535.0</ele><time>2026-03-28T13:52:34.999Z</time></trkpt><trkpt lat="46.231607907214915" lon="10.143553999310733"><ele>535.0</ele><time>2026-03-28T13:52:35.999Z</time></trkpt><trkpt lat="46.23147414271891" lon="10.143676998587623"><ele>535.0</ele><time>2026-03-28T13:52:36.999Z</time></trkpt><trkpt lat="46.23134659863301" lon="10.143839610966019"><ele>535.0</ele><time>2026-03-28T13:52:37.999Z</time></trkpt><trkpt lat="46.23122939603342" lon="10.143967586761738"><ele>534.25</ele><time>2026-03-28T13:52:38.999Z</time></trkpt><trkpt lat="46.23112678223209" lon="10.144129641320328"><ele>533.5</ele><time>2026-03-28T13:52:39.999Z</time></trkpt><trkpt lat="46.231035712666866" lon="10.144293607616014"><ele>532.75</ele><time>2026-03-28T13:52:40.999Z</time></trkpt><trkpt lat="46.23095275198103" lon="10.144440050375866"><ele>532.0</ele><time>2026-03-28T13:52:41.999Z</time></trkpt><trkpt lat="46.230874512155495" lon="10.144582309318407"><ele>532.0</ele><time>2026-03-28T13:52:42.999Z</time></trkpt><trkpt lat="46.230788333455045" lon="10.14471224498626"><ele>532.0</ele><time>2026-03-28T13:52:43.999Z</time></trkpt><trkpt lat="46.23072258476008" lon="10.144830384366086"><ele>532.0</ele><time>2026-03-28T13:52:44.999Z</time></trkpt><trkpt lat="46.23067091552254" lon="10.144924383340241"><ele>532.0</ele><time>2026-03-28T13:52:45.999Z</time></trkpt><trkpt lat="46.2306239148737" lon="10.145012125049995"><ele>532.0</ele><time>2026-03-28T13:52:46.999Z</time></trkpt><trkpt lat="46.230537510429656" lon="10.145139094380445"><ele>531.6</ele><time>2026-03-28T13:52:48.999Z</time></trkpt><trkpt lat="46.23047249247319" lon="10.145245695738236"><ele>531.2</ele><time>2026-03-28T13:52:50.999Z</time></trkpt><trkpt lat="46.230426752233676" lon="10.145325046644448"><ele>530.8</ele><time>2026-03-28T13:53:24.999Z</time></trkpt><trkpt lat="46.23035222311794" lon="10.145496079890613"><ele>530.4</ele><time>2026-03-28T13:53:26.999Z</time></trkpt><trkpt lat="46.23028710594586" lon="10.145564217642038"><ele>530.0</ele><time>2026-03-28T13:53:27.999Z</time></trkpt><trkpt lat="46.230203346612164" lon="10.14561004404749"><ele>530.0</ele><time>2026-03-28T13:53:28.999Z</time></trkpt><trkpt lat="46.230108749935454" lon="10.145627430846703"><ele>530.0</ele><time>2026-03-28T13:53:29.999Z</time></trkpt><trkpt lat="46.23000540305251" lon="10.145622299463305"><ele>530.0</ele><time>2026-03-28T13:53:30.999Z</time></trkpt><trkpt lat="46.22989923974475" lon="10.14564886924359"><ele>530.0</ele><time>2026-03-28T13:53:31.999Z</time></trkpt><trkpt lat="46.229802967993244" lon="10.145703032504825"><ele>530.0</ele><time>2026-03-28T13:53:33Z</time></trkpt><trkpt lat="46.229715272998114" lon="10.145776852065884"><ele>528.0</ele><time>2026-03-28T13:53:34Z</time></trkpt><trkpt lat="46.2296372330688" lon="10.145837547741944"><ele>526.0</ele><time>2026-03-28T13:53:35Z</time></trkpt><trkpt lat="46.229548586122526" lon="10.145904793260996"><ele>524.0</ele><time>2026-03-28T13:53:36Z</time></trkpt><trkpt lat="46.2294651810737" lon="10.145938993935765"><ele>522.0</ele><time>2026-03-28T13:53:37Z</time></trkpt><trkpt lat="46.22938627714324" lon="10.145966858482472"><ele>520.0</ele><time>2026-03-28T13:53:38Z</time></trkpt><trkpt lat="46.229303992578544" lon="10.146001636623378"><ele>518.0</ele><time>2026-03-28T13:53:39Z</time></trkpt><trkpt lat="46.22922273955417" lon="10.146035423925733"><ele>518.0</ele><time>2026-03-28T13:53:40Z</time></trkpt><trkpt lat="46.22914036628967" lon="10.146069987692691"><ele>518.0</ele><time>2026-03-28T13:53:41Z</time></trkpt><trkpt lat="46.2290343617905" lon="10.146119636488606"><ele>518.0</ele><time>2026-03-28T13:53:42Z</time></trkpt><trkpt lat="46.228921836422394" lon="10.1461480730238"><ele>518.0</ele><time>2026-03-28T13:53:43Z</time></trkpt><trkpt lat="46.22882044481913" lon="10.146167163678449"><ele>518.0</ele><time>2026-03-28T13:53:44Z</time></trkpt><trkpt lat="46.22869825744461" lon="10.146175469332805"><ele>518.6666666666666</ele><time>2026-03-28T13:53:45Z</time></trkpt><trkpt lat="46.228560652035064" lon="10.14617074312431"><ele>519.3333333333334</ele><time>2026-03-28T13:53:46Z</time></trkpt><trkpt lat="46.22841026458707" lon="10.146141042131166"><ele>520.0</ele><time>2026-03-28T13:53:47Z</time></trkpt><trkpt lat="46.228247843766475" lon="10.14612046321865"><ele>518.0</ele><time>2026-03-28T13:53:48Z</time></trkpt><trkpt lat="46.228069271431686" lon="10.146135694300707"><ele>516.0</ele><time>2026-03-28T13:53:49Z</time></trkpt><trkpt lat="46.22789311691432" lon="10.146175963444279"><ele>514.0</ele><time>2026-03-28T13:53:50Z</time></trkpt><trkpt lat="46.227719117199086" lon="10.146228287248519"><ele>514.0</ele><time>2026-03-28T13:53:51Z</time></trkpt><trkpt lat="46.22755368399224" lon="10.14625669286166"><ele>514.0</ele><time>2026-03-28T13:53:52Z</time></trkpt><trkpt lat="46.22739675930028" lon="10.14620194775889"><ele>514.0</ele><time>2026-03-28T13:53:53Z</time></trkpt><trkpt lat="46.22724450131064" lon="10.146175524292515"><ele>516.6666666666667</ele><time>2026-03-28T13:53:54Z</time></trkpt><trkpt lat="46.227078703609855" lon="10.146195566406686"><ele>519.3333333333334</ele><time>2026-03-28T13:53:55Z</time></trkpt><trkpt lat="46.22692372996707" lon="10.146222328976979"><ele>522.0</ele><time>2026-03-28T13:53:56Z</time></trkpt><trkpt lat="46.22677354456951" lon="10.146295335432278"><ele>522.0</ele><time>2026-03-28T13:53:57Z</time></trkpt><trkpt lat="46.22661938800318" lon="10.146434007006537"><ele>522.0</ele><time>2026-03-28T13:53:58Z</time></trkpt><trkpt lat="46.22646297092336" lon="10.146610819006076"><ele>522.0</ele><time>2026-03-28T13:53:59Z</time></trkpt><trkpt lat="46.22629059696629" lon="10.14679289180287"><ele>515.5</ele><time>2026-03-28T13:54:00Z</time></trkpt><trkpt lat="46.226105514257064" lon="10.146976390268346"><ele>509.0</ele><time>2026-03-28T13:54:01Z</time></trkpt><trkpt lat="46.22590893564841" lon="10.147147789315587"><ele>509.0</ele><time>2026-03-28T13:54:02Z</time></trkpt><trkpt lat="46.225725853560085" lon="10.147299645133252"><ele>509.0</ele><time>2026-03-28T13:54:03Z</time></trkpt><trkpt lat="46.225553961775724" lon="10.1474524033453"><ele>509.0</ele><time>2026-03-28T13:54:04Z</time></trkpt><trkpt lat="46.22538624802779" lon="10.147631287926755"><ele>509.0</ele><time>2026-03-28T13:54:05Z</time></trkpt><trkpt lat="46.22520967306806" lon="10.147831340954049"><ele>509.0</ele><time>2026-03-28T13:54:06Z</time></trkpt><trkpt lat="46.22504693923473" lon="10.148073043537094"><ele>512.0</ele><time>2026-03-28T13:54:07Z</time></trkpt><trkpt lat="46.224895463136455" lon="10.148323253595654"><ele>515.0</ele><time>2026-03-28T13:54:08Z</time></trkpt><trkpt lat="46.22475314511421" lon="10.148541746535056"><ele>518.0</ele><time>2026-03-28T13:54:09Z</time></trkpt><trkpt lat="46.224609761881986" lon="10.148745713934273"><ele>518.0</ele><time>2026-03-28T13:54:10Z</time></trkpt><trkpt lat="46.22450088037187" lon="10.148981211278437"><ele>518.0</ele><time>2026-03-28T13:54:11Z</time></trkpt><trkpt lat="46.22443934599975" lon="10.149225343341852"><ele>518.0</ele><time>2026-03-28T13:54:12Z</time></trkpt><trkpt lat="46.224367497625764" lon="10.149438014644439"><ele>517.0</ele><time>2026-03-28T13:54:13Z</time></trkpt><trkpt lat="46.22427379874606" lon="10.149605610741208"><ele>516.0</ele><time>2026-03-28T13:54:14Z</time></trkpt><trkpt lat="46.224152488391546" lon="10.149724957325411"><ele>515.0</ele><time>2026-03-28T13:54:15Z</time></trkpt><trkpt lat="46.224015863882016" lon="10.149807406196171"><ele>514.0</ele><time>2026-03-28T13:54:16Z</time></trkpt><trkpt lat="46.223867031707044" lon="10.149860985830767"><ele>504.33333333333337</ele><time>2026-03-28T13:54:17Z</time></trkpt><trkpt lat="46.22373804363932" lon="10.149956775554815"><ele>494.66666666666663</ele><time>2026-03-28T13:54:18Z</time></trkpt><trkpt lat="46.22362845167406" lon="10.150113205245287"><ele>485.0</ele><time>2026-03-28T13:54:19Z</time></trkpt><trkpt lat="46.22351775430518" lon="10.15030441369909"><ele>485.0</ele><time>2026-03-28T13:54:20Z</time></trkpt><trkpt lat="46.22342614527699" lon="10.15053085804566"><ele>485.0</ele><time>2026-03-28T13:54:21Z</time></trkpt><trkpt lat="46.22332826742026" lon="10.150762899962645"><ele>485.0</ele><time>2026-03-28T13:54:22Z</time></trkpt><trkpt lat="46.223227474735225" lon="10.150983579884427"><ele>483.66666666666663</ele><time>2026-03-28T13:54:23Z</time></trkpt><trkpt lat="46.22313251382753" lon="10.15120187840629"><ele>482.33333333333337</ele><time>2026-03-28T13:54:24Z</time></trkpt><trkpt lat="46.22304019644561" lon="10.151409791066397"><ele>481.0</ele><time>2026-03-28T13:54:25Z</time></trkpt><trkpt lat="46.22297992537843" lon="10.151626128568495"><ele>474.0</ele><time>2026-03-28T13:54:26Z</time></trkpt><trkpt lat="46.22295445028923" lon="10.151851204056511"><ele>467.0</ele><time>2026-03-28T13:54:27Z</time></trkpt><trkpt lat="46.222946110305" lon="10.152073469538548"><ele>460.0</ele><time>2026-03-28T13:54:28Z</time></trkpt><trkpt lat="46.22292577947252" lon="10.1522821236487"><ele>458.25</ele><time>2026-03-28T13:54:29Z</time></trkpt><trkpt lat="46.22288963639037" lon="10.152471849166721"><ele>456.5</ele><time>2026-03-28T13:54:30Z</time></trkpt><trkpt lat="46.222867555354924" lon="10.152646631777902"><ele>454.75</ele><time>2026-03-28T13:54:31Z</time></trkpt><trkpt lat="46.22273388816263" lon="10.152720809036255"><ele>453.0</ele><time>2026-03-28T13:54:32Z</time></trkpt><trkpt lat="46.222612437422804" lon="10.15280630725804"><ele>453.0</ele><time>2026-03-28T13:54:33Z</time></trkpt><trkpt lat="46.22246515451296" lon="10.152867321121013"><ele>453.0</ele><time>2026-03-28T13:54:34Z</time></trkpt><trkpt lat="46.22231289222745" lon="10.152954338022411"><ele>453.0</ele><time>2026-03-28T13:54:35Z</time></trkpt><trkpt lat="46.22213407154107" lon="10.15300979048483"><ele>452.0</ele><time>2026-03-28T13:54:36Z</time></trkpt><trkpt lat="46.221969152924935" lon="10.153122530252542"><ele>451.0</ele><time>2026-03-28T13:54:37Z</time></trkpt><trkpt lat="46.22180869648629" lon="10.153232388105556"><ele>450.0</ele><time>2026-03-28T13:54:38Z</time></trkpt><trkpt lat="46.221648341473816" lon="10.15334170776808"><ele>449.66666666666663</ele><time>2026-03-28T13:54:39Z</time></trkpt><trkpt lat="46.22149562708217" lon="10.15347138989379"><ele>449.3333333333333</ele><time>2026-03-28T13:54:40Z</time></trkpt><trkpt lat="46.221336615098025" lon="10.15357030517"><ele>449.0</ele><time>2026-03-28T13:54:40.999Z</time></trkpt><trkpt lat="46.22118358276252" lon="10.153675770147604"><ele>448.0</ele><time>2026-03-28T13:54:41.999Z</time></trkpt><trkpt lat="46.22102923529122" lon="10.153772749626665"><ele>447.0</ele><time>2026-03-28T13:54:42.999Z</time></trkpt><trkpt lat="46.22087681880275" lon="10.153880225513738"><ele>446.0</ele><time>2026-03-28T13:54:43.999Z</time></trkpt><trkpt lat="46.2207278123271" lon="10.153985245975875"><ele>446.0</ele><time>2026-03-28T13:54:44.999Z</time></trkpt><trkpt lat="46.22057700031" lon="10.154088819969889"><ele>446.0</ele><time>2026-03-28T13:54:45.999Z</time></trkpt><trkpt lat="46.220425611172445" lon="10.154184857558255"><ele>446.0</ele><time>2026-03-28T13:54:46.999Z</time></trkpt><trkpt lat="46.22027436565424" lon="10.154278936664728"><ele>446.0</ele><time>2026-03-28T13:54:47.999Z</time></trkpt><trkpt lat="46.22013614080134" lon="10.154381748781326"><ele>446.0</ele><time>2026-03-28T13:54:48.999Z</time></trkpt><trkpt lat="46.2199933827013" lon="10.154484840757524"><ele>446.0</ele><time>2026-03-28T13:54:49.999Z</time></trkpt><trkpt lat="46.21984881732308" lon="10.15457956060759"><ele>444.66666666666663</ele><time>2026-03-28T13:54:50.999Z</time></trkpt><trkpt lat="46.21970254283638" lon="10.15466604764127"><ele>443.33333333333337</ele><time>2026-03-28T13:54:51.999Z</time></trkpt><trkpt lat="46.2195610461706" lon="10.154761873509884"><ele>442.0</ele><time>2026-03-28T13:54:52.999Z</time></trkpt><trkpt lat="46.21942146025571" lon="10.154856390906879"><ele>441.75</ele><time>2026-03-28T13:54:53.999Z</time></trkpt><trkpt lat="46.219289969137776" lon="10.154945427037475"><ele>441.5</ele><time>2026-03-28T13:54:54.999Z</time></trkpt><trkpt lat="46.219158646438764" lon="10.15503434811251"><ele>441.25</ele><time>2026-03-28T13:54:55.999Z</time></trkpt><trkpt lat="46.2190400484782" lon="10.15512552336024"><ele>441.0</ele><time>2026-03-28T13:54:56.999Z</time></trkpt><trkpt lat="46.21894307309211" lon="10.155197682810881"><ele>441.0</ele><time>2026-03-28T13:54:57.999Z</time></trkpt><trkpt lat="46.21886095494876" lon="10.155253314078847"><ele>441.0</ele><time>2026-03-28T13:54:58.999Z</time></trkpt><trkpt lat="46.218784002185416" lon="10.15530814146706"><ele>441.0</ele><time>2026-03-28T13:54:59.999Z</time></trkpt><trkpt lat="46.218719316862945" lon="10.155349942805842"><ele>441.0</ele><time>2026-03-28T13:55:00.999Z</time></trkpt><trkpt lat="46.21864925869266" lon="10.155390351627362"><ele>441.0</ele><time>2026-03-28T13:55:01.999Z</time></trkpt><trkpt lat="46.2185303736864" lon="10.155478760030249"><ele>441.0</ele><time>2026-03-28T13:55:03.999Z</time></trkpt><trkpt lat="46.21846074370896" lon="10.155523376591555"><ele>441.0</ele><time>2026-03-28T13:55:04.999Z</time></trkpt><trkpt lat="46.218395625544055" lon="10.15557059414666"><ele>441.0</ele><time>2026-03-28T13:55:05.999Z</time></trkpt><trkpt lat="46.21829853701669" lon="10.155638360761042"><ele>441.0</ele><time>2026-03-28T13:55:07.999Z</time></trkpt><trkpt lat="46.21823205274913" lon="10.155665023869057"><ele>441.0</ele><time>2026-03-28T13:55:10.999Z</time></trkpt><trkpt lat="46.21813548665564" lon="10.155731065433642"><ele>441.0</ele><time>2026-03-28T13:55:13.999Z</time></trkpt><trkpt lat="46.21807407707365" lon="10.155763604741873"><ele>440.1666666666667</ele><time>2026-03-28T13:55:14.999Z</time></trkpt><trkpt lat="46.21801370714407" lon="10.155807736190129"><ele>439.33333333333337</ele><time>2026-03-28T13:55:15.999Z</time></trkpt><trkpt lat="46.217959973149014" lon="10.155868713429683"><ele>438.5</ele><time>2026-03-28T13:55:16.999Z</time></trkpt><trkpt lat="46.21795348850028" lon="10.15605592665571"><ele>437.6666666666667</ele><time>2026-03-28T13:55:18.999Z</time></trkpt><trkpt lat="46.217960328762196" lon="10.156175150431839"><ele>436.83333333333337</ele><time>2026-03-28T13:55:19.999Z</time></trkpt><trkpt lat="46.217954226021725" lon="10.156314048619736"><ele>436.0</ele><time>2026-03-28T13:55:20.999Z</time></trkpt><trkpt lat="46.21793031082755" lon="10.156454758186772"><ele>435.5</ele><time>2026-03-28T13:55:21.999Z</time></trkpt><trkpt lat="46.217917758538846" lon="10.15661499791907"><ele>435.0</ele><time>2026-03-28T13:55:22.999Z</time></trkpt><trkpt lat="46.217888164839096" lon="10.15677755564156"><ele>434.5</ele><time>2026-03-28T13:55:23.999Z</time></trkpt><trkpt lat="46.217866707366554" lon="10.156935363338023"><ele>434.0</ele><time>2026-03-28T13:55:24.999Z</time></trkpt><trkpt lat="46.217843717895356" lon="10.157105434257703"><ele>434.0</ele><time>2026-03-28T13:55:25.999Z</time></trkpt><trkpt lat="46.21782341002121" lon="10.157260288792495"><ele>434.0</ele><time>2026-03-28T13:55:26.999Z</time></trkpt><trkpt lat="46.21780487939594" lon="10.157400021216368"><ele>434.0</ele><time>2026-03-28T13:55:27.999Z</time></trkpt><trkpt lat="46.21778498789237" lon="10.15755001581687"><ele>434.0</ele><time>2026-03-28T13:55:28.999Z</time></trkpt><trkpt lat="46.217762717895354" lon="10.157717943373957"><ele>434.0</ele><time>2026-03-28T13:55:29.999Z</time></trkpt><trkpt lat="46.21775080120772" lon="10.157908794471698"><ele>434.25</ele><time>2026-03-28T13:55:30.999Z</time></trkpt><trkpt lat="46.2177119220727" lon="10.158101688638139"><ele>434.5</ele><time>2026-03-28T13:55:31.999Z</time></trkpt><trkpt lat="46.21768558915083" lon="10.158300560457063"><ele>434.75</ele><time>2026-03-28T13:55:32.999Z</time></trkpt><trkpt lat="46.21766040773403" lon="10.158490735869536"><ele>435.0</ele><time>2026-03-28T13:55:33.999Z</time></trkpt><trkpt lat="46.2176345480442" lon="10.158686384279996"><ele>434.33333333333337</ele><time>2026-03-28T13:55:34.999Z</time></trkpt><trkpt lat="46.217604299015335" lon="10.15891538922155"><ele>433.6666666666667</ele><time>2026-03-28T13:55:35.999Z</time></trkpt><trkpt lat="46.21757399475041" lon="10.159144812626051"><ele>433.0</ele><time>2026-03-28T13:55:36.999Z</time></trkpt><trkpt lat="46.21754890122365" lon="10.15939820553732"><ele>432.6666666666667</ele><time>2026-03-28T13:55:37.999Z</time></trkpt><trkpt lat="46.217527176341704" lon="10.15962309584523"><ele>432.33333333333337</ele><time>2026-03-28T13:55:39Z</time></trkpt><trkpt lat="46.21748116608251" lon="10.159847586803615"><ele>432.0</ele><time>2026-03-28T13:55:40Z</time></trkpt><trkpt lat="46.21745060515968" lon="10.160078953080255"><ele>431.75</ele><time>2026-03-28T13:55:41Z</time></trkpt><trkpt lat="46.21742145940124" lon="10.16029960559127"><ele>431.5</ele><time>2026-03-28T13:55:42Z</time></trkpt><trkpt lat="46.217410722599936" lon="10.16052062984243"><ele>431.25</ele><time>2026-03-28T13:55:43Z</time></trkpt><trkpt lat="46.21739099939012" lon="10.16071902493574"><ele>431.0</ele><time>2026-03-28T13:55:44Z</time></trkpt><trkpt lat="46.21737061892841" lon="10.160918823051086"><ele>430.75</ele><time>2026-03-28T13:55:45Z</time></trkpt><trkpt lat="46.217351321121455" lon="10.161096400748766"><ele>430.5</ele><time>2026-03-28T13:55:46Z</time></trkpt><trkpt lat="46.217336896681196" lon="10.161267923470259"><ele>430.25</ele><time>2026-03-28T13:55:47Z</time></trkpt><trkpt lat="46.21727334612394" lon="10.161425383084685"><ele>430.0</ele><time>2026-03-28T13:55:48Z</time></trkpt><trkpt lat="46.21724686919046" lon="10.161631232292189"><ele>428.6666666666667</ele><time>2026-03-28T13:55:49Z</time></trkpt><trkpt lat="46.21721820352106" lon="10.161849017398577"><ele>427.33333333333337</ele><time>2026-03-28T13:55:50Z</time></trkpt><trkpt lat="46.21719026009306" lon="10.162061184960494"><ele>426.0</ele><time>2026-03-28T13:55:51Z</time></trkpt><trkpt lat="46.21716084946731" lon="10.16228449254871"><ele>426.0</ele><time>2026-03-28T13:55:52Z</time></trkpt><trkpt lat="46.2171298151189" lon="10.162518739430986"><ele>426.0</ele><time>2026-03-28T13:55:53Z</time></trkpt><trkpt lat="46.21710241411919" lon="10.162725099244424"><ele>426.0</ele><time>2026-03-28T13:55:54Z</time></trkpt><trkpt lat="46.21706755204624" lon="10.162988579770065"><ele>426.0</ele><time>2026-03-28T13:55:55Z</time></trkpt><trkpt lat="46.21703364125909" lon="10.163245634965726"><ele>426.0</ele><time>2026-03-28T13:55:56Z</time></trkpt><trkpt lat="46.217007430004365" lon="10.163500349271143"><ele>426.0</ele><time>2026-03-28T13:55:57Z</time></trkpt><trkpt lat="46.21698175000671" lon="10.16375458518972"><ele>426.0</ele><time>2026-03-28T13:55:58Z</time></trkpt><trkpt lat="46.21694749040757" lon="10.164004098720403"><ele>426.0</ele><time>2026-03-28T13:55:59Z</time></trkpt><trkpt lat="46.21691488082652" lon="10.164238192310187"><ele>426.0</ele><time>2026-03-28T13:56:00Z</time></trkpt><trkpt lat="46.216879991568966" lon="10.164455646040619"><ele>426.25</ele><time>2026-03-28T13:56:01Z</time></trkpt><trkpt lat="46.21685556023859" lon="10.164663183746951"><ele>426.5</ele><time>2026-03-28T13:56:02Z</time></trkpt><trkpt lat="46.21683823615513" lon="10.164858410500745"><ele>426.75</ele><time>2026-03-28T13:56:03Z</time></trkpt><trkpt lat="46.216798755558045" lon="10.165044853765492"><ele>427.0</ele><time>2026-03-28T13:56:04Z</time></trkpt><trkpt lat="46.216777340402075" lon="10.165246344602325"><ele>427.6666666666667</ele><time>2026-03-28T13:56:05Z</time></trkpt><trkpt lat="46.21675947717287" lon="10.16539012797824"><ele>428.33333333333337</ele><time>2026-03-28T13:56:06Z</time></trkpt><trkpt lat="46.21674958645051" lon="10.165523028845781"><ele>429.0</ele><time>2026-03-28T13:56:07Z</time></trkpt><trkpt lat="46.216725915438474" lon="10.165620304006534"><ele>429.66666666666663</ele><time>2026-03-28T13:56:08Z</time></trkpt><trkpt lat="46.21670846306741" lon="10.165715668064514"><ele>430.3333333333333</ele><time>2026-03-28T13:56:09Z</time></trkpt><trkpt lat="46.21669728308312" lon="10.165816889971078"><ele>431.0</ele><time>2026-03-28T13:56:10Z</time></trkpt><trkpt lat="46.2166854395755" lon="10.1659106520856"><ele>431.0</ele><time>2026-03-28T13:56:11Z</time></trkpt><trkpt lat="46.216667830066214" lon="10.166038489477975"><ele>431.0</ele><time>2026-03-28T13:56:12Z</time></trkpt><trkpt lat="46.21664688451879" lon="10.166182210061434"><ele>431.0</ele><time>2026-03-28T13:56:13Z</time></trkpt><trkpt lat="46.2166304614699" lon="10.16632040175052"><ele>431.0</ele><time>2026-03-28T13:56:14Z</time></trkpt><trkpt lat="46.21661562088801" lon="10.166458917356968"><ele>431.0</ele><time>2026-03-28T13:56:15Z</time></trkpt><trkpt lat="46.216596123077565" lon="10.166579251078073"><ele>431.16666666666663</ele><time>2026-03-28T13:56:16Z</time></trkpt><trkpt lat="46.2165898965795" lon="10.166692092606883"><ele>431.3333333333333</ele><time>2026-03-28T13:56:17Z</time></trkpt><trkpt lat="46.2165783293812" lon="10.166785698531656"><ele>431.5</ele><time>2026-03-28T13:56:18Z</time></trkpt><trkpt lat="46.216551841756505" lon="10.16694669459139"><ele>431.66666666666663</ele><time>2026-03-28T13:56:20Z</time></trkpt><trkpt lat="46.21653228171143" lon="10.167056209390473"><ele>431.8333333333333</ele><time>2026-03-28T13:56:23Z</time></trkpt><trkpt lat="46.21651487867265" lon="10.167188117324201"><ele>432.0</ele><time>2026-03-28T13:56:34Z</time></trkpt><trkpt lat="46.216501390357806" lon="10.16729035330492"><ele>431.40000000000003</ele><time>2026-03-28T13:56:35Z</time></trkpt><trkpt lat="46.21648390748623" lon="10.16742599295767"><ele>430.80000000000007</ele><time>2026-03-28T13:56:36Z</time></trkpt><trkpt lat="46.21646516444344" lon="10.167569358926006"><ele>430.2</ele><time>2026-03-28T13:56:37Z</time></trkpt><trkpt lat="46.21644545021564" lon="10.167719823127284"><ele>429.6</ele><time>2026-03-28T13:56:38Z</time></trkpt><trkpt lat="46.216428520451075" lon="10.167849035403009"><ele>429.0</ele><time>2026-03-28T13:56:39Z</time></trkpt><trkpt lat="46.21641532039267" lon="10.16794978108923"><ele>429.0</ele><time>2026-03-28T13:56:40Z</time></trkpt><trkpt lat="46.216400347180326" lon="10.168064061108105"><ele>429.0</ele><time>2026-03-28T13:56:41Z</time></trkpt><trkpt lat="46.21638146428964" lon="10.168208180439184"><ele>429.0</ele><time>2026-03-28T13:56:42Z</time></trkpt><trkpt lat="46.21636177782766" lon="10.168358432309823"><ele>429.0</ele><time>2026-03-28T13:56:43Z</time></trkpt><trkpt lat="46.21634668282237" lon="10.168473641387289"><ele>429.0</ele><time>2026-03-28T13:56:44Z</time></trkpt><trkpt lat="46.21633180701068" lon="10.168587177231755"><ele>429.0</ele><time>2026-03-28T13:56:45Z</time></trkpt><trkpt lat="46.216316214226865" lon="10.16870619081085"><ele>429.5</ele><time>2026-03-28T13:56:46Z</time></trkpt><trkpt lat="46.21629447931137" lon="10.168874245091269"><ele>430.0</ele><time>2026-03-28T13:56:47Z</time></trkpt><trkpt lat="46.21627716295969" lon="10.169007588998976"><ele>430.5</ele><time>2026-03-28T13:56:48Z</time></trkpt><trkpt lat="46.216264707970225" lon="10.169103498293634"><ele>431.0</ele><time>2026-03-28T13:56:49Z</time></trkpt><trkpt lat="46.21625120820538" lon="10.169207452243231"><ele>431.5</ele><time>2026-03-28T13:56:49.999Z</time></trkpt><trkpt lat="46.21623619714093" lon="10.16931801926259"><ele>432.0</ele><time>2026-03-28T13:56:50.999Z</time></trkpt><trkpt lat="46.2161984929742" lon="10.169456036009445"><ele>432.1666666666667</ele><time>2026-03-28T13:56:51.999Z</time></trkpt><trkpt lat="46.21620549209402" lon="10.169573103083879"><ele>432.33333333333337</ele><time>2026-03-28T13:56:52.999Z</time></trkpt><trkpt lat="46.216196814554415" lon="10.169670430156412"><ele>432.5</ele><time>2026-03-28T13:56:53.999Z</time></trkpt><trkpt lat="46.216175168421366" lon="10.169767821131002"><ele>432.6666666666667</ele><time>2026-03-28T13:56:54.999Z</time></trkpt><trkpt lat="46.21615648269403" lon="10.169882140632106"><ele>432.83333333333337</ele><time>2026-03-28T13:56:55.999Z</time></trkpt><trkpt lat="46.216149113378016" lon="10.170008171215853"><ele>433.0</ele><time>2026-03-28T13:56:56.999Z</time></trkpt><trkpt lat="46.21613208803891" lon="10.170118848492002"><ele>433.00000000000006</ele><time>2026-03-28T13:56:57.999Z</time></trkpt><trkpt lat="46.21612452111052" lon="10.170218885664687"><ele>433.0</ele><time>2026-03-28T13:56:58.999Z</time></trkpt><trkpt lat="46.21612000513804" lon="10.170336892584668"><ele>433.0</ele><time>2026-03-28T13:56:59.999Z</time></trkpt><trkpt lat="46.216119048796955" lon="10.170456796582004"><ele>433.0</ele><time>2026-03-28T13:57:00.999Z</time></trkpt><trkpt lat="46.21611839194923" lon="10.170587766498556"><ele>433.00000000000006</ele><time>2026-03-28T13:57:01.999Z</time></trkpt><trkpt lat="46.216111232471775" lon="10.17069706017612"><ele>433.0</ele><time>2026-03-28T13:57:02.999Z</time></trkpt><trkpt lat="46.21609468350399" lon="10.1707953602203"><ele>433.2</ele><time>2026-03-28T13:57:03.999Z</time></trkpt><trkpt lat="46.216058251119016" lon="10.170930989260595"><ele>433.4</ele><time>2026-03-28T13:57:05.999Z</time></trkpt><trkpt lat="46.21599160212924" lon="10.17105096194066"><ele>433.59999999999997</ele><time>2026-03-28T13:57:07.999Z</time></trkpt><trkpt lat="46.215898172185774" lon="10.171165140382788"><ele>433.79999999999995</ele><time>2026-03-28T13:57:09.999Z</time></trkpt><trkpt lat="46.215842171692714" lon="10.171237901945904"><ele>434.0</ele><time>2026-03-28T13:57:11.999Z</time></trkpt><trkpt lat="46.21578320953118" lon="10.17130695750855"><ele>434.0</ele><time>2026-03-28T13:57:14.999Z</time></trkpt><trkpt lat="46.21571886580703" lon="10.171329801201551"><ele>434.0</ele><time>2026-03-28T13:57:19.999Z</time></trkpt><trkpt lat="46.21564957267956" lon="10.171467547460276"><ele>434.0</ele><time>2026-03-28T13:58:59.999Z</time></trkpt><trkpt lat="46.215551199708614" lon="10.171440345084884"><ele>434.0</ele><time>2026-03-28T14:00:38.999Z</time></trkpt><trkpt lat="46.21543600331781" lon="10.171836023689053"><ele>435.0</ele><time>2026-03-28T14:00:42.999Z</time></trkpt><trkpt lat="46.21539239804815" lon="10.171945213404689"><ele>436.0</ele><time>2026-03-28T14:00:52Z</time></trkpt><trkpt lat="46.21533136940476" lon="10.17210705055154"><ele>437.0</ele><time>2026-03-28T14:00:58Z</time></trkpt><trkpt lat="46.21540471209005" lon="10.171744770040155"><ele>437.0</ele><time>2026-03-28T14:01:00Z</time></trkpt><trkpt lat="46.21564605314347" lon="10.171446480687681"><ele>437.0</ele><time>2026-03-28T14:01:46.578Z</time></trkpt><trkpt lat="46.21558071479569" lon="10.171549855495309"><ele>437.0</ele><time>2026-03-28T14:02:21Z</time></trkpt><trkpt lat="46.2154672589663" lon="10.17158510768876"><ele>437.0</ele><time>2026-03-28T14:02:26Z</time></trkpt><trkpt lat="46.21544990713709" lon="10.17175408692819"><ele>437.0</ele><time>2026-03-28T14:02:27Z</time></trkpt><trkpt lat="46.21575034424092" lon="10.171302615596707"><ele>437.0</ele><time>2026-03-28T14:02:48.565Z</time></trkpt><trkpt lat="46.21565090558961" lon="10.171733782539354"><ele>437.0</ele><time>2026-03-28T14:04:25.999Z</time></trkpt><trkpt lat="46.21570174026923" lon="10.171662628326708"><ele>437.0</ele><time>2026-03-28T14:04:35.999Z</time></trkpt><trkpt lat="46.21567555474295" lon="10.17135450355632"><ele>436.25</ele><time>2026-03-28T14:05:03.587Z</time></trkpt><trkpt lat="46.21584396833436" lon="10.171522711954125"><ele>435.5</ele><time>2026-03-28T14:05:10Z</time></trkpt><trkpt lat="46.21574363041621" lon="10.171456334302613"><ele>434.75</ele><time>2026-03-28T14:05:15Z</time></trkpt><trkpt lat="46.21569567450183" lon="10.171372876315615"><ele>434.0</ele><time>2026-03-28T14:05:39Z</time></trkpt><trkpt lat="46.21575968724055" lon="10.171433967989394"><ele>433.99999999999994</ele><time>2026-03-28T14:05:55Z</time></trkpt><trkpt lat="46.21568987435635" lon="10.171473244197017"><ele>434.0</ele><time>2026-03-28T14:06:02Z</time></trkpt><trkpt lat="46.21564245523657" lon="10.171379567839233"><ele>434.0</ele><time>2026-03-28T14:06:29.999Z</time></trkpt><trkpt lat="46.21559916556385" lon="10.171534332089802"><ele>434.0</ele><time>2026-03-28T14:16:33.001Z</time></trkpt><trkpt lat="46.21565976421851" lon="10.171465388907343"><ele>433.99999999999994</ele><time>2026-03-28T14:17:17Z</time></trkpt><trkpt lat="46.21569786254554" lon="10.17136077522352"><ele>434.0</ele><time>2026-03-28T14:17:49Z</time></trkpt><trkpt lat="46.21567932952665" lon="10.171475116045325"><ele>434.6</ele><time>2026-03-28T14:17:58Z</time></trkpt><trkpt lat="46.21563151793701" lon="10.171560803481073"><ele>435.2</ele><time>2026-03-28T14:18:01Z</time></trkpt><trkpt lat="46.21556194210847" lon="10.171645161705033"><ele>435.80000000000007</ele><time>2026-03-28T14:18:03Z</time></trkpt><trkpt lat="46.21548422615221" lon="10.171733191865208"><ele>436.40000000000003</ele><time>2026-03-28T14:18:05Z</time></trkpt><trkpt lat="46.215385750189725" lon="10.171844247240376"><ele>437.0</ele><time>2026-03-28T14:18:07Z</time></trkpt><trkpt lat="46.21534129914225" lon="10.171917588315708"><ele>437.0</ele><time>2026-03-28T14:18:08Z</time></trkpt><trkpt lat="46.21528702215568" lon="10.171996574637577"><ele>437.00000000000006</ele><time>2026-03-28T14:18:09Z</time></trkpt><trkpt lat="46.21520521858739" lon="10.172045599101583"><ele>437.00000000000006</ele><time>2026-03-28T14:18:10Z</time></trkpt><trkpt lat="46.215135007122846" lon="10.172132441252417"><ele>437.0</ele><time>2026-03-28T14:18:11Z</time></trkpt><trkpt lat="46.21506215567644" lon="10.172254270161842"><ele>437.0</ele><time>2026-03-28T14:18:12Z</time></trkpt><trkpt lat="46.214974982427606" lon="10.172335344679636"><ele>437.0</ele><time>2026-03-28T14:18:13Z</time></trkpt><trkpt lat="46.21489680735638" lon="10.172445688781515"><ele>437.0</ele><time>2026-03-28T14:18:14Z</time></trkpt><trkpt lat="46.21481980341423" lon="10.172570567073096"><ele>437.0</ele><time>2026-03-28T14:18:15Z</time></trkpt><trkpt lat="46.21476013564735" lon="10.172708226073066"><ele>437.0</ele><time>2026-03-28T14:18:16Z</time></trkpt><trkpt lat="46.21469162388974" lon="10.172843566227145"><ele>437.0</ele><time>2026-03-28T14:18:17Z</time></trkpt><trkpt lat="46.21462746744551" lon="10.173001285663789"><ele>437.0</ele><time>2026-03-28T14:18:18Z</time></trkpt><trkpt lat="46.21456517836171" lon="10.173157595098246"><ele>437.0</ele><time>2026-03-28T14:18:19Z</time></trkpt><trkpt lat="46.21451567327944" lon="10.17332959168209"><ele>437.0</ele><time>2026-03-28T14:18:20Z</time></trkpt><trkpt lat="46.214479494537215" lon="10.173519041194238"><ele>437.75</ele><time>2026-03-28T14:18:21Z</time></trkpt><trkpt lat="46.214428082725355" lon="10.173724551849002"><ele>438.5</ele><time>2026-03-28T14:18:22Z</time></trkpt><trkpt lat="46.21436835312757" lon="10.173919542374177"><ele>439.25</ele><time>2026-03-28T14:18:23Z</time></trkpt><trkpt lat="46.21432464815654" lon="10.174101130677398"><ele>440.0</ele><time>2026-03-28T14:18:24Z</time></trkpt><trkpt lat="46.21427776019649" lon="10.174296069304065"><ele>440.0</ele><time>2026-03-28T14:18:25Z</time></trkpt><trkpt lat="46.214246779490296" lon="10.174481551844568"><ele>440.0</ele><time>2026-03-28T14:18:26Z</time></trkpt><trkpt lat="46.2142006897602" lon="10.1746488452578"><ele>440.0</ele><time>2026-03-28T14:18:27Z</time></trkpt><trkpt lat="46.21416310386315" lon="10.174817293017703"><ele>440.0</ele><time>2026-03-28T14:18:28Z</time></trkpt><trkpt lat="46.21411758875221" lon="10.175002665574292"><ele>440.0</ele><time>2026-03-28T14:18:29Z</time></trkpt><trkpt lat="46.214064657916964" lon="10.17516465217808"><ele>440.0</ele><time>2026-03-28T14:18:30Z</time></trkpt><trkpt lat="46.214026528067414" lon="10.175338153059002"><ele>440.0</ele><time>2026-03-28T14:18:31Z</time></trkpt><trkpt lat="46.213992933798785" lon="10.17551992385049"><ele>440.0</ele><time>2026-03-28T14:18:32Z</time></trkpt><trkpt lat="46.21394642718333" lon="10.175712772390163"><ele>441.75</ele><time>2026-03-28T14:18:33Z</time></trkpt><trkpt lat="46.21389855235012" lon="10.175899678015238"><ele>443.5</ele><time>2026-03-28T14:18:34Z</time></trkpt><trkpt lat="46.2138503312542" lon="10.17609516283795"><ele>445.25</ele><time>2026-03-28T14:18:35Z</time></trkpt><trkpt lat="46.213800997395374" lon="10.176315663576622"><ele>447.0</ele><time>2026-03-28T14:18:36Z</time></trkpt><trkpt lat="46.21376101598418" lon="10.176554771277303"><ele>447.0</ele><time>2026-03-28T14:18:37Z</time></trkpt><trkpt lat="46.213723704920355" lon="10.176763742918212"><ele>447.0</ele><time>2026-03-28T14:18:38Z</time></trkpt><trkpt lat="46.213635642558316" lon="10.176948540801709"><ele>447.0</ele><time>2026-03-28T14:18:39Z</time></trkpt><trkpt lat="46.21358989647633" lon="10.1771377939188"><ele>447.0</ele><time>2026-03-28T14:18:40Z</time></trkpt><trkpt lat="46.213544269674316" lon="10.177319399010017"><ele>447.66666666666663</ele><time>2026-03-28T14:18:41Z</time></trkpt><trkpt lat="46.21358242367361" lon="10.177581038481527"><ele>448.3333333333333</ele><time>2026-03-28T14:18:42Z</time></trkpt><trkpt lat="46.21343587391506" lon="10.177882272265915"><ele>449.0</ele><time>2026-03-28T14:18:43Z</time></trkpt><trkpt lat="46.213408489592055" lon="10.178140035120263"><ele>450.3333333333333</ele><time>2026-03-28T14:18:44Z</time></trkpt><trkpt lat="46.213393549534715" lon="10.178405284231095"><ele>451.66666666666663</ele><time>2026-03-28T14:18:45Z</time></trkpt><trkpt lat="46.21341272089968" lon="10.178668847630876"><ele>453.0</ele><time>2026-03-28T14:18:46Z</time></trkpt><trkpt lat="46.213459722685904" lon="10.178941993811247"><ele>455.33333333333337</ele><time>2026-03-28T14:18:47Z</time></trkpt><trkpt lat="46.21353263682516" lon="10.179208550691243"><ele>457.6666666666667</ele><time>2026-03-28T14:18:48Z</time></trkpt><trkpt lat="46.21362526591756" lon="10.179462346787192"><ele>460.0</ele><time>2026-03-28T14:18:49Z</time></trkpt><trkpt lat="46.213738199968134" lon="10.179694419288964"><ele>461.0</ele><time>2026-03-28T14:18:50Z</time></trkpt><trkpt lat="46.213871681225264" lon="10.17989393294335"><ele>462.0</ele><time>2026-03-28T14:18:51Z</time></trkpt><trkpt lat="46.21401906588187" lon="10.180086869694144"><ele>463.0</ele><time>2026-03-28T14:18:52Z</time></trkpt><trkpt lat="46.21419322827023" lon="10.180258037719815"><ele>463.0</ele><time>2026-03-28T14:18:53Z</time></trkpt><trkpt lat="46.2143737159419" lon="10.180432842986152"><ele>463.0</ele><time>2026-03-28T14:18:54Z</time></trkpt><trkpt lat="46.214549392877394" lon="10.180611419714342"><ele>463.0</ele><time>2026-03-28T14:18:55Z</time></trkpt><trkpt lat="46.21471009102403" lon="10.180785453983608"><ele>465.6666666666667</ele><time>2026-03-28T14:18:56Z</time></trkpt><trkpt lat="46.214858527212364" lon="10.180953395105016"><ele>468.33333333333337</ele><time>2026-03-28T14:18:57Z</time></trkpt><trkpt lat="46.215015516223836" lon="10.1811160503984"><ele>471.0</ele><time>2026-03-28T14:18:58Z</time></trkpt><trkpt lat="46.21517017743532" lon="10.181278019056164"><ele>471.0</ele><time>2026-03-28T14:18:59Z</time></trkpt><trkpt lat="46.215323731205984" lon="10.181442341149776"><ele>471.0</ele><time>2026-03-28T14:19:00Z</time></trkpt><trkpt lat="46.21547795188978" lon="10.18159560916626"><ele>471.0</ele><time>2026-03-28T14:19:01Z</time></trkpt><trkpt lat="46.21562909963371" lon="10.181760239214368"><ele>473.0</ele><time>2026-03-28T14:19:02Z</time></trkpt><trkpt lat="46.21578017125471" lon="10.181921308215838"><ele>475.0</ele><time>2026-03-28T14:19:03Z</time></trkpt><trkpt lat="46.21593754555074" lon="10.182096211889696"><ele>477.0</ele><time>2026-03-28T14:19:04Z</time></trkpt><trkpt lat="46.216088099297174" lon="10.182258913798469"><ele>478.75</ele><time>2026-03-28T14:19:05Z</time></trkpt><trkpt lat="46.21621642527538" lon="10.182405519038252"><ele>480.5</ele><time>2026-03-28T14:19:06Z</time></trkpt><trkpt lat="46.21633639410696" lon="10.182530244540494"><ele>482.25</ele><time>2026-03-28T14:19:07Z</time></trkpt><trkpt lat="46.21643813788794" lon="10.18264935344395"><ele>484.0</ele><time>2026-03-28T14:19:08Z</time></trkpt><trkpt lat="46.216534648462634" lon="10.182757374343193"><ele>484.0</ele><time>2026-03-28T14:19:09Z</time></trkpt><trkpt lat="46.21662572055004" lon="10.182857234979691"><ele>484.0</ele><time>2026-03-28T14:19:10Z</time></trkpt><trkpt lat="46.21673123034468" lon="10.182964907209056"><ele>484.0</ele><time>2026-03-28T14:19:11Z</time></trkpt><trkpt lat="46.216843417543586" lon="10.183107877455276"><ele>484.0</ele><time>2026-03-28T14:19:12Z</time></trkpt><trkpt lat="46.21696573348337" lon="10.183244530998445"><ele>486.6666666666667</ele><time>2026-03-28T14:19:13Z</time></trkpt><trkpt lat="46.21710721264854" lon="10.183386079525642"><ele>489.33333333333337</ele><time>2026-03-28T14:19:13.998Z</time></trkpt><trkpt lat="46.21725581811898" lon="10.183550068017794"><ele>492.0</ele><time>2026-03-28T14:19:14.998Z</time></trkpt><trkpt lat="46.21740014004623" lon="10.183724822733236"><ele>493.0</ele><time>2026-03-28T14:19:15.998Z</time></trkpt><trkpt lat="46.21754274898639" lon="10.183882280544351"><ele>494.0</ele><time>2026-03-28T14:19:16.998Z</time></trkpt><trkpt lat="46.217682121745995" lon="10.184014799255003"><ele>495.0</ele><time>2026-03-28T14:19:17.998Z</time></trkpt><trkpt lat="46.21780814206135" lon="10.184165882489054"><ele>497.33333333333337</ele><time>2026-03-28T14:19:18.998Z</time></trkpt><trkpt lat="46.21794276376594" lon="10.184312976497528"><ele>499.6666666666667</ele><time>2026-03-28T14:19:19.998Z</time></trkpt><trkpt lat="46.21809944188231" lon="10.184469108019398"><ele>502.0</ele><time>2026-03-28T14:19:20.998Z</time></trkpt><trkpt lat="46.21825809440345" lon="10.184653206242"><ele>504.33333333333337</ele><time>2026-03-28T14:19:21.998Z</time></trkpt><trkpt lat="46.21842757132733" lon="10.18485048351761"><ele>506.66666666666663</ele><time>2026-03-28T14:19:22.998Z</time></trkpt><trkpt lat="46.218592420841944" lon="10.185036692034245"><ele>509.0</ele><time>2026-03-28T14:19:23.998Z</time></trkpt><trkpt lat="46.218749242024586" lon="10.185212776321038"><ele>509.0</ele><time>2026-03-28T14:19:24.998Z</time></trkpt><trkpt lat="46.21889518364201" lon="10.185376092617142"><ele>509.0</ele><time>2026-03-28T14:19:25.998Z</time></trkpt><trkpt lat="46.21902789232905" lon="10.185522605235922"><ele>509.0</ele><time>2026-03-28T14:19:26.998Z</time></trkpt><trkpt lat="46.219147572220365" lon="10.18565623393108"><ele>510.75</ele><time>2026-03-28T14:19:27.998Z</time></trkpt><trkpt lat="46.219260610601395" lon="10.185779773897245"><ele>512.5</ele><time>2026-03-28T14:19:28.998Z</time></trkpt><trkpt lat="46.219371941134355" lon="10.185909853562512"><ele>514.25</ele><time>2026-03-28T14:19:29.998Z</time></trkpt><trkpt lat="46.219486523877414" lon="10.186033529936694"><ele>516.0</ele><time>2026-03-28T14:19:30.998Z</time></trkpt><trkpt lat="46.21959324474224" lon="10.186160291006216"><ele>516.0</ele><time>2026-03-28T14:19:31.998Z</time></trkpt><trkpt lat="46.219706463721934" lon="10.186289685842075"><ele>516.0</ele><time>2026-03-28T14:19:32.998Z</time></trkpt><trkpt lat="46.219826964099475" lon="10.186426307667633"><ele>516.0</ele><time>2026-03-28T14:19:33.998Z</time></trkpt><trkpt lat="46.219963762672386" lon="10.18657655187685"><ele>516.6666666666666</ele><time>2026-03-28T14:19:34.999Z</time></trkpt><trkpt lat="46.22010850443651" lon="10.186749544036855"><ele>517.3333333333333</ele><time>2026-03-28T14:19:35.999Z</time></trkpt><trkpt lat="46.22027358767635" lon="10.186934944268005"><ele>518.0</ele><time>2026-03-28T14:19:36.999Z</time></trkpt><trkpt lat="46.22045941879011" lon="10.187143645458345"><ele>519.5</ele><time>2026-03-28T14:19:37.999Z</time></trkpt><trkpt lat="46.220661859926004" lon="10.18735955658729"><ele>521.0</ele><time>2026-03-28T14:19:38.999Z</time></trkpt><trkpt lat="46.22086669069331" lon="10.187604906325195"><ele>521.0</ele><time>2026-03-28T14:19:39.999Z</time></trkpt><trkpt lat="46.22108474498451" lon="10.187847236630505"><ele>521.0</ele><time>2026-03-28T14:19:40.999Z</time></trkpt><trkpt lat="46.221312617722134" lon="10.188095045977883"><ele>523.5</ele><time>2026-03-28T14:19:41.999Z</time></trkpt><trkpt lat="46.22153398854582" lon="10.188346161750287"><ele>526.0</ele><time>2026-03-28T14:19:42.999Z</time></trkpt><trkpt lat="46.22175725181757" lon="10.188602683491622"><ele>526.0</ele><time>2026-03-28T14:19:43.999Z</time></trkpt><trkpt lat="46.22198123201557" lon="10.188850551091784"><ele>526.0</ele><time>2026-03-28T14:19:44.999Z</time></trkpt><trkpt lat="46.222196297436575" lon="10.18908250636076"><ele>530.0</ele><time>2026-03-28T14:19:45.999Z</time></trkpt><trkpt lat="46.22240453015404" lon="10.189303682558531"><ele>534.0</ele><time>2026-03-28T14:19:46.999Z</time></trkpt><trkpt lat="46.22260654938637" lon="10.189509175890214"><ele>534.0</ele><time>2026-03-28T14:19:47.999Z</time></trkpt><trkpt lat="46.22279491468572" lon="10.189709920553222"><ele>534.0</ele><time>2026-03-28T14:19:48.999Z</time></trkpt><trkpt lat="46.22299469609735" lon="10.189897862714615"><ele>536.0</ele><time>2026-03-28T14:19:49.999Z</time></trkpt><trkpt lat="46.22317760189113" lon="10.190088147798452"><ele>538.0</ele><time>2026-03-28T14:19:50.999Z</time></trkpt><trkpt lat="46.2233550235821" lon="10.190268207209499"><ele>540.0</ele><time>2026-03-28T14:19:51.999Z</time></trkpt><trkpt lat="46.22351184867902" lon="10.190444601648508"><ele>540.0</ele><time>2026-03-28T14:19:52.999Z</time></trkpt><trkpt lat="46.22366033951876" lon="10.190635617458994"><ele>540.0</ele><time>2026-03-28T14:19:53.999Z</time></trkpt><trkpt lat="46.223769223732205" lon="10.190887002257002"><ele>540.0</ele><time>2026-03-28T14:19:54.999Z</time></trkpt><trkpt lat="46.22385773971879" lon="10.191141878774763"><ele>541.6666666666666</ele><time>2026-03-28T14:19:55.999Z</time></trkpt><trkpt lat="46.223937619894315" lon="10.19142020956587"><ele>543.3333333333333</ele><time>2026-03-28T14:19:56.999Z</time></trkpt><trkpt lat="46.22403362095269" lon="10.191703858398611"><ele>545.0</ele><time>2026-03-28T14:19:57.999Z</time></trkpt><trkpt lat="46.22413129998012" lon="10.191979889980276"><ele>545.3333333333333</ele><time>2026-03-28T14:19:58.999Z</time></trkpt><trkpt lat="46.22426371089279" lon="10.192224475425022"><ele>545.6666666666666</ele><time>2026-03-28T14:19:59.999Z</time></trkpt><trkpt lat="46.22442675533557" lon="10.192444249877497"><ele>546.0</ele><time>2026-03-28T14:20:00.999Z</time></trkpt><trkpt lat="46.22458756120839" lon="10.192643671743758"><ele>546.0</ele><time>2026-03-28T14:20:01.999Z</time></trkpt><trkpt lat="46.22475546589947" lon="10.19284429208571"><ele>546.0</ele><time>2026-03-28T14:20:02.999Z</time></trkpt><trkpt lat="46.22488291579152" lon="10.193070241772961"><ele>546.0</ele><time>2026-03-28T14:20:03.999Z</time></trkpt><trkpt lat="46.224993600868075" lon="10.193303334814374"><ele>546.0</ele><time>2026-03-28T14:20:04.999Z</time></trkpt><trkpt lat="46.22511454771073" lon="10.19361994214409"><ele>546.0</ele><time>2026-03-28T14:20:05.999Z</time></trkpt><trkpt lat="46.225210422148734" lon="10.193888363405483"><ele>549.0</ele><time>2026-03-28T14:20:06.999Z</time></trkpt><trkpt lat="46.22530890656755" lon="10.194164148917533"><ele>552.0</ele><time>2026-03-28T14:20:07.999Z</time></trkpt><trkpt lat="46.22540318666939" lon="10.19442680055212"><ele>555.0</ele><time>2026-03-28T14:20:08.999Z</time></trkpt><trkpt lat="46.22549609826111" lon="10.194682220786493"><ele>557.0</ele><time>2026-03-28T14:20:09.999Z</time></trkpt><trkpt lat="46.225582243981954" lon="10.194927528008293"><ele>559.0</ele><time>2026-03-28T14:20:10.999Z</time></trkpt><trkpt lat="46.225654465755355" lon="10.195180504304934"><ele>561.0</ele><time>2026-03-28T14:20:11.999Z</time></trkpt><trkpt lat="46.22569801469628" lon="10.195441716530812"><ele>556.6666666666666</ele><time>2026-03-28T14:20:12.999Z</time></trkpt><trkpt lat="46.22571554759547" lon="10.195689877444158"><ele>552.3333333333333</ele><time>2026-03-28T14:20:13.999Z</time></trkpt><trkpt lat="46.22571825057409" lon="10.195941733828588"><ele>548.0</ele><time>2026-03-28T14:20:15Z</time></trkpt><trkpt lat="46.22571412406583" lon="10.196193899879635"><ele>548.0</ele><time>2026-03-28T14:20:16Z</time></trkpt><trkpt lat="46.22571635390019" lon="10.196448158655826"><ele>548.0</ele><time>2026-03-28T14:20:17Z</time></trkpt><trkpt lat="46.22574147561792" lon="10.196679138824397"><ele>548.0</ele><time>2026-03-28T14:20:18Z</time></trkpt><trkpt lat="46.22579211467249" lon="10.196890804538558"><ele>549.6666666666666</ele><time>2026-03-28T14:20:19Z</time></trkpt><trkpt lat="46.22581615390079" lon="10.19710269912815"><ele>551.3333333333334</ele><time>2026-03-28T14:20:20Z</time></trkpt><trkpt lat="46.22594774874094" lon="10.197285738145748"><ele>553.0</ele><time>2026-03-28T14:20:21Z</time></trkpt><trkpt lat="46.22605895255872" lon="10.197445777125129"><ele>555.0</ele><time>2026-03-28T14:20:22Z</time></trkpt><trkpt lat="46.2262016512303" lon="10.197566808224394"><ele>557.0</ele><time>2026-03-28T14:20:23Z</time></trkpt><trkpt lat="46.22635286197736" lon="10.1976793586989"><ele>559.0</ele><time>2026-03-28T14:20:24Z</time></trkpt><trkpt lat="46.226529752118495" lon="10.197793135592255"><ele>552.3333333333334</ele><time>2026-03-28T14:20:25Z</time></trkpt><trkpt lat="46.226698029409825" lon="10.197906572911386"><ele>545.6666666666666</ele><time>2026-03-28T14:20:26Z</time></trkpt><trkpt lat="46.22685553576206" lon="10.198015193813145"><ele>539.0</ele><time>2026-03-28T14:20:27Z</time></trkpt><trkpt lat="46.227002039548545" lon="10.198125028624148"><ele>541.3333333333333</ele><time>2026-03-28T14:20:28Z</time></trkpt><trkpt lat="46.22714594011522" lon="10.19824038320497"><ele>543.6666666666666</ele><time>2026-03-28T14:20:29Z</time></trkpt><trkpt lat="46.22726537568704" lon="10.198379387698854"><ele>546.0</ele><time>2026-03-28T14:20:30Z</time></trkpt><trkpt lat="46.227350420270625" lon="10.198569631659478"><ele>546.0</ele><time>2026-03-28T14:20:31Z</time></trkpt><trkpt lat="46.2274326517163" lon="10.198766110156358"><ele>546.0</ele><time>2026-03-28T14:20:32Z</time></trkpt><trkpt lat="46.227507262849706" lon="10.198991351621464"><ele>546.0</ele><time>2026-03-28T14:20:33Z</time></trkpt><trkpt lat="46.22757866275373" lon="10.199224117262613"><ele>548.6666666666666</ele><time>2026-03-28T14:20:34Z</time></trkpt><trkpt lat="46.22764378513126" lon="10.199443550534227"><ele>551.3333333333333</ele><time>2026-03-28T14:20:35Z</time></trkpt><trkpt lat="46.22770926162996" lon="10.199665506563434"><ele>554.0</ele><time>2026-03-28T14:20:36Z</time></trkpt><trkpt lat="46.22778210089105" lon="10.199857339393061"><ele>556.3333333333333</ele><time>2026-03-28T14:20:37Z</time></trkpt><trkpt lat="46.227823509346386" lon="10.200076371851763"><ele>558.6666666666666</ele><time>2026-03-28T14:20:38Z</time></trkpt><trkpt lat="46.22785913978138" lon="10.20029108217238"><ele>561.0</ele><time>2026-03-28T14:20:39Z</time></trkpt><trkpt lat="46.22789086006204" lon="10.200536611474954"><ele>563.6666666666666</ele><time>2026-03-28T14:20:40Z</time></trkpt><trkpt lat="46.22793532269803" lon="10.2007860340808"><ele>566.3333333333333</ele><time>2026-03-28T14:20:41Z</time></trkpt><trkpt lat="46.22795349119372" lon="10.201060819475517"><ele>569.0</ele><time>2026-03-28T14:20:42Z</time></trkpt><trkpt lat="46.2279852472471" lon="10.201326610304324"><ele>570.6666666666666</ele><time>2026-03-28T14:20:43Z</time></trkpt><trkpt lat="46.22801680151797" lon="10.201590712111384"><ele>572.3333333333334</ele><time>2026-03-28T14:20:44Z</time></trkpt><trkpt lat="46.228053251052934" lon="10.20185053163531"><ele>574.0</ele><time>2026-03-28T14:20:45Z</time></trkpt><trkpt lat="46.228111236546454" lon="10.202108019607216"><ele>558.6666666666667</ele><time>2026-03-28T14:20:46Z</time></trkpt><trkpt lat="46.22817323397797" lon="10.202362336100926"><ele>543.3333333333334</ele><time>2026-03-28T14:20:47Z</time></trkpt><trkpt lat="46.22825122866864" lon="10.202601152935713"><ele>528.0</ele><time>2026-03-28T14:20:48Z</time></trkpt><trkpt lat="46.22837722115848" lon="10.20282596001464"><ele>528.0</ele><time>2026-03-28T14:20:49Z</time></trkpt><trkpt lat="46.22848806950278" lon="10.203073931306966"><ele>528.0</ele><time>2026-03-28T14:20:50Z</time></trkpt><trkpt lat="46.22860694299294" lon="10.203302888133653"><ele>528.0</ele><time>2026-03-28T14:20:51Z</time></trkpt><trkpt lat="46.228719610403026" lon="10.203517898232377"><ele>526.3333333333334</ele><time>2026-03-28T14:20:52Z</time></trkpt><trkpt lat="46.22884279634187" lon="10.203710158045702"><ele>524.6666666666667</ele><time>2026-03-28T14:20:53Z</time></trkpt><trkpt lat="46.22894012568882" lon="10.203902092874724"><ele>523.0</ele><time>2026-03-28T14:20:54Z</time></trkpt><trkpt lat="46.229042444489345" lon="10.204104815081664"><ele>523.0</ele><time>2026-03-28T14:20:55Z</time></trkpt><trkpt lat="46.22913920387867" lon="10.204301068646956"><ele>523.0</ele><time>2026-03-28T14:20:56Z</time></trkpt><trkpt lat="46.22923359438779" lon="10.20449705703563"><ele>523.0</ele><time>2026-03-28T14:20:57Z</time></trkpt><trkpt lat="46.229316703509284" lon="10.2046996858824"><ele>525.3333333333334</ele><time>2026-03-28T14:20:58Z</time></trkpt><trkpt lat="46.2293916368773" lon="10.20491006370467"><ele>527.6666666666666</ele><time>2026-03-28T14:20:59Z</time></trkpt><trkpt lat="46.22944422878232" lon="10.205139399008038"><ele>530.0</ele><time>2026-03-28T14:21:00Z</time></trkpt><trkpt lat="46.229497957165165" lon="10.205364490817075"><ele>530.0</ele><time>2026-03-28T14:21:01Z</time></trkpt><trkpt lat="46.2295435244043" lon="10.205587826182278"><ele>530.0</ele><time>2026-03-28T14:21:02Z</time></trkpt><trkpt lat="46.22958863782378" lon="10.205812240238098"><ele>530.0</ele><time>2026-03-28T14:21:03Z</time></trkpt><trkpt lat="46.229636698085685" lon="10.20601867503646"><ele>530.6666666666666</ele><time>2026-03-28T14:21:04Z</time></trkpt><trkpt lat="46.22967990414874" lon="10.206225372789543"><ele>531.3333333333334</ele><time>2026-03-28T14:21:05Z</time></trkpt><trkpt lat="46.22972307343635" lon="10.206437789867127"><ele>532.0</ele><time>2026-03-28T14:21:06Z</time></trkpt><trkpt lat="46.22976720847135" lon="10.206658429589378"><ele>529.0</ele><time>2026-03-28T14:21:07Z</time></trkpt><trkpt lat="46.229814446319814" lon="10.206880814627713"><ele>526.0</ele><time>2026-03-28T14:21:08Z</time></trkpt><trkpt lat="46.22985888311185" lon="10.20710666777794"><ele>523.0</ele><time>2026-03-28T14:21:09Z</time></trkpt><trkpt lat="46.22991250451271" lon="10.207336884730324"><ele>523.0</ele><time>2026-03-28T14:21:10Z</time></trkpt><trkpt lat="46.22996389297763" lon="10.207578331818464"><ele>523.0</ele><time>2026-03-28T14:21:11Z</time></trkpt><trkpt lat="46.23000656306826" lon="10.207841701676799"><ele>523.0</ele><time>2026-03-28T14:21:12Z</time></trkpt><trkpt lat="46.23006831424422" lon="10.208138784632714"><ele>525.0</ele><time>2026-03-28T14:21:13Z</time></trkpt><trkpt lat="46.230141158274144" lon="10.208491918488969"><ele>527.0</ele><time>2026-03-28T14:21:14Z</time></trkpt><trkpt lat="46.230218033028684" lon="10.208869173352468"><ele>528.5</ele><time>2026-03-28T14:21:15Z</time></trkpt><trkpt lat="46.230293080819386" lon="10.209270957873459"><ele>530.0</ele><time>2026-03-28T14:21:16Z</time></trkpt><trkpt lat="46.230359071202734" lon="10.20965788861028"><ele>530.0</ele><time>2026-03-28T14:21:17Z</time></trkpt><trkpt lat="46.23041762988552" lon="10.21004275547531"><ele>530.0</ele><time>2026-03-28T14:21:18Z</time></trkpt><trkpt lat="46.23047684350207" lon="10.210447970733615"><ele>531.0</ele><time>2026-03-28T14:21:19Z</time></trkpt><trkpt lat="46.230566465026456" lon="10.21086983506754"><ele>532.0</ele><time>2026-03-28T14:21:19.997Z</time></trkpt><trkpt lat="46.230632386919595" lon="10.21131542646108"><ele>526.5</ele><time>2026-03-28T14:21:20.997Z</time></trkpt><trkpt lat="46.230687473411855" lon="10.211763292987571"><ele>521.0</ele><time>2026-03-28T14:21:21.997Z</time></trkpt><trkpt lat="46.230738016287134" lon="10.212198205827605"><ele>521.0</ele><time>2026-03-28T14:21:22.997Z</time></trkpt><trkpt lat="46.230789481887975" lon="10.212622550803678"><ele>521.0</ele><time>2026-03-28T14:21:23.998Z</time></trkpt><trkpt lat="46.230843535676684" lon="10.213034250397298"><ele>522.0</ele><time>2026-03-28T14:21:24.998Z</time></trkpt><trkpt lat="46.23089114745541" lon="10.21342939303434"><ele>523.0</ele><time>2026-03-28T14:21:25.998Z</time></trkpt><trkpt lat="46.230934204989005" lon="10.213812012914369"><ele>524.0</ele><time>2026-03-28T14:21:26.998Z</time></trkpt><trkpt lat="46.230977214142385" lon="10.214190483779158"><ele>525.0</ele><time>2026-03-28T14:21:27.998Z</time></trkpt><trkpt lat="46.23101867633899" lon="10.214572505987208"><ele>524.5</ele><time>2026-03-28T14:21:28.998Z</time></trkpt><trkpt lat="46.23104966166354" lon="10.214921775824635"><ele>524.0</ele><time>2026-03-28T14:21:29.998Z</time></trkpt><trkpt lat="46.23108345272957" lon="10.21528247414197"><ele>524.0</ele><time>2026-03-28T14:21:30.998Z</time></trkpt><trkpt lat="46.23112050431337" lon="10.21565199448737"><ele>524.0</ele><time>2026-03-28T14:21:31.998Z</time></trkpt><trkpt lat="46.23112665513995" lon="10.216036213662251"><ele>524.3333333333333</ele><time>2026-03-28T14:21:32.998Z</time></trkpt><trkpt lat="46.23114894111913" lon="10.216348204567767"><ele>524.6666666666666</ele><time>2026-03-28T14:21:33.998Z</time></trkpt><trkpt lat="46.23118485970386" lon="10.216654781988346"><ele>525.0</ele><time>2026-03-28T14:21:34.998Z</time></trkpt><trkpt lat="46.23120002523661" lon="10.216967208110988"><ele>525.3333333333334</ele><time>2026-03-28T14:21:35.998Z</time></trkpt><trkpt lat="46.231210727270785" lon="10.217267674698396"><ele>525.6666666666667</ele><time>2026-03-28T14:21:36.998Z</time></trkpt><trkpt lat="46.231226594818814" lon="10.217559995717773"><ele>526.0</ele><time>2026-03-28T14:21:37.998Z</time></trkpt><trkpt lat="46.23123990925393" lon="10.217868384445927"><ele>524.6666666666667</ele><time>2026-03-28T14:21:38.998Z</time></trkpt><trkpt lat="46.23124610738475" lon="10.218193349537533"><ele>523.3333333333334</ele><time>2026-03-28T14:21:39.999Z</time></trkpt><trkpt lat="46.231260825202874" lon="10.218508906186019"><ele>522.0</ele><time>2026-03-28T14:21:40.999Z</time></trkpt><trkpt lat="46.231272220987776" lon="10.218836410601904"><ele>522.3333333333334</ele><time>2026-03-28T14:21:41.999Z</time></trkpt><trkpt lat="46.231287498074735" lon="10.21915076179439"><ele>522.6666666666667</ele><time>2026-03-28T14:21:42.999Z</time></trkpt><trkpt lat="46.231297566127424" lon="10.219468757892608"><ele>523.0</ele><time>2026-03-28T14:21:43.999Z</time></trkpt><trkpt lat="46.23131319511496" lon="10.219781411361081"><ele>523.3333333333334</ele><time>2026-03-28T14:21:44.999Z</time></trkpt><trkpt lat="46.23133111175814" lon="10.220094398836064"><ele>523.6666666666666</ele><time>2026-03-28T14:21:45.999Z</time></trkpt><trkpt lat="46.23135494352805" lon="10.22042274176142"><ele>524.0</ele><time>2026-03-28T14:21:46.999Z</time></trkpt><trkpt lat="46.231386505281" lon="10.22074879587599"><ele>524.5</ele><time>2026-03-28T14:21:47.999Z</time></trkpt><trkpt lat="46.23142906897471" lon="10.22107099581615"><ele>525.0</ele><time>2026-03-28T14:21:48.999Z</time></trkpt><trkpt lat="46.231476658250784" lon="10.221391066959146"><ele>515.5</ele><time>2026-03-28T14:21:49.999Z</time></trkpt><trkpt lat="46.231535179729086" lon="10.221710638240479"><ele>506.0</ele><time>2026-03-28T14:21:50.999Z</time></trkpt><trkpt lat="46.231598117976965" lon="10.222041650253946"><ele>505.0</ele><time>2026-03-28T14:21:51.999Z</time></trkpt><trkpt lat="46.23168206281864" lon="10.222356658551526"><ele>504.0</ele><time>2026-03-28T14:21:52.999Z</time></trkpt><trkpt lat="46.231779110824085" lon="10.222668099126183"><ele>504.0</ele><time>2026-03-28T14:21:53.999Z</time></trkpt><trkpt lat="46.231887033308766" lon="10.22297577953087"><ele>504.0</ele><time>2026-03-28T14:21:54.999Z</time></trkpt><trkpt lat="46.231999612015706" lon="10.22325366061672"><ele>503.5</ele><time>2026-03-28T14:21:55.999Z</time></trkpt><trkpt lat="46.232114296124905" lon="10.223540701621346"><ele>503.0</ele><time>2026-03-28T14:21:56.999Z</time></trkpt><trkpt lat="46.2322429263893" lon="10.22381968874622"><ele>501.5</ele><time>2026-03-28T14:21:57.999Z</time></trkpt><trkpt lat="46.232375849121446" lon="10.224097456067026"><ele>500.0</ele><time>2026-03-28T14:21:58.999Z</time></trkpt><trkpt lat="46.23251514002365" lon="10.224360432078967"><ele>500.0</ele><time>2026-03-28T14:21:59.999Z</time></trkpt><trkpt lat="46.232661293504535" lon="10.224615266074581"><ele>500.0</ele><time>2026-03-28T14:22:00.999Z</time></trkpt><trkpt lat="46.23281856369578" lon="10.224865369348976"><ele>500.0</ele><time>2026-03-28T14:22:01.999Z</time></trkpt><trkpt lat="46.23298597550906" lon="10.225108673172912"><ele>500.0</ele><time>2026-03-28T14:22:02.999Z</time></trkpt><trkpt lat="46.23315852388872" lon="10.225336339293726"><ele>500.0</ele><time>2026-03-28T14:22:03.999Z</time></trkpt><trkpt lat="46.233342227137854" lon="10.225548428126535"><ele>500.0</ele><time>2026-03-28T14:22:04.999Z</time></trkpt><trkpt lat="46.233552194312985" lon="10.225754978932892"><ele>499.5</ele><time>2026-03-28T14:22:05.999Z</time></trkpt><trkpt lat="46.233785579663945" lon="10.225961816154653"><ele>499.0</ele><time>2026-03-28T14:22:06.999Z</time></trkpt><trkpt lat="46.234033705959426" lon="10.226161048569775"><ele>500.0</ele><time>2026-03-28T14:22:08Z</time></trkpt><trkpt lat="46.23429279619377" lon="10.226390714223689"><ele>501.0</ele><time>2026-03-28T14:22:09Z</time></trkpt><trkpt lat="46.23455702206745" lon="10.22663966725615"><ele>502.5</ele><time>2026-03-28T14:22:10Z</time></trkpt><trkpt lat="46.23481388305925" lon="10.226881554135936"><ele>504.0</ele><time>2026-03-28T14:22:11Z</time></trkpt><trkpt lat="46.23505223888474" lon="10.227120567271635"><ele>505.5</ele><time>2026-03-28T14:22:12Z</time></trkpt><trkpt lat="46.23528355082313" lon="10.227355217476358"><ele>507.0</ele><time>2026-03-28T14:22:13Z</time></trkpt><trkpt lat="46.235509263444115" lon="10.227582273598854"><ele>506.0</ele><time>2026-03-28T14:22:14Z</time></trkpt><trkpt lat="46.23571450764729" lon="10.227791220726308"><ele>505.0</ele><time>2026-03-28T14:22:15Z</time></trkpt><trkpt lat="46.23592994807416" lon="10.228008706586538"><ele>504.5</ele><time>2026-03-28T14:22:16Z</time></trkpt><trkpt lat="46.23615046562861" lon="10.228247713149646"><ele>504.0</ele><time>2026-03-28T14:22:17Z</time></trkpt><trkpt lat="46.23637702193454" lon="10.228503445107116"><ele>504.0</ele><time>2026-03-28T14:22:18Z</time></trkpt><trkpt lat="46.23661247799036" lon="10.22878089609317"><ele>504.0</ele><time>2026-03-28T14:22:19Z</time></trkpt><trkpt lat="46.236857422773944" lon="10.229081001603053"><ele>504.5</ele><time>2026-03-28T14:22:20Z</time></trkpt><trkpt lat="46.23711243842985" lon="10.229396247321983"><ele>505.0</ele><time>2026-03-28T14:22:21Z</time></trkpt><trkpt lat="46.23738289784913" lon="10.229708589787071"><ele>506.0</ele><time>2026-03-28T14:22:22Z</time></trkpt><trkpt lat="46.23766085636454" lon="10.230029994533734"><ele>507.0</ele><time>2026-03-28T14:22:23Z</time></trkpt><trkpt lat="46.237942669549504" lon="10.230359371798986"><ele>507.5</ele><time>2026-03-28T14:22:24Z</time></trkpt><trkpt lat="46.238233443504924" lon="10.230698656556582"><ele>508.0</ele><time>2026-03-28T14:22:25Z</time></trkpt><trkpt lat="46.238525121138146" lon="10.23104530940162"><ele>508.0</ele><time>2026-03-28T14:22:26Z</time></trkpt><trkpt lat="46.23882171148863" lon="10.2313951852582"><ele>508.0</ele><time>2026-03-28T14:22:27Z</time></trkpt><trkpt lat="46.239124695877905" lon="10.231751828919588"><ele>508.5</ele><time>2026-03-28T14:22:28Z</time></trkpt><trkpt lat="46.23941317859612" lon="10.232087877011303"><ele>509.0</ele><time>2026-03-28T14:22:29Z</time></trkpt><trkpt lat="46.23967942349689" lon="10.23239779185658"><ele>510.0</ele><time>2026-03-28T14:22:30Z</time></trkpt><trkpt lat="46.239935816693524" lon="10.232695952414467"><ele>511.0</ele><time>2026-03-28T14:22:31Z</time></trkpt><trkpt lat="46.24019102134297" lon="10.23299294187746"><ele>511.5</ele><time>2026-03-28T14:22:32Z</time></trkpt><trkpt lat="46.24043832102294" lon="10.233278270696376"><ele>512.0</ele><time>2026-03-28T14:22:33Z</time></trkpt><trkpt lat="46.240679279275064" lon="10.23354717760213"><ele>512.0</ele><time>2026-03-28T14:22:34Z</time></trkpt><trkpt lat="46.240925124645884" lon="10.233819831354584"><ele>512.0</ele><time>2026-03-28T14:22:35Z</time></trkpt><trkpt lat="46.2411762564017" lon="10.234103295342686"><ele>512.0</ele><time>2026-03-28T14:22:36Z</time></trkpt><trkpt lat="46.24143073989161" lon="10.234392846774744"><ele>512.0</ele><time>2026-03-28T14:22:37Z</time></trkpt><trkpt lat="46.24168196261398" lon="10.234680461497629"><ele>512.0</ele><time>2026-03-28T14:22:38Z</time></trkpt><trkpt lat="46.241935869078794" lon="10.234970264349716"><ele>512.0</ele><time>2026-03-28T14:22:39Z</time></trkpt><trkpt lat="46.2421887816609" lon="10.235264112640346"><ele>513.0</ele><time>2026-03-28T14:22:40Z</time></trkpt><trkpt lat="46.24244377802495" lon="10.235554211626896"><ele>514.0</ele><time>2026-03-28T14:22:41Z</time></trkpt><trkpt lat="46.24269976032922" lon="10.23583802442225"><ele>515.0</ele><time>2026-03-28T14:22:42Z</time></trkpt><trkpt lat="46.242962167821275" lon="10.236110362917586"><ele>516.0</ele><time>2026-03-28T14:22:43Z</time></trkpt><trkpt lat="46.243233275144696" lon="10.236380699821424"><ele>516.5</ele><time>2026-03-28T14:22:44Z</time></trkpt><trkpt lat="46.24351245806657" lon="10.236656616009698"><ele>517.0</ele><time>2026-03-28T14:22:45Z</time></trkpt><trkpt lat="46.24379835256071" lon="10.236933154206334"><ele>517.5</ele><time>2026-03-28T14:22:46Z</time></trkpt><trkpt lat="46.244087193277934" lon="10.237210911783738"><ele>518.0</ele><time>2026-03-28T14:22:47Z</time></trkpt><trkpt lat="46.24437739462791" lon="10.237487810231148"><ele>518.5</ele><time>2026-03-28T14:22:48Z</time></trkpt><trkpt lat="46.244664367891176" lon="10.237754221923307"><ele>519.0</ele><time>2026-03-28T14:22:49Z</time></trkpt><trkpt lat="46.2449570170399" lon="10.238008851221402"><ele>519.5</ele><time>2026-03-28T14:22:50Z</time></trkpt><trkpt lat="46.245244389356714" lon="10.238258660077761"><ele>520.0</ele><time>2026-03-28T14:22:51Z</time></trkpt><trkpt lat="46.24553340814858" lon="10.23850920569622"><ele>520.0</ele><time>2026-03-28T14:22:52Z</time></trkpt><trkpt lat="46.24581770156314" lon="10.238749233424622"><ele>520.0</ele><time>2026-03-28T14:22:53Z</time></trkpt><trkpt lat="46.24610952664765" lon="10.238981953517946"><ele>520.0</ele><time>2026-03-28T14:22:54Z</time></trkpt><trkpt lat="46.24639559667704" lon="10.239231278184356"><ele>520.0</ele><time>2026-03-28T14:22:55Z</time></trkpt><trkpt lat="46.246698954590634" lon="10.239474890926774"><ele>520.5</ele><time>2026-03-28T14:22:56Z</time></trkpt><trkpt lat="46.24699618549209" lon="10.239712403689428"><ele>521.0</ele><time>2026-03-28T14:22:57Z</time></trkpt><trkpt lat="46.24728899229198" lon="10.239946412966344"><ele>522.0</ele><time>2026-03-28T14:22:58Z</time></trkpt><trkpt lat="46.24757836115095" lon="10.240158416624787"><ele>523.0</ele><time>2026-03-28T14:22:59Z</time></trkpt><trkpt lat="46.24784580885744" lon="10.240386775549203"><ele>523.0</ele><time>2026-03-28T14:23:00.001Z</time></trkpt><trkpt lat="46.24811498141816" lon="10.240613261701538"><ele>523.0</ele><time>2026-03-28T14:23:01.001Z</time></trkpt><trkpt lat="46.24838602365307" lon="10.240832594690874"><ele>522.5</ele><time>2026-03-28T14:23:02.001Z</time></trkpt><trkpt lat="46.248656425376254" lon="10.241052548118612"><ele>522.0</ele><time>2026-03-28T14:23:03.001Z</time></trkpt><trkpt lat="46.24893198128887" lon="10.24127247099479"><ele>524.0</ele><time>2026-03-28T14:23:04.001Z</time></trkpt><trkpt lat="46.24920328937929" lon="10.241494377301986"><ele>526.0</ele><time>2026-03-28T14:23:05.001Z</time></trkpt><trkpt lat="46.24947650308641" lon="10.241716855712152"><ele>526.0</ele><time>2026-03-28T14:23:06.001Z</time></trkpt><trkpt lat="46.24974372219627" lon="10.241941487663965"><ele>526.0</ele><time>2026-03-28T14:23:07.001Z</time></trkpt><trkpt lat="46.25000746780089" lon="10.24216558071476"><ele>526.5</ele><time>2026-03-28T14:23:08.001Z</time></trkpt><trkpt lat="46.250269602876514" lon="10.242386712756298"><ele>527.0</ele><time>2026-03-28T14:23:09.001Z</time></trkpt><trkpt lat="46.25053409852325" lon="10.24261037477154"><ele>528.0</ele><time>2026-03-28T14:23:10.001Z</time></trkpt><trkpt lat="46.25080197989725" lon="10.242838293809177"><ele>529.0</ele><time>2026-03-28T14:23:11.001Z</time></trkpt><trkpt lat="46.25107055080407" lon="10.243073546789068"><ele>528.5</ele><time>2026-03-28T14:23:12.001Z</time></trkpt><trkpt lat="46.251339066030106" lon="10.243310733263502"><ele>528.0</ele><time>2026-03-28T14:23:13.001Z</time></trkpt><trkpt lat="46.25160696526383" lon="10.243552764713973"><ele>529.5</ele><time>2026-03-28T14:23:14.001Z</time></trkpt><trkpt lat="46.25187669084688" lon="10.243801152849423"><ele>531.0</ele><time>2026-03-28T14:23:15.001Z</time></trkpt><trkpt lat="46.252145055574886" lon="10.24405632107769"><ele>533.0</ele><time>2026-03-28T14:23:16.001Z</time></trkpt><trkpt lat="46.25241442987446" lon="10.24431907189275"><ele>535.0</ele><time>2026-03-28T14:23:17.001Z</time></trkpt><trkpt lat="46.25268268457521" lon="10.24458486886836"><ele>534.0</ele><time>2026-03-28T14:23:18.001Z</time></trkpt><trkpt lat="46.252948995394426" lon="10.244852334347994"><ele>533.0</ele><time>2026-03-28T14:23:19.001Z</time></trkpt><trkpt lat="46.25321577369449" lon="10.24512187623391"><ele>533.0</ele><time>2026-03-28T14:23:20.001Z</time></trkpt><trkpt lat="46.25348198851132" lon="10.245392701007386"><ele>533.0</ele><time>2026-03-28T14:23:21.001Z</time></trkpt><trkpt lat="46.25374564299202" lon="10.245669846493163"><ele>535.5</ele><time>2026-03-28T14:23:22.001Z</time></trkpt><trkpt lat="46.25400685595971" lon="10.245952149515622"><ele>538.0</ele><time>2026-03-28T14:23:23.001Z</time></trkpt><trkpt lat="46.25426759576006" lon="10.246236872300834"><ele>538.0</ele><time>2026-03-28T14:23:24.001Z</time></trkpt><trkpt lat="46.25452623168105" lon="10.246523390612747"><ele>538.0</ele><time>2026-03-28T14:23:25.001Z</time></trkpt><trkpt lat="46.25478644273785" lon="10.246812901790891"><ele>538.0</ele><time>2026-03-28T14:23:25.999Z</time></trkpt><trkpt lat="46.25505307918076" lon="10.24710700752294"><ele>538.0</ele><time>2026-03-28T14:23:26.999Z</time></trkpt><trkpt lat="46.25531728378597" lon="10.247402445168515"><ele>538.0</ele><time>2026-03-28T14:23:27.999Z</time></trkpt><trkpt lat="46.25558626120137" lon="10.247697664103288"><ele>538.0</ele><time>2026-03-28T14:23:28.999Z</time></trkpt><trkpt lat="46.25585737457444" lon="10.248000994242915"><ele>538.5</ele><time>2026-03-28T14:23:29.999Z</time></trkpt><trkpt lat="46.25612773219692" lon="10.248302101945272"><ele>539.0</ele><time>2026-03-28T14:23:30.999Z</time></trkpt><trkpt lat="46.25639705725913" lon="10.24860053168604"><ele>540.5</ele><time>2026-03-28T14:23:31.999Z</time></trkpt><trkpt lat="46.25666155521522" lon="10.248898240120907"><ele>542.0</ele><time>2026-03-28T14:23:32.999Z</time></trkpt><trkpt lat="46.25691775331162" lon="10.249180273367733"><ele>543.0</ele><time>2026-03-28T14:23:33.999Z</time></trkpt><trkpt lat="46.25716900392084" lon="10.249447957116935"><ele>544.0</ele><time>2026-03-28T14:23:34.999Z</time></trkpt><trkpt lat="46.2574098647376" lon="10.249708653948469"><ele>544.5</ele><time>2026-03-28T14:23:35.999Z</time></trkpt><trkpt lat="46.25764038818173" lon="10.249958149551881"><ele>545.0</ele><time>2026-03-28T14:23:36.999Z</time></trkpt><trkpt lat="46.2578604695591" lon="10.250197962776538"><ele>545.0</ele><time>2026-03-28T14:23:37.999Z</time></trkpt><trkpt lat="46.25806580407194" lon="10.250423973947338"><ele>545.0</ele><time>2026-03-28T14:23:38.999Z</time></trkpt><trkpt lat="46.25825334953406" lon="10.250632488077278"><ele>546.0</ele><time>2026-03-28T14:23:39.999Z</time></trkpt><trkpt lat="46.258436895917775" lon="10.250835600560844"><ele>547.0</ele><time>2026-03-28T14:23:40.999Z</time></trkpt><trkpt lat="46.258651000136275" lon="10.251062421867275"><ele>547.0</ele><time>2026-03-28T14:23:41.999Z</time></trkpt><trkpt lat="46.25885467877361" lon="10.251324023624724"><ele>547.0</ele><time>2026-03-28T14:23:42.999Z</time></trkpt><trkpt lat="46.25905239566747" lon="10.251604771165088"><ele>547.0</ele><time>2026-03-28T14:23:43.999Z</time></trkpt><trkpt lat="46.25924816091116" lon="10.25188790254382"><ele>547.0</ele><time>2026-03-28T14:23:44.999Z</time></trkpt><trkpt lat="46.259461545143175" lon="10.252169395830101"><ele>547.5</ele><time>2026-03-28T14:23:45.999Z</time></trkpt><trkpt lat="46.259703237715435" lon="10.252435867884097"><ele>548.0</ele><time>2026-03-28T14:23:47Z</time></trkpt><trkpt lat="46.25997752266415" lon="10.25268762132311"><ele>549.5</ele><time>2026-03-28T14:23:48Z</time></trkpt><trkpt lat="46.26024046785158" lon="10.252975707896635"><ele>551.0</ele><time>2026-03-28T14:23:49Z</time></trkpt><trkpt lat="46.26049607662699" lon="10.253275162952983"><ele>551.0</ele><time>2026-03-28T14:23:50Z</time></trkpt><trkpt lat="46.260758184090115" lon="10.253574527655983"><ele>551.0</ele><time>2026-03-28T14:23:51Z</time></trkpt><trkpt lat="46.26098677139874" lon="10.253900260333758"><ele>550.5</ele><time>2026-03-28T14:23:52Z</time></trkpt><trkpt lat="46.26122021004656" lon="10.254209695793758"><ele>550.0</ele><time>2026-03-28T14:23:53Z</time></trkpt><trkpt lat="46.261589189801725" lon="10.254352496206934"><ele>550.5</ele><time>2026-03-28T14:23:54Z</time></trkpt><trkpt lat="46.26187574076112" lon="10.254591484349772"><ele>551.0</ele><time>2026-03-28T14:23:55Z</time></trkpt><trkpt lat="46.262164016849134" lon="10.254829550627244"><ele>551.5</ele><time>2026-03-28T14:23:56Z</time></trkpt><trkpt lat="46.26246464257149" lon="10.25507076380101"><ele>552.0</ele><time>2026-03-28T14:23:57Z</time></trkpt><trkpt lat="46.262774781968346" lon="10.255315273972542"><ele>552.0</ele><time>2026-03-28T14:23:58Z</time></trkpt><trkpt lat="46.26310004281135" lon="10.255564250708387"><ele>552.0</ele><time>2026-03-28T14:23:59Z</time></trkpt><trkpt lat="46.263434477172574" lon="10.255793297240993"><ele>553.0</ele><time>2026-03-28T14:24:00Z</time></trkpt><trkpt lat="46.26377818832847" lon="10.256003804653735"><ele>554.0</ele><time>2026-03-28T14:24:01Z</time></trkpt><trkpt lat="46.2641297903394" lon="10.25622204281099"><ele>555.0</ele><time>2026-03-28T14:24:02Z</time></trkpt><trkpt lat="46.26448763286396" lon="10.256429756196669"><ele>556.0</ele><time>2026-03-28T14:24:03Z</time></trkpt><trkpt lat="46.26484212284162" lon="10.256640805693904"><ele>558.5</ele><time>2026-03-28T14:24:04Z</time></trkpt><trkpt lat="46.26520195033622" lon="10.256855267026433"><ele>561.0</ele><time>2026-03-28T14:24:05Z</time></trkpt><trkpt lat="46.26555454023354" lon="10.257062768305655"><ele>561.0</ele><time>2026-03-28T14:24:06Z</time></trkpt><trkpt lat="46.26589945548099" lon="10.257259249570366"><ele>561.0</ele><time>2026-03-28T14:24:07Z</time></trkpt><trkpt lat="46.26623826400341" lon="10.257451950550909"><ele>562.0</ele><time>2026-03-28T14:24:08Z</time></trkpt><trkpt lat="46.26657413031469" lon="10.257642224299637"><ele>563.0</ele><time>2026-03-28T14:24:09Z</time></trkpt><trkpt lat="46.26691146163101" lon="10.257824472970642"><ele>563.0</ele><time>2026-03-28T14:24:10Z</time></trkpt><trkpt lat="46.26725557886729" lon="10.258012020489923"><ele>563.0</ele><time>2026-03-28T14:24:11Z</time></trkpt><trkpt lat="46.2676059869437" lon="10.258194894345706"><ele>563.0</ele><time>2026-03-28T14:24:12Z</time></trkpt><trkpt lat="46.26795744613414" lon="10.258353422524937"><ele>563.0</ele><time>2026-03-28T14:24:13Z</time></trkpt><trkpt lat="46.26833933893595" lon="10.25856773245301"><ele>565.0</ele><time>2026-03-28T14:24:14Z</time></trkpt><trkpt lat="46.268718727630244" lon="10.258732028942621"><ele>567.0</ele><time>2026-03-28T14:24:15Z</time></trkpt><trkpt lat="46.26910705309761" lon="10.258877837486038"><ele>567.0</ele><time>2026-03-28T14:24:16Z</time></trkpt><trkpt lat="46.26948304537142" lon="10.259003406825876"><ele>567.0</ele><time>2026-03-28T14:24:17Z</time></trkpt><trkpt lat="46.26984133433784" lon="10.259108403877184"><ele>568.0</ele><time>2026-03-28T14:24:18Z</time></trkpt><trkpt lat="46.27018843906937" lon="10.259194996586954"><ele>569.0</ele><time>2026-03-28T14:24:19Z</time></trkpt><trkpt lat="46.27054495706061" lon="10.259259325500265"><ele>570.0</ele><time>2026-03-28T14:24:20Z</time></trkpt><trkpt lat="46.27090178085643" lon="10.259326189047316"><ele>571.0</ele><time>2026-03-28T14:24:21Z</time></trkpt><trkpt lat="46.27124855238765" lon="10.259401234176062"><ele>572.5</ele><time>2026-03-28T14:24:22.001Z</time></trkpt><trkpt lat="46.27158706533213" lon="10.259480920856882"><ele>574.0</ele><time>2026-03-28T14:24:23.001Z</time></trkpt><trkpt lat="46.271913622221945" lon="10.259552479977014"><ele>574.0</ele><time>2026-03-28T14:24:24.001Z</time></trkpt><trkpt lat="46.27223305443144" lon="10.25960931444299"><ele>574.0</ele><time>2026-03-28T14:24:25.001Z</time></trkpt><trkpt lat="46.27253718541501" lon="10.259655938180451"><ele>573.5</ele><time>2026-03-28T14:24:26.001Z</time></trkpt><trkpt lat="46.272842187732735" lon="10.25970711045734"><ele>573.0</ele><time>2026-03-28T14:24:27.001Z</time></trkpt><trkpt lat="46.273150985893245" lon="10.25975857597796"><ele>574.0</ele><time>2026-03-28T14:24:28.001Z</time></trkpt><trkpt lat="46.27345181517792" lon="10.259820809338258"><ele>575.0</ele><time>2026-03-28T14:24:29.001Z</time></trkpt><trkpt lat="46.273747536098625" lon="10.259899230315034"><ele>575.5</ele><time>2026-03-28T14:24:30.001Z</time></trkpt><trkpt lat="46.27404270823626" lon="10.259980064059562"><ele>576.0</ele><time>2026-03-28T14:24:31.001Z</time></trkpt><trkpt lat="46.274339269088735" lon="10.260035780860042"><ele>576.0</ele><time>2026-03-28T14:24:32.001Z</time></trkpt><trkpt lat="46.274635612236175" lon="10.260085764739781"><ele>576.0</ele><time>2026-03-28T14:24:33.001Z</time></trkpt><trkpt lat="46.27493322390987" lon="10.260142152057677"><ele>576.5</ele><time>2026-03-28T14:24:34.001Z</time></trkpt><trkpt lat="46.27522827779097" lon="10.260202857914454"><ele>577.0</ele><time>2026-03-28T14:24:35.001Z</time></trkpt><trkpt lat="46.27552269537044" lon="10.260268039647983"><ele>578.0</ele><time>2026-03-28T14:24:36.001Z</time></trkpt><trkpt lat="46.27582630303276" lon="10.260332709554083"><ele>579.0</ele><time>2026-03-28T14:24:37.001Z</time></trkpt><trkpt lat="46.27613566151016" lon="10.260402809419247"><ele>580.5</ele><time>2026-03-28T14:24:38.001Z</time></trkpt><trkpt lat="46.2764446009145" lon="10.260483656822837"><ele>582.0</ele><time>2026-03-28T14:24:39.001Z</time></trkpt><trkpt lat="46.276748333158984" lon="10.260581985027734"><ele>582.5</ele><time>2026-03-28T14:24:40.001Z</time></trkpt><trkpt lat="46.27704723252763" lon="10.260703346320504"><ele>583.0</ele><time>2026-03-28T14:24:41.001Z</time></trkpt><trkpt lat="46.277338532286514" lon="10.260853719885295"><ele>584.5</ele><time>2026-03-28T14:24:42.001Z</time></trkpt><trkpt lat="46.27762618907765" lon="10.261042021181192"><ele>586.0</ele><time>2026-03-28T14:24:43.001Z</time></trkpt><trkpt lat="46.27790811310391" lon="10.261264419659803"><ele>588.5</ele><time>2026-03-28T14:24:44.001Z</time></trkpt><trkpt lat="46.27818143387778" lon="10.261519589969181"><ele>591.0</ele><time>2026-03-28T14:24:45.001Z</time></trkpt><trkpt lat="46.278438288227015" lon="10.2618155337719"><ele>591.0</ele><time>2026-03-28T14:24:46.001Z</time></trkpt><trkpt lat="46.27868986097259" lon="10.26212792882084"><ele>591.0</ele><time>2026-03-28T14:24:47.001Z</time></trkpt><trkpt lat="46.27893692289264" lon="10.262436571040046"><ele>591.5</ele><time>2026-03-28T14:24:48.001Z</time></trkpt><trkpt lat="46.27917179454446" lon="10.262776348596768"><ele>592.0</ele><time>2026-03-28T14:24:49.001Z</time></trkpt><trkpt lat="46.27940416655693" lon="10.263119189010595"><ele>592.5</ele><time>2026-03-28T14:24:50.001Z</time></trkpt><trkpt lat="46.27964047413103" lon="10.26345733344084"><ele>593.0</ele><time>2026-03-28T14:24:51.001Z</time></trkpt><trkpt lat="46.279881713513014" lon="10.26378737214276"><ele>594.5</ele><time>2026-03-28T14:24:52.001Z</time></trkpt><trkpt lat="46.28012475919951" lon="10.264103518864498"><ele>596.0</ele><time>2026-03-28T14:24:53.001Z</time></trkpt><trkpt lat="46.28036745127092" lon="10.264405410469793"><ele>596.5</ele><time>2026-03-28T14:24:54.001Z</time></trkpt><trkpt lat="46.28061988692603" lon="10.264688227429858"><ele>597.0</ele><time>2026-03-28T14:24:55.001Z</time></trkpt><trkpt lat="46.28088175712305" lon="10.264941704211482"><ele>597.0</ele><time>2026-03-28T14:24:56.001Z</time></trkpt><trkpt lat="46.281159344774345" lon="10.265165962905801"><ele>597.0</ele><time>2026-03-28T14:24:57.001Z</time></trkpt><trkpt lat="46.2814546646267" lon="10.26536395900693"><ele>597.5</ele><time>2026-03-28T14:24:58.001Z</time></trkpt><trkpt lat="46.281767562978736" lon="10.265543487805934"><ele>598.0</ele><time>2026-03-28T14:24:59.001Z</time></trkpt><trkpt lat="46.282091128472224" lon="10.265686261406115"><ele>599.0</ele><time>2026-03-28T14:25:00.001Z</time></trkpt><trkpt lat="46.28242297943507" lon="10.265818130975074"><ele>600.0</ele><time>2026-03-28T14:25:01.001Z</time></trkpt><trkpt lat="46.28275897456423" lon="10.265946630633781"><ele>601.0</ele><time>2026-03-28T14:25:02.001Z</time></trkpt><trkpt lat="46.28310547166194" lon="10.266087498941985"><ele>602.0</ele><time>2026-03-28T14:25:03.001Z</time></trkpt><trkpt lat="46.28346410406673" lon="10.26622895651694"><ele>602.0</ele><time>2026-03-28T14:25:04.001Z</time></trkpt><trkpt lat="46.28381605737169" lon="10.266372167093534"><ele>602.0</ele><time>2026-03-28T14:25:05.001Z</time></trkpt><trkpt lat="46.28417086135068" lon="10.266522288564639"><ele>604.5</ele><time>2026-03-28T14:25:06.001Z</time></trkpt><trkpt lat="46.284518700595164" lon="10.26666869755573"><ele>607.0</ele><time>2026-03-28T14:25:07.001Z</time></trkpt><trkpt lat="46.28486759326983" lon="10.266812936201983"><ele>608.0</ele><time>2026-03-28T14:25:08.001Z</time></trkpt><trkpt lat="46.28521083092184" lon="10.266951561468424"><ele>609.0</ele><time>2026-03-28T14:25:09.001Z</time></trkpt><trkpt lat="46.28555590953355" lon="10.267083239883243"><ele>610.5</ele><time>2026-03-28T14:25:10.002Z</time></trkpt><trkpt lat="46.28588841173198" lon="10.267216715912825"><ele>612.0</ele><time>2026-03-28T14:25:11.002Z</time></trkpt><trkpt lat="46.28621638063114" lon="10.26735566447118"><ele>612.5</ele><time>2026-03-28T14:25:12.002Z</time></trkpt><trkpt lat="46.286537163284336" lon="10.267500374209988"><ele>613.0</ele><time>2026-03-28T14:25:13.002Z</time></trkpt><trkpt lat="46.2868517485307" lon="10.267659347017746"><ele>613.0</ele><time>2026-03-28T14:25:14.002Z</time></trkpt><trkpt lat="46.287167034245705" lon="10.267831462580068"><ele>613.0</ele><time>2026-03-28T14:25:15.002Z</time></trkpt><trkpt lat="46.28748247418819" lon="10.268013168654251"><ele>614.0</ele><time>2026-03-28T14:25:16.002Z</time></trkpt><trkpt lat="46.287794484884216" lon="10.268197705084566"><ele>615.0</ele><time>2026-03-28T14:25:17.002Z</time></trkpt><trkpt lat="46.288106278290606" lon="10.268395239222462"><ele>618.5</ele><time>2026-03-28T14:25:18.002Z</time></trkpt><trkpt lat="46.288414446168844" lon="10.268606472016177"><ele>622.0</ele><time>2026-03-28T14:25:19.002Z</time></trkpt><trkpt lat="46.288722050459896" lon="10.268832418351932"><ele>623.0</ele><time>2026-03-28T14:25:20.002Z</time></trkpt><trkpt lat="46.289029611138794" lon="10.269072935763235"><ele>624.0</ele><time>2026-03-28T14:25:21.002Z</time></trkpt><trkpt lat="46.28934218615649" lon="10.26931987327998"><ele>624.0</ele><time>2026-03-28T14:25:22.002Z</time></trkpt><trkpt lat="46.28964799664078" lon="10.269580425166927"><ele>624.0</ele><time>2026-03-28T14:25:23.002Z</time></trkpt><trkpt lat="46.28995157963598" lon="10.26985238447392"><ele>623.5</ele><time>2026-03-28T14:25:24.002Z</time></trkpt><trkpt lat="46.29025103911823" lon="10.270129582445364"><ele>623.0</ele><time>2026-03-28T14:25:25.002Z</time></trkpt><trkpt lat="46.29055333265891" lon="10.270414774778615"><ele>625.0</ele><time>2026-03-28T14:25:26.002Z</time></trkpt><trkpt lat="46.29084878181103" lon="10.270715077255637"><ele>627.0</ele><time>2026-03-28T14:25:27.002Z</time></trkpt><trkpt lat="46.29114082142377" lon="10.271029189679222"><ele>627.5</ele><time>2026-03-28T14:25:28.002Z</time></trkpt><trkpt lat="46.29142711659523" lon="10.271346703131043"><ele>628.0</ele><time>2026-03-28T14:25:29.002Z</time></trkpt><trkpt lat="46.29170390661735" lon="10.271669295816196"><ele>628.0</ele><time>2026-03-28T14:25:30.002Z</time></trkpt><trkpt lat="46.29197947998819" lon="10.271992830527862"><ele>628.0</ele><time>2026-03-28T14:25:31.002Z</time></trkpt><trkpt lat="46.29225150901328" lon="10.272323489995117"><ele>630.0</ele><time>2026-03-28T14:25:32Z</time></trkpt><trkpt lat="46.29251142194378" lon="10.272663318514834"><ele>632.0</ele><time>2026-03-28T14:25:33Z</time></trkpt><trkpt lat="46.29277915792534" lon="10.273021746258573"><ele>632.0</ele><time>2026-03-28T14:25:34Z</time></trkpt><trkpt lat="46.29304824264455" lon="10.273387920730883"><ele>632.0</ele><time>2026-03-28T14:25:35Z</time></trkpt><trkpt lat="46.29330720139636" lon="10.273745585339869"><ele>633.0</ele><time>2026-03-28T14:25:36Z</time></trkpt><trkpt lat="46.29358412445206" lon="10.274083959003983"><ele>634.0</ele><time>2026-03-28T14:25:37Z</time></trkpt><trkpt lat="46.29386811245516" lon="10.274405898478516"><ele>635.5</ele><time>2026-03-28T14:25:38Z</time></trkpt><trkpt lat="46.29415155784412" lon="10.274723488919502"><ele>637.0</ele><time>2026-03-28T14:25:39Z</time></trkpt><trkpt lat="46.29443508200695" lon="10.27503541022804"><ele>637.0</ele><time>2026-03-28T14:25:40Z</time></trkpt><trkpt lat="46.29471936883346" lon="10.275342038432067"><ele>637.0</ele><time>2026-03-28T14:25:41Z</time></trkpt><trkpt lat="46.295000759557844" lon="10.275634014750798"><ele>638.0</ele><time>2026-03-28T14:25:42Z</time></trkpt><trkpt lat="46.29527922248059" lon="10.27592837834357"><ele>639.0</ele><time>2026-03-28T14:25:43Z</time></trkpt><trkpt lat="46.29555651739178" lon="10.276210929874201"><ele>640.5</ele><time>2026-03-28T14:25:44Z</time></trkpt><trkpt lat="46.295830874169894" lon="10.276497068295393"><ele>642.0</ele><time>2026-03-28T14:25:45Z</time></trkpt><trkpt lat="46.2961030827883" lon="10.276778708502492"><ele>642.0</ele><time>2026-03-28T14:25:46Z</time></trkpt><trkpt lat="46.296371387935174" lon="10.277055762486084"><ele>642.0</ele><time>2026-03-28T14:25:47Z</time></trkpt><trkpt lat="46.296636796443856" lon="10.277327886216096"><ele>644.5</ele><time>2026-03-28T14:25:48Z</time></trkpt><trkpt lat="46.29689442958787" lon="10.277602058940579"><ele>647.0</ele><time>2026-03-28T14:25:49Z</time></trkpt><trkpt lat="46.29714459532737" lon="10.27786746080062"><ele>649.5</ele><time>2026-03-28T14:25:50Z</time></trkpt><trkpt lat="46.29739394192209" lon="10.278134920747428"><ele>652.0</ele><time>2026-03-28T14:25:51Z</time></trkpt><trkpt lat="46.29763550421528" lon="10.278410571072392"><ele>652.0</ele><time>2026-03-28T14:25:52Z</time></trkpt><trkpt lat="46.29786817662864" lon="10.278692526714236"><ele>652.0</ele><time>2026-03-28T14:25:53Z</time></trkpt><trkpt lat="46.29808827770059" lon="10.278996445957489"><ele>652.5</ele><time>2026-03-28T14:25:54Z</time></trkpt><trkpt lat="46.29829464199714" lon="10.279328854932821"><ele>653.0</ele><time>2026-03-28T14:25:55Z</time></trkpt><trkpt lat="46.298482383016996" lon="10.279686117135874"><ele>655.5</ele><time>2026-03-28T14:25:56Z</time></trkpt><trkpt lat="46.298651039868055" lon="10.280063127383725"><ele>658.0</ele><time>2026-03-28T14:25:57Z</time></trkpt><trkpt lat="46.2988117460141" lon="10.280461989987856"><ele>657.0</ele><time>2026-03-28T14:25:58Z</time></trkpt><trkpt lat="46.298963545005975" lon="10.280872110622887"><ele>656.0</ele><time>2026-03-28T14:25:59Z</time></trkpt><trkpt lat="46.29911191025426" lon="10.281290678933562"><ele>661.0</ele><time>2026-03-28T14:26:00Z</time></trkpt><trkpt lat="46.29926201858724" lon="10.281716240580748"><ele>666.0</ele><time>2026-03-28T14:26:01Z</time></trkpt><trkpt lat="46.299416742744356" lon="10.282135988520082"><ele>676.5</ele><time>2026-03-28T14:26:02Z</time></trkpt><trkpt lat="46.299575672211276" lon="10.282561910030587"><ele>687.0</ele><time>2026-03-28T14:26:03Z</time></trkpt><trkpt lat="46.29974987967089" lon="10.282974598221903"><ele>676.5</ele><time>2026-03-28T14:26:04Z</time></trkpt><trkpt lat="46.299946007349455" lon="10.283374665210301"><ele>666.0</ele><time>2026-03-28T14:26:05Z</time></trkpt><trkpt lat="46.30016391752578" lon="10.28375283812088"><ele>667.5</ele><time>2026-03-28T14:26:06Z</time></trkpt><trkpt lat="46.300402743839065" lon="10.284112842424907"><ele>669.0</ele><time>2026-03-28T14:26:07Z</time></trkpt><trkpt lat="46.30066059503031" lon="10.284458599976047"><ele>672.0</ele><time>2026-03-28T14:26:08Z</time></trkpt><trkpt lat="46.300919828048265" lon="10.284805202080035"><ele>675.0</ele><time>2026-03-28T14:26:09Z</time></trkpt><trkpt lat="46.30118095917961" lon="10.285167059173913"><ele>672.5</ele><time>2026-03-28T14:26:10Z</time></trkpt><trkpt lat="46.301441241092476" lon="10.28553078219546"><ele>670.0</ele><time>2026-03-28T14:26:11Z</time></trkpt><trkpt lat="46.301708404979934" lon="10.285895448441687"><ele>675.5</ele><time>2026-03-28T14:26:12.001Z</time></trkpt><trkpt lat="46.301975117632416" lon="10.286273816370356"><ele>681.0</ele><time>2026-03-28T14:26:13.001Z</time></trkpt><trkpt lat="46.302247662706165" lon="10.286658846205343"><ele>682.0</ele><time>2026-03-28T14:26:14.001Z</time></trkpt><trkpt lat="46.30252683496594" lon="10.287051899565633"><ele>683.0</ele><time>2026-03-28T14:26:15.001Z</time></trkpt><trkpt lat="46.302818314150954" lon="10.287446789374792"><ele>681.0</ele><time>2026-03-28T14:26:16.001Z</time></trkpt><trkpt lat="46.303111791748336" lon="10.287847292231005"><ele>679.0</ele><time>2026-03-28T14:26:17.001Z</time></trkpt><trkpt lat="46.30340910086848" lon="10.288254866281452"><ele>683.5</ele><time>2026-03-28T14:26:18.001Z</time></trkpt><trkpt lat="46.30370055174662" lon="10.288664856123617"><ele>688.0</ele><time>2026-03-28T14:26:19.001Z</time></trkpt><trkpt lat="46.30397390122919" lon="10.289048767364271"><ele>688.5</ele><time>2026-03-28T14:26:20.001Z</time></trkpt><trkpt lat="46.30422916668418" lon="10.28941905144743"><ele>689.0</ele><time>2026-03-28T14:26:21.001Z</time></trkpt><trkpt lat="46.30447118818632" lon="10.289783837635055"><ele>687.0</ele><time>2026-03-28T14:26:22.001Z</time></trkpt><trkpt lat="46.30467052950083" lon="10.290173853183232"><ele>685.0</ele><time>2026-03-28T14:26:23.001Z</time></trkpt><trkpt lat="46.30484600486127" lon="10.290573441829046"><ele>690.0</ele><time>2026-03-28T14:26:24.001Z</time></trkpt><trkpt lat="46.304995548131416" lon="10.290991291541472"><ele>695.0</ele><time>2026-03-28T14:26:25.001Z</time></trkpt><trkpt lat="46.3051104534544" lon="10.291411434664132"><ele>698.5</ele><time>2026-03-28T14:26:26.001Z</time></trkpt><trkpt lat="46.30520406161812" lon="10.291844643732672"><ele>702.0</ele><time>2026-03-28T14:26:27.001Z</time></trkpt><trkpt lat="46.30527480446021" lon="10.292287268555274"><ele>705.5</ele><time>2026-03-28T14:26:28.001Z</time></trkpt><trkpt lat="46.30531932686448" lon="10.292747594211972"><ele>709.0</ele><time>2026-03-28T14:26:29.001Z</time></trkpt><trkpt lat="46.305344446028116" lon="10.293193970394082"><ele>711.5</ele><time>2026-03-28T14:26:30.001Z</time></trkpt><trkpt lat="46.30536331839041" lon="10.293654883893737"><ele>714.0</ele><time>2026-03-28T14:26:31.001Z</time></trkpt><trkpt lat="46.305393784186506" lon="10.294109440999279"><ele>715.5</ele><time>2026-03-28T14:26:32.001Z</time></trkpt><trkpt lat="46.3054109426173" lon="10.294550407722086"><ele>717.0</ele><time>2026-03-28T14:26:33.001Z</time></trkpt><trkpt lat="46.305428310346" lon="10.294972843821155"><ele>720.5</ele><time>2026-03-28T14:26:34.001Z</time></trkpt><trkpt lat="46.30544549819393" lon="10.295374299050355"><ele>724.0</ele><time>2026-03-28T14:26:35.001Z</time></trkpt><trkpt lat="46.305462542844076" lon="10.295758933187837"><ele>728.0</ele><time>2026-03-28T14:26:36.001Z</time></trkpt><trkpt lat="46.30547786261895" lon="10.296130339984924"><ele>732.0</ele><time>2026-03-28T14:26:37.001Z</time></trkpt><trkpt lat="46.305483305124376" lon="10.296493470166276"><ele>735.0</ele><time>2026-03-28T14:26:38.001Z</time></trkpt><trkpt lat="46.30549830595376" lon="10.296848461526388"><ele>738.0</ele><time>2026-03-28T14:26:39.001Z</time></trkpt><trkpt lat="46.3055147116951" lon="10.297198463767407"><ele>738.5</ele><time>2026-03-28T14:26:40.001Z</time></trkpt><trkpt lat="46.30555564836687" lon="10.297544354672118"><ele>739.0</ele><time>2026-03-28T14:26:41.001Z</time></trkpt><trkpt lat="46.30558406710876" lon="10.297896528386088"><ele>736.5</ele><time>2026-03-28T14:26:42.001Z</time></trkpt><trkpt lat="46.30562689785702" lon="10.298240135266633"><ele>734.0</ele><time>2026-03-28T14:26:43.001Z</time></trkpt><trkpt lat="46.30568192705978" lon="10.2985740307105"><ele>734.0</ele><time>2026-03-28T14:26:44.001Z</time></trkpt><trkpt lat="46.30575409610241" lon="10.29890800983043"><ele>734.0</ele><time>2026-03-28T14:26:45.001Z</time></trkpt><trkpt lat="46.30582476055497" lon="10.299219434178143"><ele>736.0</ele><time>2026-03-28T14:26:46.001Z</time></trkpt><trkpt lat="46.30588957388817" lon="10.299522673451404"><ele>738.0</ele><time>2026-03-28T14:26:47.001Z</time></trkpt><trkpt lat="46.30596703759726" lon="10.299832674886025"><ele>740.0</ele><time>2026-03-28T14:26:48.001Z</time></trkpt><trkpt lat="46.30605720815216" lon="10.3001023200668"><ele>744.0</ele><time>2026-03-28T14:26:49.001Z</time></trkpt><trkpt lat="46.306154887389106" lon="10.300366520064095"><ele>748.0</ele><time>2026-03-28T14:26:50.001Z</time></trkpt><trkpt lat="46.30625615015065" lon="10.300618351789156"><ele>752.0</ele><time>2026-03-28T14:26:51.001Z</time></trkpt><trkpt lat="46.30634656329035" lon="10.30086692964693"><ele>755.6666666666666</ele><time>2026-03-28T14:26:52.001Z</time></trkpt><trkpt lat="46.3064384240645" lon="10.301122161001361"><ele>759.3333333333334</ele><time>2026-03-28T14:26:53.001Z</time></trkpt><trkpt lat="46.30653146785629" lon="10.301381681624921"><ele>763.0</ele><time>2026-03-28T14:26:54.017Z</time></trkpt><trkpt lat="46.30664686226094" lon="10.301609144242592"><ele>773.6666666666667</ele><time>2026-03-28T14:26:55.016Z</time></trkpt><trkpt lat="46.30677097514526" lon="10.30182347383046"><ele>784.3333333333334</ele><time>2026-03-28T14:26:56.023Z</time></trkpt><trkpt lat="46.30689798575298" lon="10.302031488793137"><ele>795.0</ele><time>2026-03-28T14:26:57.023Z</time></trkpt><trkpt lat="46.30702606307001" lon="10.302228972449928"><ele>816.0</ele><time>2026-03-28T14:26:58.015Z</time></trkpt><trkpt lat="46.308736799341695" lon="10.303707623540038"><ele>811.0</ele><time>2026-03-28T14:27:01.541Z</time></trkpt><trkpt lat="46.3089957" lon="10.3038573"><ele>806.0</ele><time>2026-03-28T14:27:02.541Z</time></trkpt><trkpt lat="46.324873580640485" lon="10.321809416646436"><ele>829.5</ele><time>2026-03-28T14:28:57.004Z</time></trkpt><trkpt lat="46.324869242628" lon="10.322064472356654"><ele>853.0</ele><time>2026-03-28T14:28:58.004Z</time></trkpt><trkpt lat="46.325260270590206" lon="10.322947214083786"><ele>852.6666666666666</ele><time>2026-03-28T14:28:59.004Z</time></trkpt><trkpt lat="46.32530715369025" lon="10.323220109035738"><ele>852.3333333333333</ele><time>2026-03-28T14:29:00.004Z</time></trkpt><trkpt lat="46.32532984023643" lon="10.32349428563237"><ele>852.0</ele><time>2026-03-28T14:29:01.004Z</time></trkpt><trkpt lat="46.3253472432616" lon="10.323774124447626"><ele>853.0</ele><time>2026-03-28T14:29:02.004Z</time></trkpt><trkpt lat="46.32536456260657" lon="10.32405410737915"><ele>854.0</ele><time>2026-03-28T14:29:03.004Z</time></trkpt><trkpt lat="46.32536480268958" lon="10.324329244385316"><ele>855.0</ele><time>2026-03-28T14:29:04.004Z</time></trkpt><trkpt lat="46.32536148624842" lon="10.324586797541796"><ele>855.6666666666667</ele><time>2026-03-28T14:29:05.004Z</time></trkpt><trkpt lat="46.325347220018784" lon="10.324834967491004"><ele>856.3333333333334</ele><time>2026-03-28T14:29:06.004Z</time></trkpt><trkpt lat="46.32532467563366" lon="10.32507400183987"><ele>857.0</ele><time>2026-03-28T14:29:07.004Z</time></trkpt><trkpt lat="46.32530411411881" lon="10.325307651499116"><ele>857.0</ele><time>2026-03-28T14:29:08.002Z</time></trkpt><trkpt lat="46.325274109780196" lon="10.325538112611026"><ele>857.0</ele><time>2026-03-28T14:29:09.002Z</time></trkpt><trkpt lat="46.325252410751624" lon="10.325825509161865"><ele>857.0</ele><time>2026-03-28T14:29:10.002Z</time></trkpt><trkpt lat="46.325225356865474" lon="10.3261346654613"><ele>859.0</ele><time>2026-03-28T14:29:11.002Z</time></trkpt><trkpt lat="46.32519468541428" lon="10.326473077432732"><ele>861.0</ele><time>2026-03-28T14:29:12.002Z</time></trkpt><trkpt lat="46.32516916841132" lon="10.326827024103133"><ele>861.0</ele><time>2026-03-28T14:29:13.002Z</time></trkpt><trkpt lat="46.32515905437112" lon="10.3271920770176"><ele>861.0</ele><time>2026-03-28T14:29:14.002Z</time></trkpt><trkpt lat="46.32516087240985" lon="10.327567705454799"><ele>862.0</ele><time>2026-03-28T14:29:15.002Z</time></trkpt><trkpt lat="46.32516384699918" lon="10.327948572640956"><ele>863.0</ele><time>2026-03-28T14:29:16.002Z</time></trkpt><trkpt lat="46.32516698927208" lon="10.328351237945373"><ele>864.5</ele><time>2026-03-28T14:29:17.002Z</time></trkpt><trkpt lat="46.32516674314079" lon="10.328750099192876"><ele>866.0</ele><time>2026-03-28T14:29:18.002Z</time></trkpt><trkpt lat="46.325164443301325" lon="10.329167169233067"><ele>866.5</ele><time>2026-03-28T14:29:19.002Z</time></trkpt><trkpt lat="46.325156076551345" lon="10.329579762264508"><ele>867.0</ele><time>2026-03-28T14:29:20.002Z</time></trkpt><trkpt lat="46.32514647042644" lon="10.329982797705226"><ele>867.0</ele><time>2026-03-28T14:29:21.002Z</time></trkpt><trkpt lat="46.32514556060005" lon="10.330385456123128"><ele>867.0</ele><time>2026-03-28T14:29:22.001Z</time></trkpt><trkpt lat="46.32513127968343" lon="10.330773803871063"><ele>869.0</ele><time>2026-03-28T14:29:23.001Z</time></trkpt><trkpt lat="46.32514338223812" lon="10.331180257920263"><ele>871.0</ele><time>2026-03-28T14:29:24.001Z</time></trkpt><trkpt lat="46.32516999317678" lon="10.331580187741922"><ele>871.5</ele><time>2026-03-28T14:29:25.001Z</time></trkpt><trkpt lat="46.32520572906791" lon="10.331987875759378"><ele>872.0</ele><time>2026-03-28T14:29:26.001Z</time></trkpt><trkpt lat="46.32524773136816" lon="10.332409918266514"><ele>873.5</ele><time>2026-03-28T14:29:27.001Z</time></trkpt><trkpt lat="46.325293653635946" lon="10.332839946864285"><ele>875.0</ele><time>2026-03-28T14:29:28.001Z</time></trkpt><trkpt lat="46.32534146446904" lon="10.333276707396202"><ele>877.5</ele><time>2026-03-28T14:29:29Z</time></trkpt><trkpt lat="46.32538596877807" lon="10.333680253970057"><ele>880.0</ele><time>2026-03-28T14:29:30Z</time></trkpt><trkpt lat="46.32542781646656" lon="10.334059746098566"><ele>880.5</ele><time>2026-03-28T14:29:31Z</time></trkpt><trkpt lat="46.325468547457355" lon="10.334431210250752"><ele>881.0</ele><time>2026-03-28T14:29:32Z</time></trkpt><trkpt lat="46.32553414379812" lon="10.33478837423462"><ele>878.5</ele><time>2026-03-28T14:29:33Z</time></trkpt><trkpt lat="46.325574005399304" lon="10.33513661132352"><ele>876.0</ele><time>2026-03-28T14:29:34Z</time></trkpt><trkpt lat="46.325616099927565" lon="10.335486175471335"><ele>877.0</ele><time>2026-03-28T14:29:35Z</time></trkpt><trkpt lat="46.32565704408405" lon="10.335832687543789"><ele>878.0</ele><time>2026-03-28T14:29:36Z</time></trkpt><trkpt lat="46.32569248375539" lon="10.336174792761149"><ele>879.3333333333334</ele><time>2026-03-28T14:29:37Z</time></trkpt><trkpt lat="46.32569766044847" lon="10.336501242287738"><ele>880.6666666666667</ele><time>2026-03-28T14:29:38Z</time></trkpt><trkpt lat="46.32576777938096" lon="10.336779966664427"><ele>882.0</ele><time>2026-03-28T14:29:39Z</time></trkpt><trkpt lat="46.32581766780596" lon="10.337044330010349"><ele>885.0</ele><time>2026-03-28T14:29:40Z</time></trkpt><trkpt lat="46.3258805285483" lon="10.337288103595245"><ele>888.0</ele><time>2026-03-28T14:29:41Z</time></trkpt><trkpt lat="46.32598632999355" lon="10.337540707793593"><ele>891.0</ele><time>2026-03-28T14:29:42Z</time></trkpt><trkpt lat="46.32613626611076" lon="10.33777259917995"><ele>893.0</ele><time>2026-03-28T14:29:43Z</time></trkpt><trkpt lat="46.32619958993933" lon="10.33810938208747"><ele>895.0</ele><time>2026-03-28T14:29:44Z</time></trkpt><trkpt lat="46.32634777466788" lon="10.338392934195973"><ele>895.5</ele><time>2026-03-28T14:29:45Z</time></trkpt><trkpt lat="46.32652012570368" lon="10.338714773845599"><ele>896.0</ele><time>2026-03-28T14:29:46Z</time></trkpt><trkpt lat="46.32672042133848" lon="10.33908879573416"><ele>896.0</ele><time>2026-03-28T14:29:47.999Z</time></trkpt><trkpt lat="46.32691527751183" lon="10.33942159889629"><ele>896.0</ele><time>2026-03-28T14:29:48.999Z</time></trkpt><trkpt lat="46.327103198462936" lon="10.339793863470401"><ele>895.0</ele><time>2026-03-28T14:29:49.999Z</time></trkpt><trkpt lat="46.32728862637653" lon="10.340156740845506"><ele>894.0</ele><time>2026-03-28T14:29:50.999Z</time></trkpt><trkpt lat="46.32746164820851" lon="10.34049126469641"><ele>896.5</ele><time>2026-03-28T14:29:51.999Z</time></trkpt><trkpt lat="46.32763197722555" lon="10.340802882030063"><ele>899.0</ele><time>2026-03-28T14:29:52.999Z</time></trkpt><trkpt lat="46.32780351755689" lon="10.341088963542152"><ele>899.0</ele><time>2026-03-28T14:29:53.999Z</time></trkpt><trkpt lat="46.327979691842906" lon="10.34135237830549"><ele>899.0</ele><time>2026-03-28T14:29:54.999Z</time></trkpt><trkpt lat="46.32815324709023" lon="10.341588191799492"><ele>898.5</ele><time>2026-03-28T14:29:55.999Z</time></trkpt><trkpt lat="46.328336633537035" lon="10.341810418309738"><ele>898.0</ele><time>2026-03-28T14:29:56.999Z</time></trkpt><trkpt lat="46.328519279739616" lon="10.342028807739862"><ele>899.5</ele><time>2026-03-28T14:29:57.999Z</time></trkpt><trkpt lat="46.328704039519295" lon="10.342231067745502"><ele>901.0</ele><time>2026-03-28T14:29:58.999Z</time></trkpt><trkpt lat="46.328896797649826" lon="10.342414317279292"><ele>901.0</ele><time>2026-03-28T14:29:59.999Z</time></trkpt><trkpt lat="46.32909709690257" lon="10.342588067802488"><ele>901.0</ele><time>2026-03-28T14:30:00.999Z</time></trkpt><trkpt lat="46.329310232698674" lon="10.342757434153404"><ele>901.0</ele><time>2026-03-28T14:30:01.999Z</time></trkpt><trkpt lat="46.329528711097666" lon="10.342923062053526"><ele>901.0</ele><time>2026-03-28T14:30:02.999Z</time></trkpt><trkpt lat="46.32975664477025" lon="10.343067861315607"><ele>902.5</ele><time>2026-03-28T14:30:03.999Z</time></trkpt><trkpt lat="46.32998415324147" lon="10.343187328384749"><ele>904.0</ele><time>2026-03-28T14:30:04.999Z</time></trkpt><trkpt lat="46.33022267317406" lon="10.343293262438749"><ele>904.0</ele><time>2026-03-28T14:30:05.999Z</time></trkpt><trkpt lat="46.330453366358526" lon="10.343428843824839"><ele>904.0</ele><time>2026-03-28T14:30:06.999Z</time></trkpt><trkpt lat="46.33071255293342" lon="10.34346143829129"><ele>928.5</ele><time>2026-03-28T14:30:07.999Z</time></trkpt><trkpt lat="46.3309657857251" lon="10.34353433945742"><ele>953.0</ele><time>2026-03-28T14:30:08.999Z</time></trkpt><trkpt lat="46.33121855301412" lon="10.34362085800245"><ele>990.5</ele><time>2026-03-28T14:30:10.025Z</time></trkpt><trkpt lat="46.33147841798177" lon="10.343629610541738"><ele>1028.0</ele><time>2026-03-28T14:30:11.012Z</time></trkpt><trkpt lat="46.3317265058018" lon="10.343697639825058"><ele>1028.0</ele><time>2026-03-28T14:30:12.02Z</time></trkpt><trkpt lat="46.331967630573345" lon="10.343758144820772"><ele>1028.0</ele><time>2026-03-28T14:30:13.02Z</time></trkpt><trkpt lat="46.33220864349468" lon="10.343816315980263"><ele>938.0</ele><time>2026-03-28T14:30:14.014Z</time></trkpt><trkpt lat="46.343073877549116" lon="10.349436672414047"><ele>938.0</ele><time>2026-03-28T14:30:59Z</time></trkpt><trkpt lat="46.34328226948749" lon="10.349674485591873"><ele>938.0</ele><time>2026-03-28T14:31:00Z</time></trkpt><trkpt lat="46.343545572380506" lon="10.349993803224317"><ele>936.0</ele><time>2026-03-28T14:31:01Z</time></trkpt><trkpt lat="46.34375760132995" lon="10.350165680232466"><ele>934.0</ele><time>2026-03-28T14:31:02Z</time></trkpt><trkpt lat="46.343966186906805" lon="10.350311950142892"><ele>934.0</ele><time>2026-03-28T14:31:03Z</time></trkpt><trkpt lat="46.344175509131276" lon="10.350499342164516"><ele>934.0</ele><time>2026-03-28T14:31:04Z</time></trkpt><trkpt lat="46.3443676658956" lon="10.350676461303054"><ele>935.3333333333333</ele><time>2026-03-28T14:31:05Z</time></trkpt><trkpt lat="46.34454139441705" lon="10.350812960949742"><ele>936.6666666666667</ele><time>2026-03-28T14:31:06Z</time></trkpt><trkpt lat="46.34471541179434" lon="10.350957553702385"><ele>938.0</ele><time>2026-03-28T14:31:07Z</time></trkpt><trkpt lat="46.344879999524274" lon="10.351082500392593"><ele>938.3333333333334</ele><time>2026-03-28T14:31:08Z</time></trkpt><trkpt lat="46.34503427925174" lon="10.351221716752999"><ele>938.6666666666667</ele><time>2026-03-28T14:31:09Z</time></trkpt><trkpt lat="46.34516973586554" lon="10.351349575422267"><ele>939.0</ele><time>2026-03-28T14:31:10Z</time></trkpt><trkpt lat="46.34530475809965" lon="10.351496327820584"><ele>939.5</ele><time>2026-03-28T14:31:11Z</time></trkpt><trkpt lat="46.3454327116757" lon="10.351634879745674"><ele>940.0</ele><time>2026-03-28T14:31:12Z</time></trkpt><trkpt lat="46.34554640848772" lon="10.35177620277606"><ele>940.5</ele><time>2026-03-28T14:31:13Z</time></trkpt><trkpt lat="46.345657644152126" lon="10.351894554051034"><ele>941.0</ele><time>2026-03-28T14:31:14Z</time></trkpt><trkpt lat="46.3457687340523" lon="10.351982995669383"><ele>941.1999999999999</ele><time>2026-03-28T14:31:15Z</time></trkpt><trkpt lat="46.34586346544627" lon="10.352050092564408"><ele>941.3999999999999</ele><time>2026-03-28T14:31:16Z</time></trkpt><trkpt lat="46.345950994235324" lon="10.352100280722548"><ele>941.6</ele><time>2026-03-28T14:31:17Z</time></trkpt><trkpt lat="46.3460145591377" lon="10.35215148950742"><ele>941.8</ele><time>2026-03-28T14:31:18Z</time></trkpt><trkpt lat="46.346139797031796" lon="10.352243541419657"><ele>942.0</ele><time>2026-03-28T14:31:20Z</time></trkpt><trkpt lat="46.34622287341012" lon="10.352327493294107"><ele>943.5</ele><time>2026-03-28T14:31:21.001Z</time></trkpt><trkpt lat="46.34631934943555" lon="10.352392988703873"><ele>945.0</ele><time>2026-03-28T14:31:22.001Z</time></trkpt><trkpt lat="46.34643258503149" lon="10.35246944514451"><ele>946.5</ele><time>2026-03-28T14:31:23.001Z</time></trkpt><trkpt lat="46.34655459486265" lon="10.35256289992914"><ele>948.0</ele><time>2026-03-28T14:31:24.001Z</time></trkpt><trkpt lat="46.34668652282929" lon="10.352669781564536"><ele>948.3333333333333</ele><time>2026-03-28T14:31:25.001Z</time></trkpt><trkpt lat="46.34683287799553" lon="10.35277244985136"><ele>948.6666666666666</ele><time>2026-03-28T14:31:26.001Z</time></trkpt><trkpt lat="46.34697270123315" lon="10.352897007057418"><ele>949.0</ele><time>2026-03-28T14:31:27.001Z</time></trkpt><trkpt lat="46.34711461855383" lon="10.353007787234523"><ele>950.0</ele><time>2026-03-28T14:31:28.001Z</time></trkpt><trkpt lat="46.34725390471757" lon="10.353120899070108"><ele>951.0</ele><time>2026-03-28T14:31:29.001Z</time></trkpt><trkpt lat="46.34740190328177" lon="10.35323609341316"><ele>952.0</ele><time>2026-03-28T14:31:30.001Z</time></trkpt><trkpt lat="46.3475636854087" lon="10.353365083136412"><ele>952.0</ele><time>2026-03-28T14:31:31.001Z</time></trkpt><trkpt lat="46.34774874874567" lon="10.35347699124328"><ele>952.0</ele><time>2026-03-28T14:31:32.001Z</time></trkpt><trkpt lat="46.34794625878555" lon="10.353576237119947"><ele>952.0</ele><time>2026-03-28T14:31:33.001Z</time></trkpt><trkpt lat="46.3481463158672" lon="10.3536797403565"><ele>951.6666666666666</ele><time>2026-03-28T14:31:34.001Z</time></trkpt><trkpt lat="46.34832714670711" lon="10.353781166458045"><ele>951.3333333333333</ele><time>2026-03-28T14:31:35.001Z</time></trkpt><trkpt lat="46.348489844795324" lon="10.353882718188503"><ele>951.0</ele><time>2026-03-28T14:31:36.001Z</time></trkpt><trkpt lat="46.34864632630486" lon="10.353988277072892"><ele>951.0</ele><time>2026-03-28T14:31:37.001Z</time></trkpt><trkpt lat="46.34879302329224" lon="10.354090730083989"><ele>951.0</ele><time>2026-03-28T14:31:38.001Z</time></trkpt><trkpt lat="46.34892422216161" lon="10.354179940435046"><ele>951.0</ele><time>2026-03-28T14:31:39.001Z</time></trkpt><trkpt lat="46.349025078677826" lon="10.354258028121047"><ele>951.0</ele><time>2026-03-28T14:31:40.001Z</time></trkpt><trkpt lat="46.34911346130141" lon="10.354349635213827"><ele>951.0</ele><time>2026-03-28T14:31:41.001Z</time></trkpt><trkpt lat="46.349179875022465" lon="10.35447300971399"><ele>951.0</ele><time>2026-03-28T14:31:42.001Z</time></trkpt><trkpt lat="46.34917561388841" lon="10.354629958926738"><ele>951.0</ele><time>2026-03-28T14:31:43.001Z</time></trkpt><trkpt lat="46.34920911735652" lon="10.354796842085175"><ele>951.0</ele><time>2026-03-28T14:31:44.001Z</time></trkpt><trkpt lat="46.34921581125365" lon="10.354961111323842"><ele>951.5999999999999</ele><time>2026-03-28T14:31:45.001Z</time></trkpt><trkpt lat="46.34927085976078" lon="10.355076086490564"><ele>952.1999999999999</ele><time>2026-03-28T14:31:46.001Z</time></trkpt><trkpt lat="46.34935854933717" lon="10.355141718727632"><ele>952.8000000000001</ele><time>2026-03-28T14:31:47.001Z</time></trkpt><trkpt lat="46.34947248626606" lon="10.355143307464662"><ele>953.4000000000001</ele><time>2026-03-28T14:31:48.001Z</time></trkpt><trkpt lat="46.34955960509635" lon="10.355078754310844"><ele>954.0</ele><time>2026-03-28T14:31:49.001Z</time></trkpt><trkpt lat="46.34961558667056" lon="10.35496093674827"><ele>954.0</ele><time>2026-03-28T14:31:50.001Z</time></trkpt><trkpt lat="46.34969052953585" lon="10.35483683300581"><ele>954.0000000000001</ele><time>2026-03-28T14:31:51.001Z</time></trkpt><trkpt lat="46.34979482254478" lon="10.354842118725019"><ele>954.0000000000001</ele><time>2026-03-28T14:31:52.001Z</time></trkpt><trkpt lat="46.34988524084765" lon="10.354885750349862"><ele>954.0</ele><time>2026-03-28T14:31:53.001Z</time></trkpt><trkpt lat="46.34998139954032" lon="10.354902663006696"><ele>954.0</ele><time>2026-03-28T14:31:54.001Z</time></trkpt><trkpt lat="46.35006520086046" lon="10.354833081382534"><ele>953.0</ele><time>2026-03-28T14:31:55.001Z</time></trkpt><trkpt lat="46.350128241576364" lon="10.354689576983557"><ele>952.0</ele><time>2026-03-28T14:31:56.001Z</time></trkpt><trkpt lat="46.35019191628225" lon="10.354524132315124"><ele>951.0</ele><time>2026-03-28T14:31:57.001Z</time></trkpt><trkpt lat="46.350261023583364" lon="10.354369698524073"><ele>950.0</ele><time>2026-03-28T14:31:58.001Z</time></trkpt><trkpt lat="46.35032769459193" lon="10.354266540635034"><ele>950.0</ele><time>2026-03-28T14:31:59.001Z</time></trkpt><trkpt lat="46.35042437588681" lon="10.354233956051372"><ele>950.0</ele><time>2026-03-28T14:32:00.001Z</time></trkpt><trkpt lat="46.3505364015395" lon="10.354270590669046"><ele>950.0</ele><time>2026-03-28T14:32:01.001Z</time></trkpt><trkpt lat="46.350646189358244" lon="10.354391145182937"><ele>950.0</ele><time>2026-03-28T14:32:02.001Z</time></trkpt><trkpt lat="46.35079040199677" lon="10.354499031833756"><ele>949.6666666666667</ele><time>2026-03-28T14:32:03.001Z</time></trkpt><trkpt lat="46.350930188989636" lon="10.354678994135979"><ele>949.3333333333333</ele><time>2026-03-28T14:32:04.001Z</time></trkpt><trkpt lat="46.35108890052777" lon="10.354852191033817"><ele>949.0</ele><time>2026-03-28T14:32:05.001Z</time></trkpt><trkpt lat="46.35126567808365" lon="10.355003228495466"><ele>953.6666666666666</ele><time>2026-03-28T14:32:06.001Z</time></trkpt><trkpt lat="46.35144331791872" lon="10.35514283068579"><ele>958.3333333333333</ele><time>2026-03-28T14:32:07.001Z</time></trkpt><trkpt lat="46.3516039835558" lon="10.35527141521577"><ele>963.0</ele><time>2026-03-28T14:32:08.001Z</time></trkpt><trkpt lat="46.35175144971764" lon="10.35536211415568"><ele>963.0</ele><time>2026-03-28T14:32:09.001Z</time></trkpt><trkpt lat="46.35190761292725" lon="10.355428800731463"><ele>963.0</ele><time>2026-03-28T14:32:10.001Z</time></trkpt><trkpt lat="46.35209229254785" lon="10.355493351684434"><ele>963.0</ele><time>2026-03-28T14:32:11.001Z</time></trkpt><trkpt lat="46.35225922997583" lon="10.355564048739225"><ele>960.6666666666667</ele><time>2026-03-28T14:32:12.001Z</time></trkpt><trkpt lat="46.3524435409658" lon="10.35569723088051"><ele>958.3333333333334</ele><time>2026-03-28T14:32:13.001Z</time></trkpt><trkpt lat="46.352616253371636" lon="10.355819567057967"><ele>956.0</ele><time>2026-03-28T14:32:14.001Z</time></trkpt><trkpt lat="46.3527966222347" lon="10.35595847913644"><ele>956.0</ele><time>2026-03-28T14:32:15.001Z</time></trkpt><trkpt lat="46.352972298929934" lon="10.356090034903463"><ele>956.0</ele><time>2026-03-28T14:32:16.001Z</time></trkpt><trkpt lat="46.353148124019214" lon="10.356231748100727"><ele>956.0</ele><time>2026-03-28T14:32:17.001Z</time></trkpt><trkpt lat="46.35332410219215" lon="10.356359663644882"><ele>954.6666666666667</ele><time>2026-03-28T14:32:18.001Z</time></trkpt><trkpt lat="46.353497037614105" lon="10.356489904187645"><ele>953.3333333333333</ele><time>2026-03-28T14:32:19.001Z</time></trkpt><trkpt lat="46.35365482058815" lon="10.356594154475939"><ele>952.0</ele><time>2026-03-28T14:32:20.001Z</time></trkpt><trkpt lat="46.35379846335045" lon="10.356687453222523"><ele>952.6666666666666</ele><time>2026-03-28T14:32:21.001Z</time></trkpt><trkpt lat="46.35396947801235" lon="10.356734848372355"><ele>953.3333333333333</ele><time>2026-03-28T14:32:22.001Z</time></trkpt><trkpt lat="46.354146146531" lon="10.35672688919598"><ele>954.0</ele><time>2026-03-28T14:32:23.001Z</time></trkpt><trkpt lat="46.35431576253894" lon="10.356697478214723"><ele>954.0</ele><time>2026-03-28T14:32:24.001Z</time></trkpt><trkpt lat="46.35447502529871" lon="10.356635099382467"><ele>954.0</ele><time>2026-03-28T14:32:25.001Z</time></trkpt><trkpt lat="46.35464209360074" lon="10.356532545556211"><ele>954.0</ele><time>2026-03-28T14:32:26.001Z</time></trkpt><trkpt lat="46.35481533320777" lon="10.356409033510227"><ele>958.0</ele><time>2026-03-28T14:32:27.001Z</time></trkpt><trkpt lat="46.35499824163878" lon="10.356295825545095"><ele>962.0</ele><time>2026-03-28T14:32:28.001Z</time></trkpt><trkpt lat="46.35517442775199" lon="10.356166523646005"><ele>966.0</ele><time>2026-03-28T14:32:29.001Z</time></trkpt><trkpt lat="46.355346821777125" lon="10.356034309173955"><ele>966.0</ele><time>2026-03-28T14:32:30.001Z</time></trkpt><trkpt lat="46.35551064141094" lon="10.355888396920152"><ele>966.0</ele><time>2026-03-28T14:32:31.001Z</time></trkpt><trkpt lat="46.35565105728592" lon="10.355743774009557"><ele>966.0</ele><time>2026-03-28T14:32:32.001Z</time></trkpt><trkpt lat="46.355783690215894" lon="10.355596673382795"><ele>966.0</ele><time>2026-03-28T14:32:33.002Z</time></trkpt><trkpt lat="46.35588847934342" lon="10.355403725515833"><ele>966.0</ele><time>2026-03-28T14:32:34.002Z</time></trkpt><trkpt lat="46.35597141010074" lon="10.355163243641607"><ele>966.0</ele><time>2026-03-28T14:32:35.002Z</time></trkpt><trkpt lat="46.35605318901558" lon="10.354917504080023"><ele>971.3333333333333</ele><time>2026-03-28T14:32:36.002Z</time></trkpt><trkpt lat="46.35613251465893" lon="10.354701742074763"><ele>976.6666666666666</ele><time>2026-03-28T14:32:37.002Z</time></trkpt><trkpt lat="46.35621882352513" lon="10.354494952398268"><ele>982.0</ele><time>2026-03-28T14:32:38.002Z</time></trkpt><trkpt lat="46.3563277659293" lon="10.35431654319989"><ele>977.0</ele><time>2026-03-28T14:32:39.002Z</time></trkpt><trkpt lat="46.356479322593984" lon="10.35420104083664"><ele>972.0</ele><time>2026-03-28T14:32:40.002Z</time></trkpt><trkpt lat="46.35663345219574" lon="10.354144534485261"><ele>967.0</ele><time>2026-03-28T14:32:41.002Z</time></trkpt><trkpt lat="46.356797731998995" lon="10.354133707299132"><ele>967.0</ele><time>2026-03-28T14:32:42.002Z</time></trkpt><trkpt lat="46.35698934182585" lon="10.354141987342949"><ele>967.0</ele><time>2026-03-28T14:32:43.002Z</time></trkpt><trkpt lat="46.35723848526916" lon="10.354155289392573"><ele>967.0</ele><time>2026-03-28T14:32:44.002Z</time></trkpt><trkpt lat="46.3574689774731" lon="10.354168154426189"><ele>967.6666666666666</ele><time>2026-03-28T14:32:45.002Z</time></trkpt><trkpt lat="46.35770029846993" lon="10.354167166759275"><ele>968.3333333333333</ele><time>2026-03-28T14:32:46.002Z</time></trkpt><trkpt lat="46.35790550569695" lon="10.354202612691067"><ele>969.0</ele><time>2026-03-28T14:32:47.002Z</time></trkpt><trkpt lat="46.35810647949269" lon="10.35418114035348"><ele>968.6666666666667</ele><time>2026-03-28T14:32:48.002Z</time></trkpt><trkpt lat="46.35828102218635" lon="10.354243816199867"><ele>968.3333333333334</ele><time>2026-03-28T14:32:49.002Z</time></trkpt><trkpt lat="46.35838792146729" lon="10.354528967930365"><ele>968.0</ele><time>2026-03-28T14:32:50.002Z</time></trkpt><trkpt lat="46.35850604707231" lon="10.354745532243992"><ele>968.0</ele><time>2026-03-28T14:32:51.002Z</time></trkpt><trkpt lat="46.35860928414813" lon="10.354998512969104"><ele>968.0</ele><time>2026-03-28T14:32:52.002Z</time></trkpt><trkpt lat="46.358712658840076" lon="10.355241301727448"><ele>968.0</ele><time>2026-03-28T14:32:53.002Z</time></trkpt><trkpt lat="46.35881865974487" lon="10.355418634383453"><ele>968.0</ele><time>2026-03-28T14:32:54.002Z</time></trkpt><trkpt lat="46.35896004169395" lon="10.35552801157415"><ele>968.0</ele><time>2026-03-28T14:32:55.002Z</time></trkpt><trkpt lat="46.35914312735532" lon="10.355605408028795"><ele>968.0</ele><time>2026-03-28T14:32:56.002Z</time></trkpt><trkpt lat="46.35934166927886" lon="10.355618514498984"><ele>968.0</ele><time>2026-03-28T14:32:57.002Z</time></trkpt><trkpt lat="46.359532721477706" lon="10.355576762401778"><ele>968.0</ele><time>2026-03-28T14:32:58.002Z</time></trkpt><trkpt lat="46.359711341884925" lon="10.355469683836755"><ele>968.0</ele><time>2026-03-28T14:32:59.002Z</time></trkpt><trkpt lat="46.35989200270381" lon="10.355312275365048"><ele>969.0</ele><time>2026-03-28T14:33:00.002Z</time></trkpt><trkpt lat="46.36007627182252" lon="10.355129936584317"><ele>970.0</ele><time>2026-03-28T14:33:01.002Z</time></trkpt><trkpt lat="46.3602474785681" lon="10.354958897078447"><ele>971.0</ele><time>2026-03-28T14:33:02.002Z</time></trkpt><trkpt lat="46.36043687401269" lon="10.354889056014168"><ele>969.3333333333334</ele><time>2026-03-28T14:33:03.002Z</time></trkpt><trkpt lat="46.360638555718616" lon="10.354852955184398"><ele>967.6666666666667</ele><time>2026-03-28T14:33:04.002Z</time></trkpt><trkpt lat="46.360859399622136" lon="10.354805913645237"><ele>966.0</ele><time>2026-03-28T14:33:05.002Z</time></trkpt><trkpt lat="46.3610928471431" lon="10.354794851533926"><ele>966.0</ele><time>2026-03-28T14:33:06.002Z</time></trkpt><trkpt lat="46.36133574320756" lon="10.354780071886232"><ele>966.0</ele><time>2026-03-28T14:33:07.002Z</time></trkpt><trkpt lat="46.36159772501463" lon="10.354752632448594"><ele>966.5</ele><time>2026-03-28T14:33:08.002Z</time></trkpt><trkpt lat="46.36185908086583" lon="10.354734246360902"><ele>967.0</ele><time>2026-03-28T14:33:09.002Z</time></trkpt><trkpt lat="46.362128867672965" lon="10.354710157810533"><ele>969.0</ele><time>2026-03-28T14:33:10.002Z</time></trkpt><trkpt lat="46.36240960003494" lon="10.354701339557538"><ele>971.0</ele><time>2026-03-28T14:33:11.002Z</time></trkpt><trkpt lat="46.36269716130458" lon="10.354697302342757"><ele>971.0</ele><time>2026-03-28T14:33:12.002Z</time></trkpt><trkpt lat="46.362980705275234" lon="10.354685979240822"><ele>971.0</ele><time>2026-03-28T14:33:13.002Z</time></trkpt><trkpt lat="46.36326366187977" lon="10.354689531056371"><ele>971.5</ele><time>2026-03-28T14:33:14.002Z</time></trkpt><trkpt lat="46.3635525314545" lon="10.354667261849567"><ele>972.0</ele><time>2026-03-28T14:33:15.002Z</time></trkpt><trkpt lat="46.36383091073627" lon="10.354657770511794"><ele>976.5</ele><time>2026-03-28T14:33:16.002Z</time></trkpt><trkpt lat="46.36410630315273" lon="10.354651554322562"><ele>981.0</ele><time>2026-03-28T14:33:17.002Z</time></trkpt><trkpt lat="46.36437225445999" lon="10.354676189278395"><ele>977.0</ele><time>2026-03-28T14:33:18.002Z</time></trkpt><trkpt lat="46.36463410316351" lon="10.35476321737408"><ele>973.0</ele><time>2026-03-28T14:33:19.002Z</time></trkpt><trkpt lat="46.36489540138828" lon="10.3548533966213"><ele>973.0</ele><time>2026-03-28T14:33:20.002Z</time></trkpt><trkpt lat="46.365153442478324" lon="10.354954093692623"><ele>973.0</ele><time>2026-03-28T14:33:21.002Z</time></trkpt><trkpt lat="46.36541538686384" lon="10.355077760782798"><ele>974.0</ele><time>2026-03-28T14:33:22.002Z</time></trkpt><trkpt lat="46.36567209028922" lon="10.355201858589623"><ele>975.0</ele><time>2026-03-28T14:33:23.002Z</time></trkpt><trkpt lat="46.36592858637208" lon="10.35533406067774"><ele>975.0</ele><time>2026-03-28T14:33:24.001Z</time></trkpt><trkpt lat="46.36617418909542" lon="10.355484990632402"><ele>975.0</ele><time>2026-03-28T14:33:25.001Z</time></trkpt><trkpt lat="46.36641242986839" lon="10.355648462874948"><ele>976.5</ele><time>2026-03-28T14:33:26.001Z</time></trkpt><trkpt lat="46.36664199299713" lon="10.355820841398087"><ele>978.0</ele><time>2026-03-28T14:33:27.001Z</time></trkpt><trkpt lat="46.36686234087846" lon="10.356000912069623"><ele>978.0</ele><time>2026-03-28T14:33:28.001Z</time></trkpt><trkpt lat="46.367076078491706" lon="10.356184835620619"><ele>978.0</ele><time>2026-03-28T14:33:29.001Z</time></trkpt><trkpt lat="46.36727032512408" lon="10.356361101172604"><ele>979.3333333333333</ele><time>2026-03-28T14:33:30.001Z</time></trkpt><trkpt lat="46.36746156905955" lon="10.356496572167492"><ele>980.6666666666666</ele><time>2026-03-28T14:33:31.001Z</time></trkpt><trkpt lat="46.36764972788673" lon="10.35658469070459"><ele>982.0</ele><time>2026-03-28T14:33:32.001Z</time></trkpt><trkpt lat="46.367839501715586" lon="10.356587569685972"><ele>984.6666666666666</ele><time>2026-03-28T14:33:33.001Z</time></trkpt><trkpt lat="46.368055752723805" lon="10.35657051418018"><ele>987.3333333333333</ele><time>2026-03-28T14:33:34.001Z</time></trkpt><trkpt lat="46.36827058739865" lon="10.356578478865547"><ele>990.0</ele><time>2026-03-28T14:33:35.001Z</time></trkpt><trkpt lat="46.368499293834404" lon="10.356590696887848"><ele>990.0</ele><time>2026-03-28T14:33:36.001Z</time></trkpt><trkpt lat="46.368741054943285" lon="10.356599951026622"><ele>990.0</ele><time>2026-03-28T14:33:37.001Z</time></trkpt><trkpt lat="46.368969250108925" lon="10.35664096200013"><ele>994.5</ele><time>2026-03-28T14:33:38.001Z</time></trkpt><trkpt lat="46.369202446609265" lon="10.356657164589135"><ele>999.0</ele><time>2026-03-28T14:33:39.001Z</time></trkpt><trkpt lat="46.36942892834823" lon="10.35665585017422"><ele>999.0</ele><time>2026-03-28T14:33:40.001Z</time></trkpt><trkpt lat="46.36964447674188" lon="10.356634494407526"><ele>999.0</ele><time>2026-03-28T14:33:41.001Z</time></trkpt><trkpt lat="46.36985232676964" lon="10.356637825525333"><ele>999.0</ele><time>2026-03-28T14:33:42.001Z</time></trkpt><trkpt lat="46.370043482037396" lon="10.356631112162413"><ele>1000.6666666666667</ele><time>2026-03-28T14:33:43.001Z</time></trkpt><trkpt lat="46.37021671363198" lon="10.35661854742127"><ele>1002.3333333333334</ele><time>2026-03-28T14:33:44.001Z</time></trkpt><trkpt lat="46.37038259566424" lon="10.356705676275885"><ele>1004.0</ele><time>2026-03-28T14:33:45.001Z</time></trkpt><trkpt lat="46.37052413443151" lon="10.356840520763578"><ele>1004.0</ele><time>2026-03-28T14:33:46.001Z</time></trkpt><trkpt lat="46.37064975507104" lon="10.35703484286303"><ele>1004.0</ele><time>2026-03-28T14:33:47.001Z</time></trkpt><trkpt lat="46.37077743558561" lon="10.35721626467969"><ele>1004.0</ele><time>2026-03-28T14:33:48.001Z</time></trkpt><trkpt lat="46.37092491242556" lon="10.357324334437559"><ele>1004.0</ele><time>2026-03-28T14:33:49.001Z</time></trkpt><trkpt lat="46.371099206034856" lon="10.357386520050465"><ele>1004.0</ele><time>2026-03-28T14:33:50.001Z</time></trkpt><trkpt lat="46.37128056580561" lon="10.357423585216772"><ele>1004.0</ele><time>2026-03-28T14:33:51.001Z</time></trkpt><trkpt lat="46.37147136914228" lon="10.357399427104404"><ele>1007.0</ele><time>2026-03-28T14:33:52.001Z</time></trkpt><trkpt lat="46.37164792335651" lon="10.35735497730442"><ele>1010.0</ele><time>2026-03-28T14:33:53.001Z</time></trkpt><trkpt lat="46.371811331282785" lon="10.357380030251699"><ele>1013.0</ele><time>2026-03-28T14:33:54.001Z</time></trkpt><trkpt lat="46.37194802597924" lon="10.3574769294615"><ele>1013.0</ele><time>2026-03-28T14:33:55.001Z</time></trkpt><trkpt lat="46.3720512210271" lon="10.357645574527995"><ele>1013.0</ele><time>2026-03-28T14:33:56.001Z</time></trkpt><trkpt lat="46.372127542550615" lon="10.357850423645113"><ele>1013.0</ele><time>2026-03-28T14:33:57.001Z</time></trkpt><trkpt lat="46.37217164105443" lon="10.358083450566701"><ele>1013.0</ele><time>2026-03-28T14:33:58.001Z</time></trkpt><trkpt lat="46.372208303154814" lon="10.358332329652079"><ele>1013.0</ele><time>2026-03-28T14:33:59.001Z</time></trkpt><trkpt lat="46.3722547632741" lon="10.358568433252767"><ele>1013.0</ele><time>2026-03-28T14:34:00.001Z</time></trkpt><trkpt lat="46.37230644829788" lon="10.358781418580536"><ele>1018.0</ele><time>2026-03-28T14:34:01.001Z</time></trkpt><trkpt lat="46.372407013642245" lon="10.358955994471337"><ele>1023.0</ele><time>2026-03-28T14:34:02.001Z</time></trkpt><trkpt lat="46.37254978797346" lon="10.359083021587455"><ele>1028.0</ele><time>2026-03-28T14:34:03.001Z</time></trkpt><trkpt lat="46.3727059239243" lon="10.359174549959441"><ele>1028.0</ele><time>2026-03-28T14:34:04.001Z</time></trkpt><trkpt lat="46.37289505018294" lon="10.359227035769791"><ele>1028.0</ele><time>2026-03-28T14:34:05.001Z</time></trkpt><trkpt lat="46.37307964034878" lon="10.359278731349443"><ele>1028.0</ele><time>2026-03-28T14:34:06.001Z</time></trkpt><trkpt lat="46.37327611973664" lon="10.359295765673505"><ele>1030.6666666666667</ele><time>2026-03-28T14:34:07.001Z</time></trkpt><trkpt lat="46.373483326713476" lon="10.359302908816465"><ele>1033.3333333333333</ele><time>2026-03-28T14:34:08.001Z</time></trkpt><trkpt lat="46.373689150034586" lon="10.359318685536579"><ele>1036.0</ele><time>2026-03-28T14:34:09.001Z</time></trkpt><trkpt lat="46.373899769698944" lon="10.359345836203838"><ele>1043.5</ele><time>2026-03-28T14:34:10.001Z</time></trkpt><trkpt lat="46.37411851409895" lon="10.35938825734842"><ele>1051.0</ele><time>2026-03-28T14:34:11.001Z</time></trkpt><trkpt lat="46.3743564368407" lon="10.359403821491748"><ele>1051.0</ele><time>2026-03-28T14:34:12.001Z</time></trkpt><trkpt lat="46.374598064168964" lon="10.359434203187286"><ele>1051.0</ele><time>2026-03-28T14:34:13.001Z</time></trkpt><trkpt lat="46.374843905129765" lon="10.35945862414151"><ele>1055.0</ele><time>2026-03-28T14:34:14.001Z</time></trkpt><trkpt lat="46.37509543110739" lon="10.359487418503083"><ele>1059.0</ele><time>2026-03-28T14:34:15.001Z</time></trkpt><trkpt lat="46.375354045477074" lon="10.35949916768842"><ele>1063.5</ele><time>2026-03-28T14:34:16.001Z</time></trkpt><trkpt lat="46.37561376616716" lon="10.359503277569724"><ele>1068.0</ele><time>2026-03-28T14:34:17.001Z</time></trkpt><trkpt lat="46.3758800566471" lon="10.359467657793966"><ele>1068.0</ele><time>2026-03-28T14:34:18.001Z</time></trkpt><trkpt lat="46.37613587617353" lon="10.35940897777786"><ele>1068.0</ele><time>2026-03-28T14:34:19.001Z</time></trkpt><trkpt lat="46.37636634795282" lon="10.359339521880127"><ele>1072.3333333333333</ele><time>2026-03-28T14:34:20.001Z</time></trkpt><trkpt lat="46.37657936612248" lon="10.35927175573461"><ele>1076.6666666666665</ele><time>2026-03-28T14:34:21.001Z</time></trkpt><trkpt lat="46.37679585560925" lon="10.359207132852484"><ele>1081.0</ele><time>2026-03-28T14:34:22.001Z</time></trkpt><trkpt lat="46.377016236446494" lon="10.359156227979373"><ele>1086.0</ele><time>2026-03-28T14:34:23.001Z</time></trkpt><trkpt lat="46.37724478054058" lon="10.359116910801136"><ele>1091.0</ele><time>2026-03-28T14:34:24.001Z</time></trkpt><trkpt lat="46.37746862953887" lon="10.359086173407444"><ele>1091.0</ele><time>2026-03-28T14:34:25.001Z</time></trkpt><trkpt lat="46.37769327963672" lon="10.359066778203745"><ele>1091.0</ele><time>2026-03-28T14:34:26.001Z</time></trkpt><trkpt lat="46.3779071577693" lon="10.359035007483822"><ele>1091.0</ele><time>2026-03-28T14:34:27.001Z</time></trkpt><trkpt lat="46.37809926813617" lon="10.358981092215805"><ele>1089.0</ele><time>2026-03-28T14:34:28.001Z</time></trkpt><trkpt lat="46.37828398172023" lon="10.358901051769534"><ele>1087.0</ele><time>2026-03-28T14:34:29.001Z</time></trkpt><trkpt lat="46.378466888719686" lon="10.358807295250271"><ele>1085.0</ele><time>2026-03-28T14:34:30.001Z</time></trkpt><trkpt lat="46.378656167545074" lon="10.358693295036558"><ele>1085.0</ele><time>2026-03-28T14:34:31.001Z</time></trkpt><trkpt lat="46.37883762917686" lon="10.358572726561164"><ele>1085.0</ele><time>2026-03-28T14:34:32.001Z</time></trkpt><trkpt lat="46.37900958491656" lon="10.35843277624616"><ele>1085.0</ele><time>2026-03-28T14:34:33.001Z</time></trkpt><trkpt lat="46.37917297970704" lon="10.358269606288731"><ele>1087.3333333333335</ele><time>2026-03-28T14:34:34.001Z</time></trkpt><trkpt lat="46.3793127711738" lon="10.358066897924754"><ele>1089.6666666666667</ele><time>2026-03-28T14:34:35.001Z</time></trkpt><trkpt lat="46.3794364138368" lon="10.357854304166437"><ele>1092.0</ele><time>2026-03-28T14:34:36.001Z</time></trkpt><trkpt lat="46.37955201767346" lon="10.357663336011587"><ele>1092.0</ele><time>2026-03-28T14:34:37.001Z</time></trkpt><trkpt lat="46.37966629121999" lon="10.35749349565504"><ele>1092.0</ele><time>2026-03-28T14:34:38.001Z</time></trkpt><trkpt lat="46.379804603985825" lon="10.357348572387712"><ele>1092.0</ele><time>2026-03-28T14:34:39.001Z</time></trkpt><trkpt lat="46.37996749359429" lon="10.357254031949315"><ele>1093.3333333333333</ele><time>2026-03-28T14:34:40.001Z</time></trkpt><trkpt lat="46.38014684830099" lon="10.357203127572777"><ele>1094.6666666666665</ele><time>2026-03-28T14:34:41.001Z</time></trkpt><trkpt lat="46.38035948608923" lon="10.357182400272277"><ele>1096.0</ele><time>2026-03-28T14:34:42.001Z</time></trkpt><trkpt lat="46.380592579117" lon="10.357182902890656"><ele>1099.0</ele><time>2026-03-28T14:34:43.001Z</time></trkpt><trkpt lat="46.380849802204665" lon="10.357173292782091"><ele>1102.0</ele><time>2026-03-28T14:34:44.001Z</time></trkpt><trkpt lat="46.38112713219387" lon="10.357143941356352"><ele>1102.5</ele><time>2026-03-28T14:34:45.001Z</time></trkpt><trkpt lat="46.38142033097159" lon="10.35711165693502"><ele>1103.0</ele><time>2026-03-28T14:34:46.001Z</time></trkpt><trkpt lat="46.38173103990005" lon="10.357077636799591"><ele>1103.0</ele><time>2026-03-28T14:34:47.001Z</time></trkpt><trkpt lat="46.38206020534802" lon="10.357046583829767"><ele>1103.0</ele><time>2026-03-28T14:34:48.001Z</time></trkpt><trkpt lat="46.38240950885389" lon="10.357013153221184"><ele>1107.5</ele><time>2026-03-28T14:34:49.001Z</time></trkpt><trkpt lat="46.38277428933033" lon="10.356977470998183"><ele>1112.0</ele><time>2026-03-28T14:34:50.001Z</time></trkpt><trkpt lat="46.383150990179494" lon="10.3569421802158"><ele>1114.5</ele><time>2026-03-28T14:34:51.001Z</time></trkpt><trkpt lat="46.38350810792608" lon="10.356907071534266"><ele>1117.0</ele><time>2026-03-28T14:34:52.001Z</time></trkpt><trkpt lat="46.38383366608796" lon="10.35686930318679"><ele>1115.5</ele><time>2026-03-28T14:34:53.001Z</time></trkpt><trkpt lat="46.384137510404685" lon="10.356835915778575"><ele>1114.0</ele><time>2026-03-28T14:34:54.001Z</time></trkpt><trkpt lat="46.38443651117092" lon="10.35680900776312"><ele>1116.0</ele><time>2026-03-28T14:34:55.001Z</time></trkpt><trkpt lat="46.3847345266342" lon="10.356804101034188"><ele>1118.0</ele><time>2026-03-28T14:34:56.001Z</time></trkpt><trkpt lat="46.38502534232768" lon="10.356814992768598"><ele>1118.0</ele><time>2026-03-28T14:34:57.001Z</time></trkpt><trkpt lat="46.385309969555365" lon="10.356818343874687"><ele>1118.0</ele><time>2026-03-28T14:34:58.001Z</time></trkpt><trkpt lat="46.38559308256081" lon="10.356803608739197"><ele>1119.0</ele><time>2026-03-28T14:34:59.001Z</time></trkpt><trkpt lat="46.385856773514035" lon="10.356753934704184"><ele>1120.0</ele><time>2026-03-28T14:35:00.001Z</time></trkpt><trkpt lat="46.38615509141798" lon="10.356685971533558"><ele>1119.0</ele><time>2026-03-28T14:35:01.001Z</time></trkpt><trkpt lat="46.386438472648116" lon="10.356587350724622"><ele>1118.0</ele><time>2026-03-28T14:35:02.001Z</time></trkpt><trkpt lat="46.38672368658712" lon="10.35647354115173"><ele>1112.0</ele><time>2026-03-28T14:35:03.001Z</time></trkpt><trkpt lat="46.38701160679708" lon="10.356345790306607"><ele>1106.0</ele><time>2026-03-28T14:35:04.001Z</time></trkpt><trkpt lat="46.38729054373391" lon="10.356191812603559"><ele>1106.0</ele><time>2026-03-28T14:35:05.001Z</time></trkpt><trkpt lat="46.387567624384616" lon="10.356011759046561"><ele>1106.0</ele><time>2026-03-28T14:35:06.001Z</time></trkpt><trkpt lat="46.38784906685994" lon="10.355817253765776"><ele>1107.5</ele><time>2026-03-28T14:35:07.001Z</time></trkpt><trkpt lat="46.38813048476251" lon="10.355624970926563"><ele>1109.0</ele><time>2026-03-28T14:35:08.001Z</time></trkpt><trkpt lat="46.38840487208917" lon="10.355403661867006"><ele>1104.5</ele><time>2026-03-28T14:35:09.001Z</time></trkpt><trkpt lat="46.38867295193432" lon="10.35520065053927"><ele>1100.0</ele><time>2026-03-28T14:35:10.001Z</time></trkpt><trkpt lat="46.388944618276284" lon="10.355033091599477"><ele>1100.0</ele><time>2026-03-28T14:35:11.001Z</time></trkpt><trkpt lat="46.389227170421634" lon="10.354907469642407"><ele>1100.0</ele><time>2026-03-28T14:35:12.001Z</time></trkpt><trkpt lat="46.389502563154295" lon="10.354810466574007"><ele>1101.0</ele><time>2026-03-28T14:35:13.001Z</time></trkpt><trkpt lat="46.38976555095902" lon="10.35471742160023"><ele>1102.0</ele><time>2026-03-28T14:35:14.001Z</time></trkpt><trkpt lat="46.390011291017544" lon="10.35459718655218"><ele>1097.5</ele><time>2026-03-28T14:35:15.001Z</time></trkpt><trkpt lat="46.39024739175762" lon="10.354441998883717"><ele>1093.0</ele><time>2026-03-28T14:35:16.001Z</time></trkpt><trkpt lat="46.39048856369406" lon="10.35427243871387"><ele>1098.0</ele><time>2026-03-28T14:35:17.001Z</time></trkpt><trkpt lat="46.390727164580916" lon="10.354085311738103"><ele>1103.0</ele><time>2026-03-28T14:35:18.001Z</time></trkpt><trkpt lat="46.39095730398118" lon="10.353893631678435"><ele>1100.0</ele><time>2026-03-28T14:35:19.001Z</time></trkpt><trkpt lat="46.39118833974873" lon="10.353719018716603"><ele>1097.0</ele><time>2026-03-28T14:35:20.001Z</time></trkpt><trkpt lat="46.39142354429228" lon="10.353555728545647"><ele>1097.0</ele><time>2026-03-28T14:35:21.001Z</time></trkpt><trkpt lat="46.39163925005343" lon="10.353425813174297"><ele>1097.0</ele><time>2026-03-28T14:35:22.001Z</time></trkpt><trkpt lat="46.39184268027507" lon="10.353338703046619"><ele>1097.0</ele><time>2026-03-28T14:35:23.001Z</time></trkpt><trkpt lat="46.39200233663242" lon="10.353285831328717"><ele>1097.0</ele><time>2026-03-28T14:35:24.001Z</time></trkpt><trkpt lat="46.39215426943314" lon="10.353276248215845"><ele>1097.0</ele><time>2026-03-28T14:35:25.001Z</time></trkpt><trkpt lat="46.39230241852615" lon="10.353309992457854"><ele>1097.0</ele><time>2026-03-28T14:35:26.001Z</time></trkpt><trkpt lat="46.39242590624598" lon="10.35340773434227"><ele>1097.0</ele><time>2026-03-28T14:35:27.001Z</time></trkpt><trkpt lat="46.392557740393656" lon="10.353537075253332"><ele>1096.3333333333335</ele><time>2026-03-28T14:35:28.001Z</time></trkpt><trkpt lat="46.39272762195799" lon="10.353685902065218"><ele>1095.6666666666667</ele><time>2026-03-28T14:35:29.001Z</time></trkpt><trkpt lat="46.39292097200153" lon="10.353770738249889"><ele>1095.0</ele><time>2026-03-28T14:35:30.001Z</time></trkpt><trkpt lat="46.39312851920505" lon="10.35384305888895"><ele>1113.5</ele><time>2026-03-28T14:35:31.001Z</time></trkpt><trkpt lat="46.393339013450536" lon="10.353952029288573"><ele>1132.0</ele><time>2026-03-28T14:35:32.001Z</time></trkpt><trkpt lat="46.3935488999034" lon="10.354076699187747"><ele>1132.0</ele><time>2026-03-28T14:35:33.001Z</time></trkpt><trkpt lat="46.3937569168713" lon="10.354225517632791"><ele>1132.0</ele><time>2026-03-28T14:35:34.001Z</time></trkpt><trkpt lat="46.393942813764276" lon="10.354360632398862"><ele>1132.0</ele><time>2026-03-28T14:35:35.001Z</time></trkpt><trkpt lat="46.39405341123285" lon="10.35452652525752"><ele>1127.3333333333333</ele><time>2026-03-28T14:35:36.001Z</time></trkpt><trkpt lat="46.3942479483641" lon="10.354623861064448"><ele>1122.6666666666667</ele><time>2026-03-28T14:35:37.001Z</time></trkpt><trkpt lat="46.394347086551356" lon="10.354835844489719"><ele>1118.0</ele><time>2026-03-28T14:35:38.001Z</time></trkpt><trkpt lat="46.39441071083792" lon="10.35508205206504"><ele>1118.0</ele><time>2026-03-28T14:35:39.001Z</time></trkpt><trkpt lat="46.39447661318254" lon="10.35533114037354"><ele>1118.0</ele><time>2026-03-28T14:35:40.001Z</time></trkpt><trkpt lat="46.394550777445374" lon="10.355568229235057"><ele>1118.0</ele><time>2026-03-28T14:35:41.001Z</time></trkpt><trkpt lat="46.3946910408347" lon="10.355682521971373"><ele>1115.6666666666667</ele><time>2026-03-28T14:35:42.001Z</time></trkpt><trkpt lat="46.394841290035" lon="10.355773912351657"><ele>1113.3333333333333</ele><time>2026-03-28T14:35:43.001Z</time></trkpt><trkpt lat="46.39501804740174" lon="10.355797507105908"><ele>1111.0</ele><time>2026-03-28T14:35:44.001Z</time></trkpt><trkpt lat="46.39520648415861" lon="10.355773591227113"><ele>1111.0</ele><time>2026-03-28T14:35:45Z</time></trkpt><trkpt lat="46.39541004576747" lon="10.355695384144115"><ele>1111.0</ele><time>2026-03-28T14:35:46Z</time></trkpt><trkpt lat="46.39562679540086" lon="10.35558238553223"><ele>1111.0</ele><time>2026-03-28T14:35:47Z</time></trkpt><trkpt lat="46.395858431875546" lon="10.355450217963998"><ele>1098.0</ele><time>2026-03-28T14:35:48Z</time></trkpt><trkpt lat="46.39608961924559" lon="10.355319741921866"><ele>1085.0</ele><time>2026-03-28T14:35:49Z</time></trkpt><trkpt lat="46.396331310010275" lon="10.355212914090679"><ele>1088.0</ele><time>2026-03-28T14:35:50Z</time></trkpt><trkpt lat="46.39657519579573" lon="10.355126661239913"><ele>1091.0</ele><time>2026-03-28T14:35:51Z</time></trkpt><trkpt lat="46.39680403718883" lon="10.355048599004064"><ele>1091.0</ele><time>2026-03-28T14:35:52Z</time></trkpt><trkpt lat="46.397024600284816" lon="10.354996760335661"><ele>1091.0</ele><time>2026-03-28T14:35:53Z</time></trkpt><trkpt lat="46.397239606292096" lon="10.355026609302303"><ele>1091.0</ele><time>2026-03-28T14:35:54Z</time></trkpt><trkpt lat="46.397457591260746" lon="10.355079554188228"><ele>1092.5</ele><time>2026-03-28T14:35:55Z</time></trkpt><trkpt lat="46.39768701870145" lon="10.355123592950727"><ele>1094.0</ele><time>2026-03-28T14:35:56Z</time></trkpt><trkpt lat="46.397917987703956" lon="10.355130292669863"><ele>1098.0</ele><time>2026-03-28T14:35:57Z</time></trkpt><trkpt lat="46.398156285533595" lon="10.355130464686622"><ele>1102.0</ele><time>2026-03-28T14:35:58Z</time></trkpt><trkpt lat="46.39837903363463" lon="10.355110178936265"><ele>1102.0</ele><time>2026-03-28T14:35:59Z</time></trkpt><trkpt lat="46.39858316870011" lon="10.355082283191658"><ele>1102.0</ele><time>2026-03-28T14:36:00Z</time></trkpt><trkpt lat="46.398769173661634" lon="10.355044708115203"><ele>1102.0</ele><time>2026-03-28T14:36:01Z</time></trkpt><trkpt lat="46.398943599939216" lon="10.355006304327969"><ele>1101.0</ele><time>2026-03-28T14:36:02Z</time></trkpt><trkpt lat="46.39911256037189" lon="10.35497266614831"><ele>1100.0</ele><time>2026-03-28T14:36:03Z</time></trkpt><trkpt lat="46.399272825697" lon="10.354938911657651"><ele>1099.0</ele><time>2026-03-28T14:36:04Z</time></trkpt><trkpt lat="46.399416204849885" lon="10.354906743462656"><ele>1099.0</ele><time>2026-03-28T14:36:05Z</time></trkpt><trkpt lat="46.3995540656927" lon="10.354879934730429"><ele>1099.0</ele><time>2026-03-28T14:36:06Z</time></trkpt><trkpt lat="46.39968715201828" lon="10.35485090253346"><ele>1099.0</ele><time>2026-03-28T14:36:07Z</time></trkpt><trkpt lat="46.39980781847809" lon="10.354819039505083"><ele>1099.0</ele><time>2026-03-28T14:36:08Z</time></trkpt><trkpt lat="46.39991179727261" lon="10.35478689251946"><ele>1100.4</ele><time>2026-03-28T14:36:09Z</time></trkpt><trkpt lat="46.40001243267928" lon="10.354751099716982"><ele>1101.8000000000002</ele><time>2026-03-28T14:36:10Z</time></trkpt><trkpt lat="46.40010369832843" lon="10.354715889243467"><ele>1103.1999999999998</ele><time>2026-03-28T14:36:11Z</time></trkpt><trkpt lat="46.400190052362305" lon="10.35467969076432"><ele>1104.6</ele><time>2026-03-28T14:36:12Z</time></trkpt><trkpt lat="46.40026592942416" lon="10.354645414259801"><ele>1106.0</ele><time>2026-03-28T14:36:13Z</time></trkpt><trkpt lat="46.40035061132846" lon="10.354604663053772"><ele>1101.8</ele><time>2026-03-28T14:36:15Z</time></trkpt><trkpt lat="46.40041310765357" lon="10.354591311000082"><ele>1097.6</ele><time>2026-03-28T14:36:39.001Z</time></trkpt><trkpt lat="46.40050037487429" lon="10.354557716217293"><ele>1093.4</ele><time>2026-03-28T14:36:42.001Z</time></trkpt><trkpt lat="46.40058658885562" lon="10.354524529857585"><ele>1089.2</ele><time>2026-03-28T14:36:43.001Z</time></trkpt><trkpt lat="46.400706651409436" lon="10.3544809574765"><ele>1085.0</ele><time>2026-03-28T14:36:44.001Z</time></trkpt><trkpt lat="46.40086318186693" lon="10.354427489324157"><ele>1085.0</ele><time>2026-03-28T14:36:45.001Z</time></trkpt><trkpt lat="46.401054317049066" lon="10.354381470257422"><ele>1085.0</ele><time>2026-03-28T14:36:46.001Z</time></trkpt><trkpt lat="46.401276664224056" lon="10.35430842926938"><ele>1085.0</ele><time>2026-03-28T14:36:47.001Z</time></trkpt><trkpt lat="46.40153270819117" lon="10.354252624740074"><ele>1087.0</ele><time>2026-03-28T14:36:48.001Z</time></trkpt><trkpt lat="46.40178969752339" lon="10.354170753448493"><ele>1089.0</ele><time>2026-03-28T14:36:49.001Z</time></trkpt><trkpt lat="46.40203427523511" lon="10.354034890397832"><ele>1085.0</ele><time>2026-03-28T14:36:50.001Z</time></trkpt><trkpt lat="46.402260387169434" lon="10.353851621272879"><ele>1081.0</ele><time>2026-03-28T14:36:51.001Z</time></trkpt><trkpt lat="46.40245917598867" lon="10.353639775435639"><ele>1081.0</ele><time>2026-03-28T14:36:52.001Z</time></trkpt><trkpt lat="46.402654332721916" lon="10.353413703888622"><ele>1081.0</ele><time>2026-03-28T14:36:53.001Z</time></trkpt><trkpt lat="46.402861566166024" lon="10.353205920622544"><ele>1084.5</ele><time>2026-03-28T14:36:54.001Z</time></trkpt><trkpt lat="46.403069613528444" lon="10.353006069568886"><ele>1088.0</ele><time>2026-03-28T14:36:55.001Z</time></trkpt><trkpt lat="46.40326668137431" lon="10.352818307741813"><ele>1088.0</ele><time>2026-03-28T14:36:56.001Z</time></trkpt><trkpt lat="46.40345183139669" lon="10.352654383812329"><ele>1088.0</ele><time>2026-03-28T14:36:57.001Z</time></trkpt><trkpt lat="46.40364300763687" lon="10.352469033668712"><ele>1088.0</ele><time>2026-03-28T14:36:58.001Z</time></trkpt><trkpt lat="46.403834099187506" lon="10.352272870420236"><ele>1088.6666666666667</ele><time>2026-03-28T14:36:59.001Z</time></trkpt><trkpt lat="46.4040110689043" lon="10.352121408571616"><ele>1089.3333333333333</ele><time>2026-03-28T14:37:00.001Z</time></trkpt><trkpt lat="46.404168359880096" lon="10.351988381909457"><ele>1090.0</ele><time>2026-03-28T14:37:01.001Z</time></trkpt><trkpt lat="46.40432866339507" lon="10.351884354413869"><ele>1090.0</ele><time>2026-03-28T14:37:02.001Z</time></trkpt><trkpt lat="46.40451445564811" lon="10.351799855354882"><ele>1090.0</ele><time>2026-03-28T14:37:03.001Z</time></trkpt><trkpt lat="46.404707895103066" lon="10.351708283952195"><ele>1090.0</ele><time>2026-03-28T14:37:04.001Z</time></trkpt><trkpt lat="46.404938408442085" lon="10.351622209728175"><ele>1095.0</ele><time>2026-03-28T14:37:05.001Z</time></trkpt><trkpt lat="46.40516491209905" lon="10.351515703636332"><ele>1100.0</ele><time>2026-03-28T14:37:06.001Z</time></trkpt><trkpt lat="46.40539543959346" lon="10.351383459619056"><ele>1099.0</ele><time>2026-03-28T14:37:07.001Z</time></trkpt><trkpt lat="46.40563873946568" lon="10.351271123894104"><ele>1098.0</ele><time>2026-03-28T14:37:08.001Z</time></trkpt><trkpt lat="46.40585463735197" lon="10.351171378724436"><ele>1098.0</ele><time>2026-03-28T14:37:09.001Z</time></trkpt><trkpt lat="46.406061140958045" lon="10.351110382352491"><ele>1098.0</ele><time>2026-03-28T14:37:10.001Z</time></trkpt><trkpt lat="46.406274513584044" lon="10.35107321510473"><ele>1098.0</ele><time>2026-03-28T14:37:11.001Z</time></trkpt><trkpt lat="46.40647613562672" lon="10.351068851357713"><ele>1102.5</ele><time>2026-03-28T14:37:12.001Z</time></trkpt><trkpt lat="46.406709763426434" lon="10.351018662788254"><ele>1107.0</ele><time>2026-03-28T14:37:13.001Z</time></trkpt><trkpt lat="46.40692026820223" lon="10.350944526889027"><ele>1107.0</ele><time>2026-03-28T14:37:14.001Z</time></trkpt><trkpt lat="46.40709837983151" lon="10.35087148654917"><ele>1107.0</ele><time>2026-03-28T14:37:15.001Z</time></trkpt><trkpt lat="46.40728307089348" lon="10.350816506687634"><ele>1107.0</ele><time>2026-03-28T14:37:16.001Z</time></trkpt><trkpt lat="46.40748169991398" lon="10.350786750715285"><ele>1110.0</ele><time>2026-03-28T14:37:17.001Z</time></trkpt><trkpt lat="46.40766911496424" lon="10.350772878962799"><ele>1113.0</ele><time>2026-03-28T14:37:18.001Z</time></trkpt><trkpt lat="46.407856170658164" lon="10.350791968082177"><ele>1116.0</ele><time>2026-03-28T14:37:19.001Z</time></trkpt><trkpt lat="46.408062873447285" lon="10.350830105039028"><ele>1116.0</ele><time>2026-03-28T14:37:20.001Z</time></trkpt><trkpt lat="46.40828155780426" lon="10.350881468396501"><ele>1116.0</ele><time>2026-03-28T14:37:21.001Z</time></trkpt><trkpt lat="46.40847066379028" lon="10.351001837864189"><ele>1116.0</ele><time>2026-03-28T14:37:22.001Z</time></trkpt><trkpt lat="46.40873179979879" lon="10.350939704013484"><ele>1116.5</ele><time>2026-03-28T14:37:23.001Z</time></trkpt><trkpt lat="46.40899358312308" lon="10.350931423230378"><ele>1117.0</ele><time>2026-03-28T14:37:24.001Z</time></trkpt><trkpt lat="46.409273511257325" lon="10.350896024278441"><ele>1117.0</ele><time>2026-03-28T14:37:25.001Z</time></trkpt><trkpt lat="46.40956703421807" lon="10.350861724563007"><ele>1117.0</ele><time>2026-03-28T14:37:26.001Z</time></trkpt><trkpt lat="46.40986347610393" lon="10.350840099406911"><ele>1116.5</ele><time>2026-03-28T14:37:27.001Z</time></trkpt><trkpt lat="46.41016470961215" lon="10.350818634844154"><ele>1116.0</ele><time>2026-03-28T14:37:28.001Z</time></trkpt><trkpt lat="46.41046769471818" lon="10.350803191575938"><ele>1119.5</ele><time>2026-03-28T14:37:29.001Z</time></trkpt><trkpt lat="46.410766748552334" lon="10.350805593272343"><ele>1123.0</ele><time>2026-03-28T14:37:30.001Z</time></trkpt><trkpt lat="46.411042735023216" lon="10.350819568948062"><ele>1123.0</ele><time>2026-03-28T14:37:31.001Z</time></trkpt><trkpt lat="46.41129741752455" lon="10.350814530896596"><ele>1123.0</ele><time>2026-03-28T14:37:32Z</time></trkpt><trkpt lat="46.41153394432866" lon="10.3507730615802"><ele>1125.6666666666665</ele><time>2026-03-28T14:37:33Z</time></trkpt><trkpt lat="46.41176974611734" lon="10.350715980592055"><ele>1128.3333333333333</ele><time>2026-03-28T14:37:34Z</time></trkpt><trkpt lat="46.41197092264631" lon="10.350664455649323"><ele>1131.0</ele><time>2026-03-28T14:37:35Z</time></trkpt><trkpt lat="46.41217157087048" lon="10.350642523814757"><ele>1131.0</ele><time>2026-03-28T14:37:36Z</time></trkpt><trkpt lat="46.41237745498143" lon="10.350638024696794"><ele>1131.0</ele><time>2026-03-28T14:37:37Z</time></trkpt><trkpt lat="46.4125736799317" lon="10.350666227741634"><ele>1131.0</ele><time>2026-03-28T14:37:38Z</time></trkpt><trkpt lat="46.41278500296652" lon="10.35066829111614"><ele>1131.0</ele><time>2026-03-28T14:37:39Z</time></trkpt><trkpt lat="46.41300641724429" lon="10.350694975708336"><ele>1131.0</ele><time>2026-03-28T14:37:40Z</time></trkpt><trkpt lat="46.41321348779072" lon="10.35072522814909"><ele>1131.0</ele><time>2026-03-28T14:37:41Z</time></trkpt><trkpt lat="46.413430515823826" lon="10.350730775282058"><ele>1131.0</ele><time>2026-03-28T14:37:42Z</time></trkpt><trkpt lat="46.4136257818771" lon="10.350771417097775"><ele>1131.0</ele><time>2026-03-28T14:37:43Z</time></trkpt><trkpt lat="46.413814299199956" lon="10.350803796496002"><ele>1131.0</ele><time>2026-03-28T14:37:44Z</time></trkpt><trkpt lat="46.41400155557323" lon="10.35087801890104"><ele>1129.0</ele><time>2026-03-28T14:37:45Z</time></trkpt><trkpt lat="46.41419043650211" lon="10.350974943400804"><ele>1127.0</ele><time>2026-03-28T14:37:46Z</time></trkpt><trkpt lat="46.41438693147878" lon="10.35110937751714"><ele>1125.0</ele><time>2026-03-28T14:37:47Z</time></trkpt><trkpt lat="46.41458937790086" lon="10.351241218588887"><ele>1125.5</ele><time>2026-03-28T14:37:48Z</time></trkpt><trkpt lat="46.414798186223436" lon="10.351401221803231"><ele>1126.0</ele><time>2026-03-28T14:37:49Z</time></trkpt><trkpt lat="46.415009045555834" lon="10.351563346112952"><ele>1126.0</ele><time>2026-03-28T14:37:50Z</time></trkpt><trkpt lat="46.41524040180823" lon="10.351713029959091"><ele>1126.0</ele><time>2026-03-28T14:37:51Z</time></trkpt><trkpt lat="46.41548413725024" lon="10.351873946873914"><ele>1124.0</ele><time>2026-03-28T14:37:52Z</time></trkpt><trkpt lat="46.41571999239259" lon="10.352059975378225"><ele>1122.0</ele><time>2026-03-28T14:37:53Z</time></trkpt><trkpt lat="46.415978324132375" lon="10.352252181843658"><ele>1122.0</ele><time>2026-03-28T14:37:54Z</time></trkpt><trkpt lat="46.41623768086959" lon="10.35243466962964"><ele>1122.0</ele><time>2026-03-28T14:37:55Z</time></trkpt><trkpt lat="46.41652250057288" lon="10.352590617770678"><ele>1118.5</ele><time>2026-03-28T14:37:56Z</time></trkpt><trkpt lat="46.41683318699499" lon="10.352704618499503"><ele>1115.0</ele><time>2026-03-28T14:37:57Z</time></trkpt><trkpt lat="46.417153913237264" lon="10.35279318330432"><ele>1114.0</ele><time>2026-03-28T14:37:58Z</time></trkpt><trkpt lat="46.417482035701155" lon="10.352861984470044"><ele>1113.0</ele><time>2026-03-28T14:37:59Z</time></trkpt><trkpt lat="46.41781980576336" lon="10.352938100055885"><ele>1113.5</ele><time>2026-03-28T14:38:00Z</time></trkpt><trkpt lat="46.41815943119007" lon="10.353025677378016"><ele>1114.0</ele><time>2026-03-28T14:38:01Z</time></trkpt><trkpt lat="46.41850079715203" lon="10.353118884942782"><ele>1115.0</ele><time>2026-03-28T14:38:02Z</time></trkpt><trkpt lat="46.41883375530487" lon="10.353209651703713"><ele>1116.0</ele><time>2026-03-28T14:38:03Z</time></trkpt><trkpt lat="46.41915260735627" lon="10.353292260435516"><ele>1116.0</ele><time>2026-03-28T14:38:04Z</time></trkpt><trkpt lat="46.41945499551251" lon="10.353364400574028"><ele>1116.0</ele><time>2026-03-28T14:38:05Z</time></trkpt><trkpt lat="46.41974357911544" lon="10.353464130686064"><ele>1115.5</ele><time>2026-03-28T14:38:06Z</time></trkpt><trkpt lat="46.420027078306155" lon="10.353583980618232"><ele>1115.0</ele><time>2026-03-28T14:38:07Z</time></trkpt><trkpt lat="46.42030415779428" lon="10.353723523181412"><ele>1116.0</ele><time>2026-03-28T14:38:08Z</time></trkpt><trkpt lat="46.42057636210217" lon="10.353862387037646"><ele>1117.0</ele><time>2026-03-28T14:38:09Z</time></trkpt><trkpt lat="46.420848066467244" lon="10.35398816783284"><ele>1118.0</ele><time>2026-03-28T14:38:10Z</time></trkpt><trkpt lat="46.42112180657556" lon="10.354108490150931"><ele>1119.0</ele><time>2026-03-28T14:38:11Z</time></trkpt><trkpt lat="46.42139357013401" lon="10.354234251609151"><ele>1119.5</ele><time>2026-03-28T14:38:12Z</time></trkpt><trkpt lat="46.42167075329479" lon="10.354362120745481"><ele>1120.0</ele><time>2026-03-28T14:38:13Z</time></trkpt><trkpt lat="46.42194859873748" lon="10.354487553054442"><ele>1120.0</ele><time>2026-03-28T14:38:14Z</time></trkpt><trkpt lat="46.42222536168394" lon="10.354617770738717"><ele>1120.0</ele><time>2026-03-28T14:38:15Z</time></trkpt><trkpt lat="46.422496702524484" lon="10.354746775386726"><ele>1121.5</ele><time>2026-03-28T14:38:16Z</time></trkpt><trkpt lat="46.42276807784668" lon="10.354866938105136"><ele>1123.0</ele><time>2026-03-28T14:38:17Z</time></trkpt><trkpt lat="46.423018441791115" lon="10.354981594759472"><ele>1123.0</ele><time>2026-03-28T14:38:18Z</time></trkpt><trkpt lat="46.42323640452604" lon="10.355087287631308"><ele>1123.0</ele><time>2026-03-28T14:38:19Z</time></trkpt><trkpt lat="46.42341191696907" lon="10.355166261228318"><ele>1123.0</ele><time>2026-03-28T14:38:20Z</time></trkpt><trkpt lat="46.423561876972784" lon="10.355242055411908"><ele>1123.0</ele><time>2026-03-28T14:38:21Z</time></trkpt><trkpt lat="46.42369131693971" lon="10.355303446920582"><ele>1123.0</ele><time>2026-03-28T14:38:22Z</time></trkpt><trkpt lat="46.42378125562892" lon="10.355353738402698"><ele>1123.0</ele><time>2026-03-28T14:38:23Z</time></trkpt><trkpt lat="46.42386158511792" lon="10.355390313185616"><ele>1123.0</ele><time>2026-03-28T14:38:24Z</time></trkpt><trkpt lat="46.42392566384007" lon="10.355431438443215"><ele>1123.0</ele><time>2026-03-28T14:38:25Z</time></trkpt><trkpt lat="46.424045383360856" lon="10.355476784833872"><ele>1123.3333333333333</ele><time>2026-03-28T14:38:44Z</time></trkpt><trkpt lat="46.42414558932637" lon="10.355525527120248"><ele>1123.6666666666667</ele><time>2026-03-28T14:38:45Z</time></trkpt><trkpt lat="46.42430222523929" lon="10.355592067946773"><ele>1124.0</ele><time>2026-03-28T14:38:46Z</time></trkpt><trkpt lat="46.42451237369663" lon="10.355689299125165"><ele>1128.5</ele><time>2026-03-28T14:38:47Z</time></trkpt><trkpt lat="46.424740361619996" lon="10.355804359206894"><ele>1133.0</ele><time>2026-03-28T14:38:48Z</time></trkpt><trkpt lat="46.42498932968005" lon="10.35592777199187"><ele>1133.0</ele><time>2026-03-28T14:38:49Z</time></trkpt><trkpt lat="46.42526328213612" lon="10.356070866306204"><ele>1133.0</ele><time>2026-03-28T14:38:50Z</time></trkpt><trkpt lat="46.42556131858871" lon="10.356254068451705"><ele>1138.0</ele><time>2026-03-28T14:38:51Z</time></trkpt><trkpt lat="46.425883243460646" lon="10.356424440765986"><ele>1143.0</ele><time>2026-03-28T14:38:52Z</time></trkpt><trkpt lat="46.426185037178115" lon="10.356559429283104"><ele>1138.0</ele><time>2026-03-28T14:38:53Z</time></trkpt><trkpt lat="46.4264636757377" lon="10.35668715200933"><ele>1133.0</ele><time>2026-03-28T14:38:54Z</time></trkpt><trkpt lat="46.42674167293607" lon="10.356802692728907"><ele>1133.0</ele><time>2026-03-28T14:38:55Z</time></trkpt><trkpt lat="46.42702434579686" lon="10.356903579231345"><ele>1133.0</ele><time>2026-03-28T14:38:56Z</time></trkpt><trkpt lat="46.427312266319156" lon="10.356987511602222"><ele>1133.5</ele><time>2026-03-28T14:38:57Z</time></trkpt><trkpt lat="46.42760059052884" lon="10.357084088749682"><ele>1134.0</ele><time>2026-03-28T14:38:58Z</time></trkpt><trkpt lat="46.42787691994131" lon="10.357151369961462"><ele>1136.0</ele><time>2026-03-28T14:38:59Z</time></trkpt><trkpt lat="46.42814940113926" lon="10.357201923856746"><ele>1138.0</ele><time>2026-03-28T14:39:00Z</time></trkpt><trkpt lat="46.42841718405845" lon="10.357255704493973"><ele>1142.5</ele><time>2026-03-28T14:39:01Z</time></trkpt><trkpt lat="46.42868477716412" lon="10.357297204174547"><ele>1147.0</ele><time>2026-03-28T14:39:02Z</time></trkpt><trkpt lat="46.42893784132775" lon="10.357308831028087"><ele>1147.0</ele><time>2026-03-28T14:39:03Z</time></trkpt><trkpt lat="46.42918338256846" lon="10.357253595676067"><ele>1147.0</ele><time>2026-03-28T14:39:04Z</time></trkpt><trkpt lat="46.42941693613124" lon="10.357130875458038"><ele>1141.5</ele><time>2026-03-28T14:39:05Z</time></trkpt><trkpt lat="46.42964160308629" lon="10.357033415704795"><ele>1136.0</ele><time>2026-03-28T14:39:06Z</time></trkpt><trkpt lat="46.42985517546839" lon="10.356967165593574"><ele>1136.0</ele><time>2026-03-28T14:39:07Z</time></trkpt><trkpt lat="46.43005300356984" lon="10.357018874822575"><ele>1136.0</ele><time>2026-03-28T14:39:08Z</time></trkpt><trkpt lat="46.43024068110297" lon="10.35710663147206"><ele>1136.0</ele><time>2026-03-28T14:39:09Z</time></trkpt><trkpt lat="46.43045586771975" lon="10.357218252130073"><ele>1143.5</ele><time>2026-03-28T14:39:10Z</time></trkpt><trkpt lat="46.430687504826636" lon="10.357319786028729"><ele>1151.0</ele><time>2026-03-28T14:39:11.001Z</time></trkpt><trkpt lat="46.43089986332241" lon="10.35749298795488"><ele>1151.0</ele><time>2026-03-28T14:39:12.001Z</time></trkpt><trkpt lat="46.43113097861932" lon="10.357650680031457"><ele>1151.0</ele><time>2026-03-28T14:39:13.001Z</time></trkpt><trkpt lat="46.43135583684959" lon="10.357835506226817"><ele>1153.5</ele><time>2026-03-28T14:39:14.001Z</time></trkpt><trkpt lat="46.43160182293193" lon="10.357968998293476"><ele>1156.0</ele><time>2026-03-28T14:39:15.001Z</time></trkpt><trkpt lat="46.43187784180255" lon="10.358072384767294"><ele>1152.0</ele><time>2026-03-28T14:39:16.001Z</time></trkpt><trkpt lat="46.43216051299494" lon="10.3581564550785"><ele>1148.0</ele><time>2026-03-28T14:39:17.001Z</time></trkpt><trkpt lat="46.432415291150804" lon="10.358223361598784"><ele>1148.0</ele><time>2026-03-28T14:39:18.001Z</time></trkpt><trkpt lat="46.43264027202945" lon="10.358325673021787"><ele>1148.0</ele><time>2026-03-28T14:39:19.001Z</time></trkpt><trkpt lat="46.43283492661192" lon="10.358439598666559"><ele>1148.0</ele><time>2026-03-28T14:39:20.001Z</time></trkpt><trkpt lat="46.433012854183666" lon="10.358581632961759"><ele>1146.0</ele><time>2026-03-28T14:39:21.001Z</time></trkpt><trkpt lat="46.4331663001892" lon="10.358745323431549"><ele>1144.0</ele><time>2026-03-28T14:39:22.001Z</time></trkpt><trkpt lat="46.433299198341764" lon="10.3589191619007"><ele>1142.0</ele><time>2026-03-28T14:39:23.001Z</time></trkpt><trkpt lat="46.43343326092541" lon="10.359115918170845"><ele>1146.0</ele><time>2026-03-28T14:39:24.001Z</time></trkpt><trkpt lat="46.43357598115629" lon="10.359339593451157"><ele>1150.0</ele><time>2026-03-28T14:39:25.001Z</time></trkpt><trkpt lat="46.433725523033" lon="10.359576899507285"><ele>1154.0</ele><time>2026-03-28T14:39:26.001Z</time></trkpt><trkpt lat="46.433889399772376" lon="10.35978540131312"><ele>1154.0</ele><time>2026-03-28T14:39:27.001Z</time></trkpt><trkpt lat="46.434053817950996" lon="10.359963908526499"><ele>1154.0</ele><time>2026-03-28T14:39:28.001Z</time></trkpt><trkpt lat="46.4342519782734" lon="10.360090951562386"><ele>1154.0</ele><time>2026-03-28T14:39:29.001Z</time></trkpt><trkpt lat="46.43446846427617" lon="10.3602183924377"><ele>1147.5</ele><time>2026-03-28T14:39:30.001Z</time></trkpt><trkpt lat="46.434693085162905" lon="10.360308336492425"><ele>1141.0</ele><time>2026-03-28T14:39:31.001Z</time></trkpt><trkpt lat="46.43491572164457" lon="10.360353158195284"><ele>1141.0</ele><time>2026-03-28T14:39:32.001Z</time></trkpt><trkpt lat="46.43514707446577" lon="10.360356459663059"><ele>1141.0</ele><time>2026-03-28T14:39:33.001Z</time></trkpt><trkpt lat="46.43538955572167" lon="10.360324246472047"><ele>1143.0</ele><time>2026-03-28T14:39:34.001Z</time></trkpt><trkpt lat="46.43563483105209" lon="10.36025694977913"><ele>1145.0</ele><time>2026-03-28T14:39:35.001Z</time></trkpt><trkpt lat="46.43588226289963" lon="10.360159101366783"><ele>1145.0</ele><time>2026-03-28T14:39:36.001Z</time></trkpt><trkpt lat="46.436129469784035" lon="10.360027748946408"><ele>1145.0</ele><time>2026-03-28T14:39:37.001Z</time></trkpt><trkpt lat="46.43636548236568" lon="10.35988425385873"><ele>1146.0</ele><time>2026-03-28T14:39:38Z</time></trkpt><trkpt lat="46.43657756115226" lon="10.359731744208815"><ele>1147.0</ele><time>2026-03-28T14:39:39Z</time></trkpt><trkpt lat="46.43677724409279" lon="10.359566790962692"><ele>1147.0</ele><time>2026-03-28T14:39:40Z</time></trkpt><trkpt lat="46.43696961059561" lon="10.359395729070865"><ele>1147.0</ele><time>2026-03-28T14:39:41Z</time></trkpt><trkpt lat="46.43715984783851" lon="10.359211218946392"><ele>1147.0</ele><time>2026-03-28T14:39:42Z</time></trkpt><trkpt lat="46.43735666121694" lon="10.359008720500166"><ele>1147.0</ele><time>2026-03-28T14:39:43Z</time></trkpt><trkpt lat="46.43755579638204" lon="10.358827215326485"><ele>1147.0</ele><time>2026-03-28T14:39:44Z</time></trkpt><trkpt lat="46.43776184769505" lon="10.358646931234897"><ele>1147.0</ele><time>2026-03-28T14:39:45Z</time></trkpt><trkpt lat="46.43796921050205" lon="10.358472756211805"><ele>1148.5</ele><time>2026-03-28T14:39:46Z</time></trkpt><trkpt lat="46.43817758189578" lon="10.358309480542115"><ele>1150.0</ele><time>2026-03-28T14:39:47Z</time></trkpt><trkpt lat="46.43838282868055" lon="10.358158564598856"><ele>1150.0</ele><time>2026-03-28T14:39:48Z</time></trkpt><trkpt lat="46.4385929377541" lon="10.358044547339457"><ele>1150.0</ele><time>2026-03-28T14:39:49Z</time></trkpt><trkpt lat="46.438810939940076" lon="10.357980392019542"><ele>1150.0</ele><time>2026-03-28T14:39:50Z</time></trkpt><trkpt lat="46.43902752530521" lon="10.357964244293587"><ele>1149.6666666666665</ele><time>2026-03-28T14:39:51Z</time></trkpt><trkpt lat="46.43922939705155" lon="10.358002379104159"><ele>1149.3333333333333</ele><time>2026-03-28T14:39:52Z</time></trkpt><trkpt lat="46.439425026929165" lon="10.358078804133692"><ele>1149.0</ele><time>2026-03-28T14:39:53Z</time></trkpt><trkpt lat="46.43963784665853" lon="10.358214228842462"><ele>1149.0</ele><time>2026-03-28T14:39:54Z</time></trkpt><trkpt lat="46.43983477481656" lon="10.35834195597669"><ele>1149.0</ele><time>2026-03-28T14:39:55Z</time></trkpt><trkpt lat="46.440034455374224" lon="10.358447045714435"><ele>1149.0</ele><time>2026-03-28T14:39:56Z</time></trkpt><trkpt lat="46.440230657572776" lon="10.358534340196128"><ele>1149.0</ele><time>2026-03-28T14:39:57Z</time></trkpt><trkpt lat="46.44041524231258" lon="10.358625773374584"><ele>1149.0</ele><time>2026-03-28T14:39:58Z</time></trkpt><trkpt lat="46.440587548083236" lon="10.358709375702245"><ele>1149.0</ele><time>2026-03-28T14:39:59Z</time></trkpt><trkpt lat="46.44075263168087" lon="10.358783744957597"><ele>1149.0</ele><time>2026-03-28T14:40:00Z</time></trkpt><trkpt lat="46.44092241188151" lon="10.358864738896502"><ele>1149.0</ele><time>2026-03-28T14:40:01Z</time></trkpt><trkpt lat="46.44109575662812" lon="10.358958423442363"><ele>1149.0</ele><time>2026-03-28T14:40:02Z</time></trkpt><trkpt lat="46.44127292570155" lon="10.359071233667233"><ele>1147.6666666666667</ele><time>2026-03-28T14:40:03Z</time></trkpt><trkpt lat="46.441454360495634" lon="10.35918401905052"><ele>1146.3333333333335</ele><time>2026-03-28T14:40:04Z</time></trkpt><trkpt lat="46.441641616126546" lon="10.359295136230322"><ele>1145.0</ele><time>2026-03-28T14:40:05Z</time></trkpt><trkpt lat="46.441829584001106" lon="10.35939068833093"><ele>1145.0</ele><time>2026-03-28T14:40:06Z</time></trkpt><trkpt lat="46.442020159796435" lon="10.35948603527082"><ele>1145.0</ele><time>2026-03-28T14:40:07Z</time></trkpt><trkpt lat="46.442210795330595" lon="10.359590665370373"><ele>1145.0</ele><time>2026-03-28T14:40:08Z</time></trkpt><trkpt lat="46.44240157132843" lon="10.359691689811495"><ele>1146.0</ele><time>2026-03-28T14:40:09Z</time></trkpt><trkpt lat="46.44259484411023" lon="10.359791826829158"><ele>1147.0</ele><time>2026-03-28T14:40:10Z</time></trkpt><trkpt lat="46.44278744330491" lon="10.359896657181338"><ele>1148.0</ele><time>2026-03-28T14:40:11Z</time></trkpt><trkpt lat="46.44298448144843" lon="10.360001009916168"><ele>1148.3333333333335</ele><time>2026-03-28T14:40:12Z</time></trkpt><trkpt lat="46.44316777429751" lon="10.360088891087306"><ele>1148.6666666666667</ele><time>2026-03-28T14:40:13Z</time></trkpt><trkpt lat="46.44337212636391" lon="10.360193384004198"><ele>1149.0</ele><time>2026-03-28T14:40:14Z</time></trkpt><trkpt lat="46.44356339304028" lon="10.360293859813765"><ele>1149.0</ele><time>2026-03-28T14:40:15Z</time></trkpt><trkpt lat="46.44375964192903" lon="10.36040121363002"><ele>1149.0</ele><time>2026-03-28T14:40:16Z</time></trkpt><trkpt lat="46.44395789386572" lon="10.360501022205053"><ele>1149.0</ele><time>2026-03-28T14:40:17Z</time></trkpt><trkpt lat="46.444150426016535" lon="10.360605706111809"><ele>1150.0</ele><time>2026-03-28T14:40:18Z</time></trkpt><trkpt lat="46.44434563966318" lon="10.360709020193783"><ele>1151.0</ele><time>2026-03-28T14:40:19Z</time></trkpt><trkpt lat="46.44453770365489" lon="10.36080844196405"><ele>1152.0</ele><time>2026-03-28T14:40:20Z</time></trkpt><trkpt lat="46.44472931064111" lon="10.360904740628266"><ele>1152.0</ele><time>2026-03-28T14:40:21Z</time></trkpt><trkpt lat="46.444917606944706" lon="10.361007593979027"><ele>1152.0</ele><time>2026-03-28T14:40:22Z</time></trkpt><trkpt lat="46.44510510165096" lon="10.361105131439285"><ele>1152.0</ele><time>2026-03-28T14:40:23Z</time></trkpt><trkpt lat="46.44529794377389" lon="10.361201040864861"><ele>1152.3333333333333</ele><time>2026-03-28T14:40:24Z</time></trkpt><trkpt lat="46.44548766032435" lon="10.361295463621515"><ele>1152.6666666666665</ele><time>2026-03-28T14:40:25Z</time></trkpt><trkpt lat="46.44568726558106" lon="10.361364448484112"><ele>1153.0</ele><time>2026-03-28T14:40:26Z</time></trkpt><trkpt lat="46.44588777140093" lon="10.361409286434709"><ele>1153.0</ele><time>2026-03-28T14:40:27Z</time></trkpt><trkpt lat="46.44609099837222" lon="10.361422336440258"><ele>1153.0</ele><time>2026-03-28T14:40:28Z</time></trkpt><trkpt lat="46.44629671423768" lon="10.361408402178977"><ele>1153.0</ele><time>2026-03-28T14:40:29Z</time></trkpt><trkpt lat="46.44650443638885" lon="10.361367014441754"><ele>1152.6666666666665</ele><time>2026-03-28T14:40:30Z</time></trkpt><trkpt lat="46.44671793737979" lon="10.361321207076283"><ele>1152.3333333333333</ele><time>2026-03-28T14:40:31Z</time></trkpt><trkpt lat="46.446932965314694" lon="10.36128452558057"><ele>1152.0</ele><time>2026-03-28T14:40:32Z</time></trkpt><trkpt lat="46.44714473146587" lon="10.36123896805992"><ele>1152.0</ele><time>2026-03-28T14:40:33Z</time></trkpt><trkpt lat="46.447346989100296" lon="10.36120332792582"><ele>1152.0</ele><time>2026-03-28T14:40:34Z</time></trkpt><trkpt lat="46.4475429003291" lon="10.36117283964669"><ele>1152.0</ele><time>2026-03-28T14:40:35Z</time></trkpt><trkpt lat="46.447732654442035" lon="10.361136818498817"><ele>1152.0</ele><time>2026-03-28T14:40:36Z</time></trkpt><trkpt lat="46.44792311079973" lon="10.36108350792623"><ele>1152.0</ele><time>2026-03-28T14:40:37Z</time></trkpt><trkpt lat="46.44811497871655" lon="10.361008067026987"><ele>1152.0</ele><time>2026-03-28T14:40:38Z</time></trkpt><trkpt lat="46.448336220507365" lon="10.360914357223828"><ele>1152.0</ele><time>2026-03-28T14:40:39Z</time></trkpt><trkpt lat="46.44857125773091" lon="10.360814431977216"><ele>1152.0</ele><time>2026-03-28T14:40:40Z</time></trkpt><trkpt lat="46.448618380096036" lon="10.360983283629182"><ele>1152.0</ele><time>2026-03-28T14:40:41Z</time></trkpt><trkpt lat="46.44876965223734" lon="10.360994936893258"><ele>1153.0</ele><time>2026-03-28T14:40:42Z</time></trkpt><trkpt lat="46.448910622461845" lon="10.361030330800201"><ele>1154.0</ele><time>2026-03-28T14:40:43Z</time></trkpt><trkpt lat="46.44905142565646" lon="10.3610957751314"><ele>1155.0</ele><time>2026-03-28T14:40:44Z</time></trkpt><trkpt lat="46.44919818842008" lon="10.361189603099023"><ele>1155.0</ele><time>2026-03-28T14:40:45Z</time></trkpt><trkpt lat="46.4493426866158" lon="10.361276535309782"><ele>1155.0</ele><time>2026-03-28T14:40:46Z</time></trkpt><trkpt lat="46.4494789087039" lon="10.361367702284578"><ele>1155.0</ele><time>2026-03-28T14:40:47Z</time></trkpt><trkpt lat="46.449606942102236" lon="10.361467489016643"><ele>1155.25</ele><time>2026-03-28T14:40:48Z</time></trkpt><trkpt lat="46.44972617006333" lon="10.361566399013059"><ele>1155.5</ele><time>2026-03-28T14:40:49Z</time></trkpt><trkpt lat="46.44981597783085" lon="10.361701583984502"><ele>1155.75</ele><time>2026-03-28T14:40:50Z</time></trkpt><trkpt lat="46.4498725770849" lon="10.361879761431908"><ele>1156.0</ele><time>2026-03-28T14:40:51Z</time></trkpt><trkpt lat="46.449866338107995" lon="10.362048860255117"><ele>1156.0</ele><time>2026-03-28T14:40:52Z</time></trkpt><trkpt lat="46.44980534981648" lon="10.362203456462607"><ele>1156.0</ele><time>2026-03-28T14:40:53Z</time></trkpt><trkpt lat="46.44969987457271" lon="10.362310003907346"><ele>1156.0</ele><time>2026-03-28T14:40:54Z</time></trkpt><trkpt lat="46.449582777491464" lon="10.362364562717662"><ele>1156.0</ele><time>2026-03-28T14:40:55Z</time></trkpt><trkpt lat="46.44946881567512" lon="10.362255682968103"><ele>1156.3999999999999</ele><time>2026-03-28T14:40:56Z</time></trkpt><trkpt lat="46.449384032163564" lon="10.362186838649594"><ele>1156.8</ele><time>2026-03-28T14:40:57Z</time></trkpt><trkpt lat="46.449320403195365" lon="10.362085689802012"><ele>1157.1999999999998</ele><time>2026-03-28T14:40:58Z</time></trkpt><trkpt lat="46.44927864610968" lon="10.36195957068257"><ele>1157.6</ele><time>2026-03-28T14:40:59Z</time></trkpt><trkpt lat="46.44926952508494" lon="10.36180581802126"><ele>1158.0</ele><time>2026-03-28T14:41:00Z</time></trkpt><trkpt lat="46.44931624437523" lon="10.361649691050745"><ele>1158.0</ele><time>2026-03-28T14:41:01Z</time></trkpt><trkpt lat="46.44941231518182" lon="10.361545302920744"><ele>1158.0</ele><time>2026-03-28T14:41:02Z</time></trkpt><trkpt lat="46.44950464764637" lon="10.361436016109494"><ele>1158.0</ele><time>2026-03-28T14:41:03Z</time></trkpt><trkpt lat="46.44968530297986" lon="10.361337891785961"><ele>1158.0</ele><time>2026-03-28T14:41:04Z</time></trkpt><trkpt lat="46.44984754117266" lon="10.36122381966647"><ele>1157.0</ele><time>2026-03-28T14:41:05Z</time></trkpt><trkpt lat="46.45003274454879" lon="10.361104031279266"><ele>1156.0</ele><time>2026-03-28T14:41:06Z</time></trkpt><trkpt lat="46.45025940498361" lon="10.360968755782277"><ele>1155.0</ele><time>2026-03-28T14:41:07Z</time></trkpt><trkpt lat="46.45050469632809" lon="10.360836509436444"><ele>1155.0</ele><time>2026-03-28T14:41:08Z</time></trkpt><trkpt lat="46.45078773969053" lon="10.360709982376902"><ele>1155.0</ele><time>2026-03-28T14:41:09Z</time></trkpt><trkpt lat="46.45107551520861" lon="10.360601664013043"><ele>1156.0</ele><time>2026-03-28T14:41:10Z</time></trkpt><trkpt lat="46.451351173038454" lon="10.36052419180972"><ele>1157.0</ele><time>2026-03-28T14:41:11Z</time></trkpt><trkpt lat="46.45160970325522" lon="10.360460187448993"><ele>1157.0</ele><time>2026-03-28T14:41:12Z</time></trkpt><trkpt lat="46.45185333675007" lon="10.360401546248045"><ele>1157.0</ele><time>2026-03-28T14:41:13Z</time></trkpt><trkpt lat="46.45208188038003" lon="10.360359123541349"><ele>1157.3333333333335</ele><time>2026-03-28T14:41:14Z</time></trkpt><trkpt lat="46.45229018500024" lon="10.360331978862014"><ele>1157.6666666666667</ele><time>2026-03-28T14:41:15Z</time></trkpt><trkpt lat="46.45246892953464" lon="10.360309414064272"><ele>1158.0</ele><time>2026-03-28T14:41:16Z</time></trkpt><trkpt lat="46.45261619711876" lon="10.360291712238803"><ele>1158.0</ele><time>2026-03-28T14:41:17Z</time></trkpt><trkpt lat="46.45272533949821" lon="10.360285637029552"><ele>1158.0</ele><time>2026-03-28T14:41:18Z</time></trkpt><trkpt lat="46.4528110458441" lon="10.360292549617688"><ele>1158.0</ele><time>2026-03-28T14:41:19Z</time></trkpt><trkpt lat="46.4528876782958" lon="10.360318978409028"><ele>1158.0</ele><time>2026-03-28T14:41:20Z</time></trkpt><trkpt lat="46.452953876743656" lon="10.360366948686337"><ele>1158.0</ele><time>2026-03-28T14:41:21Z</time></trkpt><trkpt lat="46.45300410512796" lon="10.360423517250647"><ele>1158.0</ele><time>2026-03-28T14:41:22Z</time></trkpt><trkpt lat="46.45307145930756" lon="10.360481782821129"><ele>1158.6</ele><time>2026-03-28T14:41:23Z</time></trkpt><trkpt lat="46.453147609365566" lon="10.36049684029431"><ele>1159.1999999999998</ele><time>2026-03-28T14:41:24Z</time></trkpt><trkpt lat="46.45322701667611" lon="10.360469021411365"><ele>1159.8</ele><time>2026-03-28T14:41:25Z</time></trkpt><trkpt lat="46.45330550331534" lon="10.360397572706178"><ele>1160.3999999999999</ele><time>2026-03-28T14:41:26Z</time></trkpt><trkpt lat="46.45338276262131" lon="10.360289078083149"><ele>1161.0</ele><time>2026-03-28T14:41:27Z</time></trkpt><trkpt lat="46.45346393572859" lon="10.360184203995942"><ele>1161.0</ele><time>2026-03-28T14:41:28Z</time></trkpt><trkpt lat="46.4535620623787" lon="10.360112155751304"><ele>1161.0</ele><time>2026-03-28T14:41:29Z</time></trkpt><trkpt lat="46.45369416137565" lon="10.360091609853917"><ele>1161.0</ele><time>2026-03-28T14:41:30Z</time></trkpt><trkpt lat="46.45386113163797" lon="10.360058534053458"><ele>1161.0</ele><time>2026-03-28T14:41:31Z</time></trkpt><trkpt lat="46.4540543557029" lon="10.35999388462096"><ele>1161.0</ele><time>2026-03-28T14:41:32Z</time></trkpt><trkpt lat="46.45426331877076" lon="10.359973487917665"><ele>1161.0</ele><time>2026-03-28T14:41:33Z</time></trkpt><trkpt lat="46.45447145591968" lon="10.359945559051857"><ele>1161.0</ele><time>2026-03-28T14:41:34Z</time></trkpt><trkpt lat="46.45467990217017" lon="10.359898392980508"><ele>1161.0</ele><time>2026-03-28T14:41:35Z</time></trkpt><trkpt lat="46.45489900948508" lon="10.359850541864288"><ele>1161.0</ele><time>2026-03-28T14:41:36Z</time></trkpt><trkpt lat="46.45512397019405" lon="10.359806033757682"><ele>1161.0</ele><time>2026-03-28T14:41:37Z</time></trkpt><trkpt lat="46.45536122797481" lon="10.359768001386948"><ele>1161.0</ele><time>2026-03-28T14:41:38Z</time></trkpt><trkpt lat="46.45559747659431" lon="10.359720023487487"><ele>1161.0</ele><time>2026-03-28T14:41:39Z</time></trkpt><trkpt lat="46.45584561726876" lon="10.359673012000906"><ele>1161.0</ele><time>2026-03-28T14:41:40Z</time></trkpt><trkpt lat="46.45609756736613" lon="10.359640063863457"><ele>1161.0</ele><time>2026-03-28T14:41:41Z</time></trkpt><trkpt lat="46.45635788352791" lon="10.35961912305715"><ele>1162.5</ele><time>2026-03-28T14:41:42Z</time></trkpt><trkpt lat="46.45661666584406" lon="10.35958234355632"><ele>1164.0</ele><time>2026-03-28T14:41:43Z</time></trkpt><trkpt lat="46.45688210359259" lon="10.359536084846312"><ele>1165.5</ele><time>2026-03-28T14:41:44Z</time></trkpt><trkpt lat="46.45714633755957" lon="10.359493040405654"><ele>1167.0</ele><time>2026-03-28T14:41:45Z</time></trkpt><trkpt lat="46.45740864749495" lon="10.359442240649235"><ele>1167.0</ele><time>2026-03-28T14:41:46Z</time></trkpt><trkpt lat="46.45766904170739" lon="10.359389533241266"><ele>1167.0</ele><time>2026-03-28T14:41:47Z</time></trkpt><trkpt lat="46.45792118239405" lon="10.359341237815327"><ele>1166.5</ele><time>2026-03-28T14:41:48Z</time></trkpt><trkpt lat="46.45816553822502" lon="10.359295799564938"><ele>1166.0</ele><time>2026-03-28T14:41:49Z</time></trkpt><trkpt lat="46.45839622661213" lon="10.359251432826566"><ele>1166.0</ele><time>2026-03-28T14:41:50Z</time></trkpt><trkpt lat="46.45860956653394" lon="10.359213692926458"><ele>1166.0</ele><time>2026-03-28T14:41:51Z</time></trkpt><trkpt lat="46.4588186476837" lon="10.35917931611502"><ele>1166.0</ele><time>2026-03-28T14:41:52Z</time></trkpt><trkpt lat="46.459023737108026" lon="10.359145471356543"><ele>1167.0</ele><time>2026-03-28T14:41:53Z</time></trkpt><trkpt lat="46.45922626483712" lon="10.35911149670719"><ele>1168.0</ele><time>2026-03-28T14:41:54Z</time></trkpt><trkpt lat="46.45942518683055" lon="10.359070166449058"><ele>1169.0</ele><time>2026-03-28T14:41:55Z</time></trkpt><trkpt lat="46.459622053941736" lon="10.359038174129292"><ele>1169.6666666666667</ele><time>2026-03-28T14:41:56Z</time></trkpt><trkpt lat="46.459815098543984" lon="10.359017425459095"><ele>1170.3333333333333</ele><time>2026-03-28T14:41:57Z</time></trkpt><trkpt lat="46.459996777440296" lon="10.359029279131397"><ele>1171.0</ele><time>2026-03-28T14:41:58Z</time></trkpt><trkpt lat="46.46016698852443" lon="10.35909195832677"><ele>1171.0</ele><time>2026-03-28T14:41:59Z</time></trkpt><trkpt lat="46.46031575629884" lon="10.35918153721221"><ele>1171.0</ele><time>2026-03-28T14:42:00Z</time></trkpt><trkpt lat="46.46045752356597" lon="10.359295934272131"><ele>1171.0</ele><time>2026-03-28T14:42:01Z</time></trkpt><trkpt lat="46.460591676042206" lon="10.35943041042025"><ele>1171.3333333333333</ele><time>2026-03-28T14:42:02Z</time></trkpt><trkpt lat="46.46072601910765" lon="10.359581783835182"><ele>1171.6666666666667</ele><time>2026-03-28T14:42:03Z</time></trkpt><trkpt lat="46.46084950834036" lon="10.359744580355775"><ele>1172.0</ele><time>2026-03-28T14:42:04Z</time></trkpt><trkpt lat="46.460962815544534" lon="10.359918741739866"><ele>1172.3333333333335</ele><time>2026-03-28T14:42:05Z</time></trkpt><trkpt lat="46.46106413115317" lon="10.360107910103913"><ele>1172.6666666666667</ele><time>2026-03-28T14:42:06Z</time></trkpt><trkpt lat="46.461157913394" lon="10.360301434722338"><ele>1173.0</ele><time>2026-03-28T14:42:07Z</time></trkpt><trkpt lat="46.46125161870659" lon="10.360496654674819"><ele>1174.3333333333333</ele><time>2026-03-28T14:42:08Z</time></trkpt><trkpt lat="46.46134544264699" lon="10.360688331624685"><ele>1175.6666666666665</ele><time>2026-03-28T14:42:09Z</time></trkpt><trkpt lat="46.461432426391426" lon="10.360870522562745"><ele>1177.0</ele><time>2026-03-28T14:42:10Z</time></trkpt><trkpt lat="46.46151586939788" lon="10.361041079678115"><ele>1177.0</ele><time>2026-03-28T14:42:11Z</time></trkpt><trkpt lat="46.46159726618281" lon="10.361199577493428"><ele>1177.0</ele><time>2026-03-28T14:42:12Z</time></trkpt><trkpt lat="46.46167939193075" lon="10.361343814882536"><ele>1177.0</ele><time>2026-03-28T14:42:13Z</time></trkpt><trkpt lat="46.46174985418186" lon="10.361484982759386"><ele>1177.0</ele><time>2026-03-28T14:42:14Z</time></trkpt><trkpt lat="46.461813838741904" lon="10.361654114140949"><ele>1176.75</ele><time>2026-03-28T14:42:15Z</time></trkpt><trkpt lat="46.461898113748205" lon="10.361824746326699"><ele>1176.5</ele><time>2026-03-28T14:42:16Z</time></trkpt><trkpt lat="46.46199621630864" lon="10.361986160725975"><ele>1176.25</ele><time>2026-03-28T14:42:17Z</time></trkpt><trkpt lat="46.46208431323114" lon="10.362169644587743"><ele>1176.0</ele><time>2026-03-28T14:42:18Z</time></trkpt><trkpt lat="46.462179758212336" lon="10.362363704907962"><ele>1177.0</ele><time>2026-03-28T14:42:19Z</time></trkpt><trkpt lat="46.46227447044181" lon="10.362562638499613"><ele>1178.0</ele><time>2026-03-28T14:42:20Z</time></trkpt><trkpt lat="46.46237535480817" lon="10.362765293502965"><ele>1179.0</ele><time>2026-03-28T14:42:21Z</time></trkpt><trkpt lat="46.46247637410987" lon="10.362962221952174"><ele>1178.6666666666667</ele><time>2026-03-28T14:42:22Z</time></trkpt><trkpt lat="46.462574880052216" lon="10.363161016452533"><ele>1178.3333333333335</ele><time>2026-03-28T14:42:23Z</time></trkpt><trkpt lat="46.46267227266946" lon="10.363356503999686"><ele>1178.0</ele><time>2026-03-28T14:42:24Z</time></trkpt><trkpt lat="46.46276743514215" lon="10.363551507175318"><ele>1178.0</ele><time>2026-03-28T14:42:25Z</time></trkpt><trkpt lat="46.46285883188363" lon="10.363729133630255"><ele>1178.0</ele><time>2026-03-28T14:42:26Z</time></trkpt><trkpt lat="46.46292768147148" lon="10.363909584504885"><ele>1178.0</ele><time>2026-03-28T14:42:27Z</time></trkpt><trkpt lat="46.46300792725002" lon="10.364071927348874"><ele>1178.0</ele><time>2026-03-28T14:42:28Z</time></trkpt><trkpt lat="46.46309200232614" lon="10.364217348511366"><ele>1178.75</ele><time>2026-03-28T14:42:29Z</time></trkpt><trkpt lat="46.46316081273035" lon="10.364369383844691"><ele>1179.5</ele><time>2026-03-28T14:42:30Z</time></trkpt><trkpt lat="46.463230869521276" lon="10.364509630495567"><ele>1180.25</ele><time>2026-03-28T14:42:31Z</time></trkpt><trkpt lat="46.46329414595803" lon="10.36464439512558"><ele>1181.0</ele><time>2026-03-28T14:42:32Z</time></trkpt><trkpt lat="46.46335038452718" lon="10.364770865602729"><ele>1181.1666666666667</ele><time>2026-03-28T14:42:33Z</time></trkpt><trkpt lat="46.46340497102907" lon="10.364882208939248"><ele>1181.3333333333335</ele><time>2026-03-28T14:42:34Z</time></trkpt><trkpt lat="46.463456690580024" lon="10.364982303778918"><ele>1181.5</ele><time>2026-03-28T14:42:35Z</time></trkpt><trkpt lat="46.46350519032075" lon="10.365082443210538"><ele>1181.6666666666667</ele><time>2026-03-28T14:42:36Z</time></trkpt><trkpt lat="46.46355040387845" lon="10.365175299578027"><ele>1181.8333333333333</ele><time>2026-03-28T14:42:37Z</time></trkpt><trkpt lat="46.463586173935425" lon="10.365267687486641"><ele>1182.0</ele><time>2026-03-28T14:42:38Z</time></trkpt><trkpt lat="46.46360524651985" lon="10.365440599547803"><ele>1181.75</ele><time>2026-03-28T14:42:40Z</time></trkpt><trkpt lat="46.46370612935085" lon="10.36555575490212"><ele>1181.5</ele><time>2026-03-28T14:42:42Z</time></trkpt><trkpt lat="46.46378861365878" lon="10.36563533819337"><ele>1181.25</ele><time>2026-03-28T14:42:43Z</time></trkpt><trkpt lat="46.46388365464743" lon="10.365793125847592"><ele>1181.0</ele><time>2026-03-28T14:42:44Z</time></trkpt><trkpt lat="46.46397018685922" lon="10.36598304519105"><ele>1182.6666666666667</ele><time>2026-03-28T14:42:45Z</time></trkpt><trkpt lat="46.4640595863078" lon="10.36618004549341"><ele>1184.3333333333333</ele><time>2026-03-28T14:42:46Z</time></trkpt><trkpt lat="46.46415374315083" lon="10.366377979097688"><ele>1186.0</ele><time>2026-03-28T14:42:47Z</time></trkpt><trkpt lat="46.46425798262614" lon="10.366574746288977"><ele>1186.0</ele><time>2026-03-28T14:42:48Z</time></trkpt><trkpt lat="46.46435816070492" lon="10.366757028703082"><ele>1186.0</ele><time>2026-03-28T14:42:49Z</time></trkpt><trkpt lat="46.464439926928314" lon="10.366955804649104"><ele>1186.0</ele><time>2026-03-28T14:42:50Z</time></trkpt><trkpt lat="46.464531814163195" lon="10.367109980770335"><ele>1186.25</ele><time>2026-03-28T14:42:51Z</time></trkpt><trkpt lat="46.46460949214207" lon="10.367281145780417"><ele>1186.5</ele><time>2026-03-28T14:42:52Z</time></trkpt><trkpt lat="46.46468631738468" lon="10.36744678749353"><ele>1186.75</ele><time>2026-03-28T14:42:53Z</time></trkpt><trkpt lat="46.46476001218763" lon="10.367613518127694"><ele>1187.0</ele><time>2026-03-28T14:42:54Z</time></trkpt><trkpt lat="46.46484332955049" lon="10.367775931446516"><ele>1188.0</ele><time>2026-03-28T14:42:55Z</time></trkpt><trkpt lat="46.4649304987355" lon="10.367935955008805"><ele>1189.0</ele><time>2026-03-28T14:42:56Z</time></trkpt><trkpt lat="46.465009419942795" lon="10.368094442186326"><ele>1190.0</ele><time>2026-03-28T14:42:57Z</time></trkpt><trkpt lat="46.465091101822814" lon="10.368250567763397"><ele>1191.0</ele><time>2026-03-28T14:42:58Z</time></trkpt><trkpt lat="46.46517545688947" lon="10.368409166402879"><ele>1191.5</ele><time>2026-03-28T14:42:59Z</time></trkpt><trkpt lat="46.465252698804576" lon="10.368569596185049"><ele>1192.0</ele><time>2026-03-28T14:43:00Z</time></trkpt><trkpt lat="46.46532800509518" lon="10.368723269276831"><ele>1192.5</ele><time>2026-03-28T14:43:01Z</time></trkpt><trkpt lat="46.46540376393075" lon="10.368876047673108"><ele>1193.0</ele><time>2026-03-28T14:43:02Z</time></trkpt><trkpt lat="46.46547564994531" lon="10.369022582077964"><ele>1193.3333333333335</ele><time>2026-03-28T14:43:03Z</time></trkpt><trkpt lat="46.46553218782851" lon="10.369145221297446"><ele>1193.6666666666667</ele><time>2026-03-28T14:43:04Z</time></trkpt><trkpt lat="46.46557776062269" lon="10.36924655115905"><ele>1194.0</ele><time>2026-03-28T14:43:05Z</time></trkpt><trkpt lat="46.46561691838604" lon="10.369325437676537"><ele>1194.3333333333333</ele><time>2026-03-28T14:43:06Z</time></trkpt><trkpt lat="46.465659186325176" lon="10.369411079280592"><ele>1194.6666666666665</ele><time>2026-03-28T14:43:07Z</time></trkpt><trkpt lat="46.46570778706952" lon="10.369509370847048"><ele>1195.0</ele><time>2026-03-28T14:43:08Z</time></trkpt><trkpt lat="46.4657514666621" lon="10.369597184826443"><ele>1195.0</ele><time>2026-03-28T14:43:09Z</time></trkpt><trkpt lat="46.46579390302257" lon="10.369682499366872"><ele>1195.0</ele><time>2026-03-28T14:43:10Z</time></trkpt><trkpt lat="46.46586344698403" lon="10.36980513332196"><ele>1195.0</ele><time>2026-03-28T14:43:12Z</time></trkpt><trkpt lat="46.46592428259729" lon="10.369956748435108"><ele>1195.0</ele><time>2026-03-28T14:43:14Z</time></trkpt><trkpt lat="46.46598619368798" lon="10.370054943646755"><ele>1195.0</ele><time>2026-03-28T14:43:15Z</time></trkpt><trkpt lat="46.46605562223875" lon="10.37017259001946"><ele>1195.2</ele><time>2026-03-28T14:43:16Z</time></trkpt><trkpt lat="46.46612343580228" lon="10.370293189860533"><ele>1195.4</ele><time>2026-03-28T14:43:17Z</time></trkpt><trkpt lat="46.46619284395758" lon="10.370418746153979"><ele>1195.6</ele><time>2026-03-28T14:43:18Z</time></trkpt><trkpt lat="46.46625417019554" lon="10.370535514313062"><ele>1195.8</ele><time>2026-03-28T14:43:19Z</time></trkpt><trkpt lat="46.4663085320303" lon="10.370652238859188"><ele>1196.0</ele><time>2026-03-28T14:43:20Z</time></trkpt><trkpt lat="46.46636982148602" lon="10.370756449963684"><ele>1196.4285714285713</ele><time>2026-03-28T14:43:21Z</time></trkpt><trkpt lat="46.46642863430404" lon="10.37083866072363"><ele>1196.857142857143</ele><time>2026-03-28T14:43:22Z</time></trkpt><trkpt lat="46.46648636527028" lon="10.370901848314316"><ele>1197.2857142857142</ele><time>2026-03-28T14:43:23Z</time></trkpt><trkpt lat="46.46655197307349" lon="10.37093417435903"><ele>1197.7142857142858</ele><time>2026-03-28T14:43:24Z</time></trkpt><trkpt lat="46.46662002701619" lon="10.370940281167925"><ele>1198.142857142857</ele><time>2026-03-28T14:43:25Z</time></trkpt><trkpt lat="46.466686777426" lon="10.370938811608582"><ele>1198.5714285714287</ele><time>2026-03-28T14:43:26Z</time></trkpt><trkpt lat="46.46674827016286" lon="10.37095849946174"><ele>1199.0</ele><time>2026-03-28T14:43:27Z</time></trkpt><trkpt lat="46.466827664661835" lon="10.371024354043099"><ele>1199.0</ele><time>2026-03-28T14:43:29Z</time></trkpt><trkpt lat="46.46689894908264" lon="10.371104535395935"><ele>1199.0</ele><time>2026-03-28T14:43:31Z</time></trkpt><trkpt lat="46.46695400722245" lon="10.371153986644345"><ele>1199.0</ele><time>2026-03-28T14:43:33Z</time></trkpt><trkpt lat="46.46704112512904" lon="10.371219580715284"><ele>1199.0</ele><time>2026-03-28T14:43:35Z</time></trkpt><trkpt lat="46.46709983358601" lon="10.371268622863218"><ele>1199.0</ele><time>2026-03-28T14:43:36Z</time></trkpt><trkpt lat="46.467195890938584" lon="10.371353984274991"><ele>1199.0</ele><time>2026-03-28T14:43:38Z</time></trkpt><trkpt lat="46.46729976889843" lon="10.371395336740537"><ele>1201.0</ele><time>2026-03-28T14:43:40Z</time></trkpt><trkpt lat="46.46738613832859" lon="10.37146071885417"><ele>1203.0</ele><time>2026-03-28T14:43:42Z</time></trkpt><trkpt lat="46.46749852141968" lon="10.371526426946588"><ele>1205.0</ele><time>2026-03-28T14:43:44Z</time></trkpt><trkpt lat="46.4676085959319" lon="10.371591074198589"><ele>1207.0</ele><time>2026-03-28T14:43:46Z</time></trkpt><trkpt lat="46.467732167821374" lon="10.371648139471931"><ele>1207.0</ele><time>2026-03-28T14:43:48Z</time></trkpt><trkpt lat="46.467798329664966" lon="10.371713331505555"><ele>1207.0</ele><time>2026-03-28T14:43:49Z</time></trkpt><trkpt lat="46.46787103049218" lon="10.371739148538563"><ele>1207.0</ele><time>2026-03-28T14:43:50Z</time></trkpt><trkpt lat="46.4679368460226" lon="10.371777916182706"><ele>1207.0</ele><time>2026-03-28T14:43:51Z</time></trkpt><trkpt lat="46.46800255771451" lon="10.371810829965458"><ele>1207.0</ele><time>2026-03-28T14:43:52Z</time></trkpt><trkpt lat="46.46810817621771" lon="10.371873441433225"><ele>1207.0</ele><time>2026-03-28T14:43:54Z</time></trkpt><trkpt lat="46.46822443440219" lon="10.37190972264622"><ele>1207.6666666666665</ele><time>2026-03-28T14:43:56Z</time></trkpt><trkpt lat="46.46829206277572" lon="10.371912715286697"><ele>1208.3333333333333</ele><time>2026-03-28T14:43:57Z</time></trkpt><trkpt lat="46.46836934499625" lon="10.371921702612012"><ele>1209.0</ele><time>2026-03-28T14:43:58Z</time></trkpt><trkpt lat="46.468459139387505" lon="10.371893905772167"><ele>1209.6666666666667</ele><time>2026-03-28T14:43:59Z</time></trkpt><trkpt lat="46.468549888511205" lon="10.371856646938683"><ele>1210.3333333333335</ele><time>2026-03-28T14:44:00Z</time></trkpt><trkpt lat="46.46863642075304" lon="10.371891164704405"><ele>1211.0</ele><time>2026-03-28T14:44:01Z</time></trkpt><trkpt lat="46.46873242503329" lon="10.371746510894326"><ele>1211.3999999999999</ele><time>2026-03-28T14:44:02Z</time></trkpt><trkpt lat="46.468799445168806" lon="10.371661418826468"><ele>1211.8</ele><time>2026-03-28T14:44:03Z</time></trkpt><trkpt lat="46.46887497925288" lon="10.371587065697431"><ele>1212.1999999999998</ele><time>2026-03-28T14:44:04Z</time></trkpt><trkpt lat="46.46894792288073" lon="10.371516003846306"><ele>1212.6</ele><time>2026-03-28T14:44:05Z</time></trkpt><trkpt lat="46.46901885153158" lon="10.371447270045312"><ele>1213.0</ele><time>2026-03-28T14:44:06Z</time></trkpt><trkpt lat="46.469107546626795" lon="10.371353445832911"><ele>1213.4</ele><time>2026-03-28T14:44:07Z</time></trkpt><trkpt lat="46.469196406655875" lon="10.371244648596642"><ele>1213.8</ele><time>2026-03-28T14:44:08Z</time></trkpt><trkpt lat="46.469275685687535" lon="10.371287601385083"><ele>1214.2</ele><time>2026-03-28T14:44:09Z</time></trkpt><trkpt lat="46.46938665727224" lon="10.371302766933203"><ele>1214.6</ele><time>2026-03-28T14:44:10Z</time></trkpt><trkpt lat="46.469520891347166" lon="10.37126305128449"><ele>1215.0</ele><time>2026-03-28T14:44:11Z</time></trkpt><trkpt lat="46.46967295077058" lon="10.371194948869476"><ele>1218.6666666666667</ele><time>2026-03-28T14:44:12Z</time></trkpt><trkpt lat="46.469848175160244" lon="10.371151933639352"><ele>1222.3333333333335</ele><time>2026-03-28T14:44:13Z</time></trkpt><trkpt lat="46.470012703922755" lon="10.371175335244255"><ele>1226.0</ele><time>2026-03-28T14:44:14Z</time></trkpt><trkpt lat="46.470200983515326" lon="10.371168984150458"><ele>1226.0</ele><time>2026-03-28T14:44:15Z</time></trkpt><trkpt lat="46.47037407119321" lon="10.371187265274628"><ele>1226.0</ele><time>2026-03-28T14:44:16Z</time></trkpt><trkpt lat="46.47053788490528" lon="10.371200565089872"><ele>1226.0</ele><time>2026-03-28T14:44:17Z</time></trkpt><trkpt lat="46.47068713597553" lon="10.371246412229258"><ele>1227.5</ele><time>2026-03-28T14:44:18Z</time></trkpt><trkpt lat="46.470821364028474" lon="10.371280415725312"><ele>1229.0</ele><time>2026-03-28T14:44:19Z</time></trkpt><trkpt lat="46.47093651002057" lon="10.371322615436217"><ele>1230.5</ele><time>2026-03-28T14:44:20Z</time></trkpt><trkpt lat="46.47103854248278" lon="10.371412336048811"><ele>1232.0</ele><time>2026-03-28T14:44:21Z</time></trkpt><trkpt lat="46.471150057540086" lon="10.371408312306617"><ele>1232.0</ele><time>2026-03-28T14:44:22Z</time></trkpt><trkpt lat="46.47124347448197" lon="10.371433391068729"><ele>1232.0</ele><time>2026-03-28T14:44:23Z</time></trkpt><trkpt lat="46.47131710979915" lon="10.37143182981581"><ele>1232.0</ele><time>2026-03-28T14:44:24Z</time></trkpt><trkpt lat="46.47139151945148" lon="10.371416770933502"><ele>1232.0</ele><time>2026-03-28T14:44:26Z</time></trkpt><trkpt lat="46.471470238670584" lon="10.3714096883425"><ele>1232.0</ele><time>2026-03-28T14:44:31Z</time></trkpt><trkpt lat="46.4714739494765" lon="10.371252783175162"><ele>1232.0</ele><time>2026-03-28T14:44:33Z</time></trkpt><trkpt lat="46.47147655130675" lon="10.3711115518699"><ele>1235.0</ele><time>2026-03-28T14:44:34Z</time></trkpt><trkpt lat="46.471493394688416" lon="10.370985846890974"><ele>1238.0</ele><time>2026-03-28T14:44:35Z</time></trkpt><trkpt lat="46.47151079263935" lon="10.37087851413364"><ele>1241.0</ele><time>2026-03-28T14:44:36Z</time></trkpt><trkpt lat="46.471520937715106" lon="10.370778650366056"><ele>1244.0</ele><time>2026-03-28T14:44:37Z</time></trkpt><trkpt lat="46.47153970622029" lon="10.370676517792093"><ele>1247.0</ele><time>2026-03-28T14:44:39Z</time></trkpt><trkpt lat="46.47166435216992" lon="10.370744981912503"><ele>1250.0</ele><time>2026-03-28T14:44:40Z</time></trkpt><trkpt lat="46.47175658238982" lon="10.370744981904862"><ele>1250.0</ele><time>2026-03-28T14:44:41Z</time></trkpt><trkpt lat="46.471852408054616" lon="10.37072737559159"><ele>1250.0</ele><time>2026-03-28T14:44:42Z</time></trkpt><trkpt lat="46.471968662381016" lon="10.370738175056871"><ele>1250.0</ele><time>2026-03-28T14:44:43Z</time></trkpt><trkpt lat="46.47209072690464" lon="10.370736368296864"><ele>1250.0</ele><time>2026-03-28T14:44:44Z</time></trkpt><trkpt lat="46.472220107337655" lon="10.370734400863645"><ele>1252.5</ele><time>2026-03-28T14:44:45Z</time></trkpt><trkpt lat="46.47236164205945" lon="10.37073224859768"><ele>1255.0</ele><time>2026-03-28T14:44:46Z</time></trkpt><trkpt lat="46.47250023525652" lon="10.370711550383762"><ele>1257.5</ele><time>2026-03-28T14:44:47Z</time></trkpt><trkpt lat="46.472632680449074" lon="10.370710874649717"><ele>1260.0</ele><time>2026-03-28T14:44:48Z</time></trkpt><trkpt lat="46.472748722496064" lon="10.370738113757369"><ele>1260.0</ele><time>2026-03-28T14:44:49Z</time></trkpt><trkpt lat="46.47287943267796" lon="10.37074925062327"><ele>1260.0</ele><time>2026-03-28T14:44:50Z</time></trkpt><trkpt lat="46.4730112986491" lon="10.370755390217253"><ele>1260.0</ele><time>2026-03-28T14:44:51Z</time></trkpt><trkpt lat="46.47313425920367" lon="10.370740529730831"><ele>1260.0</ele><time>2026-03-28T14:44:52Z</time></trkpt><trkpt lat="46.47323814261646" lon="10.370761199531938"><ele>1263.2</ele><time>2026-03-28T14:44:53Z</time></trkpt><trkpt lat="46.47331672714726" lon="10.37075807062498"><ele>1266.4</ele><time>2026-03-28T14:44:54Z</time></trkpt><trkpt lat="46.4734013639286" lon="10.370783327656614"><ele>1269.6</ele><time>2026-03-28T14:44:56Z</time></trkpt><trkpt lat="46.47336302107464" lon="10.37091259626043"><ele>1272.8</ele><time>2026-03-28T14:44:58Z</time></trkpt><trkpt lat="46.47335909138195" lon="10.37108592717402"><ele>1276.0</ele><time>2026-03-28T14:45:00Z</time></trkpt><trkpt lat="46.473350934516965" lon="10.371260027780231"><ele>1275.0</ele><time>2026-03-28T14:45:02Z</time></trkpt><trkpt lat="46.47334255796521" lon="10.371419831665301"><ele>1274.0</ele><time>2026-03-28T14:45:04Z</time></trkpt><trkpt lat="46.473324399659745" lon="10.371539721571128"><ele>1273.0</ele><time>2026-03-28T14:45:06Z</time></trkpt><trkpt lat="46.47354052245816" lon="10.37166120273936"><ele>1272.0</ele><time>2026-03-28T14:45:09Z</time></trkpt><trkpt lat="46.473593360861585" lon="10.37172667732064"><ele>1272.0</ele><time>2026-03-28T14:45:38.021Z</time></trkpt><trkpt lat="46.47364601801202" lon="10.371813605612914"><ele>1272.0</ele><time>2026-03-28T14:45:41.019Z</time></trkpt><trkpt lat="46.47375444513289" lon="10.371724797134837"><ele>1272.0</ele><time>2026-03-28T14:45:54.413Z</time></trkpt></trkseg><trkseg><trkpt lat="46.46413204135993" lon="10.365404879167272"><ele>1184.0</ele><time>2026-03-28T15:39:40.999Z</time></trkpt><trkpt lat="46.464060250325495" lon="10.365344951280274"><ele>1184.0</ele><time>2026-03-28T15:39:49.999Z</time></trkpt><trkpt lat="46.464006952941425" lon="10.365249716295999"><ele>1184.0</ele><time>2026-03-28T15:39:51.999Z</time></trkpt><trkpt lat="46.463935486069666" lon="10.365197909393752"><ele>1184.0</ele><time>2026-03-28T15:39:53.999Z</time></trkpt><trkpt lat="46.46387676167023" lon="10.365120269371252"><ele>1184.0</ele><time>2026-03-28T15:39:57Z</time></trkpt><trkpt lat="46.46382195903188" lon="10.365174888875313"><ele>1184.0</ele><time>2026-03-28T15:40:21Z</time></trkpt><trkpt lat="46.46371054820248" lon="10.365214615455589"><ele>1183.6000000000001</ele><time>2026-03-28T15:40:23Z</time></trkpt><trkpt lat="46.46364110817419" lon="10.365199095197157"><ele>1183.2</ele><time>2026-03-28T15:40:24Z</time></trkpt><trkpt lat="46.463573871271414" lon="10.365136196645826"><ele>1182.8000000000002</ele><time>2026-03-28T15:40:25Z</time></trkpt><trkpt lat="46.46353078514942" lon="10.36501498026665"><ele>1182.4</ele><time>2026-03-28T15:40:26Z</time></trkpt><trkpt lat="46.4634597416032" lon="10.36487834576741"><ele>1182.0</ele><time>2026-03-28T15:40:27Z</time></trkpt><trkpt lat="46.46337644548115" lon="10.364718146507206"><ele>1181.6666666666667</ele><time>2026-03-28T15:40:28Z</time></trkpt><trkpt lat="46.46327962457359" lon="10.364531935706172"><ele>1181.3333333333335</ele><time>2026-03-28T15:40:29Z</time></trkpt><trkpt lat="46.46318762232199" lon="10.364353177132813"><ele>1181.0</ele><time>2026-03-28T15:40:30Z</time></trkpt><trkpt lat="46.46309398834922" lon="10.364164547714466"><ele>1181.0</ele><time>2026-03-28T15:40:31Z</time></trkpt><trkpt lat="46.46299858567877" lon="10.363970175870604"><ele>1181.0</ele><time>2026-03-28T15:40:32Z</time></trkpt><trkpt lat="46.46291417749977" lon="10.36379208383623"><ele>1181.0</ele><time>2026-03-28T15:40:33Z</time></trkpt><trkpt lat="46.46284820929489" lon="10.363619297470594"><ele>1181.0</ele><time>2026-03-28T15:40:34Z</time></trkpt><trkpt lat="46.46275770967376" lon="10.363457765713981"><ele>1180.5</ele><time>2026-03-28T15:40:35Z</time></trkpt><trkpt lat="46.462676673904106" lon="10.363300024281015"><ele>1180.0</ele><time>2026-03-28T15:40:36Z</time></trkpt><trkpt lat="46.46260623257479" lon="10.36316219216229"><ele>1179.5</ele><time>2026-03-28T15:40:37Z</time></trkpt><trkpt lat="46.46253859902267" lon="10.363030221604967"><ele>1179.0</ele><time>2026-03-28T15:40:38Z</time></trkpt><trkpt lat="46.46246981879201" lon="10.362904582032739"><ele>1179.0</ele><time>2026-03-28T15:40:39Z</time></trkpt><trkpt lat="46.46239185752113" lon="10.36277022035243"><ele>1179.0</ele><time>2026-03-28T15:40:40Z</time></trkpt><trkpt lat="46.46231839131178" lon="10.362622495723363"><ele>1179.0</ele><time>2026-03-28T15:40:41Z</time></trkpt><trkpt lat="46.46224824450378" lon="10.362475516615765"><ele>1179.0</ele><time>2026-03-28T15:40:41.999Z</time></trkpt><trkpt lat="46.46217813225412" lon="10.362319013620814"><ele>1178.25</ele><time>2026-03-28T15:40:42.999Z</time></trkpt><trkpt lat="46.462101671274105" lon="10.362150915647266"><ele>1177.5</ele><time>2026-03-28T15:40:43.999Z</time></trkpt><trkpt lat="46.46201550239663" lon="10.361977938182338"><ele>1176.75</ele><time>2026-03-28T15:40:44.999Z</time></trkpt><trkpt lat="46.46193280564547" lon="10.361813815362375"><ele>1176.0</ele><time>2026-03-28T15:40:45.999Z</time></trkpt><trkpt lat="46.46185145231209" lon="10.36164890896357"><ele>1176.0</ele><time>2026-03-28T15:40:46.999Z</time></trkpt><trkpt lat="46.461770999553345" lon="10.36148339514338"><ele>1176.0</ele><time>2026-03-28T15:40:47.999Z</time></trkpt><trkpt lat="46.46168303249294" lon="10.361312832459042"><ele>1176.0</ele><time>2026-03-28T15:40:48.999Z</time></trkpt><trkpt lat="46.46159392866614" lon="10.361149212813467"><ele>1176.0</ele><time>2026-03-28T15:40:49.999Z</time></trkpt><trkpt lat="46.461508625355506" lon="10.360972547070405"><ele>1176.3333333333333</ele><time>2026-03-28T15:40:50.999Z</time></trkpt><trkpt lat="46.46142099246836" lon="10.360797502618691"><ele>1176.6666666666665</ele><time>2026-03-28T15:40:51.999Z</time></trkpt><trkpt lat="46.46133419911219" lon="10.360614559718298"><ele>1177.0</ele><time>2026-03-28T15:40:52.999Z</time></trkpt><trkpt lat="46.46124743440461" lon="10.360426165366912"><ele>1175.6666666666665</ele><time>2026-03-28T15:40:53.999Z</time></trkpt><trkpt lat="46.46115186094142" lon="10.360244389365004"><ele>1174.3333333333333</ele><time>2026-03-28T15:40:54.999Z</time></trkpt><trkpt lat="46.461075150113004" lon="10.360061352821806"><ele>1173.0</ele><time>2026-03-28T15:40:55.999Z</time></trkpt><trkpt lat="46.46098048746517" lon="10.359892969858937"><ele>1173.0</ele><time>2026-03-28T15:40:56.999Z</time></trkpt><trkpt lat="46.46088543659225" lon="10.359732490405912"><ele>1173.0</ele><time>2026-03-28T15:40:57.999Z</time></trkpt><trkpt lat="46.46078200214949" lon="10.359581423189491"><ele>1173.0</ele><time>2026-03-28T15:40:58.999Z</time></trkpt><trkpt lat="46.46067061188876" lon="10.359443983980306"><ele>1173.0</ele><time>2026-03-28T15:40:59.999Z</time></trkpt><trkpt lat="46.460550789628265" lon="10.359317452398669"><ele>1172.5</ele><time>2026-03-28T15:41:00.999Z</time></trkpt><trkpt lat="46.46042413037869" lon="10.359208369809352"><ele>1172.0</ele><time>2026-03-28T15:41:01.999Z</time></trkpt><trkpt lat="46.46029126786713" lon="10.359115853626934"><ele>1171.5</ele><time>2026-03-28T15:41:02.999Z</time></trkpt><trkpt lat="46.460155236887644" lon="10.359044300701475"><ele>1171.0</ele><time>2026-03-28T15:41:03.999Z</time></trkpt><trkpt lat="46.46001580356283" lon="10.358997478953036"><ele>1171.0</ele><time>2026-03-28T15:41:04.999Z</time></trkpt><trkpt lat="46.45987871339761" lon="10.358966356131498"><ele>1171.0</ele><time>2026-03-28T15:41:05.999Z</time></trkpt><trkpt lat="46.45973768242233" lon="10.3589570661087"><ele>1171.0</ele><time>2026-03-28T15:41:06.999Z</time></trkpt><trkpt lat="46.459595848479644" lon="10.358963111931935"><ele>1171.0</ele><time>2026-03-28T15:41:07.999Z</time></trkpt><trkpt lat="46.45945719614981" lon="10.358981095192425"><ele>1170.5</ele><time>2026-03-28T15:41:08.999Z</time></trkpt><trkpt lat="46.45932440354543" lon="10.359005793531244"><ele>1170.0</ele><time>2026-03-28T15:41:09.999Z</time></trkpt><trkpt lat="46.45918802882668" lon="10.359034113365391"><ele>1169.5</ele><time>2026-03-28T15:41:10.999Z</time></trkpt><trkpt lat="46.45904940469069" lon="10.359064673072409"><ele>1169.0</ele><time>2026-03-28T15:41:11.999Z</time></trkpt><trkpt lat="46.45891141333321" lon="10.35908930338164"><ele>1168.25</ele><time>2026-03-28T15:41:12.999Z</time></trkpt><trkpt lat="46.45876947512571" lon="10.359111487603426"><ele>1167.5</ele><time>2026-03-28T15:41:13.999Z</time></trkpt><trkpt lat="46.45862725686549" lon="10.359140135267365"><ele>1166.75</ele><time>2026-03-28T15:41:14.999Z</time></trkpt><trkpt lat="46.45848770474273" lon="10.359170392608853"><ele>1166.0</ele><time>2026-03-28T15:41:15.999Z</time></trkpt><trkpt lat="46.4583454725015" lon="10.359191654092815"><ele>1166.0</ele><time>2026-03-28T15:41:16.999Z</time></trkpt><trkpt lat="46.4582083128241" lon="10.359216325543233"><ele>1166.0</ele><time>2026-03-28T15:41:17.999Z</time></trkpt><trkpt lat="46.45806943066186" lon="10.359241876500036"><ele>1166.0</ele><time>2026-03-28T15:41:18.999Z</time></trkpt><trkpt lat="46.457920806787605" lon="10.359270878326484"><ele>1166.0</ele><time>2026-03-28T15:41:19.999Z</time></trkpt><trkpt lat="46.45776450598925" lon="10.35929711182099"><ele>1166.3333333333335</ele><time>2026-03-28T15:41:20.999Z</time></trkpt><trkpt lat="46.45760105738401" lon="10.359338192808226"><ele>1166.6666666666667</ele><time>2026-03-28T15:41:21.999Z</time></trkpt><trkpt lat="46.457427560223586" lon="10.359360644205633"><ele>1167.0</ele><time>2026-03-28T15:41:22.999Z</time></trkpt><trkpt lat="46.45726922103657" lon="10.359388831511517"><ele>1166.0</ele><time>2026-03-28T15:41:23.999Z</time></trkpt><trkpt lat="46.457111568028246" lon="10.359415071176008"><ele>1165.0</ele><time>2026-03-28T15:41:24.999Z</time></trkpt><trkpt lat="46.4569450978251" lon="10.359445608019662"><ele>1164.0</ele><time>2026-03-28T15:41:25.999Z</time></trkpt><trkpt lat="46.4567694086133" lon="10.359482647002968"><ele>1164.0</ele><time>2026-03-28T15:41:26.999Z</time></trkpt><trkpt lat="46.4566008638845" lon="10.359513053997347"><ele>1164.0</ele><time>2026-03-28T15:41:27.999Z</time></trkpt><trkpt lat="46.45643398503718" lon="10.359537767484467"><ele>1164.0</ele><time>2026-03-28T15:41:28.999Z</time></trkpt><trkpt lat="46.45625598874679" lon="10.359561701606417"><ele>1163.0</ele><time>2026-03-28T15:41:29.999Z</time></trkpt><trkpt lat="46.45608175010729" lon="10.35959624630473"><ele>1162.0</ele><time>2026-03-28T15:41:30.999Z</time></trkpt><trkpt lat="46.45590922094089" lon="10.359626314218282"><ele>1161.0</ele><time>2026-03-28T15:41:31.999Z</time></trkpt><trkpt lat="46.455739088161856" lon="10.35965793844696"><ele>1161.0</ele><time>2026-03-28T15:41:32.999Z</time></trkpt><trkpt lat="46.45557145461327" lon="10.359689862744728"><ele>1161.0</ele><time>2026-03-28T15:41:33.999Z</time></trkpt><trkpt lat="46.45540329201583" lon="10.359725137058343"><ele>1161.0</ele><time>2026-03-28T15:41:34.999Z</time></trkpt><trkpt lat="46.4552383105032" lon="10.359752045183034"><ele>1161.0</ele><time>2026-03-28T15:41:35.999Z</time></trkpt><trkpt lat="46.45507504165207" lon="10.359781553867675"><ele>1161.0</ele><time>2026-03-28T15:41:36.999Z</time></trkpt><trkpt lat="46.45491385339856" lon="10.3598123110143"><ele>1161.0</ele><time>2026-03-28T15:41:37.999Z</time></trkpt><trkpt lat="46.45475475285088" lon="10.359843788050876"><ele>1160.3333333333333</ele><time>2026-03-28T15:41:38.999Z</time></trkpt><trkpt lat="46.454600582572766" lon="10.359874300102993"><ele>1159.6666666666665</ele><time>2026-03-28T15:41:39.999Z</time></trkpt><trkpt lat="46.45444827560524" lon="10.359900971603533"><ele>1159.0</ele><time>2026-03-28T15:41:40.999Z</time></trkpt><trkpt lat="46.454295459649046" lon="10.359923380908848"><ele>1159.0</ele><time>2026-03-28T15:41:41.999Z</time></trkpt><trkpt lat="46.45414997066216" lon="10.359951481440655"><ele>1159.0</ele><time>2026-03-28T15:41:42.999Z</time></trkpt><trkpt lat="46.45400881651958" lon="10.359972074620927"><ele>1159.0</ele><time>2026-03-28T15:41:43.999Z</time></trkpt><trkpt lat="46.45387684355895" lon="10.359992553324783"><ele>1159.0</ele><time>2026-03-28T15:41:44.999Z</time></trkpt><trkpt lat="46.45375251668365" lon="10.360012895492815"><ele>1159.4</ele><time>2026-03-28T15:41:45.999Z</time></trkpt><trkpt lat="46.453643259944926" lon="10.360033916000956"><ele>1159.8000000000002</ele><time>2026-03-28T15:41:46.999Z</time></trkpt><trkpt lat="46.45355024571009" lon="10.360048009878923"><ele>1160.1999999999998</ele><time>2026-03-28T15:41:47.999Z</time></trkpt><trkpt lat="46.45347755512215" lon="10.360052667065652"><ele>1160.6</ele><time>2026-03-28T15:41:48.999Z</time></trkpt><trkpt lat="46.453396504901804" lon="10.360031617059402"><ele>1161.0</ele><time>2026-03-28T15:41:50.999Z</time></trkpt><trkpt lat="46.45329095207044" lon="10.359965906296381"><ele>1161.0</ele><time>2026-03-28T15:41:55.999Z</time></trkpt><trkpt lat="46.453228653282956" lon="10.359901228672337"><ele>1161.0</ele><time>2026-03-28T15:41:56.999Z</time></trkpt><trkpt lat="46.45315869032132" lon="10.359859895328288"><ele>1161.0</ele><time>2026-03-28T15:41:57.999Z</time></trkpt><trkpt lat="46.453074208704244" lon="10.359857252223836"><ele>1161.0</ele><time>2026-03-28T15:41:58.999Z</time></trkpt><trkpt lat="46.45300294888379" lon="10.359898595145273"><ele>1161.0</ele><time>2026-03-28T15:41:59.999Z</time></trkpt><trkpt lat="46.45293657929329" lon="10.359971458355082"><ele>1161.0</ele><time>2026-03-28T15:42:00.999Z</time></trkpt><trkpt lat="46.452861297878115" lon="10.360047789804057"><ele>1160.3999999999999</ele><time>2026-03-28T15:42:01.999Z</time></trkpt><trkpt lat="46.452784502558536" lon="10.360090661267323"><ele>1159.8</ele><time>2026-03-28T15:42:02.999Z</time></trkpt><trkpt lat="46.452687454169556" lon="10.36012532585267"><ele>1159.1999999999998</ele><time>2026-03-28T15:42:03.999Z</time></trkpt><trkpt lat="46.452588867070965" lon="10.360169656068404"><ele>1158.6</ele><time>2026-03-28T15:42:04.999Z</time></trkpt><trkpt lat="46.452473461954185" lon="10.36017265252219"><ele>1158.0</ele><time>2026-03-28T15:42:05.999Z</time></trkpt><trkpt lat="46.452361958071" lon="10.360186239823419"><ele>1158.0</ele><time>2026-03-28T15:42:06.999Z</time></trkpt><trkpt lat="46.4522434616606" lon="10.360201726905936"><ele>1158.0</ele><time>2026-03-28T15:42:07.999Z</time></trkpt><trkpt lat="46.452125259552865" lon="10.360197842681362"><ele>1158.0</ele><time>2026-03-28T15:42:08.999Z</time></trkpt><trkpt lat="46.45201459311738" lon="10.36018398966513"><ele>1158.0</ele><time>2026-03-28T15:42:09.999Z</time></trkpt><trkpt lat="46.45189640212426" lon="10.360184825726751"><ele>1157.75</ele><time>2026-03-28T15:42:10.999Z</time></trkpt><trkpt lat="46.45177285396102" lon="10.360204697954392"><ele>1157.5</ele><time>2026-03-28T15:42:11.999Z</time></trkpt><trkpt lat="46.451641662829765" lon="10.360226623259864"><ele>1157.25</ele><time>2026-03-28T15:42:12.999Z</time></trkpt><trkpt lat="46.45150727701105" lon="10.36024820335875"><ele>1157.0</ele><time>2026-03-28T15:42:13.999Z</time></trkpt><trkpt lat="46.45137270826319" lon="10.360275449155798"><ele>1156.75</ele><time>2026-03-28T15:42:14.999Z</time></trkpt><trkpt lat="46.45123897512488" lon="10.360308607668944"><ele>1156.5</ele><time>2026-03-28T15:42:15.999Z</time></trkpt><trkpt lat="46.451099256879964" lon="10.360357008113207"><ele>1156.25</ele><time>2026-03-28T15:42:16.999Z</time></trkpt><trkpt lat="46.45096344821425" lon="10.360413007910111"><ele>1156.0</ele><time>2026-03-28T15:42:17.999Z</time></trkpt><trkpt lat="46.45082804046958" lon="10.360482796124435"><ele>1155.75</ele><time>2026-03-28T15:42:18.999Z</time></trkpt><trkpt lat="46.450690716419686" lon="10.360549746695778"><ele>1155.5</ele><time>2026-03-28T15:42:19.999Z</time></trkpt><trkpt lat="46.450550166658836" lon="10.360599407566506"><ele>1155.25</ele><time>2026-03-28T15:42:20.999Z</time></trkpt><trkpt lat="46.45040443705677" lon="10.360632117680966"><ele>1155.0</ele><time>2026-03-28T15:42:21.999Z</time></trkpt><trkpt lat="46.45025369806643" lon="10.36065661870138"><ele>1155.0</ele><time>2026-03-28T15:42:22.999Z</time></trkpt><trkpt lat="46.450105286814214" lon="10.360685109605424"><ele>1155.0</ele><time>2026-03-28T15:42:23.999Z</time></trkpt><trkpt lat="46.449952066164315" lon="10.360690894987124"><ele>1155.0</ele><time>2026-03-28T15:42:24.999Z</time></trkpt><trkpt lat="46.44980500424635" lon="10.360714647832559"><ele>1155.0</ele><time>2026-03-28T15:42:25.999Z</time></trkpt><trkpt lat="46.44966324807569" lon="10.3607447397385"><ele>1155.0</ele><time>2026-03-28T15:42:26.999Z</time></trkpt><trkpt lat="46.44952915974398" lon="10.360797935890782"><ele>1155.0</ele><time>2026-03-28T15:42:27.999Z</time></trkpt><trkpt lat="46.44940191827823" lon="10.360828804421127"><ele>1155.0</ele><time>2026-03-28T15:42:28.999Z</time></trkpt><trkpt lat="46.449270260067216" lon="10.360859736974282"><ele>1155.0</ele><time>2026-03-28T15:42:29.999Z</time></trkpt><trkpt lat="46.44913844511822" lon="10.360883115893719"><ele>1155.0</ele><time>2026-03-28T15:42:30.999Z</time></trkpt><trkpt lat="46.4489997567232" lon="10.360905944318809"><ele>1155.0</ele><time>2026-03-28T15:42:31.999Z</time></trkpt><trkpt lat="46.44885730270744" lon="10.360911868877245"><ele>1155.0</ele><time>2026-03-28T15:42:32.999Z</time></trkpt><trkpt lat="46.44870149201168" lon="10.360906621953223"><ele>1154.25</ele><time>2026-03-28T15:42:33.999Z</time></trkpt><trkpt lat="46.44856574873261" lon="10.360941504465366"><ele>1153.5</ele><time>2026-03-28T15:42:34.999Z</time></trkpt><trkpt lat="46.44842193658818" lon="10.360984769091203"><ele>1152.75</ele><time>2026-03-28T15:42:35.999Z</time></trkpt><trkpt lat="46.448280413750894" lon="10.360993533970998"><ele>1152.0</ele><time>2026-03-28T15:42:36.999Z</time></trkpt><trkpt lat="46.4481436571492" lon="10.361038495347476"><ele>1152.0</ele><time>2026-03-28T15:42:37.999Z</time></trkpt><trkpt lat="46.44798358624081" lon="10.361045273146999"><ele>1152.0</ele><time>2026-03-28T15:42:38.999Z</time></trkpt><trkpt lat="46.447830792726606" lon="10.361074133107895"><ele>1152.0</ele><time>2026-03-28T15:42:39.999Z</time></trkpt><trkpt lat="46.44767640634499" lon="10.361102506378336"><ele>1152.0</ele><time>2026-03-28T15:42:40.999Z</time></trkpt><trkpt lat="46.44752665736377" lon="10.361129929779196"><ele>1152.0</ele><time>2026-03-28T15:42:41.999Z</time></trkpt><trkpt lat="46.44735298451819" lon="10.361161125219002"><ele>1152.0</ele><time>2026-03-28T15:42:42.999Z</time></trkpt><trkpt lat="46.44719583304476" lon="10.361200631623971"><ele>1151.6666666666667</ele><time>2026-03-28T15:42:43.999Z</time></trkpt><trkpt lat="46.447045182434394" lon="10.361213370144663"><ele>1151.3333333333335</ele><time>2026-03-28T15:42:44.999Z</time></trkpt><trkpt lat="46.44689750100755" lon="10.361249244679692"><ele>1151.0</ele><time>2026-03-28T15:42:45.999Z</time></trkpt><trkpt lat="46.44674404711688" lon="10.361274357631569"><ele>1151.0</ele><time>2026-03-28T15:42:46.999Z</time></trkpt><trkpt lat="46.44658801681256" lon="10.361303911117837"><ele>1151.0</ele><time>2026-03-28T15:42:47.999Z</time></trkpt><trkpt lat="46.44644581405302" lon="10.361352730748546"><ele>1151.0</ele><time>2026-03-28T15:42:48.999Z</time></trkpt><trkpt lat="46.44628276500531" lon="10.361374426419133"><ele>1151.6666666666667</ele><time>2026-03-28T15:42:49.999Z</time></trkpt><trkpt lat="46.44612927856068" lon="10.361401090608357"><ele>1152.3333333333333</ele><time>2026-03-28T15:42:50.999Z</time></trkpt><trkpt lat="46.44597683343009" lon="10.361402233051901"><ele>1153.0</ele><time>2026-03-28T15:42:51.999Z</time></trkpt><trkpt lat="46.44582826986376" lon="10.36137604135843"><ele>1153.0</ele><time>2026-03-28T15:42:52.999Z</time></trkpt><trkpt lat="46.445679576244245" lon="10.36133454797716"><ele>1153.0</ele><time>2026-03-28T15:42:53.999Z</time></trkpt><trkpt lat="46.445522767398884" lon="10.361285993842941"><ele>1153.0</ele><time>2026-03-28T15:42:54.999Z</time></trkpt><trkpt lat="46.4453714048118" lon="10.361220129354361"><ele>1152.6666666666665</ele><time>2026-03-28T15:42:55.999Z</time></trkpt><trkpt lat="46.445226283483656" lon="10.361127281512331"><ele>1152.3333333333333</ele><time>2026-03-28T15:42:56.999Z</time></trkpt><trkpt lat="46.44510031932025" lon="10.36099078713023"><ele>1152.0</ele><time>2026-03-28T15:42:57.999Z</time></trkpt><trkpt lat="46.44493247935293" lon="10.360920532507727"><ele>1152.0</ele><time>2026-03-28T15:42:58.999Z</time></trkpt><trkpt lat="46.444777366581334" lon="10.360898868768643"><ele>1152.0</ele><time>2026-03-28T15:42:59.999Z</time></trkpt><trkpt lat="46.44462419615134" lon="10.360830649035323"><ele>1152.0</ele><time>2026-03-28T15:43:00.999Z</time></trkpt><trkpt lat="46.444477977093555" lon="10.360754936709345"><ele>1152.25</ele><time>2026-03-28T15:43:01.999Z</time></trkpt><trkpt lat="46.444342899615435" lon="10.360655171261282"><ele>1152.5</ele><time>2026-03-28T15:43:02.999Z</time></trkpt><trkpt lat="46.44420566816205" lon="10.360583134223482"><ele>1152.75</ele><time>2026-03-28T15:43:03.999Z</time></trkpt><trkpt lat="46.44406490506585" lon="10.360522071169841"><ele>1153.0</ele><time>2026-03-28T15:43:04.999Z</time></trkpt><trkpt lat="46.44392377918215" lon="10.3604459610493"><ele>1152.0</ele><time>2026-03-28T15:43:05.999Z</time></trkpt><trkpt lat="46.4437818839995" lon="10.360374790200607"><ele>1151.0</ele><time>2026-03-28T15:43:06.999Z</time></trkpt><trkpt lat="46.44364634491803" lon="10.36030045056377"><ele>1150.0</ele><time>2026-03-28T15:43:07.999Z</time></trkpt><trkpt lat="46.44350350720159" lon="10.360224033552631"><ele>1149.0</ele><time>2026-03-28T15:43:08.999Z</time></trkpt><trkpt lat="46.44334993827073" lon="10.360148132169575"><ele>1149.0</ele><time>2026-03-28T15:43:09.999Z</time></trkpt><trkpt lat="46.44319339563901" lon="10.360064545579792"><ele>1149.0</ele><time>2026-03-28T15:43:10.999Z</time></trkpt><trkpt lat="46.44303767172661" lon="10.35997997810165"><ele>1149.0</ele><time>2026-03-28T15:43:11.999Z</time></trkpt><trkpt lat="46.44288483580472" lon="10.359896733172679"><ele>1148.6666666666667</ele><time>2026-03-28T15:43:12.999Z</time></trkpt><trkpt lat="46.4427313573494" lon="10.359814598798314"><ele>1148.3333333333335</ele><time>2026-03-28T15:43:13.999Z</time></trkpt><trkpt lat="46.442570506329254" lon="10.359727015387364"><ele>1148.0</ele><time>2026-03-28T15:43:14.999Z</time></trkpt><trkpt lat="46.44240883994325" lon="10.359640024956843"><ele>1147.3333333333335</ele><time>2026-03-28T15:43:15.999Z</time></trkpt><trkpt lat="46.44224322391926" lon="10.359550938785528"><ele>1146.6666666666667</ele><time>2026-03-28T15:43:16.999Z</time></trkpt><trkpt lat="46.442079050353556" lon="10.359470056703707"><ele>1146.0</ele><time>2026-03-28T15:43:17.999Z</time></trkpt><trkpt lat="46.441913654667154" lon="10.359388674696723"><ele>1145.6666666666667</ele><time>2026-03-28T15:43:18.999Z</time></trkpt><trkpt lat="46.44175402623698" lon="10.359306996393403"><ele>1145.3333333333335</ele><time>2026-03-28T15:43:19.999Z</time></trkpt><trkpt lat="46.44159536537688" lon="10.359225301434904"><ele>1145.0</ele><time>2026-03-28T15:43:20.999Z</time></trkpt><trkpt lat="46.44143655169944" lon="10.359146458873818"><ele>1146.3333333333335</ele><time>2026-03-28T15:43:21.999Z</time></trkpt><trkpt lat="46.44127810517851" lon="10.359061118219445"><ele>1147.6666666666667</ele><time>2026-03-28T15:43:22.999Z</time></trkpt><trkpt lat="46.441120333868156" lon="10.358978868179177"><ele>1149.0</ele><time>2026-03-28T15:43:23.999Z</time></trkpt><trkpt lat="46.4409683196858" lon="10.358894761656163"><ele>1148.3333333333333</ele><time>2026-03-28T15:43:24.999Z</time></trkpt><trkpt lat="46.440816305786534" lon="10.358819026716873"><ele>1147.6666666666665</ele><time>2026-03-28T15:43:25.999Z</time></trkpt><trkpt lat="46.440667262346025" lon="10.358746275860735"><ele>1147.0</ele><time>2026-03-28T15:43:26.999Z</time></trkpt><trkpt lat="46.44053280974216" lon="10.358683916029596"><ele>1147.5</ele><time>2026-03-28T15:43:27.999Z</time></trkpt><trkpt lat="46.44039678067534" lon="10.358619389538688"><ele>1148.0</ele><time>2026-03-28T15:43:28.999Z</time></trkpt><trkpt lat="46.44026460348452" lon="10.35856303969904"><ele>1148.5</ele><time>2026-03-28T15:43:29.999Z</time></trkpt><trkpt lat="46.440128638147826" lon="10.358502405102726"><ele>1149.0</ele><time>2026-03-28T15:43:30.999Z</time></trkpt><trkpt lat="46.439984578071105" lon="10.358419653405495"><ele>1149.0</ele><time>2026-03-28T15:43:31.999Z</time></trkpt><trkpt lat="46.43983195658284" lon="10.358313781898818"><ele>1149.0</ele><time>2026-03-28T15:43:32.999Z</time></trkpt><trkpt lat="46.439672704917385" lon="10.358216375607071"><ele>1149.0</ele><time>2026-03-28T15:43:33.999Z</time></trkpt><trkpt lat="46.439506381292624" lon="10.358132474943913"><ele>1147.6666666666667</ele><time>2026-03-28T15:43:34.999Z</time></trkpt><trkpt lat="46.439331190643934" lon="10.358052857314686"><ele>1146.3333333333335</ele><time>2026-03-28T15:43:35.999Z</time></trkpt><trkpt lat="46.43914727898037" lon="10.35798691944012"><ele>1145.0</ele><time>2026-03-28T15:43:36.999Z</time></trkpt><trkpt lat="46.43895685339675" lon="10.357958815463583"><ele>1145.0</ele><time>2026-03-28T15:43:37.999Z</time></trkpt><trkpt lat="46.43877150607808" lon="10.357981118416559"><ele>1145.0</ele><time>2026-03-28T15:43:38.999Z</time></trkpt><trkpt lat="46.43857476828961" lon="10.358021320264596"><ele>1145.0</ele><time>2026-03-28T15:43:39.999Z</time></trkpt><trkpt lat="46.438388629805154" lon="10.358109696893411"><ele>1145.6666666666667</ele><time>2026-03-28T15:43:40.999Z</time></trkpt><trkpt lat="46.438209767963066" lon="10.358223968921918"><ele>1146.3333333333333</ele><time>2026-03-28T15:43:41.999Z</time></trkpt><trkpt lat="46.43803902161076" lon="10.358365558961523"><ele>1147.0</ele><time>2026-03-28T15:43:42.999Z</time></trkpt><trkpt lat="46.437871710342485" lon="10.358513409471241"><ele>1147.0</ele><time>2026-03-28T15:43:43.999Z</time></trkpt><trkpt lat="46.437703105290026" lon="10.358665104167727"><ele>1147.0</ele><time>2026-03-28T15:43:44.999Z</time></trkpt><trkpt lat="46.43753595911958" lon="10.358814611174513"><ele>1147.0</ele><time>2026-03-28T15:43:45.999Z</time></trkpt><trkpt lat="46.43736802696796" lon="10.358967172572633"><ele>1147.0</ele><time>2026-03-28T15:43:46.999Z</time></trkpt><trkpt lat="46.437200461329" lon="10.359117519342435"><ele>1147.0</ele><time>2026-03-28T15:43:47.999Z</time></trkpt><trkpt lat="46.437035455085834" lon="10.35927841778333"><ele>1147.0</ele><time>2026-03-28T15:43:48.999Z</time></trkpt><trkpt lat="46.436877072626686" lon="10.359434526399685"><ele>1147.0</ele><time>2026-03-28T15:43:49.999Z</time></trkpt><trkpt lat="46.43671223079712" lon="10.359574107099435"><ele>1147.0</ele><time>2026-03-28T15:43:50.999Z</time></trkpt><trkpt lat="46.436532374929286" lon="10.359702355334703"><ele>1147.0</ele><time>2026-03-28T15:43:51.999Z</time></trkpt><trkpt lat="46.43635528697429" lon="10.35985051494713"><ele>1146.3333333333333</ele><time>2026-03-28T15:43:52.999Z</time></trkpt><trkpt lat="46.436159312085714" lon="10.35997071638199"><ele>1145.6666666666667</ele><time>2026-03-28T15:43:53.999Z</time></trkpt><trkpt lat="46.43595557865788" lon="10.360080155529005"><ele>1145.0</ele><time>2026-03-28T15:43:54.999Z</time></trkpt><trkpt lat="46.435735455470976" lon="10.360179651841149"><ele>1145.0</ele><time>2026-03-28T15:43:55.999Z</time></trkpt><trkpt lat="46.435503098646635" lon="10.360255202992754"><ele>1145.0</ele><time>2026-03-28T15:43:56.999Z</time></trkpt><trkpt lat="46.435273658483666" lon="10.360312969929646"><ele>1143.0</ele><time>2026-03-28T15:43:57.999Z</time></trkpt><trkpt lat="46.435044046411335" lon="10.360330647343313"><ele>1141.0</ele><time>2026-03-28T15:43:58.999Z</time></trkpt><trkpt lat="46.434815451601104" lon="10.360320472940801"><ele>1145.3333333333333</ele><time>2026-03-28T15:43:59.999Z</time></trkpt><trkpt lat="46.43460421739682" lon="10.360267456315023"><ele>1149.6666666666667</ele><time>2026-03-28T15:44:00.999Z</time></trkpt><trkpt lat="46.43439117342857" lon="10.360168361192581"><ele>1154.0</ele><time>2026-03-28T15:44:01.999Z</time></trkpt><trkpt lat="46.43419931208655" lon="10.36000638092837"><ele>1154.0</ele><time>2026-03-28T15:44:02.999Z</time></trkpt><trkpt lat="46.434008044866644" lon="10.359851294994783"><ele>1154.0</ele><time>2026-03-28T15:44:03.999Z</time></trkpt><trkpt lat="46.43382951720962" lon="10.35966462099247"><ele>1154.0</ele><time>2026-03-28T15:44:04.999Z</time></trkpt><trkpt lat="46.43367738189425" lon="10.359429050780937"><ele>1156.6666666666667</ele><time>2026-03-28T15:44:05.999Z</time></trkpt><trkpt lat="46.433525898342715" lon="10.359189870870589"><ele>1159.3333333333333</ele><time>2026-03-28T15:44:06.999Z</time></trkpt><trkpt lat="46.43336842150963" lon="10.35896116265117"><ele>1162.0</ele><time>2026-03-28T15:44:07.999Z</time></trkpt><trkpt lat="46.43321531393297" lon="10.35872770576838"><ele>1157.3333333333333</ele><time>2026-03-28T15:44:08.999Z</time></trkpt><trkpt lat="46.43304464044131" lon="10.358542073496782"><ele>1152.6666666666667</ele><time>2026-03-28T15:44:09.999Z</time></trkpt><trkpt lat="46.43285813166944" lon="10.358389547980236"><ele>1148.0</ele><time>2026-03-28T15:44:10.999Z</time></trkpt><trkpt lat="46.432617137675614" lon="10.358287807434689"><ele>1148.0</ele><time>2026-03-28T15:44:11.999Z</time></trkpt><trkpt lat="46.43238631311306" lon="10.358198414080762"><ele>1148.0</ele><time>2026-03-28T15:44:12.999Z</time></trkpt><trkpt lat="46.43224233064652" lon="10.358104572459832"><ele>1148.0</ele><time>2026-03-28T15:44:13.999Z</time></trkpt><trkpt lat="46.43202613033666" lon="10.358047414263678"><ele>1146.3333333333335</ele><time>2026-03-28T15:44:14.999Z</time></trkpt><trkpt lat="46.43180110721229" lon="10.357984514357055"><ele>1144.6666666666667</ele><time>2026-03-28T15:44:15.999Z</time></trkpt><trkpt lat="46.431588001559035" lon="10.357904347257904"><ele>1143.0</ele><time>2026-03-28T15:44:16.999Z</time></trkpt><trkpt lat="46.431395223795114" lon="10.357751006846978"><ele>1145.6666666666667</ele><time>2026-03-28T15:44:17.999Z</time></trkpt><trkpt lat="46.43119948742062" lon="10.357607266071348"><ele>1148.3333333333335</ele><time>2026-03-28T15:44:18.999Z</time></trkpt><trkpt lat="46.43100230094775" lon="10.35746138274645"><ele>1151.0</ele><time>2026-03-28T15:44:19.999Z</time></trkpt><trkpt lat="46.43081398749607" lon="10.35731344434594"><ele>1148.6666666666667</ele><time>2026-03-28T15:44:20.999Z</time></trkpt><trkpt lat="46.43062089455477" lon="10.357193412792258"><ele>1146.3333333333333</ele><time>2026-03-28T15:44:22Z</time></trkpt><trkpt lat="46.430425961543335" lon="10.35709130474863"><ele>1144.0</ele><time>2026-03-28T15:44:23Z</time></trkpt><trkpt lat="46.43022921733394" lon="10.357008789486304"><ele>1141.3333333333333</ele><time>2026-03-28T15:44:24Z</time></trkpt><trkpt lat="46.430043521532355" lon="10.356940054046982"><ele>1138.6666666666667</ele><time>2026-03-28T15:44:25Z</time></trkpt><trkpt lat="46.429852924725196" lon="10.356908339949525"><ele>1136.0</ele><time>2026-03-28T15:44:26Z</time></trkpt><trkpt lat="46.429645421366516" lon="10.356932938091395"><ele>1136.0</ele><time>2026-03-28T15:44:27Z</time></trkpt><trkpt lat="46.429429649828464" lon="10.35700008362101"><ele>1136.0</ele><time>2026-03-28T15:44:28Z</time></trkpt><trkpt lat="46.42921441582986" lon="10.35708598999415"><ele>1136.0</ele><time>2026-03-28T15:44:29Z</time></trkpt><trkpt lat="46.428998772286825" lon="10.357165512358666"><ele>1143.5</ele><time>2026-03-28T15:44:30Z</time></trkpt><trkpt lat="46.42877959329608" lon="10.35723049506404"><ele>1151.0</ele><time>2026-03-28T15:44:31Z</time></trkpt><trkpt lat="46.42855354869457" lon="10.357249560962801"><ele>1144.5</ele><time>2026-03-28T15:44:32Z</time></trkpt><trkpt lat="46.42832932190044" lon="10.35720053275554"><ele>1138.0</ele><time>2026-03-28T15:44:33Z</time></trkpt><trkpt lat="46.428092739715176" lon="10.357164078577656"><ele>1136.0</ele><time>2026-03-28T15:44:34Z</time></trkpt><trkpt lat="46.42786239895754" lon="10.357103484274635"><ele>1134.0</ele><time>2026-03-28T15:44:35Z</time></trkpt><trkpt lat="46.42762785031539" lon="10.357040250098784"><ele>1134.0</ele><time>2026-03-28T15:44:36Z</time></trkpt><trkpt lat="46.42739267287416" lon="10.356968929736144"><ele>1134.0</ele><time>2026-03-28T15:44:37Z</time></trkpt><trkpt lat="46.42716048323845" lon="10.356903030731617"><ele>1133.5</ele><time>2026-03-28T15:44:38Z</time></trkpt><trkpt lat="46.42693164362708" lon="10.356815207944091"><ele>1133.0</ele><time>2026-03-28T15:44:39Z</time></trkpt><trkpt lat="46.42669662619346" lon="10.356745717560734"><ele>1133.0</ele><time>2026-03-28T15:44:40Z</time></trkpt><trkpt lat="46.42647445856456" lon="10.35666984889318"><ele>1133.0</ele><time>2026-03-28T15:44:41Z</time></trkpt><trkpt lat="46.426266482795974" lon="10.356578715434614"><ele>1133.0</ele><time>2026-03-28T15:44:42Z</time></trkpt><trkpt lat="46.42606570818748" lon="10.35646884962657"><ele>1132.0</ele><time>2026-03-28T15:44:43Z</time></trkpt><trkpt lat="46.42588357332886" lon="10.356373405229412"><ele>1131.0</ele><time>2026-03-28T15:44:44Z</time></trkpt><trkpt lat="46.4256981071275" lon="10.356294245139926"><ele>1130.0</ele><time>2026-03-28T15:44:45Z</time></trkpt><trkpt lat="46.42552479452708" lon="10.356201573311493"><ele>1131.0</ele><time>2026-03-28T15:44:46Z</time></trkpt><trkpt lat="46.4253530005609" lon="10.35611078990566"><ele>1132.0</ele><time>2026-03-28T15:44:47Z</time></trkpt><trkpt lat="46.42518623622917" lon="10.356019659993741"><ele>1133.0</ele><time>2026-03-28T15:44:48Z</time></trkpt><trkpt lat="46.42502727026535" lon="10.355922612911304"><ele>1133.0</ele><time>2026-03-28T15:44:49Z</time></trkpt><trkpt lat="46.424871213860904" lon="10.355832466664063"><ele>1133.0</ele><time>2026-03-28T15:44:50Z</time></trkpt><trkpt lat="46.42471534719756" lon="10.35574612993246"><ele>1133.0</ele><time>2026-03-28T15:44:51Z</time></trkpt><trkpt lat="46.42455652182497" lon="10.355665599006437"><ele>1135.3333333333335</ele><time>2026-03-28T15:44:52Z</time></trkpt><trkpt lat="46.424405740691824" lon="10.355591649377144"><ele>1137.6666666666667</ele><time>2026-03-28T15:44:53Z</time></trkpt><trkpt lat="46.4242450144544" lon="10.355517996968485"><ele>1140.0</ele><time>2026-03-28T15:44:54Z</time></trkpt><trkpt lat="46.424086203876904" lon="10.355440724072476"><ele>1134.6666666666667</ele><time>2026-03-28T15:44:55Z</time></trkpt><trkpt lat="46.42391601776795" lon="10.355360531524406"><ele>1129.3333333333335</ele><time>2026-03-28T15:44:56Z</time></trkpt><trkpt lat="46.423745244807634" lon="10.35530150759006"><ele>1124.0</ele><time>2026-03-28T15:44:57Z</time></trkpt><trkpt lat="46.42357265551341" lon="10.35521367983896"><ele>1123.6666666666667</ele><time>2026-03-28T15:44:58Z</time></trkpt><trkpt lat="46.42337941111037" lon="10.3551220784122"><ele>1123.3333333333333</ele><time>2026-03-28T15:44:59Z</time></trkpt><trkpt lat="46.42317923048497" lon="10.355039605627757"><ele>1123.0</ele><time>2026-03-28T15:45:00Z</time></trkpt><trkpt lat="46.422971269157095" lon="10.354946479826582"><ele>1123.0</ele><time>2026-03-28T15:45:01Z</time></trkpt><trkpt lat="46.422752627191485" lon="10.354847400239267"><ele>1123.0</ele><time>2026-03-28T15:45:02Z</time></trkpt><trkpt lat="46.42253604627832" lon="10.354740897460006"><ele>1121.5</ele><time>2026-03-28T15:45:03Z</time></trkpt><trkpt lat="46.4223151936499" lon="10.354637693536771"><ele>1120.0</ele><time>2026-03-28T15:45:04Z</time></trkpt><trkpt lat="46.42209309204536" lon="10.354529937018716"><ele>1120.0</ele><time>2026-03-28T15:45:05Z</time></trkpt><trkpt lat="46.42186461665138" lon="10.35443136376514"><ele>1120.0</ele><time>2026-03-28T15:45:06Z</time></trkpt><trkpt lat="46.421686506181935" lon="10.354333619210998"><ele>1120.0</ele><time>2026-03-28T15:45:07Z</time></trkpt><trkpt lat="46.42149872969971" lon="10.354226219433984"><ele>1120.0</ele><time>2026-03-28T15:45:08Z</time></trkpt><trkpt lat="46.42133572779956" lon="10.354129541565166"><ele>1120.0</ele><time>2026-03-28T15:45:09Z</time></trkpt><trkpt lat="46.42095983050474" lon="10.354002262085878"><ele>1119.5</ele><time>2026-03-28T15:45:10Z</time></trkpt><trkpt lat="46.42072306065112" lon="10.35390174454882"><ele>1119.0</ele><time>2026-03-28T15:45:11Z</time></trkpt><trkpt lat="46.42049118850026" lon="10.35379509311447"><ele>1117.0</ele><time>2026-03-28T15:45:12Z</time></trkpt><trkpt lat="46.42026287008777" lon="10.353689277098587"><ele>1115.0</ele><time>2026-03-28T15:45:13Z</time></trkpt><trkpt lat="46.420035479148495" lon="10.353579996897905"><ele>1115.0</ele><time>2026-03-28T15:45:14Z</time></trkpt><trkpt lat="46.4198088678244" lon="10.353471895705617"><ele>1115.0</ele><time>2026-03-28T15:45:15Z</time></trkpt><trkpt lat="46.419581029511434" lon="10.353368393097373"><ele>1115.5</ele><time>2026-03-28T15:45:16Z</time></trkpt><trkpt lat="46.419351728980935" lon="10.353277443549613"><ele>1116.0</ele><time>2026-03-28T15:45:17Z</time></trkpt><trkpt lat="46.419121052209775" lon="10.353203105917885"><ele>1116.0</ele><time>2026-03-28T15:45:18Z</time></trkpt><trkpt lat="46.4188804133475" lon="10.353144719384206"><ele>1116.0</ele><time>2026-03-28T15:45:19Z</time></trkpt><trkpt lat="46.418642795655806" lon="10.353090963452114"><ele>1113.0</ele><time>2026-03-28T15:45:20Z</time></trkpt><trkpt lat="46.41840824636241" lon="10.353032886970134"><ele>1110.0</ele><time>2026-03-28T15:45:21Z</time></trkpt><trkpt lat="46.418178828629145" lon="10.352976738755936"><ele>1111.5</ele><time>2026-03-28T15:45:22Z</time></trkpt><trkpt lat="46.41794951256656" lon="10.35291673202601"><ele>1113.0</ele><time>2026-03-28T15:45:23Z</time></trkpt><trkpt lat="46.41772122221894" lon="10.352857812883222"><ele>1113.0</ele><time>2026-03-28T15:45:24Z</time></trkpt><trkpt lat="46.417494436727935" lon="10.35279317668308"><ele>1113.0</ele><time>2026-03-28T15:45:25Z</time></trkpt><trkpt lat="46.417276927093866" lon="10.352730988476981"><ele>1113.6666666666667</ele><time>2026-03-28T15:45:26Z</time></trkpt><trkpt lat="46.417061516295625" lon="10.352678862875072"><ele>1114.3333333333335</ele><time>2026-03-28T15:45:27Z</time></trkpt><trkpt lat="46.416857387907235" lon="10.352625526743621"><ele>1115.0</ele><time>2026-03-28T15:45:28Z</time></trkpt><trkpt lat="46.41665207808" lon="10.352580881537241"><ele>1115.0</ele><time>2026-03-28T15:45:29Z</time></trkpt><trkpt lat="46.41646256107886" lon="10.352508031400987"><ele>1115.0</ele><time>2026-03-28T15:45:30Z</time></trkpt><trkpt lat="46.41627064764139" lon="10.35247308577148"><ele>1115.0</ele><time>2026-03-28T15:45:31Z</time></trkpt><trkpt lat="46.4160959884119" lon="10.352360029408407"><ele>1115.0</ele><time>2026-03-28T15:45:32Z</time></trkpt><trkpt lat="46.415901232541756" lon="10.352228107521727"><ele>1115.0</ele><time>2026-03-28T15:45:33Z</time></trkpt><trkpt lat="46.415706850475054" lon="10.35208172866358"><ele>1115.0</ele><time>2026-03-28T15:45:34Z</time></trkpt><trkpt lat="46.415522057307996" lon="10.35190206633001"><ele>1118.6666666666667</ele><time>2026-03-28T15:45:35Z</time></trkpt><trkpt lat="46.41533027504244" lon="10.351767664345696"><ele>1122.3333333333333</ele><time>2026-03-28T15:45:36Z</time></trkpt><trkpt lat="46.415136851576825" lon="10.351632114837907"><ele>1126.0</ele><time>2026-03-28T15:45:37Z</time></trkpt><trkpt lat="46.41494208856308" lon="10.351511381027558"><ele>1126.0</ele><time>2026-03-28T15:45:38Z</time></trkpt><trkpt lat="46.414761344516386" lon="10.351387082730374"><ele>1126.0</ele><time>2026-03-28T15:45:39Z</time></trkpt><trkpt lat="46.41457960327876" lon="10.351259847790727"><ele>1126.0</ele><time>2026-03-28T15:45:40Z</time></trkpt><trkpt lat="46.41439899844598" lon="10.351139277872049"><ele>1125.6666666666665</ele><time>2026-03-28T15:45:41Z</time></trkpt><trkpt lat="46.41421188646146" lon="10.351019997027171"><ele>1125.3333333333333</ele><time>2026-03-28T15:45:42Z</time></trkpt><trkpt lat="46.41402313926364" lon="10.350908651688627"><ele>1125.0</ele><time>2026-03-28T15:45:43Z</time></trkpt><trkpt lat="46.41382696796549" lon="10.350821280457081"><ele>1127.0</ele><time>2026-03-28T15:45:44Z</time></trkpt><trkpt lat="46.41362597025759" lon="10.350754446087231"><ele>1129.0</ele><time>2026-03-28T15:45:45Z</time></trkpt><trkpt lat="46.41342123585354" lon="10.35071203517413"><ele>1131.0</ele><time>2026-03-28T15:45:46Z</time></trkpt><trkpt lat="46.41321179178983" lon="10.35069328506167"><ele>1131.0</ele><time>2026-03-28T15:45:47Z</time></trkpt><trkpt lat="46.413002239909986" lon="10.350662865389864"><ele>1131.0</ele><time>2026-03-28T15:45:48Z</time></trkpt><trkpt lat="46.41280122974446" lon="10.350644841002996"><ele>1131.0</ele><time>2026-03-28T15:45:49Z</time></trkpt><trkpt lat="46.412604676021616" lon="10.350629773216765"><ele>1131.0</ele><time>2026-03-28T15:45:50Z</time></trkpt><trkpt lat="46.412408665857505" lon="10.350616651935292"><ele>1131.0</ele><time>2026-03-28T15:45:51Z</time></trkpt><trkpt lat="46.41220685325518" lon="10.350629003575063"><ele>1131.0</ele><time>2026-03-28T15:45:52Z</time></trkpt><trkpt lat="46.412012903607724" lon="10.350646296173512"><ele>1131.0</ele><time>2026-03-28T15:45:53Z</time></trkpt><trkpt lat="46.41183301583272" lon="10.350663422299425"><ele>1131.0</ele><time>2026-03-28T15:45:54Z</time></trkpt><trkpt lat="46.41164236586663" lon="10.350704530749397"><ele>1131.0</ele><time>2026-03-28T15:45:55Z</time></trkpt><trkpt lat="46.41144487335195" lon="10.35075170070096"><ele>1128.3333333333333</ele><time>2026-03-28T15:45:56Z</time></trkpt><trkpt lat="46.41124135435822" lon="10.35077998788418"><ele>1125.6666666666665</ele><time>2026-03-28T15:45:57Z</time></trkpt><trkpt lat="46.411029201203455" lon="10.350783456715575"><ele>1123.0</ele><time>2026-03-28T15:45:58Z</time></trkpt><trkpt lat="46.41081775253476" lon="10.350779751731137"><ele>1123.0</ele><time>2026-03-28T15:45:59Z</time></trkpt><trkpt lat="46.410603487190926" lon="10.350779107305788"><ele>1123.0</ele><time>2026-03-28T15:46:00Z</time></trkpt><trkpt lat="46.41038624579066" lon="10.350788974253582"><ele>1123.0</ele><time>2026-03-28T15:46:01Z</time></trkpt><trkpt lat="46.41016153880549" lon="10.350770807514177"><ele>1119.5</ele><time>2026-03-28T15:46:02Z</time></trkpt><trkpt lat="46.40993244461822" lon="10.35078204455447"><ele>1116.0</ele><time>2026-03-28T15:46:03Z</time></trkpt><trkpt lat="46.40970333667743" lon="10.350819267748987"><ele>1116.5</ele><time>2026-03-28T15:46:04Z</time></trkpt><trkpt lat="46.4094739847273" lon="10.350837372357264"><ele>1117.0</ele><time>2026-03-28T15:46:05Z</time></trkpt><trkpt lat="46.40924606229133" lon="10.350856934891135"><ele>1117.0</ele><time>2026-03-28T15:46:06Z</time></trkpt><trkpt lat="46.40901611655327" lon="10.350868907641239"><ele>1117.0</ele><time>2026-03-28T15:46:07Z</time></trkpt><trkpt lat="46.40880392283847" lon="10.350835203583491"><ele>1117.0</ele><time>2026-03-28T15:46:08Z</time></trkpt><trkpt lat="46.4085803592196" lon="10.35081144229532"><ele>1116.5</ele><time>2026-03-28T15:46:09Z</time></trkpt><trkpt lat="46.40831466507647" lon="10.350778323287459"><ele>1116.0</ele><time>2026-03-28T15:46:10Z</time></trkpt><trkpt lat="46.40809991895878" lon="10.350767899770238"><ele>1116.0</ele><time>2026-03-28T15:46:11Z</time></trkpt><trkpt lat="46.40788092766575" lon="10.350736802352413"><ele>1116.0</ele><time>2026-03-28T15:46:12Z</time></trkpt><trkpt lat="46.407668286198145" lon="10.35071776377693"><ele>1116.0</ele><time>2026-03-28T15:46:13Z</time></trkpt><trkpt lat="46.407458869364575" lon="10.35072025215568"><ele>1116.0</ele><time>2026-03-28T15:46:14Z</time></trkpt><trkpt lat="46.40725543391893" lon="10.350753878253652"><ele>1116.0</ele><time>2026-03-28T15:46:15Z</time></trkpt><trkpt lat="46.40704746278116" lon="10.350823369371115"><ele>1116.0</ele><time>2026-03-28T15:46:16Z</time></trkpt><trkpt lat="46.40683591030052" lon="10.350911524394173"><ele>1113.0</ele><time>2026-03-28T15:46:17Z</time></trkpt><trkpt lat="46.40662054752027" lon="10.350985295785145"><ele>1110.0</ele><time>2026-03-28T15:46:18Z</time></trkpt><trkpt lat="46.40639430119348" lon="10.3510164296367"><ele>1107.0</ele><time>2026-03-28T15:46:19Z</time></trkpt><trkpt lat="46.40616502063959" lon="10.351073898961742"><ele>1102.5</ele><time>2026-03-28T15:46:20Z</time></trkpt><trkpt lat="46.40593330072622" lon="10.35111644561173"><ele>1098.0</ele><time>2026-03-28T15:46:21Z</time></trkpt><trkpt lat="46.40570709346583" lon="10.351185572152216"><ele>1098.6666666666667</ele><time>2026-03-28T15:46:22Z</time></trkpt><trkpt lat="46.405494538152944" lon="10.351284273274155"><ele>1099.3333333333335</ele><time>2026-03-28T15:46:23Z</time></trkpt><trkpt lat="46.40528552910512" lon="10.351410124331368"><ele>1100.0</ele><time>2026-03-28T15:46:24Z</time></trkpt><trkpt lat="46.40507169689589" lon="10.351519096750351"><ele>1100.0</ele><time>2026-03-28T15:46:25Z</time></trkpt><trkpt lat="46.404861609164854" lon="10.35162726859342"><ele>1100.0</ele><time>2026-03-28T15:46:26Z</time></trkpt><trkpt lat="46.40464148830036" lon="10.351719471424454"><ele>1095.0</ele><time>2026-03-28T15:46:27Z</time></trkpt><trkpt lat="46.404424192114966" lon="10.351815777086601"><ele>1090.0</ele><time>2026-03-28T15:46:28Z</time></trkpt><trkpt lat="46.40420932083092" lon="10.351923731874539"><ele>1090.0</ele><time>2026-03-28T15:46:29Z</time></trkpt><trkpt lat="46.40400665970135" lon="10.352064734388694"><ele>1090.0</ele><time>2026-03-28T15:46:30Z</time></trkpt><trkpt lat="46.40381512404418" lon="10.352247011301952"><ele>1089.0</ele><time>2026-03-28T15:46:31Z</time></trkpt><trkpt lat="46.40362156737673" lon="10.352440805190415"><ele>1088.0</ele><time>2026-03-28T15:46:32Z</time></trkpt><trkpt lat="46.40342996731961" lon="10.352622389214314"><ele>1088.0</ele><time>2026-03-28T15:46:33Z</time></trkpt><trkpt lat="46.40323652295539" lon="10.352816323399459"><ele>1088.0</ele><time>2026-03-28T15:46:34Z</time></trkpt><trkpt lat="46.40304852411458" lon="10.352998018603966"><ele>1085.6666666666667</ele><time>2026-03-28T15:46:35Z</time></trkpt><trkpt lat="46.402862358899284" lon="10.353172590815062"><ele>1083.3333333333333</ele><time>2026-03-28T15:46:36Z</time></trkpt><trkpt lat="46.40268600205589" lon="10.353349734516126"><ele>1081.0</ele><time>2026-03-28T15:46:37Z</time></trkpt><trkpt lat="46.40251638921044" lon="10.353490314958156"><ele>1081.0</ele><time>2026-03-28T15:46:38Z</time></trkpt><trkpt lat="46.402356867080876" lon="10.353643881587722"><ele>1081.0</ele><time>2026-03-28T15:46:39Z</time></trkpt><trkpt lat="46.40220600603676" lon="10.353806546603963"><ele>1081.0</ele><time>2026-03-28T15:46:40Z</time></trkpt><trkpt lat="46.40206177703101" lon="10.353942051098338"><ele>1083.0</ele><time>2026-03-28T15:46:41Z</time></trkpt><trkpt lat="46.401921213147645" lon="10.354062075718064"><ele>1085.0</ele><time>2026-03-28T15:46:42Z</time></trkpt><trkpt lat="46.40177695939131" lon="10.354131900285127"><ele>1087.0</ele><time>2026-03-28T15:46:43Z</time></trkpt><trkpt lat="46.40165710668533" lon="10.354188245543874"><ele>1089.0</ele><time>2026-03-28T15:46:44Z</time></trkpt><trkpt lat="46.40155296765414" lon="10.354226580991535"><ele>1089.0</ele><time>2026-03-28T15:46:45Z</time></trkpt><trkpt lat="46.40146704820359" lon="10.354248721113334"><ele>1089.0</ele><time>2026-03-28T15:46:46Z</time></trkpt><trkpt lat="46.40140251351634" lon="10.354265290685237"><ele>1089.0</ele><time>2026-03-28T15:46:47Z</time></trkpt><trkpt lat="46.401354119687525" lon="10.354329171486599"><ele>1089.0</ele><time>2026-03-28T15:46:48Z</time></trkpt><trkpt lat="46.40126728555755" lon="10.354329747363346"><ele>1089.0</ele><time>2026-03-28T15:46:50Z</time></trkpt><trkpt lat="46.401205067676514" lon="10.35431199997631"><ele>1089.0</ele><time>2026-03-28T15:46:53Z</time></trkpt><trkpt lat="46.40111465787697" lon="10.354343042873392"><ele>1088.0</ele><time>2026-03-28T15:47:39Z</time></trkpt><trkpt lat="46.40101138655391" lon="10.354340379267514"><ele>1087.0</ele><time>2026-03-28T15:47:40Z</time></trkpt><trkpt lat="46.40089171329425" lon="10.354384075309225"><ele>1086.0</ele><time>2026-03-28T15:47:41Z</time></trkpt><trkpt lat="46.400764332154736" lon="10.354423582151126"><ele>1085.0</ele><time>2026-03-28T15:47:42Z</time></trkpt><trkpt lat="46.40062065764684" lon="10.35447869423316"><ele>1084.0</ele><time>2026-03-28T15:47:43Z</time></trkpt><trkpt lat="46.40047025481931" lon="10.354543225673348"><ele>1083.0</ele><time>2026-03-28T15:47:44Z</time></trkpt><trkpt lat="46.40030511749635" lon="10.354584308942988"><ele>1082.0</ele><time>2026-03-28T15:47:45Z</time></trkpt><trkpt lat="46.40014103605066" lon="10.35467550557996"><ele>1087.6666666666667</ele><time>2026-03-28T15:47:46Z</time></trkpt><trkpt lat="46.399962450664006" lon="10.354718884879803"><ele>1093.3333333333333</ele><time>2026-03-28T15:47:47Z</time></trkpt><trkpt lat="46.39978368997066" lon="10.354770740699626"><ele>1099.0</ele><time>2026-03-28T15:47:48Z</time></trkpt><trkpt lat="46.39960174193064" lon="10.35481435639711"><ele>1099.0</ele><time>2026-03-28T15:47:49Z</time></trkpt><trkpt lat="46.39941778524949" lon="10.354851623270303"><ele>1099.0</ele><time>2026-03-28T15:47:50Z</time></trkpt><trkpt lat="46.39923064445092" lon="10.354908144767515"><ele>1099.0</ele><time>2026-03-28T15:47:51Z</time></trkpt><trkpt lat="46.39903591975194" lon="10.354944362200602"><ele>1100.0</ele><time>2026-03-28T15:47:52Z</time></trkpt><trkpt lat="46.398833985344645" lon="10.354984274861245"><ele>1101.0</ele><time>2026-03-28T15:47:53Z</time></trkpt><trkpt lat="46.398629266025935" lon="10.355024374555608"><ele>1102.0</ele><time>2026-03-28T15:47:54Z</time></trkpt><trkpt lat="46.39840664386436" lon="10.355044975033426"><ele>1102.0</ele><time>2026-03-28T15:47:55Z</time></trkpt><trkpt lat="46.39819494186851" lon="10.355068693925915"><ele>1102.0</ele><time>2026-03-28T15:47:56Z</time></trkpt><trkpt lat="46.3979945392994" lon="10.355086675312668"><ele>1102.0</ele><time>2026-03-28T15:47:57Z</time></trkpt><trkpt lat="46.39780203814692" lon="10.355080170778761"><ele>1099.3333333333333</ele><time>2026-03-28T15:47:58Z</time></trkpt><trkpt lat="46.397605787948386" lon="10.355058562112992"><ele>1096.6666666666667</ele><time>2026-03-28T15:47:59Z</time></trkpt><trkpt lat="46.397410793340086" lon="10.355017425390413"><ele>1094.0</ele><time>2026-03-28T15:48:00Z</time></trkpt><trkpt lat="46.39721677310115" lon="10.35497476107749"><ele>1093.0</ele><time>2026-03-28T15:48:01Z</time></trkpt><trkpt lat="46.397027492337045" lon="10.354968149021738"><ele>1092.0</ele><time>2026-03-28T15:48:02Z</time></trkpt><trkpt lat="46.39683658682199" lon="10.355003629038121"><ele>1091.0</ele><time>2026-03-28T15:48:03Z</time></trkpt><trkpt lat="46.396645782002665" lon="10.355073394754799"><ele>1091.0</ele><time>2026-03-28T15:48:04Z</time></trkpt><trkpt lat="46.39645699415416" lon="10.355149573200666"><ele>1091.0</ele><time>2026-03-28T15:48:05Z</time></trkpt><trkpt lat="46.39627416384499" lon="10.355221061485956"><ele>1091.0</ele><time>2026-03-28T15:48:06Z</time></trkpt><trkpt lat="46.3960895883324" lon="10.35529746781013"><ele>1089.0</ele><time>2026-03-28T15:48:07Z</time></trkpt><trkpt lat="46.39591525778062" lon="10.355381506317565"><ele>1087.0</ele><time>2026-03-28T15:48:08Z</time></trkpt><trkpt lat="46.39572722685984" lon="10.355458666613929"><ele>1085.0</ele><time>2026-03-28T15:48:09Z</time></trkpt><trkpt lat="46.395543945033815" lon="10.35555215193252"><ele>1093.6666666666667</ele><time>2026-03-28T15:48:10Z</time></trkpt><trkpt lat="46.39536729304921" lon="10.35563334168667"><ele>1102.3333333333333</ele><time>2026-03-28T15:48:11Z</time></trkpt><trkpt lat="46.395197393070944" lon="10.355706159122468"><ele>1111.0</ele><time>2026-03-28T15:48:12Z</time></trkpt><trkpt lat="46.395044968065804" lon="10.355743579255225"><ele>1111.0</ele><time>2026-03-28T15:48:13Z</time></trkpt><trkpt lat="46.394908760538506" lon="10.355747049542368"><ele>1111.0</ele><time>2026-03-28T15:48:14Z</time></trkpt><trkpt lat="46.39476619744563" lon="10.355721772691934"><ele>1111.0</ele><time>2026-03-28T15:48:15Z</time></trkpt><trkpt lat="46.394651903840185" lon="10.355640555898033"><ele>1111.0</ele><time>2026-03-28T15:48:16Z</time></trkpt><trkpt lat="46.39452780335394" lon="10.35554285812453"><ele>1113.3333333333333</ele><time>2026-03-28T15:48:17.001Z</time></trkpt><trkpt lat="46.394436145808164" lon="10.35537313045169"><ele>1115.6666666666667</ele><time>2026-03-28T15:48:18.001Z</time></trkpt><trkpt lat="46.39436350639185" lon="10.355163201151734"><ele>1118.0</ele><time>2026-03-28T15:48:19.001Z</time></trkpt><trkpt lat="46.39429842532238" lon="10.354932913118772"><ele>1108.3333333333335</ele><time>2026-03-28T15:48:20.001Z</time></trkpt><trkpt lat="46.39422625154109" lon="10.35470348058469"><ele>1098.6666666666667</ele><time>2026-03-28T15:48:21.001Z</time></trkpt><trkpt lat="46.394133758659265" lon="10.354498866379819"><ele>1089.0</ele><time>2026-03-28T15:48:22.001Z</time></trkpt><trkpt lat="46.39400320759705" lon="10.354341454681567"><ele>1089.0</ele><time>2026-03-28T15:48:23.001Z</time></trkpt><trkpt lat="46.39384573924704" lon="10.354238639647226"><ele>1089.0</ele><time>2026-03-28T15:48:24.001Z</time></trkpt><trkpt lat="46.393680923459684" lon="10.354106305957385"><ele>1089.0</ele><time>2026-03-28T15:48:25Z</time></trkpt><trkpt lat="46.39349859424214" lon="10.354001118214676"><ele>1089.6666666666667</ele><time>2026-03-28T15:48:26Z</time></trkpt><trkpt lat="46.393307129489614" lon="10.353899382415154"><ele>1090.3333333333335</ele><time>2026-03-28T15:48:27Z</time></trkpt><trkpt lat="46.39310720089526" lon="10.353805955276982"><ele>1091.0</ele><time>2026-03-28T15:48:28Z</time></trkpt><trkpt lat="46.39290579675137" lon="10.35371830468074"><ele>1092.3333333333335</ele><time>2026-03-28T15:48:29Z</time></trkpt><trkpt lat="46.3927113680251" lon="10.353622932737869"><ele>1093.6666666666667</ele><time>2026-03-28T15:48:30Z</time></trkpt><trkpt lat="46.392549820710386" lon="10.353471724871083"><ele>1095.0</ele><time>2026-03-28T15:48:31Z</time></trkpt><trkpt lat="46.39238794909989" lon="10.353320062587924"><ele>1095.0</ele><time>2026-03-28T15:48:32Z</time></trkpt><trkpt lat="46.3922061168384" lon="10.353235741464873"><ele>1095.0</ele><time>2026-03-28T15:48:33Z</time></trkpt><trkpt lat="46.392031292414785" lon="10.353184651927526"><ele>1095.0</ele><time>2026-03-28T15:48:34Z</time></trkpt><trkpt lat="46.391860396622775" lon="10.353203942182606"><ele>1095.6666666666667</ele><time>2026-03-28T15:48:35Z</time></trkpt><trkpt lat="46.391678906573304" lon="10.35335754760571"><ele>1096.3333333333335</ele><time>2026-03-28T15:48:36Z</time></trkpt><trkpt lat="46.39150660754738" lon="10.353485493559422"><ele>1097.0</ele><time>2026-03-28T15:48:37Z</time></trkpt><trkpt lat="46.39133107991618" lon="10.353599938747417"><ele>1099.0</ele><time>2026-03-28T15:48:38Z</time></trkpt><trkpt lat="46.39115063836908" lon="10.353685634324501"><ele>1101.0</ele><time>2026-03-28T15:48:39Z</time></trkpt><trkpt lat="46.390958275059646" lon="10.353808888283696"><ele>1103.0</ele><time>2026-03-28T15:48:40Z</time></trkpt><trkpt lat="46.39078642409107" lon="10.353963052703794"><ele>1103.0</ele><time>2026-03-28T15:48:41Z</time></trkpt><trkpt lat="46.39060032866512" lon="10.354095910459925"><ele>1103.0</ele><time>2026-03-28T15:48:42Z</time></trkpt><trkpt lat="46.39041529138162" lon="10.354245434256512"><ele>1103.0</ele><time>2026-03-28T15:48:43Z</time></trkpt><trkpt lat="46.39022497474667" lon="10.354377987901968"><ele>1102.0</ele><time>2026-03-28T15:48:44Z</time></trkpt><trkpt lat="46.39004625980051" lon="10.354529450232494"><ele>1101.0</ele><time>2026-03-28T15:48:45Z</time></trkpt><trkpt lat="46.38984888901513" lon="10.35465434991682"><ele>1100.0</ele><time>2026-03-28T15:48:46Z</time></trkpt><trkpt lat="46.38963615193423" lon="10.354765819715805"><ele>1100.0</ele><time>2026-03-28T15:48:47Z</time></trkpt><trkpt lat="46.38940259539544" lon="10.354853104669438"><ele>1100.0</ele><time>2026-03-28T15:48:48Z</time></trkpt><trkpt lat="46.389156230963984" lon="10.354907849980648"><ele>1100.0</ele><time>2026-03-28T15:48:49Z</time></trkpt><trkpt lat="46.38891896001972" lon="10.35501645550004"><ele>1100.0</ele><time>2026-03-28T15:48:50Z</time></trkpt><trkpt lat="46.388689708586455" lon="10.355131680810436"><ele>1100.0</ele><time>2026-03-28T15:48:51Z</time></trkpt><trkpt lat="46.388463221114954" lon="10.355276583341022"><ele>1100.0</ele><time>2026-03-28T15:48:52Z</time></trkpt><trkpt lat="46.38824348173263" lon="10.355437840806907"><ele>1103.0</ele><time>2026-03-28T15:48:53Z</time></trkpt><trkpt lat="46.388023486622124" lon="10.355605313979868"><ele>1106.0</ele><time>2026-03-28T15:48:54Z</time></trkpt><trkpt lat="46.38780674580726" lon="10.355782421803175"><ele>1106.0</ele><time>2026-03-28T15:48:55Z</time></trkpt><trkpt lat="46.387589297925764" lon="10.355949660809136"><ele>1106.0</ele><time>2026-03-28T15:48:56Z</time></trkpt><trkpt lat="46.38735904011554" lon="10.356077448497384"><ele>1103.5</ele><time>2026-03-28T15:48:57Z</time></trkpt><trkpt lat="46.387134980334295" lon="10.356214419653892"><ele>1101.0</ele><time>2026-03-28T15:48:58Z</time></trkpt><trkpt lat="46.38690902706029" lon="10.356332763782484"><ele>1109.5</ele><time>2026-03-28T15:48:59Z</time></trkpt><trkpt lat="46.38667963752649" lon="10.356437281521622"><ele>1118.0</ele><time>2026-03-28T15:49:00Z</time></trkpt><trkpt lat="46.38645367086016" lon="10.356549792071709"><ele>1119.0</ele><time>2026-03-28T15:49:01Z</time></trkpt><trkpt lat="46.386221090680756" lon="10.356626631797019"><ele>1120.0</ele><time>2026-03-28T15:49:02Z</time></trkpt><trkpt lat="46.38598829218013" lon="10.356685159651105"><ele>1120.0</ele><time>2026-03-28T15:49:03Z</time></trkpt><trkpt lat="46.38575343567179" lon="10.35673262384643"><ele>1120.0</ele><time>2026-03-28T15:49:04Z</time></trkpt><trkpt lat="46.38551521271086" lon="10.356768795680102"><ele>1119.0</ele><time>2026-03-28T15:49:05Z</time></trkpt><trkpt lat="46.3852758070122" lon="10.356779815495933"><ele>1118.0</ele><time>2026-03-28T15:49:06Z</time></trkpt><trkpt lat="46.38502717593631" lon="10.356787914390043"><ele>1118.0</ele><time>2026-03-28T15:49:07Z</time></trkpt><trkpt lat="46.38477894752777" lon="10.356750453756568"><ele>1118.0</ele><time>2026-03-28T15:49:08Z</time></trkpt><trkpt lat="46.384525775875474" lon="10.356773761925453"><ele>1116.0</ele><time>2026-03-28T15:49:09Z</time></trkpt><trkpt lat="46.38427134396454" lon="10.356782958342706"><ele>1114.0</ele><time>2026-03-28T15:49:10Z</time></trkpt><trkpt lat="46.38401761252658" lon="10.356801226032458"><ele>1115.5</ele><time>2026-03-28T15:49:11Z</time></trkpt><trkpt lat="46.38375891349237" lon="10.356833288603262"><ele>1117.0</ele><time>2026-03-28T15:49:12Z</time></trkpt><trkpt lat="46.383500471971224" lon="10.356867291380276"><ele>1117.0</ele><time>2026-03-28T15:49:13Z</time></trkpt><trkpt lat="46.383243656133956" lon="10.356892600352198"><ele>1117.0</ele><time>2026-03-28T15:49:14Z</time></trkpt><trkpt lat="46.38298415429824" lon="10.35691097516396"><ele>1114.5</ele><time>2026-03-28T15:49:15Z</time></trkpt><trkpt lat="46.38272522655562" lon="10.356934979149068"><ele>1112.0</ele><time>2026-03-28T15:49:16Z</time></trkpt><trkpt lat="46.38246421488504" lon="10.356961996067541"><ele>1112.0</ele><time>2026-03-28T15:49:17Z</time></trkpt><trkpt lat="46.3822073627867" lon="10.356984784129839"><ele>1112.0</ele><time>2026-03-28T15:49:18Z</time></trkpt><trkpt lat="46.38195130916267" lon="10.357006417967932"><ele>1107.5</ele><time>2026-03-28T15:49:19Z</time></trkpt><trkpt lat="46.38169360916746" lon="10.35703156808038"><ele>1103.0</ele><time>2026-03-28T15:49:20Z</time></trkpt><trkpt lat="46.381432078864165" lon="10.357060914573022"><ele>1102.5</ele><time>2026-03-28T15:49:21Z</time></trkpt><trkpt lat="46.38117306796377" lon="10.357086358088786"><ele>1102.0</ele><time>2026-03-28T15:49:22Z</time></trkpt><trkpt lat="46.380913279870384" lon="10.357113180788462"><ele>1102.0</ele><time>2026-03-28T15:49:23Z</time></trkpt><trkpt lat="46.380657864050114" lon="10.357139798670142"><ele>1102.0</ele><time>2026-03-28T15:49:24Z</time></trkpt><trkpt lat="46.38041496956385" lon="10.357160602345637"><ele>1100.0</ele><time>2026-03-28T15:49:25Z</time></trkpt><trkpt lat="46.3801901017185" lon="10.357180684814626"><ele>1098.0</ele><time>2026-03-28T15:49:26Z</time></trkpt><trkpt lat="46.379993241587144" lon="10.357216621717487"><ele>1096.0</ele><time>2026-03-28T15:49:27Z</time></trkpt><trkpt lat="46.37981117018815" lon="10.357295316252657"><ele>1094.6666666666665</ele><time>2026-03-28T15:49:28Z</time></trkpt><trkpt lat="46.37964699838099" lon="10.357429088542926"><ele>1093.3333333333333</ele><time>2026-03-28T15:49:29Z</time></trkpt><trkpt lat="46.37949839996997" lon="10.357606190156082"><ele>1092.0</ele><time>2026-03-28T15:49:30Z</time></trkpt><trkpt lat="46.37937069292661" lon="10.357829843804247"><ele>1095.3333333333333</ele><time>2026-03-28T15:49:31Z</time></trkpt><trkpt lat="46.37924227163188" lon="10.358070068458279"><ele>1098.6666666666665</ele><time>2026-03-28T15:49:32Z</time></trkpt><trkpt lat="46.37908610062364" lon="10.358264739938669"><ele>1102.0</ele><time>2026-03-28T15:49:33Z</time></trkpt><trkpt lat="46.378919565287966" lon="10.358424004476365"><ele>1096.3333333333333</ele><time>2026-03-28T15:49:34Z</time></trkpt><trkpt lat="46.37873749863701" lon="10.358538864825546"><ele>1090.6666666666667</ele><time>2026-03-28T15:49:35Z</time></trkpt><trkpt lat="46.37854389886107" lon="10.358660174844044"><ele>1085.0</ele><time>2026-03-28T15:49:36Z</time></trkpt><trkpt lat="46.37835433842287" lon="10.358780002421328"><ele>1087.0</ele><time>2026-03-28T15:49:37Z</time></trkpt><trkpt lat="46.37816750697512" lon="10.358889251960068"><ele>1089.0</ele><time>2026-03-28T15:49:38Z</time></trkpt><trkpt lat="46.377995882417274" lon="10.358956837352371"><ele>1091.0</ele><time>2026-03-28T15:49:39Z</time></trkpt><trkpt lat="46.377824197513135" lon="10.358990014707139"><ele>1091.0</ele><time>2026-03-28T15:49:40Z</time></trkpt><trkpt lat="46.37762449862567" lon="10.359014495516943"><ele>1091.0</ele><time>2026-03-28T15:49:41Z</time></trkpt><trkpt lat="46.37740959226746" lon="10.359047988297895"><ele>1091.0</ele><time>2026-03-28T15:49:42Z</time></trkpt><trkpt lat="46.377189146343056" lon="10.359076176736114"><ele>1086.0</ele><time>2026-03-28T15:49:43Z</time></trkpt><trkpt lat="46.37696553421934" lon="10.359123138750597"><ele>1081.0</ele><time>2026-03-28T15:49:44Z</time></trkpt><trkpt lat="46.37673957518771" lon="10.3591796782815"><ele>1081.0</ele><time>2026-03-28T15:49:45Z</time></trkpt><trkpt lat="46.376517211505124" lon="10.359243267897421"><ele>1081.0</ele><time>2026-03-28T15:49:46Z</time></trkpt><trkpt lat="46.376294459382926" lon="10.359310256944362"><ele>1074.5</ele><time>2026-03-28T15:49:47Z</time></trkpt><trkpt lat="46.37607469213171" lon="10.359373757111138"><ele>1068.0</ele><time>2026-03-28T15:49:48Z</time></trkpt><trkpt lat="46.37584992563095" lon="10.359424083677672"><ele>1068.0</ele><time>2026-03-28T15:49:49Z</time></trkpt><trkpt lat="46.375625867113165" lon="10.359457383865252"><ele>1068.0</ele><time>2026-03-28T15:49:50Z</time></trkpt><trkpt lat="46.37539990265036" lon="10.359471134234962"><ele>1063.5</ele><time>2026-03-28T15:49:51Z</time></trkpt><trkpt lat="46.37516994673947" lon="10.359468361469846"><ele>1059.0</ele><time>2026-03-28T15:49:52Z</time></trkpt><trkpt lat="46.37493481105809" lon="10.35944072475574"><ele>1059.0</ele><time>2026-03-28T15:49:53Z</time></trkpt><trkpt lat="46.37469566579967" lon="10.359403104508498"><ele>1059.0</ele><time>2026-03-28T15:49:54Z</time></trkpt><trkpt lat="46.374456188744915" lon="10.359369877414087"><ele>1055.0</ele><time>2026-03-28T15:49:55Z</time></trkpt><trkpt lat="46.37421273922429" lon="10.359342423651412"><ele>1051.0</ele><time>2026-03-28T15:49:56Z</time></trkpt><trkpt lat="46.373976050541756" lon="10.359307970302908"><ele>1043.5</ele><time>2026-03-28T15:49:57Z</time></trkpt><trkpt lat="46.3737380626453" lon="10.359275103179051"><ele>1036.0</ele><time>2026-03-28T15:49:58Z</time></trkpt><trkpt lat="46.37351185239891" lon="10.35925353565206"><ele>1036.0</ele><time>2026-03-28T15:49:59Z</time></trkpt><trkpt lat="46.3732980706092" lon="10.359245248130225"><ele>1036.0</ele><time>2026-03-28T15:50:00Z</time></trkpt><trkpt lat="46.37310570677295" lon="10.359243995288699"><ele>1036.0</ele><time>2026-03-28T15:50:01Z</time></trkpt><trkpt lat="46.37292677190386" lon="10.3592288631286"><ele>1033.3333333333333</ele><time>2026-03-28T15:50:02Z</time></trkpt><trkpt lat="46.37276673240008" lon="10.359155342717132"><ele>1030.6666666666667</ele><time>2026-03-28T15:50:03Z</time></trkpt><trkpt lat="46.372616971177614" lon="10.359058549905043"><ele>1028.0</ele><time>2026-03-28T15:50:04Z</time></trkpt><trkpt lat="46.37246466383696" lon="10.358960259658808"><ele>1023.0</ele><time>2026-03-28T15:50:05Z</time></trkpt><trkpt lat="46.3723423764058" lon="10.358801324857861"><ele>1018.0</ele><time>2026-03-28T15:50:06Z</time></trkpt><trkpt lat="46.372251538081045" lon="10.358607097731637"><ele>1013.0</ele><time>2026-03-28T15:50:07Z</time></trkpt><trkpt lat="46.37222945989544" lon="10.358366999438067"><ele>1013.0</ele><time>2026-03-28T15:50:08Z</time></trkpt><trkpt lat="46.37216592448427" lon="10.358113889402606"><ele>1013.0</ele><time>2026-03-28T15:50:09Z</time></trkpt><trkpt lat="46.37212328828452" lon="10.357857368785984"><ele>1013.0</ele><time>2026-03-28T15:50:10Z</time></trkpt><trkpt lat="46.37204878124766" lon="10.357632219322355"><ele>1013.0</ele><time>2026-03-28T15:50:11Z</time></trkpt><trkpt lat="46.371943362363396" lon="10.357452855492937"><ele>1013.0</ele><time>2026-03-28T15:50:12Z</time></trkpt><trkpt lat="46.37181129272133" lon="10.35734514500291"><ele>1013.0</ele><time>2026-03-28T15:50:13Z</time></trkpt><trkpt lat="46.371648265687675" lon="10.357298774543242"><ele>1013.0</ele><time>2026-03-28T15:50:14Z</time></trkpt><trkpt lat="46.371471014879965" lon="10.357301245395433"><ele>1013.0</ele><time>2026-03-28T15:50:15Z</time></trkpt><trkpt lat="46.371285408239494" lon="10.357339132580888"><ele>1013.0</ele><time>2026-03-28T15:50:16Z</time></trkpt><trkpt lat="46.37110415500907" lon="10.357323598043944"><ele>1010.0</ele><time>2026-03-28T15:50:17Z</time></trkpt><trkpt lat="46.370936033400746" lon="10.357271105745486"><ele>1007.0</ele><time>2026-03-28T15:50:18Z</time></trkpt><trkpt lat="46.370769055826806" lon="10.357162061702905"><ele>1004.0</ele><time>2026-03-28T15:50:19Z</time></trkpt><trkpt lat="46.37061072815293" lon="10.35699532909958"><ele>1004.0</ele><time>2026-03-28T15:50:20Z</time></trkpt><trkpt lat="46.3704580977225" lon="10.356806340254813"><ele>1004.0</ele><time>2026-03-28T15:50:21Z</time></trkpt><trkpt lat="46.37030497052391" lon="10.356642970936404"><ele>1004.0</ele><time>2026-03-28T15:50:22Z</time></trkpt><trkpt lat="46.37015088686113" lon="10.356529157126781"><ele>1004.0</ele><time>2026-03-28T15:50:23Z</time></trkpt><trkpt lat="46.36995240648325" lon="10.356523833843587"><ele>1004.0</ele><time>2026-03-28T15:50:24Z</time></trkpt><trkpt lat="46.36975064253911" lon="10.356550547277658"><ele>1004.0</ele><time>2026-03-28T15:50:25Z</time></trkpt><trkpt lat="46.36954443533055" lon="10.356597725775167"><ele>1002.3333333333334</ele><time>2026-03-28T15:50:26Z</time></trkpt><trkpt lat="46.369329279191724" lon="10.356602239574496"><ele>1000.6666666666667</ele><time>2026-03-28T15:50:27Z</time></trkpt><trkpt lat="46.36911012242693" lon="10.356617681969533"><ele>999.0</ele><time>2026-03-28T15:50:28Z</time></trkpt><trkpt lat="46.36888322001587" lon="10.356599170817102"><ele>994.5</ele><time>2026-03-28T15:50:29Z</time></trkpt><trkpt lat="46.368648362737794" lon="10.356577184427273"><ele>990.0</ele><time>2026-03-28T15:50:30Z</time></trkpt><trkpt lat="46.368413843972036" lon="10.35655378165304"><ele>990.0</ele><time>2026-03-28T15:50:31Z</time></trkpt><trkpt lat="46.36818231230439" lon="10.356525742520056"><ele>990.0</ele><time>2026-03-28T15:50:32Z</time></trkpt><trkpt lat="46.36796084910167" lon="10.356501729650034"><ele>987.3333333333333</ele><time>2026-03-28T15:50:33Z</time></trkpt><trkpt lat="46.367749545462324" lon="10.356486867772933"><ele>984.6666666666666</ele><time>2026-03-28T15:50:34Z</time></trkpt><trkpt lat="46.36754758688816" lon="10.35646741889855"><ele>982.0</ele><time>2026-03-28T15:50:35Z</time></trkpt><trkpt lat="46.367362274392406" lon="10.356385393969681"><ele>980.6666666666666</ele><time>2026-03-28T15:50:36Z</time></trkpt><trkpt lat="46.367198546577484" lon="10.35625231743981"><ele>979.3333333333333</ele><time>2026-03-28T15:50:37Z</time></trkpt><trkpt lat="46.36701699779244" lon="10.356088280178875"><ele>978.0</ele><time>2026-03-28T15:50:38Z</time></trkpt><trkpt lat="46.36681670038035" lon="10.355932437567311"><ele>978.0</ele><time>2026-03-28T15:50:39Z</time></trkpt><trkpt lat="46.36661627541788" lon="10.355762778241433"><ele>978.0</ele><time>2026-03-28T15:50:40Z</time></trkpt><trkpt lat="46.36639819954281" lon="10.355604636034942"><ele>976.5</ele><time>2026-03-28T15:50:41Z</time></trkpt><trkpt lat="46.36617281075742" lon="10.355455011821968"><ele>975.0</ele><time>2026-03-28T15:50:42Z</time></trkpt><trkpt lat="46.365939185057" lon="10.355312391392175"><ele>975.0</ele><time>2026-03-28T15:50:43Z</time></trkpt><trkpt lat="46.36569329479597" lon="10.35518071859717"><ele>975.0</ele><time>2026-03-28T15:50:44Z</time></trkpt><trkpt lat="46.36543927650457" lon="10.355054272455499"><ele>974.0</ele><time>2026-03-28T15:50:45Z</time></trkpt><trkpt lat="46.36518317883952" lon="10.354933945843099"><ele>973.0</ele><time>2026-03-28T15:50:46Z</time></trkpt><trkpt lat="46.36492469626508" lon="10.354827501474405"><ele>970.5</ele><time>2026-03-28T15:50:47Z</time></trkpt><trkpt lat="46.364660604238665" lon="10.354737731076808"><ele>968.0</ele><time>2026-03-28T15:50:48Z</time></trkpt><trkpt lat="46.36438516925037" lon="10.354666461730126"><ele>970.0</ele><time>2026-03-28T15:50:49Z</time></trkpt><trkpt lat="46.36410829525526" lon="10.354627506015525"><ele>972.0</ele><time>2026-03-28T15:50:50Z</time></trkpt><trkpt lat="46.36382361459323" lon="10.354618563154903"><ele>972.0</ele><time>2026-03-28T15:50:51Z</time></trkpt><trkpt lat="46.363532576421456" lon="10.35462930614143"><ele>972.0</ele><time>2026-03-28T15:50:52Z</time></trkpt><trkpt lat="46.36323243749491" lon="10.354641962189131"><ele>971.5</ele><time>2026-03-28T15:50:53Z</time></trkpt><trkpt lat="46.36292551140111" lon="10.354657267452234"><ele>971.0</ele><time>2026-03-28T15:50:54Z</time></trkpt><trkpt lat="46.362619979835195" lon="10.354673511568652"><ele>971.0</ele><time>2026-03-28T15:50:55Z</time></trkpt><trkpt lat="46.362315072108345" lon="10.354680838193662"><ele>971.0</ele><time>2026-03-28T15:50:56Z</time></trkpt><trkpt lat="46.362014398231985" lon="10.35468942341344"><ele>971.5</ele><time>2026-03-28T15:50:57Z</time></trkpt><trkpt lat="46.36172232140399" lon="10.354704109222181"><ele>972.0</ele><time>2026-03-28T15:50:58Z</time></trkpt><trkpt lat="46.36144167040366" lon="10.354722373060952"><ele>969.0</ele><time>2026-03-28T15:50:59Z</time></trkpt><trkpt lat="46.361175411266395" lon="10.354736333913586"><ele>966.0</ele><time>2026-03-28T15:51:00Z</time></trkpt><trkpt lat="46.36090468991173" lon="10.35476818012802"><ele>966.0</ele><time>2026-03-28T15:51:01Z</time></trkpt><trkpt lat="46.3606437083377" lon="10.354811962037823"><ele>966.0</ele><time>2026-03-28T15:51:02Z</time></trkpt><trkpt lat="46.3604058220945" lon="10.354872933877017"><ele>968.5</ele><time>2026-03-28T15:51:03Z</time></trkpt><trkpt lat="46.3601841294015" lon="10.354972031345804"><ele>971.0</ele><time>2026-03-28T15:51:04Z</time></trkpt><trkpt lat="46.359988037742255" lon="10.355116721563773"><ele>971.0</ele><time>2026-03-28T15:51:05Z</time></trkpt><trkpt lat="46.35981799248536" lon="10.355289084412675"><ele>971.0</ele><time>2026-03-28T15:51:06Z</time></trkpt><trkpt lat="46.35964406938437" lon="10.355415583898646"><ele>971.0</ele><time>2026-03-28T15:51:07Z</time></trkpt><trkpt lat="46.35947091660869" lon="10.355497837380828"><ele>970.25</ele><time>2026-03-28T15:51:08Z</time></trkpt><trkpt lat="46.35929912886902" lon="10.355548442865565"><ele>969.5</ele><time>2026-03-28T15:51:09Z</time></trkpt><trkpt lat="46.359174954286175" lon="10.355553965105038"><ele>968.75</ele><time>2026-03-28T15:51:10Z</time></trkpt><trkpt lat="46.3590623148328" lon="10.355528578995125"><ele>968.0</ele><time>2026-03-28T15:51:11Z</time></trkpt><trkpt lat="46.35885157564788" lon="10.355389761715099"><ele>968.0</ele><time>2026-03-28T15:51:12Z</time></trkpt><trkpt lat="46.35875585821672" lon="10.355268794456116"><ele>968.0</ele><time>2026-03-28T15:51:13Z</time></trkpt><trkpt lat="46.3586645106245" lon="10.35511151517768"><ele>968.0</ele><time>2026-03-28T15:51:14Z</time></trkpt><trkpt lat="46.35857495183908" lon="10.354917762357855"><ele>968.0</ele><time>2026-03-28T15:51:15Z</time></trkpt><trkpt lat="46.358473899716024" lon="10.354703634783403"><ele>971.3333333333334</ele><time>2026-03-28T15:51:16Z</time></trkpt><trkpt lat="46.358362494790505" lon="10.354505555065556"><ele>974.6666666666667</ele><time>2026-03-28T15:51:17Z</time></trkpt><trkpt lat="46.358216674835845" lon="10.35436599819955"><ele>978.0</ele><time>2026-03-28T15:51:18Z</time></trkpt><trkpt lat="46.35807337085449" lon="10.354230949839314"><ele>975.0</ele><time>2026-03-28T15:51:19Z</time></trkpt><trkpt lat="46.35791983041056" lon="10.354140392621304"><ele>972.0</ele><time>2026-03-28T15:51:20Z</time></trkpt><trkpt lat="46.35774423814308" lon="10.354095432927622"><ele>969.0</ele><time>2026-03-28T15:51:21Z</time></trkpt><trkpt lat="46.357556139478696" lon="10.354091289069162"><ele>969.0</ele><time>2026-03-28T15:51:22Z</time></trkpt><trkpt lat="46.35734891774528" lon="10.35408872141416"><ele>969.0</ele><time>2026-03-28T15:51:23Z</time></trkpt><trkpt lat="46.357145181726345" lon="10.354100139926219"><ele>969.0</ele><time>2026-03-28T15:51:24Z</time></trkpt><trkpt lat="46.35694179271563" lon="10.354091151939876"><ele>968.3333333333333</ele><time>2026-03-28T15:51:25Z</time></trkpt><trkpt lat="46.35676253369929" lon="10.354074349123984"><ele>967.6666666666666</ele><time>2026-03-28T15:51:26Z</time></trkpt><trkpt lat="46.35660444423478" lon="10.35408108659438"><ele>967.0</ele><time>2026-03-28T15:51:27Z</time></trkpt><trkpt lat="46.356446546044" lon="10.354138767199839"><ele>972.0</ele><time>2026-03-28T15:51:28Z</time></trkpt><trkpt lat="46.356298550026516" lon="10.354248117668083"><ele>977.0</ele><time>2026-03-28T15:51:29Z</time></trkpt><trkpt lat="46.35617120299083" lon="10.354400942336959"><ele>982.0</ele><time>2026-03-28T15:51:30Z</time></trkpt><trkpt lat="46.35606157425161" lon="10.354616537650877"><ele>976.6666666666666</ele><time>2026-03-28T15:51:31Z</time></trkpt><trkpt lat="46.355972037824365" lon="10.35485788789044"><ele>971.3333333333333</ele><time>2026-03-28T15:51:32Z</time></trkpt><trkpt lat="46.35589346486169" lon="10.35510806500037"><ele>966.0</ele><time>2026-03-28T15:51:33Z</time></trkpt><trkpt lat="46.35580416173969" lon="10.355372639454416"><ele>966.0</ele><time>2026-03-28T15:51:34Z</time></trkpt><trkpt lat="46.355699973724114" lon="10.355576253131582"><ele>966.0</ele><time>2026-03-28T15:51:35Z</time></trkpt><trkpt lat="46.35558155525018" lon="10.355729003484939"><ele>966.0</ele><time>2026-03-28T15:51:36Z</time></trkpt><trkpt lat="46.35543697581854" lon="10.355869493093698"><ele>966.0</ele><time>2026-03-28T15:51:37Z</time></trkpt><trkpt lat="46.35528027412135" lon="10.355995023690527"><ele>966.0</ele><time>2026-03-28T15:51:38Z</time></trkpt><trkpt lat="46.35512282933344" lon="10.356116362422556"><ele>966.0</ele><time>2026-03-28T15:51:39Z</time></trkpt><trkpt lat="46.35494480749534" lon="10.356225173142134"><ele>966.0</ele><time>2026-03-28T15:51:40Z</time></trkpt><trkpt lat="46.354765641278426" lon="10.3563271828736"><ele>966.0</ele><time>2026-03-28T15:51:41Z</time></trkpt><trkpt lat="46.35457767317606" lon="10.35643318698625"><ele>966.0</ele><time>2026-03-28T15:51:42Z</time></trkpt><trkpt lat="46.35438795909517" lon="10.356535520819772"><ele>962.0</ele><time>2026-03-28T15:51:43Z</time></trkpt><trkpt lat="46.3542443020631" lon="10.356585836464701"><ele>958.0</ele><time>2026-03-28T15:51:44Z</time></trkpt><trkpt lat="46.35407067472437" lon="10.356622282215538"><ele>954.0</ele><time>2026-03-28T15:51:45Z</time></trkpt><trkpt lat="46.353902287754906" lon="10.356618903615576"><ele>953.3333333333333</ele><time>2026-03-28T15:51:46Z</time></trkpt><trkpt lat="46.353735377606945" lon="10.356583554682892"><ele>952.6666666666666</ele><time>2026-03-28T15:51:47Z</time></trkpt><trkpt lat="46.35358183280702" lon="10.356497898174604"><ele>952.0</ele><time>2026-03-28T15:51:48Z</time></trkpt><trkpt lat="46.35342745853136" lon="10.356389676921207"><ele>953.3333333333333</ele><time>2026-03-28T15:51:49Z</time></trkpt><trkpt lat="46.35325022151933" lon="10.356260823440142"><ele>954.6666666666667</ele><time>2026-03-28T15:51:50Z</time></trkpt><trkpt lat="46.353076011449474" lon="10.35612857683543"><ele>956.0</ele><time>2026-03-28T15:51:51Z</time></trkpt><trkpt lat="46.35289518231725" lon="10.355990800676418"><ele>956.0</ele><time>2026-03-28T15:51:52Z</time></trkpt><trkpt lat="46.352713820866384" lon="10.355859351473729"><ele>956.0</ele><time>2026-03-28T15:51:53Z</time></trkpt><trkpt lat="46.3525415181298" lon="10.355735976957792"><ele>956.0</ele><time>2026-03-28T15:51:54Z</time></trkpt><trkpt lat="46.3523782510897" lon="10.355638371864979"><ele>958.3333333333334</ele><time>2026-03-28T15:51:55Z</time></trkpt><trkpt lat="46.35222286939552" lon="10.35552450272643"><ele>960.6666666666667</ele><time>2026-03-28T15:51:56Z</time></trkpt><trkpt lat="46.35208333080588" lon="10.355432132501939"><ele>963.0</ele><time>2026-03-28T15:51:57Z</time></trkpt><trkpt lat="46.35194903708158" lon="10.35535975487125"><ele>963.0</ele><time>2026-03-28T15:51:58Z</time></trkpt><trkpt lat="46.3518111036577" lon="10.35531220864822"><ele>963.0</ele><time>2026-03-28T15:51:59Z</time></trkpt><trkpt lat="46.35168099297898" lon="10.355288424466591"><ele>963.0</ele><time>2026-03-28T15:52:00Z</time></trkpt><trkpt lat="46.351578446623165" lon="10.355201838160157"><ele>963.0</ele><time>2026-03-28T15:52:01Z</time></trkpt><trkpt lat="46.35144799913392" lon="10.355096977473952"><ele>958.3333333333333</ele><time>2026-03-28T15:52:02Z</time></trkpt><trkpt lat="46.35130650226319" lon="10.355009760026011"><ele>953.6666666666666</ele><time>2026-03-28T15:52:03Z</time></trkpt><trkpt lat="46.351173043563854" lon="10.35488502954549"><ele>949.0</ele><time>2026-03-28T15:52:04Z</time></trkpt><trkpt lat="46.35103997771883" lon="10.354765192435098"><ele>951.0</ele><time>2026-03-28T15:52:05Z</time></trkpt><trkpt lat="46.35091547786944" lon="10.354634262493294"><ele>953.0</ele><time>2026-03-28T15:52:06Z</time></trkpt><trkpt lat="46.35080132175972" lon="10.354498365208853"><ele>955.0</ele><time>2026-03-28T15:52:07Z</time></trkpt><trkpt lat="46.35069093086257" lon="10.354375918597329"><ele>957.0</ele><time>2026-03-28T15:52:08Z</time></trkpt><trkpt lat="46.35059195481581" lon="10.354276741305704"><ele>955.6</ele><time>2026-03-28T15:52:09Z</time></trkpt><trkpt lat="46.35050944072317" lon="10.354191812463558"><ele>954.2</ele><time>2026-03-28T15:52:10Z</time></trkpt><trkpt lat="46.35041852904786" lon="10.354164705171172"><ele>952.8</ele><time>2026-03-28T15:52:11Z</time></trkpt><trkpt lat="46.35032861103505" lon="10.354197981077826"><ele>951.4</ele><time>2026-03-28T15:52:12Z</time></trkpt><trkpt lat="46.350252247210896" lon="10.35429956262443"><ele>950.0</ele><time>2026-03-28T15:52:13Z</time></trkpt><trkpt lat="46.35019414157825" lon="10.354432457017444"><ele>950.0</ele><time>2026-03-28T15:52:14Z</time></trkpt><trkpt lat="46.350125384843864" lon="10.354592666032927"><ele>950.0</ele><time>2026-03-28T15:52:15Z</time></trkpt><trkpt lat="46.3500433820817" lon="10.354715913983608"><ele>950.0</ele><time>2026-03-28T15:52:16Z</time></trkpt><trkpt lat="46.349994428894554" lon="10.354831857813128"><ele>950.0</ele><time>2026-03-28T15:52:17Z</time></trkpt><trkpt lat="46.349933279121124" lon="10.354866825372753"><ele>950.0</ele><time>2026-03-28T15:52:18Z</time></trkpt><trkpt lat="46.34985086655593" lon="10.354862000429033"><ele>950.2</ele><time>2026-03-28T15:52:19Z</time></trkpt><trkpt lat="46.349759540826405" lon="10.354827741312555"><ele>950.4</ele><time>2026-03-28T15:52:20Z</time></trkpt><trkpt lat="46.34968876243824" lon="10.354753555172747"><ele>950.5999999999999</ele><time>2026-03-28T15:52:21Z</time></trkpt><trkpt lat="46.34962634454275" lon="10.354677789691713"><ele>950.8</ele><time>2026-03-28T15:52:22Z</time></trkpt><trkpt lat="46.34955515471483" lon="10.354606340039187"><ele>951.0</ele><time>2026-03-28T15:52:23Z</time></trkpt><trkpt lat="46.34947378074511" lon="10.354515314615114"><ele>951.0</ele><time>2026-03-28T15:52:24Z</time></trkpt><trkpt lat="46.34939217437153" lon="10.354427858844586"><ele>951.0</ele><time>2026-03-28T15:52:25Z</time></trkpt><trkpt lat="46.34931995499544" lon="10.354379473337522"><ele>951.0</ele><time>2026-03-28T15:52:26Z</time></trkpt><trkpt lat="46.3492675670648" lon="10.354324749467818"><ele>951.0</ele><time>2026-03-28T15:52:32Z</time></trkpt><trkpt lat="46.34931455909401" lon="10.354404689765277"><ele>951.0</ele><time>2026-03-28T15:52:36Z</time></trkpt><trkpt lat="46.34937989138739" lon="10.354520876291694"><ele>951.0</ele><time>2026-03-28T15:52:37Z</time></trkpt><trkpt lat="46.34946490671002" lon="10.354586678129547"><ele>951.0</ele><time>2026-03-28T15:52:38Z</time></trkpt><trkpt lat="46.34951697704411" lon="10.354667462005157"><ele>950.9999999999999</ele><time>2026-03-28T15:52:39Z</time></trkpt><trkpt lat="46.34954322002627" lon="10.354817221306542"><ele>950.9999999999999</ele><time>2026-03-28T15:52:41Z</time></trkpt><trkpt lat="46.34947678210628" lon="10.354969148468829"><ele>951.0</ele><time>2026-03-28T15:52:43Z</time></trkpt><trkpt lat="46.349410847838854" lon="10.355018481949978"><ele>951.0</ele><time>2026-03-28T15:52:44Z</time></trkpt><trkpt lat="46.349331286966255" lon="10.355008572375656"><ele>951.0</ele><time>2026-03-28T15:52:45Z</time></trkpt><trkpt lat="46.34926491012876" lon="10.354954669916122"><ele>950.9999999999999</ele><time>2026-03-28T15:52:46Z</time></trkpt><trkpt lat="46.349214498364056" lon="10.35486310989809"><ele>950.9999999999999</ele><time>2026-03-28T15:52:47Z</time></trkpt><trkpt lat="46.34918942648611" lon="10.354733883773493"><ele>951.0</ele><time>2026-03-28T15:52:48Z</time></trkpt><trkpt lat="46.34918926916126" lon="10.354587971372096"><ele>951.0</ele><time>2026-03-28T15:52:49Z</time></trkpt><trkpt lat="46.349175544801085" lon="10.354437845631209"><ele>951.0</ele><time>2026-03-28T15:52:50Z</time></trkpt><trkpt lat="46.34913000796583" lon="10.354318088213255"><ele>951.0</ele><time>2026-03-28T15:52:51Z</time></trkpt><trkpt lat="46.349045531013" lon="10.354213911486225"><ele>951.0</ele><time>2026-03-28T15:52:52Z</time></trkpt><trkpt lat="46.3489324622988" lon="10.3541249075317"><ele>951.0</ele><time>2026-03-28T15:52:53Z</time></trkpt><trkpt lat="46.34880135107882" lon="10.354036081395538"><ele>951.0</ele><time>2026-03-28T15:52:54Z</time></trkpt><trkpt lat="46.348654145189386" lon="10.353937961683778"><ele>951.0</ele><time>2026-03-28T15:52:55Z</time></trkpt><trkpt lat="46.34849400125547" lon="10.353830760868282"><ele>951.0</ele><time>2026-03-28T15:52:56Z</time></trkpt><trkpt lat="46.34832908931501" lon="10.353736181843198"><ele>951.3333333333333</ele><time>2026-03-28T15:52:57Z</time></trkpt><trkpt lat="46.348209076034415" lon="10.353452742204635"><ele>951.6666666666666</ele><time>2026-03-28T15:52:58Z</time></trkpt><trkpt lat="46.348048199194636" lon="10.353390098015952"><ele>952.0</ele><time>2026-03-28T15:52:59Z</time></trkpt><trkpt lat="46.34788876268165" lon="10.35331445182289"><ele>952.0</ele><time>2026-03-28T15:53:00Z</time></trkpt><trkpt lat="46.34772111334002" lon="10.353220157991842"><ele>952.0</ele><time>2026-03-28T15:53:01Z</time></trkpt><trkpt lat="46.3475729375531" lon="10.353121391438833"><ele>952.0</ele><time>2026-03-28T15:53:02Z</time></trkpt><trkpt lat="46.34741050594181" lon="10.352997421204458"><ele>951.0</ele><time>2026-03-28T15:53:03Z</time></trkpt><trkpt lat="46.34725294929992" lon="10.352874172714323"><ele>950.0</ele><time>2026-03-28T15:53:04Z</time></trkpt><trkpt lat="46.34710039025905" lon="10.35275480314418"><ele>949.0</ele><time>2026-03-28T15:53:05Z</time></trkpt><trkpt lat="46.3469592106599" lon="10.352642312478748"><ele>949.0</ele><time>2026-03-28T15:53:06Z</time></trkpt><trkpt lat="46.346827094481135" lon="10.352537485428574"><ele>949.0</ele><time>2026-03-28T15:53:07Z</time></trkpt><trkpt lat="46.34663969472993" lon="10.35257818034826"><ele>949.0</ele><time>2026-03-28T15:53:08Z</time></trkpt><trkpt lat="46.34651465550225" lon="10.352467926553677"><ele>948.75</ele><time>2026-03-28T15:53:09Z</time></trkpt><trkpt lat="46.34637658362726" lon="10.35237487759048"><ele>948.5</ele><time>2026-03-28T15:53:10Z</time></trkpt><trkpt lat="46.346258943522756" lon="10.352295661119644"><ele>948.25</ele><time>2026-03-28T15:53:11Z</time></trkpt><trkpt lat="46.346176192022114" lon="10.352213950412375"><ele>948.0</ele><time>2026-03-28T15:53:12Z</time></trkpt><trkpt lat="46.3461094472857" lon="10.352144740462567"><ele>946.8</ele><time>2026-03-28T15:53:13Z</time></trkpt><trkpt lat="46.34607130598108" lon="10.352055803302797"><ele>945.5999999999999</ele><time>2026-03-28T15:53:14Z</time></trkpt><trkpt lat="46.34604222795501" lon="10.35195359754727"><ele>944.4000000000001</ele><time>2026-03-28T15:53:15Z</time></trkpt><trkpt lat="46.34600821351624" lon="10.351842700464175"><ele>943.2</ele><time>2026-03-28T15:53:16Z</time></trkpt><trkpt lat="46.34597110963703" lon="10.351683784825665"><ele>942.0</ele><time>2026-03-28T15:53:17Z</time></trkpt><trkpt lat="46.34595806942899" lon="10.351450336761195"><ele>942.0</ele><time>2026-03-28T15:53:18Z</time></trkpt><trkpt lat="46.34586093434223" lon="10.351422400893627"><ele>942.0</ele><time>2026-03-28T15:53:19Z</time></trkpt><trkpt lat="46.345763223796574" lon="10.351333492450532"><ele>942.0</ele><time>2026-03-28T15:53:20Z</time></trkpt><trkpt lat="46.34563684304218" lon="10.351265724303046"><ele>942.0</ele><time>2026-03-28T15:53:21Z</time></trkpt><trkpt lat="46.345486725862095" lon="10.351201815016424"><ele>941.0</ele><time>2026-03-28T15:53:22Z</time></trkpt><trkpt lat="46.345338991584285" lon="10.351110334634193"><ele>940.0</ele><time>2026-03-28T15:53:23Z</time></trkpt><trkpt lat="46.34519646366728" lon="10.351008410150827"><ele>939.0</ele><time>2026-03-28T15:53:24Z</time></trkpt><trkpt lat="46.345062789145494" lon="10.350916201513227"><ele>939.0</ele><time>2026-03-28T15:53:25Z</time></trkpt><trkpt lat="46.34493565155603" lon="10.350870850129716"><ele>939.0</ele><time>2026-03-28T15:53:26Z</time></trkpt><trkpt lat="46.34480261371869" lon="10.350892100465147"><ele>939.0</ele><time>2026-03-28T15:53:27Z</time></trkpt><trkpt lat="46.344677843151366" lon="10.350934844063788"><ele>939.0</ele><time>2026-03-28T15:53:28Z</time></trkpt><trkpt lat="46.3445481395431" lon="10.350930290120623"><ele>938.75</ele><time>2026-03-28T15:53:29Z</time></trkpt><trkpt lat="46.34449045797069" lon="10.350879232294997"><ele>938.5</ele><time>2026-03-28T15:53:30Z</time></trkpt><trkpt lat="46.344379840213826" lon="10.350799359980106"><ele>938.25</ele><time>2026-03-28T15:53:31Z</time></trkpt><trkpt lat="46.34425149216583" lon="10.350703726407863"><ele>938.0</ele><time>2026-03-28T15:53:32Z</time></trkpt><trkpt lat="46.34410221951839" lon="10.3506371733788"><ele>938.0</ele><time>2026-03-28T15:53:33Z</time></trkpt><trkpt lat="46.34394151604655" lon="10.35058588490875"><ele>938.0</ele><time>2026-03-28T15:53:34Z</time></trkpt><trkpt lat="46.343759034660074" lon="10.350577950540732"><ele>938.0</ele><time>2026-03-28T15:53:35Z</time></trkpt><trkpt lat="46.343563620409114" lon="10.350590937044164"><ele>937.3333333333334</ele><time>2026-03-28T15:53:36Z</time></trkpt><trkpt lat="46.343356462925094" lon="10.350615958337372"><ele>936.6666666666667</ele><time>2026-03-28T15:53:37Z</time></trkpt><trkpt lat="46.343141614627484" lon="10.350650859426752"><ele>936.0</ele><time>2026-03-28T15:53:38Z</time></trkpt><trkpt lat="46.34291843049236" lon="10.350699638182174"><ele>934.0</ele><time>2026-03-28T15:53:39Z</time></trkpt><trkpt lat="46.342686104576366" lon="10.350747264977798"><ele>932.0</ele><time>2026-03-28T15:53:40Z</time></trkpt><trkpt lat="46.34245056393451" lon="10.350792956275898"><ele>931.0</ele><time>2026-03-28T15:53:41Z</time></trkpt><trkpt lat="46.342208568701224" lon="10.350847184346847"><ele>930.0</ele><time>2026-03-28T15:53:42Z</time></trkpt><trkpt lat="46.34196923521029" lon="10.350893066173246"><ele>930.0</ele><time>2026-03-28T15:53:43Z</time></trkpt><trkpt lat="46.34173531759377" lon="10.350928116699233"><ele>930.0</ele><time>2026-03-28T15:53:44Z</time></trkpt><trkpt lat="46.341509912070315" lon="10.350908929765218"><ele>931.5</ele><time>2026-03-28T15:53:45Z</time></trkpt><trkpt lat="46.34128989147732" lon="10.350862216836472"><ele>933.0</ele><time>2026-03-28T15:53:46Z</time></trkpt><trkpt lat="46.34106094835409" lon="10.350792201493666"><ele>933.0</ele><time>2026-03-28T15:53:47Z</time></trkpt><trkpt lat="46.34082568697699" lon="10.350734092153662"><ele>933.0</ele><time>2026-03-28T15:53:48Z</time></trkpt><trkpt lat="46.34058655911838" lon="10.350646508350069"><ele>934.5</ele><time>2026-03-28T15:53:49Z</time></trkpt><trkpt lat="46.34034617338429" lon="10.350557689122864"><ele>936.0</ele><time>2026-03-28T15:53:50Z</time></trkpt><trkpt lat="46.340101045089554" lon="10.35046772331107"><ele>933.0</ele><time>2026-03-28T15:53:51Z</time></trkpt><trkpt lat="46.339851855089854" lon="10.35038347703863"><ele>930.0</ele><time>2026-03-28T15:53:52Z</time></trkpt><trkpt lat="46.33959725657241" lon="10.35030365932558"><ele>930.0</ele><time>2026-03-28T15:53:53Z</time></trkpt><trkpt lat="46.33934695822615" lon="10.350205493451954"><ele>930.0</ele><time>2026-03-28T15:53:54Z</time></trkpt><trkpt lat="46.33909664078001" lon="10.350105985911442"><ele>931.0</ele><time>2026-03-28T15:53:55Z</time></trkpt><trkpt lat="46.338851312058274" lon="10.350024567157739"><ele>932.0</ele><time>2026-03-28T15:53:56Z</time></trkpt><trkpt lat="46.33861485698407" lon="10.349952529320513"><ele>932.0</ele><time>2026-03-28T15:53:57Z</time></trkpt><trkpt lat="46.33838900984213" lon="10.349887984527586"><ele>932.0</ele><time>2026-03-28T15:53:58Z</time></trkpt><trkpt lat="46.338171068743755" lon="10.349834014259123"><ele>930.3333333333334</ele><time>2026-03-28T15:53:59Z</time></trkpt><trkpt lat="46.337959684437976" lon="10.349786878631221"><ele>928.6666666666667</ele><time>2026-03-28T15:54:00Z</time></trkpt><trkpt lat="46.33775076789134" lon="10.349738845365277"><ele>927.0</ele><time>2026-03-28T15:54:01Z</time></trkpt><trkpt lat="46.33754563169666" lon="10.349689107893825"><ele>926.0</ele><time>2026-03-28T15:54:02Z</time></trkpt><trkpt lat="46.3373407199264" lon="10.349653522645458"><ele>925.0</ele><time>2026-03-28T15:54:03Z</time></trkpt><trkpt lat="46.33714206112857" lon="10.349633375483826"><ele>924.0</ele><time>2026-03-28T15:54:04Z</time></trkpt><trkpt lat="46.336949273550836" lon="10.349621356697648"><ele>922.0</ele><time>2026-03-28T15:54:05Z</time></trkpt><trkpt lat="46.33675802464021" lon="10.349617498154696"><ele>920.0</ele><time>2026-03-28T15:54:06Z</time></trkpt><trkpt lat="46.33656993235554" lon="10.34962487190685"><ele>918.0</ele><time>2026-03-28T15:54:07Z</time></trkpt><trkpt lat="46.33638721665046" lon="10.349626381981526"><ele>918.3333333333333</ele><time>2026-03-28T15:54:08Z</time></trkpt><trkpt lat="46.33621635876861" lon="10.349602212882607"><ele>918.6666666666666</ele><time>2026-03-28T15:54:09Z</time></trkpt><trkpt lat="46.336042312344524" lon="10.349577039171846"><ele>919.0</ele><time>2026-03-28T15:54:10Z</time></trkpt><trkpt lat="46.33586101312875" lon="10.349529444583672"><ele>919.0</ele><time>2026-03-28T15:54:11Z</time></trkpt><trkpt lat="46.3356586555103" lon="10.34950250398164"><ele>919.0</ele><time>2026-03-28T15:54:12Z</time></trkpt><trkpt lat="46.335465798895804" lon="10.349438958596794"><ele>919.0</ele><time>2026-03-28T15:54:12.999Z</time></trkpt><trkpt lat="46.33526484001271" lon="10.349387058633932"><ele>917.6666666666666</ele><time>2026-03-28T15:54:13.999Z</time></trkpt><trkpt lat="46.33508706916269" lon="10.349363911089664"><ele>916.3333333333333</ele><time>2026-03-28T15:54:14.999Z</time></trkpt><trkpt lat="46.33489737434552" lon="10.349331265294545"><ele>915.0</ele><time>2026-03-28T15:54:15.999Z</time></trkpt><trkpt lat="46.33469409350744" lon="10.349313544387693"><ele>914.0</ele><time>2026-03-28T15:54:16.999Z</time></trkpt><trkpt lat="46.33449195371935" lon="10.349284553917283"><ele>913.0</ele><time>2026-03-28T15:54:17.999Z</time></trkpt><trkpt lat="46.33428886408552" lon="10.349254332380212"><ele>912.0</ele><time>2026-03-28T15:54:18.999Z</time></trkpt><trkpt lat="46.334089883036356" lon="10.349233612199486"><ele>912.0</ele><time>2026-03-28T15:54:19.999Z</time></trkpt><trkpt lat="46.33389236013797" lon="10.349216107318071"><ele>912.0</ele><time>2026-03-28T15:54:20.999Z</time></trkpt><trkpt lat="46.33369593498119" lon="10.349215272917613"><ele>912.0</ele><time>2026-03-28T15:54:21.999Z</time></trkpt><trkpt lat="46.33350926004812" lon="10.349239819914006"><ele>911.0</ele><time>2026-03-28T15:54:22.999Z</time></trkpt><trkpt lat="46.333325057581085" lon="10.349295389222554"><ele>910.0</ele><time>2026-03-28T15:54:23.999Z</time></trkpt><trkpt lat="46.33313574463283" lon="10.349319388883579"><ele>909.0</ele><time>2026-03-28T15:54:24.999Z</time></trkpt><trkpt lat="46.33296225311598" lon="10.349374876839626"><ele>908.6666666666667</ele><time>2026-03-28T15:54:25.999Z</time></trkpt><trkpt lat="46.33278247678265" lon="10.349397263135657"><ele>908.3333333333334</ele><time>2026-03-28T15:54:26.999Z</time></trkpt><trkpt lat="46.33261093356299" lon="10.349425277262476"><ele>908.0</ele><time>2026-03-28T15:54:27.999Z</time></trkpt><trkpt lat="46.33245904203558" lon="10.349397587909321"><ele>908.0</ele><time>2026-03-28T15:54:28.999Z</time></trkpt><trkpt lat="46.33231852149009" lon="10.349316963087904"><ele>908.0</ele><time>2026-03-28T15:54:29.999Z</time></trkpt><trkpt lat="46.332174539870884" lon="10.349212280611637"><ele>908.0</ele><time>2026-03-28T15:54:30.999Z</time></trkpt><trkpt lat="46.33203082899755" lon="10.349075840383863"><ele>907.6666666666667</ele><time>2026-03-28T15:54:31.999Z</time></trkpt><trkpt lat="46.331886930289656" lon="10.348927639843216"><ele>907.3333333333333</ele><time>2026-03-28T15:54:32.999Z</time></trkpt><trkpt lat="46.33174409257573" lon="10.348779596054463"><ele>907.0</ele><time>2026-03-28T15:54:33.999Z</time></trkpt><trkpt lat="46.33159996556399" lon="10.348615578921317"><ele>906.0</ele><time>2026-03-28T15:54:35Z</time></trkpt><trkpt lat="46.33144354393789" lon="10.348406729024344"><ele>905.0</ele><time>2026-03-28T15:54:36Z</time></trkpt><trkpt lat="46.33127546389313" lon="10.348148038238831"><ele>902.5</ele><time>2026-03-28T15:54:37Z</time></trkpt><trkpt lat="46.331113753143235" lon="10.347858436896113"><ele>900.0</ele><time>2026-03-28T15:54:38Z</time></trkpt><trkpt lat="46.33095429278864" lon="10.347539969422641"><ele>899.5</ele><time>2026-03-28T15:54:39Z</time></trkpt><trkpt lat="46.3307935375975" lon="10.34720044218846"><ele>899.0</ele><time>2026-03-28T15:54:40Z</time></trkpt><trkpt lat="46.33062698600271" lon="10.346850292101895"><ele>900.5</ele><time>2026-03-28T15:54:41Z</time></trkpt><trkpt lat="46.3304533796639" lon="10.346495850746965"><ele>902.0</ele><time>2026-03-28T15:54:42Z</time></trkpt><trkpt lat="46.33027846491752" lon="10.346135128890209"><ele>902.0</ele><time>2026-03-28T15:54:43Z</time></trkpt><trkpt lat="46.33010862846376" lon="10.3457518397898"><ele>902.0</ele><time>2026-03-28T15:54:44Z</time></trkpt><trkpt lat="46.32995942074497" lon="10.345374008038544"><ele>902.0</ele><time>2026-03-28T15:54:45Z</time></trkpt><trkpt lat="46.32982317075177" lon="10.345019259285419"><ele>902.0</ele><time>2026-03-28T15:54:46Z</time></trkpt><trkpt lat="46.329702444430815" lon="10.344666021384787"><ele>902.0</ele><time>2026-03-28T15:54:47Z</time></trkpt><trkpt lat="46.32959310466492" lon="10.34430098848367"><ele>902.0</ele><time>2026-03-28T15:54:48Z</time></trkpt><trkpt lat="46.329467822142156" lon="10.343946435176866"><ele>900.0</ele><time>2026-03-28T15:54:49Z</time></trkpt><trkpt lat="46.329328719463184" lon="10.343606303510759"><ele>898.0</ele><time>2026-03-28T15:54:50Z</time></trkpt><trkpt lat="46.329180444082205" lon="10.343281267333946"><ele>899.5</ele><time>2026-03-28T15:54:51Z</time></trkpt><trkpt lat="46.329021752912645" lon="10.342973315264034"><ele>901.0</ele><time>2026-03-28T15:54:52Z</time></trkpt><trkpt lat="46.328866889155925" lon="10.34267685617987"><ele>901.5</ele><time>2026-03-28T15:54:53Z</time></trkpt><trkpt lat="46.32872446970636" lon="10.3423951855669"><ele>902.0</ele><time>2026-03-28T15:54:54Z</time></trkpt><trkpt lat="46.328593294023904" lon="10.342131383481153"><ele>900.6666666666667</ele><time>2026-03-28T15:54:55Z</time></trkpt><trkpt lat="46.32846290758118" lon="10.341883437481561"><ele>899.3333333333333</ele><time>2026-03-28T15:54:56Z</time></trkpt><trkpt lat="46.32835714902172" lon="10.341681014524946"><ele>898.0</ele><time>2026-03-28T15:54:57Z</time></trkpt><trkpt lat="46.328251390612245" lon="10.341479348595296"><ele>898.3333333333333</ele><time>2026-03-28T15:54:58Z</time></trkpt><trkpt lat="46.32813993476198" lon="10.341262685310028"><ele>898.6666666666667</ele><time>2026-03-28T15:54:59Z</time></trkpt><trkpt lat="46.328028852416146" lon="10.341051825450633"><ele>899.0</ele><time>2026-03-28T15:55:00Z</time></trkpt><trkpt lat="46.32791516817761" lon="10.340811167763146"><ele>899.0</ele><time>2026-03-28T15:55:01Z</time></trkpt><trkpt lat="46.32779062920748" lon="10.340579620655296"><ele>899.0</ele><time>2026-03-28T15:55:02Z</time></trkpt><trkpt lat="46.327658577766535" lon="10.340355648025621"><ele>899.0</ele><time>2026-03-28T15:55:03Z</time></trkpt><trkpt lat="46.32752166176413" lon="10.340130070247524"><ele>898.0</ele><time>2026-03-28T15:55:04Z</time></trkpt><trkpt lat="46.3273905696814" lon="10.339896955565191"><ele>897.0</ele><time>2026-03-28T15:55:05Z</time></trkpt><trkpt lat="46.327261893014004" lon="10.33965822606815"><ele>896.0</ele><time>2026-03-28T15:55:06Z</time></trkpt><trkpt lat="46.32712153581859" lon="10.339447541960906"><ele>896.0</ele><time>2026-03-28T15:55:07Z</time></trkpt><trkpt lat="46.32698582109509" lon="10.33921756948612"><ele>896.0</ele><time>2026-03-28T15:55:08Z</time></trkpt><trkpt lat="46.326858636099956" lon="10.338984080482925"><ele>896.0</ele><time>2026-03-28T15:55:09Z</time></trkpt><trkpt lat="46.32673171153309" lon="10.338760518109197"><ele>895.6666666666667</ele><time>2026-03-28T15:55:10Z</time></trkpt><trkpt lat="46.32660201613126" lon="10.338545842198446"><ele>895.3333333333333</ele><time>2026-03-28T15:55:11Z</time></trkpt><trkpt lat="46.32647975979279" lon="10.338340441779232"><ele>895.0</ele><time>2026-03-28T15:55:12Z</time></trkpt><trkpt lat="46.326370495196834" lon="10.338132549919324"><ele>893.6666666666666</ele><time>2026-03-28T15:55:13Z</time></trkpt><trkpt lat="46.326275849512626" lon="10.337904782389796"><ele>892.3333333333333</ele><time>2026-03-28T15:55:14Z</time></trkpt><trkpt lat="46.32619038993685" lon="10.33767687545161"><ele>891.0</ele><time>2026-03-28T15:55:15Z</time></trkpt><trkpt lat="46.32609786062935" lon="10.337449178951621"><ele>888.0</ele><time>2026-03-28T15:55:16Z</time></trkpt><trkpt lat="46.326021331303224" lon="10.337217520613827"><ele>885.0</ele><time>2026-03-28T15:55:17Z</time></trkpt><trkpt lat="46.32595272274308" lon="10.336981950507724"><ele>882.0</ele><time>2026-03-28T15:55:18Z</time></trkpt><trkpt lat="46.325899300699845" lon="10.336739714967381"><ele>882.0</ele><time>2026-03-28T15:55:19Z</time></trkpt><trkpt lat="46.32585849930487" lon="10.336500071364455"><ele>882.0</ele><time>2026-03-28T15:55:20Z</time></trkpt><trkpt lat="46.32583377523699" lon="10.33628568964137"><ele>882.0</ele><time>2026-03-28T15:55:21Z</time></trkpt><trkpt lat="46.325824308213114" lon="10.336112648956702"><ele>882.0</ele><time>2026-03-28T15:55:22Z</time></trkpt><trkpt lat="46.3258239574226" lon="10.33596902499247"><ele>881.3333333333334</ele><time>2026-03-28T15:55:23Z</time></trkpt><trkpt lat="46.32583519214375" lon="10.33584714319474"><ele>880.6666666666667</ele><time>2026-03-28T15:55:24Z</time></trkpt><trkpt lat="46.325871982136526" lon="10.335737777559457"><ele>880.0</ele><time>2026-03-28T15:55:25Z</time></trkpt><trkpt lat="46.325953256846425" lon="10.335686548923377"><ele>879.3333333333334</ele><time>2026-03-28T15:55:26Z</time></trkpt><trkpt lat="46.32599791748353" lon="10.335602023025736"><ele>878.6666666666667</ele><time>2026-03-28T15:55:27Z</time></trkpt><trkpt lat="46.325992451337065" lon="10.335480285751434"><ele>878.0</ele><time>2026-03-28T15:55:28Z</time></trkpt><trkpt lat="46.325954579999305" lon="10.33538317538308"><ele>877.5</ele><time>2026-03-28T15:55:29Z</time></trkpt><trkpt lat="46.32587544781918" lon="10.335299166917885"><ele>877.0</ele><time>2026-03-28T15:55:30Z</time></trkpt><trkpt lat="46.32579050502188" lon="10.335171364457864"><ele>876.5</ele><time>2026-03-28T15:55:31Z</time></trkpt><trkpt lat="46.325730862886886" lon="10.334983928127453"><ele>876.0</ele><time>2026-03-28T15:55:32Z</time></trkpt><trkpt lat="46.32568963057409" lon="10.334755968918877"><ele>874.6666666666667</ele><time>2026-03-28T15:55:33Z</time></trkpt><trkpt lat="46.32564948508593" lon="10.334487639804241"><ele>873.3333333333334</ele><time>2026-03-28T15:55:34Z</time></trkpt><trkpt lat="46.32561018827183" lon="10.334199357424156"><ele>872.0</ele><time>2026-03-28T15:55:35Z</time></trkpt><trkpt lat="46.32558359026283" lon="10.333922579928762"><ele>874.0</ele><time>2026-03-28T15:55:36Z</time></trkpt><trkpt lat="46.32555777705745" lon="10.333688183056264"><ele>876.0</ele><time>2026-03-28T15:55:37Z</time></trkpt><trkpt lat="46.32553920357891" lon="10.333484811460888"><ele>878.0</ele><time>2026-03-28T15:55:38Z</time></trkpt><trkpt lat="46.32552889036802" lon="10.333289660389296"><ele>880.0</ele><time>2026-03-28T15:55:39Z</time></trkpt><trkpt lat="46.32552187354895" lon="10.333105429459245"><ele>878.75</ele><time>2026-03-28T15:55:40Z</time></trkpt><trkpt lat="46.3255501609781" lon="10.332943704819185"><ele>877.5</ele><time>2026-03-28T15:55:41Z</time></trkpt><trkpt lat="46.325565081700326" lon="10.332807099217947"><ele>876.25</ele><time>2026-03-28T15:55:42Z</time></trkpt><trkpt lat="46.32540377500886" lon="10.3327043577333"><ele>875.0</ele><time>2026-03-28T15:55:43Z</time></trkpt><trkpt lat="46.32536877311629" lon="10.332554981271777"><ele>875.0</ele><time>2026-03-28T15:55:44Z</time></trkpt><trkpt lat="46.3253286146416" lon="10.332376574240994"><ele>875.0</ele><time>2026-03-28T15:55:45Z</time></trkpt><trkpt lat="46.32531261031998" lon="10.332172512165684"><ele>875.0</ele><time>2026-03-28T15:55:46Z</time></trkpt><trkpt lat="46.325289318256836" lon="10.331970120087071"><ele>875.0</ele><time>2026-03-28T15:55:47Z</time></trkpt><trkpt lat="46.32525522350405" lon="10.331751658286143"><ele>874.0</ele><time>2026-03-28T15:55:48Z</time></trkpt><trkpt lat="46.32522312917528" lon="10.331495770171259"><ele>873.0</ele><time>2026-03-28T15:55:49Z</time></trkpt><trkpt lat="46.32518894127254" lon="10.331197752681332"><ele>872.0</ele><time>2026-03-28T15:55:50Z</time></trkpt><trkpt lat="46.32516978837187" lon="10.330856664075398"><ele>869.5</ele><time>2026-03-28T15:55:51Z</time></trkpt><trkpt lat="46.32516213636554" lon="10.330501622024588"><ele>867.0</ele><time>2026-03-28T15:55:52Z</time></trkpt><trkpt lat="46.32516207208871" lon="10.330130064431588"><ele>867.0</ele><time>2026-03-28T15:55:53Z</time></trkpt><trkpt lat="46.325167248722856" lon="10.329748111908062"><ele>867.0</ele><time>2026-03-28T15:55:54Z</time></trkpt><trkpt lat="46.325170120280504" lon="10.329364501152273"><ele>867.0</ele><time>2026-03-28T15:55:55Z</time></trkpt><trkpt lat="46.32517006373913" lon="10.328977117983477"><ele>867.0</ele><time>2026-03-28T15:55:56Z</time></trkpt><trkpt lat="46.32516650460215" lon="10.328595043353134"><ele>866.5</ele><time>2026-03-28T15:55:57Z</time></trkpt><trkpt lat="46.325165088805505" lon="10.32821727134668"><ele>866.0</ele><time>2026-03-28T15:55:58Z</time></trkpt><trkpt lat="46.32516625032295" lon="10.327841954910696"><ele>864.5</ele><time>2026-03-28T15:55:59Z</time></trkpt><trkpt lat="46.325161353364855" lon="10.327471406753439"><ele>863.0</ele><time>2026-03-28T15:56:00Z</time></trkpt><trkpt lat="46.32516975934117" lon="10.327110158346404"><ele>862.0</ele><time>2026-03-28T15:56:00.999Z</time></trkpt><trkpt lat="46.32517918662724" lon="10.326769001381354"><ele>861.0</ele><time>2026-03-28T15:56:01.999Z</time></trkpt><trkpt lat="46.32519379407307" lon="10.32644240032139"><ele>859.6666666666667</ele><time>2026-03-28T15:56:02.999Z</time></trkpt><trkpt lat="46.3252115626277" lon="10.326121523756939"><ele>858.3333333333334</ele><time>2026-03-28T15:56:03.999Z</time></trkpt><trkpt lat="46.32525886922285" lon="10.325802845102306"><ele>857.0</ele><time>2026-03-28T15:56:04.999Z</time></trkpt><trkpt lat="46.32529205999141" lon="10.325463443202313"><ele>857.0</ele><time>2026-03-28T15:56:05.999Z</time></trkpt><trkpt lat="46.3253230320303" lon="10.325124777452444"><ele>857.0</ele><time>2026-03-28T15:56:06.999Z</time></trkpt><trkpt lat="46.32534946111259" lon="10.324791677064251"><ele>856.0</ele><time>2026-03-28T15:56:07.999Z</time></trkpt><trkpt lat="46.32536380536536" lon="10.324428228649765"><ele>855.0</ele><time>2026-03-28T15:56:08.999Z</time></trkpt><trkpt lat="46.325371267766414" lon="10.324072334724736"><ele>853.5</ele><time>2026-03-28T15:56:09.999Z</time></trkpt><trkpt lat="46.32535557690346" lon="10.323711644325599"><ele>852.0</ele><time>2026-03-28T15:56:10.999Z</time></trkpt><trkpt lat="46.32532929989169" lon="10.323354251066531"><ele>852.5</ele><time>2026-03-28T15:56:11.999Z</time></trkpt><trkpt lat="46.325289267530884" lon="10.323005019646635"><ele>853.0</ele><time>2026-03-28T15:56:12.999Z</time></trkpt><trkpt lat="46.32524010616814" lon="10.322664249873247"><ele>853.0</ele><time>2026-03-28T15:56:13.999Z</time></trkpt><trkpt lat="46.325180797880066" lon="10.322330935077858"><ele>853.0</ele><time>2026-03-28T15:56:14.999Z</time></trkpt><trkpt lat="46.325107588394204" lon="10.322002099975618"><ele>854.5</ele><time>2026-03-28T15:56:15.999Z</time></trkpt><trkpt lat="46.325013266236624" lon="10.321667448629952"><ele>856.0</ele><time>2026-03-28T15:56:16.999Z</time></trkpt><trkpt lat="46.324919102125754" lon="10.321359475205746"><ele>863.0</ele><time>2026-03-28T15:56:17.999Z</time></trkpt><trkpt lat="46.324817384355455" lon="10.32105183605766"><ele>870.0</ele><time>2026-03-28T15:56:18.999Z</time></trkpt><trkpt lat="46.324711294446246" lon="10.320734316691745"><ele>893.0</ele><time>2026-03-28T15:56:20.022Z</time></trkpt><trkpt lat="46.324608129874846" lon="10.320424069895989"><ele>916.0</ele><time>2026-03-28T15:56:21.019Z</time></trkpt><trkpt lat="46.3245049641351" lon="10.320106910270045"><ele>916.0</ele><time>2026-03-28T15:56:22.023Z</time></trkpt><trkpt lat="46.32435081607381" lon="10.319856657722653"><ele>916.0</ele><time>2026-03-28T15:56:23.021Z</time></trkpt><trkpt lat="46.324196910844016" lon="10.319602699555581"><ele>913.0</ele><time>2026-03-28T15:56:24.02Z</time></trkpt><trkpt lat="46.324044803167936" lon="10.319378757950671"><ele>910.0</ele><time>2026-03-28T15:56:25.02Z</time></trkpt><trkpt lat="46.32232703840195" lon="10.317793636264595"><ele>986.5</ele><time>2026-03-28T15:56:28.317Z</time></trkpt><trkpt lat="46.3221023" lon="10.3175812"><ele>1063.0</ele><time>2026-03-28T15:56:29.319Z</time></trkpt><trkpt lat="46.305396594150274" lon="10.298469923446232"><ele>903.0</ele><time>2026-03-28T15:57:51.999Z</time></trkpt><trkpt lat="46.30520344114889" lon="10.298108243628457"><ele>743.0</ele><time>2026-03-28T15:57:52.999Z</time></trkpt><trkpt lat="46.30563354756949" lon="10.29794822275945"><ele>740.5</ele><time>2026-03-28T15:57:53.999Z</time></trkpt><trkpt lat="46.305592938410136" lon="10.29748661792976"><ele>738.0</ele><time>2026-03-28T15:57:54.999Z</time></trkpt><trkpt lat="46.305555163079354" lon="10.297015804260022"><ele>738.0</ele><time>2026-03-28T15:57:55.999Z</time></trkpt><trkpt lat="46.30553083006391" lon="10.296543697289136"><ele>738.0</ele><time>2026-03-28T15:57:56.999Z</time></trkpt><trkpt lat="46.30551491227476" lon="10.296064909467093"><ele>731.0</ele><time>2026-03-28T15:57:58Z</time></trkpt><trkpt lat="46.30549335865292" lon="10.295578368805803"><ele>724.0</ele><time>2026-03-28T15:57:59Z</time></trkpt><trkpt lat="46.30547017491043" lon="10.295088464750876"><ele>720.5</ele><time>2026-03-28T15:58:00Z</time></trkpt><trkpt lat="46.3054488651169" lon="10.29459305495139"><ele>717.0</ele><time>2026-03-28T15:58:01Z</time></trkpt><trkpt lat="46.30542406850317" lon="10.294105931022319"><ele>715.5</ele><time>2026-03-28T15:58:02Z</time></trkpt><trkpt lat="46.30540078533594" lon="10.293629128229883"><ele>714.0</ele><time>2026-03-28T15:58:03Z</time></trkpt><trkpt lat="46.305381304826746" lon="10.293149825013607"><ele>711.5</ele><time>2026-03-28T15:58:04Z</time></trkpt><trkpt lat="46.305356767897095" lon="10.292694770611513"><ele>709.0</ele><time>2026-03-28T15:58:05Z</time></trkpt><trkpt lat="46.30531754371662" lon="10.29225118473656"><ele>705.5</ele><time>2026-03-28T15:58:06Z</time></trkpt><trkpt lat="46.3052524583715" lon="10.291834863508301"><ele>702.0</ele><time>2026-03-28T15:58:07Z</time></trkpt><trkpt lat="46.30517736467029" lon="10.291435355926572"><ele>698.5</ele><time>2026-03-28T15:58:08Z</time></trkpt><trkpt lat="46.3050731081061" lon="10.291064563588916"><ele>695.0</ele><time>2026-03-28T15:58:09Z</time></trkpt><trkpt lat="46.30494875010083" lon="10.290702550208167"><ele>694.5</ele><time>2026-03-28T15:58:10Z</time></trkpt><trkpt lat="46.30479849139869" lon="10.290339111269446"><ele>694.0</ele><time>2026-03-28T15:58:11Z</time></trkpt><trkpt lat="46.30461117947075" lon="10.289965713508604"><ele>691.5</ele><time>2026-03-28T15:58:12Z</time></trkpt><trkpt lat="46.30440713866616" lon="10.289601987730608"><ele>689.0</ele><time>2026-03-28T15:58:13Z</time></trkpt><trkpt lat="46.304181061885295" lon="10.289246208576204"><ele>688.5</ele><time>2026-03-28T15:58:14Z</time></trkpt><trkpt lat="46.30393172885887" lon="10.288884650699428"><ele>688.0</ele><time>2026-03-28T15:58:15Z</time></trkpt><trkpt lat="46.303665557434414" lon="10.288511644094564"><ele>688.0</ele><time>2026-03-28T15:58:16Z</time></trkpt><trkpt lat="46.30340813419015" lon="10.288110629979744"><ele>688.0</ele><time>2026-03-28T15:58:17Z</time></trkpt><trkpt lat="46.30315226904247" lon="10.287683189224927"><ele>690.0</ele><time>2026-03-28T15:58:18Z</time></trkpt><trkpt lat="46.302874521358774" lon="10.287284009475668"><ele>692.0</ele><time>2026-03-28T15:58:19Z</time></trkpt><trkpt lat="46.302591434190724" lon="10.286893867389123"><ele>686.5</ele><time>2026-03-28T15:58:20Z</time></trkpt><trkpt lat="46.30241668176117" lon="10.286330923436738"><ele>681.0</ele><time>2026-03-28T15:58:21Z</time></trkpt><trkpt lat="46.30204159121597" lon="10.286268545899048"><ele>681.0</ele><time>2026-03-28T15:58:22Z</time></trkpt><trkpt lat="46.30177120738445" lon="10.285897067419798"><ele>681.0</ele><time>2026-03-28T15:58:23Z</time></trkpt><trkpt lat="46.30150224423133" lon="10.285536488595802"><ele>678.0</ele><time>2026-03-28T15:58:24Z</time></trkpt><trkpt lat="46.301235529679" lon="10.285175551286697"><ele>675.0</ele><time>2026-03-28T15:58:25Z</time></trkpt><trkpt lat="46.300965631489184" lon="10.284810408588841"><ele>672.0</ele><time>2026-03-28T15:58:26Z</time></trkpt><trkpt lat="46.30069958809666" lon="10.284445831722559"><ele>669.0</ele><time>2026-03-28T15:58:27Z</time></trkpt><trkpt lat="46.30043541530616" lon="10.284079652726355"><ele>667.5</ele><time>2026-03-28T15:58:28Z</time></trkpt><trkpt lat="46.30017911584281" lon="10.28371134346968"><ele>666.0</ele><time>2026-03-28T15:58:29Z</time></trkpt><trkpt lat="46.299958735150334" lon="10.283305957122392"><ele>663.0</ele><time>2026-03-28T15:58:30Z</time></trkpt><trkpt lat="46.29975631584299" lon="10.28288878328234"><ele>660.0</ele><time>2026-03-28T15:58:31Z</time></trkpt><trkpt lat="46.29957194227283" lon="10.282463012963396"><ele>663.0</ele><time>2026-03-28T15:58:32Z</time></trkpt><trkpt lat="46.29940482267506" lon="10.282018452022156"><ele>666.0</ele><time>2026-03-28T15:58:33Z</time></trkpt><trkpt lat="46.299236635880895" lon="10.281557156351921"><ele>662.0</ele><time>2026-03-28T15:58:34Z</time></trkpt><trkpt lat="46.29905918311305" lon="10.281070661716846"><ele>658.0</ele><time>2026-03-28T15:58:35Z</time></trkpt><trkpt lat="46.29888204633728" lon="10.280587724360668"><ele>658.0</ele><time>2026-03-28T15:58:36Z</time></trkpt><trkpt lat="46.298684209138116" lon="10.280128019398923"><ele>658.0</ele><time>2026-03-28T15:58:37Z</time></trkpt><trkpt lat="46.29850414939054" lon="10.279667214470614"><ele>655.5</ele><time>2026-03-28T15:58:38Z</time></trkpt><trkpt lat="46.29829400883535" lon="10.279240537373376"><ele>653.0</ele><time>2026-03-28T15:58:39Z</time></trkpt><trkpt lat="46.298047933875395" lon="10.278828819862959"><ele>652.5</ele><time>2026-03-28T15:58:40Z</time></trkpt><trkpt lat="46.29779635090059" lon="10.27844470969434"><ele>652.0</ele><time>2026-03-28T15:58:41Z</time></trkpt><trkpt lat="46.297512848990905" lon="10.278104658187054"><ele>649.5</ele><time>2026-03-28T15:58:42Z</time></trkpt><trkpt lat="46.29721408168724" lon="10.27779363970211"><ele>647.0</ele><time>2026-03-28T15:58:43Z</time></trkpt><trkpt lat="46.2969060444154" lon="10.27748691887994"><ele>648.5</ele><time>2026-03-28T15:58:44Z</time></trkpt><trkpt lat="46.29656125133447" lon="10.277194951670968"><ele>650.0</ele><time>2026-03-28T15:58:45Z</time></trkpt><trkpt lat="46.29625025066951" lon="10.276874629017703"><ele>648.0</ele><time>2026-03-28T15:58:46Z</time></trkpt><trkpt lat="46.29595279249059" lon="10.276564603116348"><ele>646.0</ele><time>2026-03-28T15:58:47Z</time></trkpt><trkpt lat="46.295659706731186" lon="10.276262262040165"><ele>642.5</ele><time>2026-03-28T15:58:48Z</time></trkpt><trkpt lat="46.295373021392294" lon="10.275969257836628"><ele>639.0</ele><time>2026-03-28T15:58:49Z</time></trkpt><trkpt lat="46.29509406578485" lon="10.275689487865787"><ele>638.0</ele><time>2026-03-28T15:58:50Z</time></trkpt><trkpt lat="46.294828682673604" lon="10.275412323539616"><ele>637.0</ele><time>2026-03-28T15:58:51Z</time></trkpt><trkpt lat="46.2945844001197" lon="10.27512288070501"><ele>637.0</ele><time>2026-03-28T15:58:52Z</time></trkpt><trkpt lat="46.29433240584002" lon="10.274881099153818"><ele>637.0</ele><time>2026-03-28T15:58:53Z</time></trkpt><trkpt lat="46.29410919394894" lon="10.274604941822664"><ele>635.5</ele><time>2026-03-28T15:58:54Z</time></trkpt><trkpt lat="46.29388746534494" lon="10.274350258204453"><ele>634.0</ele><time>2026-03-28T15:58:55Z</time></trkpt><trkpt lat="46.293671605331824" lon="10.274102311870244"><ele>633.5</ele><time>2026-03-28T15:58:56Z</time></trkpt><trkpt lat="46.293449511974536" lon="10.273868600327408"><ele>633.0</ele><time>2026-03-28T15:58:57Z</time></trkpt><trkpt lat="46.293231177304484" lon="10.273596602604337"><ele>632.5</ele><time>2026-03-28T15:58:58Z</time></trkpt><trkpt lat="46.293002071825505" lon="10.273307894777567"><ele>632.0</ele><time>2026-03-28T15:58:59Z</time></trkpt><trkpt lat="46.29277471680779" lon="10.273006844649512"><ele>632.0</ele><time>2026-03-28T15:59:00Z</time></trkpt><trkpt lat="46.292546002563974" lon="10.272706778784876"><ele>632.0</ele><time>2026-03-28T15:59:01Z</time></trkpt><trkpt lat="46.29230920696553" lon="10.272400084583584"><ele>630.0</ele><time>2026-03-28T15:59:02Z</time></trkpt><trkpt lat="46.29206291715978" lon="10.272094119726145"><ele>628.0</ele><time>2026-03-28T15:59:03Z</time></trkpt><trkpt lat="46.291810718980294" lon="10.271794589271261"><ele>628.0</ele><time>2026-03-28T15:59:04Z</time></trkpt><trkpt lat="46.2915416668607" lon="10.271472028253447"><ele>628.0</ele><time>2026-03-28T15:59:05Z</time></trkpt><trkpt lat="46.29124924471842" lon="10.271150676091024"><ele>627.5</ele><time>2026-03-28T15:59:06Z</time></trkpt><trkpt lat="46.29094539363215" lon="10.270817431885837"><ele>627.0</ele><time>2026-03-28T15:59:07Z</time></trkpt><trkpt lat="46.290637745858646" lon="10.270474910998733"><ele>625.0</ele><time>2026-03-28T15:59:08Z</time></trkpt><trkpt lat="46.29031378705176" lon="10.270144123457209"><ele>623.0</ele><time>2026-03-28T15:59:09Z</time></trkpt><trkpt lat="46.28998491869982" lon="10.269830708295057"><ele>623.5</ele><time>2026-03-28T15:59:10Z</time></trkpt><trkpt lat="46.289647008473175" lon="10.26953117014482"><ele>624.0</ele><time>2026-03-28T15:59:11Z</time></trkpt><trkpt lat="46.289306277915706" lon="10.269249214711321"><ele>624.0</ele><time>2026-03-28T15:59:12Z</time></trkpt><trkpt lat="46.28896687998182" lon="10.268985321923255"><ele>624.0</ele><time>2026-03-28T15:59:13Z</time></trkpt><trkpt lat="46.28862960504274" lon="10.268732227009567"><ele>623.0</ele><time>2026-03-28T15:59:14Z</time></trkpt><trkpt lat="46.28829664028083" lon="10.268490949832861"><ele>622.0</ele><time>2026-03-28T15:59:15Z</time></trkpt><trkpt lat="46.28797347712545" lon="10.268272359466538"><ele>618.5</ele><time>2026-03-28T15:59:16Z</time></trkpt><trkpt lat="46.28765282233875" lon="10.268064972782478"><ele>615.0</ele><time>2026-03-28T15:59:17Z</time></trkpt><trkpt lat="46.287345220295286" lon="10.267889502222463"><ele>614.0</ele><time>2026-03-28T15:59:18Z</time></trkpt><trkpt lat="46.28703457894336" lon="10.267738097984386"><ele>613.0</ele><time>2026-03-28T15:59:19Z</time></trkpt><trkpt lat="46.28671220178663" lon="10.267585696325556"><ele>612.5</ele><time>2026-03-28T15:59:20Z</time></trkpt><trkpt lat="46.28639109526019" lon="10.267416057877808"><ele>612.0</ele><time>2026-03-28T15:59:21Z</time></trkpt><trkpt lat="46.286066734106406" lon="10.267247798829324"><ele>612.0</ele><time>2026-03-28T15:59:22Z</time></trkpt><trkpt lat="46.28573710791066" lon="10.267097463342608"><ele>612.0</ele><time>2026-03-28T15:59:23Z</time></trkpt><trkpt lat="46.28540515531466" lon="10.266962587090797"><ele>610.5</ele><time>2026-03-28T15:59:24Z</time></trkpt><trkpt lat="46.28505801211266" lon="10.266837215718526"><ele>609.0</ele><time>2026-03-28T15:59:25Z</time></trkpt><trkpt lat="46.284708897583094" lon="10.266698231452327"><ele>608.0</ele><time>2026-03-28T15:59:26Z</time></trkpt><trkpt lat="46.28435068466472" lon="10.26655666207241"><ele>607.0</ele><time>2026-03-28T15:59:27Z</time></trkpt><trkpt lat="46.28398570083499" lon="10.26640338229443"><ele>604.5</ele><time>2026-03-28T15:59:28Z</time></trkpt><trkpt lat="46.28361363470079" lon="10.266251956216964"><ele>602.0</ele><time>2026-03-28T15:59:29Z</time></trkpt><trkpt lat="46.28323754525688" lon="10.266101583629007"><ele>601.0</ele><time>2026-03-28T15:59:30Z</time></trkpt><trkpt lat="46.28286300380153" lon="10.265953951813573"><ele>600.0</ele><time>2026-03-28T15:59:31Z</time></trkpt><trkpt lat="46.28249162573554" lon="10.265808713083036"><ele>600.0</ele><time>2026-03-28T15:59:32Z</time></trkpt><trkpt lat="46.28212894172173" lon="10.265660521863078"><ele>600.0</ele><time>2026-03-28T15:59:33Z</time></trkpt><trkpt lat="46.28176939805857" lon="10.26550228257808"><ele>598.5</ele><time>2026-03-28T15:59:34Z</time></trkpt><trkpt lat="46.28142900572222" lon="10.265319198339691"><ele>597.0</ele><time>2026-03-28T15:59:35Z</time></trkpt><trkpt lat="46.28111301140368" lon="10.265059301650533"><ele>597.0</ele><time>2026-03-28T15:59:35.999Z</time></trkpt><trkpt lat="46.280816490523144" lon="10.264809109735056"><ele>597.0</ele><time>2026-03-28T15:59:36.999Z</time></trkpt><trkpt lat="46.28052698105964" lon="10.264518603262667"><ele>596.5</ele><time>2026-03-28T15:59:37.999Z</time></trkpt><trkpt lat="46.28025475918316" lon="10.264197320334665"><ele>596.0</ele><time>2026-03-28T15:59:38.999Z</time></trkpt><trkpt lat="46.27998064564575" lon="10.263867083982369"><ele>595.0</ele><time>2026-03-28T15:59:39.999Z</time></trkpt><trkpt lat="46.2797216022139" lon="10.263496671939702"><ele>594.0</ele><time>2026-03-28T15:59:40.999Z</time></trkpt><trkpt lat="46.279455209251644" lon="10.263120030968752"><ele>593.0</ele><time>2026-03-28T15:59:41.999Z</time></trkpt><trkpt lat="46.279185080882655" lon="10.262741291097841"><ele>592.0</ele><time>2026-03-28T15:59:42.999Z</time></trkpt><trkpt lat="46.2789187988118" lon="10.262374633104963"><ele>591.5</ele><time>2026-03-28T15:59:43.999Z</time></trkpt><trkpt lat="46.278659533335826" lon="10.262027561471438"><ele>591.0</ele><time>2026-03-28T15:59:44.999Z</time></trkpt><trkpt lat="46.27839503270959" lon="10.261702893925593"><ele>588.5</ele><time>2026-03-28T15:59:45.999Z</time></trkpt><trkpt lat="46.27812485073092" lon="10.261402679126151"><ele>586.0</ele><time>2026-03-28T15:59:46.999Z</time></trkpt><trkpt lat="46.27785302958334" lon="10.261147391248667"><ele>586.0</ele><time>2026-03-28T15:59:47.999Z</time></trkpt><trkpt lat="46.27758780960189" lon="10.260949202537677"><ele>586.0</ele><time>2026-03-28T15:59:48.999Z</time></trkpt><trkpt lat="46.277331092880786" lon="10.26078655306349"><ele>584.5</ele><time>2026-03-28T15:59:49.999Z</time></trkpt><trkpt lat="46.277066266299315" lon="10.26066879317451"><ele>583.0</ele><time>2026-03-28T15:59:50.999Z</time></trkpt><trkpt lat="46.27678997642076" lon="10.260558035913062"><ele>582.5</ele><time>2026-03-28T15:59:51.999Z</time></trkpt><trkpt lat="46.27650942767499" lon="10.260438799636841"><ele>582.0</ele><time>2026-03-28T15:59:52.999Z</time></trkpt><trkpt lat="46.27620255971329" lon="10.260355949644193"><ele>580.5</ele><time>2026-03-28T15:59:53.999Z</time></trkpt><trkpt lat="46.275878965132044" lon="10.260286326198365"><ele>579.0</ele><time>2026-03-28T15:59:54.999Z</time></trkpt><trkpt lat="46.27554298444872" lon="10.260217771812009"><ele>578.0</ele><time>2026-03-28T15:59:55.999Z</time></trkpt><trkpt lat="46.27519529338523" lon="10.260168934418878"><ele>577.0</ele><time>2026-03-28T15:59:56.999Z</time></trkpt><trkpt lat="46.274836909487775" lon="10.260094804861877"><ele>576.5</ele><time>2026-03-28T15:59:57.999Z</time></trkpt><trkpt lat="46.27447176792724" lon="10.260019981564195"><ele>576.0</ele><time>2026-03-28T15:59:58.999Z</time></trkpt><trkpt lat="46.27410053879712" lon="10.259931246662273"><ele>575.5</ele><time>2026-03-28T15:59:59.999Z</time></trkpt><trkpt lat="46.27372376285728" lon="10.25984740704087"><ele>575.0</ele><time>2026-03-28T16:00:00.999Z</time></trkpt><trkpt lat="46.27334488145808" lon="10.259768799205792"><ele>574.0</ele><time>2026-03-28T16:00:01.999Z</time></trkpt><trkpt lat="46.27295828170458" lon="10.259693645231872"><ele>573.0</ele><time>2026-03-28T16:00:02.999Z</time></trkpt><trkpt lat="46.27257550714418" lon="10.25961969813363"><ele>573.5</ele><time>2026-03-28T16:00:04Z</time></trkpt><trkpt lat="46.27219307914897" lon="10.259543270060115"><ele>574.0</ele><time>2026-03-28T16:00:05Z</time></trkpt><trkpt lat="46.271813087944416" lon="10.2594639953316"><ele>572.5</ele><time>2026-03-28T16:00:06Z</time></trkpt><trkpt lat="46.27142825704394" lon="10.25939462897891"><ele>571.0</ele><time>2026-03-28T16:00:07Z</time></trkpt><trkpt lat="46.27105209590772" lon="10.259316706025725"><ele>571.0</ele><time>2026-03-28T16:00:08Z</time></trkpt><trkpt lat="46.27067463757035" lon="10.259247594827968"><ele>571.0</ele><time>2026-03-28T16:00:09Z</time></trkpt><trkpt lat="46.270303173681214" lon="10.259145748016577"><ele>570.0</ele><time>2026-03-28T16:00:10Z</time></trkpt><trkpt lat="46.26993263624669" lon="10.259048433964898"><ele>569.0</ele><time>2026-03-28T16:00:11Z</time></trkpt><trkpt lat="46.26956626983787" lon="10.25896321978163"><ele>568.0</ele><time>2026-03-28T16:00:12Z</time></trkpt><trkpt lat="46.269202837989525" lon="10.258842705825025"><ele>567.0</ele><time>2026-03-28T16:00:13Z</time></trkpt><trkpt lat="46.26883803085651" lon="10.258716443524913"><ele>567.0</ele><time>2026-03-28T16:00:14Z</time></trkpt><trkpt lat="46.26847815528848" lon="10.258550260895138"><ele>567.0</ele><time>2026-03-28T16:00:15Z</time></trkpt><trkpt lat="46.26811620889554" lon="10.25839523190282"><ele>565.0</ele><time>2026-03-28T16:00:16Z</time></trkpt><trkpt lat="46.267763635559156" lon="10.258227276484158"><ele>563.0</ele><time>2026-03-28T16:00:17Z</time></trkpt><trkpt lat="46.26742799276" lon="10.258074888634114"><ele>563.0</ele><time>2026-03-28T16:00:18Z</time></trkpt><trkpt lat="46.267115545916724" lon="10.257894246088338"><ele>563.0</ele><time>2026-03-28T16:00:19Z</time></trkpt><trkpt lat="46.2668217679575" lon="10.25772789725538"><ele>563.0</ele><time>2026-03-28T16:00:20Z</time></trkpt><trkpt lat="46.26654631740365" lon="10.25757239381388"><ele>563.0</ele><time>2026-03-28T16:00:21Z</time></trkpt><trkpt lat="46.266285691236895" lon="10.257425026268036"><ele>562.0</ele><time>2026-03-28T16:00:22Z</time></trkpt><trkpt lat="46.266033261422436" lon="10.257281657354367"><ele>561.0</ele><time>2026-03-28T16:00:23Z</time></trkpt><trkpt lat="46.265780901998035" lon="10.25711103628522"><ele>561.0</ele><time>2026-03-28T16:00:24Z</time></trkpt><trkpt lat="46.26551884394196" lon="10.256957794935344"><ele>561.0</ele><time>2026-03-28T16:00:25Z</time></trkpt><trkpt lat="46.265253304513415" lon="10.256801613954181"><ele>561.0</ele><time>2026-03-28T16:00:26Z</time></trkpt><trkpt lat="46.26497998165702" lon="10.256641820501427"><ele>561.0</ele><time>2026-03-28T16:00:27Z</time></trkpt><trkpt lat="46.26470140441377" lon="10.25647906994273"><ele>558.5</ele><time>2026-03-28T16:00:28Z</time></trkpt><trkpt lat="46.2644074955802" lon="10.256307362578996"><ele>556.0</ele><time>2026-03-28T16:00:29Z</time></trkpt><trkpt lat="46.26409696172453" lon="10.256144266606492"><ele>555.0</ele><time>2026-03-28T16:00:30Z</time></trkpt><trkpt lat="46.26378927900147" lon="10.255942059980187"><ele>554.0</ele><time>2026-03-28T16:00:31Z</time></trkpt><trkpt lat="46.263474020322185" lon="10.255741993574503"><ele>553.5</ele><time>2026-03-28T16:00:32Z</time></trkpt><trkpt lat="46.263154835154225" lon="10.255539713912052"><ele>553.0</ele><time>2026-03-28T16:00:33Z</time></trkpt><trkpt lat="46.26283111320838" lon="10.255332510566765"><ele>552.5</ele><time>2026-03-28T16:00:34Z</time></trkpt><trkpt lat="46.26251860842872" lon="10.255085322047806"><ele>552.0</ele><time>2026-03-28T16:00:35Z</time></trkpt><trkpt lat="46.262201230500104" lon="10.254826051093492"><ele>552.0</ele><time>2026-03-28T16:00:36Z</time></trkpt><trkpt lat="46.26188461522663" lon="10.254547134585028"><ele>552.0</ele><time>2026-03-28T16:00:37Z</time></trkpt><trkpt lat="46.261571321850816" lon="10.254253024528271"><ele>551.5</ele><time>2026-03-28T16:00:38Z</time></trkpt><trkpt lat="46.26125898113706" lon="10.253944612988887"><ele>551.0</ele><time>2026-03-28T16:00:39Z</time></trkpt><trkpt lat="46.2609522647762" lon="10.253624283416801"><ele>551.0</ele><time>2026-03-28T16:00:40Z</time></trkpt><trkpt lat="46.260643513964276" lon="10.25328404874506"><ele>551.0</ele><time>2026-03-28T16:00:41Z</time></trkpt><trkpt lat="46.26033329377852" lon="10.252939583352013"><ele>551.0</ele><time>2026-03-28T16:00:42Z</time></trkpt><trkpt lat="46.26002276735432" lon="10.252588446830973"><ele>551.0</ele><time>2026-03-28T16:00:43Z</time></trkpt><trkpt lat="46.25969548591987" lon="10.252226261927756"><ele>549.0</ele><time>2026-03-28T16:00:44Z</time></trkpt><trkpt lat="46.25939239371111" lon="10.251878076160558"><ele>547.0</ele><time>2026-03-28T16:00:45Z</time></trkpt><trkpt lat="46.25908715845381" lon="10.251538103766036"><ele>547.0</ele><time>2026-03-28T16:00:46Z</time></trkpt><trkpt lat="46.258783429889185" lon="10.251207420400478"><ele>547.0</ele><time>2026-03-28T16:00:47Z</time></trkpt><trkpt lat="46.25848639622657" lon="10.250882369019624"><ele>546.0</ele><time>2026-03-28T16:00:48Z</time></trkpt><trkpt lat="46.25820248284817" lon="10.250569804847826"><ele>545.0</ele><time>2026-03-28T16:00:49Z</time></trkpt><trkpt lat="46.25793288520795" lon="10.250273827233523"><ele>545.0</ele><time>2026-03-28T16:00:50Z</time></trkpt><trkpt lat="46.25768593122418" lon="10.249986487030624"><ele>545.0</ele><time>2026-03-28T16:00:51Z</time></trkpt><trkpt lat="46.25742113663913" lon="10.249706876354919"><ele>544.5</ele><time>2026-03-28T16:00:52Z</time></trkpt><trkpt lat="46.257171578529515" lon="10.249432813824393"><ele>544.0</ele><time>2026-03-28T16:00:53Z</time></trkpt><trkpt lat="46.256919641528924" lon="10.249157560966715"><ele>543.0</ele><time>2026-03-28T16:00:54Z</time></trkpt><trkpt lat="46.256661514670334" lon="10.248874228088726"><ele>542.0</ele><time>2026-03-28T16:00:55Z</time></trkpt><trkpt lat="46.25640628289142" lon="10.248566653518251"><ele>541.0</ele><time>2026-03-28T16:00:56Z</time></trkpt><trkpt lat="46.25615498235658" lon="10.248254906376552"><ele>540.0</ele><time>2026-03-28T16:00:57Z</time></trkpt><trkpt lat="46.25587002073" lon="10.247947053758256"><ele>539.0</ele><time>2026-03-28T16:00:58Z</time></trkpt><trkpt lat="46.25558939828795" lon="10.247637155636397"><ele>538.0</ele><time>2026-03-28T16:00:59Z</time></trkpt><trkpt lat="46.255303983550384" lon="10.247328583216689"><ele>538.0</ele><time>2026-03-28T16:01:00Z</time></trkpt><trkpt lat="46.25501430740526" lon="10.247005019512232"><ele>538.0</ele><time>2026-03-28T16:01:01Z</time></trkpt><trkpt lat="46.254714842105244" lon="10.246673545037439"><ele>538.0</ele><time>2026-03-28T16:01:02Z</time></trkpt><trkpt lat="46.25440218789825" lon="10.246337327192967"><ele>538.0</ele><time>2026-03-28T16:01:03Z</time></trkpt><trkpt lat="46.25408053135171" lon="10.24599865086727"><ele>537.0</ele><time>2026-03-28T16:01:04Z</time></trkpt><trkpt lat="46.25376128115417" lon="10.245646998961334"><ele>536.0</ele><time>2026-03-28T16:01:05Z</time></trkpt><trkpt lat="46.25343511370063" lon="10.24528746333553"><ele>535.5</ele><time>2026-03-28T16:01:06Z</time></trkpt><trkpt lat="46.2531011651959" lon="10.244925561966943"><ele>535.0</ele><time>2026-03-28T16:01:07Z</time></trkpt><trkpt lat="46.25276114885528" lon="10.244571742732022"><ele>535.0</ele><time>2026-03-28T16:01:08Z</time></trkpt><trkpt lat="46.252407723792295" lon="10.244224279102488"><ele>535.0</ele><time>2026-03-28T16:01:09Z</time></trkpt><trkpt lat="46.25206225909808" lon="10.243886800653879"><ele>533.5</ele><time>2026-03-28T16:01:10Z</time></trkpt><trkpt lat="46.25169053917918" lon="10.243543813169437"><ele>532.0</ele><time>2026-03-28T16:01:11Z</time></trkpt><trkpt lat="46.251318578742314" lon="10.24320647789198"><ele>530.5</ele><time>2026-03-28T16:01:12Z</time></trkpt><trkpt lat="46.25095372954514" lon="10.242876377058323"><ele>529.0</ele><time>2026-03-28T16:01:13Z</time></trkpt><trkpt lat="46.25059348712063" lon="10.242565335546926"><ele>528.0</ele><time>2026-03-28T16:01:14Z</time></trkpt><trkpt lat="46.250257685359394" lon="10.242281960410208"><ele>527.0</ele><time>2026-03-28T16:01:15Z</time></trkpt><trkpt lat="46.249932882221074" lon="10.242025630451614"><ele>526.5</ele><time>2026-03-28T16:01:16Z</time></trkpt><trkpt lat="46.24960841744137" lon="10.241780234232614"><ele>526.0</ele><time>2026-03-28T16:01:17Z</time></trkpt><trkpt lat="46.24929882756679" lon="10.241510938182257"><ele>524.5</ele><time>2026-03-28T16:01:18Z</time></trkpt><trkpt lat="46.24898600274467" lon="10.241257845263739"><ele>523.0</ele><time>2026-03-28T16:01:19Z</time></trkpt><trkpt lat="46.24867527714324" lon="10.24100645072419"><ele>523.0</ele><time>2026-03-28T16:01:20Z</time></trkpt><trkpt lat="46.24836943141749" lon="10.240760354427122"><ele>523.0</ele><time>2026-03-28T16:01:21Z</time></trkpt><trkpt lat="46.24806616013412" lon="10.240540636560429"><ele>523.0</ele><time>2026-03-28T16:01:22Z</time></trkpt><trkpt lat="46.24777902860639" lon="10.240301506535936"><ele>523.0</ele><time>2026-03-28T16:01:23Z</time></trkpt><trkpt lat="46.24749277671508" lon="10.24007388524773"><ele>523.0</ele><time>2026-03-28T16:01:24Z</time></trkpt><trkpt lat="46.24720382880196" lon="10.239836595984073"><ele>523.0</ele><time>2026-03-28T16:01:25Z</time></trkpt><trkpt lat="46.246919399533404" lon="10.239600140145615"><ele>522.0</ele><time>2026-03-28T16:01:26Z</time></trkpt><trkpt lat="46.24663446554342" lon="10.239367615879736"><ele>521.0</ele><time>2026-03-28T16:01:27Z</time></trkpt><trkpt lat="46.24634873207612" lon="10.23914737476067"><ele>520.5</ele><time>2026-03-28T16:01:28Z</time></trkpt><trkpt lat="46.24606141721281" lon="10.238919315584477"><ele>520.0</ele><time>2026-03-28T16:01:29Z</time></trkpt><trkpt lat="46.24577249865779" lon="10.238690462767865"><ele>520.0</ele><time>2026-03-28T16:01:30Z</time></trkpt><trkpt lat="46.24549467176101" lon="10.238455443911647"><ele>520.0</ele><time>2026-03-28T16:01:31Z</time></trkpt><trkpt lat="46.24522540776105" lon="10.238214818177266"><ele>520.5</ele><time>2026-03-28T16:01:32Z</time></trkpt><trkpt lat="46.24496375049998" lon="10.237964426117388"><ele>521.0</ele><time>2026-03-28T16:01:33Z</time></trkpt><trkpt lat="46.24467363133132" lon="10.23772406521172"><ele>520.0</ele><time>2026-03-28T16:01:34Z</time></trkpt><trkpt lat="46.24438730592673" lon="10.23744083423097"><ele>519.0</ele><time>2026-03-28T16:01:34.999Z</time></trkpt><trkpt lat="46.24408502487701" lon="10.237181786106046"><ele>518.0</ele><time>2026-03-28T16:01:35.999Z</time></trkpt><trkpt lat="46.243805785849396" lon="10.23689584105025"><ele>517.0</ele><time>2026-03-28T16:01:36.999Z</time></trkpt><trkpt lat="46.24351086368716" lon="10.236606867709765"><ele>517.0</ele><time>2026-03-28T16:01:37.999Z</time></trkpt><trkpt lat="46.24321302673497" lon="10.236307659621238"><ele>517.0</ele><time>2026-03-28T16:01:38.999Z</time></trkpt><trkpt lat="46.242929522795855" lon="10.23598596243254"><ele>516.5</ele><time>2026-03-28T16:01:39.999Z</time></trkpt><trkpt lat="46.2426140527074" lon="10.235693480774165"><ele>516.0</ele><time>2026-03-28T16:01:40.999Z</time></trkpt><trkpt lat="46.24233050605454" lon="10.235380069439085"><ele>514.0</ele><time>2026-03-28T16:01:41.999Z</time></trkpt><trkpt lat="46.242039635718534" lon="10.235053131241925"><ele>512.0</ele><time>2026-03-28T16:01:42.999Z</time></trkpt><trkpt lat="46.24174854200372" lon="10.234727351308898"><ele>512.5</ele><time>2026-03-28T16:01:43.999Z</time></trkpt><trkpt lat="46.24145729018738" lon="10.234401480478798"><ele>513.0</ele><time>2026-03-28T16:01:44.999Z</time></trkpt><trkpt lat="46.2411682591591" lon="10.234070043478793"><ele>512.5</ele><time>2026-03-28T16:01:45.999Z</time></trkpt><trkpt lat="46.24088181326618" lon="10.23373769401303"><ele>512.0</ele><time>2026-03-28T16:01:46.999Z</time></trkpt><trkpt lat="46.240598927315304" lon="10.233408316459686"><ele>511.5</ele><time>2026-03-28T16:01:47.999Z</time></trkpt><trkpt lat="46.240325406321745" lon="10.233085754379873"><ele>511.0</ele><time>2026-03-28T16:01:48.999Z</time></trkpt><trkpt lat="46.24005391821026" lon="10.23276619884156"><ele>510.5</ele><time>2026-03-28T16:01:49.999Z</time></trkpt><trkpt lat="46.239797576700724" lon="10.232461049662268"><ele>510.0</ele><time>2026-03-28T16:01:50.999Z</time></trkpt><trkpt lat="46.23954539202611" lon="10.232179020148752"><ele>509.5</ele><time>2026-03-28T16:01:51.999Z</time></trkpt><trkpt lat="46.23930959929095" lon="10.231897380035852"><ele>509.0</ele><time>2026-03-28T16:01:52.999Z</time></trkpt><trkpt lat="46.239084025242555" lon="10.23162551533654"><ele>508.5</ele><time>2026-03-28T16:01:53.999Z</time></trkpt><trkpt lat="46.23886747231342" lon="10.231371251010435"><ele>508.0</ele><time>2026-03-28T16:01:54.999Z</time></trkpt><trkpt lat="46.23864811181686" lon="10.231126167105597"><ele>508.0</ele><time>2026-03-28T16:01:55.999Z</time></trkpt><trkpt lat="46.23842315710908" lon="10.23086918944205"><ele>508.0</ele><time>2026-03-28T16:01:56.999Z</time></trkpt><trkpt lat="46.23819278546003" lon="10.230611903897106"><ele>507.5</ele><time>2026-03-28T16:01:57.999Z</time></trkpt><trkpt lat="46.237960572094536" lon="10.230344937444164"><ele>507.0</ele><time>2026-03-28T16:01:58.999Z</time></trkpt><trkpt lat="46.237724913935125" lon="10.230073576236803"><ele>506.5</ele><time>2026-03-28T16:01:59.999Z</time></trkpt><trkpt lat="46.23749175259426" lon="10.22980577589902"><ele>506.0</ele><time>2026-03-28T16:02:00.999Z</time></trkpt><trkpt lat="46.237260816361044" lon="10.229546816878974"><ele>506.0</ele><time>2026-03-28T16:02:01.999Z</time></trkpt><trkpt lat="46.23703446006361" lon="10.229277583409175"><ele>506.0</ele><time>2026-03-28T16:02:02.999Z</time></trkpt><trkpt lat="46.23680666416642" lon="10.2290057293927"><ele>505.0</ele><time>2026-03-28T16:02:03.999Z</time></trkpt><trkpt lat="46.2365776637348" lon="10.228731497449392"><ele>504.0</ele><time>2026-03-28T16:02:04.999Z</time></trkpt><trkpt lat="46.236349138319824" lon="10.22845978902467"><ele>504.0</ele><time>2026-03-28T16:02:05.999Z</time></trkpt><trkpt lat="46.23611251900845" lon="10.228199137672586"><ele>504.0</ele><time>2026-03-28T16:02:06.999Z</time></trkpt><trkpt lat="46.235875285228666" lon="10.227945394113718"><ele>505.5</ele><time>2026-03-28T16:02:07.999Z</time></trkpt><trkpt lat="46.23563447413331" lon="10.227696251778301"><ele>507.0</ele><time>2026-03-28T16:02:08.999Z</time></trkpt><trkpt lat="46.235392001058116" lon="10.227454442098555"><ele>505.5</ele><time>2026-03-28T16:02:10Z</time></trkpt><trkpt lat="46.235154882691134" lon="10.227216722365192"><ele>504.0</ele><time>2026-03-28T16:02:11Z</time></trkpt><trkpt lat="46.23492111091908" lon="10.226984708524375"><ele>503.5</ele><time>2026-03-28T16:02:12Z</time></trkpt><trkpt lat="46.23468572661267" lon="10.226734636403576"><ele>503.0</ele><time>2026-03-28T16:02:13Z</time></trkpt><trkpt lat="46.2344664506197" lon="10.226536713209738"><ele>502.0</ele><time>2026-03-28T16:02:14Z</time></trkpt><trkpt lat="46.234244589941284" lon="10.226332764277581"><ele>501.0</ele><time>2026-03-28T16:02:15Z</time></trkpt><trkpt lat="46.23402753493443" lon="10.226132197009964"><ele>500.0</ele><time>2026-03-28T16:02:16Z</time></trkpt><trkpt lat="46.233815985815646" lon="10.225937538932751"><ele>499.0</ele><time>2026-03-28T16:02:17Z</time></trkpt><trkpt lat="46.2336191975055" lon="10.225748591439698"><ele>499.33333333333337</ele><time>2026-03-28T16:02:18Z</time></trkpt><trkpt lat="46.233428477499245" lon="10.22556526145597"><ele>499.66666666666663</ele><time>2026-03-28T16:02:19Z</time></trkpt><trkpt lat="46.23325865604222" lon="10.225365341075552"><ele>500.0</ele><time>2026-03-28T16:02:20Z</time></trkpt><trkpt lat="46.23309276839592" lon="10.22515971371116"><ele>500.0</ele><time>2026-03-28T16:02:21Z</time></trkpt><trkpt lat="46.232934112113256" lon="10.224940268529691"><ele>500.0</ele><time>2026-03-28T16:02:22Z</time></trkpt><trkpt lat="46.232782441299676" lon="10.224710132311948"><ele>500.0</ele><time>2026-03-28T16:02:23Z</time></trkpt><trkpt lat="46.232625668006825" lon="10.224469688344763"><ele>500.0</ele><time>2026-03-28T16:02:24Z</time></trkpt><trkpt lat="46.23247229267607" lon="10.224210029625063"><ele>500.0</ele><time>2026-03-28T16:02:25Z</time></trkpt><trkpt lat="46.23232305304083" lon="10.223929522563898"><ele>501.0</ele><time>2026-03-28T16:02:26Z</time></trkpt><trkpt lat="46.23220900540864" lon="10.22365219125541"><ele>502.0</ele><time>2026-03-28T16:02:27Z</time></trkpt><trkpt lat="46.232130883977675" lon="10.22339867788356"><ele>503.0</ele><time>2026-03-28T16:02:28Z</time></trkpt><trkpt lat="46.23208434890525" lon="10.223143689681256"><ele>503.5</ele><time>2026-03-28T16:02:29Z</time></trkpt><trkpt lat="46.23182214389519" lon="10.222774173071427"><ele>504.0</ele><time>2026-03-28T16:02:30Z</time></trkpt><trkpt lat="46.23171697000504" lon="10.22245045100023"><ele>505.0</ele><time>2026-03-28T16:02:31Z</time></trkpt><trkpt lat="46.231624844028424" lon="10.222114314175883"><ele>506.0</ele><time>2026-03-28T16:02:32Z</time></trkpt><trkpt lat="46.23153880375729" lon="10.221777819761403"><ele>515.5</ele><time>2026-03-28T16:02:33Z</time></trkpt><trkpt lat="46.23147005423841" lon="10.221442886056542"><ele>525.0</ele><time>2026-03-28T16:02:34Z</time></trkpt><trkpt lat="46.23140995068554" lon="10.221100196195758"><ele>525.0</ele><time>2026-03-28T16:02:35Z</time></trkpt><trkpt lat="46.231362609516765" lon="10.220754137767855"><ele>525.0</ele><time>2026-03-28T16:02:36Z</time></trkpt><trkpt lat="46.23133574227194" lon="10.220409311626758"><ele>524.5</ele><time>2026-03-28T16:02:37Z</time></trkpt><trkpt lat="46.23132311209099" lon="10.220061345294784"><ele>524.0</ele><time>2026-03-28T16:02:38Z</time></trkpt><trkpt lat="46.23130595307719" lon="10.219721989044078"><ele>523.5</ele><time>2026-03-28T16:02:39Z</time></trkpt><trkpt lat="46.231297921218186" lon="10.219382634449532"><ele>523.0</ele><time>2026-03-28T16:02:40Z</time></trkpt><trkpt lat="46.23128780688657" lon="10.219060075790255"><ele>522.6666666666667</ele><time>2026-03-28T16:02:41Z</time></trkpt><trkpt lat="46.23127305230486" lon="10.218754177672412"><ele>522.3333333333334</ele><time>2026-03-28T16:02:42Z</time></trkpt><trkpt lat="46.231258816542145" lon="10.218453818704246"><ele>522.0</ele><time>2026-03-28T16:02:43Z</time></trkpt><trkpt lat="46.23125095329187" lon="10.218170280834618"><ele>522.3333333333334</ele><time>2026-03-28T16:02:44Z</time></trkpt><trkpt lat="46.23124481495505" lon="10.217891872605625"><ele>522.6666666666667</ele><time>2026-03-28T16:02:45Z</time></trkpt><trkpt lat="46.23123528333832" lon="10.217611725724714"><ele>523.0</ele><time>2026-03-28T16:02:46Z</time></trkpt><trkpt lat="46.231225878176716" lon="10.217326515318545"><ele>523.6666666666667</ele><time>2026-03-28T16:02:47Z</time></trkpt><trkpt lat="46.231207533351785" lon="10.217040830155959"><ele>524.3333333333334</ele><time>2026-03-28T16:02:48Z</time></trkpt><trkpt lat="46.231186260710686" lon="10.216749741178075"><ele>525.0</ele><time>2026-03-28T16:02:49Z</time></trkpt><trkpt lat="46.23115867363727" lon="10.216437915468832"><ele>525.0</ele><time>2026-03-28T16:02:50Z</time></trkpt><trkpt lat="46.231137562896386" lon="10.216106883702563"><ele>525.0</ele><time>2026-03-28T16:02:51Z</time></trkpt><trkpt lat="46.231114797272326" lon="10.215779357593638"><ele>524.6666666666666</ele><time>2026-03-28T16:02:52Z</time></trkpt><trkpt lat="46.23110735915975" lon="10.215474756784168"><ele>524.3333333333333</ele><time>2026-03-28T16:02:53Z</time></trkpt><trkpt lat="46.23108726165896" lon="10.215188463232739"><ele>524.0</ele><time>2026-03-28T16:02:54Z</time></trkpt><trkpt lat="46.23105854539155" lon="10.214896128507279"><ele>524.3333333333333</ele><time>2026-03-28T16:02:55Z</time></trkpt><trkpt lat="46.23102623597544" lon="10.21460572182365"><ele>524.6666666666666</ele><time>2026-03-28T16:02:56Z</time></trkpt><trkpt lat="46.23099265162701" lon="10.214314186646783"><ele>525.0</ele><time>2026-03-28T16:02:57Z</time></trkpt><trkpt lat="46.23096645716106" lon="10.214032146963838"><ele>524.3333333333334</ele><time>2026-03-28T16:02:58Z</time></trkpt><trkpt lat="46.23093734892015" lon="10.213765656835584"><ele>523.6666666666667</ele><time>2026-03-28T16:02:59Z</time></trkpt><trkpt lat="46.2309008966342" lon="10.213489696312628"><ele>523.0</ele><time>2026-03-28T16:03:00Z</time></trkpt><trkpt lat="46.23086126441488" lon="10.213189717687177"><ele>522.3333333333334</ele><time>2026-03-28T16:03:01Z</time></trkpt><trkpt lat="46.23082155543642" lon="10.212873144528126"><ele>521.6666666666666</ele><time>2026-03-28T16:03:02Z</time></trkpt><trkpt lat="46.23079732377364" lon="10.212554814581624"><ele>521.0</ele><time>2026-03-28T16:03:03Z</time></trkpt><trkpt lat="46.23075286673999" lon="10.212248340125083"><ele>521.0</ele><time>2026-03-28T16:03:04Z</time></trkpt><trkpt lat="46.23071486598907" lon="10.211961727712389"><ele>521.0</ele><time>2026-03-28T16:03:05Z</time></trkpt><trkpt lat="46.23067635981904" lon="10.21168552857759"><ele>521.0</ele><time>2026-03-28T16:03:06Z</time></trkpt><trkpt lat="46.23063123054951" lon="10.21140278001785"><ele>524.0</ele><time>2026-03-28T16:03:07Z</time></trkpt><trkpt lat="46.2306057582144" lon="10.21111946389583"><ele>527.0</ele><time>2026-03-28T16:03:08Z</time></trkpt><trkpt lat="46.230567239574654" lon="10.210844420749284"><ele>530.0</ele><time>2026-03-28T16:03:09Z</time></trkpt><trkpt lat="46.23052682540041" lon="10.210555842390875"><ele>530.0</ele><time>2026-03-28T16:03:10Z</time></trkpt><trkpt lat="46.2304671719726" lon="10.210259538111485"><ele>530.0</ele><time>2026-03-28T16:03:11Z</time></trkpt><trkpt lat="46.23043698822982" lon="10.209943222214367"><ele>530.0</ele><time>2026-03-28T16:03:12Z</time></trkpt><trkpt lat="46.230392113050016" lon="10.209650928975277"><ele>530.0</ele><time>2026-03-28T16:03:13Z</time></trkpt><trkpt lat="46.23033740014499" lon="10.209391422431839"><ele>530.0</ele><time>2026-03-28T16:03:14Z</time></trkpt><trkpt lat="46.23029745675706" lon="10.209142656779617"><ele>530.0</ele><time>2026-03-28T16:03:15Z</time></trkpt><trkpt lat="46.230243793517616" lon="10.208898311132984"><ele>529.0</ele><time>2026-03-28T16:03:16Z</time></trkpt><trkpt lat="46.23020292558461" lon="10.208623033930568"><ele>528.0</ele><time>2026-03-28T16:03:17Z</time></trkpt><trkpt lat="46.2301430486833" lon="10.208332742337364"><ele>527.0</ele><time>2026-03-28T16:03:18Z</time></trkpt><trkpt lat="46.23007999083995" lon="10.208027804490843"><ele>525.6666666666666</ele><time>2026-03-28T16:03:19Z</time></trkpt><trkpt lat="46.22999976855419" lon="10.20772540787815"><ele>524.3333333333334</ele><time>2026-03-28T16:03:20Z</time></trkpt><trkpt lat="46.22993898666368" lon="10.207421056393082"><ele>523.0</ele><time>2026-03-28T16:03:21Z</time></trkpt><trkpt lat="46.22989066461037" lon="10.207116963182376"><ele>522.0</ele><time>2026-03-28T16:03:22Z</time></trkpt><trkpt lat="46.229830440684026" lon="10.206827148308566"><ele>521.0</ele><time>2026-03-28T16:03:23Z</time></trkpt><trkpt lat="46.22976314701737" lon="10.206569905008886"><ele>520.0</ele><time>2026-03-28T16:03:24Z</time></trkpt><trkpt lat="46.229714387024835" lon="10.206294713439673"><ele>523.3333333333334</ele><time>2026-03-28T16:03:25Z</time></trkpt><trkpt lat="46.2296586094401" lon="10.206015112918411"><ele>526.6666666666666</ele><time>2026-03-28T16:03:26Z</time></trkpt><trkpt lat="46.22959917874082" lon="10.205734203927689"><ele>530.0</ele><time>2026-03-28T16:03:27Z</time></trkpt><trkpt lat="46.229539446632906" lon="10.205456474027699"><ele>530.0</ele><time>2026-03-28T16:03:28Z</time></trkpt><trkpt lat="46.22947807897373" lon="10.205182657860002"><ele>530.0</ele><time>2026-03-28T16:03:29Z</time></trkpt><trkpt lat="46.22940436094439" lon="10.204920855056178"><ele>530.0</ele><time>2026-03-28T16:03:30Z</time></trkpt><trkpt lat="46.229317623360394" lon="10.204665740963637"><ele>527.6666666666666</ele><time>2026-03-28T16:03:31Z</time></trkpt><trkpt lat="46.229219391995514" lon="10.204424190956862"><ele>525.3333333333334</ele><time>2026-03-28T16:03:32Z</time></trkpt><trkpt lat="46.22911130225307" lon="10.20420250583043"><ele>523.0</ele><time>2026-03-28T16:03:33Z</time></trkpt><trkpt lat="46.22900257690133" lon="10.2039951626695"><ele>526.6666666666667</ele><time>2026-03-28T16:03:34Z</time></trkpt><trkpt lat="46.22887663339295" lon="10.20377498702304"><ele>530.3333333333334</ele><time>2026-03-28T16:03:35Z</time></trkpt><trkpt lat="46.228727608477186" lon="10.203532646660788"><ele>534.0</ele><time>2026-03-28T16:03:36Z</time></trkpt><trkpt lat="46.22860941033749" lon="10.203227715279924"><ele>531.0</ele><time>2026-03-28T16:03:37Z</time></trkpt><trkpt lat="46.228462344629364" lon="10.202943895891622"><ele>528.0</ele><time>2026-03-28T16:03:38Z</time></trkpt><trkpt lat="46.2283133207388" lon="10.202673405199235"><ele>528.0</ele><time>2026-03-28T16:03:39Z</time></trkpt><trkpt lat="46.22821110495703" lon="10.202367914758032"><ele>528.0</ele><time>2026-03-28T16:03:40Z</time></trkpt><trkpt lat="46.228131118885585" lon="10.202079690755752"><ele>541.6666666666666</ele><time>2026-03-28T16:03:41Z</time></trkpt><trkpt lat="46.22806458834723" lon="10.201792873428538"><ele>555.3333333333333</ele><time>2026-03-28T16:03:42Z</time></trkpt><trkpt lat="46.228038359227156" lon="10.201488469526023"><ele>569.0</ele><time>2026-03-28T16:03:43Z</time></trkpt><trkpt lat="46.227994783558486" lon="10.201222497477177"><ele>569.0</ele><time>2026-03-28T16:03:44Z</time></trkpt><trkpt lat="46.22796930941153" lon="10.200958673032034"><ele>569.0</ele><time>2026-03-28T16:03:45Z</time></trkpt><trkpt lat="46.22793859895101" lon="10.200708205774124"><ele>569.0</ele><time>2026-03-28T16:03:46Z</time></trkpt><trkpt lat="46.22790849823389" lon="10.200470375957385"><ele>566.3333333333333</ele><time>2026-03-28T16:03:47Z</time></trkpt><trkpt lat="46.22788107357265" lon="10.200226512995501"><ele>563.6666666666666</ele><time>2026-03-28T16:03:48Z</time></trkpt><trkpt lat="46.227851344461044" lon="10.199987142994669"><ele>561.0</ele><time>2026-03-28T16:03:49Z</time></trkpt><trkpt lat="46.22778909928675" lon="10.199758699484594"><ele>559.25</ele><time>2026-03-28T16:03:50Z</time></trkpt><trkpt lat="46.22772468254892" lon="10.19956931746856"><ele>557.5</ele><time>2026-03-28T16:03:51Z</time></trkpt><trkpt lat="46.2276502681731" lon="10.199383547520213"><ele>555.75</ele><time>2026-03-28T16:03:52Z</time></trkpt><trkpt lat="46.22760168565815" lon="10.19921533572344"><ele>554.0</ele><time>2026-03-28T16:03:53Z</time></trkpt><trkpt lat="46.22755231321378" lon="10.199062643949246"><ele>552.0</ele><time>2026-03-28T16:03:54Z</time></trkpt><trkpt lat="46.22750287747979" lon="10.198915973724631"><ele>550.0</ele><time>2026-03-28T16:03:55Z</time></trkpt><trkpt lat="46.22745096368036" lon="10.19873346091435"><ele>548.0</ele><time>2026-03-28T16:03:56Z</time></trkpt><trkpt lat="46.2273838422073" lon="10.198562676062172"><ele>546.0</ele><time>2026-03-28T16:03:57Z</time></trkpt><trkpt lat="46.227310804359156" lon="10.198416140131727"><ele>547.25</ele><time>2026-03-28T16:03:58Z</time></trkpt><trkpt lat="46.22722758454107" lon="10.198299827676639"><ele>548.5</ele><time>2026-03-28T16:03:59Z</time></trkpt><trkpt lat="46.22713108253722" lon="10.198192696637731"><ele>549.75</ele><time>2026-03-28T16:04:00Z</time></trkpt><trkpt lat="46.22702705046297" lon="10.19808425939372"><ele>551.0</ele><time>2026-03-28T16:04:01Z</time></trkpt><trkpt lat="46.22690983125279" lon="10.197984575939797"><ele>553.0</ele><time>2026-03-28T16:04:02Z</time></trkpt><trkpt lat="46.22677976334416" lon="10.197889458933176"><ele>555.0</ele><time>2026-03-28T16:04:02.999Z</time></trkpt><trkpt lat="46.2266479910156" lon="10.197797255165629"><ele>557.0</ele><time>2026-03-28T16:04:03.999Z</time></trkpt><trkpt lat="46.22651786619382" lon="10.197703177062852"><ele>559.0</ele><time>2026-03-28T16:04:04.999Z</time></trkpt><trkpt lat="46.2263940515924" lon="10.197606670913153"><ele>559.0</ele><time>2026-03-28T16:04:05.999Z</time></trkpt><trkpt lat="46.22626929543265" lon="10.197499317152083"><ele>559.0</ele><time>2026-03-28T16:04:06.999Z</time></trkpt><trkpt lat="46.226138787740375" lon="10.197388538168836"><ele>559.0</ele><time>2026-03-28T16:04:07.999Z</time></trkpt><trkpt lat="46.22601967867754" lon="10.197253615210121"><ele>559.0</ele><time>2026-03-28T16:04:08.999Z</time></trkpt><trkpt lat="46.22591670122494" lon="10.197091724367803"><ele>557.5</ele><time>2026-03-28T16:04:09.999Z</time></trkpt><trkpt lat="46.225831918237084" lon="10.196910796576521"><ele>556.0</ele><time>2026-03-28T16:04:10.999Z</time></trkpt><trkpt lat="46.225781687290706" lon="10.196707318747082"><ele>554.5</ele><time>2026-03-28T16:04:11.999Z</time></trkpt><trkpt lat="46.22575403623863" lon="10.196504950722295"><ele>553.0</ele><time>2026-03-28T16:04:12.999Z</time></trkpt><trkpt lat="46.22574488428316" lon="10.196295233620075"><ele>551.3333333333334</ele><time>2026-03-28T16:04:13.999Z</time></trkpt><trkpt lat="46.22573593644671" lon="10.196086053789676"><ele>549.6666666666666</ele><time>2026-03-28T16:04:14.999Z</time></trkpt><trkpt lat="46.22574663121036" lon="10.195859459769354"><ele>548.0</ele><time>2026-03-28T16:04:15.999Z</time></trkpt><trkpt lat="46.225752380410036" lon="10.19563596999885"><ele>545.3333333333333</ele><time>2026-03-28T16:04:16.999Z</time></trkpt><trkpt lat="46.22575084900948" lon="10.19540609633203"><ele>542.6666666666666</ele><time>2026-03-28T16:04:17.999Z</time></trkpt><trkpt lat="46.225739802700744" lon="10.195164875729242"><ele>540.0</ele><time>2026-03-28T16:04:18.999Z</time></trkpt><trkpt lat="46.22561487361296" lon="10.194917557217805"><ele>545.0</ele><time>2026-03-28T16:04:19.999Z</time></trkpt><trkpt lat="46.225532070909736" lon="10.194685486252915"><ele>550.0</ele><time>2026-03-28T16:04:20.999Z</time></trkpt><trkpt lat="46.225445165578755" lon="10.194459498283491"><ele>555.0</ele><time>2026-03-28T16:04:21.999Z</time></trkpt><trkpt lat="46.22535948678311" lon="10.194241717669277"><ele>555.0</ele><time>2026-03-28T16:04:22.999Z</time></trkpt><trkpt lat="46.225280312235626" lon="10.194022988109332"><ele>555.0</ele><time>2026-03-28T16:04:23.999Z</time></trkpt><trkpt lat="46.22520863206611" lon="10.193818337925512"><ele>555.0</ele><time>2026-03-28T16:04:24.999Z</time></trkpt><trkpt lat="46.2251323402298" lon="10.193604605040647"><ele>552.0</ele><time>2026-03-28T16:04:25.999Z</time></trkpt><trkpt lat="46.22505681162013" lon="10.193394262955847"><ele>549.0</ele><time>2026-03-28T16:04:26.999Z</time></trkpt><trkpt lat="46.224971567216365" lon="10.193174983978926"><ele>546.0</ele><time>2026-03-28T16:04:27.999Z</time></trkpt><trkpt lat="46.22486750556895" lon="10.192973800171572"><ele>548.3333333333334</ele><time>2026-03-28T16:04:28.999Z</time></trkpt><trkpt lat="46.22473400269986" lon="10.192790590954175"><ele>550.6666666666667</ele><time>2026-03-28T16:04:30Z</time></trkpt><trkpt lat="46.224623139739336" lon="10.192629053038262"><ele>553.0</ele><time>2026-03-28T16:04:31Z</time></trkpt><trkpt lat="46.22449532558968" lon="10.192478973373705"><ele>550.6666666666667</ele><time>2026-03-28T16:04:32Z</time></trkpt><trkpt lat="46.22438593951947" lon="10.192314891657777"><ele>548.3333333333334</ele><time>2026-03-28T16:04:33Z</time></trkpt><trkpt lat="46.224275852053985" lon="10.192159960753175"><ele>546.0</ele><time>2026-03-28T16:04:34Z</time></trkpt><trkpt lat="46.22418028050898" lon="10.191990245454614"><ele>546.0</ele><time>2026-03-28T16:04:35Z</time></trkpt><trkpt lat="46.22410232848278" lon="10.191816833956931"><ele>546.0</ele><time>2026-03-28T16:04:36Z</time></trkpt><trkpt lat="46.224036857172614" lon="10.191630523233252"><ele>546.0</ele><time>2026-03-28T16:04:37Z</time></trkpt><trkpt lat="46.22398028337311" lon="10.191441990065087"><ele>546.0</ele><time>2026-03-28T16:04:38Z</time></trkpt><trkpt lat="46.22392828775969" lon="10.191261848307203"><ele>545.75</ele><time>2026-03-28T16:04:39Z</time></trkpt><trkpt lat="46.22387439184865" lon="10.191080954944233"><ele>545.5</ele><time>2026-03-28T16:04:40Z</time></trkpt><trkpt lat="46.22379878219478" lon="10.190917260104316"><ele>545.25</ele><time>2026-03-28T16:04:41Z</time></trkpt><trkpt lat="46.22372641645847" lon="10.190744430947511"><ele>545.0</ele><time>2026-03-28T16:04:42Z</time></trkpt><trkpt lat="46.22363569722845" lon="10.190576352521717"><ele>543.3333333333333</ele><time>2026-03-28T16:04:43Z</time></trkpt><trkpt lat="46.22353295637522" lon="10.190424231597142"><ele>541.6666666666666</ele><time>2026-03-28T16:04:44Z</time></trkpt><trkpt lat="46.22339731998503" lon="10.190285423870861"><ele>540.0</ele><time>2026-03-28T16:04:45Z</time></trkpt><trkpt lat="46.22324976696684" lon="10.190107102248254"><ele>542.0</ele><time>2026-03-28T16:04:46Z</time></trkpt><trkpt lat="46.22306619149521" lon="10.1899206466745"><ele>544.0</ele><time>2026-03-28T16:04:47Z</time></trkpt><trkpt lat="46.22286657651692" lon="10.189715894370453"><ele>539.0</ele><time>2026-03-28T16:04:48Z</time></trkpt><trkpt lat="46.222664231316976" lon="10.189508171847711"><ele>534.0</ele><time>2026-03-28T16:04:49Z</time></trkpt><trkpt lat="46.22248739976541" lon="10.189326400690923"><ele>534.0</ele><time>2026-03-28T16:04:50Z</time></trkpt><trkpt lat="46.22231621840709" lon="10.189178100361525"><ele>534.0</ele><time>2026-03-28T16:04:51Z</time></trkpt><trkpt lat="46.22216463616701" lon="10.189014527459381"><ele>534.0</ele><time>2026-03-28T16:04:52Z</time></trkpt><trkpt lat="46.22202174183496" lon="10.188861469306062"><ele>532.0</ele><time>2026-03-28T16:04:53Z</time></trkpt><trkpt lat="46.221903513872874" lon="10.188701921249034"><ele>530.0</ele><time>2026-03-28T16:04:54Z</time></trkpt><trkpt lat="46.2217813647677" lon="10.188591193242965"><ele>528.0</ele><time>2026-03-28T16:04:55Z</time></trkpt><trkpt lat="46.22167586985752" lon="10.18847072674639"><ele>526.0</ele><time>2026-03-28T16:04:56Z</time></trkpt><trkpt lat="46.22156817629785" lon="10.188355341982822"><ele>526.6666666666667</ele><time>2026-03-28T16:04:57Z</time></trkpt><trkpt lat="46.22145905372991" lon="10.188203759085633"><ele>527.3333333333334</ele><time>2026-03-28T16:04:58Z</time></trkpt><trkpt lat="46.22131469108291" lon="10.188041756293671"><ele>528.0</ele><time>2026-03-28T16:04:59Z</time></trkpt><trkpt lat="46.221156242052466" lon="10.187893957377742"><ele>525.6666666666666</ele><time>2026-03-28T16:05:00Z</time></trkpt><trkpt lat="46.22100904292605" lon="10.187716464075217"><ele>523.3333333333333</ele><time>2026-03-28T16:05:01Z</time></trkpt><trkpt lat="46.22085308171268" lon="10.18754359645011"><ele>521.0</ele><time>2026-03-28T16:05:02Z</time></trkpt><trkpt lat="46.22070046189316" lon="10.187378064620807"><ele>520.0</ele><time>2026-03-28T16:05:03Z</time></trkpt><trkpt lat="46.22055467717657" lon="10.18721464898489"><ele>519.0</ele><time>2026-03-28T16:05:04Z</time></trkpt><trkpt lat="46.2204128280982" lon="10.18705251130978"><ele>518.0</ele><time>2026-03-28T16:05:05Z</time></trkpt><trkpt lat="46.22027298412182" lon="10.186898357679526"><ele>518.0</ele><time>2026-03-28T16:05:06Z</time></trkpt><trkpt lat="46.22014098155574" lon="10.186749971226227"><ele>518.0</ele><time>2026-03-28T16:05:07Z</time></trkpt><trkpt lat="46.22001441595657" lon="10.186583075975715"><ele>518.0</ele><time>2026-03-28T16:05:08Z</time></trkpt><trkpt lat="46.2198832007278" lon="10.186435700692535"><ele>517.3333333333333</ele><time>2026-03-28T16:05:09Z</time></trkpt><trkpt lat="46.21975553403674" lon="10.186292305469713"><ele>516.6666666666666</ele><time>2026-03-28T16:05:10Z</time></trkpt><trkpt lat="46.21962161953021" lon="10.186168687746799"><ele>516.0</ele><time>2026-03-28T16:05:11Z</time></trkpt><trkpt lat="46.21951175724256" lon="10.186032954933847"><ele>516.0</ele><time>2026-03-28T16:05:12Z</time></trkpt><trkpt lat="46.21941221007307" lon="10.185901948536484"><ele>516.0</ele><time>2026-03-28T16:05:13Z</time></trkpt><trkpt lat="46.21931704912998" lon="10.185777300443632"><ele>516.0</ele><time>2026-03-28T16:05:14Z</time></trkpt><trkpt lat="46.21922613086878" lon="10.185601186258005"><ele>516.0</ele><time>2026-03-28T16:05:15Z</time></trkpt><trkpt lat="46.219108586483905" lon="10.185414333511522"><ele>513.6666666666666</ele><time>2026-03-28T16:05:16Z</time></trkpt><trkpt lat="46.21897384970439" lon="10.185263471897452"><ele>511.3333333333333</ele><time>2026-03-28T16:05:17Z</time></trkpt><trkpt lat="46.218846542911876" lon="10.185120929457526"><ele>509.0</ele><time>2026-03-28T16:05:18Z</time></trkpt><trkpt lat="46.21856420180628" lon="10.18495662595397"><ele>507.0</ele><time>2026-03-28T16:05:19Z</time></trkpt><trkpt lat="46.21843029644728" lon="10.184806695094094"><ele>505.0</ele><time>2026-03-28T16:05:20Z</time></trkpt><trkpt lat="46.21831142116789" lon="10.184675746516053"><ele>503.0</ele><time>2026-03-28T16:05:21Z</time></trkpt><trkpt lat="46.21820075376616" lon="10.184551726042246"><ele>502.75</ele><time>2026-03-28T16:05:22Z</time></trkpt><trkpt lat="46.21808927364784" lon="10.184427310769644"><ele>502.5</ele><time>2026-03-28T16:05:23Z</time></trkpt><trkpt lat="46.217976224608066" lon="10.184301116567369"><ele>502.25</ele><time>2026-03-28T16:05:24Z</time></trkpt><trkpt lat="46.21785719760945" lon="10.184167671022864"><ele>502.0</ele><time>2026-03-28T16:05:25Z</time></trkpt><trkpt lat="46.217735734243256" lon="10.184035020531775"><ele>499.6666666666667</ele><time>2026-03-28T16:05:26Z</time></trkpt><trkpt lat="46.217611811551265" lon="10.183898121501473"><ele>497.33333333333337</ele><time>2026-03-28T16:05:27Z</time></trkpt><trkpt lat="46.21748801246314" lon="10.183761432084312"><ele>495.0</ele><time>2026-03-28T16:05:28Z</time></trkpt><trkpt lat="46.217355039060244" lon="10.183614613090866"><ele>494.0</ele><time>2026-03-28T16:05:29Z</time></trkpt><trkpt lat="46.217210725031" lon="10.183484260472431"><ele>493.0</ele><time>2026-03-28T16:05:30Z</time></trkpt><trkpt lat="46.21708813926345" lon="10.183319922864328"><ele>492.0</ele><time>2026-03-28T16:05:31Z</time></trkpt><trkpt lat="46.21696135499525" lon="10.183178960484048"><ele>489.33333333333337</ele><time>2026-03-28T16:05:32Z</time></trkpt><trkpt lat="46.216837484007385" lon="10.183040569637788"><ele>486.6666666666667</ele><time>2026-03-28T16:05:33Z</time></trkpt><trkpt lat="46.2167068629246" lon="10.182922126171766"><ele>484.0</ele><time>2026-03-28T16:05:34Z</time></trkpt><trkpt lat="46.216587993479266" lon="10.182786290309648"><ele>484.25</ele><time>2026-03-28T16:05:35Z</time></trkpt><trkpt lat="46.21647524198052" lon="10.182658053954814"><ele>484.5</ele><time>2026-03-28T16:05:36Z</time></trkpt><trkpt lat="46.21635997611323" lon="10.182530222273483"><ele>484.75</ele><time>2026-03-28T16:05:37Z</time></trkpt><trkpt lat="46.216246845951076" lon="10.18240517212685"><ele>485.0</ele><time>2026-03-28T16:05:38Z</time></trkpt><trkpt lat="46.21613200618698" lon="10.182277595120029"><ele>482.3333333333333</ele><time>2026-03-28T16:05:39Z</time></trkpt><trkpt lat="46.216014796064684" lon="10.182148427432908"><ele>479.66666666666663</ele><time>2026-03-28T16:05:40Z</time></trkpt><trkpt lat="46.215895172296044" lon="10.182015498429058"><ele>477.0</ele><time>2026-03-28T16:05:41Z</time></trkpt><trkpt lat="46.21577046214536" lon="10.181878142663466"><ele>476.66666666666663</ele><time>2026-03-28T16:05:42Z</time></trkpt><trkpt lat="46.21564899275162" lon="10.181745921640562"><ele>476.3333333333333</ele><time>2026-03-28T16:05:43Z</time></trkpt><trkpt lat="46.21552700529688" lon="10.181612683239365"><ele>476.0</ele><time>2026-03-28T16:05:44Z</time></trkpt><trkpt lat="46.215408330917384" lon="10.181479565485208"><ele>474.3333333333333</ele><time>2026-03-28T16:05:45Z</time></trkpt><trkpt lat="46.21528786539213" lon="10.181343640454166"><ele>472.66666666666663</ele><time>2026-03-28T16:05:45.999Z</time></trkpt><trkpt lat="46.215157432079735" lon="10.181196427067457"><ele>471.0</ele><time>2026-03-28T16:05:46.999Z</time></trkpt><trkpt lat="46.215014135384116" lon="10.181027520413943"><ele>471.0</ele><time>2026-03-28T16:05:47.999Z</time></trkpt><trkpt lat="46.214837016443795" lon="10.180832960296051"><ele>471.0</ele><time>2026-03-28T16:05:48.999Z</time></trkpt><trkpt lat="46.214636781983025" lon="10.180608704115976"><ele>467.0</ele><time>2026-03-28T16:05:49.999Z</time></trkpt><trkpt lat="46.21444238057004" lon="10.180393562255697"><ele>463.0</ele><time>2026-03-28T16:05:50.999Z</time></trkpt><trkpt lat="46.21427167476724" lon="10.18020464399081"><ele>463.0</ele><time>2026-03-28T16:05:51.999Z</time></trkpt><trkpt lat="46.214105372239466" lon="10.1800376103718"><ele>463.0</ele><time>2026-03-28T16:05:52.999Z</time></trkpt><trkpt lat="46.21394849180408" lon="10.179858549657986"><ele>463.0</ele><time>2026-03-28T16:05:53.999Z</time></trkpt><trkpt lat="46.213822320440414" lon="10.179688671424644"><ele>462.25</ele><time>2026-03-28T16:05:54.999Z</time></trkpt><trkpt lat="46.21373763511299" lon="10.179500874751401"><ele>461.5</ele><time>2026-03-28T16:05:55.999Z</time></trkpt><trkpt lat="46.21365855110311" lon="10.179328767287101"><ele>460.75</ele><time>2026-03-28T16:05:56.999Z</time></trkpt><trkpt lat="46.21359687501971" lon="10.179155913766742"><ele>460.0</ele><time>2026-03-28T16:05:57.999Z</time></trkpt><trkpt lat="46.213534499280364" lon="10.178980116221535"><ele>458.25</ele><time>2026-03-28T16:05:58.999Z</time></trkpt><trkpt lat="46.21349298370074" lon="10.178792045260353"><ele>456.5</ele><time>2026-03-28T16:05:59.999Z</time></trkpt><trkpt lat="46.21345845849996" lon="10.178601856221723"><ele>454.75</ele><time>2026-03-28T16:06:00.999Z</time></trkpt><trkpt lat="46.213437673671514" lon="10.17842758648592"><ele>453.0</ele><time>2026-03-28T16:06:01.999Z</time></trkpt><trkpt lat="46.21344810825007" lon="10.178250642658282"><ele>452.0</ele><time>2026-03-28T16:06:02.999Z</time></trkpt><trkpt lat="46.21345233856674" lon="10.17808735862332"><ele>451.0</ele><time>2026-03-28T16:06:03.999Z</time></trkpt><trkpt lat="46.21345329015626" lon="10.177917292662945"><ele>450.0</ele><time>2026-03-28T16:06:04.999Z</time></trkpt><trkpt lat="46.213474073201326" lon="10.177745947541583"><ele>449.0</ele><time>2026-03-28T16:06:05.999Z</time></trkpt><trkpt lat="46.213520472025095" lon="10.17758096183798"><ele>449.0</ele><time>2026-03-28T16:06:06.999Z</time></trkpt><trkpt lat="46.213557193656484" lon="10.17741155331544"><ele>449.0</ele><time>2026-03-28T16:06:07.999Z</time></trkpt><trkpt lat="46.21360304300569" lon="10.177225013738134"><ele>449.0</ele><time>2026-03-28T16:06:08.999Z</time></trkpt><trkpt lat="46.21363264390899" lon="10.177015002367249"><ele>449.0</ele><time>2026-03-28T16:06:09.999Z</time></trkpt><trkpt lat="46.21368067893057" lon="10.176826488193838"><ele>448.5</ele><time>2026-03-28T16:06:10.999Z</time></trkpt><trkpt lat="46.213726780788846" lon="10.176648978448025"><ele>448.0</ele><time>2026-03-28T16:06:11.999Z</time></trkpt><trkpt lat="46.21376523333471" lon="10.176484229462947"><ele>447.5</ele><time>2026-03-28T16:06:12.999Z</time></trkpt><trkpt lat="46.21381778834448" lon="10.17634336026634"><ele>447.0</ele><time>2026-03-28T16:06:13.999Z</time></trkpt><trkpt lat="46.21385031969679" lon="10.17620976365287"><ele>447.0</ele><time>2026-03-28T16:06:14.999Z</time></trkpt><trkpt lat="46.21387733294712" lon="10.176098828291376"><ele>447.0</ele><time>2026-03-28T16:06:15.999Z</time></trkpt><trkpt lat="46.21387952812621" lon="10.175983025311693"><ele>447.0</ele><time>2026-03-28T16:06:16.999Z</time></trkpt><trkpt lat="46.21390303551093" lon="10.175883226144093"><ele>447.0</ele><time>2026-03-28T16:06:17.999Z</time></trkpt><trkpt lat="46.21394622810396" lon="10.175718482333558"><ele>447.0</ele><time>2026-03-28T16:06:19.999Z</time></trkpt><trkpt lat="46.21399486627259" lon="10.175611705796607"><ele>447.0</ele><time>2026-03-28T16:06:20.999Z</time></trkpt><trkpt lat="46.214027469528354" lon="10.175476286568736"><ele>446.0</ele><time>2026-03-28T16:06:21.999Z</time></trkpt><trkpt lat="46.21406111796184" lon="10.175336673961388"><ele>445.0</ele><time>2026-03-28T16:06:22.999Z</time></trkpt><trkpt lat="46.21408839790615" lon="10.175224015611844"><ele>444.0</ele><time>2026-03-28T16:06:23.999Z</time></trkpt><trkpt lat="46.21411862288272" lon="10.175099195110949"><ele>443.0</ele><time>2026-03-28T16:06:25.999Z</time></trkpt><trkpt lat="46.21414731729605" lon="10.174980695386754"><ele>442.0</ele><time>2026-03-28T16:06:27.999Z</time></trkpt><trkpt lat="46.21416854813923" lon="10.174893018080407"><ele>441.0</ele><time>2026-03-28T16:06:28.999Z</time></trkpt><trkpt lat="46.21419487401032" lon="10.174784299760308"><ele>441.0</ele><time>2026-03-28T16:06:29.999Z</time></trkpt><trkpt lat="46.21422322550444" lon="10.174667216176974"><ele>441.0</ele><time>2026-03-28T16:06:30.999Z</time></trkpt><trkpt lat="46.21424907796189" lon="10.174560452943883"><ele>441.0</ele><time>2026-03-28T16:06:31.999Z</time></trkpt><trkpt lat="46.21427610745287" lon="10.174448828887686"><ele>441.0</ele><time>2026-03-28T16:06:32.999Z</time></trkpt><trkpt lat="46.21429901731301" lon="10.174354217607664"><ele>441.0</ele><time>2026-03-28T16:06:33.999Z</time></trkpt><trkpt lat="46.21432584044834" lon="10.174242632095961"><ele>441.0</ele><time>2026-03-28T16:06:35.999Z</time></trkpt><trkpt lat="46.214341592292115" lon="10.174087158007397"><ele>440.8333333333333</ele><time>2026-03-28T16:06:37.999Z</time></trkpt><trkpt lat="46.214371709183325" lon="10.173987063959155"><ele>440.66666666666663</ele><time>2026-03-28T16:06:38.999Z</time></trkpt><trkpt lat="46.214394472094746" lon="10.173878484906332"><ele>440.5</ele><time>2026-03-28T16:06:39.999Z</time></trkpt><trkpt lat="46.21441606118524" lon="10.173773710723005"><ele>440.3333333333333</ele><time>2026-03-28T16:06:40.999Z</time></trkpt><trkpt lat="46.2144678321844" lon="10.17365780270701"><ele>440.16666666666663</ele><time>2026-03-28T16:06:41.999Z</time></trkpt><trkpt lat="46.21449058116649" lon="10.173509550753401"><ele>440.0</ele><time>2026-03-28T16:06:42.999Z</time></trkpt><trkpt lat="46.21454055118705" lon="10.173361919546762"><ele>440.0</ele><time>2026-03-28T16:06:43.999Z</time></trkpt><trkpt lat="46.214578329317035" lon="10.173213214417194"><ele>440.0</ele><time>2026-03-28T16:06:44.999Z</time></trkpt><trkpt lat="46.21462243831435" lon="10.173090601051214"><ele>440.0</ele><time>2026-03-28T16:06:45.999Z</time></trkpt><trkpt lat="46.214654455539055" lon="10.17296068329514"><ele>440.0</ele><time>2026-03-28T16:06:46.999Z</time></trkpt><trkpt lat="46.21470567946184" lon="10.172841142466302"><ele>440.0</ele><time>2026-03-28T16:06:47.999Z</time></trkpt><trkpt lat="46.21476144720771" lon="10.172742095463837"><ele>439.49999999999994</ele><time>2026-03-28T16:06:48.999Z</time></trkpt><trkpt lat="46.2148116238211" lon="10.172644004797647"><ele>439.0</ele><time>2026-03-28T16:06:49.999Z</time></trkpt><trkpt lat="46.21486745133536" lon="10.172539798039839"><ele>438.5</ele><time>2026-03-28T16:06:51Z</time></trkpt><trkpt lat="46.214929817213616" lon="10.172451543021488"><ele>438.0</ele><time>2026-03-28T16:06:52Z</time></trkpt><trkpt lat="46.214995695097514" lon="10.172355653326237"><ele>437.49999999999994</ele><time>2026-03-28T16:06:53Z</time></trkpt><trkpt lat="46.21505772307303" lon="10.172265997539169"><ele>437.0</ele><time>2026-03-28T16:06:54Z</time></trkpt><trkpt lat="46.215143159738155" lon="10.17218570082889"><ele>437.0</ele><time>2026-03-28T16:06:55Z</time></trkpt><trkpt lat="46.215211893093375" lon="10.172075357450334"><ele>437.00000000000006</ele><time>2026-03-28T16:06:56Z</time></trkpt><trkpt lat="46.21529705613464" lon="10.17199599567285"><ele>437.00000000000006</ele><time>2026-03-28T16:06:57Z</time></trkpt><trkpt lat="46.21535898875175" lon="10.171892336030067"><ele>437.0</ele><time>2026-03-28T16:06:58Z</time></trkpt><trkpt lat="46.215436418383945" lon="10.171818564787806"><ele>437.0</ele><time>2026-03-28T16:06:59Z</time></trkpt><trkpt lat="46.215513612596055" lon="10.171753268762963"><ele>437.0</ele><time>2026-03-28T16:07:00Z</time></trkpt><trkpt lat="46.215560944994905" lon="10.171664482696334"><ele>437.00000000000006</ele><time>2026-03-28T16:07:02Z</time></trkpt><trkpt lat="46.21560870128659" lon="10.171594575316574"><ele>437.00000000000006</ele><time>2026-03-28T16:07:03Z</time></trkpt><trkpt lat="46.2156783261523" lon="10.171492126401295"><ele>437.0</ele><time>2026-03-28T16:07:05Z</time></trkpt><trkpt lat="46.215619360363114" lon="10.1712846471228"><ele>437.0</ele><time>2026-03-28T16:07:09Z</time></trkpt><trkpt lat="46.21556721211914" lon="10.17120452845163"><ele>436.49999999999994</ele><time>2026-03-28T16:07:10Z</time></trkpt><trkpt lat="46.21551021917035" lon="10.171118302395142"><ele>436.0</ele><time>2026-03-28T16:07:11Z</time></trkpt><trkpt lat="46.215462012636436" lon="10.171031995920579"><ele>435.5</ele><time>2026-03-28T16:07:12Z</time></trkpt><trkpt lat="46.215417265350595" lon="10.170950241627796"><ele>435.0</ele><time>2026-03-28T16:07:13Z</time></trkpt><trkpt lat="46.21536692425942" lon="10.17085869458837"><ele>434.49999999999994</ele><time>2026-03-28T16:07:14Z</time></trkpt><trkpt lat="46.21531143516572" lon="10.170764273325748"><ele>434.0</ele><time>2026-03-28T16:07:15Z</time></trkpt><trkpt lat="46.21525875271584" lon="10.17068037937152"><ele>433.6</ele><time>2026-03-28T16:07:16Z</time></trkpt><trkpt lat="46.215206895019826" lon="10.170585249349305"><ele>433.2</ele><time>2026-03-28T16:07:17Z</time></trkpt><trkpt lat="46.215156151027564" lon="10.17049180685487"><ele>432.80000000000007</ele><time>2026-03-28T16:07:18Z</time></trkpt><trkpt lat="46.21508640037681" lon="10.170373324524281"><ele>432.40000000000003</ele><time>2026-03-28T16:07:19Z</time></trkpt><trkpt lat="46.2150225591716" lon="10.170258115346694"><ele>432.0</ele><time>2026-03-28T16:07:20Z</time></trkpt><trkpt lat="46.214951627379" lon="10.170136340703722"><ele>432.0</ele><time>2026-03-28T16:07:21Z</time></trkpt><trkpt lat="46.2148849884162" lon="10.170018491624917"><ele>432.00000000000006</ele><time>2026-03-28T16:07:22Z</time></trkpt><trkpt lat="46.214815960136995" lon="10.169903367007237"><ele>432.00000000000006</ele><time>2026-03-28T16:07:23Z</time></trkpt><trkpt lat="46.21475844347721" lon="10.169779500606959"><ele>432.0</ele><time>2026-03-28T16:07:24Z</time></trkpt><trkpt lat="46.21469136340018" lon="10.169661354173476"><ele>432.0</ele><time>2026-03-28T16:07:25Z</time></trkpt><trkpt lat="46.214624244449624" lon="10.16955756092664"><ele>431.5</ele><time>2026-03-28T16:07:26Z</time></trkpt><trkpt lat="46.2145701398002" lon="10.169462748199562"><ele>431.0</ele><time>2026-03-28T16:07:27Z</time></trkpt><trkpt lat="46.21451415600026" lon="10.169371881503793"><ele>430.5</ele><time>2026-03-28T16:07:28Z</time></trkpt><trkpt lat="46.2144629622839" lon="10.16928829554523"><ele>430.0</ele><time>2026-03-28T16:07:29Z</time></trkpt><trkpt lat="46.21442279055255" lon="10.169201090917008"><ele>429.5</ele><time>2026-03-28T16:07:30Z</time></trkpt><trkpt lat="46.21438629770878" lon="10.169113105550725"><ele>429.0</ele><time>2026-03-28T16:07:31Z</time></trkpt><trkpt lat="46.2143549593573" lon="10.16902489076123"><ele>429.0</ele><time>2026-03-28T16:07:32Z</time></trkpt><trkpt lat="46.214323744770795" lon="10.16885566621986"><ele>429.0</ele><time>2026-03-28T16:07:34Z</time></trkpt><trkpt lat="46.21427149409395" lon="10.16869783722821"><ele>429.0</ele><time>2026-03-28T16:07:36Z</time></trkpt><trkpt lat="46.21426514354623" lon="10.168516528564272"><ele>429.0</ele><time>2026-03-28T16:07:38Z</time></trkpt><trkpt lat="46.21413655574506" lon="10.16849216416596"><ele>429.0</ele><time>2026-03-28T16:07:40Z</time></trkpt><trkpt lat="46.214052032726144" lon="10.168510711650157"><ele>429.0</ele><time>2026-03-28T16:07:41Z</time></trkpt><trkpt lat="46.21396393994216" lon="10.168471841519814"><ele>429.0</ele><time>2026-03-28T16:07:42Z</time></trkpt><trkpt lat="46.21390123170062" lon="10.168366688469426"><ele>429.0</ele><time>2026-03-28T16:07:43Z</time></trkpt><trkpt lat="46.21382620670972" lon="10.168248738236388"><ele>429.0</ele><time>2026-03-28T16:07:44Z</time></trkpt><trkpt lat="46.21374681283213" lon="10.168100299360104"><ele>428.66666666666663</ele><time>2026-03-28T16:07:45Z</time></trkpt><trkpt lat="46.21365160668148" lon="10.167933908047884"><ele>428.3333333333333</ele><time>2026-03-28T16:07:46Z</time></trkpt><trkpt lat="46.213545692606644" lon="10.167752045546264"><ele>428.0</ele><time>2026-03-28T16:07:47Z</time></trkpt><trkpt lat="46.21343607191589" lon="10.167552285913787"><ele>428.0</ele><time>2026-03-28T16:07:48Z</time></trkpt><trkpt lat="46.2133235867403" lon="10.167340131494623"><ele>428.0</ele><time>2026-03-28T16:07:49Z</time></trkpt><trkpt lat="46.21320530222949" lon="10.167122662164775"><ele>428.0</ele><time>2026-03-28T16:07:50Z</time></trkpt><trkpt lat="46.21308431606705" lon="10.166913908527036"><ele>427.66666666666663</ele><time>2026-03-28T16:07:51Z</time></trkpt><trkpt lat="46.2129671785567" lon="10.166723747455753"><ele>427.33333333333337</ele><time>2026-03-28T16:07:52Z</time></trkpt><trkpt lat="46.21286551417489" lon="10.16655878055055"><ele>427.0</ele><time>2026-03-28T16:07:53Z</time></trkpt><trkpt lat="46.21277988913568" lon="10.166415800703744"><ele>427.0</ele><time>2026-03-28T16:07:54Z</time></trkpt><trkpt lat="46.21271306875888" lon="10.166290514317112"><ele>427.00000000000006</ele><time>2026-03-28T16:07:55Z</time></trkpt><trkpt lat="46.21264718392161" lon="10.166175870326839"><ele>427.00000000000006</ele><time>2026-03-28T16:07:56Z</time></trkpt><trkpt lat="46.2125911418716" lon="10.1660581885"><ele>427.0</ele><time>2026-03-28T16:07:57Z</time></trkpt><trkpt lat="46.2125276083763" lon="10.165936712018143"><ele>427.0</ele><time>2026-03-28T16:07:58Z</time></trkpt><trkpt lat="46.21244933655514" lon="10.16580110860769"><ele>426.75</ele><time>2026-03-28T16:07:59Z</time></trkpt><trkpt lat="46.212362162949645" lon="10.165659840182391"><ele>426.5</ele><time>2026-03-28T16:08:00Z</time></trkpt><trkpt lat="46.212274070355086" lon="10.165510667636518"><ele>426.25</ele><time>2026-03-28T16:08:01Z</time></trkpt><trkpt lat="46.21218290206711" lon="10.165361413929787"><ele>426.0</ele><time>2026-03-28T16:08:02Z</time></trkpt><trkpt lat="46.21210296384766" lon="10.165210654851535"><ele>426.0</ele><time>2026-03-28T16:08:03Z</time></trkpt><trkpt lat="46.21202288144028" lon="10.165064034750278"><ele>426.0</ele><time>2026-03-28T16:08:04Z</time></trkpt><trkpt lat="46.211943852866256" lon="10.1649229165703"><ele>426.0</ele><time>2026-03-28T16:08:05Z</time></trkpt><trkpt lat="46.21187003273903" lon="10.164784952216724"><ele>426.0</ele><time>2026-03-28T16:08:06Z</time></trkpt><trkpt lat="46.211809303085744" lon="10.164651346916154"><ele>425.8</ele><time>2026-03-28T16:08:07Z</time></trkpt><trkpt lat="46.211750838256506" lon="10.164547533416238"><ele>425.6</ele><time>2026-03-28T16:08:08Z</time></trkpt><trkpt lat="46.211707530988015" lon="10.164470334730677"><ele>425.4</ele><time>2026-03-28T16:08:09Z</time></trkpt><trkpt lat="46.21166093123312" lon="10.16435970514809"><ele>425.2</ele><time>2026-03-28T16:08:11Z</time></trkpt><trkpt lat="46.21153771168194" lon="10.164159762222038"><ele>425.0</ele><time>2026-03-28T16:08:13Z</time></trkpt><trkpt lat="46.211506282967186" lon="10.164065353471036"><ele>423.66666666666663</ele><time>2026-03-28T16:08:16Z</time></trkpt><trkpt lat="46.211387900136614" lon="10.16390614710601"><ele>422.33333333333337</ele><time>2026-03-28T16:08:18Z</time></trkpt><trkpt lat="46.21130178391821" lon="10.163761555536336"><ele>421.0</ele><time>2026-03-28T16:08:19Z</time></trkpt><trkpt lat="46.21120147488924" lon="10.163582817953717"><ele>421.0</ele><time>2026-03-28T16:08:20Z</time></trkpt><trkpt lat="46.21110551799006" lon="10.163388667394967"><ele>421.0</ele><time>2026-03-28T16:08:21Z</time></trkpt><trkpt lat="46.21098985314398" lon="10.163185792251863"><ele>421.0</ele><time>2026-03-28T16:08:22Z</time></trkpt><trkpt lat="46.210861568710605" lon="10.162965531686162"><ele>421.0</ele><time>2026-03-28T16:08:23Z</time></trkpt><trkpt lat="46.210730296601135" lon="10.162735066263096"><ele>421.0</ele><time>2026-03-28T16:08:24Z</time></trkpt><trkpt lat="46.21060068024152" lon="10.162511482003783"><ele>421.0</ele><time>2026-03-28T16:08:25Z</time></trkpt><trkpt lat="46.21046024298591" lon="10.162287348890924"><ele>421.0</ele><time>2026-03-28T16:08:26Z</time></trkpt><trkpt lat="46.21033687805868" lon="10.162042641315828"><ele>421.0</ele><time>2026-03-28T16:08:27Z</time></trkpt><trkpt lat="46.21020660502799" lon="10.161813799177452"><ele>421.0</ele><time>2026-03-28T16:08:27.999Z</time></trkpt><trkpt lat="46.21007073840428" lon="10.161607308205193"><ele>421.33333333333337</ele><time>2026-03-28T16:08:28.999Z</time></trkpt><trkpt lat="46.2099533976905" lon="10.161396488637703"><ele>421.66666666666663</ele><time>2026-03-28T16:08:29.999Z</time></trkpt><trkpt lat="46.20983668795704" lon="10.161191196184054"><ele>422.0</ele><time>2026-03-28T16:08:30.999Z</time></trkpt><trkpt lat="46.20972750644414" lon="10.160998747639814"><ele>421.75</ele><time>2026-03-28T16:08:31.999Z</time></trkpt><trkpt lat="46.20962764380847" lon="10.160813393100614"><ele>421.5</ele><time>2026-03-28T16:08:32.999Z</time></trkpt><trkpt lat="46.20953695926951" lon="10.160648789560193"><ele>421.25</ele><time>2026-03-28T16:08:33.999Z</time></trkpt><trkpt lat="46.20946399606185" lon="10.16052482191905"><ele>421.0</ele><time>2026-03-28T16:08:34.999Z</time></trkpt><trkpt lat="46.20939930047718" lon="10.160391321535444"><ele>421.0</ele><time>2026-03-28T16:08:36.999Z</time></trkpt><trkpt lat="46.20933070426857" lon="10.160270713477663"><ele>421.0</ele><time>2026-03-28T16:08:37.999Z</time></trkpt><trkpt lat="46.209231345498246" lon="10.160095870779063"><ele>421.0</ele><time>2026-03-28T16:08:38.999Z</time></trkpt><trkpt lat="46.20912440067961" lon="10.159907038936984"><ele>421.0</ele><time>2026-03-28T16:08:39.999Z</time></trkpt><trkpt lat="46.20900542837494" lon="10.159730011727378"><ele>421.0</ele><time>2026-03-28T16:08:40.999Z</time></trkpt><trkpt lat="46.2088970245112" lon="10.159515872156602"><ele>421.0</ele><time>2026-03-28T16:08:41.999Z</time></trkpt><trkpt lat="46.20876496614924" lon="10.159301117691797"><ele>421.0</ele><time>2026-03-28T16:08:42.999Z</time></trkpt><trkpt lat="46.208633335946715" lon="10.15906868668205"><ele>422.0</ele><time>2026-03-28T16:08:43.999Z</time></trkpt><trkpt lat="46.2084961793284" lon="10.158816593824398"><ele>423.0</ele><time>2026-03-28T16:08:44.999Z</time></trkpt><trkpt lat="46.20834886471723" lon="10.158553791226787"><ele>423.0</ele><time>2026-03-28T16:08:45.999Z</time></trkpt><trkpt lat="46.208196874344175" lon="10.158298414166074"><ele>423.0</ele><time>2026-03-28T16:08:46.999Z</time></trkpt><trkpt lat="46.208037235493116" lon="10.158020657543364"><ele>420.5</ele><time>2026-03-28T16:08:47.999Z</time></trkpt><trkpt lat="46.20788366991599" lon="10.157750179725314"><ele>418.0</ele><time>2026-03-28T16:08:48.999Z</time></trkpt><trkpt lat="46.207729669964124" lon="10.157490030446525"><ele>418.0</ele><time>2026-03-28T16:08:49.999Z</time></trkpt><trkpt lat="46.207593015899135" lon="10.157239553537798"><ele>418.0</ele><time>2026-03-28T16:08:50.999Z</time></trkpt><trkpt lat="46.20745880909916" lon="10.156997091897523"><ele>418.0</ele><time>2026-03-28T16:08:51.999Z</time></trkpt><trkpt lat="46.20732393719295" lon="10.156770070653645"><ele>417.59999999999997</ele><time>2026-03-28T16:08:52.999Z</time></trkpt><trkpt lat="46.20723672825633" lon="10.156591944112076"><ele>417.2</ele><time>2026-03-28T16:08:53.999Z</time></trkpt><trkpt lat="46.207177788685456" lon="10.156512839437642"><ele>416.8</ele><time>2026-03-28T16:08:54.999Z</time></trkpt><trkpt lat="46.20716227586925" lon="10.15642375293718"><ele>416.4</ele><time>2026-03-28T16:08:56.999Z</time></trkpt><trkpt lat="46.20727544560715" lon="10.156336568310525"><ele>416.0</ele><time>2026-03-28T16:08:57.999Z</time></trkpt><trkpt lat="46.20732234178817" lon="10.156251431629217"><ele>416.5</ele><time>2026-03-28T16:08:58.999Z</time></trkpt><trkpt lat="46.20740364653899" lon="10.15617380388317"><ele>417.0</ele><time>2026-03-28T16:08:59.999Z</time></trkpt><trkpt lat="46.2075037014658" lon="10.156068358295688"><ele>417.5</ele><time>2026-03-28T16:09:00.999Z</time></trkpt><trkpt lat="46.20761217139761" lon="10.15593870471246"><ele>418.0</ele><time>2026-03-28T16:09:01.999Z</time></trkpt><trkpt lat="46.207725744716704" lon="10.155805124389907"><ele>418.0</ele><time>2026-03-28T16:09:02.999Z</time></trkpt><trkpt lat="46.207839594944616" lon="10.155661604000883"><ele>418.0</ele><time>2026-03-28T16:09:03.999Z</time></trkpt><trkpt lat="46.20795513050853" lon="10.155523077327246"><ele>418.0</ele><time>2026-03-28T16:09:05Z</time></trkpt><trkpt lat="46.20806900432288" lon="10.155386104298564"><ele>418.0</ele><time>2026-03-28T16:09:06Z</time></trkpt><trkpt lat="46.208171262543004" lon="10.155266520081188"><ele>418.0</ele><time>2026-03-28T16:09:07Z</time></trkpt><trkpt lat="46.20826227477165" lon="10.155155949151277"><ele>418.0</ele><time>2026-03-28T16:09:08Z</time></trkpt><trkpt lat="46.20833628001617" lon="10.155058676956761"><ele>418.0</ele><time>2026-03-28T16:09:09Z</time></trkpt><trkpt lat="46.208386442943564" lon="10.154972076359186"><ele>418.0</ele><time>2026-03-28T16:09:10Z</time></trkpt><trkpt lat="46.20836474240684" lon="10.154739628920016"><ele>418.0</ele><time>2026-03-28T16:09:12Z</time></trkpt><trkpt lat="46.20830382717096" lon="10.154600183796846"><ele>418.0</ele><time>2026-03-28T16:09:13Z</time></trkpt><trkpt lat="46.2082180954112" lon="10.154460740443495"><ele>418.0</ele><time>2026-03-28T16:09:14Z</time></trkpt><trkpt lat="46.20811002442913" lon="10.15429357505171"><ele>418.0</ele><time>2026-03-28T16:09:15Z</time></trkpt><trkpt lat="46.20798897997633" lon="10.154098489457562"><ele>417.0</ele><time>2026-03-28T16:09:16Z</time></trkpt><trkpt lat="46.2078640343137" lon="10.153867749423727"><ele>416.0</ele><time>2026-03-28T16:09:17Z</time></trkpt><trkpt lat="46.2077345636403" lon="10.153622110785278"><ele>415.0</ele><time>2026-03-28T16:09:18Z</time></trkpt><trkpt lat="46.20759689267127" lon="10.153368710909563"><ele>415.0</ele><time>2026-03-28T16:09:19Z</time></trkpt><trkpt lat="46.207445639675846" lon="10.153107417140752"><ele>415.0</ele><time>2026-03-28T16:09:20Z</time></trkpt><trkpt lat="46.207295479558205" lon="10.152858897818213"><ele>415.0</ele><time>2026-03-28T16:09:21Z</time></trkpt><trkpt lat="46.20713722982314" lon="10.152630683021894"><ele>415.0</ele><time>2026-03-28T16:09:22Z</time></trkpt><trkpt lat="46.20696799317891" lon="10.152416815604806"><ele>415.0</ele><time>2026-03-28T16:09:23Z</time></trkpt><trkpt lat="46.20679062004436" lon="10.152208295463822"><ele>415.5</ele><time>2026-03-28T16:09:24Z</time></trkpt><trkpt lat="46.20660553832126" lon="10.15199368491033"><ele>416.0</ele><time>2026-03-28T16:09:25Z</time></trkpt><trkpt lat="46.20641512699001" lon="10.151776851938399"><ele>414.0</ele><time>2026-03-28T16:09:26Z</time></trkpt><trkpt lat="46.20621948852289" lon="10.151541213219488"><ele>412.0</ele><time>2026-03-28T16:09:27Z</time></trkpt><trkpt lat="46.20601713207616" lon="10.151293155554855"><ele>411.5</ele><time>2026-03-28T16:09:28Z</time></trkpt><trkpt lat="46.20581120223327" lon="10.151073539124376"><ele>411.0</ele><time>2026-03-28T16:09:29Z</time></trkpt><trkpt lat="46.20563142097087" lon="10.150839048112598"><ele>410.66666666666663</ele><time>2026-03-28T16:09:30Z</time></trkpt><trkpt lat="46.205464841405984" lon="10.150612449001919"><ele>410.3333333333333</ele><time>2026-03-28T16:09:31Z</time></trkpt><trkpt lat="46.205299301483954" lon="10.150415019613447"><ele>410.0</ele><time>2026-03-28T16:09:32Z</time></trkpt><trkpt lat="46.20516221816243" lon="10.150250336889076"><ele>410.0</ele><time>2026-03-28T16:09:33Z</time></trkpt><trkpt lat="46.20500674710987" lon="10.150061503908374"><ele>410.0</ele><time>2026-03-28T16:09:34Z</time></trkpt><trkpt lat="46.20486402564968" lon="10.149945699412006"><ele>410.0</ele><time>2026-03-28T16:09:35Z</time></trkpt><trkpt lat="46.204761347900856" lon="10.149817955933164"><ele>409.75</ele><time>2026-03-28T16:09:36Z</time></trkpt><trkpt lat="46.204669819769364" lon="10.149713975217473"><ele>409.5</ele><time>2026-03-28T16:09:37Z</time></trkpt><trkpt lat="46.20458686368615" lon="10.14966474019844"><ele>409.25</ele><time>2026-03-28T16:09:38Z</time></trkpt><trkpt lat="46.2046444854065" lon="10.149536775656074"><ele>409.0</ele><time>2026-03-28T16:09:39Z</time></trkpt><trkpt lat="46.204423579258986" lon="10.14975628067117"><ele>409.0</ele><time>2026-03-28T16:09:40Z</time></trkpt><trkpt lat="46.20433368191351" lon="10.149872241387705"><ele>409.0</ele><time>2026-03-28T16:09:41Z</time></trkpt><trkpt lat="46.20423169411049" lon="10.150004068272239"><ele>409.0</ele><time>2026-03-28T16:09:42Z</time></trkpt><trkpt lat="46.20411087032531" lon="10.150142742516294"><ele>409.0</ele><time>2026-03-28T16:09:43Z</time></trkpt><trkpt lat="46.20398119334558" lon="10.150302845927035"><ele>409.0</ele><time>2026-03-28T16:09:44Z</time></trkpt><trkpt lat="46.20384269349131" lon="10.150457989284075"><ele>409.0</ele><time>2026-03-28T16:09:45Z</time></trkpt><trkpt lat="46.203699053789954" lon="10.150613476876858"><ele>409.0</ele><time>2026-03-28T16:09:46Z</time></trkpt><trkpt lat="46.20356794411498" lon="10.150762486291313"><ele>409.25</ele><time>2026-03-28T16:09:47Z</time></trkpt><trkpt lat="46.203443952428565" lon="10.150897345317002"><ele>409.5</ele><time>2026-03-28T16:09:48Z</time></trkpt><trkpt lat="46.20331942173052" lon="10.151017348389777"><ele>409.75</ele><time>2026-03-28T16:09:49Z</time></trkpt><trkpt lat="46.20321104392089" lon="10.151137210644993"><ele>410.0</ele><time>2026-03-28T16:09:50Z</time></trkpt><trkpt lat="46.203103984924496" lon="10.151272190507894"><ele>411.0</ele><time>2026-03-28T16:09:51Z</time></trkpt><trkpt lat="46.20300525967083" lon="10.151379695268476"><ele>412.0</ele><time>2026-03-28T16:09:52Z</time></trkpt><trkpt lat="46.20290870435985" lon="10.151465279924139"><ele>413.0</ele><time>2026-03-28T16:09:53Z</time></trkpt><trkpt lat="46.20282175905044" lon="10.151510823847687"><ele>414.0</ele><time>2026-03-28T16:09:54Z</time></trkpt><trkpt lat="46.20273657924346" lon="10.151517562885095"><ele>415.0</ele><time>2026-03-28T16:09:55Z</time></trkpt><trkpt lat="46.20266028185092" lon="10.151475920008204"><ele>415.0</ele><time>2026-03-28T16:09:56Z</time></trkpt><trkpt lat="46.20259178348747" lon="10.15141232969078"><ele>415.0</ele><time>2026-03-28T16:09:57Z</time></trkpt><trkpt lat="46.20253687826601" lon="10.151231256298102"><ele>415.0</ele><time>2026-03-28T16:09:58Z</time></trkpt><trkpt lat="46.20243559863408" lon="10.15105721759248"><ele>415.0</ele><time>2026-03-28T16:09:59Z</time></trkpt><trkpt lat="46.20233586566741" lon="10.150826947733394"><ele>414.5</ele><time>2026-03-28T16:10:00Z</time></trkpt><trkpt lat="46.20220431284726" lon="10.150563205320024"><ele>414.0</ele><time>2026-03-28T16:10:01Z</time></trkpt><trkpt lat="46.20205764297896" lon="10.150280647873432"><ele>414.0</ele><time>2026-03-28T16:10:02Z</time></trkpt><trkpt lat="46.20189362246005" lon="10.149996011428975"><ele>414.0</ele><time>2026-03-28T16:10:03Z</time></trkpt><trkpt lat="46.20170670605818" lon="10.149714141314883"><ele>412.5</ele><time>2026-03-28T16:10:04Z</time></trkpt><trkpt lat="46.201490051232284" lon="10.149430936249338"><ele>411.0</ele><time>2026-03-28T16:10:05Z</time></trkpt><trkpt lat="46.20126575314984" lon="10.149138699918712"><ele>409.0</ele><time>2026-03-28T16:10:06Z</time></trkpt><trkpt lat="46.20104158365103" lon="10.148836101960224"><ele>407.0</ele><time>2026-03-28T16:10:07Z</time></trkpt><trkpt lat="46.20083154556309" lon="10.148542651597547"><ele>409.5</ele><time>2026-03-28T16:10:08Z</time></trkpt><trkpt lat="46.200632098125666" lon="10.148252395794428"><ele>412.0</ele><time>2026-03-28T16:10:09Z</time></trkpt><trkpt lat="46.20044410758834" lon="10.147965904432716"><ele>412.0</ele><time>2026-03-28T16:10:10Z</time></trkpt><trkpt lat="46.20025776957186" lon="10.14767224995125"><ele>412.0</ele><time>2026-03-28T16:10:11Z</time></trkpt><trkpt lat="46.200081737364684" lon="10.147379564937848"><ele>409.0</ele><time>2026-03-28T16:10:12Z</time></trkpt><trkpt lat="46.199930065256105" lon="10.1470710169188"><ele>406.0</ele><time>2026-03-28T16:10:13Z</time></trkpt><trkpt lat="46.19977413340799" lon="10.146769498648814"><ele>413.5</ele><time>2026-03-28T16:10:14Z</time></trkpt><trkpt lat="46.19961974341307" lon="10.146466031242769"><ele>421.0</ele><time>2026-03-28T16:10:15Z</time></trkpt><trkpt lat="46.19946264873125" lon="10.146178696003423"><ele>421.0</ele><time>2026-03-28T16:10:16Z</time></trkpt><trkpt lat="46.19931102093687" lon="10.145868339978556"><ele>421.0</ele><time>2026-03-28T16:10:17Z</time></trkpt><trkpt lat="46.19916561756141" lon="10.145563165319889"><ele>415.5</ele><time>2026-03-28T16:10:18Z</time></trkpt><trkpt lat="46.19901528964263" lon="10.145266179692115"><ele>410.0</ele><time>2026-03-28T16:10:19Z</time></trkpt><trkpt lat="46.19887177709301" lon="10.144965183978826"><ele>413.0</ele><time>2026-03-28T16:10:20Z</time></trkpt><trkpt lat="46.19872613770244" lon="10.144663303367226"><ele>416.0</ele><time>2026-03-28T16:10:21Z</time></trkpt><trkpt lat="46.19857738510046" lon="10.144357782769573"><ele>411.0</ele><time>2026-03-28T16:10:22Z</time></trkpt><trkpt lat="46.198428210334946" lon="10.14404514749109"><ele>406.0</ele><time>2026-03-28T16:10:23Z</time></trkpt><trkpt lat="46.19827739706634" lon="10.143733299385515"><ele>405.5</ele><time>2026-03-28T16:10:24Z</time></trkpt><trkpt lat="46.198122637199646" lon="10.1434239741732"><ele>405.0</ele><time>2026-03-28T16:10:25Z</time></trkpt><trkpt lat="46.19796591621539" lon="10.143111364533716"><ele>405.0</ele><time>2026-03-28T16:10:26Z</time></trkpt><trkpt lat="46.197811815023876" lon="10.142787151017423"><ele>405.0</ele><time>2026-03-28T16:10:27Z</time></trkpt><trkpt lat="46.19764929888747" lon="10.14245749416469"><ele>404.0</ele><time>2026-03-28T16:10:28Z</time></trkpt><trkpt lat="46.197482455785675" lon="10.142116308302342"><ele>403.0</ele><time>2026-03-28T16:10:29Z</time></trkpt><trkpt lat="46.197311264616935" lon="10.141771293214362"><ele>404.0</ele><time>2026-03-28T16:10:30Z</time></trkpt><trkpt lat="46.19712985576361" lon="10.141413510080564"><ele>405.0</ele><time>2026-03-28T16:10:31Z</time></trkpt><trkpt lat="46.196943786746935" lon="10.141055604740938"><ele>405.0</ele><time>2026-03-28T16:10:32Z</time></trkpt><trkpt lat="46.19675089931295" lon="10.140702298468009"><ele>405.0</ele><time>2026-03-28T16:10:33Z</time></trkpt><trkpt lat="46.196555271737324" lon="10.14034724369919"><ele>405.5</ele><time>2026-03-28T16:10:33.999Z</time></trkpt><trkpt lat="46.1963461176521" lon="10.139995133199077"><ele>406.0</ele><time>2026-03-28T16:10:34.999Z</time></trkpt><trkpt lat="46.1961281163369" lon="10.1396454496283"><ele>406.0</ele><time>2026-03-28T16:10:35.999Z</time></trkpt><trkpt lat="46.19591079622204" lon="10.139292865399646"><ele>406.0</ele><time>2026-03-28T16:10:36.999Z</time></trkpt><trkpt lat="46.19568864923785" lon="10.138947940853868"><ele>404.0</ele><time>2026-03-28T16:10:37.999Z</time></trkpt><trkpt lat="46.195460679538776" lon="10.138606083101202"><ele>402.0</ele><time>2026-03-28T16:10:38.999Z</time></trkpt><trkpt lat="46.19523271989146" lon="10.138264948701577"><ele>401.5</ele><time>2026-03-28T16:10:39.999Z</time></trkpt><trkpt lat="46.19500345612209" lon="10.137923836424402"><ele>401.0</ele><time>2026-03-28T16:10:40.999Z</time></trkpt><trkpt lat="46.19477400340113" lon="10.137586186897714"><ele>400.0</ele><time>2026-03-28T16:10:41.999Z</time></trkpt><trkpt lat="46.19455123270918" lon="10.137251561814637"><ele>399.0</ele><time>2026-03-28T16:10:42.999Z</time></trkpt><trkpt lat="46.19432636553846" lon="10.136917355459124"><ele>399.0</ele><time>2026-03-28T16:10:43.999Z</time></trkpt><trkpt lat="46.19410291462231" lon="10.136583188052448"><ele>399.0</ele><time>2026-03-28T16:10:44.999Z</time></trkpt><trkpt lat="46.19388051504192" lon="10.136244426221428"><ele>399.0</ele><time>2026-03-28T16:10:45.999Z</time></trkpt><trkpt lat="46.19365772034459" lon="10.135915856285456"><ele>399.0</ele><time>2026-03-28T16:10:46.999Z</time></trkpt><trkpt lat="46.193426208299094" lon="10.13558868841742"><ele>399.0</ele><time>2026-03-28T16:10:47.999Z</time></trkpt><trkpt lat="46.1931765630188" lon="10.135260902953453"><ele>399.0</ele><time>2026-03-28T16:10:48.999Z</time></trkpt><trkpt lat="46.192944705840986" lon="10.134974250208193"><ele>397.5</ele><time>2026-03-28T16:10:49.999Z</time></trkpt><trkpt lat="46.19269444905131" lon="10.134691258703361"><ele>396.0</ele><time>2026-03-28T16:10:50.999Z</time></trkpt><trkpt lat="46.19243898906916" lon="10.13441561497774"><ele>396.0</ele><time>2026-03-28T16:10:51.999Z</time></trkpt><trkpt lat="46.192181724119884" lon="10.134148882607386"><ele>396.0</ele><time>2026-03-28T16:10:52.999Z</time></trkpt><trkpt lat="46.19191551788137" lon="10.133895407873"><ele>396.0</ele><time>2026-03-28T16:10:53.999Z</time></trkpt><trkpt lat="46.191656147548805" lon="10.133645327423038"><ele>396.0</ele><time>2026-03-28T16:10:54.999Z</time></trkpt><trkpt lat="46.19139461066539" lon="10.133394265825912"><ele>395.5</ele><time>2026-03-28T16:10:55.999Z</time></trkpt><trkpt lat="46.191133355139804" lon="10.133145908273484"><ele>395.0</ele><time>2026-03-28T16:10:56.999Z</time></trkpt><trkpt lat="46.190867378115115" lon="10.132899375017029"><ele>394.5</ele><time>2026-03-28T16:10:57.999Z</time></trkpt><trkpt lat="46.19060597399725" lon="10.132644751791776"><ele>394.0</ele><time>2026-03-28T16:10:58.999Z</time></trkpt><trkpt lat="46.19034656769812" lon="10.132397254347888"><ele>394.5</ele><time>2026-03-28T16:10:59.999Z</time></trkpt><trkpt lat="46.19009602276252" lon="10.132154116412755"><ele>395.0</ele><time>2026-03-28T16:11:00.999Z</time></trkpt><trkpt lat="46.18985301862433" lon="10.131927471840445"><ele>394.5</ele><time>2026-03-28T16:11:01.999Z</time></trkpt><trkpt lat="46.1896241637529" lon="10.131702649225927"><ele>394.0</ele><time>2026-03-28T16:11:02.999Z</time></trkpt><trkpt lat="46.189417853287246" lon="10.131495579286621"><ele>394.6666666666667</ele><time>2026-03-28T16:11:03.999Z</time></trkpt><trkpt lat="46.189233064465284" lon="10.131295143485282"><ele>395.33333333333337</ele><time>2026-03-28T16:11:05Z</time></trkpt><trkpt lat="46.189057627427175" lon="10.13114103101938"><ele>396.0</ele><time>2026-03-28T16:11:06Z</time></trkpt><trkpt lat="46.18890103644536" lon="10.13099501884752"><ele>396.0</ele><time>2026-03-28T16:11:07Z</time></trkpt><trkpt lat="46.18876445389651" lon="10.130860500247262"><ele>396.0</ele><time>2026-03-28T16:11:08Z</time></trkpt><trkpt lat="46.18865275561819" lon="10.130741722031782"><ele>396.0</ele><time>2026-03-28T16:11:09Z</time></trkpt><trkpt lat="46.18855501250356" lon="10.130635704544586"><ele>396.0</ele><time>2026-03-28T16:11:10Z</time></trkpt><trkpt lat="46.188475482732215" lon="10.130519671723572"><ele>396.0</ele><time>2026-03-28T16:11:11Z</time></trkpt><trkpt lat="46.18842771621669" lon="10.130383555733827"><ele>396.0</ele><time>2026-03-28T16:11:12Z</time></trkpt><trkpt lat="46.18837350398446" lon="10.13025620353321"><ele>396.0</ele><time>2026-03-28T16:11:13Z</time></trkpt><trkpt lat="46.188290057765585" lon="10.130180364504627"><ele>396.0</ele><time>2026-03-28T16:11:14Z</time></trkpt><trkpt lat="46.18818315821795" lon="10.130163746777432"><ele>396.0</ele><time>2026-03-28T16:11:15Z</time></trkpt><trkpt lat="46.188059745485084" lon="10.130134264855432"><ele>396.0</ele><time>2026-03-28T16:11:16Z</time></trkpt><trkpt lat="46.187936289901344" lon="10.130043482193333"><ele>396.0</ele><time>2026-03-28T16:11:17Z</time></trkpt><trkpt lat="46.18781947033396" lon="10.129900914331722"><ele>396.0</ele><time>2026-03-28T16:11:18Z</time></trkpt><trkpt lat="46.187695257320506" lon="10.129749226582442"><ele>396.0</ele><time>2026-03-28T16:11:19Z</time></trkpt><trkpt lat="46.18756638157357" lon="10.129530188219261"><ele>396.0</ele><time>2026-03-28T16:11:20Z</time></trkpt><trkpt lat="46.18744202232105" lon="10.1292769247454"><ele>396.0</ele><time>2026-03-28T16:11:21Z</time></trkpt><trkpt lat="46.187328141329395" lon="10.128996242922923"><ele>395.5</ele><time>2026-03-28T16:11:22Z</time></trkpt><trkpt lat="46.18723177337221" lon="10.128694529328483"><ele>395.0</ele><time>2026-03-28T16:11:23Z</time></trkpt><trkpt lat="46.18715479953253" lon="10.128379153842891"><ele>394.0</ele><time>2026-03-28T16:11:24Z</time></trkpt><trkpt lat="46.18709866209875" lon="10.128058690296985"><ele>393.0</ele><time>2026-03-28T16:11:25Z</time></trkpt><trkpt lat="46.187064718860306" lon="10.127739337823423"><ele>393.0</ele><time>2026-03-28T16:11:26Z</time></trkpt><trkpt lat="46.18705463716219" lon="10.12742409970236"><ele>393.0</ele><time>2026-03-28T16:11:27Z</time></trkpt><trkpt lat="46.18706781990607" lon="10.127108135434888"><ele>393.0</ele><time>2026-03-28T16:11:28Z</time></trkpt><trkpt lat="46.1871019142153" lon="10.126800473367842"><ele>393.0</ele><time>2026-03-28T16:11:29Z</time></trkpt><trkpt lat="46.187165030430066" lon="10.126503723935134"><ele>393.0</ele><time>2026-03-28T16:11:30Z</time></trkpt><trkpt lat="46.187243578850854" lon="10.126232526469842"><ele>393.0</ele><time>2026-03-28T16:11:31Z</time></trkpt><trkpt lat="46.187327162889275" lon="10.125969940543346"><ele>393.33333333333337</ele><time>2026-03-28T16:11:32Z</time></trkpt><trkpt lat="46.187421839254114" lon="10.12573098253113"><ele>393.6666666666667</ele><time>2026-03-28T16:11:33Z</time></trkpt><trkpt lat="46.18752503313463" lon="10.12550388264101"><ele>394.0</ele><time>2026-03-28T16:11:34Z</time></trkpt><trkpt lat="46.18763495606112" lon="10.12528317186149"><ele>394.0</ele><time>2026-03-28T16:11:35Z</time></trkpt><trkpt lat="46.187748895955174" lon="10.125066876596279"><ele>394.0</ele><time>2026-03-28T16:11:36Z</time></trkpt><trkpt lat="46.187868102285556" lon="10.124847211413908"><ele>394.0</ele><time>2026-03-28T16:11:37Z</time></trkpt><trkpt lat="46.18799600057073" lon="10.12462680221431"><ele>393.33333333333337</ele><time>2026-03-28T16:11:38Z</time></trkpt><trkpt lat="46.188119957022955" lon="10.124401750869481"><ele>392.66666666666663</ele><time>2026-03-28T16:11:39Z</time></trkpt><trkpt lat="46.18823759675453" lon="10.124181480542376"><ele>392.0</ele><time>2026-03-28T16:11:40Z</time></trkpt><trkpt lat="46.188350392432994" lon="10.12396444626162"><ele>391.66666666666663</ele><time>2026-03-28T16:11:41Z</time></trkpt><trkpt lat="46.18845625499496" lon="10.123740913263976"><ele>391.33333333333337</ele><time>2026-03-28T16:11:42Z</time></trkpt><trkpt lat="46.188537746684275" lon="10.12349021456907"><ele>391.0</ele><time>2026-03-28T16:11:43Z</time></trkpt><trkpt lat="46.188614216020675" lon="10.123217957441307"><ele>392.0</ele><time>2026-03-28T16:11:44Z</time></trkpt><trkpt lat="46.18865235247957" lon="10.122966039959701"><ele>393.0</ele><time>2026-03-28T16:11:45Z</time></trkpt><trkpt lat="46.188670742408235" lon="10.122737400102965"><ele>394.0</ele><time>2026-03-28T16:11:46Z</time></trkpt><trkpt lat="46.18863643153914" lon="10.122495954770804"><ele>395.0</ele><time>2026-03-28T16:11:47Z</time></trkpt><trkpt lat="46.18860016485031" lon="10.122227990043472"><ele>396.0</ele><time>2026-03-28T16:11:48Z</time></trkpt><trkpt lat="46.18851867532781" lon="10.121981506999294"><ele>397.0</ele><time>2026-03-28T16:11:49Z</time></trkpt><trkpt lat="46.18845350115737" lon="10.121717478988973"><ele>397.0</ele><time>2026-03-28T16:11:50Z</time></trkpt><trkpt lat="46.18827380556042" lon="10.121570529977447"><ele>397.0</ele><time>2026-03-28T16:11:51Z</time></trkpt><trkpt lat="46.188149401866646" lon="10.121431511036068"><ele>397.0</ele><time>2026-03-28T16:11:52Z</time></trkpt><trkpt lat="46.18799444928641" lon="10.121323105344988"><ele>396.5</ele><time>2026-03-28T16:11:53Z</time></trkpt><trkpt lat="46.18785133879601" lon="10.12126281307853"><ele>396.0</ele><time>2026-03-28T16:11:54Z</time></trkpt><trkpt lat="46.187726965759765" lon="10.121230890292416"><ele>395.5</ele><time>2026-03-28T16:11:55Z</time></trkpt><trkpt lat="46.18762110687834" lon="10.121217193321636"><ele>395.0</ele><time>2026-03-28T16:11:56Z</time></trkpt><trkpt lat="46.18753709073608" lon="10.121208732431302"><ele>394.99999999999994</ele><time>2026-03-28T16:11:57Z</time></trkpt><trkpt lat="46.187429266517135" lon="10.121175770110773"><ele>395.0</ele><time>2026-03-28T16:11:59Z</time></trkpt><trkpt lat="46.18736951814441" lon="10.121145503879784"><ele>395.0</ele><time>2026-03-28T16:12:00Z</time></trkpt><trkpt lat="46.18730481828372" lon="10.12107334174923"><ele>395.0</ele><time>2026-03-28T16:12:01Z</time></trkpt><trkpt lat="46.18724186548376" lon="10.121024204466075"><ele>394.99999999999994</ele><time>2026-03-28T16:12:02Z</time></trkpt><trkpt lat="46.18712459857476" lon="10.121051730127196"><ele>395.0</ele><time>2026-03-28T16:12:04Z</time></trkpt><trkpt lat="46.18707105419334" lon="10.121127611058611"><ele>394.6</ele><time>2026-03-28T16:12:05Z</time></trkpt><trkpt lat="46.186968076614896" lon="10.12106384087868"><ele>394.2</ele><time>2026-03-28T16:12:06Z</time></trkpt><trkpt lat="46.18689647340307" lon="10.121011052228146"><ele>393.79999999999995</ele><time>2026-03-28T16:12:07Z</time></trkpt><trkpt lat="46.1868368607979" lon="10.120917973678846"><ele>393.4</ele><time>2026-03-28T16:12:08Z</time></trkpt><trkpt lat="46.18675807797181" lon="10.120822980607345"><ele>393.0</ele><time>2026-03-28T16:12:09Z</time></trkpt><trkpt lat="46.18666464440463" lon="10.12071037009548"><ele>393.0</ele><time>2026-03-28T16:12:10Z</time></trkpt><trkpt lat="46.18654736012915" lon="10.120569013565202"><ele>393.0</ele><time>2026-03-28T16:12:11Z</time></trkpt><trkpt lat="46.18641122949678" lon="10.12040494254387"><ele>393.0</ele><time>2026-03-28T16:12:12Z</time></trkpt><trkpt lat="46.186258865800575" lon="10.120242329042666"><ele>392.0</ele><time>2026-03-28T16:12:13Z</time></trkpt><trkpt lat="46.18610370209339" lon="10.120053356187217"><ele>391.0</ele><time>2026-03-28T16:12:14Z</time></trkpt><trkpt lat="46.18593391467796" lon="10.119844244055258"><ele>390.0</ele><time>2026-03-28T16:12:15Z</time></trkpt><trkpt lat="46.18574960782481" lon="10.119633096533514"><ele>390.5</ele><time>2026-03-28T16:12:16Z</time></trkpt><trkpt lat="46.185554092992035" lon="10.119371881255033"><ele>391.0</ele><time>2026-03-28T16:12:17Z</time></trkpt><trkpt lat="46.18534705760518" lon="10.119121848253023"><ele>392.0</ele><time>2026-03-28T16:12:18Z</time></trkpt><trkpt lat="46.18511537865255" lon="10.118872126311002"><ele>393.0</ele><time>2026-03-28T16:12:19Z</time></trkpt><trkpt lat="46.184893381607935" lon="10.118590956949499"><ele>394.0</ele><time>2026-03-28T16:12:20Z</time></trkpt><trkpt lat="46.18467956542449" lon="10.11832307955969"><ele>395.0</ele><time>2026-03-28T16:12:21Z</time></trkpt><trkpt lat="46.184483050801305" lon="10.11808015085513"><ele>395.5</ele><time>2026-03-28T16:12:22Z</time></trkpt><trkpt lat="46.18429781104094" lon="10.117858446853234"><ele>396.0</ele><time>2026-03-28T16:12:23Z</time></trkpt><trkpt lat="46.18411810657859" lon="10.117648883731679"><ele>395.5</ele><time>2026-03-28T16:12:24Z</time></trkpt><trkpt lat="46.18393740096183" lon="10.117439907583792"><ele>395.0</ele><time>2026-03-28T16:12:25Z</time></trkpt><trkpt lat="46.18375313829297" lon="10.11724236583022"><ele>395.0</ele><time>2026-03-28T16:12:26Z</time></trkpt><trkpt lat="46.18356201045083" lon="10.117068983185526"><ele>395.0</ele><time>2026-03-28T16:12:27Z</time></trkpt><trkpt lat="46.1833596480647" lon="10.116927724219085"><ele>394.3333333333333</ele><time>2026-03-28T16:12:28Z</time></trkpt><trkpt lat="46.18316468568348" lon="10.11680687647673"><ele>393.66666666666663</ele><time>2026-03-28T16:12:29Z</time></trkpt><trkpt lat="46.18298251864648" lon="10.11667458346036"><ele>393.0</ele><time>2026-03-28T16:12:30Z</time></trkpt><trkpt lat="46.182817560675666" lon="10.116535439990924"><ele>393.0</ele><time>2026-03-28T16:12:31Z</time></trkpt><trkpt lat="46.18266503390389" lon="10.116390800817651"><ele>393.0</ele><time>2026-03-28T16:12:32Z</time></trkpt><trkpt lat="46.1825223233976" lon="10.116232216004187"><ele>393.0</ele><time>2026-03-28T16:12:33Z</time></trkpt><trkpt lat="46.18239067221725" lon="10.116060848781776"><ele>391.33333333333337</ele><time>2026-03-28T16:12:34Z</time></trkpt><trkpt lat="46.182262103785376" lon="10.115889298302532"><ele>389.6666666666667</ele><time>2026-03-28T16:12:35Z</time></trkpt><trkpt lat="46.18215201977988" lon="10.115721106079373"><ele>388.0</ele><time>2026-03-28T16:12:36Z</time></trkpt><trkpt lat="46.18204603721438" lon="10.115555298366825"><ele>387.75</ele><time>2026-03-28T16:12:37Z</time></trkpt><trkpt lat="46.181945891184164" lon="10.11539468779045"><ele>387.5</ele><time>2026-03-28T16:12:38Z</time></trkpt><trkpt lat="46.18185332098621" lon="10.115238881018726"><ele>387.25</ele><time>2026-03-28T16:12:39Z</time></trkpt><trkpt lat="46.181764709597275" lon="10.115092446298544"><ele>387.0</ele><time>2026-03-28T16:12:39.999Z</time></trkpt><trkpt lat="46.1816839076921" lon="10.114952435693366"><ele>386.75</ele><time>2026-03-28T16:12:40.999Z</time></trkpt><trkpt lat="46.18160978630924" lon="10.114828760952486"><ele>386.5</ele><time>2026-03-28T16:12:41.999Z</time></trkpt><trkpt lat="46.18153656985577" lon="10.114694584107664"><ele>386.25</ele><time>2026-03-28T16:12:42.999Z</time></trkpt><trkpt lat="46.18146532332193" lon="10.114559798797378"><ele>386.0</ele><time>2026-03-28T16:12:43.999Z</time></trkpt><trkpt lat="46.18139198617272" lon="10.114410098977718"><ele>386.0</ele><time>2026-03-28T16:12:44.999Z</time></trkpt><trkpt lat="46.181328408972" lon="10.114270177023982"><ele>386.0</ele><time>2026-03-28T16:12:45.999Z</time></trkpt><trkpt lat="46.18126500772448" lon="10.114124181273043"><ele>386.0</ele><time>2026-03-28T16:12:46.999Z</time></trkpt><trkpt lat="46.1811773138123" lon="10.113989635074766"><ele>386.0</ele><time>2026-03-28T16:12:48Z</time></trkpt><trkpt lat="46.181084423262824" lon="10.113848106183708"><ele>386.0</ele><time>2026-03-28T16:12:49Z</time></trkpt><trkpt lat="46.18099626559187" lon="10.11366371844087"><ele>386.0</ele><time>2026-03-28T16:12:50Z</time></trkpt><trkpt lat="46.180873549639465" lon="10.11345346819129"><ele>386.0</ele><time>2026-03-28T16:12:51Z</time></trkpt><trkpt lat="46.18072805632302" lon="10.113218240344601"><ele>386.0</ele><time>2026-03-28T16:12:52Z</time></trkpt><trkpt lat="46.180571583859155" lon="10.112994791762478"><ele>386.0</ele><time>2026-03-28T16:12:53Z</time></trkpt><trkpt lat="46.180410024600874" lon="10.112767187647417"><ele>386.0</ele><time>2026-03-28T16:12:54Z</time></trkpt><trkpt lat="46.1802395088047" lon="10.112530746132183"><ele>386.0</ele><time>2026-03-28T16:12:55Z</time></trkpt><trkpt lat="46.18005295944314" lon="10.112308279267742"><ele>386.0</ele><time>2026-03-28T16:12:56Z</time></trkpt><trkpt lat="46.179879059778905" lon="10.112050607191591"><ele>385.5</ele><time>2026-03-28T16:12:57Z</time></trkpt><trkpt lat="46.179702911705505" lon="10.111795529121755"><ele>385.0</ele><time>2026-03-28T16:12:58Z</time></trkpt><trkpt lat="46.17952567885425" lon="10.111553054813795"><ele>385.0</ele><time>2026-03-28T16:12:59Z</time></trkpt><trkpt lat="46.1793615507615" lon="10.111328389848222"><ele>385.0</ele><time>2026-03-28T16:13:00Z</time></trkpt><trkpt lat="46.17920784874181" lon="10.111115382328368"><ele>385.0</ele><time>2026-03-28T16:13:01Z</time></trkpt><trkpt lat="46.179062101734495" lon="10.110909771587732"><ele>385.0</ele><time>2026-03-28T16:13:02Z</time></trkpt><trkpt lat="46.1789231159217" lon="10.110715062222113"><ele>385.0</ele><time>2026-03-28T16:13:03Z</time></trkpt><trkpt lat="46.178794960035134" lon="10.110533110385646"><ele>385.0</ele><time>2026-03-28T16:13:04Z</time></trkpt><trkpt lat="46.17868338968373" lon="10.110370695034273"><ele>385.0</ele><time>2026-03-28T16:13:05Z</time></trkpt><trkpt lat="46.17857199092144" lon="10.11021651013085"><ele>385.0</ele><time>2026-03-28T16:13:06Z</time></trkpt><trkpt lat="46.178454294105016" lon="10.110027140699707"><ele>385.0</ele><time>2026-03-28T16:13:07Z</time></trkpt><trkpt lat="46.17830644897035" lon="10.109818611688992"><ele>384.6666666666667</ele><time>2026-03-28T16:13:08Z</time></trkpt><trkpt lat="46.1781488766728" lon="10.109596421676345"><ele>384.33333333333337</ele><time>2026-03-28T16:13:09Z</time></trkpt><trkpt lat="46.17798489490684" lon="10.109365132841615"><ele>384.0</ele><time>2026-03-28T16:13:10Z</time></trkpt><trkpt lat="46.17781864223582" lon="10.10913064111447"><ele>385.0</ele><time>2026-03-28T16:13:11Z</time></trkpt><trkpt lat="46.177653420922184" lon="10.108897603236725"><ele>386.0</ele><time>2026-03-28T16:13:12Z</time></trkpt><trkpt lat="46.17748688821721" lon="10.108662645270488"><ele>385.5</ele><time>2026-03-28T16:13:13Z</time></trkpt><trkpt lat="46.177321899421706" lon="10.108429884506826"><ele>385.0</ele><time>2026-03-28T16:13:14Z</time></trkpt><trkpt lat="46.177164530339084" lon="10.108207873358879"><ele>385.0</ele><time>2026-03-28T16:13:15Z</time></trkpt><trkpt lat="46.17699823660334" lon="10.108005588128584"><ele>385.0</ele><time>2026-03-28T16:13:16Z</time></trkpt><trkpt lat="46.176850688384654" lon="10.107795838625476"><ele>385.0</ele><time>2026-03-28T16:13:17Z</time></trkpt><trkpt lat="46.17671791668184" lon="10.10757936466561"><ele>385.33333333333337</ele><time>2026-03-28T16:13:18Z</time></trkpt><trkpt lat="46.17658460666329" lon="10.107391876960122"><ele>385.66666666666663</ele><time>2026-03-28T16:13:19Z</time></trkpt><trkpt lat="46.17643444904239" lon="10.107227049441617"><ele>386.0</ele><time>2026-03-28T16:13:20Z</time></trkpt><trkpt lat="46.176288511267565" lon="10.107020825373482"><ele>386.5</ele><time>2026-03-28T16:13:21Z</time></trkpt><trkpt lat="46.17613158959268" lon="10.106797848498335"><ele>387.0</ele><time>2026-03-28T16:13:22Z</time></trkpt><trkpt lat="46.17595139911131" lon="10.106558357890387"><ele>387.0</ele><time>2026-03-28T16:13:23Z</time></trkpt><trkpt lat="46.175747185415695" lon="10.106293946885401"><ele>387.0</ele><time>2026-03-28T16:13:24Z</time></trkpt><trkpt lat="46.17556782142814" lon="10.10595423858454"><ele>385.5</ele><time>2026-03-28T16:13:25Z</time></trkpt><trkpt lat="46.17534785141471" lon="10.105643249602421"><ele>384.0</ele><time>2026-03-28T16:13:26Z</time></trkpt><trkpt lat="46.175123982453854" lon="10.105326884866512"><ele>384.0</ele><time>2026-03-28T16:13:27Z</time></trkpt><trkpt lat="46.17490728941308" lon="10.105020890269731"><ele>384.0</ele><time>2026-03-28T16:13:28Z</time></trkpt><trkpt lat="46.174701395575276" lon="10.104730145296681"><ele>384.0</ele><time>2026-03-28T16:13:29Z</time></trkpt><trkpt lat="46.174503676850705" lon="10.104449901261978"><ele>384.0</ele><time>2026-03-28T16:13:30Z</time></trkpt><trkpt lat="46.174297838231894" lon="10.104180583143924"><ele>383.5</ele><time>2026-03-28T16:13:31Z</time></trkpt><trkpt lat="46.17411065765157" lon="10.10389065006791"><ele>383.0</ele><time>2026-03-28T16:13:32Z</time></trkpt><trkpt lat="46.173925526004126" lon="10.103604854440755"><ele>383.0</ele><time>2026-03-28T16:13:33Z</time></trkpt><trkpt lat="46.17373051269924" lon="10.103316556326284"><ele>383.0</ele><time>2026-03-28T16:13:34Z</time></trkpt><trkpt lat="46.17352896300967" lon="10.103022419744853"><ele>382.5</ele><time>2026-03-28T16:13:35Z</time></trkpt><trkpt lat="46.17332302107076" lon="10.102717709362892"><ele>382.0</ele><time>2026-03-28T16:13:36Z</time></trkpt><trkpt lat="46.17309827578427" lon="10.102389056021831"><ele>381.0</ele><time>2026-03-28T16:13:37Z</time></trkpt><trkpt lat="46.172872771679735" lon="10.10202549076494"><ele>380.0</ele><time>2026-03-28T16:13:38Z</time></trkpt><trkpt lat="46.172612891653216" lon="10.101698253271744"><ele>380.5</ele><time>2026-03-28T16:13:39Z</time></trkpt><trkpt lat="46.172360940694944" lon="10.101333765831937"><ele>381.0</ele><time>2026-03-28T16:13:40Z</time></trkpt><trkpt lat="46.172092778158806" lon="10.100970891504963"><ele>380.0</ele><time>2026-03-28T16:13:41Z</time></trkpt><trkpt lat="46.171834202380246" lon="10.100601341685154"><ele>379.0</ele><time>2026-03-28T16:13:42Z</time></trkpt><trkpt lat="46.17159542335572" lon="10.100257640637338"><ele>379.0</ele><time>2026-03-28T16:13:43Z</time></trkpt><trkpt lat="46.17137230734692" lon="10.099946425113107"><ele>379.0</ele><time>2026-03-28T16:13:44Z</time></trkpt><trkpt lat="46.1711778839983" lon="10.099673430231352"><ele>379.5</ele><time>2026-03-28T16:13:45Z</time></trkpt><trkpt lat="46.17100141552046" lon="10.099426763505402"><ele>380.0</ele><time>2026-03-28T16:13:46Z</time></trkpt><trkpt lat="46.17083887512591" lon="10.099201209128035"><ele>379.0</ele><time>2026-03-28T16:13:47Z</time></trkpt><trkpt lat="46.170682233421765" lon="10.098981255812532"><ele>378.0</ele><time>2026-03-28T16:13:48Z</time></trkpt><trkpt lat="46.17053344916834" lon="10.098774432048193"><ele>377.0</ele><time>2026-03-28T16:13:49Z</time></trkpt><trkpt lat="46.17039715462033" lon="10.098579219854665"><ele>377.0</ele><time>2026-03-28T16:13:50Z</time></trkpt><trkpt lat="46.17026977600527" lon="10.09840211873707"><ele>377.0</ele><time>2026-03-28T16:13:51Z</time></trkpt><trkpt lat="46.1701544542021" lon="10.098237372266592"><ele>377.0</ele><time>2026-03-28T16:13:52Z</time></trkpt><trkpt lat="46.17002263708994" lon="10.098054118606711"><ele>377.0</ele><time>2026-03-28T16:13:53Z</time></trkpt><trkpt lat="46.16991238258327" lon="10.097899985722629"><ele>377.0</ele><time>2026-03-28T16:13:54Z</time></trkpt><trkpt lat="46.16979887178504" lon="10.097741512738791"><ele>377.0</ele><time>2026-03-28T16:13:55Z</time></trkpt><trkpt lat="46.16967768997496" lon="10.097574298614363"><ele>376.6666666666667</ele><time>2026-03-28T16:13:56Z</time></trkpt><trkpt lat="46.16956421048553" lon="10.097408850999107"><ele>376.3333333333333</ele><time>2026-03-28T16:13:57Z</time></trkpt><trkpt lat="46.16944914270886" lon="10.097250497272329"><ele>376.0</ele><time>2026-03-28T16:13:58Z</time></trkpt><trkpt lat="46.16933039600253" lon="10.097087536031403"><ele>376.0</ele><time>2026-03-28T16:13:59Z</time></trkpt><trkpt lat="46.169212587633744" lon="10.096915351750196"><ele>376.0</ele><time>2026-03-28T16:14:00Z</time></trkpt><trkpt lat="46.1690943617322" lon="10.096746816804194"><ele>376.0</ele><time>2026-03-28T16:14:01Z</time></trkpt><trkpt lat="46.16897580432045" lon="10.09657881377254"><ele>376.0</ele><time>2026-03-28T16:14:02Z</time></trkpt><trkpt lat="46.16885287803994" lon="10.096402796419873"><ele>376.0</ele><time>2026-03-28T16:14:03Z</time></trkpt><trkpt lat="46.16872658247825" lon="10.09623142771757"><ele>376.0</ele><time>2026-03-28T16:14:04Z</time></trkpt><trkpt lat="46.16859600139534" lon="10.096058151757065"><ele>376.0</ele><time>2026-03-28T16:14:05Z</time></trkpt><trkpt lat="46.168443541219254" lon="10.095856261945746"><ele>376.0</ele><time>2026-03-28T16:14:06Z</time></trkpt><trkpt lat="46.16828776724084" lon="10.095630774180332"><ele>376.0</ele><time>2026-03-28T16:14:07Z</time></trkpt><trkpt lat="46.1681281685008" lon="10.095389143962434"><ele>376.0</ele><time>2026-03-28T16:14:08Z</time></trkpt><trkpt lat="46.16797995095232" lon="10.095162747278058"><ele>376.0</ele><time>2026-03-28T16:14:09Z</time></trkpt><trkpt lat="46.16783943922745" lon="10.094963081758497"><ele>376.0</ele><time>2026-03-28T16:14:10Z</time></trkpt><trkpt lat="46.16770482625491" lon="10.094774436375154"><ele>376.0</ele><time>2026-03-28T16:14:11Z</time></trkpt><trkpt lat="46.16757374725808" lon="10.094596568482638"><ele>376.0</ele><time>2026-03-28T16:14:12Z</time></trkpt><trkpt lat="46.167439351852785" lon="10.094419855844928"><ele>376.0</ele><time>2026-03-28T16:14:13Z</time></trkpt><trkpt lat="46.16728965101995" lon="10.094222080095731"><ele>375.5</ele><time>2026-03-28T16:14:14Z</time></trkpt><trkpt lat="46.16713081491402" lon="10.09399010664668"><ele>375.0</ele><time>2026-03-28T16:14:15Z</time></trkpt><trkpt lat="46.16695510806486" lon="10.093725522536408"><ele>375.0</ele><time>2026-03-28T16:14:16Z</time></trkpt><trkpt lat="46.166782703240244" lon="10.093467127136993"><ele>375.0</ele><time>2026-03-28T16:14:17Z</time></trkpt><trkpt lat="46.16660731711402" lon="10.09321948475201"><ele>375.5</ele><time>2026-03-28T16:14:18Z</time></trkpt><trkpt lat="46.1664418109421" lon="10.092984058688634"><ele>376.0</ele><time>2026-03-28T16:14:19Z</time></trkpt><trkpt lat="46.166280223605696" lon="10.092761688986114"><ele>376.0</ele><time>2026-03-28T16:14:20Z</time></trkpt><trkpt lat="46.16612063912018" lon="10.092551029485437"><ele>376.0</ele><time>2026-03-28T16:14:21Z</time></trkpt><trkpt lat="46.16596798936713" lon="10.09233748904884"><ele>376.0</ele><time>2026-03-28T16:14:22Z</time></trkpt><trkpt lat="46.165799914878264" lon="10.092109434255118"><ele>375.0</ele><time>2026-03-28T16:14:23Z</time></trkpt><trkpt lat="46.165618993805815" lon="10.091902988278822"><ele>374.0</ele><time>2026-03-28T16:14:24Z</time></trkpt><trkpt lat="46.16545298746203" lon="10.091683600168055"><ele>375.6666666666667</ele><time>2026-03-28T16:14:25Z</time></trkpt><trkpt lat="46.16528889131652" lon="10.091483665213486"><ele>377.3333333333333</ele><time>2026-03-28T16:14:26Z</time></trkpt><trkpt lat="46.165139909385125" lon="10.09130243122421"><ele>379.0</ele><time>2026-03-28T16:14:27Z</time></trkpt><trkpt lat="46.165009796468816" lon="10.091147498617657"><ele>379.0</ele><time>2026-03-28T16:14:28Z</time></trkpt><trkpt lat="46.16490486728383" lon="10.09101391983265"><ele>379.0</ele><time>2026-03-28T16:14:29Z</time></trkpt><trkpt lat="46.164803789144166" lon="10.090875813604878"><ele>379.0</ele><time>2026-03-28T16:14:30Z</time></trkpt><trkpt lat="46.16470961662382" lon="10.090736493949402"><ele>379.0</ele><time>2026-03-28T16:14:31Z</time></trkpt><trkpt lat="46.164622098475235" lon="10.090596246621363"><ele>378.25</ele><time>2026-03-28T16:14:32Z</time></trkpt><trkpt lat="46.16454078401864" lon="10.090455805050022"><ele>377.5</ele><time>2026-03-28T16:14:33.001Z</time></trkpt><trkpt lat="46.164451619181754" lon="10.090294949082946"><ele>376.75</ele><time>2026-03-28T16:14:34.001Z</time></trkpt><trkpt lat="46.1643530050803" lon="10.090110266426118"><ele>376.0</ele><time>2026-03-28T16:14:35.001Z</time></trkpt><trkpt lat="46.1642584496253" lon="10.089897098065876"><ele>375.0</ele><time>2026-03-28T16:14:36.001Z</time></trkpt><trkpt lat="46.16416535934275" lon="10.089661678549117"><ele>374.0</ele><time>2026-03-28T16:14:37.001Z</time></trkpt><trkpt lat="46.1640726691543" lon="10.089410823839897"><ele>373.0</ele><time>2026-03-28T16:14:38.001Z</time></trkpt><trkpt lat="46.163985347866664" lon="10.089152517984042"><ele>374.0</ele><time>2026-03-28T16:14:39.001Z</time></trkpt><trkpt lat="46.16390352462178" lon="10.088894362825243"><ele>375.0</ele><time>2026-03-28T16:14:40.001Z</time></trkpt><trkpt lat="46.1638168468667" lon="10.08861877153861"><ele>376.0</ele><time>2026-03-28T16:14:41.001Z</time></trkpt><trkpt lat="46.163729612443305" lon="10.088359078732267"><ele>376.66666666666663</ele><time>2026-03-28T16:14:42.001Z</time></trkpt><trkpt lat="46.16363790828027" lon="10.088101046971698"><ele>377.3333333333333</ele><time>2026-03-28T16:14:43.001Z</time></trkpt><trkpt lat="46.1635447928385" lon="10.087842671696341"><ele>378.0</ele><time>2026-03-28T16:14:44.001Z</time></trkpt><trkpt lat="46.16345512441606" lon="10.087598142917427"><ele>379.3333333333333</ele><time>2026-03-28T16:14:45.001Z</time></trkpt><trkpt lat="46.16335767069393" lon="10.087360533177888"><ele>380.66666666666663</ele><time>2026-03-28T16:14:46Z</time></trkpt><trkpt lat="46.163288634714505" lon="10.087125867888231"><ele>382.0</ele><time>2026-03-28T16:14:47Z</time></trkpt><trkpt lat="46.163202768343695" lon="10.086899056397755"><ele>378.66666666666663</ele><time>2026-03-28T16:14:48Z</time></trkpt><trkpt lat="46.16312765078338" lon="10.08668020857747"><ele>375.3333333333333</ele><time>2026-03-28T16:14:49Z</time></trkpt><trkpt lat="46.16307051891839" lon="10.086456571040461"><ele>372.0</ele><time>2026-03-28T16:14:50Z</time></trkpt><trkpt lat="46.16302083493419" lon="10.086239304410308"><ele>372.0</ele><time>2026-03-28T16:14:51Z</time></trkpt><trkpt lat="46.16298020747054" lon="10.086019041553362"><ele>372.0</ele><time>2026-03-28T16:14:52Z</time></trkpt><trkpt lat="46.16293879927511" lon="10.085778506569483"><ele>372.0</ele><time>2026-03-28T16:14:53Z</time></trkpt><trkpt lat="46.16290364879322" lon="10.08552934830334"><ele>372.3333333333333</ele><time>2026-03-28T16:14:54Z</time></trkpt><trkpt lat="46.16286797756114" lon="10.085283095442126"><ele>372.66666666666663</ele><time>2026-03-28T16:14:55Z</time></trkpt><trkpt lat="46.16283121852385" lon="10.085050421517582"><ele>373.0</ele><time>2026-03-28T16:14:56Z</time></trkpt><trkpt lat="46.16280104261961" lon="10.08483146167383"><ele>374.3333333333333</ele><time>2026-03-28T16:14:57Z</time></trkpt><trkpt lat="46.16276186297114" lon="10.084626519063542"><ele>375.6666666666667</ele><time>2026-03-28T16:14:58Z</time></trkpt><trkpt lat="46.16271474642455" lon="10.084417950163933"><ele>377.0</ele><time>2026-03-28T16:14:59Z</time></trkpt><trkpt lat="46.16264309009639" lon="10.084196620546797"><ele>379.0</ele><time>2026-03-28T16:15:00Z</time></trkpt><trkpt lat="46.162566856101805" lon="10.083958364188335"><ele>381.0</ele><time>2026-03-28T16:15:01Z</time></trkpt><trkpt lat="46.16248642311455" lon="10.083708818674463"><ele>383.0</ele><time>2026-03-28T16:15:02Z</time></trkpt><trkpt lat="46.16239413248454" lon="10.08345850171709"><ele>380.0</ele><time>2026-03-28T16:15:03Z</time></trkpt><trkpt lat="46.16230623899719" lon="10.083192705599716"><ele>377.0</ele><time>2026-03-28T16:15:04Z</time></trkpt><trkpt lat="46.16224429640308" lon="10.082920572169643"><ele>374.0</ele><time>2026-03-28T16:15:05Z</time></trkpt><trkpt lat="46.16214918997625" lon="10.082659865263643"><ele>374.6666666666667</ele><time>2026-03-28T16:15:06Z</time></trkpt><trkpt lat="46.16206371179322" lon="10.082397796807596"><ele>375.3333333333333</ele><time>2026-03-28T16:15:07Z</time></trkpt><trkpt lat="46.16197670251476" lon="10.082127922454365"><ele>376.0</ele><time>2026-03-28T16:15:08Z</time></trkpt><trkpt lat="46.16189236943115" lon="10.081842282885953"><ele>378.0</ele><time>2026-03-28T16:15:09Z</time></trkpt><trkpt lat="46.16181713944303" lon="10.081549514226147"><ele>380.0</ele><time>2026-03-28T16:15:10Z</time></trkpt><trkpt lat="46.16173707921617" lon="10.081260965476151"><ele>382.0</ele><time>2026-03-28T16:15:11Z</time></trkpt><trkpt lat="46.16166104615999" lon="10.080964138671733"><ele>386.0</ele><time>2026-03-28T16:15:12Z</time></trkpt><trkpt lat="46.16158318033923" lon="10.08065992340304"><ele>390.0</ele><time>2026-03-28T16:15:13Z</time></trkpt><trkpt lat="46.161505605956044" lon="10.080349207486588"><ele>381.0</ele><time>2026-03-28T16:15:14Z</time></trkpt><trkpt lat="46.16142615462626" lon="10.08003399727185"><ele>372.0</ele><time>2026-03-28T16:15:15Z</time></trkpt><trkpt lat="46.161349326515854" lon="10.079723837300834"><ele>372.0</ele><time>2026-03-28T16:15:16Z</time></trkpt><trkpt lat="46.161274187318895" lon="10.079417136923144"><ele>372.0</ele><time>2026-03-28T16:15:17Z</time></trkpt><trkpt lat="46.16120172650805" lon="10.079110557186384"><ele>372.3333333333333</ele><time>2026-03-28T16:15:18Z</time></trkpt><trkpt lat="46.16112821312983" lon="10.078803977716388"><ele>372.66666666666663</ele><time>2026-03-28T16:15:19Z</time></trkpt><trkpt lat="46.16105382102779" lon="10.078503640446526"><ele>373.0</ele><time>2026-03-28T16:15:20Z</time></trkpt><trkpt lat="46.16097719756829" lon="10.078207844686956"><ele>373.3333333333333</ele><time>2026-03-28T16:15:21Z</time></trkpt><trkpt lat="46.16090289089052" lon="10.07791055196081"><ele>373.6666666666667</ele><time>2026-03-28T16:15:22Z</time></trkpt><trkpt lat="46.16083387351164" lon="10.07761460064691"><ele>374.0</ele><time>2026-03-28T16:15:23Z</time></trkpt><trkpt lat="46.16077059741262" lon="10.077309777868784"><ele>374.5</ele><time>2026-03-28T16:15:24Z</time></trkpt><trkpt lat="46.16070836541818" lon="10.076997021774025"><ele>375.0</ele><time>2026-03-28T16:15:25Z</time></trkpt><trkpt lat="46.16065468468132" lon="10.076678658274288"><ele>372.0</ele><time>2026-03-28T16:15:26Z</time></trkpt><trkpt lat="46.160604046530864" lon="10.07635836183002"><ele>369.0</ele><time>2026-03-28T16:15:27Z</time></trkpt><trkpt lat="46.16055335757247" lon="10.076033378735291"><ele>368.5</ele><time>2026-03-28T16:15:28Z</time></trkpt><trkpt lat="46.16051124007628" lon="10.075701623653023"><ele>368.0</ele><time>2026-03-28T16:15:29Z</time></trkpt><trkpt lat="46.16047016126092" lon="10.075366324095834"><ele>368.0</ele><time>2026-03-28T16:15:30Z</time></trkpt><trkpt lat="46.16043074398925" lon="10.075029696582439"><ele>368.0</ele><time>2026-03-28T16:15:31Z</time></trkpt><trkpt lat="46.16039409285983" lon="10.074696903159143"><ele>367.5</ele><time>2026-03-28T16:15:32Z</time></trkpt><trkpt lat="46.160357892000995" lon="10.074372514163175"><ele>367.0</ele><time>2026-03-28T16:15:33Z</time></trkpt><trkpt lat="46.16031908203878" lon="10.074051009189398"><ele>367.0</ele><time>2026-03-28T16:15:34Z</time></trkpt><trkpt lat="46.16028223655606" lon="10.073735020247497"><ele>367.0</ele><time>2026-03-28T16:15:35Z</time></trkpt><trkpt lat="46.16024810509279" lon="10.073432169457828"><ele>367.0</ele><time>2026-03-28T16:15:36Z</time></trkpt><trkpt lat="46.160214671565605" lon="10.073143993299528"><ele>367.0</ele><time>2026-03-28T16:15:37Z</time></trkpt><trkpt lat="46.16018299551666" lon="10.072873518509965"><ele>367.0</ele><time>2026-03-28T16:15:38Z</time></trkpt><trkpt lat="46.160150252043884" lon="10.072604151196435"><ele>367.0</ele><time>2026-03-28T16:15:39Z</time></trkpt><trkpt lat="46.16011462364711" lon="10.072329355714587"><ele>367.0</ele><time>2026-03-28T16:15:40Z</time></trkpt><trkpt lat="46.16007517422493" lon="10.072041035711035"><ele>367.0</ele><time>2026-03-28T16:15:41Z</time></trkpt><trkpt lat="46.16003731512873" lon="10.071736647171004"><ele>367.0</ele><time>2026-03-28T16:15:42Z</time></trkpt><trkpt lat="46.16000052861295" lon="10.071425567367172"><ele>366.5</ele><time>2026-03-28T16:15:43Z</time></trkpt><trkpt lat="46.15997285621619" lon="10.071101431393537"><ele>366.0</ele><time>2026-03-28T16:15:44Z</time></trkpt><trkpt lat="46.159941891837114" lon="10.070769751350355"><ele>366.0</ele><time>2026-03-28T16:15:45Z</time></trkpt><trkpt lat="46.15990542405236" lon="10.070433453998671"><ele>366.0</ele><time>2026-03-28T16:15:46Z</time></trkpt><trkpt lat="46.1598637974234" lon="10.070090242057884"><ele>366.0</ele><time>2026-03-28T16:15:47Z</time></trkpt><trkpt lat="46.15983255056102" lon="10.069749974873817"><ele>366.0</ele><time>2026-03-28T16:15:48Z</time></trkpt><trkpt lat="46.15979479464059" lon="10.069417797322927"><ele>365.5</ele><time>2026-03-28T16:15:49Z</time></trkpt><trkpt lat="46.159755659540714" lon="10.069090721835938"><ele>365.0</ele><time>2026-03-28T16:15:50Z</time></trkpt><trkpt lat="46.1597217490904" lon="10.06877227283103"><ele>365.0</ele><time>2026-03-28T16:15:51Z</time></trkpt><trkpt lat="46.159682259284075" lon="10.06844493457869"><ele>365.0</ele><time>2026-03-28T16:15:52Z</time></trkpt><trkpt lat="46.15964817532356" lon="10.068126247360219"><ele>365.0</ele><time>2026-03-28T16:15:53Z</time></trkpt><trkpt lat="46.15961004913689" lon="10.067807983506599"><ele>365.0</ele><time>2026-03-28T16:15:54Z</time></trkpt><trkpt lat="46.159570257718045" lon="10.067490266665239"><ele>365.0</ele><time>2026-03-28T16:15:55Z</time></trkpt><trkpt lat="46.15953423250702" lon="10.06717820679315"><ele>364.6666666666667</ele><time>2026-03-28T16:15:56Z</time></trkpt><trkpt lat="46.15949304703304" lon="10.066861516655042"><ele>364.3333333333333</ele><time>2026-03-28T16:15:57Z</time></trkpt><trkpt lat="46.15945769562878" lon="10.066539279337132"><ele>364.0</ele><time>2026-03-28T16:15:58Z</time></trkpt><trkpt lat="46.15942016834428" lon="10.066217071526646"><ele>365.0</ele><time>2026-03-28T16:15:59Z</time></trkpt><trkpt lat="46.1593848391414" lon="10.065891326400061"><ele>366.0</ele><time>2026-03-28T16:16:00Z</time></trkpt><trkpt lat="46.15935961861954" lon="10.065561717239607"><ele>366.0</ele><time>2026-03-28T16:16:01Z</time></trkpt><trkpt lat="46.159341120182745" lon="10.065223065388912"><ele>366.0</ele><time>2026-03-28T16:16:02Z</time></trkpt><trkpt lat="46.159326880653005" lon="10.064885936555186"><ele>365.5</ele><time>2026-03-28T16:16:03Z</time></trkpt><trkpt lat="46.159312721598475" lon="10.064537246843564"><ele>365.0</ele><time>2026-03-28T16:16:04Z</time></trkpt><trkpt lat="46.15929774256643" lon="10.064197388871204"><ele>365.0</ele><time>2026-03-28T16:16:05Z</time></trkpt><trkpt lat="46.15928828472962" lon="10.063851675931026"><ele>365.0</ele><time>2026-03-28T16:16:06Z</time></trkpt><trkpt lat="46.15927558508919" lon="10.063505076077549"><ele>365.0</ele><time>2026-03-28T16:16:07Z</time></trkpt><trkpt lat="46.159262440740335" lon="10.063151066042703"><ele>365.0</ele><time>2026-03-28T16:16:08Z</time></trkpt><trkpt lat="46.159241042129324" lon="10.062798426341729"><ele>365.0</ele><time>2026-03-28T16:16:09Z</time></trkpt><trkpt lat="46.15922844459768" lon="10.062435002733805"><ele>365.0</ele><time>2026-03-28T16:16:10Z</time></trkpt><trkpt lat="46.15921729017157" lon="10.062058872302437"><ele>365.0</ele><time>2026-03-28T16:16:11Z</time></trkpt><trkpt lat="46.15920992505001" lon="10.061653473202673"><ele>365.0</ele><time>2026-03-28T16:16:12.001Z</time></trkpt><trkpt lat="46.15920242534073" lon="10.061215698314115"><ele>363.5</ele><time>2026-03-28T16:16:13.001Z</time></trkpt><trkpt lat="46.15918974382531" lon="10.060759552679995"><ele>362.0</ele><time>2026-03-28T16:16:14.001Z</time></trkpt><trkpt lat="46.15917517347305" lon="10.06028639474395"><ele>363.0</ele><time>2026-03-28T16:16:15.001Z</time></trkpt><trkpt lat="46.159160109779954" lon="10.059801686437877"><ele>364.0</ele><time>2026-03-28T16:16:16.001Z</time></trkpt><trkpt lat="46.15914392434245" lon="10.059298861269319"><ele>364.0</ele><time>2026-03-28T16:16:17.001Z</time></trkpt><trkpt lat="46.15912510440018" lon="10.058799003537343"><ele>364.0</ele><time>2026-03-28T16:16:18.001Z</time></trkpt><trkpt lat="46.15910036483605" lon="10.058283869504647"><ele>364.0</ele><time>2026-03-28T16:16:19.001Z</time></trkpt><trkpt lat="46.15908332015578" lon="10.057759437149619"><ele>364.0</ele><time>2026-03-28T16:16:20.001Z</time></trkpt><trkpt lat="46.1590651666883" lon="10.057238853927029"><ele>363.5</ele><time>2026-03-28T16:16:21.001Z</time></trkpt><trkpt lat="46.15904833451149" lon="10.056741891730047"><ele>363.0</ele><time>2026-03-28T16:16:22.001Z</time></trkpt><trkpt lat="46.15903062481967" lon="10.05626234191589"><ele>362.0</ele><time>2026-03-28T16:16:23.001Z</time></trkpt><trkpt lat="46.15901381918578" lon="10.055789146501585"><ele>361.0</ele><time>2026-03-28T16:16:24.001Z</time></trkpt><trkpt lat="46.15899768809004" lon="10.055307752685794"><ele>362.0</ele><time>2026-03-28T16:16:25.001Z</time></trkpt><trkpt lat="46.15898615340402" lon="10.054826726553221"><ele>363.0</ele><time>2026-03-28T16:16:26.001Z</time></trkpt><trkpt lat="46.158967757229746" lon="10.054352115560441"><ele>362.0</ele><time>2026-03-28T16:16:27.001Z</time></trkpt><trkpt lat="46.15894161458951" lon="10.053873304884327"><ele>361.0</ele><time>2026-03-28T16:16:28.001Z</time></trkpt><trkpt lat="46.15891798127978" lon="10.053384726147389"><ele>361.5</ele><time>2026-03-28T16:16:29.001Z</time></trkpt><trkpt lat="46.158897077633405" lon="10.05289343436286"><ele>362.0</ele><time>2026-03-28T16:16:30.001Z</time></trkpt><trkpt lat="46.15887965855966" lon="10.052400348737535"><ele>362.0</ele><time>2026-03-28T16:16:31.001Z</time></trkpt><trkpt lat="46.15886098939744" lon="10.0519014981468"><ele>362.0</ele><time>2026-03-28T16:16:32.001Z</time></trkpt><trkpt lat="46.158837448047244" lon="10.0513947757717"><ele>362.0</ele><time>2026-03-28T16:16:33.001Z</time></trkpt><trkpt lat="46.15882140772731" lon="10.050882137098359"><ele>362.0</ele><time>2026-03-28T16:16:34.001Z</time></trkpt><trkpt lat="46.15881922268378" lon="10.05038834485097"><ele>361.5</ele><time>2026-03-28T16:16:35.001Z</time></trkpt><trkpt lat="46.15883138988139" lon="10.049918011156972"><ele>361.0</ele><time>2026-03-28T16:16:36.001Z</time></trkpt><trkpt lat="46.158858119516765" lon="10.049508298756017"><ele>361.5</ele><time>2026-03-28T16:16:37.001Z</time></trkpt><trkpt lat="46.15888408138007" lon="10.049119784613625"><ele>362.0</ele><time>2026-03-28T16:16:38.001Z</time></trkpt><trkpt lat="46.15891425038135" lon="10.048754558598926"><ele>362.0</ele><time>2026-03-28T16:16:39.001Z</time></trkpt><trkpt lat="46.15893491320467" lon="10.048398313155337"><ele>362.0</ele><time>2026-03-28T16:16:40.001Z</time></trkpt><trkpt lat="46.15893889240497" lon="10.048059914056164"><ele>362.0</ele><time>2026-03-28T16:16:41.001Z</time></trkpt><trkpt lat="46.15891142951733" lon="10.047734311943195"><ele>362.0</ele><time>2026-03-28T16:16:42.001Z</time></trkpt><trkpt lat="46.15868600900958" lon="10.047305225098663"><ele>362.0</ele><time>2026-03-28T16:16:43.001Z</time></trkpt><trkpt lat="46.15867038213145" lon="10.047032857901133"><ele>362.0</ele><time>2026-03-28T16:16:44.001Z</time></trkpt><trkpt lat="46.15866516285247" lon="10.046773318721264"><ele>362.0</ele><time>2026-03-28T16:16:45.001Z</time></trkpt><trkpt lat="46.158656260459985" lon="10.046510796785991"><ele>361.6666666666667</ele><time>2026-03-28T16:16:46.001Z</time></trkpt><trkpt lat="46.15863767147427" lon="10.046237053993751"><ele>361.3333333333333</ele><time>2026-03-28T16:16:47.001Z</time></trkpt><trkpt lat="46.15861417988764" lon="10.045928882436788"><ele>361.0</ele><time>2026-03-28T16:16:48.001Z</time></trkpt><trkpt lat="46.1586055108625" lon="10.045598373645634"><ele>362.5</ele><time>2026-03-28T16:16:49.001Z</time></trkpt><trkpt lat="46.15860028100319" lon="10.045267241073365"><ele>364.0</ele><time>2026-03-28T16:16:50.001Z</time></trkpt><trkpt lat="46.15859400224244" lon="10.044939618553371"><ele>364.3333333333333</ele><time>2026-03-28T16:16:51.001Z</time></trkpt><trkpt lat="46.15859029095067" lon="10.044619531476526"><ele>364.6666666666667</ele><time>2026-03-28T16:16:52Z</time></trkpt><trkpt lat="46.15859159699949" lon="10.044306106547577"><ele>365.0</ele><time>2026-03-28T16:16:53Z</time></trkpt><trkpt lat="46.15857729715724" lon="10.044005328299667"><ele>365.0</ele><time>2026-03-28T16:16:54Z</time></trkpt><trkpt lat="46.15857819460503" lon="10.04371430264904"><ele>365.0</ele><time>2026-03-28T16:16:55Z</time></trkpt><trkpt lat="46.158592831928594" lon="10.043436534735497"><ele>365.0</ele><time>2026-03-28T16:16:56Z</time></trkpt><trkpt lat="46.15860673827183" lon="10.043174148617453"><ele>364.33333333333337</ele><time>2026-03-28T16:16:57Z</time></trkpt><trkpt lat="46.1586207646158" lon="10.042921026462173"><ele>363.6666666666667</ele><time>2026-03-28T16:16:58Z</time></trkpt><trkpt lat="46.15863209223905" lon="10.04266671818089"><ele>363.0</ele><time>2026-03-28T16:16:59Z</time></trkpt><trkpt lat="46.15863860878435" lon="10.042409301855587"><ele>362.6666666666667</ele><time>2026-03-28T16:17:00Z</time></trkpt><trkpt lat="46.158658127301344" lon="10.042129565531404"><ele>362.33333333333337</ele><time>2026-03-28T16:17:01Z</time></trkpt><trkpt lat="46.15867215158497" lon="10.041851894718215"><ele>362.0</ele><time>2026-03-28T16:17:02Z</time></trkpt><trkpt lat="46.158686696383505" lon="10.041551390453147"><ele>361.33333333333337</ele><time>2026-03-28T16:17:03Z</time></trkpt><trkpt lat="46.15870818181501" lon="10.04124046611182"><ele>360.6666666666667</ele><time>2026-03-28T16:17:04Z</time></trkpt><trkpt lat="46.15872874202746" lon="10.040928911401185"><ele>360.0</ele><time>2026-03-28T16:17:05Z</time></trkpt><trkpt lat="46.158751716043845" lon="10.0406307995852"><ele>360.0</ele><time>2026-03-28T16:17:06Z</time></trkpt><trkpt lat="46.15875812123426" lon="10.04034811121859"><ele>360.0</ele><time>2026-03-28T16:17:07Z</time></trkpt><trkpt lat="46.15876293321007" lon="10.040058433357354"><ele>360.0</ele><time>2026-03-28T16:17:08Z</time></trkpt><trkpt lat="46.15877183651851" lon="10.039751786469905"><ele>360.3333333333333</ele><time>2026-03-28T16:17:09Z</time></trkpt><trkpt lat="46.15878143051532" lon="10.039433812119885"><ele>360.66666666666663</ele><time>2026-03-28T16:17:10Z</time></trkpt><trkpt lat="46.15879516348442" lon="10.039123510380634"><ele>361.0</ele><time>2026-03-28T16:17:11Z</time></trkpt><trkpt lat="46.15880094291794" lon="10.038820249842303"><ele>361.3333333333333</ele><time>2026-03-28T16:17:12Z</time></trkpt><trkpt lat="46.15880085228848" lon="10.038532942590686"><ele>361.6666666666667</ele><time>2026-03-28T16:17:13Z</time></trkpt><trkpt lat="46.15880007319542" lon="10.038257749290597"><ele>362.0</ele><time>2026-03-28T16:17:14Z</time></trkpt><trkpt lat="46.158802886081446" lon="10.037989433455692"><ele>361.6666666666667</ele><time>2026-03-28T16:17:15Z</time></trkpt><trkpt lat="46.15881094949048" lon="10.037714833148428"><ele>361.3333333333333</ele><time>2026-03-28T16:17:16Z</time></trkpt><trkpt lat="46.15884281531966" lon="10.03745830732765"><ele>361.0</ele><time>2026-03-28T16:17:17Z</time></trkpt><trkpt lat="46.158885503978226" lon="10.037205378634363"><ele>361.0</ele><time>2026-03-28T16:17:18Z</time></trkpt><trkpt lat="46.158893649125055" lon="10.0369793842979"><ele>361.0</ele><time>2026-03-28T16:17:19Z</time></trkpt><trkpt lat="46.15891558273741" lon="10.036773067330602"><ele>361.0</ele><time>2026-03-28T16:17:20Z</time></trkpt><trkpt lat="46.15893618573127" lon="10.036597441702485"><ele>361.0</ele><time>2026-03-28T16:17:21Z</time></trkpt><trkpt lat="46.158966627704054" lon="10.036479703103955"><ele>361.0</ele><time>2026-03-28T16:17:22Z</time></trkpt><trkpt lat="46.158984850160756" lon="10.03633439704913"><ele>361.0</ele><time>2026-03-28T16:17:49Z</time></trkpt><trkpt lat="46.158996459008556" lon="10.036187356510096"><ele>361.0</ele><time>2026-03-28T16:17:50Z</time></trkpt><trkpt lat="46.159012629895294" lon="10.036025449676337"><ele>361.0</ele><time>2026-03-28T16:17:51Z</time></trkpt><trkpt lat="46.159030134365025" lon="10.035860803870774"><ele>361.0</ele><time>2026-03-28T16:17:52Z</time></trkpt><trkpt lat="46.15904942522015" lon="10.03569437817227"><ele>362.75</ele><time>2026-03-28T16:17:53Z</time></trkpt><trkpt lat="46.159059470215865" lon="10.035510462538028"><ele>364.5</ele><time>2026-03-28T16:17:54Z</time></trkpt><trkpt lat="46.15908328840395" lon="10.0353212216139"><ele>366.25</ele><time>2026-03-28T16:17:55.001Z</time></trkpt><trkpt lat="46.1591062375224" lon="10.035117274892714"><ele>368.0</ele><time>2026-03-28T16:17:56.001Z</time></trkpt><trkpt lat="46.15912853209854" lon="10.03489303236161"><ele>368.0</ele><time>2026-03-28T16:17:57.001Z</time></trkpt><trkpt lat="46.15915390241132" lon="10.034662413171294"><ele>368.0</ele><time>2026-03-28T16:17:58.001Z</time></trkpt><trkpt lat="46.159175103101376" lon="10.034430319022633"><ele>368.0</ele><time>2026-03-28T16:17:59.001Z</time></trkpt><trkpt lat="46.15919829388659" lon="10.034182716710246"><ele>367.33333333333337</ele><time>2026-03-28T16:18:00.001Z</time></trkpt><trkpt lat="46.159225641612814" lon="10.033921377411303"><ele>366.6666666666667</ele><time>2026-03-28T16:18:01.001Z</time></trkpt><trkpt lat="46.1592591483045" lon="10.033644332669644"><ele>366.0</ele><time>2026-03-28T16:18:02.001Z</time></trkpt><trkpt lat="46.1592934962941" lon="10.033349190701138"><ele>365.0</ele><time>2026-03-28T16:18:03.001Z</time></trkpt><trkpt lat="46.15932993657679" lon="10.03304920128184"><ele>364.0</ele><time>2026-03-28T16:18:04.001Z</time></trkpt><trkpt lat="46.159358287128555" lon="10.032734168871414"><ele>363.0</ele><time>2026-03-28T16:18:05.001Z</time></trkpt><trkpt lat="46.1593895218868" lon="10.032411427124238"><ele>361.5</ele><time>2026-03-28T16:18:06.001Z</time></trkpt><trkpt lat="46.15942592061778" lon="10.03208132415221"><ele>360.0</ele><time>2026-03-28T16:18:07.001Z</time></trkpt><trkpt lat="46.159466851846815" lon="10.031760631837582"><ele>359.0</ele><time>2026-03-28T16:18:08.001Z</time></trkpt><trkpt lat="46.15951278127801" lon="10.031439027206437"><ele>358.0</ele><time>2026-03-28T16:18:09.001Z</time></trkpt><trkpt lat="46.15955653940625" lon="10.031120306440684"><ele>357.66666666666663</ele><time>2026-03-28T16:18:10.001Z</time></trkpt><trkpt lat="46.159594011295596" lon="10.030805522690306"><ele>357.3333333333333</ele><time>2026-03-28T16:18:11.001Z</time></trkpt><trkpt lat="46.1596319078985" lon="10.030490674065645"><ele>357.0</ele><time>2026-03-28T16:18:12.001Z</time></trkpt><trkpt lat="46.15967546585735" lon="10.030182212538778"><ele>356.6666666666667</ele><time>2026-03-28T16:18:13.001Z</time></trkpt><trkpt lat="46.15971928059329" lon="10.029893775931956"><ele>356.33333333333337</ele><time>2026-03-28T16:18:14.001Z</time></trkpt><trkpt lat="46.15975618618486" lon="10.029629906942763"><ele>356.0</ele><time>2026-03-28T16:18:15.001Z</time></trkpt><trkpt lat="46.159792018179964" lon="10.029364398352358"><ele>356.0</ele><time>2026-03-28T16:18:16.001Z</time></trkpt><trkpt lat="46.15982575947832" lon="10.029061729214494"><ele>356.0</ele><time>2026-03-28T16:18:17.001Z</time></trkpt><trkpt lat="46.159874170894284" lon="10.028739996504594"><ele>356.0</ele><time>2026-03-28T16:18:18.001Z</time></trkpt><trkpt lat="46.159924981024105" lon="10.028403158937673"><ele>357.5</ele><time>2026-03-28T16:18:19.001Z</time></trkpt><trkpt lat="46.15996488057321" lon="10.028066372983147"><ele>359.0</ele><time>2026-03-28T16:18:20.001Z</time></trkpt><trkpt lat="46.160008044654695" lon="10.027722497044712"><ele>359.0</ele><time>2026-03-28T16:18:21.001Z</time></trkpt><trkpt lat="46.16006053025354" lon="10.027371709703973"><ele>359.0</ele><time>2026-03-28T16:18:22.001Z</time></trkpt><trkpt lat="46.16010912797964" lon="10.027029981416417"><ele>359.0</ele><time>2026-03-28T16:18:23.001Z</time></trkpt><trkpt lat="46.16015362769666" lon="10.026701823001769"><ele>359.0</ele><time>2026-03-28T16:18:24.001Z</time></trkpt><trkpt lat="46.16019179667128" lon="10.02639569965839"><ele>359.0</ele><time>2026-03-28T16:18:25.001Z</time></trkpt><trkpt lat="46.16023332746751" lon="10.026083553039461"><ele>358.0</ele><time>2026-03-28T16:18:26.001Z</time></trkpt><trkpt lat="46.16028813954759" lon="10.025765286624559"><ele>357.0</ele><time>2026-03-28T16:18:27.001Z</time></trkpt><trkpt lat="46.16033080218214" lon="10.025430643062503"><ele>357.0</ele><time>2026-03-28T16:18:28.001Z</time></trkpt><trkpt lat="46.160367311288965" lon="10.025100852523698"><ele>357.0</ele><time>2026-03-28T16:18:29.001Z</time></trkpt><trkpt lat="46.1604116231616" lon="10.024765845375258"><ele>356.0</ele><time>2026-03-28T16:18:30.001Z</time></trkpt><trkpt lat="46.160457803663405" lon="10.024425182647139"><ele>355.0</ele><time>2026-03-28T16:18:31.001Z</time></trkpt><trkpt lat="46.16050815342631" lon="10.024080359996102"><ele>354.5</ele><time>2026-03-28T16:18:32.001Z</time></trkpt><trkpt lat="46.16055957869804" lon="10.023740417585648"><ele>354.0</ele><time>2026-03-28T16:18:33.001Z</time></trkpt><trkpt lat="46.16061497176105" lon="10.023408035475391"><ele>354.5</ele><time>2026-03-28T16:18:34.001Z</time></trkpt><trkpt lat="46.16064175970893" lon="10.023064168519545"><ele>355.0</ele><time>2026-03-28T16:18:35.001Z</time></trkpt><trkpt lat="46.16069729531715" lon="10.022736093688742"><ele>355.5</ele><time>2026-03-28T16:18:36.001Z</time></trkpt><trkpt lat="46.16074254829959" lon="10.022397831955043"><ele>356.0</ele><time>2026-03-28T16:18:37.001Z</time></trkpt><trkpt lat="46.16078725286334" lon="10.022055838128425"><ele>356.0</ele><time>2026-03-28T16:18:38.001Z</time></trkpt><trkpt lat="46.16083643731482" lon="10.021716143691856"><ele>356.0</ele><time>2026-03-28T16:18:39.001Z</time></trkpt><trkpt lat="46.1608833728492" lon="10.021376984601599"><ele>355.5</ele><time>2026-03-28T16:18:40.001Z</time></trkpt><trkpt lat="46.16092646827886" lon="10.02103717726954"><ele>355.0</ele><time>2026-03-28T16:18:41.001Z</time></trkpt><trkpt lat="46.16097281015466" lon="10.020689844676284"><ele>355.0</ele><time>2026-03-28T16:18:42.001Z</time></trkpt><trkpt lat="46.16101369172697" lon="10.020339219116432"><ele>355.0</ele><time>2026-03-28T16:18:43.001Z</time></trkpt><trkpt lat="46.161056992149604" lon="10.019989345335457"><ele>355.0</ele><time>2026-03-28T16:18:44.001Z</time></trkpt><trkpt lat="46.161098209331215" lon="10.019638654845249"><ele>355.0</ele><time>2026-03-28T16:18:45.001Z</time></trkpt><trkpt lat="46.16114653547203" lon="10.01929534650289"><ele>354.0</ele><time>2026-03-28T16:18:46.001Z</time></trkpt><trkpt lat="46.16119270769513" lon="10.0189605812806"><ele>353.0</ele><time>2026-03-28T16:18:47.001Z</time></trkpt><trkpt lat="46.161245185677586" lon="10.01863029570699"><ele>353.0</ele><time>2026-03-28T16:18:48.001Z</time></trkpt><trkpt lat="46.16129927709786" lon="10.018297492280688"><ele>353.0</ele><time>2026-03-28T16:18:49.001Z</time></trkpt><trkpt lat="46.16135072617108" lon="10.01796720131017"><ele>353.0</ele><time>2026-03-28T16:18:50.001Z</time></trkpt><trkpt lat="46.16139972479763" lon="10.017627322707947"><ele>353.0</ele><time>2026-03-28T16:18:51.001Z</time></trkpt><trkpt lat="46.161443633279255" lon="10.01728163419615"><ele>353.0</ele><time>2026-03-28T16:18:52.001Z</time></trkpt><trkpt lat="46.16148448615031" lon="10.016928581498822"><ele>353.0</ele><time>2026-03-28T16:18:53.001Z</time></trkpt><trkpt lat="46.161523794969305" lon="10.016572859506523"><ele>353.0</ele><time>2026-03-28T16:18:54.001Z</time></trkpt><trkpt lat="46.16156261443237" lon="10.016225918519734"><ele>353.0</ele><time>2026-03-28T16:18:55.001Z</time></trkpt><trkpt lat="46.1616050696847" lon="10.01586951325416"><ele>353.5</ele><time>2026-03-28T16:18:56.001Z</time></trkpt><trkpt lat="46.16165075483725" lon="10.015514242029177"><ele>354.0</ele><time>2026-03-28T16:18:57.001Z</time></trkpt><trkpt lat="46.161699700023775" lon="10.015146901014667"><ele>354.0</ele><time>2026-03-28T16:18:58.001Z</time></trkpt><trkpt lat="46.16174437772302" lon="10.014783736774381"><ele>354.0</ele><time>2026-03-28T16:18:59.001Z</time></trkpt><trkpt lat="46.16179768550441" lon="10.01442266418285"><ele>354.0</ele><time>2026-03-28T16:19:00.001Z</time></trkpt><trkpt lat="46.16184467484295" lon="10.014061354056146"><ele>354.0</ele><time>2026-03-28T16:19:01Z</time></trkpt><trkpt lat="46.161886805235945" lon="10.013698944357408"><ele>354.0</ele><time>2026-03-28T16:19:02Z</time></trkpt><trkpt lat="46.16193153260203" lon="10.013338278611169"><ele>354.0</ele><time>2026-03-28T16:19:03Z</time></trkpt><trkpt lat="46.16197348485733" lon="10.012970299172261"><ele>353.0</ele><time>2026-03-28T16:19:04Z</time></trkpt><trkpt lat="46.16202721582889" lon="10.012601813857307"><ele>352.0</ele><time>2026-03-28T16:19:05Z</time></trkpt><trkpt lat="46.16208042621187" lon="10.012241635731941"><ele>351.5</ele><time>2026-03-28T16:19:06Z</time></trkpt><trkpt lat="46.162131777118454" lon="10.01188157717736"><ele>351.0</ele><time>2026-03-28T16:19:07Z</time></trkpt><trkpt lat="46.16218354190403" lon="10.011528823305873"><ele>351.0</ele><time>2026-03-28T16:19:08Z</time></trkpt><trkpt lat="46.162228076021684" lon="10.011173935624406"><ele>351.0</ele><time>2026-03-28T16:19:09Z</time></trkpt><trkpt lat="46.162273543849174" lon="10.010823564358686"><ele>351.0</ele><time>2026-03-28T16:19:10Z</time></trkpt><trkpt lat="46.16231942415252" lon="10.010479668474554"><ele>351.0</ele><time>2026-03-28T16:19:11Z</time></trkpt><trkpt lat="46.162364769493" lon="10.010133397176169"><ele>351.0</ele><time>2026-03-28T16:19:12Z</time></trkpt><trkpt lat="46.162408754918864" lon="10.009800672274109"><ele>351.0</ele><time>2026-03-28T16:19:13Z</time></trkpt><trkpt lat="46.162453115537616" lon="10.009473834885176"><ele>351.0</ele><time>2026-03-28T16:19:14Z</time></trkpt><trkpt lat="46.16249697856464" lon="10.009155721113737"><ele>351.0</ele><time>2026-03-28T16:19:15Z</time></trkpt><trkpt lat="46.16253484764245" lon="10.008860415440456"><ele>351.0</ele><time>2026-03-28T16:19:16Z</time></trkpt><trkpt lat="46.16257647995645" lon="10.008554097791128"><ele>351.0</ele><time>2026-03-28T16:19:17Z</time></trkpt><trkpt lat="46.16261921904279" lon="10.0082368291319"><ele>351.0</ele><time>2026-03-28T16:19:18Z</time></trkpt><trkpt lat="46.16266852543382" lon="10.00790651388898"><ele>351.0</ele><time>2026-03-28T16:19:19Z</time></trkpt><trkpt lat="46.16272353596626" lon="10.007560992732316"><ele>351.0</ele><time>2026-03-28T16:19:20Z</time></trkpt><trkpt lat="46.16277528665104" lon="10.007208896712994"><ele>352.0</ele><time>2026-03-28T16:19:21Z</time></trkpt><trkpt lat="46.16281815080103" lon="10.006847586697095"><ele>353.0</ele><time>2026-03-28T16:19:22Z</time></trkpt><trkpt lat="46.162859950551685" lon="10.006502938694618"><ele>353.0</ele><time>2026-03-28T16:19:23Z</time></trkpt><trkpt lat="46.16289338821715" lon="10.006169755465603"><ele>353.0</ele><time>2026-03-28T16:19:24Z</time></trkpt><trkpt lat="46.16292911965341" lon="10.005867184520639"><ele>353.0</ele><time>2026-03-28T16:19:25Z</time></trkpt><trkpt lat="46.16296123865779" lon="10.005557541194717"><ele>352.5</ele><time>2026-03-28T16:19:26Z</time></trkpt><trkpt lat="46.16300282813646" lon="10.005194917729952"><ele>352.0</ele><time>2026-03-28T16:19:27Z</time></trkpt><trkpt lat="46.163053853917326" lon="10.00479804930557"><ele>351.5</ele><time>2026-03-28T16:19:28Z</time></trkpt><trkpt lat="46.16310741994893" lon="10.00436846937331"><ele>351.0</ele><time>2026-03-28T16:19:29Z</time></trkpt><trkpt lat="46.16316542272213" lon="10.003906298331689"><ele>352.5</ele><time>2026-03-28T16:19:30Z</time></trkpt><trkpt lat="46.16322582473269" lon="10.003416946024162"><ele>354.0</ele><time>2026-03-28T16:19:31Z</time></trkpt><trkpt lat="46.16329322975245" lon="10.002918602539761"><ele>353.5</ele><time>2026-03-28T16:19:32Z</time></trkpt><trkpt lat="46.163361371612865" lon="10.002421681049888"><ele>353.0</ele><time>2026-03-28T16:19:33Z</time></trkpt><trkpt lat="46.16342244298816" lon="10.001957858103996"><ele>353.0</ele><time>2026-03-28T16:19:34Z</time></trkpt><trkpt lat="46.16349569721077" lon="10.001510234453498"><ele>353.0</ele><time>2026-03-28T16:19:35Z</time></trkpt><trkpt lat="46.16355438216198" lon="10.00107366374912"><ele>354.5</ele><time>2026-03-28T16:19:36Z</time></trkpt><trkpt lat="46.163612246873925" lon="10.000643394448806"><ele>356.0</ele><time>2026-03-28T16:19:37Z</time></trkpt><trkpt lat="46.16367037452192" lon="10.000219927211361"><ele>356.0</ele><time>2026-03-28T16:19:38Z</time></trkpt><trkpt lat="46.16372642482896" lon="9.999805328508755"><ele>356.0</ele><time>2026-03-28T16:19:39Z</time></trkpt><trkpt lat="46.163784879925586" lon="9.999384329917666"><ele>356.0</ele><time>2026-03-28T16:19:40Z</time></trkpt><trkpt lat="46.163847925838816" lon="9.998962783958664"><ele>356.0</ele><time>2026-03-28T16:19:41Z</time></trkpt><trkpt lat="46.16390721403298" lon="9.99854988956156"><ele>356.5</ele><time>2026-03-28T16:19:42Z</time></trkpt><trkpt lat="46.163962787676645" lon="9.998156560657193"><ele>357.0</ele><time>2026-03-28T16:19:43Z</time></trkpt><trkpt lat="46.16401527634383" lon="9.99778093547227"><ele>355.5</ele><time>2026-03-28T16:19:44Z</time></trkpt><trkpt lat="46.16405957296731" lon="9.997426448289804"><ele>354.0</ele><time>2026-03-28T16:19:45Z</time></trkpt><trkpt lat="46.16410002841982" lon="9.997078212887859"><ele>354.0</ele><time>2026-03-28T16:19:46Z</time></trkpt><trkpt lat="46.164137890549775" lon="9.99675672833509"><ele>354.0</ele><time>2026-03-28T16:19:47Z</time></trkpt><trkpt lat="46.16417911731636" lon="9.996423603578974"><ele>354.5</ele><time>2026-03-28T16:19:48Z</time></trkpt><trkpt lat="46.16422816356936" lon="9.996092974744249"><ele>355.0</ele><time>2026-03-28T16:19:49Z</time></trkpt><trkpt lat="46.164278276559905" lon="9.995760757991114"><ele>355.0</ele><time>2026-03-28T16:19:50Z</time></trkpt><trkpt lat="46.16432467747903" lon="9.995435856148516"><ele>355.0</ele><time>2026-03-28T16:19:51Z</time></trkpt><trkpt lat="46.164367461960936" lon="9.995113966292038"><ele>355.0</ele><time>2026-03-28T16:19:52Z</time></trkpt><trkpt lat="46.16440940481595" lon="9.994802149147155"><ele>355.0</ele><time>2026-03-28T16:19:53Z</time></trkpt><trkpt lat="46.16445045375139" lon="9.994499608341151"><ele>355.0</ele><time>2026-03-28T16:19:54Z</time></trkpt><trkpt lat="46.16448815907166" lon="9.994211548770908"><ele>355.0</ele><time>2026-03-28T16:19:55Z</time></trkpt><trkpt lat="46.16452466301497" lon="9.993941878480586"><ele>355.0</ele><time>2026-03-28T16:19:56Z</time></trkpt><trkpt lat="46.16457214942127" lon="9.993680186194469"><ele>355.0</ele><time>2026-03-28T16:19:57Z</time></trkpt><trkpt lat="46.16461129665884" lon="9.993427157833576"><ele>355.0</ele><time>2026-03-28T16:19:58Z</time></trkpt><trkpt lat="46.16464894841611" lon="9.993188846447138"><ele>355.0</ele><time>2026-03-28T16:19:59Z</time></trkpt><trkpt lat="46.164689334382714" lon="9.993000771595057"><ele>355.0</ele><time>2026-03-28T16:20:00Z</time></trkpt><trkpt lat="46.164731584796414" lon="9.992807279221333"><ele>355.0</ele><time>2026-03-28T16:20:01Z</time></trkpt><trkpt lat="46.16476063642791" lon="9.992665801523179"><ele>355.0</ele><time>2026-03-28T16:20:02Z</time></trkpt><trkpt lat="46.1647902327128" lon="9.992539048639378"><ele>355.0</ele><time>2026-03-28T16:20:03Z</time></trkpt><trkpt lat="46.16481267425979" lon="9.99243897410236"><ele>355.0</ele><time>2026-03-28T16:20:04Z</time></trkpt><trkpt lat="46.164847340982874" lon="9.992312373399256"><ele>355.0</ele><time>2026-03-28T16:20:06Z</time></trkpt><trkpt lat="46.164918875527626" lon="9.992253279938899"><ele>355.0</ele><time>2026-03-28T16:20:08Z</time></trkpt><trkpt lat="46.16497236694848" lon="9.99217687294204"><ele>355.0</ele><time>2026-03-28T16:20:10Z</time></trkpt><trkpt lat="46.164941970535196" lon="9.992029391094201"><ele>355.2</ele><time>2026-03-28T16:20:12Z</time></trkpt><trkpt lat="46.1648884644469" lon="9.99193680448572"><ele>355.4</ele><time>2026-03-28T16:20:13Z</time></trkpt><trkpt lat="46.16485018188063" lon="9.99184000737899"><ele>355.6</ele><time>2026-03-28T16:20:14Z</time></trkpt><trkpt lat="46.16483617175699" lon="9.991717225487717"><ele>355.8</ele><time>2026-03-28T16:20:15Z</time></trkpt><trkpt lat="46.164846500107814" lon="9.991546577222522"><ele>356.0</ele><time>2026-03-28T16:20:16.001Z</time></trkpt><trkpt lat="46.16487429975651" lon="9.991336593906949"><ele>356.25</ele><time>2026-03-28T16:20:17.001Z</time></trkpt><trkpt lat="46.16490590213617" lon="9.991121872341237"><ele>356.5</ele><time>2026-03-28T16:20:18.001Z</time></trkpt><trkpt lat="46.164931287551966" lon="9.990940264426923"><ele>356.75</ele><time>2026-03-28T16:20:19.001Z</time></trkpt><trkpt lat="46.16496699253802" lon="9.990730642225639"><ele>357.0</ele><time>2026-03-28T16:20:20.001Z</time></trkpt><trkpt lat="46.164992178199384" lon="9.99053096564785"><ele>357.0</ele><time>2026-03-28T16:20:21.001Z</time></trkpt><trkpt lat="46.16501874587825" lon="9.99032574543795"><ele>357.0</ele><time>2026-03-28T16:20:22.001Z</time></trkpt><trkpt lat="46.16504598069972" lon="9.990109491280885"><ele>357.0</ele><time>2026-03-28T16:20:23.001Z</time></trkpt><trkpt lat="46.165077452999405" lon="9.989853901995446"><ele>357.0</ele><time>2026-03-28T16:20:24.001Z</time></trkpt><trkpt lat="46.16510785662087" lon="9.98959541664253"><ele>357.0</ele><time>2026-03-28T16:20:25.001Z</time></trkpt><trkpt lat="46.165155851301925" lon="9.989286639711514"><ele>357.0</ele><time>2026-03-28T16:20:26.001Z</time></trkpt><trkpt lat="46.16520209676498" lon="9.988939483432185"><ele>358.3333333333333</ele><time>2026-03-28T16:20:27.001Z</time></trkpt><trkpt lat="46.16524087883607" lon="9.988645989597767"><ele>359.66666666666663</ele><time>2026-03-28T16:20:28.001Z</time></trkpt><trkpt lat="46.165274722461824" lon="9.988389605387196"><ele>361.0</ele><time>2026-03-28T16:20:29.001Z</time></trkpt><trkpt lat="46.16530848961953" lon="9.988131768419995"><ele>362.3333333333333</ele><time>2026-03-28T16:20:30.001Z</time></trkpt><trkpt lat="46.16533186803445" lon="9.987845606237432"><ele>363.6666666666667</ele><time>2026-03-28T16:20:31.001Z</time></trkpt><trkpt lat="46.16537594214523" lon="9.987552218089856"><ele>365.0</ele><time>2026-03-28T16:20:32.001Z</time></trkpt><trkpt lat="46.16541863393269" lon="9.987248471330178"><ele>365.6666666666667</ele><time>2026-03-28T16:20:33.001Z</time></trkpt><trkpt lat="46.16546187730559" lon="9.986928624928979"><ele>366.3333333333333</ele><time>2026-03-28T16:20:34.001Z</time></trkpt><trkpt lat="46.16550291101372" lon="9.98662628457619"><ele>367.0</ele><time>2026-03-28T16:20:35.001Z</time></trkpt><trkpt lat="46.16553037678633" lon="9.986354898390534"><ele>367.0</ele><time>2026-03-28T16:20:36.001Z</time></trkpt><trkpt lat="46.1655446888912" lon="9.98610262012035"><ele>367.0</ele><time>2026-03-28T16:20:37.001Z</time></trkpt><trkpt lat="46.16554818483636" lon="9.985875222778704"><ele>367.0</ele><time>2026-03-28T16:20:38.001Z</time></trkpt><trkpt lat="46.16553727322755" lon="9.985654257308806"><ele>368.66666666666663</ele><time>2026-03-28T16:20:39.001Z</time></trkpt><trkpt lat="46.1655169670592" lon="9.985422485583861"><ele>370.3333333333333</ele><time>2026-03-28T16:20:40.001Z</time></trkpt><trkpt lat="46.165492054295335" lon="9.98518640041426"><ele>372.0</ele><time>2026-03-28T16:20:41.001Z</time></trkpt><trkpt lat="46.16546343277284" lon="9.984960687436374"><ele>373.3333333333333</ele><time>2026-03-28T16:20:42.001Z</time></trkpt><trkpt lat="46.16542183526692" lon="9.984749100867338"><ele>374.66666666666663</ele><time>2026-03-28T16:20:43.001Z</time></trkpt><trkpt lat="46.16538371630431" lon="9.984546703003534"><ele>376.0</ele><time>2026-03-28T16:20:44.001Z</time></trkpt><trkpt lat="46.16533172810368" lon="9.984335060259058"><ele>377.0</ele><time>2026-03-28T16:20:45.001Z</time></trkpt><trkpt lat="46.1652751859907" lon="9.984115173596134"><ele>378.0</ele><time>2026-03-28T16:20:46.001Z</time></trkpt><trkpt lat="46.165200215540075" lon="9.983902999523911"><ele>379.0</ele><time>2026-03-28T16:20:47.001Z</time></trkpt><trkpt lat="46.165106687830885" lon="9.983685559676754"><ele>379.0</ele><time>2026-03-28T16:20:48.001Z</time></trkpt><trkpt lat="46.165010046015716" lon="9.983458741388004"><ele>379.0</ele><time>2026-03-28T16:20:49.001Z</time></trkpt><trkpt lat="46.16491507112634" lon="9.98322480873478"><ele>379.0</ele><time>2026-03-28T16:20:50.001Z</time></trkpt><trkpt lat="46.164820507217804" lon="9.982986975381653"><ele>379.3333333333333</ele><time>2026-03-28T16:20:51.001Z</time></trkpt><trkpt lat="46.16472819407042" lon="9.98275299808269"><ele>379.6666666666667</ele><time>2026-03-28T16:20:52.001Z</time></trkpt><trkpt lat="46.16463406047695" lon="9.982517825841358"><ele>380.0</ele><time>2026-03-28T16:20:53.001Z</time></trkpt><trkpt lat="46.16453647105693" lon="9.982270678142681"><ele>380.0</ele><time>2026-03-28T16:20:54.001Z</time></trkpt><trkpt lat="46.16443271479565" lon="9.98200931354039"><ele>380.0</ele><time>2026-03-28T16:20:55.001Z</time></trkpt><trkpt lat="46.16433745922162" lon="9.98173817724998"><ele>380.0</ele><time>2026-03-28T16:20:56.001Z</time></trkpt><trkpt lat="46.16424886907662" lon="9.981477916744431"><ele>380.0</ele><time>2026-03-28T16:20:57.001Z</time></trkpt><trkpt lat="46.16417931373568" lon="9.98122785905709"><ele>380.0</ele><time>2026-03-28T16:20:58.001Z</time></trkpt><trkpt lat="46.16410821359239" lon="9.980986135921475"><ele>380.0</ele><time>2026-03-28T16:20:59.001Z</time></trkpt><trkpt lat="46.16405293468357" lon="9.9807549788174"><ele>378.0</ele><time>2026-03-28T16:21:00.001Z</time></trkpt><trkpt lat="46.16400260749634" lon="9.980536023035407"><ele>376.0</ele><time>2026-03-28T16:21:01.001Z</time></trkpt><trkpt lat="46.16395038097799" lon="9.980311978074317"><ele>374.0</ele><time>2026-03-28T16:21:02.001Z</time></trkpt><trkpt lat="46.163895413115945" lon="9.980069731279013"><ele>374.33333333333337</ele><time>2026-03-28T16:21:03.001Z</time></trkpt><trkpt lat="46.16384545663392" lon="9.979819257338674"><ele>374.6666666666667</ele><time>2026-03-28T16:21:04Z</time></trkpt><trkpt lat="46.16380254743092" lon="9.979568396691949"><ele>375.0</ele><time>2026-03-28T16:21:05Z</time></trkpt><trkpt lat="46.16375713021268" lon="9.979340195150419"><ele>376.0</ele><time>2026-03-28T16:21:06Z</time></trkpt><trkpt lat="46.16371096647635" lon="9.979134202190695"><ele>377.0</ele><time>2026-03-28T16:21:07Z</time></trkpt><trkpt lat="46.163681037081375" lon="9.97891684548554"><ele>378.0</ele><time>2026-03-28T16:21:08Z</time></trkpt><trkpt lat="46.16361790715619" lon="9.978695117199495"><ele>378.0</ele><time>2026-03-28T16:21:09Z</time></trkpt><trkpt lat="46.16358481659758" lon="9.978462311457085"><ele>378.0</ele><time>2026-03-28T16:21:10Z</time></trkpt><trkpt lat="46.1635301268125" lon="9.978251202013203"><ele>378.0</ele><time>2026-03-28T16:21:11Z</time></trkpt><trkpt lat="46.16349880477481" lon="9.978058207626589"><ele>378.25</ele><time>2026-03-28T16:21:12Z</time></trkpt><trkpt lat="46.16347645728223" lon="9.977907033495425"><ele>378.5</ele><time>2026-03-28T16:21:13Z</time></trkpt><trkpt lat="46.163426050193955" lon="9.977727077105842"><ele>378.75</ele><time>2026-03-28T16:21:14Z</time></trkpt><trkpt lat="46.16339202969873" lon="9.97757901612812"><ele>379.0</ele><time>2026-03-28T16:21:15Z</time></trkpt><trkpt lat="46.1633651640196" lon="9.977436716186403"><ele>379.5</ele><time>2026-03-28T16:21:16Z</time></trkpt><trkpt lat="46.16333136059011" lon="9.977284152718621"><ele>380.0</ele><time>2026-03-28T16:21:17Z</time></trkpt><trkpt lat="46.16328421641208" lon="9.977098479492119"><ele>380.5</ele><time>2026-03-28T16:21:18Z</time></trkpt><trkpt lat="46.16323677461076" lon="9.976893351864002"><ele>381.0</ele><time>2026-03-28T16:21:19Z</time></trkpt><trkpt lat="46.163200097807874" lon="9.976699673819484"><ele>379.5</ele><time>2026-03-28T16:21:20Z</time></trkpt><trkpt lat="46.16317017692477" lon="9.97652140171202"><ele>378.0</ele><time>2026-03-28T16:21:21Z</time></trkpt><trkpt lat="46.16313834453348" lon="9.976354869411509"><ele>376.5</ele><time>2026-03-28T16:21:22Z</time></trkpt><trkpt lat="46.163099658657465" lon="9.976179159607742"><ele>375.0</ele><time>2026-03-28T16:21:23Z</time></trkpt><trkpt lat="46.16306179480385" lon="9.976008127704212"><ele>375.5</ele><time>2026-03-28T16:21:24Z</time></trkpt><trkpt lat="46.163020538091814" lon="9.975827992866144"><ele>376.0</ele><time>2026-03-28T16:21:25Z</time></trkpt><trkpt lat="46.16298033247403" lon="9.975645162603271"><ele>376.5</ele><time>2026-03-28T16:21:26Z</time></trkpt><trkpt lat="46.162933547366364" lon="9.975431280331792"><ele>377.0</ele><time>2026-03-28T16:21:27Z</time></trkpt><trkpt lat="46.162887261389855" lon="9.975207982848042"><ele>377.33333333333337</ele><time>2026-03-28T16:21:28Z</time></trkpt><trkpt lat="46.16283468359783" lon="9.974968964190603"><ele>377.6666666666667</ele><time>2026-03-28T16:21:29Z</time></trkpt><trkpt lat="46.16277956313803" lon="9.974715098976018"><ele>378.0</ele><time>2026-03-28T16:21:30Z</time></trkpt><trkpt lat="46.16272822415072" lon="9.97447206400795"><ele>378.0</ele><time>2026-03-28T16:21:31Z</time></trkpt><trkpt lat="46.16268102463971" lon="9.974244105410664"><ele>378.0</ele><time>2026-03-28T16:21:32Z</time></trkpt><trkpt lat="46.16263334870556" lon="9.974014205072173"><ele>378.0</ele><time>2026-03-28T16:21:33Z</time></trkpt><trkpt lat="46.162582845538765" lon="9.973790488661916"><ele>378.0</ele><time>2026-03-28T16:21:34Z</time></trkpt><trkpt lat="46.162518716117525" lon="9.973538308175227"><ele>378.0</ele><time>2026-03-28T16:21:35Z</time></trkpt><trkpt lat="46.1624549103248" lon="9.973257313216392"><ele>378.0</ele><time>2026-03-28T16:21:36Z</time></trkpt><trkpt lat="46.16241643728252" lon="9.97296466912095"><ele>376.0</ele><time>2026-03-28T16:21:37Z</time></trkpt><trkpt lat="46.16234766599393" lon="9.972708005146599"><ele>374.0</ele><time>2026-03-28T16:21:38Z</time></trkpt><trkpt lat="46.16230789669716" lon="9.972468002434246"><ele>372.0</ele><time>2026-03-28T16:21:39Z</time></trkpt><trkpt lat="46.16226752630714" lon="9.972237225501335"><ele>371.5</ele><time>2026-03-28T16:21:40Z</time></trkpt><trkpt lat="46.1622334886906" lon="9.97202726129553"><ele>371.0</ele><time>2026-03-28T16:21:41Z</time></trkpt><trkpt lat="46.16220735042585" lon="9.971826927094806"><ele>370.5</ele><time>2026-03-28T16:21:42Z</time></trkpt><trkpt lat="46.16218321707159" lon="9.971634795938622"><ele>370.0</ele><time>2026-03-28T16:21:43Z</time></trkpt><trkpt lat="46.16217743594835" lon="9.97144712410963"><ele>370.0</ele><time>2026-03-28T16:21:44Z</time></trkpt><trkpt lat="46.16217587407245" lon="9.971264353436927"><ele>370.0</ele><time>2026-03-28T16:21:45Z</time></trkpt><trkpt lat="46.16217766778096" lon="9.971084921324245"><ele>370.0</ele><time>2026-03-28T16:21:46Z</time></trkpt><trkpt lat="46.16218387618933" lon="9.970905839411449"><ele>370.0</ele><time>2026-03-28T16:21:47Z</time></trkpt><trkpt lat="46.16219132024682" lon="9.970703411716627"><ele>369.0</ele><time>2026-03-28T16:21:48Z</time></trkpt><trkpt lat="46.16219685439445" lon="9.97045815768964"><ele>368.0</ele><time>2026-03-28T16:21:49Z</time></trkpt><trkpt lat="46.16222502333557" lon="9.970184483673926"><ele>367.0</ele><time>2026-03-28T16:21:50Z</time></trkpt><trkpt lat="46.16223577237142" lon="9.969921668255653"><ele>365.0</ele><time>2026-03-28T16:21:51Z</time></trkpt><trkpt lat="46.1622356480158" lon="9.969687189690605"><ele>363.0</ele><time>2026-03-28T16:21:52Z</time></trkpt><trkpt lat="46.162241491471136" lon="9.969462700014104"><ele>361.0</ele><time>2026-03-28T16:21:53Z</time></trkpt><trkpt lat="46.16224033894273" lon="9.969226831565942"><ele>359.0</ele><time>2026-03-28T16:21:54Z</time></trkpt><trkpt lat="46.162249703457384" lon="9.968966238371385"><ele>357.0</ele><time>2026-03-28T16:21:55Z</time></trkpt><trkpt lat="46.16223932688943" lon="9.968680205327724"><ele>355.0</ele><time>2026-03-28T16:21:56Z</time></trkpt><trkpt lat="46.16222804069998" lon="9.968370206961067"><ele>354.3333333333333</ele><time>2026-03-28T16:21:57Z</time></trkpt><trkpt lat="46.1621927340296" lon="9.968044316907568"><ele>353.6666666666667</ele><time>2026-03-28T16:21:58Z</time></trkpt><trkpt lat="46.162181911881426" lon="9.967733525685906"><ele>353.0</ele><time>2026-03-28T16:21:59Z</time></trkpt><trkpt lat="46.162175700356606" lon="9.967450235551553"><ele>352.0</ele><time>2026-03-28T16:22:00Z</time></trkpt><trkpt lat="46.16217437969507" lon="9.967185386287499"><ele>351.0</ele><time>2026-03-28T16:22:01Z</time></trkpt><trkpt lat="46.16217090606606" lon="9.966936735576203"><ele>350.0</ele><time>2026-03-28T16:22:02Z</time></trkpt><trkpt lat="46.162164287502264" lon="9.96670087701534"><ele>350.5</ele><time>2026-03-28T16:22:03Z</time></trkpt><trkpt lat="46.16216389242538" lon="9.966475690190595"><ele>351.0</ele><time>2026-03-28T16:22:04Z</time></trkpt><trkpt lat="46.16217322550966" lon="9.966259951762312"><ele>351.5</ele><time>2026-03-28T16:22:05Z</time></trkpt><trkpt lat="46.16218709485463" lon="9.966058014826187"><ele>352.0</ele><time>2026-03-28T16:22:06Z</time></trkpt><trkpt lat="46.16220143936696" lon="9.965831999200034"><ele>352.0</ele><time>2026-03-28T16:22:07Z</time></trkpt><trkpt lat="46.16222669622994" lon="9.965594675938249"><ele>352.0</ele><time>2026-03-28T16:22:08Z</time></trkpt><trkpt lat="46.16226019581646" lon="9.965348913779529"><ele>352.0</ele><time>2026-03-28T16:22:09Z</time></trkpt><trkpt lat="46.16229979898875" lon="9.965114855214889"><ele>352.0</ele><time>2026-03-28T16:22:10Z</time></trkpt><trkpt lat="46.16234194935832" lon="9.964890964727015"><ele>352.0</ele><time>2026-03-28T16:22:11Z</time></trkpt><trkpt lat="46.16238258687522" lon="9.964644992285512"><ele>352.0</ele><time>2026-03-28T16:22:12Z</time></trkpt><trkpt lat="46.16243376404213" lon="9.964395427062"><ele>358.0</ele><time>2026-03-28T16:22:13Z</time></trkpt><trkpt lat="46.16248838409982" lon="9.964123309064085"><ele>364.0</ele><time>2026-03-28T16:22:14Z</time></trkpt><trkpt lat="46.162545604955035" lon="9.963861969575754"><ele>370.0</ele><time>2026-03-28T16:22:15Z</time></trkpt><trkpt lat="46.16258475383251" lon="9.96361417899553"><ele>370.0</ele><time>2026-03-28T16:22:16Z</time></trkpt><trkpt lat="46.16259323099133" lon="9.96338424521168"><ele>370.0</ele><time>2026-03-28T16:22:17Z</time></trkpt><trkpt lat="46.16258520415776" lon="9.963164202739197"><ele>370.0</ele><time>2026-03-28T16:22:18Z</time></trkpt><trkpt lat="46.162572216888336" lon="9.96294703567867"><ele>370.0</ele><time>2026-03-28T16:22:19Z</time></trkpt><trkpt lat="46.1625398933628" lon="9.962742545763907"><ele>370.0</ele><time>2026-03-28T16:22:20Z</time></trkpt><trkpt lat="46.162490973736546" lon="9.962545078212742"><ele>370.0</ele><time>2026-03-28T16:22:21Z</time></trkpt><trkpt lat="46.162421211872164" lon="9.962321541674935"><ele>363.66666666666663</ele><time>2026-03-28T16:22:22Z</time></trkpt><trkpt lat="46.16233375616909" lon="9.962097400344291"><ele>357.3333333333333</ele><time>2026-03-28T16:22:23Z</time></trkpt><trkpt lat="46.16221196747701" lon="9.961846403936168"><ele>351.0</ele><time>2026-03-28T16:22:24Z</time></trkpt><trkpt lat="46.16207367288235" lon="9.961560309636928"><ele>351.0</ele><time>2026-03-28T16:22:25Z</time></trkpt><trkpt lat="46.161914442135284" lon="9.961276231794178"><ele>351.0</ele><time>2026-03-28T16:22:26Z</time></trkpt><trkpt lat="46.16177435575153" lon="9.961025579247089"><ele>353.3333333333333</ele><time>2026-03-28T16:22:27Z</time></trkpt><trkpt lat="46.16164727728416" lon="9.960796062063226"><ele>355.66666666666663</ele><time>2026-03-28T16:22:28Z</time></trkpt><trkpt lat="46.161538199146925" lon="9.960578552349032"><ele>358.0</ele><time>2026-03-28T16:22:29.001Z</time></trkpt><trkpt lat="46.16145773456386" lon="9.960378714997832"><ele>354.5</ele><time>2026-03-28T16:22:30.001Z</time></trkpt><trkpt lat="46.16139938903483" lon="9.96020088455723"><ele>351.0</ele><time>2026-03-28T16:22:31.001Z</time></trkpt><trkpt lat="46.161353640732955" lon="9.960030584804873"><ele>347.5</ele><time>2026-03-28T16:22:32.001Z</time></trkpt><trkpt lat="46.161320620720296" lon="9.959869373622425"><ele>344.0</ele><time>2026-03-28T16:22:33.001Z</time></trkpt><trkpt lat="46.161294509539125" lon="9.959691325694694"><ele>344.0</ele><time>2026-03-28T16:22:34.001Z</time></trkpt><trkpt lat="46.161270267068595" lon="9.95944864042886"><ele>344.0</ele><time>2026-03-28T16:22:35.001Z</time></trkpt><trkpt lat="46.16125863258912" lon="9.959193915633522"><ele>344.0</ele><time>2026-03-28T16:22:36.001Z</time></trkpt><trkpt lat="46.16125376132978" lon="9.958947384318448"><ele>345.0</ele><time>2026-03-28T16:22:37.001Z</time></trkpt><trkpt lat="46.16123205095506" lon="9.958689143927556"><ele>346.0</ele><time>2026-03-28T16:22:38.001Z</time></trkpt><trkpt lat="46.161229992459454" lon="9.95842269799153"><ele>347.0</ele><time>2026-03-28T16:22:39.001Z</time></trkpt><trkpt lat="46.161226321621946" lon="9.958154223885982"><ele>348.33333333333337</ele><time>2026-03-28T16:22:40.001Z</time></trkpt><trkpt lat="46.16122647065605" lon="9.957873188029108"><ele>349.6666666666667</ele><time>2026-03-28T16:22:41.001Z</time></trkpt><trkpt lat="46.16122191100676" lon="9.957588201976936"><ele>351.0</ele><time>2026-03-28T16:22:42.001Z</time></trkpt><trkpt lat="46.16121283899049" lon="9.95729879865315"><ele>350.6666666666667</ele><time>2026-03-28T16:22:43.001Z</time></trkpt><trkpt lat="46.161208133015485" lon="9.957005709118796"><ele>350.33333333333337</ele><time>2026-03-28T16:22:44.001Z</time></trkpt><trkpt lat="46.161202969253374" lon="9.956708989490808"><ele>350.0</ele><time>2026-03-28T16:22:45.001Z</time></trkpt><trkpt lat="46.16119257752533" lon="9.9564234904749"><ele>350.0</ele><time>2026-03-28T16:22:46.001Z</time></trkpt><trkpt lat="46.16118474266477" lon="9.956155374718799"><ele>350.0</ele><time>2026-03-28T16:22:47.001Z</time></trkpt><trkpt lat="46.16117738161736" lon="9.955896532554053"><ele>350.0</ele><time>2026-03-28T16:22:48.001Z</time></trkpt><trkpt lat="46.16117579256062" lon="9.955632270448165"><ele>348.6666666666667</ele><time>2026-03-28T16:22:49.001Z</time></trkpt><trkpt lat="46.16117778358302" lon="9.955365718625247"><ele>347.3333333333333</ele><time>2026-03-28T16:22:50.001Z</time></trkpt><trkpt lat="46.16118877037885" lon="9.955097520258533"><ele>346.0</ele><time>2026-03-28T16:22:51.001Z</time></trkpt><trkpt lat="46.161206270345915" lon="9.95482635474869"><ele>345.66666666666663</ele><time>2026-03-28T16:22:52.001Z</time></trkpt><trkpt lat="46.16123364791943" lon="9.954548402114131"><ele>345.3333333333333</ele><time>2026-03-28T16:22:53.001Z</time></trkpt><trkpt lat="46.16127030005786" lon="9.9542709481523"><ele>345.0</ele><time>2026-03-28T16:22:54.001Z</time></trkpt><trkpt lat="46.161311709375006" lon="9.953996183528036"><ele>344.6666666666667</ele><time>2026-03-28T16:22:55.001Z</time></trkpt><trkpt lat="46.161359525219424" lon="9.953727332198863"><ele>344.33333333333337</ele><time>2026-03-28T16:22:56.001Z</time></trkpt><trkpt lat="46.161409863446195" lon="9.95346917004724"><ele>344.0</ele><time>2026-03-28T16:22:57.001Z</time></trkpt><trkpt lat="46.161464897685896" lon="9.953223661540848"><ele>343.33333333333337</ele><time>2026-03-28T16:22:58.001Z</time></trkpt><trkpt lat="46.16152128093709" lon="9.952984464389049"><ele>342.6666666666667</ele><time>2026-03-28T16:22:59.001Z</time></trkpt><trkpt lat="46.16157892022087" lon="9.952730733722406"><ele>342.0</ele><time>2026-03-28T16:23:00.001Z</time></trkpt><trkpt lat="46.16164056914951" lon="9.952437594369151"><ele>344.0</ele><time>2026-03-28T16:23:01.001Z</time></trkpt><trkpt lat="46.1617225189647" lon="9.952115640824298"><ele>346.0</ele><time>2026-03-28T16:23:02.001Z</time></trkpt><trkpt lat="46.161798772626774" lon="9.951769143387834"><ele>343.0</ele><time>2026-03-28T16:23:03.001Z</time></trkpt><trkpt lat="46.1618716042972" lon="9.951438194865847"><ele>340.0</ele><time>2026-03-28T16:23:04.001Z</time></trkpt><trkpt lat="46.1619373457382" lon="9.951139464575062"><ele>338.0</ele><time>2026-03-28T16:23:05.001Z</time></trkpt><trkpt lat="46.162001613763785" lon="9.950848021445827"><ele>336.0</ele><time>2026-03-28T16:23:06.001Z</time></trkpt><trkpt lat="46.1620668772904" lon="9.95055411778552"><ele>334.0</ele><time>2026-03-28T16:23:07.001Z</time></trkpt><trkpt lat="46.16213596508475" lon="9.95024306916375"><ele>333.3333333333333</ele><time>2026-03-28T16:23:08.001Z</time></trkpt><trkpt lat="46.16220143045467" lon="9.949946543272898"><ele>332.6666666666667</ele><time>2026-03-28T16:23:09.001Z</time></trkpt><trkpt lat="46.16226735939831" lon="9.949653911253282"><ele>332.0</ele><time>2026-03-28T16:23:10Z</time></trkpt><trkpt lat="46.16234098726756" lon="9.949333498983485"><ele>332.6666666666667</ele><time>2026-03-28T16:23:11Z</time></trkpt><trkpt lat="46.16241929738398" lon="9.949017467536475"><ele>333.3333333333333</ele><time>2026-03-28T16:23:12Z</time></trkpt><trkpt lat="46.162498274061825" lon="9.948737556660754"><ele>334.0</ele><time>2026-03-28T16:23:13Z</time></trkpt><trkpt lat="46.16258776948887" lon="9.948469752604344"><ele>331.5</ele><time>2026-03-28T16:23:14Z</time></trkpt><trkpt lat="46.16275662297475" lon="9.948086649030799"><ele>329.0</ele><time>2026-03-28T16:23:15Z</time></trkpt><trkpt lat="46.16290952185197" lon="9.94779578729619"><ele>330.0</ele><time>2026-03-28T16:23:16Z</time></trkpt><trkpt lat="46.16306677856612" lon="9.94752174826326"><ele>331.0</ele><time>2026-03-28T16:23:17Z</time></trkpt><trkpt lat="46.16322012179171" lon="9.947261693889564"><ele>331.0</ele><time>2026-03-28T16:23:18Z</time></trkpt><trkpt lat="46.16337912172042" lon="9.946998766722823"><ele>331.0</ele><time>2026-03-28T16:23:19Z</time></trkpt><trkpt lat="46.16353452840104" lon="9.946742941304702"><ele>328.5</ele><time>2026-03-28T16:23:20Z</time></trkpt><trkpt lat="46.16368073548036" lon="9.946466610800709"><ele>326.0</ele><time>2026-03-28T16:23:21Z</time></trkpt><trkpt lat="46.16383994843122" lon="9.94620941387033"><ele>326.0</ele><time>2026-03-28T16:23:22Z</time></trkpt><trkpt lat="46.163993870832854" lon="9.945942427887951"><ele>326.0</ele><time>2026-03-28T16:23:23Z</time></trkpt><trkpt lat="46.16413216367256" lon="9.945664549735396"><ele>326.0</ele><time>2026-03-28T16:23:24Z</time></trkpt><trkpt lat="46.16425501642687" lon="9.945368862605237"><ele>326.0</ele><time>2026-03-28T16:23:25Z</time></trkpt><trkpt lat="46.16436502915361" lon="9.945056792368948"><ele>323.0</ele><time>2026-03-28T16:23:26Z</time></trkpt><trkpt lat="46.164458558742126" lon="9.944730490122076"><ele>320.0</ele><time>2026-03-28T16:23:27Z</time></trkpt><trkpt lat="46.164544036673085" lon="9.944386382938877"><ele>317.5</ele><time>2026-03-28T16:23:28Z</time></trkpt><trkpt lat="46.164632607448695" lon="9.944029897238304"><ele>315.0</ele><time>2026-03-28T16:23:29Z</time></trkpt><trkpt lat="46.16473107289711" lon="9.943673990959104"><ele>316.0</ele><time>2026-03-28T16:23:30Z</time></trkpt><trkpt lat="46.16482136364538" lon="9.943322772214257"><ele>317.0</ele><time>2026-03-28T16:23:31Z</time></trkpt><trkpt lat="46.164912237479584" lon="9.942962664547311"><ele>317.0</ele><time>2026-03-28T16:23:32Z</time></trkpt><trkpt lat="46.16500388418506" lon="9.942599440443539"><ele>317.0</ele><time>2026-03-28T16:23:33Z</time></trkpt><trkpt lat="46.16509331011798" lon="9.942248971865366"><ele>316.5</ele><time>2026-03-28T16:23:34Z</time></trkpt><trkpt lat="46.16517491750123" lon="9.941892559252986"><ele>316.0</ele><time>2026-03-28T16:23:35Z</time></trkpt><trkpt lat="46.16525840610777" lon="9.94152537156244"><ele>313.0</ele><time>2026-03-28T16:23:36Z</time></trkpt><trkpt lat="46.16534409519667" lon="9.941157796993663"><ele>310.0</ele><time>2026-03-28T16:23:37Z</time></trkpt><trkpt lat="46.165428708333536" lon="9.940782641023915"><ele>307.5</ele><time>2026-03-28T16:23:38Z</time></trkpt><trkpt lat="46.1655242143114" lon="9.940400948173393"><ele>305.0</ele><time>2026-03-28T16:23:39Z</time></trkpt><trkpt lat="46.165624801076525" lon="9.940017776639904"><ele>307.0</ele><time>2026-03-28T16:23:40Z</time></trkpt><trkpt lat="46.16572360023917" lon="9.939634164629155"><ele>309.0</ele><time>2026-03-28T16:23:41Z</time></trkpt><trkpt lat="46.16581875135684" lon="9.939226539331958"><ele>307.0</ele><time>2026-03-28T16:23:42Z</time></trkpt><trkpt lat="46.165915380610556" lon="9.93881359659777"><ele>305.0</ele><time>2026-03-28T16:23:43Z</time></trkpt><trkpt lat="46.166017973829796" lon="9.938410050192092"><ele>304.0</ele><time>2026-03-28T16:23:44Z</time></trkpt><trkpt lat="46.166118494615695" lon="9.938014165783539"><ele>303.0</ele><time>2026-03-28T16:23:45Z</time></trkpt><trkpt lat="46.16622179703925" lon="9.937619232255486"><ele>302.0</ele><time>2026-03-28T16:23:46Z</time></trkpt><trkpt lat="46.16632054980605" lon="9.937233688555938"><ele>301.0</ele><time>2026-03-28T16:23:47Z</time></trkpt><trkpt lat="46.16640467810512" lon="9.936860187534757"><ele>300.5</ele><time>2026-03-28T16:23:48Z</time></trkpt><trkpt lat="46.16648404522478" lon="9.936494276949077"><ele>300.0</ele><time>2026-03-28T16:23:49Z</time></trkpt><trkpt lat="46.166557216362776" lon="9.936134970891409"><ele>299.0</ele><time>2026-03-28T16:23:50Z</time></trkpt><trkpt lat="46.16661519662085" lon="9.935792994934296"><ele>298.0</ele><time>2026-03-28T16:23:51Z</time></trkpt><trkpt lat="46.166664632060886" lon="9.93547711411717"><ele>298.0</ele><time>2026-03-28T16:23:52Z</time></trkpt><trkpt lat="46.166712989048605" lon="9.935171253894127"><ele>298.0</ele><time>2026-03-28T16:23:53Z</time></trkpt><trkpt lat="46.16677259197152" lon="9.93488116589947"><ele>298.0</ele><time>2026-03-28T16:23:54Z</time></trkpt><trkpt lat="46.16684686582526" lon="9.934602994716945"><ele>297.5</ele><time>2026-03-28T16:23:55Z</time></trkpt><trkpt lat="46.166957477301835" lon="9.934309568963261"><ele>297.0</ele><time>2026-03-28T16:23:56Z</time></trkpt><trkpt lat="46.16708186447746" lon="9.9339908333909"><ele>297.0</ele><time>2026-03-28T16:23:57Z</time></trkpt><trkpt lat="46.167171232021175" lon="9.933697458479136"><ele>297.0</ele><time>2026-03-28T16:23:58Z</time></trkpt><trkpt lat="46.16724152411289" lon="9.933432748486004"><ele>297.0</ele><time>2026-03-28T16:23:59Z</time></trkpt><trkpt lat="46.16730377381124" lon="9.933186312596051"><ele>297.3333333333333</ele><time>2026-03-28T16:24:00Z</time></trkpt><trkpt lat="46.16740148789481" lon="9.93292599945426"><ele>297.66666666666663</ele><time>2026-03-28T16:24:01Z</time></trkpt><trkpt lat="46.167444874684726" lon="9.932740077964517"><ele>298.0</ele><time>2026-03-28T16:24:02Z</time></trkpt><trkpt lat="46.167479998004275" lon="9.932583792788284"><ele>298.3333333333333</ele><time>2026-03-28T16:24:03Z</time></trkpt><trkpt lat="46.16750921965277" lon="9.932470411561393"><ele>298.66666666666663</ele><time>2026-03-28T16:24:04Z</time></trkpt><trkpt lat="46.167539758951776" lon="9.932384547934712"><ele>299.0</ele><time>2026-03-28T16:24:05Z</time></trkpt><trkpt lat="46.16759482013294" lon="9.932339206991664"><ele>299.3333333333333</ele><time>2026-03-28T16:24:06Z</time></trkpt><trkpt lat="46.16766147554865" lon="9.932226852447558"><ele>299.6666666666667</ele><time>2026-03-28T16:24:08Z</time></trkpt><trkpt lat="46.167652496148484" lon="9.932115734188054"><ele>300.0</ele><time>2026-03-28T16:24:09Z</time></trkpt><trkpt lat="46.167646654784534" lon="9.931977550719395"><ele>300.0</ele><time>2026-03-28T16:24:10Z</time></trkpt><trkpt lat="46.1676797586625" lon="9.931807407823994"><ele>300.0</ele><time>2026-03-28T16:24:11Z</time></trkpt><trkpt lat="46.16773310641085" lon="9.931613069975601"><ele>300.0</ele><time>2026-03-28T16:24:12Z</time></trkpt><trkpt lat="46.1677922515942" lon="9.931379364040895"><ele>300.0</ele><time>2026-03-28T16:24:13Z</time></trkpt><trkpt lat="46.167852726898374" lon="9.931131140806569"><ele>299.6666666666667</ele><time>2026-03-28T16:24:14Z</time></trkpt><trkpt lat="46.16791700505797" lon="9.930890220574454"><ele>299.33333333333337</ele><time>2026-03-28T16:24:15Z</time></trkpt><trkpt lat="46.1679699294701" lon="9.930688986330177"><ele>299.0</ele><time>2026-03-28T16:24:16Z</time></trkpt><trkpt lat="46.168015477722825" lon="9.930520401398619"><ele>299.0</ele><time>2026-03-28T16:24:17Z</time></trkpt><trkpt lat="46.16805239849658" lon="9.930377945600936"><ele>299.0</ele><time>2026-03-28T16:24:18Z</time></trkpt><trkpt lat="46.16808205436063" lon="9.930211746359559"><ele>299.0</ele><time>2026-03-28T16:24:19Z</time></trkpt><trkpt lat="46.16812706470564" lon="9.930015982804214"><ele>299.0</ele><time>2026-03-28T16:24:20Z</time></trkpt><trkpt lat="46.16818273223893" lon="9.929785449555128"><ele>299.6666666666667</ele><time>2026-03-28T16:24:21Z</time></trkpt><trkpt lat="46.16825306397092" lon="9.929547759801254"><ele>300.3333333333333</ele><time>2026-03-28T16:24:22Z</time></trkpt><trkpt lat="46.16830804393294" lon="9.929304698246295"><ele>301.0</ele><time>2026-03-28T16:24:23Z</time></trkpt><trkpt lat="46.168351243080174" lon="9.929069981476138"><ele>301.0</ele><time>2026-03-28T16:24:24Z</time></trkpt><trkpt lat="46.16836382317432" lon="9.928855318089973"><ele>301.0</ele><time>2026-03-28T16:24:25Z</time></trkpt><trkpt lat="46.16836815004177" lon="9.928654713451527"><ele>301.0</ele><time>2026-03-28T16:24:26Z</time></trkpt><trkpt lat="46.16836680103398" lon="9.928456538589487"><ele>301.0</ele><time>2026-03-28T16:24:27Z</time></trkpt><trkpt lat="46.16836656450894" lon="9.92827463704818"><ele>300.75</ele><time>2026-03-28T16:24:28Z</time></trkpt><trkpt lat="46.16837232820054" lon="9.928101738719898"><ele>300.5</ele><time>2026-03-28T16:24:29Z</time></trkpt><trkpt lat="46.16837308691788" lon="9.927915440950983"><ele>300.25</ele><time>2026-03-28T16:24:30Z</time></trkpt><trkpt lat="46.168366764616195" lon="9.927711634693534"><ele>300.0</ele><time>2026-03-28T16:24:31Z</time></trkpt><trkpt lat="46.16836764323058" lon="9.927435042187675"><ele>299.3333333333333</ele><time>2026-03-28T16:24:32Z</time></trkpt><trkpt lat="46.16838021207509" lon="9.927149347805514"><ele>298.66666666666663</ele><time>2026-03-28T16:24:33Z</time></trkpt><trkpt lat="46.16839052501325" lon="9.926894601852785"><ele>298.0</ele><time>2026-03-28T16:24:34Z</time></trkpt><trkpt lat="46.16840849633809" lon="9.926665171834804"><ele>297.3333333333333</ele><time>2026-03-28T16:24:35Z</time></trkpt><trkpt lat="46.16843119467913" lon="9.926437003203604"><ele>296.6666666666667</ele><time>2026-03-28T16:24:36Z</time></trkpt><trkpt lat="46.16846393652738" lon="9.926204717327776"><ele>296.0</ele><time>2026-03-28T16:24:37Z</time></trkpt><trkpt lat="46.168503499203524" lon="9.925979640575818"><ele>295.6666666666667</ele><time>2026-03-28T16:24:38Z</time></trkpt><trkpt lat="46.168547318683146" lon="9.925769626936113"><ele>295.3333333333333</ele><time>2026-03-28T16:24:39Z</time></trkpt><trkpt lat="46.16860502744588" lon="9.925541907656397"><ele>295.0</ele><time>2026-03-28T16:24:40Z</time></trkpt><trkpt lat="46.16865269623324" lon="9.9252948557824"><ele>294.66666666666663</ele><time>2026-03-28T16:24:41Z</time></trkpt><trkpt lat="46.16870178637436" lon="9.925040437318396"><ele>294.3333333333333</ele><time>2026-03-28T16:24:42Z</time></trkpt><trkpt lat="46.168750883502156" lon="9.924785982408984"><ele>294.0</ele><time>2026-03-28T16:24:43Z</time></trkpt><trkpt lat="46.168789015048674" lon="9.92453164026236"><ele>294.0</ele><time>2026-03-28T16:24:44Z</time></trkpt><trkpt lat="46.16883092875065" lon="9.924284559662691"><ele>294.0</ele><time>2026-03-28T16:24:45Z</time></trkpt><trkpt lat="46.168896493476794" lon="9.924027547704176"><ele>294.0</ele><time>2026-03-28T16:24:46Z</time></trkpt><trkpt lat="46.1689547272542" lon="9.923725766144418"><ele>294.3333333333333</ele><time>2026-03-28T16:24:47Z</time></trkpt><trkpt lat="46.169014017870616" lon="9.923419400642278"><ele>294.66666666666663</ele><time>2026-03-28T16:24:48Z</time></trkpt><trkpt lat="46.16906653772289" lon="9.923147713843631"><ele>295.0</ele><time>2026-03-28T16:24:49Z</time></trkpt><trkpt lat="46.1691032651002" lon="9.922906422838478"><ele>294.3333333333333</ele><time>2026-03-28T16:24:50Z</time></trkpt><trkpt lat="46.16914558994768" lon="9.922674799126161"><ele>293.6666666666667</ele><time>2026-03-28T16:24:51Z</time></trkpt><trkpt lat="46.16918825129711" lon="9.922439091778736"><ele>293.0</ele><time>2026-03-28T16:24:52Z</time></trkpt><trkpt lat="46.16923146189072" lon="9.922217404158198"><ele>293.0</ele><time>2026-03-28T16:24:53Z</time></trkpt><trkpt lat="46.169274592313165" lon="9.922011490036363"><ele>293.0</ele><time>2026-03-28T16:24:54Z</time></trkpt><trkpt lat="46.1693139791044" lon="9.921803843424508"><ele>293.0</ele><time>2026-03-28T16:24:55Z</time></trkpt><trkpt lat="46.169352694442196" lon="9.921592714743207"><ele>293.0</ele><time>2026-03-28T16:24:56Z</time></trkpt><trkpt lat="46.16939430834394" lon="9.921373654085512"><ele>293.0</ele><time>2026-03-28T16:24:57Z</time></trkpt><trkpt lat="46.169434106833116" lon="9.921162149433046"><ele>293.0</ele><time>2026-03-28T16:24:58Z</time></trkpt><trkpt lat="46.16948183000355" lon="9.920933938704263"><ele>293.0</ele><time>2026-03-28T16:24:59Z</time></trkpt><trkpt lat="46.16952804518145" lon="9.920704632160453"><ele>293.0</ele><time>2026-03-28T16:25:00Z</time></trkpt><trkpt lat="46.16958673369462" lon="9.920462382334184"><ele>293.0</ele><time>2026-03-28T16:25:01Z</time></trkpt><trkpt lat="46.16961567695051" lon="9.920153127787318"><ele>293.0</ele><time>2026-03-28T16:25:02Z</time></trkpt><trkpt lat="46.16968024528234" lon="9.91982612899563"><ele>293.0</ele><time>2026-03-28T16:25:03Z</time></trkpt><trkpt lat="46.169758559284936" lon="9.919492464084355"><ele>293.0</ele><time>2026-03-28T16:25:04Z</time></trkpt><trkpt lat="46.16982959585944" lon="9.919164455527422"><ele>292.6666666666667</ele><time>2026-03-28T16:25:05Z</time></trkpt><trkpt lat="46.169890456386725" lon="9.91886153633828"><ele>292.3333333333333</ele><time>2026-03-28T16:25:06.001Z</time></trkpt><trkpt lat="46.16994700697235" lon="9.918556726807044"><ele>292.0</ele><time>2026-03-28T16:25:07.001Z</time></trkpt><trkpt lat="46.17000770514901" lon="9.918251581271518"><ele>292.0</ele><time>2026-03-28T16:25:08.001Z</time></trkpt><trkpt lat="46.17006457073368" lon="9.917957727600044"><ele>292.0</ele><time>2026-03-28T16:25:09.001Z</time></trkpt><trkpt lat="46.170117571042155" lon="9.917680955135141"><ele>292.0</ele><time>2026-03-28T16:25:10.001Z</time></trkpt><trkpt lat="46.170170681448205" lon="9.917408118706964"><ele>292.0</ele><time>2026-03-28T16:25:11.001Z</time></trkpt><trkpt lat="46.170224577056835" lon="9.917127839983449"><ele>292.0</ele><time>2026-03-28T16:25:12.001Z</time></trkpt><trkpt lat="46.170277688486905" lon="9.916835807959016"><ele>292.0</ele><time>2026-03-28T16:25:13.001Z</time></trkpt><trkpt lat="46.17035055552601" lon="9.916534517097118"><ele>292.0</ele><time>2026-03-28T16:25:14.001Z</time></trkpt><trkpt lat="46.170409136209194" lon="9.91620993964576"><ele>292.0</ele><time>2026-03-28T16:25:15.001Z</time></trkpt><trkpt lat="46.17045696513833" lon="9.915885706951105"><ele>291.66666666666663</ele><time>2026-03-28T16:25:16Z</time></trkpt><trkpt lat="46.17049094320948" lon="9.915567975567308"><ele>291.3333333333333</ele><time>2026-03-28T16:25:17Z</time></trkpt><trkpt lat="46.17049925826713" lon="9.915249221383544"><ele>291.0</ele><time>2026-03-28T16:25:18Z</time></trkpt><trkpt lat="46.170512365087696" lon="9.914926052210836"><ele>291.0</ele><time>2026-03-28T16:25:19Z</time></trkpt><trkpt lat="46.170511371448875" lon="9.914590376406988"><ele>291.0</ele><time>2026-03-28T16:25:20Z</time></trkpt><trkpt lat="46.17049448753984" lon="9.914241666745662"><ele>290.5</ele><time>2026-03-28T16:25:21Z</time></trkpt><trkpt lat="46.17047224922492" lon="9.913888152125022"><ele>290.0</ele><time>2026-03-28T16:25:22Z</time></trkpt><trkpt lat="46.17043877661028" lon="9.913532085711871"><ele>290.0</ele><time>2026-03-28T16:25:23Z</time></trkpt><trkpt lat="46.170395364285596" lon="9.91317362763251"><ele>290.0</ele><time>2026-03-28T16:25:24Z</time></trkpt><trkpt lat="46.17034889686919" lon="9.912816091845114"><ele>290.5</ele><time>2026-03-28T16:25:25Z</time></trkpt><trkpt lat="46.17030040460143" lon="9.912463107854974"><ele>291.0</ele><time>2026-03-28T16:25:26Z</time></trkpt><trkpt lat="46.17027190414697" lon="9.912114601264946"><ele>291.0</ele><time>2026-03-28T16:25:27Z</time></trkpt><trkpt lat="46.17022181300877" lon="9.911790456453877"><ele>291.0</ele><time>2026-03-28T16:25:28Z</time></trkpt><trkpt lat="46.17018587962554" lon="9.911464793071177"><ele>291.5</ele><time>2026-03-28T16:25:29Z</time></trkpt><trkpt lat="46.17015095043496" lon="9.911137967128726"><ele>292.0</ele><time>2026-03-28T16:25:30Z</time></trkpt><trkpt lat="46.170116203484575" lon="9.910810145411213"><ele>292.0</ele><time>2026-03-28T16:25:31Z</time></trkpt><trkpt lat="46.17007293904467" lon="9.910485112908091"><ele>292.0</ele><time>2026-03-28T16:25:32Z</time></trkpt><trkpt lat="46.17001899127889" lon="9.910161380315742"><ele>293.0</ele><time>2026-03-28T16:25:33Z</time></trkpt><trkpt lat="46.169943046146784" lon="9.909837639147403"><ele>294.0</ele><time>2026-03-28T16:25:34Z</time></trkpt><trkpt lat="46.169878191837874" lon="9.909527671179083"><ele>294.0</ele><time>2026-03-28T16:25:35Z</time></trkpt><trkpt lat="46.16981380467344" lon="9.909242912523768"><ele>294.0</ele><time>2026-03-28T16:25:36Z</time></trkpt><trkpt lat="46.16967454745705" lon="9.909011193234727"><ele>294.0</ele><time>2026-03-28T16:25:37Z</time></trkpt><trkpt lat="46.1695962517291" lon="9.908771793740899"><ele>294.0</ele><time>2026-03-28T16:25:38Z</time></trkpt><trkpt lat="46.16952179053525" lon="9.908553720335805"><ele>294.0</ele><time>2026-03-28T16:25:39Z</time></trkpt><trkpt lat="46.169457554442374" lon="9.90834624224336"><ele>294.0</ele><time>2026-03-28T16:25:40Z</time></trkpt><trkpt lat="46.169400462605836" lon="9.908149234396905"><ele>294.25</ele><time>2026-03-28T16:25:41Z</time></trkpt><trkpt lat="46.16934099896616" lon="9.90797167212729"><ele>294.5</ele><time>2026-03-28T16:25:42Z</time></trkpt><trkpt lat="46.16928617858955" lon="9.907799893580014"><ele>294.75</ele><time>2026-03-28T16:25:43Z</time></trkpt><trkpt lat="46.16922861832824" lon="9.907635689097106"><ele>295.0</ele><time>2026-03-28T16:25:44Z</time></trkpt><trkpt lat="46.16918227441157" lon="9.907483267105468"><ele>295.2</ele><time>2026-03-28T16:25:45Z</time></trkpt><trkpt lat="46.16914924155417" lon="9.907338497987356"><ele>295.4</ele><time>2026-03-28T16:25:46Z</time></trkpt><trkpt lat="46.16912026508741" lon="9.907205023854605"><ele>295.6</ele><time>2026-03-28T16:25:47Z</time></trkpt><trkpt lat="46.169096758552136" lon="9.907067622524718"><ele>295.8</ele><time>2026-03-28T16:25:48Z</time></trkpt><trkpt lat="46.1690772185123" lon="9.906927887326644"><ele>296.0</ele><time>2026-03-28T16:25:49Z</time></trkpt><trkpt lat="46.169068403836626" lon="9.906799888721396"><ele>296.0</ele><time>2026-03-28T16:25:50Z</time></trkpt><trkpt lat="46.16906166902885" lon="9.906695301841122"><ele>296.0</ele><time>2026-03-28T16:25:51Z</time></trkpt><trkpt lat="46.16905462782677" lon="9.906597985709942"><ele>296.0</ele><time>2026-03-28T16:25:52Z</time></trkpt><trkpt lat="46.16905687237558" lon="9.90650661332048"><ele>296.0</ele><time>2026-03-28T16:25:53Z</time></trkpt><trkpt lat="46.16906807882796" lon="9.906319576330931"><ele>296.0</ele><time>2026-03-28T16:25:55Z</time></trkpt><trkpt lat="46.169073344982806" lon="9.906228348382632"><ele>296.0</ele><time>2026-03-28T16:25:56Z</time></trkpt><trkpt lat="46.16910043407325" lon="9.906044186989552"><ele>296.0</ele><time>2026-03-28T16:25:58Z</time></trkpt><trkpt lat="46.16912719680783" lon="9.905943899462315"><ele>296.0</ele><time>2026-03-28T16:25:59Z</time></trkpt><trkpt lat="46.16915140419177" lon="9.905819355592223"><ele>296.0</ele><time>2026-03-28T16:26:00Z</time></trkpt><trkpt lat="46.16917812196103" lon="9.905697298207857"><ele>296.0</ele><time>2026-03-28T16:26:01Z</time></trkpt><trkpt lat="46.169212095907085" lon="9.905590521522642"><ele>296.0</ele><time>2026-03-28T16:26:02Z</time></trkpt><trkpt lat="46.169251114913735" lon="9.905485618468305"><ele>296.0</ele><time>2026-03-28T16:26:03Z</time></trkpt><trkpt lat="46.169292179373144" lon="9.905371499916148"><ele>296.0</ele><time>2026-03-28T16:26:04Z</time></trkpt><trkpt lat="46.169339437595184" lon="9.905261908739005"><ele>296.0</ele><time>2026-03-28T16:26:05Z</time></trkpt><trkpt lat="46.16938656162083" lon="9.905159485279253"><ele>296.0</ele><time>2026-03-28T16:26:06Z</time></trkpt><trkpt lat="46.16943041513469" lon="9.905067118723569"><ele>296.0</ele><time>2026-03-28T16:26:07Z</time></trkpt><trkpt lat="46.16947702907998" lon="9.90497557285298"><ele>296.0</ele><time>2026-03-28T16:26:08Z</time></trkpt><trkpt lat="46.1695251582818" lon="9.904864445224904"><ele>296.0</ele><time>2026-03-28T16:26:09Z</time></trkpt><trkpt lat="46.16958194406828" lon="9.904741265292756"><ele>295.6666666666667</ele><time>2026-03-28T16:26:10Z</time></trkpt><trkpt lat="46.169634107995776" lon="9.904624837348992"><ele>295.33333333333337</ele><time>2026-03-28T16:26:11Z</time></trkpt><trkpt lat="46.16966322267715" lon="9.90450856857232"><ele>295.0</ele><time>2026-03-28T16:26:12Z</time></trkpt><trkpt lat="46.16967950329338" lon="9.904407915882796"><ele>294.6666666666667</ele><time>2026-03-28T16:26:13Z</time></trkpt><trkpt lat="46.169700724493346" lon="9.904320778432044"><ele>294.3333333333333</ele><time>2026-03-28T16:26:14Z</time></trkpt><trkpt lat="46.16973827383192" lon="9.904160042634723"><ele>294.0</ele><time>2026-03-28T16:26:16Z</time></trkpt><trkpt lat="46.16974844465025" lon="9.904070150829224"><ele>293.59999999999997</ele><time>2026-03-28T16:26:17Z</time></trkpt><trkpt lat="46.169680990777884" lon="9.903938941804226"><ele>293.2</ele><time>2026-03-28T16:26:19Z</time></trkpt><trkpt lat="46.1696148091243" lon="9.903923147204507"><ele>292.79999999999995</ele><time>2026-03-28T16:26:20Z</time></trkpt><trkpt lat="46.16954078082615" lon="9.90393195323592"><ele>292.4</ele><time>2026-03-28T16:26:21Z</time></trkpt><trkpt lat="46.16944835736177" lon="9.903978485598369"><ele>292.0</ele><time>2026-03-28T16:26:22Z</time></trkpt><trkpt lat="46.16934808534972" lon="9.904000954453121"><ele>292.0</ele><time>2026-03-28T16:26:23Z</time></trkpt><trkpt lat="46.16924047509156" lon="9.90400194030501"><ele>292.0</ele><time>2026-03-28T16:26:24Z</time></trkpt><trkpt lat="46.16914183924294" lon="9.9039898016491"><ele>292.0</ele><time>2026-03-28T16:26:25Z</time></trkpt><trkpt lat="46.1690402205407" lon="9.90396991570669"><ele>292.0</ele><time>2026-03-28T16:26:26Z</time></trkpt><trkpt lat="46.16893737367445" lon="9.903946103839711"><ele>292.0</ele><time>2026-03-28T16:26:27Z</time></trkpt><trkpt lat="46.16883096140759" lon="9.903907462373969"><ele>291.5</ele><time>2026-03-28T16:26:28Z</time></trkpt><trkpt lat="46.16872492846807" lon="9.903856854135643"><ele>291.0</ele><time>2026-03-28T16:26:29Z</time></trkpt><trkpt lat="46.16862663780997" lon="9.9037846994402"><ele>290.5</ele><time>2026-03-28T16:26:30Z</time></trkpt><trkpt lat="46.16854257713978" lon="9.903674539818457"><ele>290.0</ele><time>2026-03-28T16:26:31Z</time></trkpt><trkpt lat="46.16847869946953" lon="9.903534519827154"><ele>290.0</ele><time>2026-03-28T16:26:32Z</time></trkpt><trkpt lat="46.168440736883866" lon="9.903365088323834"><ele>290.0</ele><time>2026-03-28T16:26:33Z</time></trkpt><trkpt lat="46.168420150491635" lon="9.903136236857735"><ele>290.0</ele><time>2026-03-28T16:26:34Z</time></trkpt><trkpt lat="46.168396743872265" lon="9.902906644031901"><ele>290.0</ele><time>2026-03-28T16:26:35Z</time></trkpt><trkpt lat="46.16836048584512" lon="9.902693297035695"><ele>290.0</ele><time>2026-03-28T16:26:36Z</time></trkpt><trkpt lat="46.168293552028665" lon="9.902495161375493"><ele>290.0</ele><time>2026-03-28T16:26:37Z</time></trkpt><trkpt lat="46.16819054628739" lon="9.90229217207497"><ele>290.0</ele><time>2026-03-28T16:26:38Z</time></trkpt><trkpt lat="46.16804536300054" lon="9.902038852752993"><ele>291.0</ele><time>2026-03-28T16:26:39Z</time></trkpt><trkpt lat="46.167896588728894" lon="9.90174824922094"><ele>292.0</ele><time>2026-03-28T16:26:40Z</time></trkpt><trkpt lat="46.16775363784304" lon="9.901470958847325"><ele>292.0</ele><time>2026-03-28T16:26:41Z</time></trkpt><trkpt lat="46.167656840280216" lon="9.901186179411244"><ele>292.0</ele><time>2026-03-28T16:26:42Z</time></trkpt><trkpt lat="46.167538477196565" lon="9.900977852368712"><ele>292.0</ele><time>2026-03-28T16:26:43Z</time></trkpt><trkpt lat="46.167447956342194" lon="9.900795825893002"><ele>292.0</ele><time>2026-03-28T16:26:44Z</time></trkpt><trkpt lat="46.16736184581662" lon="9.900639187877074"><ele>292.0</ele><time>2026-03-28T16:26:45Z</time></trkpt><trkpt lat="46.167284244429254" lon="9.900468072865223"><ele>292.0</ele><time>2026-03-28T16:26:46Z</time></trkpt><trkpt lat="46.16715966788785" lon="9.900259811003927"><ele>293.5</ele><time>2026-03-28T16:26:47Z</time></trkpt><trkpt lat="46.16701047032867" lon="9.900005728046308"><ele>295.0</ele><time>2026-03-28T16:26:48Z</time></trkpt><trkpt lat="46.16685433759574" lon="9.899711356045152"><ele>295.0</ele><time>2026-03-28T16:26:49Z</time></trkpt><trkpt lat="46.166705793327516" lon="9.899428881215862"><ele>295.0</ele><time>2026-03-28T16:26:50Z</time></trkpt><trkpt lat="46.16656417232998" lon="9.899159571725127"><ele>294.0</ele><time>2026-03-28T16:26:51Z</time></trkpt><trkpt lat="46.1664074810475" lon="9.898900123877203"><ele>293.0</ele><time>2026-03-28T16:26:52Z</time></trkpt><trkpt lat="46.166267310354044" lon="9.898618376748763"><ele>292.5</ele><time>2026-03-28T16:26:53Z</time></trkpt><trkpt lat="46.166126007741056" lon="9.898355419412372"><ele>292.0</ele><time>2026-03-28T16:26:54Z</time></trkpt><trkpt lat="46.16598581072192" lon="9.898088937178821"><ele>292.0</ele><time>2026-03-28T16:26:55Z</time></trkpt><trkpt lat="46.16586528873175" lon="9.897830413394418"><ele>292.0</ele><time>2026-03-28T16:26:56Z</time></trkpt><trkpt lat="46.16573588966521" lon="9.897603883953117"><ele>292.0</ele><time>2026-03-28T16:26:57Z</time></trkpt><trkpt lat="46.16561627999769" lon="9.897396554649227"><ele>292.0</ele><time>2026-03-28T16:26:58Z</time></trkpt><trkpt lat="46.165495810327506" lon="9.897194615125295"><ele>292.0</ele><time>2026-03-28T16:26:59Z</time></trkpt><trkpt lat="46.16537894297711" lon="9.89696348883904"><ele>292.0</ele><time>2026-03-28T16:27:00Z</time></trkpt><trkpt lat="46.16528600642055" lon="9.896757796279655"><ele>291.66666666666663</ele><time>2026-03-28T16:27:01Z</time></trkpt><trkpt lat="46.16518652697902" lon="9.896589188291589"><ele>291.3333333333333</ele><time>2026-03-28T16:27:02Z</time></trkpt><trkpt lat="46.165001420948045" lon="9.89644200797767"><ele>291.0</ele><time>2026-03-28T16:27:03Z</time></trkpt><trkpt lat="46.164859254529" lon="9.896268119167777"><ele>291.0</ele><time>2026-03-28T16:27:04Z</time></trkpt><trkpt lat="46.16470899269331" lon="9.89605685864994"><ele>291.0</ele><time>2026-03-28T16:27:05Z</time></trkpt><trkpt lat="46.164547827251106" lon="9.89583227663376"><ele>291.0</ele><time>2026-03-28T16:27:06Z</time></trkpt><trkpt lat="46.1643847462459" lon="9.89560339330674"><ele>289.5</ele><time>2026-03-28T16:27:07Z</time></trkpt><trkpt lat="46.164217903629996" lon="9.89537830214327"><ele>288.0</ele><time>2026-03-28T16:27:08Z</time></trkpt><trkpt lat="46.16405254658284" lon="9.895147500119947"><ele>290.5</ele><time>2026-03-28T16:27:09Z</time></trkpt><trkpt lat="46.16387831275808" lon="9.894915042805737"><ele>293.0</ele><time>2026-03-28T16:27:10Z</time></trkpt><trkpt lat="46.16370304529192" lon="9.894680844840423"><ele>293.0</ele><time>2026-03-28T16:27:11Z</time></trkpt><trkpt lat="46.16353086254878" lon="9.894449267420853"><ele>293.0</ele><time>2026-03-28T16:27:12Z</time></trkpt><trkpt lat="46.16336121290288" lon="9.89421639054094"><ele>293.5</ele><time>2026-03-28T16:27:13Z</time></trkpt><trkpt lat="46.163185848874484" lon="9.89397986593402"><ele>294.0</ele><time>2026-03-28T16:27:14Z</time></trkpt><trkpt lat="46.16301763564215" lon="9.893731832412012"><ele>294.0</ele><time>2026-03-28T16:27:15.001Z</time></trkpt><trkpt lat="46.16287035429184" lon="9.893458461321181"><ele>294.0</ele><time>2026-03-28T16:27:16.001Z</time></trkpt><trkpt lat="46.162720130306475" lon="9.893188626733819"><ele>292.0</ele><time>2026-03-28T16:27:17.001Z</time></trkpt><trkpt lat="46.16257889949577" lon="9.892902911159982"><ele>290.0</ele><time>2026-03-28T16:27:18.001Z</time></trkpt><trkpt lat="46.16244733112555" lon="9.892601103280587"><ele>289.5</ele><time>2026-03-28T16:27:19.001Z</time></trkpt><trkpt lat="46.16233073025776" lon="9.892295846471855"><ele>289.0</ele><time>2026-03-28T16:27:20.001Z</time></trkpt><trkpt lat="46.16222762082863" lon="9.891987886674519"><ele>288.5</ele><time>2026-03-28T16:27:21.001Z</time></trkpt><trkpt lat="46.16213429086185" lon="9.891669183504153"><ele>288.0</ele><time>2026-03-28T16:27:22Z</time></trkpt><trkpt lat="46.16204927252876" lon="9.891328146381783"><ele>288.0</ele><time>2026-03-28T16:27:23Z</time></trkpt><trkpt lat="46.16197993905737" lon="9.890982278566103"><ele>288.0</ele><time>2026-03-28T16:27:24Z</time></trkpt><trkpt lat="46.16191690260197" lon="9.890629610162682"><ele>288.5</ele><time>2026-03-28T16:27:25Z</time></trkpt><trkpt lat="46.16187527928275" lon="9.890279304444586"><ele>289.0</ele><time>2026-03-28T16:27:26Z</time></trkpt><trkpt lat="46.16184328534233" lon="9.889921132256951"><ele>289.5</ele><time>2026-03-28T16:27:27Z</time></trkpt><trkpt lat="46.16181797915864" lon="9.889552021126553"><ele>290.0</ele><time>2026-03-28T16:27:28Z</time></trkpt><trkpt lat="46.161789846295235" lon="9.889172974551332"><ele>289.0</ele><time>2026-03-28T16:27:29Z</time></trkpt><trkpt lat="46.16174695260155" lon="9.888781558525547"><ele>288.0</ele><time>2026-03-28T16:27:30Z</time></trkpt><trkpt lat="46.161724138372286" lon="9.888383871249665"><ele>288.0</ele><time>2026-03-28T16:27:31Z</time></trkpt><trkpt lat="46.16169313543393" lon="9.887989622461363"><ele>288.0</ele><time>2026-03-28T16:27:32Z</time></trkpt><trkpt lat="46.16166513986088" lon="9.887594841893337"><ele>288.5</ele><time>2026-03-28T16:27:33Z</time></trkpt><trkpt lat="46.16163945870474" lon="9.887200248366142"><ele>289.0</ele><time>2026-03-28T16:27:34Z</time></trkpt><trkpt lat="46.1616096193939" lon="9.886817556796787"><ele>288.5</ele><time>2026-03-28T16:27:35Z</time></trkpt><trkpt lat="46.16158137095911" lon="9.886434112859163"><ele>288.0</ele><time>2026-03-28T16:27:36Z</time></trkpt><trkpt lat="46.16155585885042" lon="9.88604786120741"><ele>288.0</ele><time>2026-03-28T16:27:37Z</time></trkpt><trkpt lat="46.16154184676459" lon="9.885656080946301"><ele>288.0</ele><time>2026-03-28T16:27:38Z</time></trkpt><trkpt lat="46.16153618466154" lon="9.885256213362183"><ele>287.5</ele><time>2026-03-28T16:27:39Z</time></trkpt><trkpt lat="46.16154047441337" lon="9.8848470346377"><ele>287.0</ele><time>2026-03-28T16:27:40Z</time></trkpt><trkpt lat="46.16156470668626" lon="9.884433993918082"><ele>287.5</ele><time>2026-03-28T16:27:41Z</time></trkpt><trkpt lat="46.16162043265515" lon="9.884040260221102"><ele>288.0</ele><time>2026-03-28T16:27:42Z</time></trkpt><trkpt lat="46.161694258360114" lon="9.88365016835483"><ele>288.5</ele><time>2026-03-28T16:27:43Z</time></trkpt><trkpt lat="46.16177947156582" lon="9.883269196027305"><ele>289.0</ele><time>2026-03-28T16:27:44Z</time></trkpt><trkpt lat="46.16187798434225" lon="9.882893434945991"><ele>289.0</ele><time>2026-03-28T16:27:45Z</time></trkpt><trkpt lat="46.16199093751614" lon="9.88252478656748"><ele>289.0</ele><time>2026-03-28T16:27:46Z</time></trkpt><trkpt lat="46.16210334922024" lon="9.882154510505213"><ele>289.0</ele><time>2026-03-28T16:27:47Z</time></trkpt><trkpt lat="46.16221603636226" lon="9.88179122859509"><ele>289.0</ele><time>2026-03-28T16:27:48Z</time></trkpt><trkpt lat="46.16232620617102" lon="9.881430294871247"><ele>288.5</ele><time>2026-03-28T16:27:49Z</time></trkpt><trkpt lat="46.16243271529208" lon="9.881065859921282"><ele>288.0</ele><time>2026-03-28T16:27:50Z</time></trkpt><trkpt lat="46.1625258054379" lon="9.880699395637322"><ele>289.0</ele><time>2026-03-28T16:27:51Z</time></trkpt><trkpt lat="46.1626001953352" lon="9.880333467907658"><ele>290.0</ele><time>2026-03-28T16:27:52Z</time></trkpt><trkpt lat="46.16265457491983" lon="9.879965644415318"><ele>290.0</ele><time>2026-03-28T16:27:53Z</time></trkpt><trkpt lat="46.16268287357029" lon="9.87959755710098"><ele>290.0</ele><time>2026-03-28T16:27:54Z</time></trkpt><trkpt lat="46.162696055722236" lon="9.879233460856994"><ele>290.0</ele><time>2026-03-28T16:27:55Z</time></trkpt><trkpt lat="46.16267904249091" lon="9.878873212316128"><ele>290.0</ele><time>2026-03-28T16:27:56Z</time></trkpt><trkpt lat="46.1626475972941" lon="9.878496994615896"><ele>289.5</ele><time>2026-03-28T16:27:57Z</time></trkpt><trkpt lat="46.162599829588004" lon="9.878112690352351"><ele>289.0</ele><time>2026-03-28T16:27:58Z</time></trkpt><trkpt lat="46.16253629231874" lon="9.877724024993475"><ele>288.5</ele><time>2026-03-28T16:27:59Z</time></trkpt><trkpt lat="46.162454477309396" lon="9.877339938694188"><ele>288.0</ele><time>2026-03-28T16:28:00Z</time></trkpt><trkpt lat="46.162343319791" lon="9.876959141670746"><ele>287.0</ele><time>2026-03-28T16:28:01Z</time></trkpt><trkpt lat="46.162211813187916" lon="9.876582755914853"><ele>286.0</ele><time>2026-03-28T16:28:02Z</time></trkpt><trkpt lat="46.16205173989069" lon="9.876201967570974"><ele>285.5</ele><time>2026-03-28T16:28:03Z</time></trkpt><trkpt lat="46.16187409448993" lon="9.875820136119614"><ele>285.0</ele><time>2026-03-28T16:28:04Z</time></trkpt><trkpt lat="46.161693620483376" lon="9.87542158852643"><ele>285.5</ele><time>2026-03-28T16:28:05Z</time></trkpt><trkpt lat="46.16151513805205" lon="9.875022769399003"><ele>286.0</ele><time>2026-03-28T16:28:06Z</time></trkpt><trkpt lat="46.16134120085877" lon="9.87463624103632"><ele>286.5</ele><time>2026-03-28T16:28:07Z</time></trkpt><trkpt lat="46.161178097082235" lon="9.874266422636138"><ele>287.0</ele><time>2026-03-28T16:28:08Z</time></trkpt><trkpt lat="46.16102747754504" lon="9.873909357365267"><ele>287.0</ele><time>2026-03-28T16:28:09Z</time></trkpt><trkpt lat="46.16088127712313" lon="9.873565463898583"><ele>287.0</ele><time>2026-03-28T16:28:10Z</time></trkpt><trkpt lat="46.160734782644774" lon="9.873222975006547"><ele>287.5</ele><time>2026-03-28T16:28:11Z</time></trkpt><trkpt lat="46.16059158967797" lon="9.872884934444967"><ele>288.0</ele><time>2026-03-28T16:28:12Z</time></trkpt><trkpt lat="46.160435318162044" lon="9.872542485407102"><ele>289.0</ele><time>2026-03-28T16:28:13Z</time></trkpt><trkpt lat="46.16028467096262" lon="9.872210167470863"><ele>290.0</ele><time>2026-03-28T16:28:14Z</time></trkpt><trkpt lat="46.16014327220699" lon="9.871881633768178"><ele>289.0</ele><time>2026-03-28T16:28:15Z</time></trkpt><trkpt lat="46.160017667613616" lon="9.871555304955283"><ele>288.0</ele><time>2026-03-28T16:28:16Z</time></trkpt><trkpt lat="46.15990435242325" lon="9.871223581974018"><ele>288.5</ele><time>2026-03-28T16:28:17Z</time></trkpt><trkpt lat="46.15980308437129" lon="9.870883891320327"><ele>289.0</ele><time>2026-03-28T16:28:18Z</time></trkpt><trkpt lat="46.159705312230486" lon="9.870540782541477"><ele>289.0</ele><time>2026-03-28T16:28:19Z</time></trkpt><trkpt lat="46.159622751271485" lon="9.870201507688147"><ele>289.0</ele><time>2026-03-28T16:28:20Z</time></trkpt><trkpt lat="46.159551555039286" lon="9.86985761247737"><ele>288.5</ele><time>2026-03-28T16:28:21Z</time></trkpt><trkpt lat="46.15949811350669" lon="9.869514161074862"><ele>288.0</ele><time>2026-03-28T16:28:22Z</time></trkpt><trkpt lat="46.159454107895655" lon="9.869166229597534"><ele>288.0</ele><time>2026-03-28T16:28:23Z</time></trkpt><trkpt lat="46.15940703415148" lon="9.86880474869611"><ele>288.0</ele><time>2026-03-28T16:28:24Z</time></trkpt><trkpt lat="46.15936983174798" lon="9.868427286371766"><ele>288.0</ele><time>2026-03-28T16:28:25Z</time></trkpt><trkpt lat="46.1593339740241" lon="9.868040685553693"><ele>288.0</ele><time>2026-03-28T16:28:26Z</time></trkpt><trkpt lat="46.15929643789461" lon="9.867651148577636"><ele>288.0</ele><time>2026-03-28T16:28:27Z</time></trkpt><trkpt lat="46.15925993375698" lon="9.867260625860252"><ele>288.0</ele><time>2026-03-28T16:28:28Z</time></trkpt><trkpt lat="46.15921988259656" lon="9.866865179939825"><ele>288.0</ele><time>2026-03-28T16:28:29Z</time></trkpt><trkpt lat="46.15917771062714" lon="9.866464784369436"><ele>288.0</ele><time>2026-03-28T16:28:30Z</time></trkpt><trkpt lat="46.15913236003812" lon="9.866051892298353"><ele>287.5</ele><time>2026-03-28T16:28:31Z</time></trkpt><trkpt lat="46.15908458205717" lon="9.865627434789797"><ele>287.0</ele><time>2026-03-28T16:28:32Z</time></trkpt><trkpt lat="46.15902929626556" lon="9.865184235739859"><ele>286.5</ele><time>2026-03-28T16:28:33Z</time></trkpt><trkpt lat="46.158971318391906" lon="9.86472665504482"><ele>286.0</ele><time>2026-03-28T16:28:34Z</time></trkpt><trkpt lat="46.15891209150367" lon="9.864258646592027"><ele>285.5</ele><time>2026-03-28T16:28:35Z</time></trkpt><trkpt lat="46.158867226543975" lon="9.863795247130543"><ele>285.0</ele><time>2026-03-28T16:28:36Z</time></trkpt><trkpt lat="46.15884570333801" lon="9.863344492143648"><ele>285.0</ele><time>2026-03-28T16:28:37Z</time></trkpt><trkpt lat="46.158844362252474" lon="9.862905577887588"><ele>285.0</ele><time>2026-03-28T16:28:38Z</time></trkpt><trkpt lat="46.15888705490424" lon="9.862490426693979"><ele>286.0</ele><time>2026-03-28T16:28:39Z</time></trkpt><trkpt lat="46.15892258559556" lon="9.862092460835749"><ele>287.0</ele><time>2026-03-28T16:28:40Z</time></trkpt><trkpt lat="46.15897657124127" lon="9.861698152773721"><ele>287.5</ele><time>2026-03-28T16:28:41Z</time></trkpt><trkpt lat="46.159037026045375" lon="9.86131274784985"><ele>288.0</ele><time>2026-03-28T16:28:42Z</time></trkpt><trkpt lat="46.15912779225716" lon="9.860944275532361"><ele>288.0</ele><time>2026-03-28T16:28:43Z</time></trkpt><trkpt lat="46.15923045012088" lon="9.860576625926253"><ele>288.0</ele><time>2026-03-28T16:28:44Z</time></trkpt><trkpt lat="46.15936130365176" lon="9.860245670514235"><ele>288.0</ele><time>2026-03-28T16:28:45Z</time></trkpt><trkpt lat="46.15949055519605" lon="9.859924191352508"><ele>288.0</ele><time>2026-03-28T16:28:46Z</time></trkpt><trkpt lat="46.159636323937136" lon="9.859617601090147"><ele>288.0</ele><time>2026-03-28T16:28:47Z</time></trkpt><trkpt lat="46.15979130191126" lon="9.859329224467286"><ele>288.0</ele><time>2026-03-28T16:28:48Z</time></trkpt><trkpt lat="46.15995354101076" lon="9.859061507850315"><ele>287.5</ele><time>2026-03-28T16:28:49Z</time></trkpt><trkpt lat="46.16012309494897" lon="9.858814239539415"><ele>287.0</ele><time>2026-03-28T16:28:50Z</time></trkpt><trkpt lat="46.16028669181451" lon="9.858560693022351"><ele>286.5</ele><time>2026-03-28T16:28:51Z</time></trkpt><trkpt lat="46.160466089005226" lon="9.858338121145884"><ele>286.0</ele><time>2026-03-28T16:28:52Z</time></trkpt><trkpt lat="46.16065409843562" lon="9.858137084796706"><ele>285.5</ele><time>2026-03-28T16:28:53Z</time></trkpt><trkpt lat="46.16083603228101" lon="9.857915522292204"><ele>285.0</ele><time>2026-03-28T16:28:54Z</time></trkpt><trkpt lat="46.16102448200009" lon="9.857686807444754"><ele>285.5</ele><time>2026-03-28T16:28:55Z</time></trkpt><trkpt lat="46.16122380641712" lon="9.8574448939909"><ele>286.0</ele><time>2026-03-28T16:28:56Z</time></trkpt><trkpt lat="46.161434236218604" lon="9.857189932485221"><ele>285.5</ele><time>2026-03-28T16:28:57Z</time></trkpt><trkpt lat="46.16164465225598" lon="9.85693103178872"><ele>285.0</ele><time>2026-03-28T16:28:58Z</time></trkpt><trkpt lat="46.16184725564645" lon="9.856669706829246"><ele>284.5</ele><time>2026-03-28T16:28:59Z</time></trkpt><trkpt lat="46.162049789661964" lon="9.856429312994594"><ele>284.0</ele><time>2026-03-28T16:29:00Z</time></trkpt><trkpt lat="46.16224078587689" lon="9.856181079171204"><ele>286.5</ele><time>2026-03-28T16:29:01Z</time></trkpt><trkpt lat="46.16242987876002" lon="9.855902392018063"><ele>289.0</ele><time>2026-03-28T16:29:02Z</time></trkpt><trkpt lat="46.16260160320046" lon="9.85563003594857"><ele>289.0</ele><time>2026-03-28T16:29:03Z</time></trkpt><trkpt lat="46.16275487538605" lon="9.855377592095625"><ele>289.0</ele><time>2026-03-28T16:29:04Z</time></trkpt><trkpt lat="46.162901440023276" lon="9.855115607960363"><ele>289.0</ele><time>2026-03-28T16:29:05Z</time></trkpt><trkpt lat="46.163038920094614" lon="9.854814835833205"><ele>289.0</ele><time>2026-03-28T16:29:06Z</time></trkpt><trkpt lat="46.16319584778206" lon="9.854481582135335"><ele>288.5</ele><time>2026-03-28T16:29:07Z</time></trkpt><trkpt lat="46.163351893332795" lon="9.854132454930035"><ele>288.0</ele><time>2026-03-28T16:29:08.001Z</time></trkpt><trkpt lat="46.16349202874436" lon="9.853796262257172"><ele>288.0</ele><time>2026-03-28T16:29:09.001Z</time></trkpt><trkpt lat="46.16360990861284" lon="9.853455616354937"><ele>288.0</ele><time>2026-03-28T16:29:10.001Z</time></trkpt><trkpt lat="46.163713988638676" lon="9.853086127523863"><ele>287.5</ele><time>2026-03-28T16:29:11.001Z</time></trkpt><trkpt lat="46.163822561225494" lon="9.852697782077495"><ele>287.0</ele><time>2026-03-28T16:29:12.001Z</time></trkpt><trkpt lat="46.163926346921826" lon="9.852292890287192"><ele>286.5</ele><time>2026-03-28T16:29:13.001Z</time></trkpt><trkpt lat="46.16401558985979" lon="9.851868955416482"><ele>286.0</ele><time>2026-03-28T16:29:14.001Z</time></trkpt><trkpt lat="46.16409069895637" lon="9.851433194337384"><ele>287.0</ele><time>2026-03-28T16:29:15.001Z</time></trkpt><trkpt lat="46.164148801706204" lon="9.850988869032882"><ele>288.0</ele><time>2026-03-28T16:29:16.001Z</time></trkpt><trkpt lat="46.164187250812056" lon="9.850548291930663"><ele>288.0</ele><time>2026-03-28T16:29:17.001Z</time></trkpt><trkpt lat="46.16420801023094" lon="9.850114780280183"><ele>288.0</ele><time>2026-03-28T16:29:18.001Z</time></trkpt><trkpt lat="46.16422101259037" lon="9.849690700317806"><ele>287.0</ele><time>2026-03-28T16:29:19.001Z</time></trkpt><trkpt lat="46.164225849683675" lon="9.849269056882449"><ele>286.0</ele><time>2026-03-28T16:29:20.001Z</time></trkpt><trkpt lat="46.164226898690565" lon="9.848847572114677"><ele>286.0</ele><time>2026-03-28T16:29:21.001Z</time></trkpt><trkpt lat="46.164223338449446" lon="9.848426608037698"><ele>286.0</ele><time>2026-03-28T16:29:22.001Z</time></trkpt><trkpt lat="46.164221632927436" lon="9.848001223980972"><ele>286.0</ele><time>2026-03-28T16:29:23.001Z</time></trkpt><trkpt lat="46.164217914163984" lon="9.8475733044632"><ele>286.0</ele><time>2026-03-28T16:29:24.001Z</time></trkpt><trkpt lat="46.16421669878499" lon="9.847147308464073"><ele>286.5</ele><time>2026-03-28T16:29:25.001Z</time></trkpt><trkpt lat="46.164216705321586" lon="9.846732969960767"><ele>287.0</ele><time>2026-03-28T16:29:26.001Z</time></trkpt><trkpt lat="46.16421919920949" lon="9.846350291124333"><ele>287.0</ele><time>2026-03-28T16:29:27.001Z</time></trkpt><trkpt lat="46.16422651084958" lon="9.845979593507089"><ele>287.0</ele><time>2026-03-28T16:29:28Z</time></trkpt><trkpt lat="46.16424284936275" lon="9.845618853276923"><ele>287.5</ele><time>2026-03-28T16:29:29Z</time></trkpt><trkpt lat="46.164273616335024" lon="9.845266665080501"><ele>288.0</ele><time>2026-03-28T16:29:30Z</time></trkpt><trkpt lat="46.16428579317447" lon="9.84491983167615"><ele>288.5</ele><time>2026-03-28T16:29:31Z</time></trkpt><trkpt lat="46.16426480236975" lon="9.844563800920296"><ele>289.0</ele><time>2026-03-28T16:29:32Z</time></trkpt><trkpt lat="46.16420797585401" lon="9.844212407478594"><ele>289.0</ele><time>2026-03-28T16:29:33Z</time></trkpt><trkpt lat="46.16411964575538" lon="9.84387437054153"><ele>289.0</ele><time>2026-03-28T16:29:34Z</time></trkpt><trkpt lat="46.16401121904171" lon="9.843552511773108"><ele>285.5</ele><time>2026-03-28T16:29:35Z</time></trkpt><trkpt lat="46.163854898796274" lon="9.843275936073558"><ele>282.0</ele><time>2026-03-28T16:29:36Z</time></trkpt><trkpt lat="46.163701029505006" lon="9.842985265440143"><ele>282.0</ele><time>2026-03-28T16:29:37Z</time></trkpt><trkpt lat="46.16357269221259" lon="9.842673143741496"><ele>282.0</ele><time>2026-03-28T16:29:38Z</time></trkpt><trkpt lat="46.16345664978492" lon="9.842344089089218"><ele>286.0</ele><time>2026-03-28T16:29:39Z</time></trkpt><trkpt lat="46.16334698147305" lon="9.841980724506216"><ele>290.0</ele><time>2026-03-28T16:29:40Z</time></trkpt><trkpt lat="46.163251081947315" lon="9.841603563926611"><ele>286.0</ele><time>2026-03-28T16:29:41Z</time></trkpt><trkpt lat="46.163158292749316" lon="9.841211240894939"><ele>282.0</ele><time>2026-03-28T16:29:42Z</time></trkpt><trkpt lat="46.163076940292505" lon="9.840818095090468"><ele>281.5</ele><time>2026-03-28T16:29:43Z</time></trkpt><trkpt lat="46.16300681892461" lon="9.840446620248535"><ele>281.0</ele><time>2026-03-28T16:29:44Z</time></trkpt><trkpt lat="46.162942388027524" lon="9.840089353927402"><ele>282.0</ele><time>2026-03-28T16:29:45Z</time></trkpt><trkpt lat="46.16287913426762" lon="9.839754055352719"><ele>283.0</ele><time>2026-03-28T16:29:46Z</time></trkpt><trkpt lat="46.16282028095781" lon="9.839440694519457"><ele>283.3333333333333</ele><time>2026-03-28T16:29:47Z</time></trkpt><trkpt lat="46.16276412353612" lon="9.839139129086568"><ele>283.6666666666667</ele><time>2026-03-28T16:29:48Z</time></trkpt><trkpt lat="46.16270038564985" lon="9.838831690804781"><ele>284.0</ele><time>2026-03-28T16:29:49Z</time></trkpt><trkpt lat="46.16263874900838" lon="9.838515168138127"><ele>285.0</ele><time>2026-03-28T16:29:50Z</time></trkpt><trkpt lat="46.16257798272835" lon="9.838196460754958"><ele>286.0</ele><time>2026-03-28T16:29:51Z</time></trkpt><trkpt lat="46.162512287008354" lon="9.837872299607644"><ele>286.3333333333333</ele><time>2026-03-28T16:29:52Z</time></trkpt><trkpt lat="46.16244712180902" lon="9.83754850099234"><ele>286.6666666666667</ele><time>2026-03-28T16:29:53Z</time></trkpt><trkpt lat="46.16238888271172" lon="9.837251910503623"><ele>287.0</ele><time>2026-03-28T16:29:54Z</time></trkpt><trkpt lat="46.16233808436267" lon="9.837003907322185"><ele>285.25</ele><time>2026-03-28T16:29:55Z</time></trkpt><trkpt lat="46.16229845162289" lon="9.836795370039889"><ele>283.5</ele><time>2026-03-28T16:29:56Z</time></trkpt><trkpt lat="46.162255048893535" lon="9.836603869300525"><ele>281.75</ele><time>2026-03-28T16:29:57Z</time></trkpt><trkpt lat="46.16221334220243" lon="9.836414128496575"><ele>280.0</ele><time>2026-03-28T16:29:58Z</time></trkpt><trkpt lat="46.16217924545862" lon="9.836230783535346"><ele>280.0</ele><time>2026-03-28T16:29:59Z</time></trkpt><trkpt lat="46.162146870206236" lon="9.836057138599765"><ele>280.0</ele><time>2026-03-28T16:30:00Z</time></trkpt><trkpt lat="46.16210828047872" lon="9.83587336057563"><ele>280.0</ele><time>2026-03-28T16:30:01Z</time></trkpt><trkpt lat="46.162069936926" lon="9.835683283152537"><ele>280.0</ele><time>2026-03-28T16:30:02Z</time></trkpt><trkpt lat="46.16203637082756" lon="9.835503779928462"><ele>280.25</ele><time>2026-03-28T16:30:03Z</time></trkpt><trkpt lat="46.16200790271949" lon="9.835331963906842"><ele>280.5</ele><time>2026-03-28T16:30:04Z</time></trkpt><trkpt lat="46.16197884086304" lon="9.835159396740293"><ele>280.75</ele><time>2026-03-28T16:30:05Z</time></trkpt><trkpt lat="46.16194966186585" lon="9.834980267025095"><ele>281.0</ele><time>2026-03-28T16:30:06Z</time></trkpt><trkpt lat="46.16192692639596" lon="9.834800466793324"><ele>281.0</ele><time>2026-03-28T16:30:07Z</time></trkpt><trkpt lat="46.161911778874035" lon="9.834632578400141"><ele>281.0</ele><time>2026-03-28T16:30:08Z</time></trkpt><trkpt lat="46.16189126565666" lon="9.83445884776115"><ele>281.0</ele><time>2026-03-28T16:30:09Z</time></trkpt><trkpt lat="46.16187043944014" lon="9.834270133353838"><ele>281.0</ele><time>2026-03-28T16:30:10Z</time></trkpt><trkpt lat="46.161862314426706" lon="9.834073922267425"><ele>281.0</ele><time>2026-03-28T16:30:11Z</time></trkpt><trkpt lat="46.16185634311064" lon="9.83387138170639"><ele>281.0</ele><time>2026-03-28T16:30:12Z</time></trkpt><trkpt lat="46.16184986298031" lon="9.833656683736598"><ele>281.0</ele><time>2026-03-28T16:30:13Z</time></trkpt><trkpt lat="46.16184038155978" lon="9.833448114216688"><ele>281.0</ele><time>2026-03-28T16:30:14Z</time></trkpt><trkpt lat="46.16183259810424" lon="9.833241796095875"><ele>280.5</ele><time>2026-03-28T16:30:15Z</time></trkpt><trkpt lat="46.161831876732265" lon="9.833024354181685"><ele>280.0</ele><time>2026-03-28T16:30:16Z</time></trkpt><trkpt lat="46.16182962509709" lon="9.832816332872254"><ele>279.5</ele><time>2026-03-28T16:30:17Z</time></trkpt><trkpt lat="46.16182658533728" lon="9.8326212011837"><ele>279.0</ele><time>2026-03-28T16:30:18Z</time></trkpt><trkpt lat="46.16182750536701" lon="9.832422212977612"><ele>278.75</ele><time>2026-03-28T16:30:19Z</time></trkpt><trkpt lat="46.16182604049937" lon="9.83221640626288"><ele>278.5</ele><time>2026-03-28T16:30:20Z</time></trkpt><trkpt lat="46.161827963245884" lon="9.832005568673798"><ele>278.25</ele><time>2026-03-28T16:30:21Z</time></trkpt><trkpt lat="46.1618285871058" lon="9.831808718408054"><ele>278.0</ele><time>2026-03-28T16:30:22Z</time></trkpt><trkpt lat="46.1618234648416" lon="9.831606004835496"><ele>277.75</ele><time>2026-03-28T16:30:23Z</time></trkpt><trkpt lat="46.16182144805113" lon="9.831400333033292"><ele>277.5</ele><time>2026-03-28T16:30:24Z</time></trkpt><trkpt lat="46.1618200334709" lon="9.83120746787557"><ele>277.25</ele><time>2026-03-28T16:30:25Z</time></trkpt><trkpt lat="46.161817868385384" lon="9.83103227490793"><ele>277.0</ele><time>2026-03-28T16:30:26Z</time></trkpt><trkpt lat="46.16181836510974" lon="9.830870202742867"><ele>277.4</ele><time>2026-03-28T16:30:27Z</time></trkpt><trkpt lat="46.16182171226537" lon="9.830722453267779"><ele>277.79999999999995</ele><time>2026-03-28T16:30:28Z</time></trkpt><trkpt lat="46.16183369187449" lon="9.830596280037176"><ele>278.2</ele><time>2026-03-28T16:30:29Z</time></trkpt><trkpt lat="46.16184683453336" lon="9.830478632658156"><ele>278.59999999999997</ele><time>2026-03-28T16:30:30Z</time></trkpt><trkpt lat="46.16185411253831" lon="9.830343160088619"><ele>279.0</ele><time>2026-03-28T16:30:31Z</time></trkpt><trkpt lat="46.161881709439314" lon="9.83020795129098"><ele>279.3333333333333</ele><time>2026-03-28T16:30:32Z</time></trkpt><trkpt lat="46.16192377413925" lon="9.830083457344363"><ele>279.6666666666667</ele><time>2026-03-28T16:30:33Z</time></trkpt><trkpt lat="46.1619785404196" lon="9.829974950463159"><ele>280.0</ele><time>2026-03-28T16:30:34Z</time></trkpt><trkpt lat="46.16204701344402" lon="9.829892723820816"><ele>280.33333333333337</ele><time>2026-03-28T16:30:35Z</time></trkpt><trkpt lat="46.16207853404358" lon="9.829807563286654"><ele>280.6666666666667</ele><time>2026-03-28T16:30:36Z</time></trkpt><trkpt lat="46.16201790092282" lon="9.829688287771374"><ele>281.0</ele><time>2026-03-28T16:30:38Z</time></trkpt><trkpt lat="46.16195078589187" lon="9.829618720207606"><ele>281.0</ele><time>2026-03-28T16:30:39Z</time></trkpt><trkpt lat="46.16189197696763" lon="9.829479281737855"><ele>281.0</ele><time>2026-03-28T16:30:40Z</time></trkpt><trkpt lat="46.161863797249126" lon="9.82930407777807"><ele>281.0</ele><time>2026-03-28T16:30:41Z</time></trkpt><trkpt lat="46.161841546128336" lon="9.82910934964338"><ele>281.0</ele><time>2026-03-28T16:30:42Z</time></trkpt><trkpt lat="46.161817322859065" lon="9.828882969480423"><ele>280.6666666666667</ele><time>2026-03-28T16:30:43Z</time></trkpt><trkpt lat="46.161804040575575" lon="9.828629713550324"><ele>280.3333333333333</ele><time>2026-03-28T16:30:44Z</time></trkpt><trkpt lat="46.16180295525076" lon="9.828355883635423"><ele>280.0</ele><time>2026-03-28T16:30:45Z</time></trkpt><trkpt lat="46.16180820167496" lon="9.828069368226462"><ele>280.0</ele><time>2026-03-28T16:30:46Z</time></trkpt><trkpt lat="46.16180428867633" lon="9.827766867478168"><ele>280.0</ele><time>2026-03-28T16:30:47Z</time></trkpt><trkpt lat="46.16179966297821" lon="9.827433369182968"><ele>280.0</ele><time>2026-03-28T16:30:48Z</time></trkpt><trkpt lat="46.16180169823076" lon="9.827066333427297"><ele>279.5</ele><time>2026-03-28T16:30:49Z</time></trkpt><trkpt lat="46.161802063086775" lon="9.826659383838996"><ele>279.0</ele><time>2026-03-28T16:30:50Z</time></trkpt><trkpt lat="46.16179703441099" lon="9.826269552666785"><ele>279.5</ele><time>2026-03-28T16:30:51Z</time></trkpt><trkpt lat="46.1617915222793" lon="9.82590710542227"><ele>280.0</ele><time>2026-03-28T16:30:52Z</time></trkpt><trkpt lat="46.161792790625455" lon="9.825540501739244"><ele>280.0</ele><time>2026-03-28T16:30:53Z</time></trkpt><trkpt lat="46.161793499518986" lon="9.825157830325528"><ele>280.0</ele><time>2026-03-28T16:30:54Z</time></trkpt><trkpt lat="46.16179543733736" lon="9.824767527294016"><ele>280.0</ele><time>2026-03-28T16:30:55Z</time></trkpt><trkpt lat="46.16179474045366" lon="9.82437889545983"><ele>280.0</ele><time>2026-03-28T16:30:56Z</time></trkpt><trkpt lat="46.16179666104527" lon="9.824001596587406"><ele>279.0</ele><time>2026-03-28T16:30:57.001Z</time></trkpt><trkpt lat="46.16179135003902" lon="9.823623261497756"><ele>278.0</ele><time>2026-03-28T16:30:58.001Z</time></trkpt><trkpt lat="46.161788191722415" lon="9.823243314281834"><ele>278.0</ele><time>2026-03-28T16:30:59.001Z</time></trkpt><trkpt lat="46.16179532570122" lon="9.822859926991597"><ele>278.0</ele><time>2026-03-28T16:31:00.001Z</time></trkpt><trkpt lat="46.16180122762887" lon="9.822476902038426"><ele>278.5</ele><time>2026-03-28T16:31:01.001Z</time></trkpt><trkpt lat="46.16180024642934" lon="9.822087650166127"><ele>279.0</ele><time>2026-03-28T16:31:02.001Z</time></trkpt><trkpt lat="46.161797082425316" lon="9.821693248418592"><ele>279.0</ele><time>2026-03-28T16:31:03.001Z</time></trkpt><trkpt lat="46.16179884053812" lon="9.82129739781403"><ele>279.0</ele><time>2026-03-28T16:31:04.001Z</time></trkpt><trkpt lat="46.16179788554568" lon="9.820901709107055"><ele>279.0</ele><time>2026-03-28T16:31:05.001Z</time></trkpt><trkpt lat="46.161792291840584" lon="9.82051241271905"><ele>279.0</ele><time>2026-03-28T16:31:06.001Z</time></trkpt><trkpt lat="46.16178406265176" lon="9.820129418057046"><ele>279.0</ele><time>2026-03-28T16:31:07.001Z</time></trkpt><trkpt lat="46.16177945973607" lon="9.819734165395197"><ele>279.0</ele><time>2026-03-28T16:31:08.001Z</time></trkpt><trkpt lat="46.161779622773295" lon="9.819353884357016"><ele>279.0</ele><time>2026-03-28T16:31:09.001Z</time></trkpt><trkpt lat="46.16178546087618" lon="9.818978855262063"><ele>279.0</ele><time>2026-03-28T16:31:10.001Z</time></trkpt><trkpt lat="46.16178810427114" lon="9.81862214084206"><ele>278.5</ele><time>2026-03-28T16:31:11.001Z</time></trkpt><trkpt lat="46.161792420590686" lon="9.818266420427843"><ele>278.0</ele><time>2026-03-28T16:31:12.001Z</time></trkpt><trkpt lat="46.161803087760326" lon="9.817906397724432"><ele>277.5</ele><time>2026-03-28T16:31:13.001Z</time></trkpt><trkpt lat="46.161809986402176" lon="9.817539699015766"><ele>277.0</ele><time>2026-03-28T16:31:14.001Z</time></trkpt><trkpt lat="46.16181055912489" lon="9.817162531515544"><ele>278.0</ele><time>2026-03-28T16:31:15.001Z</time></trkpt><trkpt lat="46.16180602037527" lon="9.816770362017756"><ele>279.0</ele><time>2026-03-28T16:31:16.001Z</time></trkpt><trkpt lat="46.161798894647184" lon="9.816371633329835"><ele>278.0</ele><time>2026-03-28T16:31:17.001Z</time></trkpt><trkpt lat="46.16178933766793" lon="9.815966499016568"><ele>277.0</ele><time>2026-03-28T16:31:18.001Z</time></trkpt><trkpt lat="46.161779986114794" lon="9.815561372662065"><ele>276.5</ele><time>2026-03-28T16:31:19.001Z</time></trkpt><trkpt lat="46.16177943687534" lon="9.815149162187922"><ele>276.0</ele><time>2026-03-28T16:31:20.001Z</time></trkpt><trkpt lat="46.161808081363034" lon="9.814727804809413"><ele>276.0</ele><time>2026-03-28T16:31:21.001Z</time></trkpt><trkpt lat="46.1618646152263" lon="9.814301580358903"><ele>276.0</ele><time>2026-03-28T16:31:22.001Z</time></trkpt><trkpt lat="46.16193569393879" lon="9.813872491083231"><ele>276.0</ele><time>2026-03-28T16:31:23.001Z</time></trkpt><trkpt lat="46.16175876651647" lon="9.813493380628573"><ele>276.0</ele><time>2026-03-28T16:31:24.001Z</time></trkpt><trkpt lat="46.16175442495873" lon="9.813077399296443"><ele>275.5</ele><time>2026-03-28T16:31:25.001Z</time></trkpt><trkpt lat="46.16175129133999" lon="9.812660287419904"><ele>275.0</ele><time>2026-03-28T16:31:26.001Z</time></trkpt><trkpt lat="46.16174540233865" lon="9.812230417623773"><ele>275.0</ele><time>2026-03-28T16:31:27.001Z</time></trkpt><trkpt lat="46.16174789436632" lon="9.811825586791855"><ele>275.0</ele><time>2026-03-28T16:31:28.001Z</time></trkpt><trkpt lat="46.161747359287034" lon="9.811428833771199"><ele>275.5</ele><time>2026-03-28T16:31:29.001Z</time></trkpt><trkpt lat="46.16174540492668" lon="9.811051744068289"><ele>276.0</ele><time>2026-03-28T16:31:30.001Z</time></trkpt><trkpt lat="46.1617459564367" lon="9.810679742917559"><ele>276.0</ele><time>2026-03-28T16:31:31.001Z</time></trkpt><trkpt lat="46.161748855213844" lon="9.810313241436335"><ele>276.0</ele><time>2026-03-28T16:31:32.001Z</time></trkpt><trkpt lat="46.16174736784713" lon="9.809948624926246"><ele>276.0</ele><time>2026-03-28T16:31:33.001Z</time></trkpt><trkpt lat="46.1617461126416" lon="9.809585131452955"><ele>276.0</ele><time>2026-03-28T16:31:34Z</time></trkpt><trkpt lat="46.161743972148095" lon="9.809230082322324"><ele>276.3333333333333</ele><time>2026-03-28T16:31:35Z</time></trkpt><trkpt lat="46.16172440892875" lon="9.808898175848652"><ele>276.66666666666663</ele><time>2026-03-28T16:31:36Z</time></trkpt><trkpt lat="46.16173415261369" lon="9.808599040382529"><ele>277.0</ele><time>2026-03-28T16:31:37Z</time></trkpt><trkpt lat="46.16173653703372" lon="9.80830987796125"><ele>277.0</ele><time>2026-03-28T16:31:38Z</time></trkpt><trkpt lat="46.1617571193182" lon="9.808028544481603"><ele>277.0</ele><time>2026-03-28T16:31:39Z</time></trkpt><trkpt lat="46.161756418689116" lon="9.80775504037971"><ele>277.0</ele><time>2026-03-28T16:31:40Z</time></trkpt><trkpt lat="46.16173969202982" lon="9.80748440232599"><ele>277.0</ele><time>2026-03-28T16:31:41Z</time></trkpt><trkpt lat="46.16174216824347" lon="9.807212387623718"><ele>277.0</ele><time>2026-03-28T16:31:42Z</time></trkpt><trkpt lat="46.16174119580785" lon="9.806947721641846"><ele>277.0</ele><time>2026-03-28T16:31:43Z</time></trkpt><trkpt lat="46.161737949048984" lon="9.806684675812742"><ele>276.75</ele><time>2026-03-28T16:31:44Z</time></trkpt><trkpt lat="46.16174094618898" lon="9.806443726381747"><ele>276.5</ele><time>2026-03-28T16:31:45Z</time></trkpt><trkpt lat="46.1617397030474" lon="9.806220541646814"><ele>276.25</ele><time>2026-03-28T16:31:46Z</time></trkpt><trkpt lat="46.161736074368235" lon="9.806060735432819"><ele>276.0</ele><time>2026-03-28T16:31:47Z</time></trkpt><trkpt lat="46.1617409687673" lon="9.805919037630686"><ele>275.8333333333333</ele><time>2026-03-28T16:31:48Z</time></trkpt><trkpt lat="46.161745030340306" lon="9.805813354634155"><ele>275.6666666666667</ele><time>2026-03-28T16:31:49Z</time></trkpt><trkpt lat="46.16174619429742" lon="9.805714868207925"><ele>275.5</ele><time>2026-03-28T16:31:50Z</time></trkpt><trkpt lat="46.161750769473656" lon="9.805622914242994"><ele>275.33333333333337</ele><time>2026-03-28T16:31:51Z</time></trkpt><trkpt lat="46.16176969231862" lon="9.805481889056313"><ele>275.1666666666667</ele><time>2026-03-28T16:31:53Z</time></trkpt><trkpt lat="46.16181153696395" lon="9.805378089702883"><ele>275.0</ele><time>2026-03-28T16:31:55Z</time></trkpt><trkpt lat="46.161850470708835" lon="9.805293550537657"><ele>275.0</ele><time>2026-03-28T16:31:58Z</time></trkpt><trkpt lat="46.16190050439542" lon="9.805236416151875"><ele>275.0</ele><time>2026-03-28T16:31:59Z</time></trkpt><trkpt lat="46.16196160490796" lon="9.805189843539766"><ele>275.0</ele><time>2026-03-28T16:32:00Z</time></trkpt><trkpt lat="46.16200010202073" lon="9.805109889470245"><ele>275.0</ele><time>2026-03-28T16:32:01Z</time></trkpt><trkpt lat="46.16198679392656" lon="9.80500093769789"><ele>275.0</ele><time>2026-03-28T16:32:02Z</time></trkpt><trkpt lat="46.16194017635355" lon="9.804895924159698"><ele>275.0</ele><time>2026-03-28T16:32:03Z</time></trkpt><trkpt lat="46.161870897528004" lon="9.80479387444676"><ele>275.0</ele><time>2026-03-28T16:32:04Z</time></trkpt><trkpt lat="46.16179241225217" lon="9.80466806710689"><ele>275.0</ele><time>2026-03-28T16:32:05Z</time></trkpt><trkpt lat="46.161765796896084" lon="9.804478639485897"><ele>275.0</ele><time>2026-03-28T16:32:06Z</time></trkpt><trkpt lat="46.16175297330222" lon="9.804268683570537"><ele>275.0</ele><time>2026-03-28T16:32:07Z</time></trkpt><trkpt lat="46.16173357738529" lon="9.80403354703147"><ele>275.0</ele><time>2026-03-28T16:32:08Z</time></trkpt><trkpt lat="46.161742089438484" lon="9.803767491186752"><ele>275.0</ele><time>2026-03-28T16:32:09Z</time></trkpt><trkpt lat="46.161738034830734" lon="9.803475837882045"><ele>275.0</ele><time>2026-03-28T16:32:10Z</time></trkpt><trkpt lat="46.16173403165415" lon="9.803163539878769"><ele>275.0</ele><time>2026-03-28T16:32:11Z</time></trkpt><trkpt lat="46.16172864911315" lon="9.80281871085572"><ele>275.0</ele><time>2026-03-28T16:32:12Z</time></trkpt><trkpt lat="46.16172706513106" lon="9.802430185802411"><ele>275.0</ele><time>2026-03-28T16:32:13Z</time></trkpt><trkpt lat="46.161724146076004" lon="9.802028518542093"><ele>275.0</ele><time>2026-03-28T16:32:14Z</time></trkpt><trkpt lat="46.1617243305618" lon="9.80166486769264"><ele>274.6666666666667</ele><time>2026-03-28T16:32:15Z</time></trkpt><trkpt lat="46.16172807443473" lon="9.801344762689999"><ele>274.3333333333333</ele><time>2026-03-28T16:32:16Z</time></trkpt><trkpt lat="46.16172633955701" lon="9.801069972789744"><ele>274.0</ele><time>2026-03-28T16:32:17Z</time></trkpt><trkpt lat="46.161717240789244" lon="9.800817539102047"><ele>274.0</ele><time>2026-03-28T16:32:18Z</time></trkpt><trkpt lat="46.161732835705436" lon="9.800568466546743"><ele>274.0</ele><time>2026-03-28T16:32:19Z</time></trkpt><trkpt lat="46.16173184276021" lon="9.800306115881325"><ele>274.0</ele><time>2026-03-28T16:32:20Z</time></trkpt><trkpt lat="46.16173084276033" lon="9.8000239251395"><ele>274.3333333333333</ele><time>2026-03-28T16:32:21Z</time></trkpt><trkpt lat="46.16173048291781" lon="9.799723626081567"><ele>274.6666666666667</ele><time>2026-03-28T16:32:22Z</time></trkpt><trkpt lat="46.16171349334857" lon="9.799399763193195"><ele>275.0</ele><time>2026-03-28T16:32:23Z</time></trkpt><trkpt lat="46.16172752720358" lon="9.799058321388232"><ele>275.5</ele><time>2026-03-28T16:32:24Z</time></trkpt><trkpt lat="46.16172599681295" lon="9.798713843872495"><ele>276.0</ele><time>2026-03-28T16:32:25Z</time></trkpt><trkpt lat="46.16171094797578" lon="9.798381549577996"><ele>276.0</ele><time>2026-03-28T16:32:26Z</time></trkpt><trkpt lat="46.161712610405644" lon="9.798068209382354"><ele>276.0</ele><time>2026-03-28T16:32:27Z</time></trkpt><trkpt lat="46.16170884164244" lon="9.797767938910491"><ele>276.0</ele><time>2026-03-28T16:32:28Z</time></trkpt><trkpt lat="46.161721823318864" lon="9.797453309448061"><ele>276.0</ele><time>2026-03-28T16:32:29Z</time></trkpt><trkpt lat="46.161720849573605" lon="9.797145276138059"><ele>276.0</ele><time>2026-03-28T16:32:30Z</time></trkpt><trkpt lat="46.16170945680907" lon="9.796844627210707"><ele>276.0</ele><time>2026-03-28T16:32:31Z</time></trkpt><trkpt lat="46.161715665174626" lon="9.7965424762077"><ele>276.0</ele><time>2026-03-28T16:32:32Z</time></trkpt><trkpt lat="46.16171683531423" lon="9.796226298098398"><ele>276.0</ele><time>2026-03-28T16:32:33Z</time></trkpt><trkpt lat="46.161715376378645" lon="9.795911396591897"><ele>276.0</ele><time>2026-03-28T16:32:34Z</time></trkpt><trkpt lat="46.16171552398406" lon="9.795592186268756"><ele>275.5</ele><time>2026-03-28T16:32:35Z</time></trkpt><trkpt lat="46.161714204234094" lon="9.795267615473078"><ele>275.0</ele><time>2026-03-28T16:32:36Z</time></trkpt><trkpt lat="46.16171027409313" lon="9.794928716276374"><ele>275.0</ele><time>2026-03-28T16:32:37Z</time></trkpt><trkpt lat="46.161708467665925" lon="9.794592330535162"><ele>275.0</ele><time>2026-03-28T16:32:38Z</time></trkpt><trkpt lat="46.161706048343156" lon="9.794257708841467"><ele>274.5</ele><time>2026-03-28T16:32:39Z</time></trkpt><trkpt lat="46.16170436076387" lon="9.793913341411804"><ele>274.0</ele><time>2026-03-28T16:32:40Z</time></trkpt><trkpt lat="46.16169932674627" lon="9.793576523989387"><ele>274.0</ele><time>2026-03-28T16:32:41Z</time></trkpt><trkpt lat="46.16169396820975" lon="9.793223910875552"><ele>274.0</ele><time>2026-03-28T16:32:42Z</time></trkpt><trkpt lat="46.16170604660861" lon="9.792850976614869"><ele>275.0</ele><time>2026-03-28T16:32:43Z</time></trkpt><trkpt lat="46.16170483116405" lon="9.79245533269016"><ele>276.0</ele><time>2026-03-28T16:32:44Z</time></trkpt><trkpt lat="46.16170355759985" lon="9.792073495792243"><ele>275.5</ele><time>2026-03-28T16:32:45Z</time></trkpt><trkpt lat="46.161702103912525" lon="9.791723884137246"><ele>275.0</ele><time>2026-03-28T16:32:46Z</time></trkpt><trkpt lat="46.161701142764336" lon="9.791387522738288"><ele>275.0</ele><time>2026-03-28T16:32:47Z</time></trkpt><trkpt lat="46.161700108724226" lon="9.79105703781266"><ele>275.0</ele><time>2026-03-28T16:32:48Z</time></trkpt><trkpt lat="46.161694897826216" lon="9.790738303232224"><ele>275.33333333333337</ele><time>2026-03-28T16:32:49Z</time></trkpt><trkpt lat="46.16166940962458" lon="9.790456232352549"><ele>275.6666666666667</ele><time>2026-03-28T16:32:50Z</time></trkpt><trkpt lat="46.161635643038295" lon="9.790196080362758"><ele>276.0</ele><time>2026-03-28T16:32:51Z</time></trkpt><trkpt lat="46.16157641698361" lon="9.789946908484188"><ele>275.3333333333333</ele><time>2026-03-28T16:32:52Z</time></trkpt><trkpt lat="46.16151055834316" lon="9.78969491031391"><ele>274.66666666666663</ele><time>2026-03-28T16:32:53Z</time></trkpt><trkpt lat="46.1614658314504" lon="9.789434539757154"><ele>274.0</ele><time>2026-03-28T16:32:54Z</time></trkpt><trkpt lat="46.16141209270343" lon="9.789188923952784"><ele>274.0</ele><time>2026-03-28T16:32:55Z</time></trkpt><trkpt lat="46.16135727648689" lon="9.788938381417834"><ele>274.0</ele><time>2026-03-28T16:32:56Z</time></trkpt><trkpt lat="46.161294802960455" lon="9.788652840467577"><ele>274.0</ele><time>2026-03-28T16:32:57Z</time></trkpt><trkpt lat="46.16119360422428" lon="9.788358227119762"><ele>274.0</ele><time>2026-03-28T16:32:58Z</time></trkpt><trkpt lat="46.16112649367953" lon="9.788044238020005"><ele>274.0</ele><time>2026-03-28T16:32:59Z</time></trkpt><trkpt lat="46.161068953333825" lon="9.787723479057906"><ele>275.0</ele><time>2026-03-28T16:33:00Z</time></trkpt><trkpt lat="46.16100604927895" lon="9.787411099108626"><ele>276.0</ele><time>2026-03-28T16:33:01Z</time></trkpt><trkpt lat="46.160937446448294" lon="9.787107506347203"><ele>277.0</ele><time>2026-03-28T16:33:02Z</time></trkpt><trkpt lat="46.16087029193037" lon="9.786795059467345"><ele>279.0</ele><time>2026-03-28T16:33:03Z</time></trkpt><trkpt lat="46.16080143205103" lon="9.786484509243897"><ele>281.0</ele><time>2026-03-28T16:33:04Z</time></trkpt><trkpt lat="46.160726093812876" lon="9.786173763280898"><ele>279.33333333333337</ele><time>2026-03-28T16:33:05.001Z</time></trkpt><trkpt lat="46.1606515738586" lon="9.785872161087495"><ele>277.6666666666667</ele><time>2026-03-28T16:33:06.001Z</time></trkpt><trkpt lat="46.160592677366296" lon="9.785599665584595"><ele>276.0</ele><time>2026-03-28T16:33:07.001Z</time></trkpt><trkpt lat="46.16054467556344" lon="9.785348540284868"><ele>276.6666666666667</ele><time>2026-03-28T16:33:08.001Z</time></trkpt><trkpt lat="46.16049968370071" lon="9.78511417451656"><ele>277.33333333333337</ele><time>2026-03-28T16:33:09.001Z</time></trkpt><trkpt lat="46.160449798119885" lon="9.784893269359484"><ele>278.0</ele><time>2026-03-28T16:33:10.001Z</time></trkpt><trkpt lat="46.160396686701255" lon="9.784664351279467"><ele>278.0</ele><time>2026-03-28T16:33:11.001Z</time></trkpt><trkpt lat="46.16034096657584" lon="9.784416962383002"><ele>278.0</ele><time>2026-03-28T16:33:12.001Z</time></trkpt><trkpt lat="46.1602856046922" lon="9.784158709465741"><ele>278.0</ele><time>2026-03-28T16:33:13.001Z</time></trkpt><trkpt lat="46.16022346665582" lon="9.783887864409765"><ele>278.6666666666667</ele><time>2026-03-28T16:33:14.001Z</time></trkpt><trkpt lat="46.160162037287165" lon="9.783608920229652"><ele>279.3333333333333</ele><time>2026-03-28T16:33:15.001Z</time></trkpt><trkpt lat="46.160096936148" lon="9.783316406133522"><ele>280.0</ele><time>2026-03-28T16:33:16.001Z</time></trkpt><trkpt lat="46.16002834558881" lon="9.783019023403545"><ele>280.66666666666663</ele><time>2026-03-28T16:33:17.001Z</time></trkpt><trkpt lat="46.159969669365005" lon="9.782729918451539"><ele>281.3333333333333</ele><time>2026-03-28T16:33:18.001Z</time></trkpt><trkpt lat="46.159915064891536" lon="9.782453028397992"><ele>282.0</ele><time>2026-03-28T16:33:19.001Z</time></trkpt><trkpt lat="46.1598625508023" lon="9.78218144785798"><ele>280.3333333333333</ele><time>2026-03-28T16:33:20.001Z</time></trkpt><trkpt lat="46.1598045489036" lon="9.781904817780875"><ele>278.66666666666663</ele><time>2026-03-28T16:33:21.001Z</time></trkpt><trkpt lat="46.15974191333529" lon="9.781627277492074"><ele>277.0</ele><time>2026-03-28T16:33:22.001Z</time></trkpt><trkpt lat="46.159678294672545" lon="9.78134986620194"><ele>277.0</ele><time>2026-03-28T16:33:23.001Z</time></trkpt><trkpt lat="46.15961809961688" lon="9.781064941831982"><ele>277.0</ele><time>2026-03-28T16:33:24.001Z</time></trkpt><trkpt lat="46.15955319251377" lon="9.780764701823532"><ele>277.0</ele><time>2026-03-28T16:33:25.001Z</time></trkpt><trkpt lat="46.15948709465029" lon="9.780451047568164"><ele>278.5</ele><time>2026-03-28T16:33:26.001Z</time></trkpt><trkpt lat="46.15941882663556" lon="9.780124008662996"><ele>280.0</ele><time>2026-03-28T16:33:27.001Z</time></trkpt><trkpt lat="46.15934877562754" lon="9.77978335100837"><ele>280.0</ele><time>2026-03-28T16:33:28.001Z</time></trkpt><trkpt lat="46.159273043930476" lon="9.779435867567935"><ele>280.0</ele><time>2026-03-28T16:33:29.001Z</time></trkpt><trkpt lat="46.15918495752252" lon="9.779081729177761"><ele>279.5</ele><time>2026-03-28T16:33:30.001Z</time></trkpt><trkpt lat="46.15910044595463" lon="9.778720196852975"><ele>279.0</ele><time>2026-03-28T16:33:31.001Z</time></trkpt><trkpt lat="46.159018258911416" lon="9.778355369929583"><ele>277.0</ele><time>2026-03-28T16:33:32.001Z</time></trkpt><trkpt lat="46.15893289227279" lon="9.777985528579295"><ele>275.0</ele><time>2026-03-28T16:33:33.001Z</time></trkpt><trkpt lat="46.158847046968596" lon="9.777613258114926"><ele>275.0</ele><time>2026-03-28T16:33:34.001Z</time></trkpt><trkpt lat="46.15876274574569" lon="9.777237550520747"><ele>275.0</ele><time>2026-03-28T16:33:35.001Z</time></trkpt><trkpt lat="46.158683213971436" lon="9.776868208348203"><ele>276.5</ele><time>2026-03-28T16:33:36.001Z</time></trkpt><trkpt lat="46.158606954326984" lon="9.776512858357279"><ele>278.0</ele><time>2026-03-28T16:33:37.001Z</time></trkpt><trkpt lat="46.15854228992234" lon="9.776194965669847"><ele>278.5</ele><time>2026-03-28T16:33:38.001Z</time></trkpt><trkpt lat="46.1584710249944" lon="9.77588697470969"><ele>279.0</ele><time>2026-03-28T16:33:39.001Z</time></trkpt><trkpt lat="46.15839464693827" lon="9.775565272216998"><ele>279.0</ele><time>2026-03-28T16:33:40Z</time></trkpt><trkpt lat="46.15832337261485" lon="9.775236168812887"><ele>279.0</ele><time>2026-03-28T16:33:41Z</time></trkpt><trkpt lat="46.15826831428914" lon="9.774919100109916"><ele>279.0</ele><time>2026-03-28T16:33:42Z</time></trkpt><trkpt lat="46.1582124672115" lon="9.7745986556551"><ele>279.0</ele><time>2026-03-28T16:33:43Z</time></trkpt><trkpt lat="46.15814432024463" lon="9.77427687804771"><ele>278.0</ele><time>2026-03-28T16:33:44Z</time></trkpt><trkpt lat="46.15807056067175" lon="9.77395805724664"><ele>277.0</ele><time>2026-03-28T16:33:45Z</time></trkpt><trkpt lat="46.15798920195171" lon="9.773633234779915"><ele>276.5</ele><time>2026-03-28T16:33:46Z</time></trkpt><trkpt lat="46.157911455684975" lon="9.773303973399756"><ele>276.0</ele><time>2026-03-28T16:33:47Z</time></trkpt><trkpt lat="46.15783944107921" lon="9.772976217367622"><ele>276.5</ele><time>2026-03-28T16:33:48Z</time></trkpt><trkpt lat="46.157771391944095" lon="9.772640512251366"><ele>277.0</ele><time>2026-03-28T16:33:49Z</time></trkpt><trkpt lat="46.15770560103782" lon="9.77229114266396"><ele>277.0</ele><time>2026-03-28T16:33:50Z</time></trkpt><trkpt lat="46.15765741627543" lon="9.771884312933299"><ele>277.0</ele><time>2026-03-28T16:33:51Z</time></trkpt><trkpt lat="46.157603646805775" lon="9.77153826552494"><ele>277.0</ele><time>2026-03-28T16:33:52Z</time></trkpt><trkpt lat="46.15759752687194" lon="9.771183191007935"><ele>277.0</ele><time>2026-03-28T16:33:53Z</time></trkpt><trkpt lat="46.1576044012825" lon="9.770823029932117"><ele>277.0</ele><time>2026-03-28T16:33:54Z</time></trkpt><trkpt lat="46.157631735409254" lon="9.770466778638507"><ele>277.0</ele><time>2026-03-28T16:33:55Z</time></trkpt><trkpt lat="46.15767317381825" lon="9.770128191356662"><ele>276.5</ele><time>2026-03-28T16:33:56Z</time></trkpt><trkpt lat="46.157718029336614" lon="9.769777122785934"><ele>276.0</ele><time>2026-03-28T16:33:57Z</time></trkpt><trkpt lat="46.15776387341508" lon="9.769429485125727"><ele>275.5</ele><time>2026-03-28T16:33:58Z</time></trkpt><trkpt lat="46.15780956798653" lon="9.769094898142333"><ele>275.0</ele><time>2026-03-28T16:33:59Z</time></trkpt><trkpt lat="46.15785211288511" lon="9.76877155504679"><ele>274.6666666666667</ele><time>2026-03-28T16:34:00Z</time></trkpt><trkpt lat="46.15789370372738" lon="9.76845797785411"><ele>274.3333333333333</ele><time>2026-03-28T16:34:01Z</time></trkpt><trkpt lat="46.157937626955615" lon="9.768141737800432"><ele>274.0</ele><time>2026-03-28T16:34:02Z</time></trkpt><trkpt lat="46.157975816354316" lon="9.767818127826422"><ele>273.0</ele><time>2026-03-28T16:34:03Z</time></trkpt><trkpt lat="46.15801870974798" lon="9.767484022906725"><ele>272.0</ele><time>2026-03-28T16:34:04Z</time></trkpt><trkpt lat="46.158070269043606" lon="9.76713266138497"><ele>271.5</ele><time>2026-03-28T16:34:05Z</time></trkpt><trkpt lat="46.15813178648876" lon="9.766757355319383"><ele>271.0</ele><time>2026-03-28T16:34:06Z</time></trkpt><trkpt lat="46.15819042726172" lon="9.766356762909032"><ele>272.5</ele><time>2026-03-28T16:34:07Z</time></trkpt><trkpt lat="46.158244769014054" lon="9.765943916416406"><ele>274.0</ele><time>2026-03-28T16:34:08Z</time></trkpt><trkpt lat="46.15829508391352" lon="9.765545288113643"><ele>273.5</ele><time>2026-03-28T16:34:09Z</time></trkpt><trkpt lat="46.15835186853502" lon="9.765150536727088"><ele>273.0</ele><time>2026-03-28T16:34:10Z</time></trkpt><trkpt lat="46.158406001891194" lon="9.76478094857393"><ele>273.0</ele><time>2026-03-28T16:34:11Z</time></trkpt><trkpt lat="46.15845474992366" lon="9.764431824693347"><ele>273.0</ele><time>2026-03-28T16:34:12Z</time></trkpt><trkpt lat="46.158492302367954" lon="9.764126141344027"><ele>273.0</ele><time>2026-03-28T16:34:13Z</time></trkpt><trkpt lat="46.15853092298906" lon="9.763832826826649"><ele>273.0</ele><time>2026-03-28T16:34:14Z</time></trkpt><trkpt lat="46.158560384714974" lon="9.763580066208535"><ele>273.0</ele><time>2026-03-28T16:34:15Z</time></trkpt><trkpt lat="46.158608930105856" lon="9.763326168995608"><ele>273.3333333333333</ele><time>2026-03-28T16:34:16Z</time></trkpt><trkpt lat="46.15864691085744" lon="9.76304679345755"><ele>273.66666666666663</ele><time>2026-03-28T16:34:17Z</time></trkpt><trkpt lat="46.15869007301205" lon="9.762731075029992"><ele>274.0</ele><time>2026-03-28T16:34:18Z</time></trkpt><trkpt lat="46.158740598184934" lon="9.762385968093342"><ele>273.0</ele><time>2026-03-28T16:34:19Z</time></trkpt><trkpt lat="46.158787778139775" lon="9.762024847791896"><ele>272.0</ele><time>2026-03-28T16:34:20Z</time></trkpt><trkpt lat="46.15883571838507" lon="9.761663708258087"><ele>271.5</ele><time>2026-03-28T16:34:21Z</time></trkpt><trkpt lat="46.15888636972468" lon="9.761292846449647"><ele>271.0</ele><time>2026-03-28T16:34:22Z</time></trkpt><trkpt lat="46.15893459730392" lon="9.760939223109427"><ele>270.66666666666663</ele><time>2026-03-28T16:34:23Z</time></trkpt><trkpt lat="46.15895178799712" lon="9.760771470280623"><ele>270.3333333333333</ele><time>2026-03-28T16:34:24Z</time></trkpt><trkpt lat="46.159000492311016" lon="9.760394429982027"><ele>270.0</ele><time>2026-03-28T16:34:25Z</time></trkpt><trkpt lat="46.15904788634763" lon="9.760016323169094"><ele>270.5</ele><time>2026-03-28T16:34:26Z</time></trkpt><trkpt lat="46.15909790628579" lon="9.759634923604054"><ele>271.0</ele><time>2026-03-28T16:34:27Z</time></trkpt><trkpt lat="46.15915047605177" lon="9.759243600065384"><ele>271.0</ele><time>2026-03-28T16:34:28Z</time></trkpt><trkpt lat="46.15920922829769" lon="9.758846585778038"><ele>271.0</ele><time>2026-03-28T16:34:29Z</time></trkpt><trkpt lat="46.1592629985479" lon="9.75844657751597"><ele>271.0</ele><time>2026-03-28T16:34:30Z</time></trkpt><trkpt lat="46.15931866273088" lon="9.758035917526495"><ele>271.0</ele><time>2026-03-28T16:34:31Z</time></trkpt><trkpt lat="46.15937572422352" lon="9.757622721288815"><ele>271.0</ele><time>2026-03-28T16:34:32Z</time></trkpt><trkpt lat="46.15943743784326" lon="9.757205061398103"><ele>271.0</ele><time>2026-03-28T16:34:33Z</time></trkpt><trkpt lat="46.15949690370097" lon="9.756787569251866"><ele>270.0</ele><time>2026-03-28T16:34:34Z</time></trkpt><trkpt lat="46.15955552187414" lon="9.756373377928021"><ele>269.0</ele><time>2026-03-28T16:34:35Z</time></trkpt><trkpt lat="46.15961273928291" lon="9.755966092196452"><ele>269.0</ele><time>2026-03-28T16:34:36Z</time></trkpt><trkpt lat="46.159669814831624" lon="9.755556315589523"><ele>269.0</ele><time>2026-03-28T16:34:37Z</time></trkpt><trkpt lat="46.15972559966245" lon="9.75514470481445"><ele>269.0</ele><time>2026-03-28T16:34:38Z</time></trkpt><trkpt lat="46.159778721720336" lon="9.75473613320304"><ele>269.0</ele><time>2026-03-28T16:34:39Z</time></trkpt><trkpt lat="46.1598300407782" lon="9.754328094774477"><ele>269.5</ele><time>2026-03-28T16:34:40Z</time></trkpt><trkpt lat="46.159883554308216" lon="9.75394529125823"><ele>270.0</ele><time>2026-03-28T16:34:41Z</time></trkpt><trkpt lat="46.15993942958221" lon="9.753530296315555"><ele>270.0</ele><time>2026-03-28T16:34:42Z</time></trkpt><trkpt lat="46.15999357536845" lon="9.75312586253288"><ele>270.0</ele><time>2026-03-28T16:34:43Z</time></trkpt><trkpt lat="46.16004407446266" lon="9.752732832650073"><ele>269.5</ele><time>2026-03-28T16:34:44Z</time></trkpt><trkpt lat="46.16009286137889" lon="9.752360238996374"><ele>269.0</ele><time>2026-03-28T16:34:45Z</time></trkpt><trkpt lat="46.160139963390066" lon="9.751994644774232"><ele>269.5</ele><time>2026-03-28T16:34:46Z</time></trkpt><trkpt lat="46.16018619676214" lon="9.751656335176584"><ele>270.0</ele><time>2026-03-28T16:34:47Z</time></trkpt><trkpt lat="46.16023309715875" lon="9.751318565598522"><ele>269.6666666666667</ele><time>2026-03-28T16:34:48Z</time></trkpt><trkpt lat="46.160276999391996" lon="9.751009132482444"><ele>269.33333333333337</ele><time>2026-03-28T16:34:49Z</time></trkpt><trkpt lat="46.1603135205438" lon="9.750705421962566"><ele>269.0</ele><time>2026-03-28T16:34:50Z</time></trkpt><trkpt lat="46.160353033040664" lon="9.750374129983904"><ele>269.0</ele><time>2026-03-28T16:34:51Z</time></trkpt><trkpt lat="46.160402816190555" lon="9.750040270762824"><ele>269.0</ele><time>2026-03-28T16:34:52Z</time></trkpt><trkpt lat="46.160462970019545" lon="9.749690098733657"><ele>269.0</ele><time>2026-03-28T16:34:53Z</time></trkpt><trkpt lat="46.16051061819312" lon="9.749356005780392"><ele>269.0</ele><time>2026-03-28T16:34:54Z</time></trkpt><trkpt lat="46.16055019855093" lon="9.749010215472882"><ele>269.0</ele><time>2026-03-28T16:34:55Z</time></trkpt><trkpt lat="46.16059151931699" lon="9.74864606237727"><ele>269.0</ele><time>2026-03-28T16:34:56Z</time></trkpt><trkpt lat="46.16067069984529" lon="9.748285879390327"><ele>269.5</ele><time>2026-03-28T16:34:57Z</time></trkpt><trkpt lat="46.160711646746066" lon="9.747903701671582"><ele>270.0</ele><time>2026-03-28T16:34:58.001Z</time></trkpt><trkpt lat="46.160774212722764" lon="9.747522661186308"><ele>270.0</ele><time>2026-03-28T16:34:59.001Z</time></trkpt><trkpt lat="46.160824784703436" lon="9.747125859425383"><ele>270.0</ele><time>2026-03-28T16:35:00.001Z</time></trkpt><trkpt lat="46.160877238480396" lon="9.746709720102256"><ele>270.5</ele><time>2026-03-28T16:35:01.001Z</time></trkpt><trkpt lat="46.160933950625996" lon="9.746296415456106"><ele>271.0</ele><time>2026-03-28T16:35:02.001Z</time></trkpt><trkpt lat="46.160988790222774" lon="9.745886442878865"><ele>271.5</ele><time>2026-03-28T16:35:03.001Z</time></trkpt><trkpt lat="46.16103289585072" lon="9.745480873080778"><ele>272.0</ele><time>2026-03-28T16:35:04.001Z</time></trkpt><trkpt lat="46.16108476711523" lon="9.745089772660851"><ele>271.0</ele><time>2026-03-28T16:35:05.001Z</time></trkpt><trkpt lat="46.16112689808879" lon="9.744710756525306"><ele>270.0</ele><time>2026-03-28T16:35:06.001Z</time></trkpt><trkpt lat="46.161120405631195" lon="9.744337726918976"><ele>270.0</ele><time>2026-03-28T16:35:07.001Z</time></trkpt><trkpt lat="46.16115038620257" lon="9.74399009681607"><ele>270.0</ele><time>2026-03-28T16:35:08.001Z</time></trkpt><trkpt lat="46.161178351527" lon="9.74366834313872"><ele>270.0</ele><time>2026-03-28T16:35:09.001Z</time></trkpt><trkpt lat="46.16120663274369" lon="9.74336068151466"><ele>270.0</ele><time>2026-03-28T16:35:10.001Z</time></trkpt><trkpt lat="46.161224175366634" lon="9.743061645252785"><ele>270.0</ele><time>2026-03-28T16:35:11.001Z</time></trkpt><trkpt lat="46.161253669685195" lon="9.742775418928337"><ele>270.0</ele><time>2026-03-28T16:35:12.001Z</time></trkpt><trkpt lat="46.16127221083678" lon="9.742483001225072"><ele>270.0</ele><time>2026-03-28T16:35:13.001Z</time></trkpt><trkpt lat="46.16129901833523" lon="9.742192955724583"><ele>270.0</ele><time>2026-03-28T16:35:14.001Z</time></trkpt><trkpt lat="46.1613194958071" lon="9.741919174288393"><ele>269.6666666666667</ele><time>2026-03-28T16:35:15.001Z</time></trkpt><trkpt lat="46.16134005107179" lon="9.7416681929779"><ele>269.33333333333337</ele><time>2026-03-28T16:35:16.001Z</time></trkpt><trkpt lat="46.16135324855511" lon="9.741416368397674"><ele>269.0</ele><time>2026-03-28T16:35:17.001Z</time></trkpt><trkpt lat="46.161378223150145" lon="9.741191519060193"><ele>269.2</ele><time>2026-03-28T16:35:18.001Z</time></trkpt><trkpt lat="46.16138572710589" lon="9.741048209570478"><ele>269.4</ele><time>2026-03-28T16:35:19.001Z</time></trkpt><trkpt lat="46.161395274610136" lon="9.740916670859148"><ele>269.6</ele><time>2026-03-28T16:35:20.001Z</time></trkpt><trkpt lat="46.161404269760716" lon="9.740778128307852"><ele>269.8</ele><time>2026-03-28T16:35:21.001Z</time></trkpt><trkpt lat="46.16141229214426" lon="9.740635952382457"><ele>270.0</ele><time>2026-03-28T16:35:22.001Z</time></trkpt><trkpt lat="46.161428005953134" lon="9.74045651534545"><ele>270.0</ele><time>2026-03-28T16:35:23.001Z</time></trkpt><trkpt lat="46.16143565597255" lon="9.74024431996495"><ele>270.0</ele><time>2026-03-28T16:35:24.001Z</time></trkpt><trkpt lat="46.161452881226666" lon="9.7400064964152"><ele>270.0</ele><time>2026-03-28T16:35:25.001Z</time></trkpt><trkpt lat="46.16147891663756" lon="9.73976091655942"><ele>270.0</ele><time>2026-03-28T16:35:26.001Z</time></trkpt><trkpt lat="46.16150676632305" lon="9.739483836553662"><ele>270.0</ele><time>2026-03-28T16:35:27.001Z</time></trkpt><trkpt lat="46.1615290683534" lon="9.739192205677757"><ele>270.0</ele><time>2026-03-28T16:35:28.001Z</time></trkpt><trkpt lat="46.16154858218583" lon="9.738908921754957"><ele>270.0</ele><time>2026-03-28T16:35:29.001Z</time></trkpt><trkpt lat="46.16157280466561" lon="9.738634741445667"><ele>270.0</ele><time>2026-03-28T16:35:30.001Z</time></trkpt><trkpt lat="46.161595559492326" lon="9.738355234014378"><ele>270.0</ele><time>2026-03-28T16:35:31.001Z</time></trkpt><trkpt lat="46.16160873044102" lon="9.738072242785977"><ele>269.6666666666667</ele><time>2026-03-28T16:35:32.001Z</time></trkpt><trkpt lat="46.1616270895889" lon="9.737790643199004"><ele>269.33333333333337</ele><time>2026-03-28T16:35:33.001Z</time></trkpt><trkpt lat="46.16164370240795" lon="9.737481560646382"><ele>269.0</ele><time>2026-03-28T16:35:34.001Z</time></trkpt><trkpt lat="46.16167375138825" lon="9.737160734214749"><ele>268.33333333333337</ele><time>2026-03-28T16:35:35.001Z</time></trkpt><trkpt lat="46.16170731345138" lon="9.7368507920233"><ele>267.6666666666667</ele><time>2026-03-28T16:35:36.001Z</time></trkpt><trkpt lat="46.16173626862923" lon="9.736539807813491"><ele>267.0</ele><time>2026-03-28T16:35:37.001Z</time></trkpt><trkpt lat="46.16176072763404" lon="9.736229728471114"><ele>267.0</ele><time>2026-03-28T16:35:38.001Z</time></trkpt><trkpt lat="46.16178320860045" lon="9.735918758088168"><ele>267.0</ele><time>2026-03-28T16:35:39.001Z</time></trkpt><trkpt lat="46.16180350870678" lon="9.735614144263806"><ele>267.0</ele><time>2026-03-28T16:35:40.001Z</time></trkpt><trkpt lat="46.16182410751562" lon="9.735337250569021"><ele>267.0</ele><time>2026-03-28T16:35:41.001Z</time></trkpt><trkpt lat="46.161843972499945" lon="9.735103077464043"><ele>267.0</ele><time>2026-03-28T16:35:42.001Z</time></trkpt><trkpt lat="46.16186774431703" lon="9.734819129628793"><ele>267.0</ele><time>2026-03-28T16:35:43.001Z</time></trkpt><trkpt lat="46.16188741045647" lon="9.734553145610558"><ele>267.3333333333333</ele><time>2026-03-28T16:35:44.001Z</time></trkpt><trkpt lat="46.161909845149005" lon="9.734279655274484"><ele>267.66666666666663</ele><time>2026-03-28T16:35:45.001Z</time></trkpt><trkpt lat="46.16193222542717" lon="9.733993868312986"><ele>268.0</ele><time>2026-03-28T16:35:46Z</time></trkpt><trkpt lat="46.1619525841389" lon="9.733687478907516"><ele>268.0</ele><time>2026-03-28T16:35:47Z</time></trkpt><trkpt lat="46.16197662444483" lon="9.733359877944617"><ele>268.0</ele><time>2026-03-28T16:35:48Z</time></trkpt><trkpt lat="46.16200203591393" lon="9.7330309336823"><ele>267.0</ele><time>2026-03-28T16:35:49Z</time></trkpt><trkpt lat="46.16202332872669" lon="9.732703992584437"><ele>266.0</ele><time>2026-03-28T16:35:50Z</time></trkpt><trkpt lat="46.16204781535012" lon="9.73236622222799"><ele>266.0</ele><time>2026-03-28T16:35:51Z</time></trkpt><trkpt lat="46.162079372622365" lon="9.732002562779483"><ele>266.0</ele><time>2026-03-28T16:35:52Z</time></trkpt><trkpt lat="46.16211946554315" lon="9.731672286507989"><ele>266.0</ele><time>2026-03-28T16:35:53Z</time></trkpt><trkpt lat="46.16214550340684" lon="9.731319835123466"><ele>266.0</ele><time>2026-03-28T16:35:54Z</time></trkpt><trkpt lat="46.162167152050316" lon="9.730979136147884"><ele>266.0</ele><time>2026-03-28T16:35:55Z</time></trkpt><trkpt lat="46.16218758455762" lon="9.730658371527163"><ele>266.0</ele><time>2026-03-28T16:35:56Z</time></trkpt><trkpt lat="46.162213731310864" lon="9.730351299107292"><ele>266.0</ele><time>2026-03-28T16:35:57Z</time></trkpt><trkpt lat="46.16224097927127" lon="9.730038115607044"><ele>266.0</ele><time>2026-03-28T16:35:58Z</time></trkpt><trkpt lat="46.162266058541746" lon="9.729677445148745"><ele>266.0</ele><time>2026-03-28T16:35:59Z</time></trkpt><trkpt lat="46.16229406307485" lon="9.729257485257229"><ele>266.0</ele><time>2026-03-28T16:36:00Z</time></trkpt><trkpt lat="46.16233523054184" lon="9.72880315580986"><ele>266.0</ele><time>2026-03-28T16:36:01Z</time></trkpt><trkpt lat="46.16238700752134" lon="9.728324711908613"><ele>266.5</ele><time>2026-03-28T16:36:02Z</time></trkpt><trkpt lat="46.16241544978248" lon="9.727884934532943"><ele>267.0</ele><time>2026-03-28T16:36:03Z</time></trkpt><trkpt lat="46.16244534802771" lon="9.727490305324574"><ele>267.0</ele><time>2026-03-28T16:36:04Z</time></trkpt><trkpt lat="46.16247105830581" lon="9.727113687511794"><ele>267.0</ele><time>2026-03-28T16:36:05Z</time></trkpt><trkpt lat="46.16249544371945" lon="9.72674143555782"><ele>266.5</ele><time>2026-03-28T16:36:06Z</time></trkpt><trkpt lat="46.16251454209548" lon="9.726386871823271"><ele>266.0</ele><time>2026-03-28T16:36:07Z</time></trkpt><trkpt lat="46.16252549916721" lon="9.726032718658022"><ele>266.0</ele><time>2026-03-28T16:36:08Z</time></trkpt><trkpt lat="46.16253264546199" lon="9.725692323093043"><ele>266.0</ele><time>2026-03-28T16:36:09Z</time></trkpt><trkpt lat="46.16254056078868" lon="9.725350911160305"><ele>266.5</ele><time>2026-03-28T16:36:10Z</time></trkpt><trkpt lat="46.162551321222956" lon="9.72497764756748"><ele>267.0</ele><time>2026-03-28T16:36:11Z</time></trkpt><trkpt lat="46.16260152483976" lon="9.724588582206927"><ele>267.0</ele><time>2026-03-28T16:36:12Z</time></trkpt><trkpt lat="46.16261638709949" lon="9.724185015807409"><ele>267.0</ele><time>2026-03-28T16:36:13Z</time></trkpt><trkpt lat="46.162631572614366" lon="9.723772671391055"><ele>267.0</ele><time>2026-03-28T16:36:14Z</time></trkpt><trkpt lat="46.16264686768685" lon="9.723356951391873"><ele>267.0</ele><time>2026-03-28T16:36:15Z</time></trkpt><trkpt lat="46.162662275171456" lon="9.722938230816187"><ele>266.5</ele><time>2026-03-28T16:36:16Z</time></trkpt><trkpt lat="46.162677372733036" lon="9.722527356633732"><ele>266.0</ele><time>2026-03-28T16:36:17Z</time></trkpt><trkpt lat="46.16269258741297" lon="9.722113271517456"><ele>266.0</ele><time>2026-03-28T16:36:18Z</time></trkpt><trkpt lat="46.162707891843866" lon="9.721696743734656"><ele>266.0</ele><time>2026-03-28T16:36:19Z</time></trkpt><trkpt lat="46.162723025000105" lon="9.72128487741719"><ele>266.0</ele><time>2026-03-28T16:36:20Z</time></trkpt><trkpt lat="46.16273820823807" lon="9.720871648010442"><ele>266.0</ele><time>2026-03-28T16:36:21Z</time></trkpt><trkpt lat="46.16275360469497" lon="9.720452615597848"><ele>267.0</ele><time>2026-03-28T16:36:22Z</time></trkpt><trkpt lat="46.162768973549774" lon="9.720034334445048"><ele>268.0</ele><time>2026-03-28T16:36:23Z</time></trkpt><trkpt lat="46.162784373836594" lon="9.719615197825188"><ele>268.0</ele><time>2026-03-28T16:36:24Z</time></trkpt><trkpt lat="46.16276830708633" lon="9.719184236159704"><ele>268.0</ele><time>2026-03-28T16:36:25Z</time></trkpt><trkpt lat="46.16278273051191" lon="9.718726809847754"><ele>266.5</ele><time>2026-03-28T16:36:26Z</time></trkpt><trkpt lat="46.16279754577173" lon="9.718260744907193"><ele>265.0</ele><time>2026-03-28T16:36:27Z</time></trkpt><trkpt lat="46.16281996535837" lon="9.717797588602524"><ele>265.5</ele><time>2026-03-28T16:36:28Z</time></trkpt><trkpt lat="46.162845934148216" lon="9.717351192428954"><ele>266.0</ele><time>2026-03-28T16:36:29Z</time></trkpt><trkpt lat="46.16286748330177" lon="9.716919370980975"><ele>266.0</ele><time>2026-03-28T16:36:30Z</time></trkpt><trkpt lat="46.16288301588507" lon="9.716488482068266"><ele>266.0</ele><time>2026-03-28T16:36:31Z</time></trkpt><trkpt lat="46.16289944867916" lon="9.716072218812283"><ele>265.5</ele><time>2026-03-28T16:36:32Z</time></trkpt><trkpt lat="46.16291661236832" lon="9.715674000152394"><ele>265.0</ele><time>2026-03-28T16:36:33Z</time></trkpt><trkpt lat="46.16293203424589" lon="9.715284791607585"><ele>264.5</ele><time>2026-03-28T16:36:34Z</time></trkpt><trkpt lat="46.16294589182498" lon="9.714892338130939"><ele>264.0</ele><time>2026-03-28T16:36:35Z</time></trkpt><trkpt lat="46.16295691130245" lon="9.714504295028604"><ele>264.0</ele><time>2026-03-28T16:36:36Z</time></trkpt><trkpt lat="46.16296790459203" lon="9.71411318634736"><ele>264.0</ele><time>2026-03-28T16:36:37Z</time></trkpt><trkpt lat="46.162998027482374" lon="9.713723251470824"><ele>265.0</ele><time>2026-03-28T16:36:38Z</time></trkpt><trkpt lat="46.163012517454575" lon="9.713331632284854"><ele>266.0</ele><time>2026-03-28T16:36:39Z</time></trkpt><trkpt lat="46.16302691752288" lon="9.712942442913777"><ele>265.5</ele><time>2026-03-28T16:36:40Z</time></trkpt><trkpt lat="46.163025059389696" lon="9.71255776392405"><ele>265.0</ele><time>2026-03-28T16:36:41Z</time></trkpt><trkpt lat="46.163042759817834" lon="9.712175085667297"><ele>265.5</ele><time>2026-03-28T16:36:42Z</time></trkpt><trkpt lat="46.1630566913276" lon="9.711798086333944"><ele>266.0</ele><time>2026-03-28T16:36:43Z</time></trkpt><trkpt lat="46.16306822742039" lon="9.711423100628744"><ele>266.0</ele><time>2026-03-28T16:36:44Z</time></trkpt><trkpt lat="46.16309705704504" lon="9.711050455937755"><ele>266.0</ele><time>2026-03-28T16:36:45Z</time></trkpt><trkpt lat="46.16309579428437" lon="9.710666396831423"><ele>266.0</ele><time>2026-03-28T16:36:46Z</time></trkpt><trkpt lat="46.16310896737672" lon="9.71028484299402"><ele>266.0</ele><time>2026-03-28T16:36:47Z</time></trkpt><trkpt lat="46.16314052597695" lon="9.709874043450775"><ele>266.0</ele><time>2026-03-28T16:36:48Z</time></trkpt><trkpt lat="46.16315688767312" lon="9.709431242162815"><ele>266.0</ele><time>2026-03-28T16:36:49Z</time></trkpt><trkpt lat="46.163173224710725" lon="9.708987982392943"><ele>266.0</ele><time>2026-03-28T16:36:50Z</time></trkpt><trkpt lat="46.16318910033854" lon="9.708557103544235"><ele>266.0</ele><time>2026-03-28T16:36:51Z</time></trkpt><trkpt lat="46.16320461826732" lon="9.70813593297908"><ele>266.5</ele><time>2026-03-28T16:36:52Z</time></trkpt><trkpt lat="46.1632200783233" lon="9.707717778677186"><ele>267.0</ele><time>2026-03-28T16:36:53Z</time></trkpt><trkpt lat="46.163235244089506" lon="9.70731159776305"><ele>267.0</ele><time>2026-03-28T16:36:54Z</time></trkpt><trkpt lat="46.16323887351496" lon="9.706915654206606"><ele>267.0</ele><time>2026-03-28T16:36:55Z</time></trkpt><trkpt lat="46.163263897061825" lon="9.706546937232217"><ele>266.5</ele><time>2026-03-28T16:36:56Z</time></trkpt><trkpt lat="46.16327653273576" lon="9.706209729502225"><ele>266.0</ele><time>2026-03-28T16:36:57Z</time></trkpt><trkpt lat="46.16328842727941" lon="9.705883389609268"><ele>265.6666666666667</ele><time>2026-03-28T16:36:58Z</time></trkpt><trkpt lat="46.163287669609524" lon="9.705563246162711"><ele>265.3333333333333</ele><time>2026-03-28T16:36:59Z</time></trkpt><trkpt lat="46.163297468194585" lon="9.70525690672768"><ele>265.0</ele><time>2026-03-28T16:37:00Z</time></trkpt><trkpt lat="46.163322525995795" lon="9.70494280836216"><ele>265.0</ele><time>2026-03-28T16:37:01Z</time></trkpt><trkpt lat="46.163334232661946" lon="9.704623967607013"><ele>265.0</ele><time>2026-03-28T16:37:02Z</time></trkpt><trkpt lat="46.16334623225214" lon="9.704297148833572"><ele>265.0</ele><time>2026-03-28T16:37:03Z</time></trkpt><trkpt lat="46.16335879490478" lon="9.703954994598913"><ele>265.0</ele><time>2026-03-28T16:37:04Z</time></trkpt><trkpt lat="46.16337148110344" lon="9.703609475432224"><ele>265.0</ele><time>2026-03-28T16:37:05.001Z</time></trkpt><trkpt lat="46.16338452876102" lon="9.70325411171135"><ele>264.5</ele><time>2026-03-28T16:37:06.001Z</time></trkpt><trkpt lat="46.163397282656135" lon="9.702892807679511"><ele>264.0</ele><time>2026-03-28T16:37:07.001Z</time></trkpt><trkpt lat="46.16340982434787" lon="9.702530064054189"><ele>265.0</ele><time>2026-03-28T16:37:08.001Z</time></trkpt><trkpt lat="46.16342266871722" lon="9.702167658397489"><ele>266.0</ele><time>2026-03-28T16:37:09.001Z</time></trkpt><trkpt lat="46.16343454736961" lon="9.701832501230298"><ele>266.0</ele><time>2026-03-28T16:37:10.001Z</time></trkpt><trkpt lat="46.16343168853439" lon="9.701517695118484"><ele>266.0</ele><time>2026-03-28T16:37:11.001Z</time></trkpt><trkpt lat="46.16344134539679" lon="9.701211829815124"><ele>266.0</ele><time>2026-03-28T16:37:12.001Z</time></trkpt><trkpt lat="46.163449458075775" lon="9.700878864661258"><ele>266.0</ele><time>2026-03-28T16:37:13.001Z</time></trkpt><trkpt lat="46.16346163819974" lon="9.700528841036926"><ele>266.0</ele><time>2026-03-28T16:37:14.001Z</time></trkpt><trkpt lat="46.16347755324075" lon="9.700159779143807"><ele>266.0</ele><time>2026-03-28T16:37:15.001Z</time></trkpt><trkpt lat="46.16349642494778" lon="9.699789992450478"><ele>266.0</ele><time>2026-03-28T16:37:16.001Z</time></trkpt><trkpt lat="46.163512039427175" lon="9.699445020229982"><ele>266.0</ele><time>2026-03-28T16:37:17.001Z</time></trkpt><trkpt lat="46.16352324626094" lon="9.699110473553784"><ele>266.0</ele><time>2026-03-28T16:37:18.001Z</time></trkpt><trkpt lat="46.163535854590855" lon="9.69878917993093"><ele>266.0</ele><time>2026-03-28T16:37:19.001Z</time></trkpt><trkpt lat="46.163548097458566" lon="9.69847123738438"><ele>266.0</ele><time>2026-03-28T16:37:20.001Z</time></trkpt><trkpt lat="46.163557265271734" lon="9.698164294360504"><ele>266.0</ele><time>2026-03-28T16:37:21.001Z</time></trkpt><trkpt lat="46.163561816264114" lon="9.697874464293937"><ele>266.0</ele><time>2026-03-28T16:37:22.001Z</time></trkpt><trkpt lat="46.16356962740456" lon="9.697584274118462"><ele>266.0</ele><time>2026-03-28T16:37:23.001Z</time></trkpt><trkpt lat="46.16357807977791" lon="9.697284937099548"><ele>266.0</ele><time>2026-03-28T16:37:24.001Z</time></trkpt><trkpt lat="46.16358219147229" lon="9.696982789256488"><ele>266.0</ele><time>2026-03-28T16:37:25.001Z</time></trkpt><trkpt lat="46.16359493046974" lon="9.696670072683842"><ele>266.0</ele><time>2026-03-28T16:37:26.001Z</time></trkpt><trkpt lat="46.16360574388137" lon="9.69635676106858"><ele>266.0</ele><time>2026-03-28T16:37:27.001Z</time></trkpt><trkpt lat="46.16361534001021" lon="9.696044025159761"><ele>266.0</ele><time>2026-03-28T16:37:28.001Z</time></trkpt><trkpt lat="46.16362710636978" lon="9.695726229923284"><ele>266.0</ele><time>2026-03-28T16:37:29.001Z</time></trkpt><trkpt lat="46.16363962538522" lon="9.69541524154204"><ele>266.0</ele><time>2026-03-28T16:37:30.001Z</time></trkpt><trkpt lat="46.16364831951734" lon="9.69512117110947"><ele>266.0</ele><time>2026-03-28T16:37:31.001Z</time></trkpt><trkpt lat="46.16365623099989" lon="9.694832412652781"><ele>266.0</ele><time>2026-03-28T16:37:32.001Z</time></trkpt><trkpt lat="46.16366575788857" lon="9.694541898502825"><ele>266.0</ele><time>2026-03-28T16:37:33.001Z</time></trkpt><trkpt lat="46.16367626758299" lon="9.694270668964402"><ele>265.6666666666667</ele><time>2026-03-28T16:37:34.001Z</time></trkpt><trkpt lat="46.1636855362027" lon="9.694006343791335"><ele>265.3333333333333</ele><time>2026-03-28T16:37:35.001Z</time></trkpt><trkpt lat="46.16369557609867" lon="9.693747909961983"><ele>265.0</ele><time>2026-03-28T16:37:36.001Z</time></trkpt><trkpt lat="46.163700311395395" lon="9.693490622733599"><ele>265.0</ele><time>2026-03-28T16:37:37.001Z</time></trkpt><trkpt lat="46.16371252391537" lon="9.693213380346087"><ele>265.0</ele><time>2026-03-28T16:37:38.001Z</time></trkpt><trkpt lat="46.16373433688769" lon="9.692943691978181"><ele>265.0</ele><time>2026-03-28T16:37:39.001Z</time></trkpt><trkpt lat="46.16378536575584" lon="9.692666169492389"><ele>265.0</ele><time>2026-03-28T16:37:40.001Z</time></trkpt><trkpt lat="46.163860825999926" lon="9.692397716274494"><ele>265.0</ele><time>2026-03-28T16:37:41.001Z</time></trkpt><trkpt lat="46.16395624294216" lon="9.6920924962659"><ele>265.0</ele><time>2026-03-28T16:37:42.001Z</time></trkpt><trkpt lat="46.16407830360094" lon="9.691778069589077"><ele>265.0</ele><time>2026-03-28T16:37:43.001Z</time></trkpt><trkpt lat="46.16422229622855" lon="9.69148009704908"><ele>265.0</ele><time>2026-03-28T16:37:44.001Z</time></trkpt><trkpt lat="46.16438255125804" lon="9.6911870443258"><ele>265.0</ele><time>2026-03-28T16:37:45.001Z</time></trkpt><trkpt lat="46.16456035516932" lon="9.690895699316199"><ele>265.0</ele><time>2026-03-28T16:37:46.001Z</time></trkpt><trkpt lat="46.16476315921182" lon="9.690628176882027"><ele>265.0</ele><time>2026-03-28T16:37:47.001Z</time></trkpt><trkpt lat="46.16498315219852" lon="9.690382237938822"><ele>265.0</ele><time>2026-03-28T16:37:48.001Z</time></trkpt><trkpt lat="46.163846634488365" lon="9.689894089492338"><ele>265.0</ele><time>2026-03-28T16:37:49.001Z</time></trkpt><trkpt lat="46.16385890533326" lon="9.689638866344653"><ele>265.0</ele><time>2026-03-28T16:37:50.001Z</time></trkpt><trkpt lat="46.16386797298652" lon="9.689379403321075"><ele>265.0</ele><time>2026-03-28T16:37:51.001Z</time></trkpt><trkpt lat="46.16387909639607" lon="9.689132225829443"><ele>265.0</ele><time>2026-03-28T16:37:52Z</time></trkpt><trkpt lat="46.16388269807827" lon="9.688895607354187"><ele>265.0</ele><time>2026-03-28T16:37:53Z</time></trkpt><trkpt lat="46.163886372768225" lon="9.688674382986838"><ele>265.0</ele><time>2026-03-28T16:37:54Z</time></trkpt><trkpt lat="46.16389302999636" lon="9.688467789962344"><ele>265.0</ele><time>2026-03-28T16:37:55Z</time></trkpt><trkpt lat="46.163900833849254" lon="9.688280908211949"><ele>265.0</ele><time>2026-03-28T16:37:56Z</time></trkpt><trkpt lat="46.163910438562944" lon="9.688069566951436"><ele>265.0</ele><time>2026-03-28T16:37:57Z</time></trkpt><trkpt lat="46.16392594248481" lon="9.687814673664716"><ele>264.66666666666663</ele><time>2026-03-28T16:37:58Z</time></trkpt><trkpt lat="46.16394106766936" lon="9.687529497797398"><ele>264.3333333333333</ele><time>2026-03-28T16:37:59Z</time></trkpt><trkpt lat="46.16395366445789" lon="9.687236172531053"><ele>264.0</ele><time>2026-03-28T16:38:00Z</time></trkpt><trkpt lat="46.163963900634826" lon="9.686928342292008"><ele>264.0</ele><time>2026-03-28T16:38:01Z</time></trkpt><trkpt lat="46.16397258528521" lon="9.686606173269023"><ele>264.0</ele><time>2026-03-28T16:38:02Z</time></trkpt><trkpt lat="46.16398410536517" lon="9.686263744460573"><ele>265.0</ele><time>2026-03-28T16:38:03Z</time></trkpt><trkpt lat="46.163995088054456" lon="9.685914814968148"><ele>266.0</ele><time>2026-03-28T16:38:04Z</time></trkpt><trkpt lat="46.164003354736096" lon="9.685564874942635"><ele>266.0</ele><time>2026-03-28T16:38:05Z</time></trkpt><trkpt lat="46.164007146837726" lon="9.685238340543654"><ele>266.0</ele><time>2026-03-28T16:38:06Z</time></trkpt><trkpt lat="46.16401149152948" lon="9.684928550420368"><ele>266.0</ele><time>2026-03-28T16:38:07Z</time></trkpt><trkpt lat="46.16402105980982" lon="9.684651369439148"><ele>265.75</ele><time>2026-03-28T16:38:08Z</time></trkpt><trkpt lat="46.164028044689395" lon="9.684411677115374"><ele>265.5</ele><time>2026-03-28T16:38:09Z</time></trkpt><trkpt lat="46.164035821552446" lon="9.684204948856372"><ele>265.25</ele><time>2026-03-28T16:38:10Z</time></trkpt><trkpt lat="46.16404537713197" lon="9.684011252630093"><ele>265.0</ele><time>2026-03-28T16:38:11Z</time></trkpt><trkpt lat="46.164054686042775" lon="9.683795145839657"><ele>265.0</ele><time>2026-03-28T16:38:12Z</time></trkpt><trkpt lat="46.16405564525949" lon="9.683544763236732"><ele>265.0</ele><time>2026-03-28T16:38:13Z</time></trkpt><trkpt lat="46.16406391717761" lon="9.683259624328759"><ele>265.0</ele><time>2026-03-28T16:38:14Z</time></trkpt><trkpt lat="46.16408047184325" lon="9.682962829202618"><ele>265.0</ele><time>2026-03-28T16:38:15Z</time></trkpt><trkpt lat="46.164099949118594" lon="9.682662467082976"><ele>265.0</ele><time>2026-03-28T16:38:16Z</time></trkpt><trkpt lat="46.16411220314632" lon="9.68235207402482"><ele>265.0</ele><time>2026-03-28T16:38:17Z</time></trkpt><trkpt lat="46.16411941466688" lon="9.682015665314543"><ele>264.5</ele><time>2026-03-28T16:38:18Z</time></trkpt><trkpt lat="46.164137664563384" lon="9.681664719461729"><ele>264.0</ele><time>2026-03-28T16:38:19Z</time></trkpt><trkpt lat="46.16415892071183" lon="9.681305471070447"><ele>263.5</ele><time>2026-03-28T16:38:20Z</time></trkpt><trkpt lat="46.164171209558944" lon="9.680960430516572"><ele>263.0</ele><time>2026-03-28T16:38:21Z</time></trkpt><trkpt lat="46.16418552155398" lon="9.68064089172002"><ele>263.0</ele><time>2026-03-28T16:38:22Z</time></trkpt><trkpt lat="46.164194567337056" lon="9.680362063313456"><ele>263.0</ele><time>2026-03-28T16:38:23Z</time></trkpt><trkpt lat="46.16420110920879" lon="9.680108089138708"><ele>263.0</ele><time>2026-03-28T16:38:24Z</time></trkpt><trkpt lat="46.164209552140804" lon="9.679862929854153"><ele>263.0</ele><time>2026-03-28T16:38:25Z</time></trkpt><trkpt lat="46.16421500871727" lon="9.679642955300288"><ele>263.0</ele><time>2026-03-28T16:38:26Z</time></trkpt><trkpt lat="46.16422483628847" lon="9.679433897320743"><ele>263.0</ele><time>2026-03-28T16:38:27Z</time></trkpt><trkpt lat="46.16422890683992" lon="9.679237041476751"><ele>263.0</ele><time>2026-03-28T16:38:28Z</time></trkpt><trkpt lat="46.164235679666014" lon="9.67902558792544"><ele>263.33333333333337</ele><time>2026-03-28T16:38:29Z</time></trkpt><trkpt lat="46.16425924518584" lon="9.678747137076"><ele>263.6666666666667</ele><time>2026-03-28T16:38:30Z</time></trkpt><trkpt lat="46.1642607268391" lon="9.678520587988917"><ele>264.0</ele><time>2026-03-28T16:38:31Z</time></trkpt><trkpt lat="46.16427041612704" lon="9.678288017502604"><ele>264.0</ele><time>2026-03-28T16:38:32Z</time></trkpt><trkpt lat="46.164280378395794" lon="9.678075015367545"><ele>264.0</ele><time>2026-03-28T16:38:33Z</time></trkpt><trkpt lat="46.16428701668789" lon="9.677853416768997"><ele>264.0</ele><time>2026-03-28T16:38:34Z</time></trkpt><trkpt lat="46.16429542652945" lon="9.67762014778461"><ele>263.3333333333333</ele><time>2026-03-28T16:38:35Z</time></trkpt><trkpt lat="46.1643023180316" lon="9.677381911549327"><ele>262.66666666666663</ele><time>2026-03-28T16:38:36Z</time></trkpt><trkpt lat="46.164312336854664" lon="9.677141982438071"><ele>262.0</ele><time>2026-03-28T16:38:37Z</time></trkpt><trkpt lat="46.1643232331195" lon="9.676893959448119"><ele>262.0</ele><time>2026-03-28T16:38:38Z</time></trkpt><trkpt lat="46.16433727038089" lon="9.676663869946601"><ele>262.0</ele><time>2026-03-28T16:38:39Z</time></trkpt><trkpt lat="46.16435567924166" lon="9.676456236411688"><ele>262.0</ele><time>2026-03-28T16:38:40Z</time></trkpt><trkpt lat="46.164371261239026" lon="9.676279184920865"><ele>262.0</ele><time>2026-03-28T16:38:41Z</time></trkpt><trkpt lat="46.16438501899212" lon="9.676129297859916"><ele>262.16666666666663</ele><time>2026-03-28T16:38:42Z</time></trkpt><trkpt lat="46.16439572435126" lon="9.676001724893414"><ele>262.3333333333333</ele><time>2026-03-28T16:38:43.001Z</time></trkpt><trkpt lat="46.16440813696337" lon="9.675880063555251"><ele>262.5</ele><time>2026-03-28T16:38:44.001Z</time></trkpt><trkpt lat="46.164426160678914" lon="9.675768020555209"><ele>262.6666666666667</ele><time>2026-03-28T16:38:45.001Z</time></trkpt><trkpt lat="46.164453021478494" lon="9.675677126272062"><ele>262.83333333333337</ele><time>2026-03-28T16:38:46.001Z</time></trkpt><trkpt lat="46.164550724737936" lon="9.675564132760991"><ele>263.0</ele><time>2026-03-28T16:38:48.001Z</time></trkpt><trkpt lat="46.16466905709271" lon="9.675541418804686"><ele>263.0</ele><time>2026-03-28T16:38:50.001Z</time></trkpt><trkpt lat="46.164773901859114" lon="9.67553774817328"><ele>263.0</ele><time>2026-03-28T16:38:52.001Z</time></trkpt><trkpt lat="46.164844998997474" lon="9.67556141266132"><ele>263.0</ele><time>2026-03-28T16:38:56.001Z</time></trkpt><trkpt lat="46.16483692648018" lon="9.675787502526251"><ele>263.0</ele><time>2026-03-28T16:38:57.001Z</time></trkpt><trkpt lat="46.16483014975831" lon="9.675898343489719"><ele>263.0</ele><time>2026-03-28T16:38:59.001Z</time></trkpt><trkpt lat="46.164830113392085" lon="9.6760357645739"><ele>262.83333333333337</ele><time>2026-03-28T16:39:01.001Z</time></trkpt><trkpt lat="46.16483171055385" lon="9.676179143342539"><ele>262.6666666666667</ele><time>2026-03-28T16:39:03.001Z</time></trkpt><trkpt lat="46.16481859289965" lon="9.676300933203635"><ele>262.5</ele><time>2026-03-28T16:39:05.001Z</time></trkpt><trkpt lat="46.16480653659985" lon="9.676392852095375"><ele>262.3333333333333</ele><time>2026-03-28T16:39:08.001Z</time></trkpt><trkpt lat="46.164740887411625" lon="9.67640138393058"><ele>262.16666666666663</ele><time>2026-03-28T16:55:14Z</time></trkpt><trkpt lat="46.164706395411855" lon="9.676261166211205"><ele>262.0</ele><time>2026-03-28T16:55:19Z</time></trkpt><trkpt lat="46.16471056599763" lon="9.676144238058182"><ele>262.16666666666663</ele><time>2026-03-28T16:55:21Z</time></trkpt><trkpt lat="46.16471349391567" lon="9.676030636370127"><ele>262.3333333333333</ele><time>2026-03-28T16:55:23Z</time></trkpt><trkpt lat="46.16474708537132" lon="9.675951390056813"><ele>262.5</ele><time>2026-03-28T16:55:25Z</time></trkpt><trkpt lat="46.164817901456836" lon="9.675910341352289"><ele>262.6666666666667</ele><time>2026-03-28T16:55:27Z</time></trkpt><trkpt lat="46.164859551913615" lon="9.675798961234534"><ele>262.83333333333337</ele><time>2026-03-28T16:55:29Z</time></trkpt><trkpt lat="46.16485487828813" lon="9.675701763533418"><ele>263.0</ele><time>2026-03-28T16:55:31Z</time></trkpt><trkpt lat="46.1648378012007" lon="9.675587654113166"><ele>263.0</ele><time>2026-03-28T16:55:34Z</time></trkpt><trkpt lat="46.16475640861804" lon="9.675490975468142"><ele>263.0</ele><time>2026-03-28T16:55:37Z</time></trkpt><trkpt lat="46.16469267735269" lon="9.675479121749516"><ele>263.0</ele><time>2026-03-28T16:55:38Z</time></trkpt><trkpt lat="46.16462885360448" lon="9.675469750687208"><ele>263.0</ele><time>2026-03-28T16:55:39Z</time></trkpt><trkpt lat="46.16450728693898" lon="9.675458644679617"><ele>263.0</ele><time>2026-03-28T16:55:40.999Z</time></trkpt><trkpt lat="46.16442317131704" lon="9.6753108916561"><ele>262.75</ele><time>2026-03-28T16:55:42.999Z</time></trkpt><trkpt lat="46.164396269387474" lon="9.675107646102022"><ele>262.5</ele><time>2026-03-28T16:55:44.999Z</time></trkpt><trkpt lat="46.164405379232385" lon="9.674959728278411"><ele>262.25</ele><time>2026-03-28T16:55:45.999Z</time></trkpt><trkpt lat="46.16441184756287" lon="9.674810944425145"><ele>262.0</ele><time>2026-03-28T16:55:46.999Z</time></trkpt><trkpt lat="46.16441504008033" lon="9.674644298289127"><ele>262.0</ele><time>2026-03-28T16:55:47.999Z</time></trkpt><trkpt lat="46.16441236553375" lon="9.674459200787357"><ele>262.0</ele><time>2026-03-28T16:55:48.999Z</time></trkpt><trkpt lat="46.164414257699995" lon="9.674273406632011"><ele>262.0</ele><time>2026-03-28T16:55:49.999Z</time></trkpt><trkpt lat="46.164422403437" lon="9.674089099957845"><ele>262.0</ele><time>2026-03-28T16:55:50.999Z</time></trkpt><trkpt lat="46.16442809517171" lon="9.673887017657194"><ele>262.25</ele><time>2026-03-28T16:55:51.999Z</time></trkpt><trkpt lat="46.16443197593906" lon="9.673678257141457"><ele>262.5</ele><time>2026-03-28T16:55:52.999Z</time></trkpt><trkpt lat="46.16442962928657" lon="9.673471022256466"><ele>262.75</ele><time>2026-03-28T16:55:53.999Z</time></trkpt><trkpt lat="46.16443729639721" lon="9.673254003013026"><ele>263.0</ele><time>2026-03-28T16:55:54.999Z</time></trkpt><trkpt lat="46.16444624422181" lon="9.67302869740597"><ele>263.0</ele><time>2026-03-28T16:55:55.999Z</time></trkpt><trkpt lat="46.164459513733576" lon="9.672787278419818"><ele>263.0</ele><time>2026-03-28T16:55:56.999Z</time></trkpt><trkpt lat="46.16446821375543" lon="9.672552545138467"><ele>263.0</ele><time>2026-03-28T16:55:57.999Z</time></trkpt><trkpt lat="46.164467095493386" lon="9.67233705013734"><ele>263.0</ele><time>2026-03-28T16:55:58.999Z</time></trkpt><trkpt lat="46.16447757896189" lon="9.672096739403214"><ele>263.0</ele><time>2026-03-28T16:55:59.999Z</time></trkpt><trkpt lat="46.16448533239525" lon="9.671848771250476"><ele>263.0</ele><time>2026-03-28T16:56:00.999Z</time></trkpt><trkpt lat="46.16449398235888" lon="9.671596987601369"><ele>263.0</ele><time>2026-03-28T16:56:01.999Z</time></trkpt><trkpt lat="46.1644998037865" lon="9.67135080694063"><ele>263.0</ele><time>2026-03-28T16:56:02.999Z</time></trkpt><trkpt lat="46.16450996008005" lon="9.671095830659029"><ele>263.0</ele><time>2026-03-28T16:56:03.999Z</time></trkpt><trkpt lat="46.16451957853983" lon="9.670842544601571"><ele>263.0</ele><time>2026-03-28T16:56:04.999Z</time></trkpt><trkpt lat="46.164530522564355" lon="9.670592473353448"><ele>263.0</ele><time>2026-03-28T16:56:05.999Z</time></trkpt><trkpt lat="46.164541230927185" lon="9.670341657869002"><ele>263.0</ele><time>2026-03-28T16:56:06.999Z</time></trkpt><trkpt lat="46.16454623767115" lon="9.670091626473836"><ele>263.0</ele><time>2026-03-28T16:56:07.999Z</time></trkpt><trkpt lat="46.16455498919475" lon="9.669844080005648"><ele>263.0</ele><time>2026-03-28T16:56:08.999Z</time></trkpt><trkpt lat="46.16456427265352" lon="9.669593791960773"><ele>263.0</ele><time>2026-03-28T16:56:09.999Z</time></trkpt><trkpt lat="46.16457300595407" lon="9.66933359832054"><ele>263.0</ele><time>2026-03-28T16:56:10.999Z</time></trkpt><trkpt lat="46.16458260993954" lon="9.669084442558809"><ele>263.0</ele><time>2026-03-28T16:56:11.999Z</time></trkpt><trkpt lat="46.164591756675314" lon="9.668829510934364"><ele>263.0</ele><time>2026-03-28T16:56:12.999Z</time></trkpt><trkpt lat="46.16460204943114" lon="9.66856805878872"><ele>263.33333333333337</ele><time>2026-03-28T16:56:13.999Z</time></trkpt><trkpt lat="46.164611651540426" lon="9.668303635231906"><ele>263.6666666666667</ele><time>2026-03-28T16:56:14.999Z</time></trkpt><trkpt lat="46.16462292457217" lon="9.668038582098255"><ele>264.0</ele><time>2026-03-28T16:56:15.999Z</time></trkpt><trkpt lat="46.16463768569106" lon="9.667773789626473"><ele>264.0</ele><time>2026-03-28T16:56:16.999Z</time></trkpt><trkpt lat="46.164648824227875" lon="9.667502844892484"><ele>264.0</ele><time>2026-03-28T16:56:17.999Z</time></trkpt><trkpt lat="46.164662205801115" lon="9.667230487136138"><ele>264.0</ele><time>2026-03-28T16:56:18.999Z</time></trkpt><trkpt lat="46.1646748250648" lon="9.666955313087094"><ele>263.0</ele><time>2026-03-28T16:56:19.999Z</time></trkpt><trkpt lat="46.16468322131705" lon="9.66667578282123"><ele>262.0</ele><time>2026-03-28T16:56:20.999Z</time></trkpt><trkpt lat="46.16468893972163" lon="9.666391605030121"><ele>261.0</ele><time>2026-03-28T16:56:21.999Z</time></trkpt><trkpt lat="46.16469714363988" lon="9.666105874971905"><ele>261.0</ele><time>2026-03-28T16:56:22.999Z</time></trkpt><trkpt lat="46.16470581249663" lon="9.6658111186755"><ele>261.0</ele><time>2026-03-28T16:56:23.999Z</time></trkpt><trkpt lat="46.16471137383899" lon="9.665509094953634"><ele>261.0</ele><time>2026-03-28T16:56:24.999Z</time></trkpt><trkpt lat="46.16471819045566" lon="9.665210153500079"><ele>261.3333333333333</ele><time>2026-03-28T16:56:25.999Z</time></trkpt><trkpt lat="46.16472763285993" lon="9.664923273488315"><ele>261.66666666666663</ele><time>2026-03-28T16:56:26.999Z</time></trkpt><trkpt lat="46.1647371098304" lon="9.664625889081362"><ele>262.0</ele><time>2026-03-28T16:56:27.999Z</time></trkpt><trkpt lat="46.16475137373826" lon="9.664324579893366"><ele>262.0</ele><time>2026-03-28T16:56:28.999Z</time></trkpt><trkpt lat="46.16476540430901" lon="9.664017962270199"><ele>262.0</ele><time>2026-03-28T16:56:29.999Z</time></trkpt><trkpt lat="46.16477655720456" lon="9.663711577106655"><ele>262.0</ele><time>2026-03-28T16:56:30.999Z</time></trkpt><trkpt lat="46.16479708894424" lon="9.663397572062516"><ele>261.5</ele><time>2026-03-28T16:56:31.999Z</time></trkpt><trkpt lat="46.164810856749526" lon="9.663033063868756"><ele>261.0</ele><time>2026-03-28T16:56:32.999Z</time></trkpt><trkpt lat="46.16482405736825" lon="9.662664821727004"><ele>262.0</ele><time>2026-03-28T16:56:33.999Z</time></trkpt><trkpt lat="46.16483622088721" lon="9.662325510134009"><ele>263.0</ele><time>2026-03-28T16:56:34.999Z</time></trkpt><trkpt lat="46.1648448823779" lon="9.661994874404998"><ele>263.0</ele><time>2026-03-28T16:56:35.999Z</time></trkpt><trkpt lat="46.16483871520668" lon="9.661865159088325"><ele>263.0</ele><time>2026-03-28T16:56:36.999Z</time></trkpt><trkpt lat="46.16484366443437" lon="9.661575821524877"><ele>263.0</ele><time>2026-03-28T16:56:37.999Z</time></trkpt><trkpt lat="46.164833118659665" lon="9.66129045640932"><ele>262.6666666666667</ele><time>2026-03-28T16:56:38.999Z</time></trkpt><trkpt lat="46.16481049327086" lon="9.661007290977624"><ele>262.3333333333333</ele><time>2026-03-28T16:56:39.999Z</time></trkpt><trkpt lat="46.16478089571014" lon="9.66075401071936"><ele>262.0</ele><time>2026-03-28T16:56:40.999Z</time></trkpt><trkpt lat="46.16474341999002" lon="9.660492924004368"><ele>262.0</ele><time>2026-03-28T16:56:41.999Z</time></trkpt><trkpt lat="46.16470051550456" lon="9.660243710580197"><ele>262.0</ele><time>2026-03-28T16:56:42.999Z</time></trkpt><trkpt lat="46.164650025436465" lon="9.659991684098708"><ele>262.0</ele><time>2026-03-28T16:56:43.999Z</time></trkpt><trkpt lat="46.1645880650754" lon="9.65975425579961"><ele>262.0</ele><time>2026-03-28T16:56:44.999Z</time></trkpt><trkpt lat="46.16451969987448" lon="9.659517740646027"><ele>262.0</ele><time>2026-03-28T16:56:45.999Z</time></trkpt><trkpt lat="46.16444896309508" lon="9.659275646768897"><ele>262.0</ele><time>2026-03-28T16:56:46.999Z</time></trkpt><trkpt lat="46.16435690482726" lon="9.65902231873323"><ele>262.0</ele><time>2026-03-28T16:56:47.999Z</time></trkpt><trkpt lat="46.16428294991221" lon="9.658741439934005"><ele>262.0</ele><time>2026-03-28T16:56:48.999Z</time></trkpt><trkpt lat="46.16419450429117" lon="9.658449571516917"><ele>262.0</ele><time>2026-03-28T16:56:49.999Z</time></trkpt><trkpt lat="46.16410140418548" lon="9.658146049712819"><ele>262.0</ele><time>2026-03-28T16:56:50.999Z</time></trkpt><trkpt lat="46.16399715204898" lon="9.657836013653245"><ele>262.0</ele><time>2026-03-28T16:56:51.999Z</time></trkpt><trkpt lat="46.16390487433535" lon="9.657509706452254"><ele>262.0</ele><time>2026-03-28T16:56:52.999Z</time></trkpt><trkpt lat="46.16380329970046" lon="9.65718240749745"><ele>262.0</ele><time>2026-03-28T16:56:53.999Z</time></trkpt><trkpt lat="46.16370082905891" lon="9.656844189400385"><ele>263.0</ele><time>2026-03-28T16:56:54.999Z</time></trkpt><trkpt lat="46.163596470225315" lon="9.656502968987335"><ele>264.0</ele><time>2026-03-28T16:56:55.999Z</time></trkpt><trkpt lat="46.16348809040096" lon="9.656156218774314"><ele>264.0</ele><time>2026-03-28T16:56:56.999Z</time></trkpt><trkpt lat="46.163382562089055" lon="9.655804728594886"><ele>264.0</ele><time>2026-03-28T16:56:57.999Z</time></trkpt><trkpt lat="46.16327675544069" lon="9.65545254036211"><ele>262.5</ele><time>2026-03-28T16:56:58.999Z</time></trkpt><trkpt lat="46.16316507278622" lon="9.655091027029707"><ele>261.0</ele><time>2026-03-28T16:56:59.999Z</time></trkpt><trkpt lat="46.163056817700884" lon="9.654735066206298"><ele>261.5</ele><time>2026-03-28T16:57:00.999Z</time></trkpt><trkpt lat="46.16294996330528" lon="9.654384525752779"><ele>262.0</ele><time>2026-03-28T16:57:01.999Z</time></trkpt><trkpt lat="46.162849614982505" lon="9.654040593783238"><ele>262.0</ele><time>2026-03-28T16:57:02.999Z</time></trkpt><trkpt lat="46.16275452124828" lon="9.653725853999353"><ele>262.0</ele><time>2026-03-28T16:57:03.999Z</time></trkpt><trkpt lat="46.16266681797806" lon="9.653430991761056"><ele>262.3333333333333</ele><time>2026-03-28T16:57:04.999Z</time></trkpt><trkpt lat="46.162577825393626" lon="9.653140367016256"><ele>262.6666666666667</ele><time>2026-03-28T16:57:05.999Z</time></trkpt><trkpt lat="46.16249081076961" lon="9.652851522597631"><ele>263.0</ele><time>2026-03-28T16:57:06.999Z</time></trkpt><trkpt lat="46.162398809922834" lon="9.652553844767958"><ele>262.5</ele><time>2026-03-28T16:57:07.999Z</time></trkpt><trkpt lat="46.16230786463999" lon="9.652259593540181"><ele>262.0</ele><time>2026-03-28T16:57:08.999Z</time></trkpt><trkpt lat="46.16221563929316" lon="9.65196109295104"><ele>263.0</ele><time>2026-03-28T16:57:09.999Z</time></trkpt><trkpt lat="46.16212667683517" lon="9.651659217799857"><ele>264.0</ele><time>2026-03-28T16:57:10.999Z</time></trkpt><trkpt lat="46.162033098728884" lon="9.651352751371142"><ele>264.0</ele><time>2026-03-28T16:57:11.999Z</time></trkpt><trkpt lat="46.16193474255281" lon="9.651037035629063"><ele>264.0</ele><time>2026-03-28T16:57:12.999Z</time></trkpt><trkpt lat="46.16180703047851" lon="9.650690232902129"><ele>264.0</ele><time>2026-03-28T16:57:13.999Z</time></trkpt><trkpt lat="46.16167648805334" lon="9.65033119571635"><ele>264.0</ele><time>2026-03-28T16:57:14.999Z</time></trkpt><trkpt lat="46.16156482038722" lon="9.650044233266046"><ele>264.0</ele><time>2026-03-28T16:57:15.999Z</time></trkpt><trkpt lat="46.16141513791681" lon="9.649719328595326"><ele>264.0</ele><time>2026-03-28T16:57:16.999Z</time></trkpt><trkpt lat="46.16154306103485" lon="9.649590197827104"><ele>264.0</ele><time>2026-03-28T16:57:17.999Z</time></trkpt><trkpt lat="46.1614749886155" lon="9.649350596794791"><ele>263.6666666666667</ele><time>2026-03-28T16:57:18.999Z</time></trkpt><trkpt lat="46.16139832851735" lon="9.649125954179256"><ele>263.33333333333337</ele><time>2026-03-28T16:57:19.999Z</time></trkpt><trkpt lat="46.16131490319411" lon="9.648891086276066"><ele>263.0</ele><time>2026-03-28T16:57:20.999Z</time></trkpt><trkpt lat="46.16123557332428" lon="9.648662148958078"><ele>263.33333333333337</ele><time>2026-03-28T16:57:21.999Z</time></trkpt><trkpt lat="46.16116323757503" lon="9.648429674379605"><ele>263.6666666666667</ele><time>2026-03-28T16:57:22.999Z</time></trkpt><trkpt lat="46.16109407080428" lon="9.648201486804123"><ele>264.0</ele><time>2026-03-28T16:57:23.999Z</time></trkpt><trkpt lat="46.16102087073291" lon="9.647965709325584"><ele>264.6666666666667</ele><time>2026-03-28T16:57:24.999Z</time></trkpt><trkpt lat="46.16094278032546" lon="9.647714457497301"><ele>265.33333333333337</ele><time>2026-03-28T16:57:25.999Z</time></trkpt><trkpt lat="46.160863905835285" lon="9.647466503873481"><ele>266.0</ele><time>2026-03-28T16:57:26.999Z</time></trkpt><trkpt lat="46.16079157943922" lon="9.647218336569866"><ele>266.33333333333337</ele><time>2026-03-28T16:57:27.999Z</time></trkpt><trkpt lat="46.16071419686606" lon="9.646959992112457"><ele>266.6666666666667</ele><time>2026-03-28T16:57:28.999Z</time></trkpt><trkpt lat="46.16063280103738" lon="9.646698615990017"><ele>267.0</ele><time>2026-03-28T16:57:29.999Z</time></trkpt><trkpt lat="46.16055277771007" lon="9.646433715848456"><ele>266.3333333333333</ele><time>2026-03-28T16:57:30.999Z</time></trkpt><trkpt lat="46.16047665183342" lon="9.64617646317415"><ele>265.66666666666663</ele><time>2026-03-28T16:57:31.999Z</time></trkpt><trkpt lat="46.16040686741208" lon="9.645925592792343"><ele>265.0</ele><time>2026-03-28T16:57:32.999Z</time></trkpt><trkpt lat="46.160331825425295" lon="9.645679709556466"><ele>265.0</ele><time>2026-03-28T16:57:33.999Z</time></trkpt><trkpt lat="46.16025606017324" lon="9.645432623577763"><ele>265.0</ele><time>2026-03-28T16:57:34.999Z</time></trkpt><trkpt lat="46.1601890418171" lon="9.645196610812283"><ele>265.0</ele><time>2026-03-28T16:57:35.999Z</time></trkpt><trkpt lat="46.16012029318484" lon="9.64497616616484"><ele>266.0</ele><time>2026-03-28T16:57:36.999Z</time></trkpt><trkpt lat="46.16005477627674" lon="9.644761423110506"><ele>267.0</ele><time>2026-03-28T16:57:37.999Z</time></trkpt><trkpt lat="46.15999407375622" lon="9.64454196490785"><ele>268.0</ele><time>2026-03-28T16:57:38.999Z</time></trkpt><trkpt lat="46.15990860185583" lon="9.644317599664895"><ele>268.0</ele><time>2026-03-28T16:57:39.999Z</time></trkpt><trkpt lat="46.15983530968338" lon="9.644079875677722"><ele>268.0</ele><time>2026-03-28T16:57:40.999Z</time></trkpt><trkpt lat="46.15976311669394" lon="9.643829100750061"><ele>268.0</ele><time>2026-03-28T16:57:41.999Z</time></trkpt><trkpt lat="46.159685687670134" lon="9.643570180383074"><ele>268.0</ele><time>2026-03-28T16:57:42.999Z</time></trkpt><trkpt lat="46.15960776843623" lon="9.643309135117722"><ele>268.0</ele><time>2026-03-28T16:57:43.999Z</time></trkpt><trkpt lat="46.15952903293328" lon="9.643040194768828"><ele>268.0</ele><time>2026-03-28T16:57:44.999Z</time></trkpt><trkpt lat="46.15945043661621" lon="9.64276680454054"><ele>268.66666666666663</ele><time>2026-03-28T16:57:45.999Z</time></trkpt><trkpt lat="46.15937672711179" lon="9.642484338577987"><ele>269.3333333333333</ele><time>2026-03-28T16:57:46.999Z</time></trkpt><trkpt lat="46.159307426267645" lon="9.642207850341888"><ele>270.0</ele><time>2026-03-28T16:57:47.999Z</time></trkpt><trkpt lat="46.15923956241896" lon="9.641939112350483"><ele>270.0</ele><time>2026-03-28T16:57:48.999Z</time></trkpt><trkpt lat="46.159167220450755" lon="9.641687948549853"><ele>270.0</ele><time>2026-03-28T16:57:49.999Z</time></trkpt><trkpt lat="46.15910097296686" lon="9.641450457207224"><ele>270.0</ele><time>2026-03-28T16:57:50.999Z</time></trkpt><trkpt lat="46.1590549707651" lon="9.641220718297918"><ele>270.0</ele><time>2026-03-28T16:57:51.999Z</time></trkpt><trkpt lat="46.15903606187412" lon="9.640984787925689"><ele>270.0</ele><time>2026-03-28T16:57:52.999Z</time></trkpt><trkpt lat="46.15904171345765" lon="9.640750432913745"><ele>270.0</ele><time>2026-03-28T16:57:53.999Z</time></trkpt><trkpt lat="46.159068262907006" lon="9.640521563262903"><ele>270.0</ele><time>2026-03-28T16:57:54.999Z</time></trkpt><trkpt lat="46.15909328589604" lon="9.640308271329166"><ele>270.0</ele><time>2026-03-28T16:57:55.999Z</time></trkpt><trkpt lat="46.15911499446758" lon="9.640100404481924"><ele>270.0</ele><time>2026-03-28T16:57:56.999Z</time></trkpt><trkpt lat="46.159139663560715" lon="9.639900949455734"><ele>270.0</ele><time>2026-03-28T16:57:57.999Z</time></trkpt><trkpt lat="46.15915900089951" lon="9.639706110218826"><ele>270.0</ele><time>2026-03-28T16:57:58.999Z</time></trkpt><trkpt lat="46.15918057224355" lon="9.639519830275553"><ele>270.0</ele><time>2026-03-28T16:57:59.999Z</time></trkpt><trkpt lat="46.15919793233639" lon="9.639349541339174"><ele>270.0</ele><time>2026-03-28T16:58:00.999Z</time></trkpt><trkpt lat="46.1592170655287" lon="9.639198804881538"><ele>270.0</ele><time>2026-03-28T16:58:01.999Z</time></trkpt><trkpt lat="46.15922245443206" lon="9.63905147840052"><ele>270.25</ele><time>2026-03-28T16:58:02.999Z</time></trkpt><trkpt lat="46.159209547377586" lon="9.638912179814861"><ele>270.5</ele><time>2026-03-28T16:58:03.999Z</time></trkpt><trkpt lat="46.15919242924952" lon="9.63876132490576"><ele>270.75</ele><time>2026-03-28T16:58:04.999Z</time></trkpt><trkpt lat="46.15915583170957" lon="9.638606877493595"><ele>271.0</ele><time>2026-03-28T16:58:05.999Z</time></trkpt><trkpt lat="46.15908901860362" lon="9.638440176714942"><ele>270.5</ele><time>2026-03-28T16:58:06.999Z</time></trkpt><trkpt lat="46.15901940924069" lon="9.638271437759256"><ele>270.0</ele><time>2026-03-28T16:58:07.999Z</time></trkpt><trkpt lat="46.15889290886927" lon="9.638136183193273"><ele>269.5</ele><time>2026-03-28T16:58:08.999Z</time></trkpt><trkpt lat="46.158762570011234" lon="9.638027967646813"><ele>269.0</ele><time>2026-03-28T16:58:09.999Z</time></trkpt><trkpt lat="46.15862384013477" lon="9.637928052167346"><ele>269.0</ele><time>2026-03-28T16:58:10.999Z</time></trkpt><trkpt lat="46.15845290212275" lon="9.637857890347336"><ele>269.0</ele><time>2026-03-28T16:58:11.999Z</time></trkpt><trkpt lat="46.15826789712162" lon="9.637790913595108"><ele>269.0</ele><time>2026-03-28T16:58:12.999Z</time></trkpt><trkpt lat="46.15807201669123" lon="9.637718225181352"><ele>269.33333333333337</ele><time>2026-03-28T16:58:13.999Z</time></trkpt><trkpt lat="46.15787316226886" lon="9.63764243640416"><ele>269.6666666666667</ele><time>2026-03-28T16:58:14.999Z</time></trkpt><trkpt lat="46.15768208406018" lon="9.637585681341987"><ele>270.0</ele><time>2026-03-28T16:58:15.999Z</time></trkpt><trkpt lat="46.157516652255566" lon="9.637504285969658"><ele>268.6666666666667</ele><time>2026-03-28T16:58:16.999Z</time></trkpt><trkpt lat="46.157335118125665" lon="9.637435089143727"><ele>267.33333333333337</ele><time>2026-03-28T16:58:17.999Z</time></trkpt><trkpt lat="46.157141370938845" lon="9.637364770753043"><ele>266.0</ele><time>2026-03-28T16:58:18.999Z</time></trkpt><trkpt lat="46.15694206125751" lon="9.637290776321848"><ele>266.0</ele><time>2026-03-28T16:58:19.999Z</time></trkpt><trkpt lat="46.15674571885335" lon="9.637204530305167"><ele>266.0</ele><time>2026-03-28T16:58:20.999Z</time></trkpt><trkpt lat="46.156569778877824" lon="9.637116909392189"><ele>266.0</ele><time>2026-03-28T16:58:21.999Z</time></trkpt><trkpt lat="46.15640622233483" lon="9.637030669524211"><ele>266.0</ele><time>2026-03-28T16:58:22.999Z</time></trkpt><trkpt lat="46.15625105788978" lon="9.63694947236552"><ele>266.0</ele><time>2026-03-28T16:58:23.999Z</time></trkpt><trkpt lat="46.15609842979488" lon="9.63688995828443"><ele>266.0</ele><time>2026-03-28T16:58:24.999Z</time></trkpt><trkpt lat="46.15594889384538" lon="9.636796359676874"><ele>266.0</ele><time>2026-03-28T16:58:25.999Z</time></trkpt><trkpt lat="46.15582287396497" lon="9.636657728417392"><ele>266.0</ele><time>2026-03-28T16:58:26.999Z</time></trkpt><trkpt lat="46.155685890040594" lon="9.636536449715125"><ele>266.0</ele><time>2026-03-28T16:58:27.999Z</time></trkpt><trkpt lat="46.155568589983034" lon="9.636361888274813"><ele>264.6666666666667</ele><time>2026-03-28T16:58:28.999Z</time></trkpt><trkpt lat="46.15545169739038" lon="9.636177041030328"><ele>263.3333333333333</ele><time>2026-03-28T16:58:29.999Z</time></trkpt><trkpt lat="46.15535354732621" lon="9.635981779544105"><ele>262.0</ele><time>2026-03-28T16:58:30.999Z</time></trkpt><trkpt lat="46.15527935044709" lon="9.635753606981583"><ele>262.0</ele><time>2026-03-28T16:58:31.999Z</time></trkpt><trkpt lat="46.15520572424578" lon="9.635513854219603"><ele>262.0</ele><time>2026-03-28T16:58:32.999Z</time></trkpt><trkpt lat="46.15513901839246" lon="9.63527837654183"><ele>262.0</ele><time>2026-03-28T16:58:33.999Z</time></trkpt><trkpt lat="46.15506186248152" lon="9.63504973292695"><ele>262.0</ele><time>2026-03-28T16:58:34.999Z</time></trkpt><trkpt lat="46.154993589294996" lon="9.63483099326874"><ele>262.0</ele><time>2026-03-28T16:58:35.999Z</time></trkpt><trkpt lat="46.154917950227194" lon="9.634638081076016"><ele>262.0</ele><time>2026-03-28T16:58:36.999Z</time></trkpt><trkpt lat="46.15482855499991" lon="9.634466118100226"><ele>261.75</ele><time>2026-03-28T16:58:37.999Z</time></trkpt><trkpt lat="46.15472718394267" lon="9.634304240077032"><ele>261.5</ele><time>2026-03-28T16:58:38.999Z</time></trkpt><trkpt lat="46.154616861779395" lon="9.634168539103747"><ele>261.25</ele><time>2026-03-28T16:58:39.999Z</time></trkpt><trkpt lat="46.154493312863934" lon="9.634051637822013"><ele>261.0</ele><time>2026-03-28T16:58:40.999Z</time></trkpt><trkpt lat="46.15435373136283" lon="9.633950452998354"><ele>261.0</ele><time>2026-03-28T16:58:41.999Z</time></trkpt><trkpt lat="46.154201874123515" lon="9.63387115639415"><ele>261.0</ele><time>2026-03-28T16:58:42.999Z</time></trkpt><trkpt lat="46.15404974272427" lon="9.633800084580017"><ele>261.0</ele><time>2026-03-28T16:58:43.999Z</time></trkpt><trkpt lat="46.153875034171" lon="9.633738336776187"><ele>260.3333333333333</ele><time>2026-03-28T16:58:44.999Z</time></trkpt><trkpt lat="46.15368902785989" lon="9.633683013375526"><ele>259.66666666666663</ele><time>2026-03-28T16:58:45.999Z</time></trkpt><trkpt lat="46.15349762833494" lon="9.633615827529754"><ele>259.0</ele><time>2026-03-28T16:58:46.999Z</time></trkpt><trkpt lat="46.15331123056026" lon="9.63355202748095"><ele>260.3333333333333</ele><time>2026-03-28T16:58:47.999Z</time></trkpt><trkpt lat="46.15314014410759" lon="9.633469113546301"><ele>261.6666666666667</ele><time>2026-03-28T16:58:48.999Z</time></trkpt><trkpt lat="46.15298322676282" lon="9.633426176624223"><ele>263.0</ele><time>2026-03-28T16:58:49.999Z</time></trkpt><trkpt lat="46.15282758393539" lon="9.63336164990622"><ele>263.0</ele><time>2026-03-28T16:58:50.999Z</time></trkpt><trkpt lat="46.152659459413925" lon="9.633308125098294"><ele>263.0</ele><time>2026-03-28T16:58:51.999Z</time></trkpt><trkpt lat="46.15247704639376" lon="9.63321684464456"><ele>263.0</ele><time>2026-03-28T16:58:52.999Z</time></trkpt><trkpt lat="46.152276457784225" lon="9.633158306040803"><ele>264.0</ele><time>2026-03-28T16:58:53.999Z</time></trkpt><trkpt lat="46.15209123650437" lon="9.633076472763236"><ele>265.0</ele><time>2026-03-28T16:58:54.999Z</time></trkpt><trkpt lat="46.15192557915479" lon="9.633011751827729"><ele>266.0</ele><time>2026-03-28T16:58:55.999Z</time></trkpt><trkpt lat="46.15177145725218" lon="9.63295871745711"><ele>266.0</ele><time>2026-03-28T16:58:56.999Z</time></trkpt><trkpt lat="46.15162898474897" lon="9.632907130881097"><ele>266.0</ele><time>2026-03-28T16:58:57.999Z</time></trkpt><trkpt lat="46.15150637119256" lon="9.632852929950374"><ele>266.0</ele><time>2026-03-28T16:58:58.999Z</time></trkpt><trkpt lat="46.151386508247505" lon="9.63281277017905"><ele>266.0</ele><time>2026-03-28T16:58:59.999Z</time></trkpt><trkpt lat="46.1512734259236" lon="9.632804300278748"><ele>267.0</ele><time>2026-03-28T16:59:00.999Z</time></trkpt><trkpt lat="46.151164688903286" lon="9.632725582084099"><ele>268.0</ele><time>2026-03-28T16:59:01.999Z</time></trkpt><trkpt lat="46.151058918349975" lon="9.632648297410851"><ele>269.0</ele><time>2026-03-28T16:59:02.999Z</time></trkpt><trkpt lat="46.150945738214595" lon="9.632524864330584"><ele>270.0</ele><time>2026-03-28T16:59:03.999Z</time></trkpt><trkpt lat="46.15084944175787" lon="9.632373702415775"><ele>270.0</ele><time>2026-03-28T16:59:04.999Z</time></trkpt><trkpt lat="46.15079092569419" lon="9.632188297823784"><ele>270.0</ele><time>2026-03-28T16:59:05.999Z</time></trkpt><trkpt lat="46.150744663134134" lon="9.6320037374197"><ele>270.0</ele><time>2026-03-28T16:59:06.999Z</time></trkpt><trkpt lat="46.150695158065" lon="9.631811378160625"><ele>270.0</ele><time>2026-03-28T16:59:07.999Z</time></trkpt><trkpt lat="46.15067749076147" lon="9.631599528460251"><ele>269.0</ele><time>2026-03-28T16:59:08.999Z</time></trkpt><trkpt lat="46.150695178846135" lon="9.631358642301073"><ele>268.0</ele><time>2026-03-28T16:59:09.999Z</time></trkpt><trkpt lat="46.15066412099671" lon="9.631104031210379"><ele>267.0</ele><time>2026-03-28T16:59:10.999Z</time></trkpt><trkpt lat="46.15066610040207" lon="9.630823827476258"><ele>266.6666666666667</ele><time>2026-03-28T16:59:11.999Z</time></trkpt><trkpt lat="46.150649995914826" lon="9.630523364680572"><ele>266.33333333333337</ele><time>2026-03-28T16:59:12.999Z</time></trkpt><trkpt lat="46.1506322340696" lon="9.630214576566265"><ele>266.0</ele><time>2026-03-28T16:59:13.999Z</time></trkpt><trkpt lat="46.150613019907304" lon="9.629888085746494"><ele>263.0</ele><time>2026-03-28T16:59:14.999Z</time></trkpt><trkpt lat="46.15059311415439" lon="9.62955093582262"><ele>260.0</ele><time>2026-03-28T16:59:15.999Z</time></trkpt><trkpt lat="46.150572879917526" lon="9.629203410967586"><ele>267.5</ele><time>2026-03-28T16:59:16.999Z</time></trkpt><trkpt lat="46.15055087081055" lon="9.628833218855226"><ele>275.0</ele><time>2026-03-28T16:59:17.999Z</time></trkpt><trkpt lat="46.150517580360784" lon="9.62845437612488"><ele>308.0</ele><time>2026-03-28T16:59:18.999Z</time></trkpt><trkpt lat="46.15050117175784" lon="9.628060463855235"><ele>341.0</ele><time>2026-03-28T16:59:20.018Z</time></trkpt><trkpt lat="46.150484531596355" lon="9.62767816039582"><ele>371.5</ele><time>2026-03-28T16:59:21.021Z</time></trkpt><trkpt lat="46.150468684393346" lon="9.627299945166987"><ele>402.0</ele><time>2026-03-28T16:59:22.015Z</time></trkpt><trkpt lat="46.15045258363018" lon="9.626920253488187"><ele>422.0</ele><time>2026-03-28T16:59:23.013Z</time></trkpt><trkpt lat="46.150435422991386" lon="9.626535297587186"><ele>442.0</ele><time>2026-03-28T16:59:24.016Z</time></trkpt><trkpt lat="46.15024251637051" lon="9.623635578286843"><ele>549.0</ele><time>2026-03-28T16:59:27.318Z</time></trkpt><trkpt lat="46.150191136777586" lon="9.622727372525047"><ele>598.0</ele><time>2026-03-28T16:59:28.324Z</time></trkpt><trkpt lat="46.150140186456646" lon="9.621826483261497"><ele>631.0</ele><time>2026-03-28T16:59:29.322Z</time></trkpt><trkpt lat="46.15008447875881" lon="9.620926954827135"><ele>624.0</ele><time>2026-03-28T16:59:30.318Z</time></trkpt><trkpt lat="46.150022990154966" lon="9.62002364792931"><ele>622.0</ele><time>2026-03-28T16:59:31.32Z</time></trkpt><trkpt lat="46.14994749832513" lon="9.6191262463544"><ele>562.0</ele><time>2026-03-28T16:59:32.318Z</time></trkpt><trkpt lat="46.149859915620304" lon="9.618226493432584"><ele>562.0</ele><time>2026-03-28T16:59:33.32Z</time></trkpt><trkpt lat="46.1498237" lon="9.617914"><ele>562.0</ele><time>2026-03-28T16:59:34.321Z</time></trkpt><trkpt lat="46.14686957564777" lon="9.598715202891825"><ele>405.5</ele><time>2026-03-28T17:00:30.999Z</time></trkpt><trkpt lat="46.14691525458685" lon="9.59825260594847"><ele>249.0</ele><time>2026-03-28T17:00:31.999Z</time></trkpt><trkpt lat="46.14695864529989" lon="9.59778056322671"><ele>249.0</ele><time>2026-03-28T17:00:32.999Z</time></trkpt><trkpt lat="46.147036895842604" lon="9.59731854772236"><ele>249.0</ele><time>2026-03-28T17:00:33.999Z</time></trkpt><trkpt lat="46.14712144906043" lon="9.596869555651852"><ele>250.0</ele><time>2026-03-28T17:00:34.999Z</time></trkpt><trkpt lat="46.14723166502752" lon="9.59643878680239"><ele>251.0</ele><time>2026-03-28T17:00:35.999Z</time></trkpt><trkpt lat="46.14733501233023" lon="9.596014620108557"><ele>263.0</ele><time>2026-03-28T17:00:36.999Z</time></trkpt><trkpt lat="46.14742955127328" lon="9.59559240899823"><ele>275.0</ele><time>2026-03-28T17:00:37.999Z</time></trkpt><trkpt lat="46.147563589872505" lon="9.595186335020822"><ele>275.0</ele><time>2026-03-28T17:00:38.999Z</time></trkpt><trkpt lat="46.147680027367535" lon="9.594804828788357"><ele>275.0</ele><time>2026-03-28T17:00:39.999Z</time></trkpt><trkpt lat="46.14778520650396" lon="9.594466309126755"><ele>273.5</ele><time>2026-03-28T17:00:40.999Z</time></trkpt><trkpt lat="46.147891175220536" lon="9.594127660221027"><ele>272.0</ele><time>2026-03-28T17:00:41.999Z</time></trkpt><trkpt lat="46.14799015229175" lon="9.593811362232394"><ele>271.0</ele><time>2026-03-28T17:00:42.999Z</time></trkpt><trkpt lat="46.148067422448634" lon="9.593513282073685"><ele>270.0</ele><time>2026-03-28T17:00:43.999Z</time></trkpt><trkpt lat="46.14815286147003" lon="9.593241980035737"><ele>269.0</ele><time>2026-03-28T17:00:44.999Z</time></trkpt><trkpt lat="46.14823704516006" lon="9.59298132850457"><ele>278.33333333333337</ele><time>2026-03-28T17:00:45.999Z</time></trkpt><trkpt lat="46.1483287630595" lon="9.592714460598657"><ele>287.6666666666667</ele><time>2026-03-28T17:00:46.999Z</time></trkpt><trkpt lat="46.14841788904981" lon="9.592438140012764"><ele>297.0</ele><time>2026-03-28T17:00:48.019Z</time></trkpt><trkpt lat="46.14850470442533" lon="9.592168588158318"><ele>301.3333333333333</ele><time>2026-03-28T17:00:49.013Z</time></trkpt><trkpt lat="46.14859228851597" lon="9.591896501906113"><ele>305.66666666666663</ele><time>2026-03-28T17:00:50.018Z</time></trkpt><trkpt lat="46.14865495660812" lon="9.59161591802117"><ele>310.0</ele><time>2026-03-28T17:00:51.019Z</time></trkpt><trkpt lat="46.14870915020049" lon="9.591335111031485"><ele>354.0</ele><time>2026-03-28T17:00:52.012Z</time></trkpt><trkpt lat="46.14891377579027" lon="9.588422953168902"><ele>370.0</ele><time>2026-03-28T17:00:55.322Z</time></trkpt><trkpt lat="46.14894059382513" lon="9.587517798902667"><ele>384.0</ele><time>2026-03-28T17:00:56.322Z</time></trkpt><trkpt lat="46.14894636531525" lon="9.586611686512537"><ele>384.0</ele><time>2026-03-28T17:00:57.322Z</time></trkpt><trkpt lat="46.14894599127016" lon="9.585705661402397"><ele>384.0</ele><time>2026-03-28T17:00:58.322Z</time></trkpt><trkpt lat="46.14894752520808" lon="9.584799504251508"><ele>384.0</ele><time>2026-03-28T17:00:59.322Z</time></trkpt><trkpt lat="46.14894905889294" lon="9.583893496591594"><ele>384.0</ele><time>2026-03-28T17:01:00.322Z</time></trkpt><trkpt lat="46.14895040358983" lon="9.582990994027025"><ele>384.0</ele><time>2026-03-28T17:01:01.318Z</time></trkpt><trkpt lat="46.14895121090449" lon="9.58208527347025"><ele>384.0</ele><time>2026-03-28T17:01:02.318Z</time></trkpt><trkpt lat="46.14895201922786" lon="9.58117842125141"><ele>288.0</ele><time>2026-03-28T17:01:03.319Z</time></trkpt><trkpt lat="46.14895282953563" lon="9.580269342757214"><ele>288.0</ele><time>2026-03-28T17:01:04.322Z</time></trkpt><trkpt lat="46.148953" lon="9.5800781"><ele>288.0</ele><time>2026-03-28T17:01:05.322Z</time></trkpt><trkpt lat="46.144846645226835" lon="9.558406965815982"><ele>265.6666666666667</ele><time>2026-03-28T17:02:20.999Z</time></trkpt><trkpt lat="46.144621895873286" lon="9.55815780445021"><ele>243.33333333333334</ele><time>2026-03-28T17:02:21.999Z</time></trkpt><trkpt lat="46.14458218635769" lon="9.557990929328119"><ele>221.0</ele><time>2026-03-28T17:02:22.999Z</time></trkpt><trkpt lat="46.144351144865766" lon="9.557679279716789"><ele>220.5</ele><time>2026-03-28T17:02:23.999Z</time></trkpt><trkpt lat="46.14409488673765" lon="9.557400689747682"><ele>220.0</ele><time>2026-03-28T17:02:24.999Z</time></trkpt><trkpt lat="46.14384686438112" lon="9.557125897881054"><ele>220.0</ele><time>2026-03-28T17:02:25.999Z</time></trkpt><trkpt lat="46.14361530341424" lon="9.556852210178642"><ele>220.0</ele><time>2026-03-28T17:02:26.999Z</time></trkpt><trkpt lat="46.14339644888742" lon="9.556578792266665"><ele>219.5</ele><time>2026-03-28T17:02:27.998Z</time></trkpt><trkpt lat="46.143183808171784" lon="9.55629497912963"><ele>219.0</ele><time>2026-03-28T17:02:28.998Z</time></trkpt><trkpt lat="46.14298192214599" lon="9.556003397153543"><ele>219.0</ele><time>2026-03-28T17:02:29.998Z</time></trkpt><trkpt lat="46.14278989626374" lon="9.555707773501947"><ele>219.0</ele><time>2026-03-28T17:02:30.998Z</time></trkpt><trkpt lat="46.142604876399595" lon="9.555404612548347"><ele>219.5</ele><time>2026-03-28T17:02:31.998Z</time></trkpt><trkpt lat="46.14243057238495" lon="9.5550983687291"><ele>220.0</ele><time>2026-03-28T17:02:32.998Z</time></trkpt><trkpt lat="46.14226368079297" lon="9.554788377456765"><ele>221.0</ele><time>2026-03-28T17:02:33.998Z</time></trkpt><trkpt lat="46.14210508253539" lon="9.554475397086277"><ele>222.0</ele><time>2026-03-28T17:02:34.998Z</time></trkpt><trkpt lat="46.14195338738893" lon="9.554154288107068"><ele>222.0</ele><time>2026-03-28T17:02:35.998Z</time></trkpt><trkpt lat="46.141811124633655" lon="9.553829718205863"><ele>222.0</ele><time>2026-03-28T17:02:36.998Z</time></trkpt><trkpt lat="46.14167769481759" lon="9.553502886509566"><ele>222.0</ele><time>2026-03-28T17:02:37.998Z</time></trkpt><trkpt lat="46.14155383220699" lon="9.55317465889441"><ele>222.0</ele><time>2026-03-28T17:02:38.998Z</time></trkpt><trkpt lat="46.14143896999451" lon="9.552850591809522"><ele>222.0</ele><time>2026-03-28T17:02:39.998Z</time></trkpt><trkpt lat="46.14133018358294" lon="9.552526329792316"><ele>222.0</ele><time>2026-03-28T17:02:40.998Z</time></trkpt><trkpt lat="46.14123462099366" lon="9.552209626036346"><ele>221.0</ele><time>2026-03-28T17:02:41.998Z</time></trkpt><trkpt lat="46.14114512074079" lon="9.551889571737503"><ele>220.0</ele><time>2026-03-28T17:02:42.999Z</time></trkpt><trkpt lat="46.141063048458555" lon="9.551569926927991"><ele>220.0</ele><time>2026-03-28T17:02:43.999Z</time></trkpt><trkpt lat="46.14098552042147" lon="9.551252656347163"><ele>220.0</ele><time>2026-03-28T17:02:44.999Z</time></trkpt><trkpt lat="46.14090641500172" lon="9.55092280306181"><ele>218.0</ele><time>2026-03-28T17:02:45.999Z</time></trkpt><trkpt lat="46.140828474670556" lon="9.550595226402676"><ele>216.0</ele><time>2026-03-28T17:02:46.999Z</time></trkpt><trkpt lat="46.14074338962086" lon="9.550240765846768"><ele>216.5</ele><time>2026-03-28T17:02:47.999Z</time></trkpt><trkpt lat="46.140658235243606" lon="9.549891785967052"><ele>217.0</ele><time>2026-03-28T17:02:48.999Z</time></trkpt><trkpt lat="46.14056594133534" lon="9.549539337888083"><ele>217.0</ele><time>2026-03-28T17:02:49.999Z</time></trkpt><trkpt lat="46.140447335128094" lon="9.549188600358852"><ele>217.0</ele><time>2026-03-28T17:02:50.999Z</time></trkpt><trkpt lat="46.14033846943572" lon="9.548830945904816"><ele>217.5</ele><time>2026-03-28T17:02:51.999Z</time></trkpt><trkpt lat="46.14021698998596" lon="9.548472202035969"><ele>218.0</ele><time>2026-03-28T17:02:52.999Z</time></trkpt><trkpt lat="46.14008315132756" lon="9.548120612217208"><ele>218.5</ele><time>2026-03-28T17:02:53.999Z</time></trkpt><trkpt lat="46.13993744476086" lon="9.54777667137743"><ele>219.0</ele><time>2026-03-28T17:02:54.999Z</time></trkpt><trkpt lat="46.13978637890907" lon="9.547430289531459"><ele>219.0</ele><time>2026-03-28T17:02:55.999Z</time></trkpt><trkpt lat="46.1396339898545" lon="9.547096227015409"><ele>219.0</ele><time>2026-03-28T17:02:56.999Z</time></trkpt><trkpt lat="46.139474937294295" lon="9.546762670143655"><ele>218.0</ele><time>2026-03-28T17:02:57.999Z</time></trkpt><trkpt lat="46.139317597728386" lon="9.546428462847366"><ele>217.0</ele><time>2026-03-28T17:02:58.999Z</time></trkpt><trkpt lat="46.13917615796405" lon="9.546082243603603"><ele>217.5</ele><time>2026-03-28T17:02:59.999Z</time></trkpt><trkpt lat="46.139022372754" lon="9.545745302752996"><ele>218.0</ele><time>2026-03-28T17:03:00.999Z</time></trkpt><trkpt lat="46.13887119411471" lon="9.545399365569395"><ele>217.0</ele><time>2026-03-28T17:03:01.999Z</time></trkpt><trkpt lat="46.13871684933039" lon="9.545057349835362"><ele>216.0</ele><time>2026-03-28T17:03:02.999Z</time></trkpt><trkpt lat="46.13856692032653" lon="9.544689704389913"><ele>215.5</ele><time>2026-03-28T17:03:03.999Z</time></trkpt><trkpt lat="46.138438157205265" lon="9.544299123971754"><ele>215.0</ele><time>2026-03-28T17:03:04.999Z</time></trkpt><trkpt lat="46.13830728660692" lon="9.543917974623788"><ele>216.5</ele><time>2026-03-28T17:03:05.999Z</time></trkpt><trkpt lat="46.138185632177105" lon="9.54353745774835"><ele>218.0</ele><time>2026-03-28T17:03:06.999Z</time></trkpt><trkpt lat="46.13807343562842" lon="9.54315829410349"><ele>216.5</ele><time>2026-03-28T17:03:07.999Z</time></trkpt><trkpt lat="46.137967429298016" lon="9.542770604740653"><ele>215.0</ele><time>2026-03-28T17:03:08.999Z</time></trkpt><trkpt lat="46.13785295360135" lon="9.542384196358858"><ele>213.5</ele><time>2026-03-28T17:03:09.999Z</time></trkpt><trkpt lat="46.137770675416206" lon="9.541976273324835"><ele>212.0</ele><time>2026-03-28T17:03:10.999Z</time></trkpt><trkpt lat="46.1376860479786" lon="9.5415696691825"><ele>212.5</ele><time>2026-03-28T17:03:11.999Z</time></trkpt><trkpt lat="46.13760919726839" lon="9.541156070425625"><ele>213.0</ele><time>2026-03-28T17:03:12.999Z</time></trkpt><trkpt lat="46.137549371872815" lon="9.540751056960284"><ele>213.0</ele><time>2026-03-28T17:03:13.999Z</time></trkpt><trkpt lat="46.13749195093687" lon="9.540336427855197"><ele>213.0</ele><time>2026-03-28T17:03:14.999Z</time></trkpt><trkpt lat="46.13743535665651" lon="9.539921331045287"><ele>213.0</ele><time>2026-03-28T17:03:16Z</time></trkpt><trkpt lat="46.13738933641405" lon="9.539506715897621"><ele>213.0</ele><time>2026-03-28T17:03:17Z</time></trkpt><trkpt lat="46.13735445148515" lon="9.539089460757571"><ele>213.5</ele><time>2026-03-28T17:03:18Z</time></trkpt><trkpt lat="46.13732698233024" lon="9.53866134219878"><ele>214.0</ele><time>2026-03-28T17:03:19Z</time></trkpt><trkpt lat="46.13730268513091" lon="9.53822570229757"><ele>213.0</ele><time>2026-03-28T17:03:20Z</time></trkpt><trkpt lat="46.13729387506507" lon="9.537786799650608"><ele>212.0</ele><time>2026-03-28T17:03:21Z</time></trkpt><trkpt lat="46.13729046455705" lon="9.537344298302992"><ele>212.5</ele><time>2026-03-28T17:03:22Z</time></trkpt><trkpt lat="46.13729459057032" lon="9.536904143700397"><ele>213.0</ele><time>2026-03-28T17:03:23Z</time></trkpt><trkpt lat="46.13731667155992" lon="9.53645413580839"><ele>213.0</ele><time>2026-03-28T17:03:24Z</time></trkpt><trkpt lat="46.137338808378125" lon="9.536008007759264"><ele>213.0</ele><time>2026-03-28T17:03:25Z</time></trkpt><trkpt lat="46.137364979202566" lon="9.53556651383259"><ele>216.0</ele><time>2026-03-28T17:03:26Z</time></trkpt><trkpt lat="46.137394460407926" lon="9.535125870855248"><ele>219.0</ele><time>2026-03-28T17:03:27Z</time></trkpt><trkpt lat="46.13742824366629" lon="9.534688761296742"><ele>218.0</ele><time>2026-03-28T17:03:28Z</time></trkpt><trkpt lat="46.13746249535389" lon="9.534254604593192"><ele>217.0</ele><time>2026-03-28T17:03:29Z</time></trkpt><trkpt lat="46.13749545880811" lon="9.533818916982009"><ele>215.0</ele><time>2026-03-28T17:03:30Z</time></trkpt><trkpt lat="46.137528507456786" lon="9.533378895740293"><ele>213.0</ele><time>2026-03-28T17:03:31Z</time></trkpt><trkpt lat="46.13755450849206" lon="9.532938155812868"><ele>214.0</ele><time>2026-03-28T17:03:32Z</time></trkpt><trkpt lat="46.137579271288885" lon="9.532488887008238"><ele>215.0</ele><time>2026-03-28T17:03:33Z</time></trkpt><trkpt lat="46.13760152812232" lon="9.53204201747574"><ele>215.5</ele><time>2026-03-28T17:03:34Z</time></trkpt><trkpt lat="46.1376316520452" lon="9.531593735341207"><ele>216.0</ele><time>2026-03-28T17:03:35Z</time></trkpt><trkpt lat="46.13765277569028" lon="9.531140225795564"><ele>216.0</ele><time>2026-03-28T17:03:36Z</time></trkpt><trkpt lat="46.137758646450614" lon="9.530736255382639"><ele>216.0</ele><time>2026-03-28T17:03:37Z</time></trkpt><trkpt lat="46.13778895995223" lon="9.530287771815678"><ele>215.0</ele><time>2026-03-28T17:03:38Z</time></trkpt><trkpt lat="46.13781432877126" lon="9.529837634138138"><ele>214.0</ele><time>2026-03-28T17:03:39Z</time></trkpt><trkpt lat="46.13783815287642" lon="9.529384962157653"><ele>213.0</ele><time>2026-03-28T17:03:40Z</time></trkpt><trkpt lat="46.13785735009265" lon="9.528939341472096"><ele>212.0</ele><time>2026-03-28T17:03:41Z</time></trkpt><trkpt lat="46.13787135640216" lon="9.528517889290585"><ele>212.0</ele><time>2026-03-28T17:03:42Z</time></trkpt><trkpt lat="46.13787831543718" lon="9.528088888438356"><ele>212.0</ele><time>2026-03-28T17:03:43Z</time></trkpt><trkpt lat="46.13787888780123" lon="9.527667025599039"><ele>212.0</ele><time>2026-03-28T17:03:44Z</time></trkpt><trkpt lat="46.13787134023392" lon="9.527243738948805"><ele>212.0</ele><time>2026-03-28T17:03:45Z</time></trkpt><trkpt lat="46.13786313442799" lon="9.526817012972728"><ele>211.0</ele><time>2026-03-28T17:03:46Z</time></trkpt><trkpt lat="46.13784974479398" lon="9.526390277835757"><ele>210.0</ele><time>2026-03-28T17:03:47Z</time></trkpt><trkpt lat="46.13784388484066" lon="9.525968337575394"><ele>209.5</ele><time>2026-03-28T17:03:48Z</time></trkpt><trkpt lat="46.13783299102699" lon="9.5255445418313"><ele>209.0</ele><time>2026-03-28T17:03:49Z</time></trkpt><trkpt lat="46.13782368596963" lon="9.525129664147942"><ele>208.5</ele><time>2026-03-28T17:03:50Z</time></trkpt><trkpt lat="46.1378115399792" lon="9.524714519488455"><ele>208.0</ele><time>2026-03-28T17:03:51Z</time></trkpt><trkpt lat="46.13779662281701" lon="9.524300991419423"><ele>209.0</ele><time>2026-03-28T17:03:52Z</time></trkpt><trkpt lat="46.13778350294735" lon="9.523888921051158"><ele>210.0</ele><time>2026-03-28T17:03:53Z</time></trkpt><trkpt lat="46.13778773211883" lon="9.523463362079283"><ele>210.0</ele><time>2026-03-28T17:03:54Z</time></trkpt><trkpt lat="46.137801729802014" lon="9.523031360810162"><ele>210.0</ele><time>2026-03-28T17:03:55Z</time></trkpt><trkpt lat="46.13782506965879" lon="9.522595212983713"><ele>209.5</ele><time>2026-03-28T17:03:56Z</time></trkpt><trkpt lat="46.137851477665265" lon="9.522157638156553"><ele>209.0</ele><time>2026-03-28T17:03:57Z</time></trkpt><trkpt lat="46.137884722572394" lon="9.521725625004715"><ele>209.0</ele><time>2026-03-28T17:03:58Z</time></trkpt><trkpt lat="46.13790595208199" lon="9.521286455523304"><ele>209.0</ele><time>2026-03-28T17:03:59Z</time></trkpt><trkpt lat="46.13791908261367" lon="9.520834738932773"><ele>209.0</ele><time>2026-03-28T17:04:00Z</time></trkpt><trkpt lat="46.13794354168744" lon="9.520387130878825"><ele>209.0</ele><time>2026-03-28T17:04:01Z</time></trkpt><trkpt lat="46.13798642300258" lon="9.519929236981557"><ele>209.0</ele><time>2026-03-28T17:04:02Z</time></trkpt><trkpt lat="46.13804529361352" lon="9.519469441217478"><ele>209.0</ele><time>2026-03-28T17:04:03Z</time></trkpt><trkpt lat="46.13810876593987" lon="9.519011052273042"><ele>209.0</ele><time>2026-03-28T17:04:04Z</time></trkpt><trkpt lat="46.13818895486531" lon="9.518559793262703"><ele>209.0</ele><time>2026-03-28T17:04:05Z</time></trkpt><trkpt lat="46.138282565488836" lon="9.518114925775205"><ele>209.5</ele><time>2026-03-28T17:04:06Z</time></trkpt><trkpt lat="46.1383940778683" lon="9.517679246404072"><ele>210.0</ele><time>2026-03-28T17:04:07Z</time></trkpt><trkpt lat="46.13851821856265" lon="9.517250284765588"><ele>210.5</ele><time>2026-03-28T17:04:08Z</time></trkpt><trkpt lat="46.13865460481246" lon="9.5168277796429"><ele>211.0</ele><time>2026-03-28T17:04:09Z</time></trkpt><trkpt lat="46.138801420479666" lon="9.516411424260696"><ele>209.5</ele><time>2026-03-28T17:04:10Z</time></trkpt><trkpt lat="46.13895825138599" lon="9.51599695519779"><ele>208.0</ele><time>2026-03-28T17:04:11Z</time></trkpt><trkpt lat="46.139125882235874" lon="9.515584486068603"><ele>208.0</ele><time>2026-03-28T17:04:12Z</time></trkpt><trkpt lat="46.139303902970354" lon="9.515181935531594"><ele>208.0</ele><time>2026-03-28T17:04:13Z</time></trkpt><trkpt lat="46.139495259553016" lon="9.514783824910959"><ele>208.0</ele><time>2026-03-28T17:04:14Z</time></trkpt><trkpt lat="46.13970436882594" lon="9.514382509532291"><ele>208.0</ele><time>2026-03-28T17:04:15Z</time></trkpt><trkpt lat="46.13992165495696" lon="9.513981373157458"><ele>209.0</ele><time>2026-03-28T17:04:16Z</time></trkpt><trkpt lat="46.14015200637606" lon="9.513585237044014"><ele>210.0</ele><time>2026-03-28T17:04:17Z</time></trkpt><trkpt lat="46.140381708434774" lon="9.513189653922936"><ele>209.5</ele><time>2026-03-28T17:04:18Z</time></trkpt><trkpt lat="46.1406195668448" lon="9.512787469204772"><ele>209.0</ele><time>2026-03-28T17:04:19Z</time></trkpt><trkpt lat="46.14086644321258" lon="9.512386444547184"><ele>208.0</ele><time>2026-03-28T17:04:20Z</time></trkpt><trkpt lat="46.141129248633824" lon="9.511988567735425"><ele>207.0</ele><time>2026-03-28T17:04:21Z</time></trkpt><trkpt lat="46.14139607552739" lon="9.511604066319002"><ele>207.5</ele><time>2026-03-28T17:04:22Z</time></trkpt><trkpt lat="46.141670633879045" lon="9.511217450493161"><ele>208.0</ele><time>2026-03-28T17:04:23Z</time></trkpt><trkpt lat="46.14195142554134" lon="9.51083624185165"><ele>208.0</ele><time>2026-03-28T17:04:24Z</time></trkpt><trkpt lat="46.142230436701354" lon="9.510450510791145"><ele>208.0</ele><time>2026-03-28T17:04:25Z</time></trkpt><trkpt lat="46.142504569798355" lon="9.510059687379632"><ele>208.0</ele><time>2026-03-28T17:04:26Z</time></trkpt><trkpt lat="46.14277824007519" lon="9.509672368181326"><ele>208.0</ele><time>2026-03-28T17:04:27Z</time></trkpt><trkpt lat="46.143051682303735" lon="9.509288945556797"><ele>208.0</ele><time>2026-03-28T17:04:28Z</time></trkpt><trkpt lat="46.14331924188852" lon="9.508899932863626"><ele>208.0</ele><time>2026-03-28T17:04:29Z</time></trkpt><trkpt lat="46.14358522258793" lon="9.508508206791277"><ele>207.5</ele><time>2026-03-28T17:04:30Z</time></trkpt><trkpt lat="46.143839469487595" lon="9.508132125047709"><ele>207.0</ele><time>2026-03-28T17:04:31Z</time></trkpt><trkpt lat="46.14408194212583" lon="9.507756654745764"><ele>207.0</ele><time>2026-03-28T17:04:32Z</time></trkpt><trkpt lat="46.144319864927375" lon="9.507385451131748"><ele>207.0</ele><time>2026-03-28T17:04:33Z</time></trkpt><trkpt lat="46.1445550610122" lon="9.50700489908592"><ele>208.0</ele><time>2026-03-28T17:04:33.999Z</time></trkpt><trkpt lat="46.144770086373065" lon="9.506627064799273"><ele>209.0</ele><time>2026-03-28T17:04:34.999Z</time></trkpt><trkpt lat="46.144977422947754" lon="9.506242600536742"><ele>209.0</ele><time>2026-03-28T17:04:35.999Z</time></trkpt><trkpt lat="46.14516994509013" lon="9.505867377777438"><ele>209.0</ele><time>2026-03-28T17:04:36.999Z</time></trkpt><trkpt lat="46.14535409469171" lon="9.50551547786567"><ele>207.5</ele><time>2026-03-28T17:04:37.999Z</time></trkpt><trkpt lat="46.14551626298816" lon="9.505183493072348"><ele>206.0</ele><time>2026-03-28T17:04:38.999Z</time></trkpt><trkpt lat="46.14566567920075" lon="9.504869925286771"><ele>206.5</ele><time>2026-03-28T17:04:39.999Z</time></trkpt><trkpt lat="46.14579876382705" lon="9.504573595928392"><ele>207.0</ele><time>2026-03-28T17:04:40.999Z</time></trkpt><trkpt lat="46.145923972368216" lon="9.50424605955059"><ele>207.0</ele><time>2026-03-28T17:04:41.999Z</time></trkpt><trkpt lat="46.14606819635383" lon="9.503886665179397"><ele>207.0</ele><time>2026-03-28T17:04:42.999Z</time></trkpt><trkpt lat="46.146217578966414" lon="9.503509699102624"><ele>207.5</ele><time>2026-03-28T17:04:43.999Z</time></trkpt><trkpt lat="46.14636077050497" lon="9.503108616457045"><ele>208.0</ele><time>2026-03-28T17:04:44.999Z</time></trkpt><trkpt lat="46.14649532249098" lon="9.502684502722072"><ele>207.5</ele><time>2026-03-28T17:04:45.999Z</time></trkpt><trkpt lat="46.146629152509995" lon="9.502235197209519"><ele>207.0</ele><time>2026-03-28T17:04:46.999Z</time></trkpt><trkpt lat="46.14675719039539" lon="9.5017644992903"><ele>207.0</ele><time>2026-03-28T17:04:48Z</time></trkpt><trkpt lat="46.14687938040483" lon="9.501264608997001"><ele>207.0</ele><time>2026-03-28T17:04:49Z</time></trkpt><trkpt lat="46.146997600692565" lon="9.50074936052066"><ele>207.0</ele><time>2026-03-28T17:04:50Z</time></trkpt><trkpt lat="46.14710245116106" lon="9.500218619790045"><ele>207.0</ele><time>2026-03-28T17:04:51Z</time></trkpt><trkpt lat="46.147193137766436" lon="9.499677645393989"><ele>208.5</ele><time>2026-03-28T17:04:52Z</time></trkpt><trkpt lat="46.14726731532195" lon="9.499127067520817"><ele>210.0</ele><time>2026-03-28T17:04:53Z</time></trkpt><trkpt lat="46.14733005251352" lon="9.49857289500108"><ele>210.0</ele><time>2026-03-28T17:04:54Z</time></trkpt><trkpt lat="46.1473737068254" lon="9.498019785872456"><ele>210.0</ele><time>2026-03-28T17:04:55Z</time></trkpt><trkpt lat="46.14741048277398" lon="9.49746714630001"><ele>208.0</ele><time>2026-03-28T17:04:56Z</time></trkpt><trkpt lat="46.14743623439005" lon="9.496908243893893"><ele>206.0</ele><time>2026-03-28T17:04:57Z</time></trkpt><trkpt lat="46.14745030938387" lon="9.496351302583859"><ele>206.0</ele><time>2026-03-28T17:04:58Z</time></trkpt><trkpt lat="46.147445912624505" lon="9.495804071197549"><ele>206.0</ele><time>2026-03-28T17:04:59Z</time></trkpt><trkpt lat="46.14742560822796" lon="9.495261331174742"><ele>206.0</ele><time>2026-03-28T17:05:00Z</time></trkpt><trkpt lat="46.147394705749974" lon="9.494719375958477"><ele>206.0</ele><time>2026-03-28T17:05:01Z</time></trkpt><trkpt lat="46.147348793598056" lon="9.494174147142942"><ele>206.5</ele><time>2026-03-28T17:05:02Z</time></trkpt><trkpt lat="46.14729073284166" lon="9.493642349138037"><ele>207.0</ele><time>2026-03-28T17:05:03Z</time></trkpt><trkpt lat="46.14721411487609" lon="9.49311085957336"><ele>208.0</ele><time>2026-03-28T17:05:04Z</time></trkpt><trkpt lat="46.147124619718966" lon="9.49258296822418"><ele>209.0</ele><time>2026-03-28T17:05:05Z</time></trkpt><trkpt lat="46.14702280440786" lon="9.492062838140605"><ele>209.0</ele><time>2026-03-28T17:05:06Z</time></trkpt><trkpt lat="46.14691601755765" lon="9.491543753302935"><ele>209.0</ele><time>2026-03-28T17:05:07Z</time></trkpt><trkpt lat="46.14680616349276" lon="9.491034835834324"><ele>208.5</ele><time>2026-03-28T17:05:08Z</time></trkpt><trkpt lat="46.14668969223159" lon="9.490525889132904"><ele>208.0</ele><time>2026-03-28T17:05:09Z</time></trkpt><trkpt lat="46.14657449800823" lon="9.490023663251138"><ele>207.5</ele><time>2026-03-28T17:05:10Z</time></trkpt><trkpt lat="46.146461565784826" lon="9.489535296208523"><ele>207.0</ele><time>2026-03-28T17:05:11Z</time></trkpt><trkpt lat="46.14634927574456" lon="9.489047914778027"><ele>206.5</ele><time>2026-03-28T17:05:12Z</time></trkpt><trkpt lat="46.14623511773695" lon="9.48856645861813"><ele>206.0</ele><time>2026-03-28T17:05:13Z</time></trkpt><trkpt lat="46.146119746148344" lon="9.488087227320742"><ele>206.0</ele><time>2026-03-28T17:05:14Z</time></trkpt><trkpt lat="46.146005525498964" lon="9.487616993887684"><ele>206.0</ele><time>2026-03-28T17:05:15Z</time></trkpt><trkpt lat="46.145901900686255" lon="9.487140993964632"><ele>205.5</ele><time>2026-03-28T17:05:16Z</time></trkpt><trkpt lat="46.1458095012883" lon="9.48664116451083"><ele>205.0</ele><time>2026-03-28T17:05:17Z</time></trkpt><trkpt lat="46.14571665380121" lon="9.486162426215428"><ele>205.0</ele><time>2026-03-28T17:05:18Z</time></trkpt><trkpt lat="46.14562446448887" lon="9.485680426223684"><ele>205.0</ele><time>2026-03-28T17:05:19Z</time></trkpt><trkpt lat="46.1455482308984" lon="9.485187838071425"><ele>205.0</ele><time>2026-03-28T17:05:20Z</time></trkpt><trkpt lat="46.1454759318153" lon="9.484701375198368"><ele>205.0</ele><time>2026-03-28T17:05:21Z</time></trkpt><trkpt lat="46.145417341304594" lon="9.484198190445262"><ele>203.5</ele><time>2026-03-28T17:05:22Z</time></trkpt><trkpt lat="46.14537415597809" lon="9.483667312345569"><ele>202.0</ele><time>2026-03-28T17:05:23Z</time></trkpt><trkpt lat="46.14533399713807" lon="9.48313740309795"><ele>202.5</ele><time>2026-03-28T17:05:24Z</time></trkpt><trkpt lat="46.145300741771905" lon="9.482605872300079"><ele>203.0</ele><time>2026-03-28T17:05:25Z</time></trkpt><trkpt lat="46.14527611716731" lon="9.482062880341111"><ele>203.0</ele><time>2026-03-28T17:05:26Z</time></trkpt><trkpt lat="46.145252047345075" lon="9.4815173093962"><ele>203.0</ele><time>2026-03-28T17:05:27Z</time></trkpt><trkpt lat="46.14523649183304" lon="9.48096995706522"><ele>203.5</ele><time>2026-03-28T17:05:28Z</time></trkpt><trkpt lat="46.145223106178626" lon="9.480414361742396"><ele>204.0</ele><time>2026-03-28T17:05:29Z</time></trkpt><trkpt lat="46.145212805247944" lon="9.479836327540536"><ele>204.0</ele><time>2026-03-28T17:05:30Z</time></trkpt><trkpt lat="46.14519594183056" lon="9.479278431679731"><ele>204.0</ele><time>2026-03-28T17:05:31Z</time></trkpt><trkpt lat="46.145185900625826" lon="9.478705507130904"><ele>204.5</ele><time>2026-03-28T17:05:32Z</time></trkpt><trkpt lat="46.14517705987968" lon="9.478118451938235"><ele>205.0</ele><time>2026-03-28T17:05:33Z</time></trkpt><trkpt lat="46.145164368774935" lon="9.47755617250204"><ele>207.0</ele><time>2026-03-28T17:05:34Z</time></trkpt><trkpt lat="46.14514791130627" lon="9.47697891716755"><ele>209.0</ele><time>2026-03-28T17:05:35Z</time></trkpt><trkpt lat="46.145130890307705" lon="9.476393272408696"><ele>211.5</ele><time>2026-03-28T17:05:36Z</time></trkpt><trkpt lat="46.14511232434901" lon="9.47580124270253"><ele>214.0</ele><time>2026-03-28T17:05:37Z</time></trkpt><trkpt lat="46.14509438275482" lon="9.475226448437985"><ele>214.0</ele><time>2026-03-28T17:05:38Z</time></trkpt><trkpt lat="46.14508077356882" lon="9.474661275604829"><ele>214.0</ele><time>2026-03-28T17:05:39Z</time></trkpt><trkpt lat="46.145068143646036" lon="9.474101332684898"><ele>213.0</ele><time>2026-03-28T17:05:40Z</time></trkpt><trkpt lat="46.14505433909243" lon="9.473549163586123"><ele>212.0</ele><time>2026-03-28T17:05:41Z</time></trkpt><trkpt lat="46.145040915956194" lon="9.473001939687727"><ele>210.5</ele><time>2026-03-28T17:05:42Z</time></trkpt><trkpt lat="46.145023578224254" lon="9.47245715713726"><ele>209.0</ele><time>2026-03-28T17:05:43Z</time></trkpt><trkpt lat="46.1450134801467" lon="9.471914226963031"><ele>209.0</ele><time>2026-03-28T17:05:44Z</time></trkpt><trkpt lat="46.14500354206884" lon="9.47138337250623"><ele>209.0</ele><time>2026-03-28T17:05:45Z</time></trkpt><trkpt lat="46.144994049690474" lon="9.47087329930059"><ele>206.0</ele><time>2026-03-28T17:05:46Z</time></trkpt><trkpt lat="46.14497588952341" lon="9.470379711798422"><ele>203.0</ele><time>2026-03-28T17:05:47Z</time></trkpt><trkpt lat="46.14495741083073" lon="9.469898926136715"><ele>203.5</ele><time>2026-03-28T17:05:48Z</time></trkpt><trkpt lat="46.144944846480826" lon="9.469410714625889"><ele>204.0</ele><time>2026-03-28T17:05:49Z</time></trkpt><trkpt lat="46.144933532739564" lon="9.46892627118419"><ele>204.0</ele><time>2026-03-28T17:05:50Z</time></trkpt><trkpt lat="46.14492236465524" lon="9.468439453743972"><ele>204.0</ele><time>2026-03-28T17:05:51Z</time></trkpt><trkpt lat="46.14490896531289" lon="9.46795150660389"><ele>204.0</ele><time>2026-03-28T17:05:52Z</time></trkpt><trkpt lat="46.14489241188705" lon="9.467459063246014"><ele>204.0</ele><time>2026-03-28T17:05:53Z</time></trkpt><trkpt lat="46.14487079489566" lon="9.466960910926321"><ele>204.0</ele><time>2026-03-28T17:05:54Z</time></trkpt><trkpt lat="46.14484924970469" lon="9.466461573261219"><ele>204.0</ele><time>2026-03-28T17:05:55Z</time></trkpt><trkpt lat="46.14482253425883" lon="9.465968499661093"><ele>204.5</ele><time>2026-03-28T17:05:56Z</time></trkpt><trkpt lat="46.14478733253715" lon="9.465479489458843"><ele>205.0</ele><time>2026-03-28T17:05:57Z</time></trkpt><trkpt lat="46.14474710130069" lon="9.464990603362951"><ele>204.5</ele><time>2026-03-28T17:05:58Z</time></trkpt><trkpt lat="46.14469974303399" lon="9.464503813816645"><ele>204.0</ele><time>2026-03-28T17:05:59Z</time></trkpt><trkpt lat="46.144647028162936" lon="9.464022825762349"><ele>203.0</ele><time>2026-03-28T17:06:00Z</time></trkpt><trkpt lat="46.144587682082125" lon="9.463540010925945"><ele>202.0</ele><time>2026-03-28T17:06:01Z</time></trkpt><trkpt lat="46.14451052869964" lon="9.463054418205473"><ele>202.0</ele><time>2026-03-28T17:06:02Z</time></trkpt><trkpt lat="46.14442238714872" lon="9.46255923519265"><ele>202.0</ele><time>2026-03-28T17:06:03Z</time></trkpt><trkpt lat="46.144327431778805" lon="9.462057963034368"><ele>202.0</ele><time>2026-03-28T17:06:04Z</time></trkpt><trkpt lat="46.14421668309365" lon="9.46154328268913"><ele>202.0</ele><time>2026-03-28T17:06:05Z</time></trkpt><trkpt lat="46.14410425210933" lon="9.461024936338159"><ele>202.5</ele><time>2026-03-28T17:06:06Z</time></trkpt><trkpt lat="46.14398901592195" lon="9.46050131814833"><ele>203.0</ele><time>2026-03-28T17:06:07Z</time></trkpt><trkpt lat="46.143873697240934" lon="9.459969879316732"><ele>204.5</ele><time>2026-03-28T17:06:08Z</time></trkpt><trkpt lat="46.143750942146006" lon="9.459435856205907"><ele>206.0</ele><time>2026-03-28T17:06:09Z</time></trkpt><trkpt lat="46.14360956114099" lon="9.45890441213074"><ele>205.0</ele><time>2026-03-28T17:06:10Z</time></trkpt><trkpt lat="46.143467713483965" lon="9.45838442444449"><ele>204.0</ele><time>2026-03-28T17:06:11Z</time></trkpt><trkpt lat="46.143328930838415" lon="9.457858044929706"><ele>203.5</ele><time>2026-03-28T17:06:12Z</time></trkpt><trkpt lat="46.14318980930382" lon="9.45734203099972"><ele>203.0</ele><time>2026-03-28T17:06:13Z</time></trkpt><trkpt lat="46.143052966446994" lon="9.456825707505901"><ele>203.0</ele><time>2026-03-28T17:06:14Z</time></trkpt><trkpt lat="46.14292223922943" lon="9.456316642177443"><ele>203.0</ele><time>2026-03-28T17:06:15Z</time></trkpt><trkpt lat="46.142803497981575" lon="9.455814740995493"><ele>203.0</ele><time>2026-03-28T17:06:16Z</time></trkpt><trkpt lat="46.14268775436494" lon="9.455315377417111"><ele>203.0</ele><time>2026-03-28T17:06:17Z</time></trkpt><trkpt lat="46.14257988617215" lon="9.45482317154331"><ele>202.5</ele><time>2026-03-28T17:06:18Z</time></trkpt><trkpt lat="46.14248155136509" lon="9.454333654853324"><ele>202.0</ele><time>2026-03-28T17:06:19Z</time></trkpt><trkpt lat="46.142380684088685" lon="9.453846595624341"><ele>202.5</ele><time>2026-03-28T17:06:20Z</time></trkpt><trkpt lat="46.14228408114254" lon="9.453368648532885"><ele>203.0</ele><time>2026-03-28T17:06:21Z</time></trkpt><trkpt lat="46.14217993454348" lon="9.452888547848948"><ele>203.0</ele><time>2026-03-28T17:06:22Z</time></trkpt><trkpt lat="46.142122923320976" lon="9.452382209717399"><ele>203.0</ele><time>2026-03-28T17:06:23Z</time></trkpt><trkpt lat="46.142061665285524" lon="9.451888825097422"><ele>203.0</ele><time>2026-03-28T17:06:24Z</time></trkpt><trkpt lat="46.142011067578444" lon="9.451393262344922"><ele>203.0</ele><time>2026-03-28T17:06:25Z</time></trkpt><trkpt lat="46.14197005799683" lon="9.450891145999233"><ele>202.5</ele><time>2026-03-28T17:06:26Z</time></trkpt><trkpt lat="46.14193680011189" lon="9.450384904723046"><ele>202.0</ele><time>2026-03-28T17:06:27Z</time></trkpt><trkpt lat="46.1419148978466" lon="9.449870195613853"><ele>202.0</ele><time>2026-03-28T17:06:28Z</time></trkpt><trkpt lat="46.14190275377467" lon="9.44934472993831"><ele>202.0</ele><time>2026-03-28T17:06:29Z</time></trkpt><trkpt lat="46.14189742919694" lon="9.448801239936738"><ele>201.5</ele><time>2026-03-28T17:06:30Z</time></trkpt><trkpt lat="46.14190252191027" lon="9.44824734092992"><ele>201.0</ele><time>2026-03-28T17:06:31Z</time></trkpt><trkpt lat="46.14191681955818" lon="9.447678279823188"><ele>201.0</ele><time>2026-03-28T17:06:32Z</time></trkpt><trkpt lat="46.14194289012156" lon="9.447096131269332"><ele>201.0</ele><time>2026-03-28T17:06:33Z</time></trkpt><trkpt lat="46.14198603551715" lon="9.446500398922272"><ele>201.5</ele><time>2026-03-28T17:06:34Z</time></trkpt><trkpt lat="46.14204233930474" lon="9.445888836687347"><ele>202.0</ele><time>2026-03-28T17:06:35Z</time></trkpt><trkpt lat="46.142112123822116" lon="9.445266941319925"><ele>202.0</ele><time>2026-03-28T17:06:36Z</time></trkpt><trkpt lat="46.142197855895304" lon="9.444637113459624"><ele>202.0</ele><time>2026-03-28T17:06:37Z</time></trkpt><trkpt lat="46.14230183640124" lon="9.44402236429076"><ele>202.0</ele><time>2026-03-28T17:06:38Z</time></trkpt><trkpt lat="46.14241939777515" lon="9.443416120680759"><ele>202.0</ele><time>2026-03-28T17:06:39Z</time></trkpt><trkpt lat="46.14253911574178" lon="9.442820054745786"><ele>201.5</ele><time>2026-03-28T17:06:40Z</time></trkpt><trkpt lat="46.142664047593755" lon="9.442228082231725"><ele>201.0</ele><time>2026-03-28T17:06:41Z</time></trkpt><trkpt lat="46.142793581948055" lon="9.441643142328775"><ele>200.5</ele><time>2026-03-28T17:06:42Z</time></trkpt><trkpt lat="46.142934181342824" lon="9.441065535353262"><ele>200.0</ele><time>2026-03-28T17:06:43Z</time></trkpt><trkpt lat="46.14308138589547" lon="9.44048347646415"><ele>200.5</ele><time>2026-03-28T17:06:44Z</time></trkpt><trkpt lat="46.14323730567963" lon="9.439904440245227"><ele>201.0</ele><time>2026-03-28T17:06:45Z</time></trkpt><trkpt lat="46.14337146241449" lon="9.439314190208254"><ele>200.5</ele><time>2026-03-28T17:06:46Z</time></trkpt><trkpt lat="46.143507031977194" lon="9.43871984368189"><ele>200.0</ele><time>2026-03-28T17:06:47Z</time></trkpt><trkpt lat="46.143644379995976" lon="9.438124723249192"><ele>200.0</ele><time>2026-03-28T17:06:48Z</time></trkpt><trkpt lat="46.1437821667131" lon="9.437530424253149"><ele>200.0</ele><time>2026-03-28T17:06:49Z</time></trkpt><trkpt lat="46.143916889063284" lon="9.436938483079707"><ele>200.0</ele><time>2026-03-28T17:06:50Z</time></trkpt><trkpt lat="46.144047905617796" lon="9.436349480323416"><ele>200.0</ele><time>2026-03-28T17:06:51Z</time></trkpt><trkpt lat="46.14417746420814" lon="9.435760372215723"><ele>200.5</ele><time>2026-03-28T17:06:52Z</time></trkpt><trkpt lat="46.14430921287891" lon="9.435178615057035"><ele>201.0</ele><time>2026-03-28T17:06:53Z</time></trkpt><trkpt lat="46.14443470765448" lon="9.434607198370177"><ele>201.0</ele><time>2026-03-28T17:06:54Z</time></trkpt><trkpt lat="46.14456875520676" lon="9.434031431850254"><ele>201.0</ele><time>2026-03-28T17:06:55Z</time></trkpt><trkpt lat="46.14468190928801" lon="9.433450578966971"><ele>201.0</ele><time>2026-03-28T17:06:56Z</time></trkpt><trkpt lat="46.1447888835553" lon="9.43287997322133"><ele>201.0</ele><time>2026-03-28T17:06:57Z</time></trkpt><trkpt lat="46.14489074917377" lon="9.432320294374929"><ele>201.0</ele><time>2026-03-28T17:06:58Z</time></trkpt><trkpt lat="46.14498480232149" lon="9.431772830916831"><ele>201.0</ele><time>2026-03-28T17:06:59Z</time></trkpt><trkpt lat="46.14506826676732" lon="9.431243557632389"><ele>201.0</ele><time>2026-03-28T17:07:00Z</time></trkpt><trkpt lat="46.14513586217138" lon="9.43072395849563"><ele>201.0</ele><time>2026-03-28T17:07:01Z</time></trkpt><trkpt lat="46.145187803945724" lon="9.43021871925904"><ele>200.5</ele><time>2026-03-28T17:07:02Z</time></trkpt><trkpt lat="46.14522216116839" lon="9.429728941251247"><ele>200.0</ele><time>2026-03-28T17:07:03Z</time></trkpt><trkpt lat="46.145246364615105" lon="9.429247032469771"><ele>200.5</ele><time>2026-03-28T17:07:04Z</time></trkpt><trkpt lat="46.145262084151284" lon="9.428780958800631"><ele>201.0</ele><time>2026-03-28T17:07:05Z</time></trkpt><trkpt lat="46.14526780149884" lon="9.428330529093897"><ele>201.5</ele><time>2026-03-28T17:07:06Z</time></trkpt><trkpt lat="46.145271804113555" lon="9.427891058003816"><ele>202.0</ele><time>2026-03-28T17:07:07Z</time></trkpt><trkpt lat="46.14526448258723" lon="9.427434675583296"><ele>201.5</ele><time>2026-03-28T17:07:08Z</time></trkpt><trkpt lat="46.145246548550894" lon="9.426963435768961"><ele>201.0</ele><time>2026-03-28T17:07:09Z</time></trkpt><trkpt lat="46.14521850433511" lon="9.426485764716924"><ele>200.5</ele><time>2026-03-28T17:07:10Z</time></trkpt><trkpt lat="46.145181793127826" lon="9.426002511919647"><ele>200.0</ele><time>2026-03-28T17:07:11Z</time></trkpt><trkpt lat="46.145136706303624" lon="9.425517466026012"><ele>200.0</ele><time>2026-03-28T17:07:12Z</time></trkpt><trkpt lat="46.14508234036463" lon="9.425022402195966"><ele>200.0</ele><time>2026-03-28T17:07:13Z</time></trkpt><trkpt lat="46.145023881986994" lon="9.424526762468577"><ele>200.5</ele><time>2026-03-28T17:07:14Z</time></trkpt><trkpt lat="46.14496308781448" lon="9.42403355777891"><ele>201.0</ele><time>2026-03-28T17:07:15Z</time></trkpt><trkpt lat="46.14490026130656" lon="9.42354330919755"><ele>200.5</ele><time>2026-03-28T17:07:16Z</time></trkpt><trkpt lat="46.144833251138145" lon="9.423059277338705"><ele>200.0</ele><time>2026-03-28T17:07:17Z</time></trkpt><trkpt lat="46.14476432856199" lon="9.422583331794291"><ele>199.5</ele><time>2026-03-28T17:07:18Z</time></trkpt><trkpt lat="46.14469576250452" lon="9.422119807539504"><ele>199.0</ele><time>2026-03-28T17:07:19Z</time></trkpt><trkpt lat="46.144633163930926" lon="9.421673202576246"><ele>198.5</ele><time>2026-03-28T17:07:20Z</time></trkpt><trkpt lat="46.14457583506149" lon="9.421246011029018"><ele>198.0</ele><time>2026-03-28T17:07:21Z</time></trkpt><trkpt lat="46.144514496492725" lon="9.420826856851525"><ele>198.5</ele><time>2026-03-28T17:07:22Z</time></trkpt><trkpt lat="46.14445405956697" lon="9.420408300554195"><ele>199.0</ele><time>2026-03-28T17:07:23Z</time></trkpt><trkpt lat="46.144395099712234" lon="9.419986856541218"><ele>200.0</ele><time>2026-03-28T17:07:24Z</time></trkpt><trkpt lat="46.14434108643672" lon="9.419564116252685"><ele>201.0</ele><time>2026-03-28T17:07:25Z</time></trkpt><trkpt lat="46.14428190952596" lon="9.419141998678747"><ele>200.5</ele><time>2026-03-28T17:07:26Z</time></trkpt><trkpt lat="46.14421957291738" lon="9.418724069174296"><ele>200.0</ele><time>2026-03-28T17:07:27Z</time></trkpt><trkpt lat="46.14415899078773" lon="9.418309560722934"><ele>201.0</ele><time>2026-03-28T17:07:28Z</time></trkpt><trkpt lat="46.14409909228651" lon="9.417904486141701"><ele>202.0</ele><time>2026-03-28T17:07:29Z</time></trkpt><trkpt lat="46.14405069822898" lon="9.417507461034237"><ele>200.5</ele><time>2026-03-28T17:07:30Z</time></trkpt><trkpt lat="46.14399898415202" lon="9.417112803112175"><ele>199.0</ele><time>2026-03-28T17:07:31Z</time></trkpt><trkpt lat="46.14394548372427" lon="9.416725756299096"><ele>199.0</ele><time>2026-03-28T17:07:32Z</time></trkpt><trkpt lat="46.143883449987534" lon="9.416350958740875"><ele>199.0</ele><time>2026-03-28T17:07:33Z</time></trkpt><trkpt lat="46.14381783107572" lon="9.415991672897839"><ele>200.0</ele><time>2026-03-28T17:07:34Z</time></trkpt><trkpt lat="46.14375457719187" lon="9.415646444428882"><ele>201.0</ele><time>2026-03-28T17:07:35Z</time></trkpt><trkpt lat="46.143696982391326" lon="9.415308951407072"><ele>201.0</ele><time>2026-03-28T17:07:36Z</time></trkpt><trkpt lat="46.143645780275236" lon="9.41498585222901"><ele>201.0</ele><time>2026-03-28T17:07:37Z</time></trkpt><trkpt lat="46.14360345985388" lon="9.414700296037317"><ele>201.0</ele><time>2026-03-28T17:07:38Z</time></trkpt><trkpt lat="46.14354479486105" lon="9.414395765355813"><ele>201.33333333333331</ele><time>2026-03-28T17:07:39Z</time></trkpt><trkpt lat="46.143467686694244" lon="9.414126692454689"><ele>201.66666666666666</ele><time>2026-03-28T17:07:40Z</time></trkpt><trkpt lat="46.14337541596415" lon="9.413865047338373"><ele>202.0</ele><time>2026-03-28T17:07:41Z</time></trkpt><trkpt lat="46.1432705130279" lon="9.413634107795875"><ele>202.0</ele><time>2026-03-28T17:07:42Z</time></trkpt><trkpt lat="46.143173480533115" lon="9.413425648201214"><ele>202.0</ele><time>2026-03-28T17:07:43Z</time></trkpt><trkpt lat="46.14309563691847" lon="9.413264669654438"><ele>202.0</ele><time>2026-03-28T17:07:44Z</time></trkpt><trkpt lat="46.14304458304653" lon="9.41312648870487"><ele>202.0</ele><time>2026-03-28T17:07:45Z</time></trkpt><trkpt lat="46.143016401804225" lon="9.41300507977238"><ele>201.5</ele><time>2026-03-28T17:07:46Z</time></trkpt><trkpt lat="46.143027927575204" lon="9.41284154069475"><ele>201.0</ele><time>2026-03-28T17:07:48Z</time></trkpt><trkpt lat="46.14309571268483" lon="9.412657783497197"><ele>200.5</ele><time>2026-03-28T17:07:50Z</time></trkpt><trkpt lat="46.14315435238859" lon="9.41253708028622"><ele>200.0</ele><time>2026-03-28T17:07:51Z</time></trkpt><trkpt lat="46.14321122605734" lon="9.412378924614725"><ele>200.0</ele><time>2026-03-28T17:07:52Z</time></trkpt><trkpt lat="46.14326055594173" lon="9.412197646859484"><ele>200.0</ele><time>2026-03-28T17:07:53Z</time></trkpt><trkpt lat="46.14329660004463" lon="9.411986780403451"><ele>200.0</ele><time>2026-03-28T17:07:54Z</time></trkpt><trkpt lat="46.143310081262136" lon="9.41174607178384"><ele>201.0</ele><time>2026-03-28T17:07:55Z</time></trkpt><trkpt lat="46.1432967692872" lon="9.41149148054188"><ele>202.0</ele><time>2026-03-28T17:07:56Z</time></trkpt><trkpt lat="46.143237844344824" lon="9.411257234943623"><ele>203.0</ele><time>2026-03-28T17:07:57Z</time></trkpt><trkpt lat="46.14314639899799" lon="9.411037801770192"><ele>203.0</ele><time>2026-03-28T17:07:58Z</time></trkpt><trkpt lat="46.14302758367806" lon="9.410833740229515"><ele>203.0</ele><time>2026-03-28T17:07:59Z</time></trkpt><trkpt lat="46.14289460236188" lon="9.410662804399719"><ele>203.0</ele><time>2026-03-28T17:08:00Z</time></trkpt><trkpt lat="46.14274900328205" lon="9.410532700234047"><ele>203.0</ele><time>2026-03-28T17:08:01Z</time></trkpt><trkpt lat="46.142583648073796" lon="9.410458017798225"><ele>203.0</ele><time>2026-03-28T17:08:02Z</time></trkpt><trkpt lat="46.14242033857555" lon="9.410431007430615"><ele>203.0</ele><time>2026-03-28T17:08:03Z</time></trkpt><trkpt lat="46.14225439451488" lon="9.410445649996603"><ele>202.66666666666669</ele><time>2026-03-28T17:08:04Z</time></trkpt><trkpt lat="46.14207972671586" lon="9.410499577155125"><ele>202.33333333333331</ele><time>2026-03-28T17:08:05Z</time></trkpt><trkpt lat="46.14191321855303" lon="9.410588946462692"><ele>202.0</ele><time>2026-03-28T17:08:06Z</time></trkpt><trkpt lat="46.141760881920206" lon="9.410720856698383"><ele>202.0</ele><time>2026-03-28T17:08:07Z</time></trkpt><trkpt lat="46.141625281439424" lon="9.410897581591822"><ele>202.0</ele><time>2026-03-28T17:08:08Z</time></trkpt><trkpt lat="46.141518262176234" lon="9.411114136095064"><ele>202.0</ele><time>2026-03-28T17:08:09Z</time></trkpt><trkpt lat="46.141444982319435" lon="9.411364803825265"><ele>202.33333333333331</ele><time>2026-03-28T17:08:10Z</time></trkpt><trkpt lat="46.141396653783715" lon="9.411619383812198"><ele>202.66666666666669</ele><time>2026-03-28T17:08:11Z</time></trkpt><trkpt lat="46.14139721394521" lon="9.411845906445109"><ele>203.0</ele><time>2026-03-28T17:08:12Z</time></trkpt><trkpt lat="46.141412856690074" lon="9.412045730951023"><ele>202.75</ele><time>2026-03-28T17:08:13Z</time></trkpt><trkpt lat="46.14144876254854" lon="9.41224345762727"><ele>202.5</ele><time>2026-03-28T17:08:14Z</time></trkpt><trkpt lat="46.141509916999844" lon="9.412421248320353"><ele>202.25</ele><time>2026-03-28T17:08:15Z</time></trkpt><trkpt lat="46.14158396593473" lon="9.412600357749039"><ele>202.0</ele><time>2026-03-28T17:08:16Z</time></trkpt><trkpt lat="46.1416722461614" lon="9.412775093322026"><ele>201.75</ele><time>2026-03-28T17:08:17Z</time></trkpt><trkpt lat="46.14177724709338" lon="9.412938262899376"><ele>201.5</ele><time>2026-03-28T17:08:18Z</time></trkpt><trkpt lat="46.14186512295056" lon="9.413096844704274"><ele>201.25</ele><time>2026-03-28T17:08:19Z</time></trkpt><trkpt lat="46.14192709320787" lon="9.413258608650366"><ele>201.0</ele><time>2026-03-28T17:08:20Z</time></trkpt><trkpt lat="46.14197192764044" lon="9.413437962574244"><ele>201.0</ele><time>2026-03-28T17:08:21Z</time></trkpt><trkpt lat="46.14200727455229" lon="9.413636832622545"><ele>201.0</ele><time>2026-03-28T17:08:22Z</time></trkpt><trkpt lat="46.14204540492844" lon="9.413830511217007"><ele>201.0</ele><time>2026-03-28T17:08:23Z</time></trkpt><trkpt lat="46.14210398564591" lon="9.414021182767147"><ele>201.0</ele><time>2026-03-28T17:08:24Z</time></trkpt><trkpt lat="46.14217770164726" lon="9.414207001669292"><ele>201.0</ele><time>2026-03-28T17:08:25Z</time></trkpt><trkpt lat="46.142245665585754" lon="9.41437869674605"><ele>201.0</ele><time>2026-03-28T17:08:26Z</time></trkpt><trkpt lat="46.14230549132117" lon="9.414540312676941"><ele>201.0</ele><time>2026-03-28T17:08:27Z</time></trkpt><trkpt lat="46.14235395413979" lon="9.414696325515084"><ele>201.0</ele><time>2026-03-28T17:08:28Z</time></trkpt><trkpt lat="46.14240758637314" lon="9.414840314139015"><ele>201.0</ele><time>2026-03-28T17:08:29Z</time></trkpt><trkpt lat="46.14246320907229" lon="9.414972694385922"><ele>201.0</ele><time>2026-03-28T17:08:30Z</time></trkpt><trkpt lat="46.14251360726907" lon="9.415098876501235"><ele>201.0</ele><time>2026-03-28T17:08:31Z</time></trkpt><trkpt lat="46.14253561696902" lon="9.415199971109725"><ele>201.0</ele><time>2026-03-28T17:08:32Z</time></trkpt><trkpt lat="46.14254738531046" lon="9.415379716513604"><ele>201.0</ele><time>2026-03-28T17:08:34Z</time></trkpt><trkpt lat="46.14253269300102" lon="9.4154886267597"><ele>201.0</ele><time>2026-03-28T17:08:35Z</time></trkpt><trkpt lat="46.14250432872371" lon="9.415613309804609"><ele>201.0</ele><time>2026-03-28T17:08:36Z</time></trkpt><trkpt lat="46.14248553374285" lon="9.415710315369413"><ele>201.0</ele><time>2026-03-28T17:08:37Z</time></trkpt><trkpt lat="46.14248715820963" lon="9.415807342873393"><ele>201.0</ele><time>2026-03-28T17:08:38Z</time></trkpt><trkpt lat="46.142490448934865" lon="9.415928726236276"><ele>201.0</ele><time>2026-03-28T17:08:40Z</time></trkpt><trkpt lat="46.142420336445056" lon="9.415988627541308"><ele>201.0</ele><time>2026-03-28T17:08:41Z</time></trkpt><trkpt lat="46.14235853795514" lon="9.416049726294139"><ele>201.0</ele><time>2026-03-28T17:08:43Z</time></trkpt><trkpt lat="46.14229857745659" lon="9.416103885871607"><ele>201.0</ele><time>2026-03-28T17:08:45Z</time></trkpt><trkpt lat="46.14223790768909" lon="9.416155308084472"><ele>201.0</ele><time>2026-03-28T17:08:47Z</time></trkpt><trkpt lat="46.14216637773122" lon="9.41621531886072"><ele>201.0</ele><time>2026-03-28T17:08:49Z</time></trkpt><trkpt lat="46.14207172124759" lon="9.416256052896744"><ele>201.0</ele><time>2026-03-28T17:08:51Z</time></trkpt><trkpt lat="46.141947864958176" lon="9.416210278713205"><ele>201.0</ele><time>2026-03-28T17:08:53Z</time></trkpt><trkpt lat="46.14185223658002" lon="9.416105485866353"><ele>201.0</ele><time>2026-03-28T17:08:55Z</time></trkpt><trkpt lat="46.141810913977636" lon="9.415977301344677"><ele>201.0</ele><time>2026-03-28T17:08:57Z</time></trkpt><trkpt lat="46.14181874728283" lon="9.415807648396576"><ele>201.0</ele><time>2026-03-28T17:08:59Z</time></trkpt><trkpt lat="46.14184060475217" lon="9.415721032594712"><ele>201.0</ele><time>2026-03-28T17:09:00Z</time></trkpt><trkpt lat="46.14189282035803" lon="9.41554931233783"><ele>200.8</ele><time>2026-03-28T17:09:02Z</time></trkpt><trkpt lat="46.14188424085636" lon="9.415442804855868"><ele>200.60000000000002</ele><time>2026-03-28T17:09:03Z</time></trkpt><trkpt lat="46.141856180008716" lon="9.415283531660531"><ele>200.4</ele><time>2026-03-28T17:09:05Z</time></trkpt><trkpt lat="46.14185091235572" lon="9.415109735368741"><ele>200.2</ele><time>2026-03-28T17:09:07Z</time></trkpt><trkpt lat="46.14184206818264" lon="9.415009733768558"><ele>200.0</ele><time>2026-03-28T17:09:08Z</time></trkpt><trkpt lat="46.14182280223081" lon="9.414885991318627"><ele>200.00000000000003</ele><time>2026-03-28T17:09:09Z</time></trkpt><trkpt lat="46.14181604972022" lon="9.414755456368653"><ele>200.0</ele><time>2026-03-28T17:09:10Z</time></trkpt><trkpt lat="46.14180696796076" lon="9.414617359367332"><ele>200.0</ele><time>2026-03-28T17:09:11Z</time></trkpt><trkpt lat="46.141798658086245" lon="9.414493136773805"><ele>200.0</ele><time>2026-03-28T17:09:12Z</time></trkpt><trkpt lat="46.14180470786873" lon="9.414377105024883"><ele>200.00000000000003</ele><time>2026-03-28T17:09:13Z</time></trkpt><trkpt lat="46.14180433921197" lon="9.41427592083379"><ele>200.0</ele><time>2026-03-28T17:09:15Z</time></trkpt><trkpt lat="46.14175927433098" lon="9.414152478670625"><ele>200.0</ele><time>2026-03-28T17:09:17Z</time></trkpt><trkpt lat="46.14154114798271" lon="9.413948151341616"><ele>200.0</ele><time>2026-03-28T17:09:19Z</time></trkpt><trkpt lat="46.14149648158182" lon="9.413857081159442"><ele>200.0</ele><time>2026-03-28T17:09:21Z</time></trkpt><trkpt lat="46.14150399353142" lon="9.413619768983152"><ele>200.00000000000003</ele><time>2026-03-28T17:09:23Z</time></trkpt><trkpt lat="46.14144442270711" lon="9.413567520709922"><ele>200.0</ele><time>2026-03-28T17:09:25Z</time></trkpt><trkpt lat="46.141337418461376" lon="9.413518912566914"><ele>200.0</ele><time>2026-03-28T17:09:27Z</time></trkpt><trkpt lat="46.14124967679201" lon="9.413479971657692"><ele>200.0</ele><time>2026-03-28T17:09:29Z</time></trkpt><trkpt lat="46.141315555426225" lon="9.413509209307183"><ele>200.00000000000003</ele><time>2026-03-28T17:10:36Z</time></trkpt><trkpt lat="46.14132790510901" lon="9.413398077709203"><ele>200.0</ele><time>2026-03-28T17:14:08.001Z</time></trkpt><trkpt lat="46.1414485349561" lon="9.413339876326392"><ele>200.0</ele><time>2026-03-28T17:25:27.999Z</time></trkpt><trkpt lat="46.14154072309265" lon="9.413414704423936"><ele>200.0</ele><time>2026-03-28T17:25:29.999Z</time></trkpt><trkpt lat="46.14159338258227" lon="9.41349500771647"><ele>200.0</ele><time>2026-03-28T17:25:31.999Z</time></trkpt><trkpt lat="46.14165506514678" lon="9.41359861123253"><ele>200.0</ele><time>2026-03-28T17:25:34Z</time></trkpt><trkpt lat="46.14169381255297" lon="9.413725697665878"><ele>200.0</ele><time>2026-03-28T17:25:36Z</time></trkpt><trkpt lat="46.14171665893727" lon="9.413875082307218"><ele>200.0</ele><time>2026-03-28T17:25:38Z</time></trkpt><trkpt lat="46.141730875115854" lon="9.414036020281591"><ele>200.0</ele><time>2026-03-28T17:25:40Z</time></trkpt><trkpt lat="46.141738794879636" lon="9.414213884668033"><ele>200.0</ele><time>2026-03-28T17:25:42Z</time></trkpt><trkpt lat="46.14174620889538" lon="9.414329844532208"><ele>200.0</ele><time>2026-03-28T17:25:43Z</time></trkpt><trkpt lat="46.14175637739054" lon="9.414442300472706"><ele>200.0</ele><time>2026-03-28T17:25:44Z</time></trkpt><trkpt lat="46.141766575727004" lon="9.414545693059786"><ele>200.00000000000003</ele><time>2026-03-28T17:25:45Z</time></trkpt><trkpt lat="46.141777881286394" lon="9.414651068370075"><ele>200.0</ele><time>2026-03-28T17:25:46Z</time></trkpt><trkpt lat="46.1417906364591" lon="9.414753450767144"><ele>200.0</ele><time>2026-03-28T17:25:47Z</time></trkpt><trkpt lat="46.141800919062675" lon="9.4148596933284"><ele>200.0</ele><time>2026-03-28T17:25:48Z</time></trkpt><trkpt lat="46.14181161309562" lon="9.414967777945499"><ele>200.00000000000003</ele><time>2026-03-28T17:25:49Z</time></trkpt><trkpt lat="46.14182473851346" lon="9.415089585034472"><ele>200.0</ele><time>2026-03-28T17:25:50Z</time></trkpt><trkpt lat="46.14183318879999" lon="9.415218904919293"><ele>200.00000000000003</ele><time>2026-03-28T17:25:51Z</time></trkpt><trkpt lat="46.14183775352789" lon="9.41534543946646"><ele>200.0</ele><time>2026-03-28T17:25:52Z</time></trkpt><trkpt lat="46.14183941807048" lon="9.415459984101979"><ele>200.0</ele><time>2026-03-28T17:25:53Z</time></trkpt><trkpt lat="46.141847048164976" lon="9.415569313900768"><ele>200.0</ele><time>2026-03-28T17:25:54Z</time></trkpt><trkpt lat="46.14183626050269" lon="9.415669147216509"><ele>200.00000000000003</ele><time>2026-03-28T17:25:55Z</time></trkpt><trkpt lat="46.14181190259784" lon="9.415766387839176"><ele>200.0</ele><time>2026-03-28T17:25:56Z</time></trkpt><trkpt lat="46.141789815853926" lon="9.415871816299454"><ele>200.2</ele><time>2026-03-28T17:25:57Z</time></trkpt><trkpt lat="46.14177658335986" lon="9.415971194562742"><ele>200.4</ele><time>2026-03-28T17:25:58Z</time></trkpt><trkpt lat="46.14178453468522" lon="9.41611056575043"><ele>200.60000000000002</ele><time>2026-03-28T17:26:00Z</time></trkpt><trkpt lat="46.141730921772066" lon="9.416306588249183"><ele>200.8</ele><time>2026-03-28T17:26:02Z</time></trkpt><trkpt lat="46.141701966992734" lon="9.416428848307756"><ele>201.0</ele><time>2026-03-28T17:26:03Z</time></trkpt><trkpt lat="46.14169207216585" lon="9.416544988087967"><ele>201.16666666666666</ele><time>2026-03-28T17:26:04Z</time></trkpt><trkpt lat="46.141731133516735" lon="9.416644732208946"><ele>201.33333333333331</ele><time>2026-03-28T17:26:05Z</time></trkpt><trkpt lat="46.141781779671106" lon="9.416730065179705"><ele>201.5</ele><time>2026-03-28T17:26:06Z</time></trkpt><trkpt lat="46.14185059072771" lon="9.416775370331738"><ele>201.66666666666666</ele><time>2026-03-28T17:26:07Z</time></trkpt><trkpt lat="46.141928355684264" lon="9.416766736569745"><ele>201.83333333333331</ele><time>2026-03-28T17:26:08Z</time></trkpt><trkpt lat="46.14199771151638" lon="9.41671433736858"><ele>202.0</ele><time>2026-03-28T17:26:09Z</time></trkpt><trkpt lat="46.142053940372094" lon="9.416631385403456"><ele>201.99999999999997</ele><time>2026-03-28T17:26:10Z</time></trkpt><trkpt lat="46.14208442942977" lon="9.416522879581896"><ele>202.0</ele><time>2026-03-28T17:26:11Z</time></trkpt><trkpt lat="46.142109637576105" lon="9.416403959817771"><ele>202.0</ele><time>2026-03-28T17:26:12Z</time></trkpt><trkpt lat="46.14211426109904" lon="9.416288222979507"><ele>202.0</ele><time>2026-03-28T17:26:13Z</time></trkpt><trkpt lat="46.14220223556919" lon="9.41621729834772"><ele>201.99999999999997</ele><time>2026-03-28T17:26:14Z</time></trkpt><trkpt lat="46.14227175572165" lon="9.416147185240169"><ele>202.0</ele><time>2026-03-28T17:26:15Z</time></trkpt><trkpt lat="46.142343396551766" lon="9.416098548048573"><ele>201.83333333333331</ele><time>2026-03-28T17:26:16Z</time></trkpt><trkpt lat="46.142406777304544" lon="9.416057254748013"><ele>201.66666666666666</ele><time>2026-03-28T17:26:17Z</time></trkpt><trkpt lat="46.14250895478041" lon="9.416018148920193"><ele>201.5</ele><time>2026-03-28T17:26:19Z</time></trkpt><trkpt lat="46.14262393781434" lon="9.416032229448549"><ele>201.33333333333331</ele><time>2026-03-28T17:26:21Z</time></trkpt><trkpt lat="46.142690510218095" lon="9.416057164682517"><ele>201.16666666666666</ele><time>2026-03-28T17:26:22Z</time></trkpt><trkpt lat="46.142765582751444" lon="9.41607270055886"><ele>201.0</ele><time>2026-03-28T17:26:23Z</time></trkpt><trkpt lat="46.142839111703495" lon="9.416056643449684"><ele>201.0</ele><time>2026-03-28T17:26:24Z</time></trkpt><trkpt lat="46.14296430759014" lon="9.415959367372002"><ele>201.0</ele><time>2026-03-28T17:26:26Z</time></trkpt><trkpt lat="46.143020451271774" lon="9.415844004176256"><ele>201.0</ele><time>2026-03-28T17:26:27Z</time></trkpt><trkpt lat="46.143049228554894" lon="9.415728483088973"><ele>201.0</ele><time>2026-03-28T17:26:28Z</time></trkpt><trkpt lat="46.14305347576999" lon="9.415612591831225"><ele>201.0</ele><time>2026-03-28T17:26:29Z</time></trkpt><trkpt lat="46.1430131866965" lon="9.415498031814346"><ele>201.0</ele><time>2026-03-28T17:26:30Z</time></trkpt><trkpt lat="46.14295810675978" lon="9.41538159379147"><ele>201.0</ele><time>2026-03-28T17:26:31Z</time></trkpt><trkpt lat="46.14287531873909" lon="9.41527668666332"><ele>201.0</ele><time>2026-03-28T17:26:32Z</time></trkpt><trkpt lat="46.14279805467451" lon="9.415160288456038"><ele>201.0</ele><time>2026-03-28T17:26:33Z</time></trkpt><trkpt lat="46.1427161528964" lon="9.415021702967294"><ele>201.0</ele><time>2026-03-28T17:26:34Z</time></trkpt><trkpt lat="46.14264425346336" lon="9.414859819414492"><ele>201.0</ele><time>2026-03-28T17:26:35Z</time></trkpt><trkpt lat="46.1425755604665" lon="9.414712263571682"><ele>201.0</ele><time>2026-03-28T17:26:36Z</time></trkpt><trkpt lat="46.14250118173468" lon="9.414550411769008"><ele>201.0</ele><time>2026-03-28T17:26:37Z</time></trkpt><trkpt lat="46.14242078838108" lon="9.414400166803032"><ele>201.0</ele><time>2026-03-28T17:26:38Z</time></trkpt><trkpt lat="46.14235067140039" lon="9.414251212196003"><ele>201.0</ele><time>2026-03-28T17:26:39Z</time></trkpt><trkpt lat="46.14226963847931" lon="9.414081143880004"><ele>201.0</ele><time>2026-03-28T17:26:40Z</time></trkpt><trkpt lat="46.14219696674641" lon="9.413931060633752"><ele>201.0</ele><time>2026-03-28T17:26:41Z</time></trkpt><trkpt lat="46.14213287285203" lon="9.41378952628905"><ele>201.0</ele><time>2026-03-28T17:26:42Z</time></trkpt><trkpt lat="46.14208742467514" lon="9.413646010565767"><ele>201.0</ele><time>2026-03-28T17:26:43Z</time></trkpt><trkpt lat="46.14209450118345" lon="9.413493537567732"><ele>201.0</ele><time>2026-03-28T17:26:44Z</time></trkpt><trkpt lat="46.142123814196644" lon="9.413379084595187"><ele>201.0</ele><time>2026-03-28T17:26:45Z</time></trkpt><trkpt lat="46.14217964574514" lon="9.413286740861224"><ele>201.0</ele><time>2026-03-28T17:26:46Z</time></trkpt><trkpt lat="46.14224302635451" lon="9.4132086446062"><ele>201.0</ele><time>2026-03-28T17:26:47Z</time></trkpt><trkpt lat="46.142327879563936" lon="9.413155081164007"><ele>201.25</ele><time>2026-03-28T17:26:48Z</time></trkpt><trkpt lat="46.14244390461413" lon="9.413106350029697"><ele>201.5</ele><time>2026-03-28T17:26:49Z</time></trkpt><trkpt lat="46.14256512766468" lon="9.413061206969202"><ele>201.75</ele><time>2026-03-28T17:26:50Z</time></trkpt><trkpt lat="46.14271689489979" lon="9.41299282086386"><ele>202.0</ele><time>2026-03-28T17:26:51Z</time></trkpt><trkpt lat="46.14285456439139" lon="9.412881047321324"><ele>201.33333333333331</ele><time>2026-03-28T17:26:52Z</time></trkpt><trkpt lat="46.143007686473815" lon="9.412757775900587"><ele>200.66666666666669</ele><time>2026-03-28T17:26:53Z</time></trkpt><trkpt lat="46.143112361331724" lon="9.412590621983517"><ele>200.0</ele><time>2026-03-28T17:26:54Z</time></trkpt><trkpt lat="46.14319850658208" lon="9.412415439938274"><ele>200.0</ele><time>2026-03-28T17:26:55Z</time></trkpt><trkpt lat="46.14325281570047" lon="9.412204753777957"><ele>200.0</ele><time>2026-03-28T17:26:56Z</time></trkpt><trkpt lat="46.14329536891868" lon="9.411990450116397"><ele>200.0</ele><time>2026-03-28T17:26:57Z</time></trkpt><trkpt lat="46.1433072436264" lon="9.411785567535127"><ele>200.75</ele><time>2026-03-28T17:26:58Z</time></trkpt><trkpt lat="46.14327486246569" lon="9.411587886938815"><ele>201.5</ele><time>2026-03-28T17:26:59Z</time></trkpt><trkpt lat="46.14325093772619" lon="9.411403722486364"><ele>202.25</ele><time>2026-03-28T17:27:00Z</time></trkpt><trkpt lat="46.143196877547055" lon="9.411210404915726"><ele>203.0</ele><time>2026-03-28T17:27:01Z</time></trkpt><trkpt lat="46.14313264113523" lon="9.411045481768067"><ele>203.0</ele><time>2026-03-28T17:27:02Z</time></trkpt><trkpt lat="46.143048186149684" lon="9.410894997133385"><ele>203.0</ele><time>2026-03-28T17:27:03Z</time></trkpt><trkpt lat="46.14295962317229" lon="9.410764045838961"><ele>203.0</ele><time>2026-03-28T17:27:04Z</time></trkpt><trkpt lat="46.14285826028281" lon="9.410658288409078"><ele>203.0</ele><time>2026-03-28T17:27:05Z</time></trkpt><trkpt lat="46.14275236874325" lon="9.410572428418805"><ele>203.0</ele><time>2026-03-28T17:27:06Z</time></trkpt><trkpt lat="46.14263736838181" lon="9.410504960310384"><ele>203.0</ele><time>2026-03-28T17:27:07Z</time></trkpt><trkpt lat="46.14250969181272" lon="9.410461831113983"><ele>203.0</ele><time>2026-03-28T17:27:08Z</time></trkpt><trkpt lat="46.14237663794741" lon="9.410436709222129"><ele>203.0</ele><time>2026-03-28T17:27:09Z</time></trkpt><trkpt lat="46.142253525020884" lon="9.41043791006409"><ele>203.0</ele><time>2026-03-28T17:27:10Z</time></trkpt><trkpt lat="46.14213131111818" lon="9.410452660029815"><ele>203.0</ele><time>2026-03-28T17:27:10.999Z</time></trkpt><trkpt lat="46.14201141920004" lon="9.410462129549934"><ele>203.0</ele><time>2026-03-28T17:27:11.999Z</time></trkpt><trkpt lat="46.141882754899015" lon="9.410446741615365"><ele>203.0</ele><time>2026-03-28T17:27:12.999Z</time></trkpt><trkpt lat="46.14173458491403" lon="9.410405085131357"><ele>203.0</ele><time>2026-03-28T17:27:13.999Z</time></trkpt><trkpt lat="46.141577976351805" lon="9.410342088733037"><ele>203.0</ele><time>2026-03-28T17:27:14.999Z</time></trkpt><trkpt lat="46.141409206951124" lon="9.410251632279007"><ele>203.0</ele><time>2026-03-28T17:27:15.999Z</time></trkpt><trkpt lat="46.14123417429377" lon="9.41012474664079"><ele>202.66666666666669</ele><time>2026-03-28T17:27:16.999Z</time></trkpt><trkpt lat="46.141067671992595" lon="9.409983146177671"><ele>202.33333333333331</ele><time>2026-03-28T17:27:17.999Z</time></trkpt><trkpt lat="46.14091480242674" lon="9.409820710400435"><ele>202.0</ele><time>2026-03-28T17:27:18.999Z</time></trkpt><trkpt lat="46.14074889427238" lon="9.40973030516073"><ele>202.33333333333331</ele><time>2026-03-28T17:27:19.999Z</time></trkpt><trkpt lat="46.140576521686164" lon="9.409658120325957"><ele>202.66666666666669</ele><time>2026-03-28T17:27:20.999Z</time></trkpt><trkpt lat="46.140377288414996" lon="9.409595226869712"><ele>203.0</ele><time>2026-03-28T17:27:21.999Z</time></trkpt><trkpt lat="46.14011528885058" lon="9.409577025052956"><ele>203.0</ele><time>2026-03-28T17:27:22.999Z</time></trkpt><trkpt lat="46.13990929801621" lon="9.409553360459693"><ele>203.0</ele><time>2026-03-28T17:27:23.999Z</time></trkpt><trkpt lat="46.13970955875315" lon="9.409542477889275"><ele>203.0</ele><time>2026-03-28T17:27:24.999Z</time></trkpt><trkpt lat="46.13950718123989" lon="9.409525047241605"><ele>203.0</ele><time>2026-03-28T17:27:25.999Z</time></trkpt><trkpt lat="46.13930348171566" lon="9.409491621951851"><ele>203.0</ele><time>2026-03-28T17:27:26.999Z</time></trkpt><trkpt lat="46.13910141501763" lon="9.409430753305049"><ele>203.0</ele><time>2026-03-28T17:27:27.999Z</time></trkpt><trkpt lat="46.138901723970406" lon="9.409350673441189"><ele>203.0</ele><time>2026-03-28T17:27:28.999Z</time></trkpt><trkpt lat="46.13871311822208" lon="9.409238124974145"><ele>203.0</ele><time>2026-03-28T17:27:29.999Z</time></trkpt><trkpt lat="46.138528408837296" lon="9.409095568625686"><ele>203.0</ele><time>2026-03-28T17:27:30.999Z</time></trkpt><trkpt lat="46.138360824088195" lon="9.408918874379468"><ele>205.0</ele><time>2026-03-28T17:27:31.999Z</time></trkpt><trkpt lat="46.13819261499163" lon="9.408722670816259"><ele>207.0</ele><time>2026-03-28T17:27:32.999Z</time></trkpt><trkpt lat="46.13799846513488" lon="9.408518346005156"><ele>207.0</ele><time>2026-03-28T17:27:33.999Z</time></trkpt><trkpt lat="46.137791588047065" lon="9.408305143002467"><ele>207.0</ele><time>2026-03-28T17:27:34.999Z</time></trkpt><trkpt lat="46.13757967155846" lon="9.4080960291635"><ele>208.5</ele><time>2026-03-28T17:27:35.999Z</time></trkpt><trkpt lat="46.13736200226238" lon="9.407880974153677"><ele>210.0</ele><time>2026-03-28T17:27:36.999Z</time></trkpt><trkpt lat="46.1371423009798" lon="9.407661175948325"><ele>210.0</ele><time>2026-03-28T17:27:37.999Z</time></trkpt><trkpt lat="46.13692658067466" lon="9.407438308217962"><ele>210.0</ele><time>2026-03-28T17:27:38.999Z</time></trkpt><trkpt lat="46.136719890820046" lon="9.407213320744495"><ele>214.5</ele><time>2026-03-28T17:27:40Z</time></trkpt><trkpt lat="46.13651498877905" lon="9.406998301960481"><ele>219.0</ele><time>2026-03-28T17:27:41Z</time></trkpt><trkpt lat="46.1363114836262" lon="9.40678008516368"><ele>219.0</ele><time>2026-03-28T17:27:42Z</time></trkpt><trkpt lat="46.136110716654734" lon="9.406563906505857"><ele>219.0</ele><time>2026-03-28T17:27:43Z</time></trkpt><trkpt lat="46.135903722943226" lon="9.406346267114623"><ele>225.5</ele><time>2026-03-28T17:27:44Z</time></trkpt><trkpt lat="46.13570259358396" lon="9.40613286211104"><ele>232.0</ele><time>2026-03-28T17:27:45Z</time></trkpt><trkpt lat="46.13549831347308" lon="9.405909120380697"><ele>232.0</ele><time>2026-03-28T17:27:46Z</time></trkpt><trkpt lat="46.13530032320173" lon="9.405701902000311"><ele>232.0</ele><time>2026-03-28T17:27:47Z</time></trkpt><trkpt lat="46.1350999058662" lon="9.405483631969787"><ele>232.0</ele><time>2026-03-28T17:27:48Z</time></trkpt><trkpt lat="46.134901937664694" lon="9.40527264879571"><ele>232.0</ele><time>2026-03-28T17:27:49Z</time></trkpt><trkpt lat="46.13470989584707" lon="9.405052684511725"><ele>237.5</ele><time>2026-03-28T17:27:50Z</time></trkpt><trkpt lat="46.13452240746466" lon="9.404825218691844"><ele>243.0</ele><time>2026-03-28T17:27:51Z</time></trkpt><trkpt lat="46.134330613344545" lon="9.404591408340796"><ele>243.0</ele><time>2026-03-28T17:27:52.022Z</time></trkpt><trkpt lat="46.1341697883465" lon="9.404334654352686"><ele>243.0</ele><time>2026-03-28T17:27:53.016Z</time></trkpt><trkpt lat="46.13402236006897" lon="9.404063586424515"><ele>248.5</ele><time>2026-03-28T17:27:54.019Z</time></trkpt><trkpt lat="46.133888332896795" lon="9.403791077145717"><ele>254.0</ele><time>2026-03-28T17:27:55.016Z</time></trkpt><trkpt lat="46.133769508603976" lon="9.403507790077365"><ele>255.0</ele><time>2026-03-28T17:27:56.019Z</time></trkpt><trkpt lat="46.13321926914727" lon="9.401717428126746"><ele>255.0</ele><time>2026-03-28T17:28:01Z</time></trkpt><trkpt lat="46.13311144766657" lon="9.401355637287327"><ele>255.0</ele><time>2026-03-28T17:28:02Z</time></trkpt><trkpt lat="46.13302419013874" lon="9.40104608271883"><ele>252.5</ele><time>2026-03-28T17:28:03Z</time></trkpt><trkpt lat="46.132927739233494" lon="9.40068366413933"><ele>250.0</ele><time>2026-03-28T17:28:04Z</time></trkpt><trkpt lat="46.13281316317385" lon="9.40033731414243"><ele>250.0</ele><time>2026-03-28T17:28:05Z</time></trkpt><trkpt lat="46.132708573865706" lon="9.39998470379243"><ele>250.0</ele><time>2026-03-28T17:28:06Z</time></trkpt><trkpt lat="46.132612796204974" lon="9.399595397253098"><ele>250.5</ele><time>2026-03-28T17:28:07Z</time></trkpt><trkpt lat="46.132538807563385" lon="9.399270771846597"><ele>251.0</ele><time>2026-03-28T17:28:08Z</time></trkpt><trkpt lat="46.13246336971257" lon="9.398893811882477"><ele>251.5</ele><time>2026-03-28T17:28:09Z</time></trkpt><trkpt lat="46.13242153539233" lon="9.398521695131466"><ele>252.0</ele><time>2026-03-28T17:28:10Z</time></trkpt><trkpt lat="46.13237851398167" lon="9.398147330932348"><ele>266.0</ele><time>2026-03-28T17:28:11Z</time></trkpt><trkpt lat="46.13235063003052" lon="9.397774232853628"><ele>280.0</ele><time>2026-03-28T17:28:12Z</time></trkpt><trkpt lat="46.13234032267117" lon="9.397397584371237"><ele>278.0</ele><time>2026-03-28T17:28:13Z</time></trkpt><trkpt lat="46.132348592748585" lon="9.39701677638049"><ele>276.0</ele><time>2026-03-28T17:28:14Z</time></trkpt><trkpt lat="46.13237737867068" lon="9.396637826796383"><ele>271.5</ele><time>2026-03-28T17:28:15Z</time></trkpt><trkpt lat="46.13242797852092" lon="9.396304479525517"><ele>267.0</ele><time>2026-03-28T17:28:16Z</time></trkpt><trkpt lat="46.132483035918526" lon="9.395975384554776"><ele>267.0</ele><time>2026-03-28T17:28:17Z</time></trkpt><trkpt lat="46.13253435585685" lon="9.395639915093804"><ele>267.0</ele><time>2026-03-28T17:28:18.02Z</time></trkpt><trkpt lat="46.13258551725671" lon="9.39530681534624"><ele>269.5</ele><time>2026-03-28T17:28:19.014Z</time></trkpt><trkpt lat="46.13264629729616" lon="9.394961609493562"><ele>272.0</ele><time>2026-03-28T17:28:20.016Z</time></trkpt><trkpt lat="46.13270311791231" lon="9.394617170337582"><ele>273.0</ele><time>2026-03-28T17:28:21.019Z</time></trkpt><trkpt lat="46.13275361076006" lon="9.39427856184615"><ele>274.0</ele><time>2026-03-28T17:28:22.016Z</time></trkpt><trkpt lat="46.133252323341644" lon="9.391453128887761"><ele>278.0</ele><time>2026-03-28T17:28:25.318Z</time></trkpt><trkpt lat="46.133513934953264" lon="9.389635166162057"><ele>278.0</ele><time>2026-03-28T17:28:32Z</time></trkpt><trkpt lat="46.13358381271232" lon="9.389200068868709"><ele>278.0</ele><time>2026-03-28T17:28:33Z</time></trkpt><trkpt lat="46.133667606804146" lon="9.388861281269829"><ele>278.0</ele><time>2026-03-28T17:28:34Z</time></trkpt><trkpt lat="46.13373636757692" lon="9.388428535886604"><ele>278.0</ele><time>2026-03-28T17:28:35Z</time></trkpt><trkpt lat="46.13378042933379" lon="9.387987062184292"><ele>278.0</ele><time>2026-03-28T17:28:36Z</time></trkpt><trkpt lat="46.13380165331826" lon="9.387539723582236"><ele>278.0</ele><time>2026-03-28T17:28:37Z</time></trkpt><trkpt lat="46.133823855306304" lon="9.387096417798897"><ele>277.0</ele><time>2026-03-28T17:28:38Z</time></trkpt><trkpt lat="46.133814429754196" lon="9.386648444255094"><ele>276.0</ele><time>2026-03-28T17:28:39Z</time></trkpt><trkpt lat="46.133793908456866" lon="9.38620317414774"><ele>276.0</ele><time>2026-03-28T17:28:40Z</time></trkpt><trkpt lat="46.13374413893479" lon="9.385742741374951"><ele>276.0</ele><time>2026-03-28T17:28:41Z</time></trkpt><trkpt lat="46.13368579459308" lon="9.385284769456426"><ele>274.0</ele><time>2026-03-28T17:28:42Z</time></trkpt><trkpt lat="46.13359892922709" lon="9.384835027976301"><ele>272.0</ele><time>2026-03-28T17:28:43Z</time></trkpt><trkpt lat="46.13349961883918" lon="9.384376843493563"><ele>271.0</ele><time>2026-03-28T17:28:44Z</time></trkpt><trkpt lat="46.133376692119604" lon="9.383930167983236"><ele>270.0</ele><time>2026-03-28T17:28:45Z</time></trkpt><trkpt lat="46.13323324217334" lon="9.383504098783975"><ele>273.0</ele><time>2026-03-28T17:28:46Z</time></trkpt><trkpt lat="46.133070521961024" lon="9.383078504943098"><ele>276.0</ele><time>2026-03-28T17:28:47Z</time></trkpt><trkpt lat="46.13289287211214" lon="9.382668825409805"><ele>276.0</ele><time>2026-03-28T17:28:48Z</time></trkpt><trkpt lat="46.13270362607091" lon="9.382277321331536"><ele>276.0</ele><time>2026-03-28T17:28:49Z</time></trkpt><trkpt lat="46.13250604199652" lon="9.381884614671034"><ele>277.5</ele><time>2026-03-28T17:28:50Z</time></trkpt><trkpt lat="46.13231489938637" lon="9.381494927237995"><ele>279.0</ele><time>2026-03-28T17:28:51Z</time></trkpt><trkpt lat="46.13212717662153" lon="9.381100925289378"><ele>279.0</ele><time>2026-03-28T17:28:52Z</time></trkpt><trkpt lat="46.13194624199541" lon="9.380719765558316"><ele>279.0</ele><time>2026-03-28T17:28:53Z</time></trkpt><trkpt lat="46.13176715369221" lon="9.380338715066166"><ele>280.5</ele><time>2026-03-28T17:28:54Z</time></trkpt><trkpt lat="46.13159037762155" lon="9.379967373059833"><ele>282.0</ele><time>2026-03-28T17:28:55Z</time></trkpt><trkpt lat="46.13142284063409" lon="9.379592717175651"><ele>282.0</ele><time>2026-03-28T17:28:56Z</time></trkpt><trkpt lat="46.13125824549224" lon="9.379212007984986"><ele>282.0</ele><time>2026-03-28T17:28:57Z</time></trkpt><trkpt lat="46.13109189020619" lon="9.37882199439067"><ele>279.5</ele><time>2026-03-28T17:28:58.016Z</time></trkpt><trkpt lat="46.130926828652846" lon="9.378437716530863"><ele>277.0</ele><time>2026-03-28T17:28:59.019Z</time></trkpt><trkpt lat="46.130762827228736" lon="9.378056933595284"><ele>278.5</ele><time>2026-03-28T17:29:00.014Z</time></trkpt><trkpt lat="46.130599190494266" lon="9.377673220618949"><ele>280.0</ele><time>2026-03-28T17:29:01.014Z</time></trkpt><trkpt lat="46.12921541657507" lon="9.374151182205678"><ele>268.0</ele><time>2026-03-28T17:29:05.32Z</time></trkpt><trkpt lat="46.128876730842634" lon="9.372255792850044"><ele>267.5</ele><time>2026-03-28T17:29:12.999Z</time></trkpt><trkpt lat="46.12879694137292" lon="9.371744758299664"><ele>267.0</ele><time>2026-03-28T17:29:13.999Z</time></trkpt><trkpt lat="46.12869181302215" lon="9.371222069297039"><ele>266.0</ele><time>2026-03-28T17:29:14.999Z</time></trkpt><trkpt lat="46.12860680830005" lon="9.370711221915482"><ele>265.0</ele><time>2026-03-28T17:29:15.999Z</time></trkpt><trkpt lat="46.128531428614494" lon="9.370198046790527"><ele>265.0</ele><time>2026-03-28T17:29:16.999Z</time></trkpt><trkpt lat="46.1284552216169" lon="9.369703889597872"><ele>265.0</ele><time>2026-03-28T17:29:17.999Z</time></trkpt><trkpt lat="46.12838010598966" lon="9.369195211268512"><ele>261.5</ele><time>2026-03-28T17:29:18.999Z</time></trkpt><trkpt lat="46.12830621560801" lon="9.368693474019306"><ele>258.0</ele><time>2026-03-28T17:29:19.999Z</time></trkpt><trkpt lat="46.12823170791653" lon="9.368192425391197"><ele>259.5</ele><time>2026-03-28T17:29:20.999Z</time></trkpt><trkpt lat="46.1281553718294" lon="9.367692136421637"><ele>261.0</ele><time>2026-03-28T17:29:21.999Z</time></trkpt><trkpt lat="46.128083693180635" lon="9.367192208743184"><ele>261.0</ele><time>2026-03-28T17:29:22.999Z</time></trkpt><trkpt lat="46.12800752385906" lon="9.366691163547863"><ele>261.0</ele><time>2026-03-28T17:29:23.999Z</time></trkpt><trkpt lat="46.12793141387365" lon="9.366186992127703"><ele>259.5</ele><time>2026-03-28T17:29:24.999Z</time></trkpt><trkpt lat="46.12785619744967" lon="9.36568943321731"><ele>258.0</ele><time>2026-03-28T17:29:25.999Z</time></trkpt><trkpt lat="46.12778619378387" lon="9.365196369039772"><ele>257.5</ele><time>2026-03-28T17:29:26.999Z</time></trkpt><trkpt lat="46.12771270219857" lon="9.364714278307797"><ele>257.0</ele><time>2026-03-28T17:29:27.999Z</time></trkpt><trkpt lat="46.12762286758019" lon="9.364244552366499"><ele>255.5</ele><time>2026-03-28T17:29:28.999Z</time></trkpt><trkpt lat="46.12751360800903" lon="9.363784218032658"><ele>254.0</ele><time>2026-03-28T17:29:29.999Z</time></trkpt><trkpt lat="46.12739197606179" lon="9.363329479642239"><ele>258.0</ele><time>2026-03-28T17:29:30.999Z</time></trkpt><trkpt lat="46.12726341222849" lon="9.362877686195745"><ele>262.0</ele><time>2026-03-28T17:29:31.999Z</time></trkpt><trkpt lat="46.127127420286136" lon="9.36243578198426"><ele>259.0</ele><time>2026-03-28T17:29:32.999Z</time></trkpt><trkpt lat="46.12698091256997" lon="9.362001115874923"><ele>256.0</ele><time>2026-03-28T17:29:33.999Z</time></trkpt><trkpt lat="46.12683619647275" lon="9.361578722483767"><ele>254.5</ele><time>2026-03-28T17:29:34.999Z</time></trkpt><trkpt lat="46.12670109723631" lon="9.361152361300551"><ele>253.0</ele><time>2026-03-28T17:29:35.999Z</time></trkpt><trkpt lat="46.12655793547691" lon="9.360724770887652"><ele>254.5</ele><time>2026-03-28T17:29:36.999Z</time></trkpt><trkpt lat="46.12641682712841" lon="9.360290667531626"><ele>256.0</ele><time>2026-03-28T17:29:38.021Z</time></trkpt><trkpt lat="46.12626854464642" lon="9.359879316243145"><ele>253.0</ele><time>2026-03-28T17:29:39.022Z</time></trkpt><trkpt lat="46.126081060445244" lon="9.359520383413532"><ele>250.0</ele><time>2026-03-28T17:29:40.022Z</time></trkpt><trkpt lat="46.125871651336446" lon="9.359199506819696"><ele>251.0</ele><time>2026-03-28T17:29:41.017Z</time></trkpt><trkpt lat="46.124222556329485" lon="9.357492397187979"><ele>227.0</ele><time>2026-03-28T17:29:44.319Z</time></trkpt><trkpt lat="46.118672601921595" lon="9.351640250542529"><ele>225.0</ele><time>2026-03-28T17:30:05.999Z</time></trkpt><trkpt lat="46.11840847942335" lon="9.351320672749887"><ele>223.0</ele><time>2026-03-28T17:30:06.999Z</time></trkpt><trkpt lat="46.11818406668499" lon="9.350980080532132"><ele>226.0</ele><time>2026-03-28T17:30:07.999Z</time></trkpt><trkpt lat="46.11793694576782" lon="9.350648387411352"><ele>229.0</ele><time>2026-03-28T17:30:08.999Z</time></trkpt><trkpt lat="46.11769684581172" lon="9.350303220635954"><ele>229.0</ele><time>2026-03-28T17:30:09.999Z</time></trkpt><trkpt lat="46.11746681256681" lon="9.349955921440685"><ele>229.0</ele><time>2026-03-28T17:30:10.999Z</time></trkpt><trkpt lat="46.11724598313955" lon="9.349596515718588"><ele>247.0</ele><time>2026-03-28T17:30:11.999Z</time></trkpt><trkpt lat="46.11703511802111" lon="9.349243573833748"><ele>265.0</ele><time>2026-03-28T17:30:12.999Z</time></trkpt><trkpt lat="46.116842018623956" lon="9.348877836937605"><ele>259.5</ele><time>2026-03-28T17:30:13.999Z</time></trkpt><trkpt lat="46.11665800231779" lon="9.348497616113178"><ele>254.0</ele><time>2026-03-28T17:30:14.999Z</time></trkpt><trkpt lat="46.11648216989306" lon="9.348100151072085"><ele>277.0</ele><time>2026-03-28T17:30:16.013Z</time></trkpt><trkpt lat="46.116313824119814" lon="9.347708284639722"><ele>300.0</ele><time>2026-03-28T17:30:17.016Z</time></trkpt><trkpt lat="46.116130683184366" lon="9.347333464933433"><ele>292.0</ele><time>2026-03-28T17:30:18.016Z</time></trkpt><trkpt lat="46.11595548260862" lon="9.346949279469154"><ele>284.0</ele><time>2026-03-28T17:30:19.018Z</time></trkpt><trkpt lat="46.11452646532501" lon="9.343429815837098"><ele>268.0</ele><time>2026-03-28T17:30:23.317Z</time></trkpt><trkpt lat="46.10396952838274" lon="9.322087755435446"><ele>268.0</ele><time>2026-03-28T17:31:25Z</time></trkpt><trkpt lat="46.10365248574868" lon="9.321982464535779"><ele>268.0</ele><time>2026-03-28T17:31:26Z</time></trkpt><trkpt lat="46.103364209298306" lon="9.321882545851695"><ele>270.5</ele><time>2026-03-28T17:31:27Z</time></trkpt><trkpt lat="46.103040242987404" lon="9.321775850693625"><ele>273.0</ele><time>2026-03-28T17:31:28.02Z</time></trkpt><trkpt lat="46.08633270491481" lon="9.312821477660268"><ele>273.0</ele><time>2026-03-28T17:32:22.999Z</time></trkpt><trkpt lat="46.08597867372733" lon="9.312812110872047"><ele>273.0</ele><time>2026-03-28T17:32:23.999Z</time></trkpt><trkpt lat="46.08545662128694" lon="9.312666609066374"><ele>270.5</ele><time>2026-03-28T17:32:24.999Z</time></trkpt><trkpt lat="46.08509848079747" lon="9.312746342591144"><ele>268.0</ele><time>2026-03-28T17:32:25.999Z</time></trkpt><trkpt lat="46.08475068912639" lon="9.312847911815256"><ele>263.5</ele><time>2026-03-28T17:32:26.999Z</time></trkpt><trkpt lat="46.08442230235702" lon="9.312985911082379"><ele>259.0</ele><time>2026-03-28T17:32:27.999Z</time></trkpt><trkpt lat="46.084090085780005" lon="9.313115862778883"><ele>271.0</ele><time>2026-03-28T17:32:29Z</time></trkpt><trkpt lat="46.08377275852235" lon="9.313256516247506"><ele>283.0</ele><time>2026-03-28T17:32:30Z</time></trkpt><trkpt lat="46.08344545035682" lon="9.31338946602108"><ele>288.0</ele><time>2026-03-28T17:32:31Z</time></trkpt><trkpt lat="46.08312014466244" lon="9.313524712336566"><ele>293.0</ele><time>2026-03-28T17:32:32Z</time></trkpt><trkpt lat="46.08279756531765" lon="9.313660737208004"><ele>293.0</ele><time>2026-03-28T17:32:33Z</time></trkpt><trkpt lat="46.082474252378276" lon="9.313796061744569"><ele>293.0</ele><time>2026-03-28T17:32:34Z</time></trkpt><trkpt lat="46.08214579958278" lon="9.313936428081895"><ele>324.5</ele><time>2026-03-28T17:32:35.017Z</time></trkpt><trkpt lat="46.081823116219745" lon="9.314073448165592"><ele>356.0</ele><time>2026-03-28T17:32:36.014Z</time></trkpt><trkpt lat="46.08149993542365" lon="9.314215190197045"><ele>361.0</ele><time>2026-03-28T17:32:37.017Z</time></trkpt><trkpt lat="46.08117557138007" lon="9.314354261408344"><ele>366.0</ele><time>2026-03-28T17:32:38.022Z</time></trkpt><trkpt lat="46.07918051744954" lon="9.314807030140306"><ele>358.0</ele><time>2026-03-28T17:32:41.318Z</time></trkpt><trkpt lat="46.078554261878345" lon="9.314901971332336"><ele>313.0</ele><time>2026-03-28T17:32:42.318Z</time></trkpt><trkpt lat="46.07792798857021" lon="9.314997041912806"><ele>302.0</ele><time>2026-03-28T17:32:43.318Z</time></trkpt><trkpt lat="46.07730155317488" lon="9.315090526136212"><ele>372.0</ele><time>2026-03-28T17:32:44.318Z</time></trkpt><trkpt lat="46.076048520612005" lon="9.31527179000436"><ele>369.0</ele><time>2026-03-28T17:32:46.318Z</time></trkpt><trkpt lat="46.07524340775192" lon="9.315394794092704"><ele>389.0</ele><time>2026-03-28T17:32:47.318Z</time></trkpt><trkpt lat="46.07443825655701" lon="9.315518476285032"><ele>438.0</ele><time>2026-03-28T17:32:48.318Z</time></trkpt><trkpt lat="46.073632796844926" lon="9.31563647748636"><ele>483.0</ele><time>2026-03-28T17:32:49.318Z</time></trkpt><trkpt lat="46.07282722612687" lon="9.315754542496734"><ele>544.0</ele><time>2026-03-28T17:32:50.318Z</time></trkpt><trkpt lat="46.07202178042261" lon="9.315872636585386"><ele>372.0</ele><time>2026-03-28T17:32:51.318Z</time></trkpt><trkpt lat="46.076392689762706" lon="9.315265221529934"><ele>372.0</ele><time>2026-03-28T17:32:52Z</time></trkpt><trkpt lat="46.07605400349604" lon="9.315313152502233"><ele>372.0</ele><time>2026-03-28T17:32:53Z</time></trkpt><trkpt lat="46.075746885643966" lon="9.315346110677993"><ele>370.5</ele><time>2026-03-28T17:32:54Z</time></trkpt><trkpt lat="46.075414814731175" lon="9.315386187292694"><ele>369.0</ele><time>2026-03-28T17:32:55Z</time></trkpt><trkpt lat="46.07507398065089" lon="9.31542947895325"><ele>379.0</ele><time>2026-03-28T17:32:56.019Z</time></trkpt><trkpt lat="46.07473888940166" lon="9.315470152541824"><ele>389.0</ele><time>2026-03-28T17:32:57.018Z</time></trkpt><trkpt lat="46.074403350670906" lon="9.315511524259254"><ele>402.5</ele><time>2026-03-28T17:32:58.021Z</time></trkpt><trkpt lat="46.0740717090906" lon="9.315553599360433"><ele>416.0</ele><time>2026-03-28T17:32:59.022Z</time></trkpt><trkpt lat="46.072058862499084" lon="9.315867199627931"><ele>314.0</ele><time>2026-03-28T17:33:02.314Z</time></trkpt><trkpt lat="46.05136691930796" lon="9.31446584518324"><ele>314.0</ele><time>2026-03-28T17:34:13.999Z</time></trkpt><trkpt lat="46.05097286189456" lon="9.314299363430115"><ele>314.0</ele><time>2026-03-28T17:34:14.999Z</time></trkpt><trkpt lat="46.0507142564226" lon="9.314109240440976"><ele>327.0</ele><time>2026-03-28T17:34:15.999Z</time></trkpt><trkpt lat="46.05043769310568" lon="9.313954786058238"><ele>340.0</ele><time>2026-03-28T17:34:16.999Z</time></trkpt><trkpt lat="46.05016489204068" lon="9.313792704104957"><ele>351.5</ele><time>2026-03-28T17:34:17.999Z</time></trkpt><trkpt lat="46.0498967358021" lon="9.313609155728985"><ele>363.0</ele><time>2026-03-28T17:34:18.999Z</time></trkpt><trkpt lat="46.04962966519195" lon="9.313434624701136"><ele>390.0</ele><time>2026-03-28T17:34:20.02Z</time></trkpt><trkpt lat="46.046826415748455" lon="9.312889971563038"><ele>437.0</ele><time>2026-03-28T17:34:24.317Z</time></trkpt><trkpt lat="46.046025177071215" lon="9.31272269925766"><ele>457.0</ele><time>2026-03-28T17:34:25.317Z</time></trkpt><trkpt lat="46.04522415536218" lon="9.312551995119536"><ele>447.0</ele><time>2026-03-28T17:34:26.317Z</time></trkpt><trkpt lat="46.044423096098576" lon="9.312383293813948"><ele>395.0</ele><time>2026-03-28T17:34:27.317Z</time></trkpt><trkpt lat="46.0436216743117" lon="9.312218083291901"><ele>378.0</ele><time>2026-03-28T17:34:28.317Z</time></trkpt><trkpt lat="46.04282059620951" lon="9.312048926775228"><ele>367.0</ele><time>2026-03-28T17:34:29.317Z</time></trkpt><trkpt lat="46.04202472887494" lon="9.311838187849835"><ele>348.0</ele><time>2026-03-28T17:34:30.317Z</time></trkpt><trkpt lat="46.04124829526654" lon="9.311508951273199"><ele>310.0</ele><time>2026-03-28T17:34:31.317Z</time></trkpt><trkpt lat="46.04048222886507" lon="9.311132380393314"><ele>305.0</ele><time>2026-03-28T17:34:32.317Z</time></trkpt><trkpt lat="46.03907817513313" lon="9.31052315981063"><ele>305.0</ele><time>2026-03-28T17:34:56.999Z</time></trkpt><trkpt lat="46.038778243758784" lon="9.310392516759292"><ele>305.0</ele><time>2026-03-28T17:34:57.999Z</time></trkpt><trkpt lat="46.03839644503131" lon="9.310161339896217"><ele>315.5</ele><time>2026-03-28T17:34:58.999Z</time></trkpt><trkpt lat="46.03809583707268" lon="9.3100189263907"><ele>326.0</ele><time>2026-03-28T17:34:59.999Z</time></trkpt><trkpt lat="46.03779391644325" lon="9.309876617912511"><ele>333.0</ele><time>2026-03-28T17:35:00.999Z</time></trkpt><trkpt lat="46.03749107062938" lon="9.309728653597771"><ele>340.0</ele><time>2026-03-28T17:35:01.999Z</time></trkpt><trkpt lat="46.03718531117555" lon="9.309592060442972"><ele>365.0</ele><time>2026-03-28T17:35:02.999Z</time></trkpt><trkpt lat="46.036874715665846" lon="9.30945216082797"><ele>390.0</ele><time>2026-03-28T17:35:04.016Z</time></trkpt><trkpt lat="46.03656965247522" lon="9.309314264091375"><ele>410.0</ele><time>2026-03-28T17:35:05.017Z</time></trkpt><trkpt lat="46.03626257194491" lon="9.309174821518791"><ele>430.0</ele><time>2026-03-28T17:35:06.022Z</time></trkpt><trkpt lat="46.03595884205399" lon="9.309035398998887"><ele>591.0</ele><time>2026-03-28T17:35:07.019Z</time></trkpt><trkpt lat="46.03331315308237" lon="9.30755835576745"><ele>636.0</ele><time>2026-03-28T17:35:11.316Z</time></trkpt><trkpt lat="46.03255868513109" lon="9.30713631567008"><ele>668.0</ele><time>2026-03-28T17:35:12.316Z</time></trkpt><trkpt lat="46.03180572853956" lon="9.306719523234944"><ele>681.0</ele><time>2026-03-28T17:35:13.313Z</time></trkpt><trkpt lat="46.0310472590969" lon="9.306301446690433"><ele>708.0</ele><time>2026-03-28T17:35:14.316Z</time></trkpt><trkpt lat="46.030290910255005" lon="9.305886410694312"><ele>701.0</ele><time>2026-03-28T17:35:15.316Z</time></trkpt><trkpt lat="46.02953447225153" lon="9.30547203520255"><ele>731.0</ele><time>2026-03-28T17:35:16.316Z</time></trkpt><trkpt lat="46.028778009563524" lon="9.305057396353153"><ele>725.0</ele><time>2026-03-28T17:35:17.316Z</time></trkpt><trkpt lat="46.02802159958596" lon="9.304642750442293"><ele>718.0</ele><time>2026-03-28T17:35:18.316Z</time></trkpt><trkpt lat="46.02726513037121" lon="9.304228068252645"><ele>659.0</ele><time>2026-03-28T17:35:19.316Z</time></trkpt><trkpt lat="46.026508715572575" lon="9.303813406416703"><ele>650.0</ele><time>2026-03-28T17:35:20.316Z</time></trkpt><trkpt lat="46.025752338556515" lon="9.30339876529293"><ele>623.0</ele><time>2026-03-28T17:35:21.316Z</time></trkpt><trkpt lat="46.02499592979948" lon="9.302984106768958"><ele>586.0</ele><time>2026-03-28T17:35:22.316Z</time></trkpt><trkpt lat="46.02423868257909" lon="9.302572347256833"><ele>553.0</ele><time>2026-03-28T17:35:23.316Z</time></trkpt><trkpt lat="46.023480929152036" lon="9.302163310494874"><ele>554.0</ele><time>2026-03-28T17:35:24.316Z</time></trkpt><trkpt lat="46.022724956866625" lon="9.30174695444089"><ele>564.0</ele><time>2026-03-28T17:35:25.316Z</time></trkpt><trkpt lat="46.02196928958762" lon="9.301329567057113"><ele>591.0</ele><time>2026-03-28T17:35:26.316Z</time></trkpt><trkpt lat="46.021213586155476" lon="9.300912236745468"><ele>617.0</ele><time>2026-03-28T17:35:27.316Z</time></trkpt><trkpt lat="46.020457871210304" lon="9.300495112717392"><ele>647.0</ele><time>2026-03-28T17:35:28.316Z</time></trkpt><trkpt lat="46.01970187143406" lon="9.300079067120931"><ele>629.0</ele><time>2026-03-28T17:35:29.316Z</time></trkpt><trkpt lat="46.018945484503796" lon="9.299664153995247"><ele>612.0</ele><time>2026-03-28T17:35:30.316Z</time></trkpt><trkpt lat="46.01818925141402" lon="9.299249021399175"><ele>565.0</ele><time>2026-03-28T17:35:31.316Z</time></trkpt><trkpt lat="46.01743406277802" lon="9.298829858735044"><ele>565.0</ele><time>2026-03-28T17:35:32.316Z</time></trkpt><trkpt lat="46.01668011338612" lon="9.29840579562538"><ele>519.0</ele><time>2026-03-28T17:35:33.316Z</time></trkpt><trkpt lat="46.01592590470058" lon="9.297982958312991"><ele>482.0</ele><time>2026-03-28T17:35:34.316Z</time></trkpt><trkpt lat="46.01517003356486" lon="9.297566565374838"><ele>429.0</ele><time>2026-03-28T17:35:35.316Z</time></trkpt><trkpt lat="46.014413265906654" lon="9.297153290379065"><ele>413.0</ele><time>2026-03-28T17:35:36.316Z</time></trkpt><trkpt lat="46.013657936957465" lon="9.29673465875199"><ele>397.0</ele><time>2026-03-28T17:35:37.316Z</time></trkpt><trkpt lat="46.01290010549066" lon="9.296338657536397"><ele>389.0</ele><time>2026-03-28T17:35:38.312Z</time></trkpt><trkpt lat="46.01212363349223" lon="9.295994203615173"><ele>371.0</ele><time>2026-03-28T17:35:39.316Z</time></trkpt><trkpt lat="46.01133603747877" lon="9.295725579193817"><ele>370.0</ele><time>2026-03-28T17:35:40.316Z</time></trkpt><trkpt lat="46.010540566040525" lon="9.29550916837209"><ele>417.0</ele><time>2026-03-28T17:35:41.316Z</time></trkpt><trkpt lat="46.00973827948397" lon="9.295396620512586"><ele>473.0</ele><time>2026-03-28T17:35:42.312Z</time></trkpt><trkpt lat="46.008929582903235" lon="9.295348542760031"><ele>537.0</ele><time>2026-03-28T17:35:43.312Z</time></trkpt><trkpt lat="46.00811725896617" lon="9.295393800027355"><ele>540.0</ele><time>2026-03-28T17:35:44.316Z</time></trkpt><trkpt lat="46.00730946403072" lon="9.2954720324459"><ele>509.0</ele><time>2026-03-28T17:35:45.316Z</time></trkpt><trkpt lat="46.00650685413004" lon="9.295586712725672"><ele>525.0</ele><time>2026-03-28T17:35:46.312Z</time></trkpt><trkpt lat="46.00569780871749" lon="9.295699743193756"><ele>346.0</ele><time>2026-03-28T17:35:47.316Z</time></trkpt><trkpt lat="45.99504740913025" lon="9.29579313845308"><ele>348.0</ele><time>2026-03-28T17:37:11.998Z</time></trkpt><trkpt lat="45.9947218423619" lon="9.295691252469837"><ele>350.0</ele><time>2026-03-28T17:37:12.998Z</time></trkpt><trkpt lat="45.99428517104521" lon="9.295351560906834"><ele>339.0</ele><time>2026-03-28T17:37:13.998Z</time></trkpt><trkpt lat="45.99395364212557" lon="9.295244582458459"><ele>328.0</ele><time>2026-03-28T17:37:14.998Z</time></trkpt><trkpt lat="45.9936312240465" lon="9.295173796099597"><ele>331.0</ele><time>2026-03-28T17:37:15.998Z</time></trkpt><trkpt lat="45.99330885575719" lon="9.295121935830023"><ele>334.0</ele><time>2026-03-28T17:37:16.998Z</time></trkpt><trkpt lat="45.992989811188544" lon="9.295081408332182"><ele>334.0</ele><time>2026-03-28T17:37:18Z</time></trkpt><trkpt lat="45.99266727317283" lon="9.295064474784931"><ele>334.0</ele><time>2026-03-28T17:37:19Z</time></trkpt><trkpt lat="45.99234271857671" lon="9.295074929569184"><ele>330.5</ele><time>2026-03-28T17:37:20Z</time></trkpt><trkpt lat="45.99201786477714" lon="9.29510699941842"><ele>327.0</ele><time>2026-03-28T17:37:21Z</time></trkpt><trkpt lat="45.99169358128379" lon="9.295151034423979"><ele>324.5</ele><time>2026-03-28T17:37:22Z</time></trkpt><trkpt lat="45.991363019234875" lon="9.295197622599947"><ele>322.0</ele><time>2026-03-28T17:37:23Z</time></trkpt><trkpt lat="45.9910408946654" lon="9.295252528193153"><ele>326.0</ele><time>2026-03-28T17:37:24Z</time></trkpt><trkpt lat="45.990716844783016" lon="9.295314807353218"><ele>330.0</ele><time>2026-03-28T17:37:25Z</time></trkpt><trkpt lat="45.99039020569568" lon="9.2953861976732"><ele>330.0</ele><time>2026-03-28T17:37:26Z</time></trkpt><trkpt lat="45.99005688709229" lon="9.295456903730932"><ele>330.0</ele><time>2026-03-28T17:37:27.02Z</time></trkpt><trkpt lat="45.98974436849317" lon="9.295583316046038"><ele>358.5</ele><time>2026-03-28T17:37:28.016Z</time></trkpt><trkpt lat="45.98944034644253" lon="9.295749718762927"><ele>387.0</ele><time>2026-03-28T17:37:29.015Z</time></trkpt><trkpt lat="45.98913919098858" lon="9.29592084077624"><ele>487.0</ele><time>2026-03-28T17:37:30.015Z</time></trkpt><trkpt lat="45.987276808751645" lon="9.29706165795635"><ele>507.0</ele><time>2026-03-28T17:37:33.315Z</time></trkpt><trkpt lat="45.98652134538614" lon="9.297479643360566"><ele>484.0</ele><time>2026-03-28T17:37:34.315Z</time></trkpt><trkpt lat="45.985765634241645" lon="9.297896576994845"><ele>501.0</ele><time>2026-03-28T17:37:35.315Z</time></trkpt><trkpt lat="45.98501111849362" lon="9.298318072826145"><ele>501.0</ele><time>2026-03-28T17:37:36.315Z</time></trkpt><trkpt lat="45.98425710899883" lon="9.298733286631547"><ele>506.0</ele><time>2026-03-28T17:37:37.312Z</time></trkpt><trkpt lat="45.98350406237185" lon="9.299155654159183"><ele>486.0</ele><time>2026-03-28T17:37:38.311Z</time></trkpt><trkpt lat="45.982748693018536" lon="9.299579864882888"><ele>508.0</ele><time>2026-03-28T17:37:39.313Z</time></trkpt><trkpt lat="45.98199314497887" lon="9.30000417595573"><ele>451.0</ele><time>2026-03-28T17:37:40.315Z</time></trkpt><trkpt lat="45.98123980806059" lon="9.300427265428304"><ele>441.0</ele><time>2026-03-28T17:37:41.314Z</time></trkpt><trkpt lat="45.98048817511127" lon="9.300849411071603"><ele>441.0</ele><time>2026-03-28T17:37:42.311Z</time></trkpt><trkpt lat="45.979730643563116" lon="9.301272247167653"><ele>492.0</ele><time>2026-03-28T17:37:43.315Z</time></trkpt><trkpt lat="45.97897651497767" lon="9.30169502544016"><ele>478.0</ele><time>2026-03-28T17:37:44.315Z</time></trkpt><trkpt lat="45.97822232826131" lon="9.302117759447878"><ele>505.0</ele><time>2026-03-28T17:37:45.315Z</time></trkpt><trkpt lat="45.97746756801326" lon="9.302538190375556"><ele>505.0</ele><time>2026-03-28T17:37:46.315Z</time></trkpt><trkpt lat="45.97671301937179" lon="9.302959435578117"><ele>532.0</ele><time>2026-03-28T17:37:47.315Z</time></trkpt><trkpt lat="45.97595864416267" lon="9.30338133850255"><ele>472.0</ele><time>2026-03-28T17:37:48.315Z</time></trkpt><trkpt lat="45.97520424332355" lon="9.303803255761187"><ele>475.0</ele><time>2026-03-28T17:37:49.315Z</time></trkpt><trkpt lat="45.97444978201467" lon="9.30422502209322"><ele>465.0</ele><time>2026-03-28T17:37:50.315Z</time></trkpt><trkpt lat="45.97369539994954" lon="9.304646625529708"><ele>502.0</ele><time>2026-03-28T17:37:51.314Z</time></trkpt><trkpt lat="45.9729412203491" lon="9.305069225422722"><ele>475.0</ele><time>2026-03-28T17:37:52.314Z</time></trkpt><trkpt lat="45.972187007336" lon="9.305491777805575"><ele>473.0</ele><time>2026-03-28T17:37:53.314Z</time></trkpt><trkpt lat="45.971432118698004" lon="9.3059117415258"><ele>392.0</ele><time>2026-03-28T17:37:54.314Z</time></trkpt><trkpt lat="45.97067691642553" lon="9.306330483155598"><ele>362.0</ele><time>2026-03-28T17:37:55.314Z</time></trkpt><trkpt lat="45.96992241376213" lon="9.306752002826668"><ele>349.0</ele><time>2026-03-28T17:37:56.314Z</time></trkpt><trkpt lat="45.96907889009078" lon="9.307282464587415"><ele>349.0</ele><time>2026-03-28T17:38:31.999Z</time></trkpt><trkpt lat="45.96876582127219" lon="9.307484781838022"><ele>349.0</ele><time>2026-03-28T17:38:32.999Z</time></trkpt><trkpt lat="45.9683678172375" lon="9.30770245681423"><ele>337.5</ele><time>2026-03-28T17:38:33.999Z</time></trkpt><trkpt lat="45.968051515861966" lon="9.307827039154379"><ele>326.0</ele><time>2026-03-28T17:38:34.999Z</time></trkpt><trkpt lat="45.96773209177273" lon="9.30795619720167"><ele>333.5</ele><time>2026-03-28T17:38:35.999Z</time></trkpt><trkpt lat="45.96742539749323" lon="9.308055844452058"><ele>341.0</ele><time>2026-03-28T17:38:36.999Z</time></trkpt><trkpt lat="45.967150323118844" lon="9.308170633272207"><ele>341.0</ele><time>2026-03-28T17:38:37.999Z</time></trkpt><trkpt lat="45.96688377309307" lon="9.308291942057567"><ele>341.0</ele><time>2026-03-28T17:38:38.999Z</time></trkpt><trkpt lat="45.96662445184025" lon="9.30841721846265"><ele>334.5</ele><time>2026-03-28T17:38:39.999Z</time></trkpt><trkpt lat="45.96636208982038" lon="9.308539948354296"><ele>328.0</ele><time>2026-03-28T17:38:40.999Z</time></trkpt><trkpt lat="45.96609476209743" lon="9.30866141018473"><ele>325.5</ele><time>2026-03-28T17:38:41.999Z</time></trkpt><trkpt lat="45.96583047218952" lon="9.308791739717504"><ele>323.0</ele><time>2026-03-28T17:38:42.999Z</time></trkpt><trkpt lat="45.96556532681619" lon="9.308913942517648"><ele>330.5</ele><time>2026-03-28T17:38:43.999Z</time></trkpt><trkpt lat="45.96529684132232" lon="9.309035510411446"><ele>338.0</ele><time>2026-03-28T17:38:44.999Z</time></trkpt><trkpt lat="45.96502124453829" lon="9.309160970863548"><ele>338.0</ele><time>2026-03-28T17:38:45.999Z</time></trkpt><trkpt lat="45.964737959629275" lon="9.309288215086003"><ele>338.0</ele><time>2026-03-28T17:38:46.999Z</time></trkpt><trkpt lat="45.9644548774163" lon="9.30941904479813"><ele>334.0</ele><time>2026-03-28T17:38:47.999Z</time></trkpt><trkpt lat="45.964169465891786" lon="9.309552169109962"><ele>330.0</ele><time>2026-03-28T17:38:48.999Z</time></trkpt><trkpt lat="45.963886355933205" lon="9.309690282318634"><ele>345.5</ele><time>2026-03-28T17:38:49.999Z</time></trkpt><trkpt lat="45.96360648875815" lon="9.309840025465505"><ele>361.0</ele><time>2026-03-28T17:38:50.999Z</time></trkpt><trkpt lat="45.963325213864834" lon="9.309998880516677"><ele>364.5</ele><time>2026-03-28T17:38:51.999Z</time></trkpt><trkpt lat="45.96303728614038" lon="9.310171998371127"><ele>368.0</ele><time>2026-03-28T17:38:53.022Z</time></trkpt><trkpt lat="45.96275252720292" lon="9.310345953726129"><ele>354.0</ele><time>2026-03-28T17:38:54.022Z</time></trkpt><trkpt lat="45.96247826904735" lon="9.310513467718337"><ele>340.0</ele><time>2026-03-28T17:38:54.999Z</time></trkpt><trkpt lat="45.96217076913709" lon="9.310677569553354"><ele>340.0</ele><time>2026-03-28T17:38:55.999Z</time></trkpt><trkpt lat="45.96186951742369" lon="9.310864737995686"><ele>340.0</ele><time>2026-03-28T17:38:56.999Z</time></trkpt><trkpt lat="45.96156884397102" lon="9.311015941421138"><ele>338.0</ele><time>2026-03-28T17:38:57.999Z</time></trkpt><trkpt lat="45.96126545077777" lon="9.311160839368759"><ele>336.0</ele><time>2026-03-28T17:38:58.999Z</time></trkpt><trkpt lat="45.96096420322351" lon="9.311297874658113"><ele>347.0</ele><time>2026-03-28T17:38:59.999Z</time></trkpt><trkpt lat="45.96067281747367" lon="9.311408556590546"><ele>358.0</ele><time>2026-03-28T17:39:00.999Z</time></trkpt><trkpt lat="45.960399001635786" lon="9.311509699478945"><ele>358.0</ele><time>2026-03-28T17:39:01.999Z</time></trkpt><trkpt lat="45.9601351664059" lon="9.311574338704096"><ele>358.0</ele><time>2026-03-28T17:39:02.999Z</time></trkpt><trkpt lat="45.95988502892627" lon="9.311620851270304"><ele>351.0</ele><time>2026-03-28T17:39:03.999Z</time></trkpt><trkpt lat="45.9596474488907" lon="9.311660416012916"><ele>344.0</ele><time>2026-03-28T17:39:04.999Z</time></trkpt><trkpt lat="45.959412066823155" lon="9.311697172090668"><ele>341.0</ele><time>2026-03-28T17:39:05.999Z</time></trkpt><trkpt lat="45.959184832919604" lon="9.311692677932763"><ele>338.0</ele><time>2026-03-28T17:39:06.999Z</time></trkpt><trkpt lat="45.95896303846492" lon="9.311656221221785"><ele>338.0</ele><time>2026-03-28T17:39:07.999Z</time></trkpt><trkpt lat="45.95874461701871" lon="9.311630108780873"><ele>338.0</ele><time>2026-03-28T17:39:08.999Z</time></trkpt><trkpt lat="45.95852892820487" lon="9.31165288324556"><ele>338.0</ele><time>2026-03-28T17:39:09.999Z</time></trkpt><trkpt lat="45.95829063673834" lon="9.311798396064555"><ele>338.0</ele><time>2026-03-28T17:39:10.999Z</time></trkpt><trkpt lat="45.95808189276599" lon="9.311819836825894"><ele>338.0</ele><time>2026-03-28T17:39:11.999Z</time></trkpt><trkpt lat="45.95787499723296" lon="9.31183646488374"><ele>338.0</ele><time>2026-03-28T17:39:12.999Z</time></trkpt><trkpt lat="45.95766958003823" lon="9.311854868393853"><ele>339.33333333333337</ele><time>2026-03-28T17:39:13.999Z</time></trkpt><trkpt lat="45.95746843035738" lon="9.311871735478118"><ele>340.6666666666667</ele><time>2026-03-28T17:39:14.999Z</time></trkpt><trkpt lat="45.95727244702492" lon="9.311881914656064"><ele>342.0</ele><time>2026-03-28T17:39:15.999Z</time></trkpt><trkpt lat="45.957087211127714" lon="9.311897638404972"><ele>342.0</ele><time>2026-03-28T17:39:16.999Z</time></trkpt><trkpt lat="45.95691344619563" lon="9.311918597706788"><ele>342.0</ele><time>2026-03-28T17:39:17.999Z</time></trkpt><trkpt lat="45.95675741370487" lon="9.31195082969839"><ele>342.0</ele><time>2026-03-28T17:39:18.999Z</time></trkpt><trkpt lat="45.956636225817974" lon="9.31198801030564"><ele>341.40000000000003</ele><time>2026-03-28T17:39:19.999Z</time></trkpt><trkpt lat="45.95652622225515" lon="9.312020388565584"><ele>340.8</ele><time>2026-03-28T17:39:20.999Z</time></trkpt><trkpt lat="45.9564271917438" lon="9.312051881265754"><ele>340.2</ele><time>2026-03-28T17:39:21.999Z</time></trkpt><trkpt lat="45.95633484505542" lon="9.312082462367425"><ele>339.6</ele><time>2026-03-28T17:39:22.999Z</time></trkpt><trkpt lat="45.95625568689094" lon="9.312112814310025"><ele>339.0</ele><time>2026-03-28T17:39:24Z</time></trkpt><trkpt lat="45.956180710740995" lon="9.312141838128857"><ele>339.0</ele><time>2026-03-28T17:39:25Z</time></trkpt><trkpt lat="45.956096822158315" lon="9.31216998648798"><ele>339.0</ele><time>2026-03-28T17:39:26Z</time></trkpt><trkpt lat="45.95600355748683" lon="9.312207482684764"><ele>339.0</ele><time>2026-03-28T17:39:27Z</time></trkpt><trkpt lat="45.955903980382345" lon="9.312253972097139"><ele>339.0</ele><time>2026-03-28T17:39:28Z</time></trkpt><trkpt lat="45.95579245262098" lon="9.312302193229854"><ele>339.0</ele><time>2026-03-28T17:39:29Z</time></trkpt><trkpt lat="45.95567742681536" lon="9.31236044766922"><ele>344.5</ele><time>2026-03-28T17:39:30Z</time></trkpt><trkpt lat="45.955561105808485" lon="9.31242114010445"><ele>350.0</ele><time>2026-03-28T17:39:31Z</time></trkpt><trkpt lat="45.955446428395845" lon="9.312480972239518"><ele>355.5</ele><time>2026-03-28T17:39:32Z</time></trkpt><trkpt lat="45.955334119792695" lon="9.31254117584651"><ele>361.0</ele><time>2026-03-28T17:39:33Z</time></trkpt><trkpt lat="45.955213850214825" lon="9.312620057507248"><ele>361.0</ele><time>2026-03-28T17:39:34Z</time></trkpt><trkpt lat="45.95509262952291" lon="9.312671590789629"><ele>361.0</ele><time>2026-03-28T17:39:35Z</time></trkpt><trkpt lat="45.954977240731274" lon="9.312740495186658"><ele>361.0</ele><time>2026-03-28T17:39:36Z</time></trkpt><trkpt lat="45.954858535600586" lon="9.31281415541284"><ele>361.0</ele><time>2026-03-28T17:39:37Z</time></trkpt><trkpt lat="45.954760207228496" lon="9.312886560015917"><ele>362.0</ele><time>2026-03-28T17:39:38Z</time></trkpt><trkpt lat="45.95467009234364" lon="9.312946191171067"><ele>363.0</ele><time>2026-03-28T17:39:39Z</time></trkpt><trkpt lat="45.95458792577754" lon="9.313000261275832"><ele>364.0</ele><time>2026-03-28T17:39:40Z</time></trkpt><trkpt lat="45.954515092990775" lon="9.313050342898212"><ele>365.0</ele><time>2026-03-28T17:39:41Z</time></trkpt><trkpt lat="45.954448536978845" lon="9.31309395525798"><ele>366.0</ele><time>2026-03-28T17:39:42Z</time></trkpt><trkpt lat="45.95436078362704" lon="9.31314274932919"><ele>367.0</ele><time>2026-03-28T17:39:43Z</time></trkpt><trkpt lat="45.954275302847144" lon="9.313196788136988"><ele>367.6</ele><time>2026-03-28T17:39:44Z</time></trkpt><trkpt lat="45.95418478752517" lon="9.313253385816395"><ele>368.20000000000005</ele><time>2026-03-28T17:39:45.021Z</time></trkpt><trkpt lat="45.954097370230166" lon="9.31330883950403"><ele>368.8</ele><time>2026-03-28T17:39:46.022Z</time></trkpt><trkpt lat="45.954004704221326" lon="9.313372263344435"><ele>369.4</ele><time>2026-03-28T17:39:47.025Z</time></trkpt><trkpt lat="45.95392414447989" lon="9.313432012313646"><ele>370.0</ele><time>2026-03-28T17:39:48.02Z</time></trkpt><trkpt lat="45.95383269692903" lon="9.313487232584109"><ele>344.0</ele><time>2026-03-28T17:39:49.02Z</time></trkpt><trkpt lat="45.95249076843816" lon="9.313837029048534"><ele>344.0</ele><time>2026-03-28T17:40:08Z</time></trkpt><trkpt lat="45.95241987011375" lon="9.313851469592645"><ele>344.0</ele><time>2026-03-28T17:40:09Z</time></trkpt><trkpt lat="45.952315230239186" lon="9.313853155134732"><ele>344.0</ele><time>2026-03-28T17:40:10Z</time></trkpt><trkpt lat="45.952211728482446" lon="9.313845317858174"><ele>344.0</ele><time>2026-03-28T17:40:11Z</time></trkpt><trkpt lat="45.95209635338447" lon="9.313849523489539"><ele>344.0</ele><time>2026-03-28T17:40:12Z</time></trkpt><trkpt lat="45.951983463851874" lon="9.313835693419335"><ele>344.0</ele><time>2026-03-28T17:40:13Z</time></trkpt><trkpt lat="45.95188690036129" lon="9.313845749928861"><ele>344.0</ele><time>2026-03-28T17:40:14Z</time></trkpt><trkpt lat="45.951802405601725" lon="9.313847368888533"><ele>344.0</ele><time>2026-03-28T17:40:15Z</time></trkpt><trkpt lat="45.95172065472363" lon="9.31383369371154"><ele>344.0</ele><time>2026-03-28T17:40:16Z</time></trkpt><trkpt lat="45.95163110100253" lon="9.313815349137592"><ele>344.0</ele><time>2026-03-28T17:40:17Z</time></trkpt><trkpt lat="45.951539775890005" lon="9.313796918677655"><ele>344.0</ele><time>2026-03-28T17:40:18Z</time></trkpt><trkpt lat="45.951436093856756" lon="9.313784725770013"><ele>341.2</ele><time>2026-03-28T17:40:19Z</time></trkpt><trkpt lat="45.951318271174365" lon="9.313765960320133"><ele>338.4</ele><time>2026-03-28T17:40:20Z</time></trkpt><trkpt lat="45.951223513021915" lon="9.313741599784343"><ele>335.6</ele><time>2026-03-28T17:40:21Z</time></trkpt><trkpt lat="45.951140031950494" lon="9.313716418563311"><ele>332.8</ele><time>2026-03-28T17:40:22Z</time></trkpt><trkpt lat="45.95105983033392" lon="9.313689281254428"><ele>330.0</ele><time>2026-03-28T17:40:23Z</time></trkpt><trkpt lat="45.95097712311944" lon="9.313658959984657"><ele>330.0</ele><time>2026-03-28T17:40:24Z</time></trkpt><trkpt lat="45.95087752706684" lon="9.31363113477878"><ele>330.0</ele><time>2026-03-28T17:40:25Z</time></trkpt><trkpt lat="45.95075394832065" lon="9.313593871338192"><ele>330.0</ele><time>2026-03-28T17:40:26Z</time></trkpt><trkpt lat="45.95064452751808" lon="9.31355162138623"><ele>330.0</ele><time>2026-03-28T17:40:27Z</time></trkpt><trkpt lat="45.950541452518905" lon="9.313505849857716"><ele>330.0</ele><time>2026-03-28T17:40:28Z</time></trkpt><trkpt lat="45.95045397936933" lon="9.313466423551983"><ele>332.0</ele><time>2026-03-28T17:40:29Z</time></trkpt><trkpt lat="45.950368803757904" lon="9.313432838927163"><ele>334.0</ele><time>2026-03-28T17:40:30Z</time></trkpt><trkpt lat="45.95026931700258" lon="9.31337919964497"><ele>336.0</ele><time>2026-03-28T17:40:30.999Z</time></trkpt><trkpt lat="45.95018031128493" lon="9.313347155969762"><ele>338.0</ele><time>2026-03-28T17:40:31.999Z</time></trkpt><trkpt lat="45.950095406931865" lon="9.313317089536547"><ele>340.0</ele><time>2026-03-28T17:40:32.999Z</time></trkpt><trkpt lat="45.950014200058625" lon="9.313284357982123"><ele>340.8333333333333</ele><time>2026-03-28T17:40:33.999Z</time></trkpt><trkpt lat="45.94992432486567" lon="9.313234043351933"><ele>341.66666666666663</ele><time>2026-03-28T17:40:34.999Z</time></trkpt><trkpt lat="45.949842045365756" lon="9.313198234722364"><ele>342.5</ele><time>2026-03-28T17:40:35.999Z</time></trkpt><trkpt lat="45.949772532521315" lon="9.313165772726526"><ele>343.3333333333333</ele><time>2026-03-28T17:40:36.999Z</time></trkpt><trkpt lat="45.9497006786844" lon="9.313133087741585"><ele>344.1666666666667</ele><time>2026-03-28T17:40:37.999Z</time></trkpt><trkpt lat="45.949629342888606" lon="9.313103341530883"><ele>345.0</ele><time>2026-03-28T17:40:38.999Z</time></trkpt><trkpt lat="45.94956053970042" lon="9.313070189984309"><ele>345.0</ele><time>2026-03-28T17:40:39.999Z</time></trkpt><trkpt lat="45.94947724681019" lon="9.313035415764435"><ele>345.0</ele><time>2026-03-28T17:40:40.999Z</time></trkpt><trkpt lat="45.9493925567572" lon="9.312997508790414"><ele>345.0</ele><time>2026-03-28T17:40:41.999Z</time></trkpt><trkpt lat="45.94930551674373" lon="9.312954293263143"><ele>345.0</ele><time>2026-03-28T17:40:42.999Z</time></trkpt><trkpt lat="45.94917672482219" lon="9.312899530847591"><ele>345.0</ele><time>2026-03-28T17:40:43.999Z</time></trkpt><trkpt lat="45.94907202455831" lon="9.312857169784316"><ele>348.0</ele><time>2026-03-28T17:40:44.999Z</time></trkpt><trkpt lat="45.948989916417375" lon="9.312822327455175"><ele>351.0</ele><time>2026-03-28T17:40:45.999Z</time></trkpt><trkpt lat="45.9489304829164" lon="9.31278943219728"><ele>354.0</ele><time>2026-03-28T17:40:46.999Z</time></trkpt><trkpt lat="45.94884623518294" lon="9.312751007082067"><ele>357.0</ele><time>2026-03-28T17:40:48.999Z</time></trkpt><trkpt lat="45.94876205352594" lon="9.312720090032585"><ele>360.0</ele><time>2026-03-28T17:40:50.999Z</time></trkpt><trkpt lat="45.94863807598943" lon="9.312698712369038"><ele>363.0</ele><time>2026-03-28T17:40:52.999Z</time></trkpt><trkpt lat="45.94853326639096" lon="9.312638422666675"><ele>363.0</ele><time>2026-03-28T17:40:53.999Z</time></trkpt><trkpt lat="45.948399182652715" lon="9.312584810754753"><ele>363.0</ele><time>2026-03-28T17:40:54.999Z</time></trkpt><trkpt lat="45.948256692275756" lon="9.31252566916095"><ele>363.0</ele><time>2026-03-28T17:40:55.999Z</time></trkpt><trkpt lat="45.94813003971323" lon="9.312463833171856"><ele>363.0</ele><time>2026-03-28T17:40:56.999Z</time></trkpt><trkpt lat="45.94802396049094" lon="9.312398067942338"><ele>362.59999999999997</ele><time>2026-03-28T17:40:57.999Z</time></trkpt><trkpt lat="45.94793771450674" lon="9.312346894843644"><ele>362.2</ele><time>2026-03-28T17:40:58.999Z</time></trkpt><trkpt lat="45.94786292643904" lon="9.312314929871278"><ele>361.8</ele><time>2026-03-28T17:40:59.999Z</time></trkpt><trkpt lat="45.94779865429009" lon="9.31228808100728"><ele>361.4</ele><time>2026-03-28T17:41:00.999Z</time></trkpt><trkpt lat="45.94766601352345" lon="9.312242945615443"><ele>361.0</ele><time>2026-03-28T17:41:02.999Z</time></trkpt><trkpt lat="45.947568636915314" lon="9.312201663190383"><ele>363.0</ele><time>2026-03-28T17:41:03.999Z</time></trkpt><trkpt lat="45.94746568306634" lon="9.312166387433754"><ele>365.0</ele><time>2026-03-28T17:41:04.999Z</time></trkpt><trkpt lat="45.94736356243122" lon="9.31214207519114"><ele>367.0</ele><time>2026-03-28T17:41:05.999Z</time></trkpt><trkpt lat="45.94726751931138" lon="9.31212734377112"><ele>369.0</ele><time>2026-03-28T17:41:06.999Z</time></trkpt><trkpt lat="45.94716505284541" lon="9.312113645853747"><ele>371.0</ele><time>2026-03-28T17:41:07.999Z</time></trkpt><trkpt lat="45.9470432997832" lon="9.312097627125949"><ele>371.0</ele><time>2026-03-28T17:41:08.999Z</time></trkpt><trkpt lat="45.946917973026366" lon="9.312082013798172"><ele>371.0</ele><time>2026-03-28T17:41:09.999Z</time></trkpt><trkpt lat="45.946804001781274" lon="9.312071315395173"><ele>371.0</ele><time>2026-03-28T17:41:10.999Z</time></trkpt><trkpt lat="45.94670006718271" lon="9.312064865760753"><ele>371.0</ele><time>2026-03-28T17:41:11.999Z</time></trkpt><trkpt lat="45.94659670131835" lon="9.312065505935156"><ele>371.0</ele><time>2026-03-28T17:41:12.999Z</time></trkpt><trkpt lat="45.94650332151216" lon="9.312073493961604"><ele>373.0</ele><time>2026-03-28T17:41:13.999Z</time></trkpt><trkpt lat="45.946417308870046" lon="9.312072682624185"><ele>375.0</ele><time>2026-03-28T17:41:14.999Z</time></trkpt><trkpt lat="45.94634084114893" lon="9.31208051497413"><ele>377.0</ele><time>2026-03-28T17:41:15.999Z</time></trkpt><trkpt lat="45.94625171429967" lon="9.31208367059099"><ele>379.0</ele><time>2026-03-28T17:41:17.999Z</time></trkpt><trkpt lat="45.946131644795756" lon="9.312104308633426"><ele>381.0</ele><time>2026-03-28T17:41:19.999Z</time></trkpt><trkpt lat="45.946030188798886" lon="9.312120222067568"><ele>381.0</ele><time>2026-03-28T17:41:20.999Z</time></trkpt><trkpt lat="45.94593637551338" lon="9.312131640390133"><ele>381.0</ele><time>2026-03-28T17:41:21.999Z</time></trkpt><trkpt lat="45.94584783703319" lon="9.31215665659916"><ele>381.0</ele><time>2026-03-28T17:41:22.999Z</time></trkpt><trkpt lat="45.9457561236866" lon="9.312184686902024"><ele>381.0</ele><time>2026-03-28T17:41:23.999Z</time></trkpt><trkpt lat="45.94567756578205" lon="9.312199064117783"><ele>381.0</ele><time>2026-03-28T17:41:24.999Z</time></trkpt><trkpt lat="45.94558888487497" lon="9.312217591036825"><ele>381.0</ele><time>2026-03-28T17:41:25.999Z</time></trkpt><trkpt lat="45.945504539704665" lon="9.312243436866728"><ele>381.1666666666667</ele><time>2026-03-28T17:41:26.999Z</time></trkpt><trkpt lat="45.945422517996285" lon="9.312286690005156"><ele>381.3333333333333</ele><time>2026-03-28T17:41:27.999Z</time></trkpt><trkpt lat="45.94534104616139" lon="9.312323657266198"><ele>381.5</ele><time>2026-03-28T17:41:28.999Z</time></trkpt><trkpt lat="45.94525652473791" lon="9.312344501593422"><ele>381.66666666666663</ele><time>2026-03-28T17:41:30Z</time></trkpt><trkpt lat="45.9451522986562" lon="9.312391570644188"><ele>381.8333333333333</ele><time>2026-03-28T17:41:32Z</time></trkpt><trkpt lat="45.94509246127881" lon="9.312425623737067"><ele>382.0</ele><time>2026-03-28T17:41:33Z</time></trkpt><trkpt lat="45.94499297207866" lon="9.31249224033565"><ele>382.0</ele><time>2026-03-28T17:41:34Z</time></trkpt><trkpt lat="45.944867954958404" lon="9.312572597446094"><ele>382.0</ele><time>2026-03-28T17:41:35Z</time></trkpt><trkpt lat="45.944759793734285" lon="9.31262183143482"><ele>382.0</ele><time>2026-03-28T17:41:36Z</time></trkpt><trkpt lat="45.94466831568719" lon="9.312678267476187"><ele>382.0</ele><time>2026-03-28T17:41:37Z</time></trkpt><trkpt lat="45.94459470012582" lon="9.312701873501165"><ele>382.0</ele><time>2026-03-28T17:41:38Z</time></trkpt><trkpt lat="45.944520790149134" lon="9.312749236571438"><ele>382.0</ele><time>2026-03-28T17:41:39Z</time></trkpt><trkpt lat="45.94445735296387" lon="9.31278469273404"><ele>382.0</ele><time>2026-03-28T17:41:40Z</time></trkpt><trkpt lat="45.944397061379384" lon="9.312845637844584"><ele>382.0</ele><time>2026-03-28T17:41:41Z</time></trkpt><trkpt lat="45.94432854345616" lon="9.312910477146929"><ele>382.0</ele><time>2026-03-28T17:41:42Z</time></trkpt><trkpt lat="45.94425850094388" lon="9.31297377650427"><ele>382.0</ele><time>2026-03-28T17:41:43Z</time></trkpt><trkpt lat="45.94417185737203" lon="9.313024536280547"><ele>382.0</ele><time>2026-03-28T17:41:44Z</time></trkpt><trkpt lat="45.944091998818735" lon="9.313109271035428"><ele>382.0</ele><time>2026-03-28T17:41:45Z</time></trkpt><trkpt lat="45.94401167390391" lon="9.313171545100468"><ele>382.0</ele><time>2026-03-28T17:41:46Z</time></trkpt><trkpt lat="45.9439440809756" lon="9.313248284227601"><ele>382.0</ele><time>2026-03-28T17:41:47Z</time></trkpt><trkpt lat="45.94387800455952" lon="9.313331338346854"><ele>382.0</ele><time>2026-03-28T17:41:48Z</time></trkpt><trkpt lat="45.943816392961004" lon="9.313385355506888"><ele>382.0</ele><time>2026-03-28T17:41:49Z</time></trkpt><trkpt lat="45.94374787364982" lon="9.313451201022989"><ele>382.0</ele><time>2026-03-28T17:41:50Z</time></trkpt><trkpt lat="45.94367646653193" lon="9.313515157882605"><ele>382.0</ele><time>2026-03-28T17:41:51Z</time></trkpt><trkpt lat="45.943597086311776" lon="9.313599316694258"><ele>382.0</ele><time>2026-03-28T17:41:52Z</time></trkpt><trkpt lat="45.94351604683914" lon="9.313681847510303"><ele>382.0</ele><time>2026-03-28T17:41:53Z</time></trkpt><trkpt lat="45.94343539895362" lon="9.313764984548063"><ele>382.0</ele><time>2026-03-28T17:41:54Z</time></trkpt><trkpt lat="45.943367906905486" lon="9.313830626181245"><ele>382.0</ele><time>2026-03-28T17:41:55Z</time></trkpt><trkpt lat="45.943313262704464" lon="9.313888757919495"><ele>382.0</ele><time>2026-03-28T17:41:56Z</time></trkpt><trkpt lat="45.943255965901955" lon="9.313948027993542"><ele>384.0</ele><time>2026-03-28T17:41:58Z</time></trkpt><trkpt lat="45.9431989214995" lon="9.314007252803211"><ele>386.0</ele><time>2026-03-28T17:42:00Z</time></trkpt><trkpt lat="45.943109990175394" lon="9.3141001272674"><ele>388.0</ele><time>2026-03-28T17:42:02Z</time></trkpt><trkpt lat="45.94302503020271" lon="9.31416999694294"><ele>390.0</ele><time>2026-03-28T17:42:04Z</time></trkpt><trkpt lat="45.942950410544334" lon="9.314254833508615"><ele>392.0</ele><time>2026-03-28T17:42:06.021Z</time></trkpt><trkpt lat="45.942873398797495" lon="9.31433430397241"><ele>392.0</ele><time>2026-03-28T17:42:08.021Z</time></trkpt><trkpt lat="45.94279693510154" lon="9.314413302319482"><ele>392.0</ele><time>2026-03-28T17:42:10.02Z</time></trkpt><trkpt lat="45.94113030685173" lon="9.316170947531111"><ele>409.0</ele><time>2026-03-28T17:42:14.312Z</time></trkpt><trkpt lat="45.94061979247706" lon="9.316699461946746"><ele>409.0</ele><time>2026-03-28T17:42:15.312Z</time></trkpt><trkpt lat="45.94011051208551" lon="9.317230573481394"><ele>402.0</ele><time>2026-03-28T17:42:16.312Z</time></trkpt><trkpt lat="45.939602608310025" lon="9.317764246289283"><ele>415.0</ele><time>2026-03-28T17:42:17.312Z</time></trkpt><trkpt lat="45.93910939414577" lon="9.318325347871657"><ele>442.0</ele><time>2026-03-28T17:42:18.311Z</time></trkpt><trkpt lat="45.93862708680478" lon="9.318905680118359"><ele>431.0</ele><time>2026-03-28T17:42:19.311Z</time></trkpt><trkpt lat="45.93815305946411" lon="9.319500024699932"><ele>446.0</ele><time>2026-03-28T17:42:20.312Z</time></trkpt><trkpt lat="45.93768037027924" lon="9.320096408959474"><ele>472.0</ele><time>2026-03-28T17:42:21.311Z</time></trkpt><trkpt lat="45.937209717605874" lon="9.320696181790362"><ele>472.0</ele><time>2026-03-28T17:42:22.311Z</time></trkpt><trkpt lat="45.93673807485523" lon="9.321294296800053"><ele>500.0</ele><time>2026-03-28T17:42:23.311Z</time></trkpt><trkpt lat="45.93626627647473" lon="9.321892235341"><ele>506.0</ele><time>2026-03-28T17:42:24.311Z</time></trkpt><trkpt lat="45.93579695249893" lon="9.322487316136327"><ele>540.0</ele><time>2026-03-28T17:42:25.306Z</time></trkpt><trkpt lat="45.93532343405428" lon="9.323089223419288"><ele>482.0</ele><time>2026-03-28T17:42:26.311Z</time></trkpt><trkpt lat="45.934851987109525" lon="9.323687723159873"><ele>506.0</ele><time>2026-03-28T17:42:27.311Z</time></trkpt><trkpt lat="45.934379664273884" lon="9.324284758557656"><ele>484.0</ele><time>2026-03-28T17:42:28.311Z</time></trkpt><trkpt lat="45.933908441033864" lon="9.324882221028368"><ele>484.0</ele><time>2026-03-28T17:42:29.31Z</time></trkpt><trkpt lat="45.933436904263395" lon="9.325481761289605"><ele>455.0</ele><time>2026-03-28T17:42:30.311Z</time></trkpt><trkpt lat="45.93296340459778" lon="9.32607692363358"><ele>413.0</ele><time>2026-03-28T17:42:31.311Z</time></trkpt><trkpt lat="45.93248886683452" lon="9.326670216034648"><ele>413.0</ele><time>2026-03-28T17:42:32.311Z</time></trkpt><trkpt lat="45.93199260049749" lon="9.327224970450402"><ele>387.0</ele><time>2026-03-28T17:42:33.311Z</time></trkpt><trkpt lat="45.93147411624729" lon="9.327730398515973"><ele>398.0</ele><time>2026-03-28T17:42:34.307Z</time></trkpt><trkpt lat="45.930925525978246" lon="9.328176529183686"><ele>375.0</ele><time>2026-03-28T17:42:35.309Z</time></trkpt><trkpt lat="45.93035722876456" lon="9.32856449300363"><ele>350.0</ele><time>2026-03-28T17:42:36.309Z</time></trkpt><trkpt lat="45.92976798009018" lon="9.328888546550525"><ele>323.0</ele><time>2026-03-28T17:42:37.311Z</time></trkpt><trkpt lat="45.92856033212843" lon="9.329399236458302"><ele>352.0</ele><time>2026-03-28T17:42:39.311Z</time></trkpt><trkpt lat="45.92795345517084" lon="9.32963982739905"><ele>393.0</ele><time>2026-03-28T17:42:40.311Z</time></trkpt><trkpt lat="45.927349490370666" lon="9.329880948181525"><ele>393.0</ele><time>2026-03-28T17:42:41.307Z</time></trkpt><trkpt lat="45.92674044275921" lon="9.330125609479001"><ele>390.0</ele><time>2026-03-28T17:42:42.311Z</time></trkpt><trkpt lat="45.92604721682856" lon="9.330403186741957"><ele>394.0</ele><time>2026-03-28T17:42:43.311Z</time></trkpt><trkpt lat="45.92534392113313" lon="9.330620220009369"><ele>393.0</ele><time>2026-03-28T17:42:44.311Z</time></trkpt><trkpt lat="45.92462905514333" lon="9.330737376475593"><ele>381.0</ele><time>2026-03-28T17:42:45.311Z</time></trkpt><trkpt lat="45.923909867581806" lon="9.330758173682042"><ele>375.0</ele><time>2026-03-28T17:42:46.311Z</time></trkpt><trkpt lat="45.923192524301164" lon="9.330677710156598"><ele>354.0</ele><time>2026-03-28T17:42:47.311Z</time></trkpt><trkpt lat="45.922484163524146" lon="9.330498364312989"><ele>354.0</ele><time>2026-03-28T17:42:48.311Z</time></trkpt><trkpt lat="45.92179066638956" lon="9.330222761401803"><ele>348.0</ele><time>2026-03-28T17:42:49.311Z</time></trkpt><trkpt lat="45.92111978971764" lon="9.329851348157055"><ele>321.0</ele><time>2026-03-28T17:42:50.311Z</time></trkpt><trkpt lat="45.92047636828652" lon="9.329390211132806"><ele>323.0</ele><time>2026-03-28T17:42:51.311Z</time></trkpt><trkpt lat="45.9287319705318" lon="9.32934422046815"><ele>352.0</ele><time>2026-03-28T17:43:13.999Z</time></trkpt><trkpt lat="45.928106251181696" lon="9.329610346964449"><ele>356.5</ele><time>2026-03-28T17:43:15.999Z</time></trkpt><trkpt lat="45.92778733220519" lon="9.329746082345443"><ele>361.0</ele><time>2026-03-28T17:43:17.019Z</time></trkpt><trkpt lat="45.925828043268446" lon="9.330480620124769"><ele>394.0</ele><time>2026-03-28T17:43:20.311Z</time></trkpt><trkpt lat="45.925120628508026" lon="9.330668059602937"><ele>393.0</ele><time>2026-03-28T17:43:21.311Z</time></trkpt><trkpt lat="45.924406619034265" lon="9.330754456811434"><ele>381.0</ele><time>2026-03-28T17:43:22.307Z</time></trkpt><trkpt lat="45.92368434918526" lon="9.330742673608514"><ele>375.0</ele><time>2026-03-28T17:43:23.311Z</time></trkpt><trkpt lat="45.92297007949537" lon="9.33063463306907"><ele>354.0</ele><time>2026-03-28T17:43:24.309Z</time></trkpt><trkpt lat="45.92226475270221" lon="9.330422008408226"><ele>348.0</ele><time>2026-03-28T17:43:25.311Z</time></trkpt><trkpt lat="45.921577377699975" lon="9.330117390915415"><ele>315.0</ele><time>2026-03-28T17:43:26.311Z</time></trkpt><trkpt lat="45.92091461726326" lon="9.329716353223958"><ele>321.0</ele><time>2026-03-28T17:43:27.311Z</time></trkpt><trkpt lat="45.92028139924875" lon="9.329227043582415"><ele>300.0</ele><time>2026-03-28T17:43:28.311Z</time></trkpt><trkpt lat="45.91920966752424" lon="9.328078720727309"><ele>293.5</ele><time>2026-03-28T17:43:44.999Z</time></trkpt><trkpt lat="45.918949790842994" lon="9.327846123954807"><ele>287.0</ele><time>2026-03-28T17:43:45.999Z</time></trkpt><trkpt lat="45.91874282470952" lon="9.327858477575148"><ele>287.0</ele><time>2026-03-28T17:43:46.999Z</time></trkpt><trkpt lat="45.9185291428322" lon="9.3276667394246"><ele>287.0</ele><time>2026-03-28T17:43:47.999Z</time></trkpt><trkpt lat="45.91828292436261" lon="9.327441099516559"><ele>291.0</ele><time>2026-03-28T17:43:48.999Z</time></trkpt><trkpt lat="45.918018213291084" lon="9.327234553693378"><ele>295.0</ele><time>2026-03-28T17:43:49.999Z</time></trkpt><trkpt lat="45.91772918284585" lon="9.327112399929698"><ele>284.0</ele><time>2026-03-28T17:43:51Z</time></trkpt><trkpt lat="45.917412106701306" lon="9.327093439875457"><ele>273.0</ele><time>2026-03-28T17:43:52Z</time></trkpt><trkpt lat="45.91714325781271" lon="9.327013031072743"><ele>273.0</ele><time>2026-03-28T17:43:53Z</time></trkpt><trkpt lat="45.916893930191506" lon="9.327004080686457"><ele>273.0</ele><time>2026-03-28T17:43:54Z</time></trkpt><trkpt lat="45.91664306752685" lon="9.326999345607193"><ele>275.0</ele><time>2026-03-28T17:43:55Z</time></trkpt><trkpt lat="45.91638035282785" lon="9.32702537716491"><ele>277.0</ele><time>2026-03-28T17:43:56Z</time></trkpt><trkpt lat="45.91612448976259" lon="9.327074900601454"><ele>278.0</ele><time>2026-03-28T17:43:57Z</time></trkpt><trkpt lat="45.915868743225246" lon="9.327152029518315"><ele>279.0</ele><time>2026-03-28T17:43:58Z</time></trkpt><trkpt lat="45.915609752075454" lon="9.327253013536748"><ele>286.0</ele><time>2026-03-28T17:43:59Z</time></trkpt><trkpt lat="45.915356184733575" lon="9.32737461044291"><ele>293.0</ele><time>2026-03-28T17:44:00Z</time></trkpt><trkpt lat="45.915098865978976" lon="9.327495611661044"><ele>291.0</ele><time>2026-03-28T17:44:01Z</time></trkpt><trkpt lat="45.91482858514591" lon="9.327613412969235"><ele>289.0</ele><time>2026-03-28T17:44:02Z</time></trkpt><trkpt lat="45.91456158520463" lon="9.327729712987423"><ele>289.0</ele><time>2026-03-28T17:44:03Z</time></trkpt><trkpt lat="45.91429965451257" lon="9.327844328711247"><ele>289.0</ele><time>2026-03-28T17:44:04Z</time></trkpt><trkpt lat="45.91402577279501" lon="9.327962731867435"><ele>291.5</ele><time>2026-03-28T17:44:05Z</time></trkpt><trkpt lat="45.91374935245458" lon="9.328084706875455"><ele>294.0</ele><time>2026-03-28T17:44:06Z</time></trkpt><trkpt lat="45.91346962072109" lon="9.3282118417423"><ele>290.5</ele><time>2026-03-28T17:44:07Z</time></trkpt><trkpt lat="45.91318682007685" lon="9.32835049510566"><ele>287.0</ele><time>2026-03-28T17:44:08Z</time></trkpt><trkpt lat="45.91290584740912" lon="9.328481171223485"><ele>287.0</ele><time>2026-03-28T17:44:09Z</time></trkpt><trkpt lat="45.912619633665344" lon="9.328617708101193"><ele>287.0</ele><time>2026-03-28T17:44:10Z</time></trkpt><trkpt lat="45.91233947770629" lon="9.328770843082483"><ele>291.5</ele><time>2026-03-28T17:44:11Z</time></trkpt><trkpt lat="45.91206512194589" lon="9.3289350250126"><ele>296.0</ele><time>2026-03-28T17:44:12Z</time></trkpt><trkpt lat="45.91178806239319" lon="9.329123883383549"><ele>293.0</ele><time>2026-03-28T17:44:13Z</time></trkpt><trkpt lat="45.9115146974004" lon="9.32933942684697"><ele>290.0</ele><time>2026-03-28T17:44:14Z</time></trkpt><trkpt lat="45.91124674177808" lon="9.329568832874077"><ele>294.5</ele><time>2026-03-28T17:44:15Z</time></trkpt><trkpt lat="45.91098129456181" lon="9.32983192292454"><ele>299.0</ele><time>2026-03-28T17:44:16Z</time></trkpt><trkpt lat="45.91070351569803" lon="9.330114889278493"><ele>294.5</ele><time>2026-03-28T17:44:17Z</time></trkpt><trkpt lat="45.91042728291138" lon="9.330410136101774"><ele>290.0</ele><time>2026-03-28T17:44:18Z</time></trkpt><trkpt lat="45.910154289321234" lon="9.33069434606508"><ele>283.5</ele><time>2026-03-28T17:44:19Z</time></trkpt><trkpt lat="45.909884499707715" lon="9.330959319339383"><ele>277.0</ele><time>2026-03-28T17:44:20Z</time></trkpt><trkpt lat="45.909604066048644" lon="9.33121185280601"><ele>276.0</ele><time>2026-03-28T17:44:21Z</time></trkpt><trkpt lat="45.90931013847002" lon="9.331447769550538"><ele>275.0</ele><time>2026-03-28T17:44:22Z</time></trkpt><trkpt lat="45.90900953418736" lon="9.331668327526511"><ele>275.0</ele><time>2026-03-28T17:44:23Z</time></trkpt><trkpt lat="45.908696083972" lon="9.33187051164328"><ele>275.0</ele><time>2026-03-28T17:44:24Z</time></trkpt><trkpt lat="45.908373517856795" lon="9.332062536456535"><ele>273.0</ele><time>2026-03-28T17:44:25Z</time></trkpt><trkpt lat="45.908047286977876" lon="9.332243393108323"><ele>271.0</ele><time>2026-03-28T17:44:26Z</time></trkpt><trkpt lat="45.90772082791857" lon="9.332415406919464"><ele>266.0</ele><time>2026-03-28T17:44:27Z</time></trkpt><trkpt lat="45.907391380162444" lon="9.332584063023718"><ele>261.0</ele><time>2026-03-28T17:44:28Z</time></trkpt><trkpt lat="45.90705877885184" lon="9.332750293027274"><ele>261.5</ele><time>2026-03-28T17:44:29Z</time></trkpt><trkpt lat="45.906728756227295" lon="9.332923394259806"><ele>262.0</ele><time>2026-03-28T17:44:30Z</time></trkpt><trkpt lat="45.90641079961575" lon="9.33308252123876"><ele>262.0</ele><time>2026-03-28T17:44:31Z</time></trkpt><trkpt lat="45.90609536262122" lon="9.333248309565562"><ele>262.0</ele><time>2026-03-28T17:44:32Z</time></trkpt><trkpt lat="45.90577925938321" lon="9.333416908999604"><ele>255.0</ele><time>2026-03-28T17:44:33Z</time></trkpt><trkpt lat="45.9054585231369" lon="9.33358006051908"><ele>248.0</ele><time>2026-03-28T17:44:34Z</time></trkpt><trkpt lat="45.90514072887677" lon="9.333746097091439"><ele>245.5</ele><time>2026-03-28T17:44:35Z</time></trkpt><trkpt lat="45.90482775067295" lon="9.33390720556157"><ele>243.0</ele><time>2026-03-28T17:44:36Z</time></trkpt><trkpt lat="45.904522631168625" lon="9.334069687321557"><ele>237.5</ele><time>2026-03-28T17:44:37Z</time></trkpt><trkpt lat="45.90422506348425" lon="9.334229632430338"><ele>232.0</ele><time>2026-03-28T17:44:38Z</time></trkpt><trkpt lat="45.90393966950712" lon="9.33440483190999"><ele>232.0</ele><time>2026-03-28T17:44:39Z</time></trkpt><trkpt lat="45.90366533610263" lon="9.334607659251672"><ele>232.0</ele><time>2026-03-28T17:44:40Z</time></trkpt><trkpt lat="45.90340523477861" lon="9.334834590439462"><ele>230.5</ele><time>2026-03-28T17:44:41Z</time></trkpt><trkpt lat="45.90315631492523" lon="9.33508667081009"><ele>229.0</ele><time>2026-03-28T17:44:42Z</time></trkpt><trkpt lat="45.9029161221103" lon="9.335349856482495"><ele>234.5</ele><time>2026-03-28T17:44:43Z</time></trkpt><trkpt lat="45.90269871325934" lon="9.335636264642577"><ele>240.0</ele><time>2026-03-28T17:44:44Z</time></trkpt><trkpt lat="45.90247632245253" lon="9.335927234884947"><ele>243.0</ele><time>2026-03-28T17:44:45Z</time></trkpt><trkpt lat="45.90225898163857" lon="9.336217032004203"><ele>246.0</ele><time>2026-03-28T17:44:46Z</time></trkpt><trkpt lat="45.90203649467343" lon="9.336504208251"><ele>248.0</ele><time>2026-03-28T17:44:47Z</time></trkpt><trkpt lat="45.901808131658136" lon="9.336795937917065"><ele>250.0</ele><time>2026-03-28T17:44:48.023Z</time></trkpt><trkpt lat="45.90158811832297" lon="9.337080387146868"><ele>255.0</ele><time>2026-03-28T17:44:49.019Z</time></trkpt><trkpt lat="45.90136648613726" lon="9.33736573797704"><ele>260.0</ele><time>2026-03-28T17:44:50.021Z</time></trkpt><trkpt lat="45.90114146398637" lon="9.33765282930363"><ele>290.0</ele><time>2026-03-28T17:44:51.029Z</time></trkpt><trkpt lat="45.899762059505754" lon="9.339764436616411"><ele>325.0</ele><time>2026-03-28T17:44:54.31Z</time></trkpt><trkpt lat="45.899058144285405" lon="9.34076081850616"><ele>353.0</ele><time>2026-03-28T17:44:55.31Z</time></trkpt><trkpt lat="45.898354730124524" lon="9.341757824140785"><ele>393.0</ele><time>2026-03-28T17:44:56.31Z</time></trkpt><trkpt lat="45.89765215481357" lon="9.3427561154134"><ele>383.0</ele><time>2026-03-28T17:44:57.31Z</time></trkpt><trkpt lat="45.89695010486828" lon="9.343746922831297"><ele>383.0</ele><time>2026-03-28T17:44:58.306Z</time></trkpt><trkpt lat="45.896272496171726" lon="9.344784877526482"><ele>346.0</ele><time>2026-03-28T17:44:59.31Z</time></trkpt><trkpt lat="45.89749004784133" lon="9.34252228097398"><ele>208.0</ele><time>2026-03-28T17:45:09.403Z</time></trkpt><trkpt lat="45.89572839443189" lon="9.346498455860974"><ele>208.0</ele><time>2026-03-28T17:45:16.999Z</time></trkpt><trkpt lat="45.89556475608526" lon="9.346822691919092"><ele>208.0</ele><time>2026-03-28T17:45:17.999Z</time></trkpt><trkpt lat="45.89529837317751" lon="9.347092471974154"><ele>205.5</ele><time>2026-03-28T17:45:18.999Z</time></trkpt><trkpt lat="45.89516632323292" lon="9.347382850002925"><ele>203.0</ele><time>2026-03-28T17:45:19.999Z</time></trkpt><trkpt lat="45.89504438129055" lon="9.347634829991932"><ele>203.0</ele><time>2026-03-28T17:45:20.999Z</time></trkpt><trkpt lat="45.8949021175895" lon="9.347892392514995"><ele>203.0</ele><time>2026-03-28T17:45:21.999Z</time></trkpt><trkpt lat="45.89478186799008" lon="9.348134556528361"><ele>203.0</ele><time>2026-03-28T17:45:22.999Z</time></trkpt><trkpt lat="45.8946714188986" lon="9.34836856153321"><ele>205.66666666666669</ele><time>2026-03-28T17:45:23.999Z</time></trkpt><trkpt lat="45.8945765796544" lon="9.348626691788265"><ele>208.33333333333331</ele><time>2026-03-28T17:45:24.999Z</time></trkpt><trkpt lat="45.89447697116589" lon="9.348908418399555"><ele>211.0</ele><time>2026-03-28T17:45:25.999Z</time></trkpt><trkpt lat="45.894382079799094" lon="9.349213830219098"><ele>208.5</ele><time>2026-03-28T17:45:26.999Z</time></trkpt><trkpt lat="45.89428816059543" lon="9.349548453441582"><ele>206.0</ele><time>2026-03-28T17:45:27.999Z</time></trkpt><trkpt lat="45.89418007411854" lon="9.349911373265703"><ele>206.0</ele><time>2026-03-28T17:45:28.999Z</time></trkpt><trkpt lat="45.894066584005515" lon="9.350280421735395"><ele>206.0</ele><time>2026-03-28T17:45:29.999Z</time></trkpt><trkpt lat="45.893952830177255" lon="9.350655404206945"><ele>209.5</ele><time>2026-03-28T17:45:30.999Z</time></trkpt><trkpt lat="45.893844320302826" lon="9.351031300417874"><ele>213.0</ele><time>2026-03-28T17:45:31.999Z</time></trkpt><trkpt lat="45.89373232927908" lon="9.351398230010057"><ele>223.0</ele><time>2026-03-28T17:45:32.999Z</time></trkpt><trkpt lat="45.89361877330224" lon="9.351767007315761"><ele>233.0</ele><time>2026-03-28T17:45:33.999Z</time></trkpt><trkpt lat="45.89349081637336" lon="9.352132100778782"><ele>219.0</ele><time>2026-03-28T17:45:34.999Z</time></trkpt><trkpt lat="45.89335095935074" lon="9.352496260172831"><ele>205.0</ele><time>2026-03-28T17:45:35.999Z</time></trkpt><trkpt lat="45.89319628325386" lon="9.352858785300553"><ele>216.0</ele><time>2026-03-28T17:45:36.999Z</time></trkpt><trkpt lat="45.893021013083654" lon="9.35320459080197"><ele>227.0</ele><time>2026-03-28T17:45:37.999Z</time></trkpt><trkpt lat="45.892818986436914" lon="9.353528530242896"><ele>227.0</ele><time>2026-03-28T17:45:38.999Z</time></trkpt><trkpt lat="45.892598072204585" lon="9.353821895658344"><ele>227.0</ele><time>2026-03-28T17:45:39.999Z</time></trkpt><trkpt lat="45.89236223434974" lon="9.354088700825686"><ele>219.0</ele><time>2026-03-28T17:45:40.999Z</time></trkpt><trkpt lat="45.892112911664114" lon="9.35434594512415"><ele>211.0</ele><time>2026-03-28T17:45:41.999Z</time></trkpt><trkpt lat="45.89186006079982" lon="9.35460098686458"><ele>209.5</ele><time>2026-03-28T17:45:42.999Z</time></trkpt><trkpt lat="45.89162320735546" lon="9.354876705142592"><ele>208.0</ele><time>2026-03-28T17:45:43.999Z</time></trkpt><trkpt lat="45.891419371557504" lon="9.355178702158494"><ele>208.0</ele><time>2026-03-28T17:45:44.999Z</time></trkpt><trkpt lat="45.89123421836434" lon="9.355515372980676"><ele>208.0</ele><time>2026-03-28T17:45:45.999Z</time></trkpt><trkpt lat="45.89105362191796" lon="9.355884634248797"><ele>209.5</ele><time>2026-03-28T17:45:46.999Z</time></trkpt><trkpt lat="45.89087924729498" lon="9.356280343480584"><ele>211.0</ele><time>2026-03-28T17:45:47.999Z</time></trkpt><trkpt lat="45.890700742573955" lon="9.356671971659933"><ele>211.0</ele><time>2026-03-28T17:45:48.999Z</time></trkpt><trkpt lat="45.890508766932776" lon="9.357045197316008"><ele>211.0</ele><time>2026-03-28T17:45:49.999Z</time></trkpt><trkpt lat="45.8903026203064" lon="9.357380992926855"><ele>208.5</ele><time>2026-03-28T17:45:50.999Z</time></trkpt><trkpt lat="45.89008510917571" lon="9.357664768844655"><ele>206.0</ele><time>2026-03-28T17:45:51.999Z</time></trkpt><trkpt lat="45.889850431839726" lon="9.357920696837102"><ele>216.5</ele><time>2026-03-28T17:45:52.999Z</time></trkpt><trkpt lat="45.88960152663597" lon="9.35815913647915"><ele>227.0</ele><time>2026-03-28T17:45:53.999Z</time></trkpt><trkpt lat="45.88933826684331" lon="9.358372130985888"><ele>218.5</ele><time>2026-03-28T17:45:54.999Z</time></trkpt><trkpt lat="45.88905782977943" lon="9.358550995572715"><ele>210.0</ele><time>2026-03-28T17:45:55.999Z</time></trkpt><trkpt lat="45.88875118751363" lon="9.358696032517397"><ele>210.0</ele><time>2026-03-28T17:45:57Z</time></trkpt><trkpt lat="45.888430908974144" lon="9.358834740515285"><ele>210.0</ele><time>2026-03-28T17:45:58Z</time></trkpt><trkpt lat="45.888098477739774" lon="9.358988724613296"><ele>208.5</ele><time>2026-03-28T17:45:59Z</time></trkpt><trkpt lat="45.88776778583248" lon="9.35914853527354"><ele>207.0</ele><time>2026-03-28T17:46:00Z</time></trkpt><trkpt lat="45.88744843704546" lon="9.359320490186848"><ele>207.0</ele><time>2026-03-28T17:46:01Z</time></trkpt><trkpt lat="45.88713151271483" lon="9.359520981524119"><ele>207.0</ele><time>2026-03-28T17:46:02Z</time></trkpt><trkpt lat="45.88680754999856" lon="9.359744521884966"><ele>210.0</ele><time>2026-03-28T17:46:03Z</time></trkpt><trkpt lat="45.886481010195034" lon="9.35997679858655"><ele>213.0</ele><time>2026-03-28T17:46:04Z</time></trkpt><trkpt lat="45.88615446308375" lon="9.360210805399761"><ele>218.0</ele><time>2026-03-28T17:46:05Z</time></trkpt><trkpt lat="45.88583459919286" lon="9.360436802955462"><ele>223.0</ele><time>2026-03-28T17:46:06Z</time></trkpt><trkpt lat="45.88552780820086" lon="9.360657705583332"><ele>223.0</ele><time>2026-03-28T17:46:07Z</time></trkpt><trkpt lat="45.8852382755434" lon="9.3608872664823"><ele>223.0</ele><time>2026-03-28T17:46:08Z</time></trkpt><trkpt lat="45.88496265885033" lon="9.36113981642576"><ele>228.0</ele><time>2026-03-28T17:46:09Z</time></trkpt><trkpt lat="45.88470802793002" lon="9.361413967265387"><ele>233.0</ele><time>2026-03-28T17:46:10Z</time></trkpt><trkpt lat="45.88447899664166" lon="9.36172196895517"><ele>233.0</ele><time>2026-03-28T17:46:11Z</time></trkpt><trkpt lat="45.88427403109444" lon="9.36205725856374"><ele>233.0</ele><time>2026-03-28T17:46:12Z</time></trkpt><trkpt lat="45.88407929302996" lon="9.362418052881607"><ele>228.0</ele><time>2026-03-28T17:46:13Z</time></trkpt><trkpt lat="45.8838651240519" lon="9.362795580394037"><ele>223.0</ele><time>2026-03-28T17:46:14Z</time></trkpt><trkpt lat="45.88363162252752" lon="9.36316337536195"><ele>217.5</ele><time>2026-03-28T17:46:15Z</time></trkpt><trkpt lat="45.88342381657424" lon="9.363507351193855"><ele>212.0</ele><time>2026-03-28T17:46:16Z</time></trkpt><trkpt lat="45.883215254592265" lon="9.363861131266013"><ele>220.5</ele><time>2026-03-28T17:46:17Z</time></trkpt><trkpt lat="45.88301172155325" lon="9.364233792553579"><ele>229.0</ele><time>2026-03-28T17:46:18Z</time></trkpt><trkpt lat="45.88283541341829" lon="9.364603450000564"><ele>235.5</ele><time>2026-03-28T17:46:19Z</time></trkpt><trkpt lat="45.88272900072591" lon="9.364950058962155"><ele>242.0</ele><time>2026-03-28T17:46:20Z</time></trkpt><trkpt lat="45.882558011825495" lon="9.365307562104592"><ele>230.5</ele><time>2026-03-28T17:46:21Z</time></trkpt><trkpt lat="45.88237717507015" lon="9.365664385514066"><ele>219.0</ele><time>2026-03-28T17:46:22Z</time></trkpt><trkpt lat="45.88217802898922" lon="9.366028552715186"><ele>215.0</ele><time>2026-03-28T17:46:23Z</time></trkpt><trkpt lat="45.88195239751224" lon="9.366402622419761"><ele>211.0</ele><time>2026-03-28T17:46:24Z</time></trkpt><trkpt lat="45.881735166870534" lon="9.366801445961569"><ele>214.5</ele><time>2026-03-28T17:46:25Z</time></trkpt><trkpt lat="45.881520006674144" lon="9.367203632166296"><ele>218.0</ele><time>2026-03-28T17:46:26Z</time></trkpt><trkpt lat="45.881310404583246" lon="9.367588315269026"><ele>218.0</ele><time>2026-03-28T17:46:27Z</time></trkpt><trkpt lat="45.88112170031982" lon="9.367946363762917"><ele>218.0</ele><time>2026-03-28T17:46:28Z</time></trkpt><trkpt lat="45.88091777403249" lon="9.36829984289527"><ele>220.0</ele><time>2026-03-28T17:46:29Z</time></trkpt><trkpt lat="45.88072012043374" lon="9.368656810537496"><ele>222.0</ele><time>2026-03-28T17:46:30Z</time></trkpt><trkpt lat="45.880528059815774" lon="9.369010245495645"><ele>222.0</ele><time>2026-03-28T17:46:31Z</time></trkpt><trkpt lat="45.88034704804577" lon="9.369368166333292"><ele>222.0</ele><time>2026-03-28T17:46:32Z</time></trkpt><trkpt lat="45.880161100472776" lon="9.369718611206963"><ele>217.5</ele><time>2026-03-28T17:46:33Z</time></trkpt><trkpt lat="45.87996635974964" lon="9.370066956798977"><ele>213.0</ele><time>2026-03-28T17:46:34Z</time></trkpt><trkpt lat="45.8797628405222" lon="9.370405861881126"><ele>214.5</ele><time>2026-03-28T17:46:35Z</time></trkpt><trkpt lat="45.8795466021356" lon="9.370701737715422"><ele>216.0</ele><time>2026-03-28T17:46:36Z</time></trkpt><trkpt lat="45.87930766114504" lon="9.37097187852736"><ele>217.5</ele><time>2026-03-28T17:46:37Z</time></trkpt><trkpt lat="45.879070240023424" lon="9.371216187939835"><ele>219.0</ele><time>2026-03-28T17:46:38Z</time></trkpt><trkpt lat="45.8788585236355" lon="9.371498863386797"><ele>219.0</ele><time>2026-03-28T17:46:39Z</time></trkpt><trkpt lat="45.87868727199028" lon="9.371840109170956"><ele>219.0</ele><time>2026-03-28T17:46:40Z</time></trkpt><trkpt lat="45.87854549693987" lon="9.372173514257689"><ele>219.0</ele><time>2026-03-28T17:46:41Z</time></trkpt><trkpt lat="45.878438473747735" lon="9.372509808028116"><ele>219.0</ele><time>2026-03-28T17:46:42Z</time></trkpt><trkpt lat="45.87836379605147" lon="9.372869626634396"><ele>226.0</ele><time>2026-03-28T17:46:43Z</time></trkpt><trkpt lat="45.878303340232236" lon="9.37324605421101"><ele>233.0</ele><time>2026-03-28T17:46:44Z</time></trkpt><trkpt lat="45.878245344493976" lon="9.3736294562963"><ele>243.0</ele><time>2026-03-28T17:46:45Z</time></trkpt><trkpt lat="45.8782067137613" lon="9.374018964721518"><ele>253.0</ele><time>2026-03-28T17:46:46.021Z</time></trkpt><trkpt lat="45.878165119653154" lon="9.374396411260612"><ele>259.0</ele><time>2026-03-28T17:46:47.019Z</time></trkpt><trkpt lat="45.87811272428657" lon="9.374784101960408"><ele>265.0</ele><time>2026-03-28T17:46:48.014Z</time></trkpt><trkpt lat="45.878047867185934" lon="9.375194231380679"><ele>263.5</ele><time>2026-03-28T17:46:49.014Z</time></trkpt><trkpt lat="45.877967591267236" lon="9.375586296980952"><ele>262.0</ele><time>2026-03-28T17:46:50.022Z</time></trkpt><trkpt lat="45.8777621" lon="9.3766855"><ele>298.0</ele><time>2026-03-28T17:46:53.308Z</time></trkpt><trkpt lat="45.87748944616288" lon="9.377497979862254"><ele>314.0</ele><time>2026-03-28T17:48:04.308Z</time></trkpt><trkpt lat="45.87717034456656" lon="9.378275002094227"><ele>336.0</ele><time>2026-03-28T17:48:05.308Z</time></trkpt><trkpt lat="45.876803391579244" lon="9.379007413077382"><ele>336.0</ele><time>2026-03-28T17:48:06.308Z</time></trkpt><trkpt lat="45.87639341457747" lon="9.379691467503754"><ele>336.0</ele><time>2026-03-28T17:48:07.308Z</time></trkpt><trkpt lat="45.87594297293951" lon="9.380321148092188"><ele>336.0</ele><time>2026-03-28T17:48:08.308Z</time></trkpt><trkpt lat="45.875456591795206" lon="9.380893608065046"><ele>336.0</ele><time>2026-03-28T17:48:09.308Z</time></trkpt><trkpt lat="45.87493894843542" lon="9.381400170200738"><ele>336.0</ele><time>2026-03-28T17:48:10.304Z</time></trkpt><trkpt lat="45.87438717011718" lon="9.381841589987749"><ele>336.0</ele><time>2026-03-28T17:48:11.308Z</time></trkpt><trkpt lat="45.87382363411198" lon="9.382244031823586"><ele>491.0</ele><time>2026-03-28T17:48:12.308Z</time></trkpt><trkpt lat="45.873260105646814" lon="9.38264653563035"><ele>536.0</ele><time>2026-03-28T17:48:13.308Z</time></trkpt><trkpt lat="45.8726966190513" lon="9.38304918267232"><ele>499.0</ele><time>2026-03-28T17:48:14.308Z</time></trkpt><trkpt lat="45.872133099272205" lon="9.383451853426068"><ele>515.0</ele><time>2026-03-28T17:48:15.308Z</time></trkpt><trkpt lat="45.87156964592744" lon="9.383854476708258"><ele>515.0</ele><time>2026-03-28T17:48:16.308Z</time></trkpt><trkpt lat="45.87100672506492" lon="9.384256719497984"><ele>487.0</ele><time>2026-03-28T17:48:17.307Z</time></trkpt><trkpt lat="45.870445257401876" lon="9.384658963721632"><ele>482.0</ele><time>2026-03-28T17:48:18.303Z</time></trkpt><trkpt lat="45.869880994653705" lon="9.385067553792288"><ele>482.0</ele><time>2026-03-28T17:48:19.308Z</time></trkpt><trkpt lat="45.869317266725034" lon="9.385469438989622"><ele>482.0</ele><time>2026-03-28T17:48:20.307Z</time></trkpt><trkpt lat="45.86875399698698" lon="9.385872691211393"><ele>339.0</ele><time>2026-03-28T17:48:21.307Z</time></trkpt><trkpt lat="45.868195759037526" lon="9.386284462217194"><ele>347.0</ele><time>2026-03-28T17:48:22.305Z</time></trkpt><trkpt lat="45.867646572184654" lon="9.38673076315505"><ele>315.0</ele><time>2026-03-28T17:48:23.307Z</time></trkpt><trkpt lat="45.86711057472464" lon="9.38719768434093"><ele>262.0</ele><time>2026-03-28T17:48:24.304Z</time></trkpt><trkpt lat="45.86658364861975" lon="9.387697128420292"><ele>270.0</ele><time>2026-03-28T17:48:25.307Z</time></trkpt><trkpt lat="45.866071332037805" lon="9.388221330550948"><ele>237.0</ele><time>2026-03-28T17:48:26.307Z</time></trkpt><trkpt lat="45.86556965022648" lon="9.388766260017935"><ele>240.0</ele><time>2026-03-28T17:48:27.307Z</time></trkpt><trkpt lat="45.86505462172343" lon="9.389278904173329"><ele>244.0</ele><time>2026-03-28T17:48:28.304Z</time></trkpt><trkpt lat="45.86452506474108" lon="9.389772150351316"><ele>240.0</ele><time>2026-03-28T17:48:29.307Z</time></trkpt><trkpt lat="45.864003487776024" lon="9.390276474326718"><ele>245.0</ele><time>2026-03-28T17:48:30.307Z</time></trkpt><trkpt lat="45.86347230598701" lon="9.390760537716902"><ele>246.0</ele><time>2026-03-28T17:48:31.307Z</time></trkpt><trkpt lat="45.86293987969315" lon="9.39124179738648"><ele>243.0</ele><time>2026-03-28T17:48:32.307Z</time></trkpt><trkpt lat="45.862406746414" lon="9.391721610369592"><ele>243.0</ele><time>2026-03-28T17:48:33.307Z</time></trkpt><trkpt lat="45.86187937008443" lon="9.392207532687637"><ele>239.0</ele><time>2026-03-28T17:48:34.303Z</time></trkpt><trkpt lat="45.86138984875526" lon="9.392773728879385"><ele>241.0</ele><time>2026-03-28T17:48:35.307Z</time></trkpt><trkpt lat="45.86094589121689" lon="9.393411017534856"><ele>241.0</ele><time>2026-03-28T17:48:36.307Z</time></trkpt><trkpt lat="45.86051808589368" lon="9.39407249758506"><ele>240.0</ele><time>2026-03-28T17:48:37.307Z</time></trkpt><trkpt lat="45.86008344108782" lon="9.394724744033825"><ele>240.0</ele><time>2026-03-28T17:48:38.307Z</time></trkpt><trkpt lat="45.85962658765652" lon="9.395345014840693"><ele>239.0</ele><time>2026-03-28T17:48:39.307Z</time></trkpt><trkpt lat="45.859167149475006" lon="9.39596144185695"><ele>242.0</ele><time>2026-03-28T17:48:40.307Z</time></trkpt><trkpt lat="45.858688355107745" lon="9.396544820035844"><ele>234.0</ele><time>2026-03-28T17:48:41.307Z</time></trkpt><trkpt lat="45.85817656392253" lon="9.397068708465287"><ele>229.0</ele><time>2026-03-28T17:48:42.307Z</time></trkpt><trkpt lat="45.85760201085718" lon="9.397426355969717"><ele>229.0</ele><time>2026-03-28T17:48:43.307Z</time></trkpt><trkpt lat="45.856984026623145" lon="9.397596525424794"><ele>225.0</ele><time>2026-03-28T17:48:44.307Z</time></trkpt><trkpt lat="45.85636319000117" lon="9.397739304285214"><ele>222.0</ele><time>2026-03-28T17:48:45.307Z</time></trkpt><trkpt lat="45.855800773404155" lon="9.398136706076313"><ele>222.0</ele><time>2026-03-28T17:48:46.307Z</time></trkpt><trkpt lat="45.8552774901653" lon="9.398637946767641"><ele>220.0</ele><time>2026-03-28T17:48:47.307Z</time></trkpt><trkpt lat="45.85475029078852" lon="9.399118966919888"><ele>224.0</ele><time>2026-03-28T17:48:48.305Z</time></trkpt><trkpt lat="45.85415045673458" lon="9.399390420097607"><ele>224.0</ele><time>2026-03-28T17:48:49.307Z</time></trkpt><trkpt lat="45.8535253892312" lon="9.399498964087604"><ele>222.0</ele><time>2026-03-28T17:48:50.307Z</time></trkpt><trkpt lat="45.85290940171604" lon="9.399677993887533"><ele>220.0</ele><time>2026-03-28T17:48:51.307Z</time></trkpt><trkpt lat="45.852367947248354" lon="9.4001341164913"><ele>221.0</ele><time>2026-03-28T17:48:52.307Z</time></trkpt><trkpt lat="45.85186890878633" lon="9.400682079939951"><ele>219.0</ele><time>2026-03-28T17:48:53.306Z</time></trkpt><trkpt lat="45.851383308041164" lon="9.401250547091413"><ele>213.0</ele><time>2026-03-28T17:48:54.303Z</time></trkpt><trkpt lat="45.850868380573" lon="9.40177507707531"><ele>216.0</ele><time>2026-03-28T17:48:55.307Z</time></trkpt><trkpt lat="45.85032400869297" lon="9.402228050610034"><ele>214.0</ele><time>2026-03-28T17:48:56.307Z</time></trkpt><trkpt lat="45.84977759673456" lon="9.402676075309042"><ele>216.0</ele><time>2026-03-28T17:48:57.307Z</time></trkpt><trkpt lat="45.84923553445613" lon="9.403127076190676"><ele>216.0</ele><time>2026-03-28T17:48:58.303Z</time></trkpt><trkpt lat="45.84868775558325" lon="9.403578850060207"><ele>214.0</ele><time>2026-03-28T17:48:59.307Z</time></trkpt><trkpt lat="45.84814222047894" lon="9.40402241450128"><ele>212.0</ele><time>2026-03-28T17:49:00.303Z</time></trkpt><trkpt lat="45.8475604984531" lon="9.404362265869883"><ele>212.0</ele><time>2026-03-28T17:49:01.304Z</time></trkpt><trkpt lat="45.8469624678931" lon="9.404651907622261"><ele>215.0</ele><time>2026-03-28T17:49:02.307Z</time></trkpt><trkpt lat="45.846356710779745" lon="9.404898266363995"><ele>214.0</ele><time>2026-03-28T17:49:03.307Z</time></trkpt><trkpt lat="45.84574918100627" lon="9.405134697229228"><ele>214.0</ele><time>2026-03-28T17:49:04.307Z</time></trkpt><trkpt lat="45.84512929911268" lon="9.40528395117727"><ele>213.0</ele><time>2026-03-28T17:49:05.307Z</time></trkpt><trkpt lat="45.844498581317794" lon="9.405552934834434"><ele>213.0</ele><time>2026-03-28T17:49:27.998Z</time></trkpt><trkpt lat="45.84443601646739" lon="9.405522234730048"><ele>213.0</ele><time>2026-03-28T17:49:28.998Z</time></trkpt><trkpt lat="45.84431617032961" lon="9.405506086158931"><ele>213.0</ele><time>2026-03-28T17:49:29.998Z</time></trkpt><trkpt lat="45.84421011228566" lon="9.405501239314008"><ele>213.0</ele><time>2026-03-28T17:49:30.998Z</time></trkpt><trkpt lat="45.84409733380431" lon="9.405478754728234"><ele>213.0</ele><time>2026-03-28T17:49:31.998Z</time></trkpt><trkpt lat="45.84401232517095" lon="9.405486405774582"><ele>212.2</ele><time>2026-03-28T17:49:33Z</time></trkpt><trkpt lat="45.84391889761644" lon="9.40548076187216"><ele>211.4</ele><time>2026-03-28T17:49:34Z</time></trkpt><trkpt lat="45.8438425516769" lon="9.40546589506627"><ele>210.6</ele><time>2026-03-28T17:49:35Z</time></trkpt><trkpt lat="45.84370811385831" lon="9.405408494226435"><ele>209.79999999999998</ele><time>2026-03-28T17:49:37Z</time></trkpt><trkpt lat="45.8435986035177" lon="9.405385140313479"><ele>209.0</ele><time>2026-03-28T17:49:38Z</time></trkpt><trkpt lat="45.843494358371274" lon="9.405338411569122"><ele>208.66666666666669</ele><time>2026-03-28T17:49:39Z</time></trkpt><trkpt lat="45.84335748249123" lon="9.405278855269103"><ele>208.33333333333331</ele><time>2026-03-28T17:49:40Z</time></trkpt><trkpt lat="45.843208502752766" lon="9.405253629194386"><ele>208.0</ele><time>2026-03-28T17:49:41Z</time></trkpt><trkpt lat="45.84303432333055" lon="9.405192344579023"><ele>208.0</ele><time>2026-03-28T17:49:42Z</time></trkpt><trkpt lat="45.84286651879813" lon="9.405128403537631"><ele>208.0</ele><time>2026-03-28T17:49:43Z</time></trkpt><trkpt lat="45.842696548738516" lon="9.405074554708028"><ele>208.0</ele><time>2026-03-28T17:49:44Z</time></trkpt><trkpt lat="45.84252839198144" lon="9.405019946544488"><ele>208.33333333333331</ele><time>2026-03-28T17:49:45Z</time></trkpt><trkpt lat="45.842360810843346" lon="9.404981967507442"><ele>208.66666666666669</ele><time>2026-03-28T17:49:46Z</time></trkpt><trkpt lat="45.84221833585062" lon="9.40496980414132"><ele>209.0</ele><time>2026-03-28T17:49:47Z</time></trkpt><trkpt lat="45.842065050088074" lon="9.404951631299188"><ele>209.0</ele><time>2026-03-28T17:49:48Z</time></trkpt><trkpt lat="45.84190901942217" lon="9.404929502129608"><ele>209.0</ele><time>2026-03-28T17:49:49Z</time></trkpt><trkpt lat="45.8417574438127" lon="9.404909500910387"><ele>209.0</ele><time>2026-03-28T17:49:50Z</time></trkpt><trkpt lat="45.84160838807761" lon="9.404884614892518"><ele>209.0</ele><time>2026-03-28T17:49:51Z</time></trkpt><trkpt lat="45.84146909345978" lon="9.404874778841423"><ele>209.0</ele><time>2026-03-28T17:49:52Z</time></trkpt><trkpt lat="45.84133060887608" lon="9.404858504253905"><ele>209.0</ele><time>2026-03-28T17:49:53Z</time></trkpt><trkpt lat="45.841221628648164" lon="9.404842391145618"><ele>209.0</ele><time>2026-03-28T17:49:54Z</time></trkpt><trkpt lat="45.84113085633571" lon="9.404829882908569"><ele>209.0</ele><time>2026-03-28T17:49:55Z</time></trkpt><trkpt lat="45.841002157275966" lon="9.404809916568462"><ele>209.0</ele><time>2026-03-28T17:49:56Z</time></trkpt><trkpt lat="45.840849787869516" lon="9.404787296566603"><ele>209.0</ele><time>2026-03-28T17:49:57Z</time></trkpt><trkpt lat="45.84072135780002" lon="9.404749885294379"><ele>209.0</ele><time>2026-03-28T17:49:58Z</time></trkpt><trkpt lat="45.84060480004471" lon="9.404714384179005"><ele>208.39999999999998</ele><time>2026-03-28T17:49:59Z</time></trkpt><trkpt lat="45.84049308036355" lon="9.4046542196901"><ele>207.8</ele><time>2026-03-28T17:50:00Z</time></trkpt><trkpt lat="45.840393394661554" lon="9.404600353396063"><ele>207.2</ele><time>2026-03-28T17:50:01Z</time></trkpt><trkpt lat="45.840302192717324" lon="9.404523955577051"><ele>206.60000000000002</ele><time>2026-03-28T17:50:02Z</time></trkpt><trkpt lat="45.84020361412995" lon="9.404454757963004"><ele>206.0</ele><time>2026-03-28T17:50:03Z</time></trkpt><trkpt lat="45.8401080538717" lon="9.404376116875461"><ele>206.0</ele><time>2026-03-28T17:50:04Z</time></trkpt><trkpt lat="45.84001733257733" lon="9.404279708060221"><ele>206.0</ele><time>2026-03-28T17:50:05Z</time></trkpt><trkpt lat="45.83992165377105" lon="9.404178579921345"><ele>206.0</ele><time>2026-03-28T17:50:06Z</time></trkpt><trkpt lat="45.839824244908456" lon="9.404060796965908"><ele>206.0</ele><time>2026-03-28T17:50:07Z</time></trkpt><trkpt lat="45.83972880880293" lon="9.403924633915851"><ele>205.5</ele><time>2026-03-28T17:50:08Z</time></trkpt><trkpt lat="45.83964636975022" lon="9.403784649778675"><ele>205.0</ele><time>2026-03-28T17:50:09Z</time></trkpt><trkpt lat="45.83956980605151" lon="9.403627743576351"><ele>204.5</ele><time>2026-03-28T17:50:10Z</time></trkpt><trkpt lat="45.839505273124146" lon="9.403477915755428"><ele>204.0</ele><time>2026-03-28T17:50:11Z</time></trkpt><trkpt lat="45.83945153480236" lon="9.403338046116373"><ele>204.0</ele><time>2026-03-28T17:50:12Z</time></trkpt><trkpt lat="45.8394008610931" lon="9.403214582053048"><ele>204.0</ele><time>2026-03-28T17:50:13Z</time></trkpt><trkpt lat="45.8393582407132" lon="9.403089971777721"><ele>204.0</ele><time>2026-03-28T17:50:14Z</time></trkpt><trkpt lat="45.83932563762589" lon="9.402955289701348"><ele>204.0</ele><time>2026-03-28T17:50:15Z</time></trkpt><trkpt lat="45.8392965614914" lon="9.402824254461676"><ele>204.0</ele><time>2026-03-28T17:50:16Z</time></trkpt><trkpt lat="45.83927820421762" lon="9.40272085420611"><ele>203.79999999999998</ele><time>2026-03-28T17:50:17Z</time></trkpt><trkpt lat="45.839261945235975" lon="9.402633129075419"><ele>203.6</ele><time>2026-03-28T17:50:18Z</time></trkpt><trkpt lat="45.83924782146158" lon="9.40250810328858"><ele>203.4</ele><time>2026-03-28T17:50:19Z</time></trkpt><trkpt lat="45.83922710638011" lon="9.40232534308383"><ele>203.2</ele><time>2026-03-28T17:50:20Z</time></trkpt><trkpt lat="45.83920252344118" lon="9.40210959981288"><ele>203.0</ele><time>2026-03-28T17:50:21Z</time></trkpt><trkpt lat="45.839166377240545" lon="9.401881106947314"><ele>202.5</ele><time>2026-03-28T17:50:22Z</time></trkpt><trkpt lat="45.83914309899715" lon="9.401668994151487"><ele>202.0</ele><time>2026-03-28T17:50:23Z</time></trkpt><trkpt lat="45.83912187590821" lon="9.401480022112825"><ele>201.5</ele><time>2026-03-28T17:50:24Z</time></trkpt><trkpt lat="45.83910039216796" lon="9.401276729533453"><ele>201.0</ele><time>2026-03-28T17:50:25Z</time></trkpt><trkpt lat="45.83907233872163" lon="9.40106072823273"><ele>200.33333333333331</ele><time>2026-03-28T17:50:26Z</time></trkpt><trkpt lat="45.83904560763899" lon="9.400850515696876"><ele>199.66666666666666</ele><time>2026-03-28T17:50:27Z</time></trkpt><trkpt lat="45.839020063632645" lon="9.400637831333093"><ele>199.0</ele><time>2026-03-28T17:50:28Z</time></trkpt><trkpt lat="45.83899293391062" lon="9.400401214111731"><ele>198.5</ele><time>2026-03-28T17:50:29Z</time></trkpt><trkpt lat="45.83894934612253" lon="9.400102675339626"><ele>198.0</ele><time>2026-03-28T17:50:30Z</time></trkpt><trkpt lat="45.838900699812136" lon="9.399764554759996"><ele>198.0</ele><time>2026-03-28T17:50:31Z</time></trkpt><trkpt lat="45.83885996378793" lon="9.39942699759405"><ele>198.0</ele><time>2026-03-28T17:50:32Z</time></trkpt><trkpt lat="45.83882306730453" lon="9.399115995759189"><ele>198.0</ele><time>2026-03-28T17:50:33Z</time></trkpt><trkpt lat="45.83878718297739" lon="9.398825326714407"><ele>198.0</ele><time>2026-03-28T17:50:34Z</time></trkpt><trkpt lat="45.838751443881456" lon="9.398542107582415"><ele>198.0</ele><time>2026-03-28T17:50:34.999Z</time></trkpt><trkpt lat="45.83871886447493" lon="9.398271253589634"><ele>198.66666666666669</ele><time>2026-03-28T17:50:35.999Z</time></trkpt><trkpt lat="45.83868634542934" lon="9.398001217547957"><ele>199.33333333333334</ele><time>2026-03-28T17:50:36.999Z</time></trkpt><trkpt lat="45.83865606746692" lon="9.397725879144243"><ele>200.0</ele><time>2026-03-28T17:50:37.999Z</time></trkpt><trkpt lat="45.83862975634779" lon="9.397447515519536"><ele>200.0</ele><time>2026-03-28T17:50:38.999Z</time></trkpt><trkpt lat="45.83860139150832" lon="9.397171337985501"><ele>200.0</ele><time>2026-03-28T17:50:39.999Z</time></trkpt><trkpt lat="45.838569052684754" lon="9.396893376599849"><ele>200.0</ele><time>2026-03-28T17:50:40.999Z</time></trkpt><trkpt lat="45.83854156615466" lon="9.396609708691239"><ele>200.0</ele><time>2026-03-28T17:50:41.999Z</time></trkpt><trkpt lat="45.838521366789095" lon="9.396319783267606"><ele>200.0</ele><time>2026-03-28T17:50:42.999Z</time></trkpt><trkpt lat="45.83851347535196" lon="9.396028000660632"><ele>200.0</ele><time>2026-03-28T17:50:43.999Z</time></trkpt><trkpt lat="45.83850936387949" lon="9.395755927394598"><ele>202.0</ele><time>2026-03-28T17:50:44.999Z</time></trkpt><trkpt lat="45.838507700772965" lon="9.395484874734967"><ele>204.0</ele><time>2026-03-28T17:50:45.999Z</time></trkpt><trkpt lat="45.83850478850394" lon="9.395225247372924"><ele>206.0</ele><time>2026-03-28T17:50:46.999Z</time></trkpt><trkpt lat="45.83850012856643" lon="9.394960595530163"><ele>206.0</ele><time>2026-03-28T17:50:47.999Z</time></trkpt><trkpt lat="45.83850280508758" lon="9.394700899784267"><ele>206.0</ele><time>2026-03-28T17:50:48.999Z</time></trkpt><trkpt lat="45.838515294633126" lon="9.394445531895254"><ele>206.0</ele><time>2026-03-28T17:50:49.999Z</time></trkpt><trkpt lat="45.83852958491143" lon="9.394188791459518"><ele>207.0</ele><time>2026-03-28T17:50:50.999Z</time></trkpt><trkpt lat="45.83854599942821" lon="9.393942359210476"><ele>208.0</ele><time>2026-03-28T17:50:51.999Z</time></trkpt><trkpt lat="45.838560332694364" lon="9.393693618148713"><ele>209.0</ele><time>2026-03-28T17:50:52.999Z</time></trkpt><trkpt lat="45.83857560290978" lon="9.393438660266169"><ele>211.0</ele><time>2026-03-28T17:50:54.02Z</time></trkpt><trkpt lat="45.8385889933665" lon="9.393188896048384"><ele>213.0</ele><time>2026-03-28T17:50:55.024Z</time></trkpt><trkpt lat="45.83863408189486" lon="9.392950817668021"><ele>215.0</ele><time>2026-03-28T17:50:56.02Z</time></trkpt><trkpt lat="45.8386698220082" lon="9.392726298185183"><ele>224.5</ele><time>2026-03-28T17:50:57.019Z</time></trkpt><trkpt lat="45.83870793539068" lon="9.392495631133837"><ele>234.0</ele><time>2026-03-28T17:50:58.021Z</time></trkpt><trkpt lat="45.83920899821827" lon="9.38968548644863"><ele>343.0</ele><time>2026-03-28T17:51:01.306Z</time></trkpt><trkpt lat="45.83930998225282" lon="9.388536259854265"><ele>358.0</ele><time>2026-03-28T17:51:02.306Z</time></trkpt><trkpt lat="45.83934818298525" lon="9.387379279363135"><ele>415.0</ele><time>2026-03-28T17:51:03.306Z</time></trkpt><trkpt lat="45.839327273523004" lon="9.386221524053799"><ele>433.0</ele><time>2026-03-28T17:51:04.306Z</time></trkpt><trkpt lat="45.83924785314186" lon="9.3850688255132"><ele>466.0</ele><time>2026-03-28T17:51:05.306Z</time></trkpt><trkpt lat="45.839104672341016" lon="9.383933711201266"><ele>546.0</ele><time>2026-03-28T17:51:06.301Z</time></trkpt><trkpt lat="45.838902457518195" lon="9.38280740107973"><ele>575.0</ele><time>2026-03-28T17:51:07.306Z</time></trkpt><trkpt lat="45.838646367624214" lon="9.381708735320359"><ele>654.0</ele><time>2026-03-28T17:51:08.306Z</time></trkpt><trkpt lat="45.83833804009618" lon="9.38063751902663"><ele>684.0</ele><time>2026-03-28T17:51:09.306Z</time></trkpt><trkpt lat="45.8380184268075" lon="9.379575060864035"><ele>665.0</ele><time>2026-03-28T17:51:10.304Z</time></trkpt><trkpt lat="45.83769397286119" lon="9.37851193543408"><ele>682.0</ele><time>2026-03-28T17:51:11.306Z</time></trkpt><trkpt lat="45.837368065365105" lon="9.377451404082233"><ele>658.0</ele><time>2026-03-28T17:51:12.306Z</time></trkpt><trkpt lat="45.83702697486214" lon="9.376401013578752"><ele>590.0</ele><time>2026-03-28T17:51:13.305Z</time></trkpt><trkpt lat="45.836705695844564" lon="9.375337540863738"><ele>552.0</ele><time>2026-03-28T17:51:14.306Z</time></trkpt><trkpt lat="45.83639248863219" lon="9.37426986873657"><ele>520.0</ele><time>2026-03-28T17:51:15.306Z</time></trkpt><trkpt lat="45.83604373994929" lon="9.373224473815931"><ele>487.0</ele><time>2026-03-28T17:51:16.305Z</time></trkpt><trkpt lat="45.83571107451906" lon="9.372168325995597"><ele>475.0</ele><time>2026-03-28T17:51:17.306Z</time></trkpt><trkpt lat="45.83538572040783" lon="9.371112783720166"><ele>512.0</ele><time>2026-03-28T17:51:18.301Z</time></trkpt><trkpt lat="45.83505342337865" lon="9.370051278761377"><ele>510.0</ele><time>2026-03-28T17:51:19.305Z</time></trkpt><trkpt lat="45.834722247507024" lon="9.368994132274198"><ele>509.0</ele><time>2026-03-28T17:51:20.305Z</time></trkpt><trkpt lat="45.83439415438591" lon="9.367938941921558"><ele>583.0</ele><time>2026-03-28T17:51:21.302Z</time></trkpt><trkpt lat="45.834064877602636" lon="9.366882164415564"><ele>571.0</ele><time>2026-03-28T17:51:22.301Z</time></trkpt><trkpt lat="45.833733076281526" lon="9.36582023678229"><ele>570.0</ele><time>2026-03-28T17:51:23.305Z</time></trkpt><trkpt lat="45.83340279592048" lon="9.364762623814434"><ele>542.0</ele><time>2026-03-28T17:51:24.305Z</time></trkpt><trkpt lat="45.83307303562694" lon="9.363704661142561"><ele>524.0</ele><time>2026-03-28T17:51:25.305Z</time></trkpt><trkpt lat="45.83274366983182" lon="9.362646442276905"><ele>465.0</ele><time>2026-03-28T17:51:26.305Z</time></trkpt><trkpt lat="45.83241517288072" lon="9.361587726794587"><ele>408.0</ele><time>2026-03-28T17:51:27.305Z</time></trkpt><trkpt lat="45.832087552905726" lon="9.36052836043486"><ele>378.0</ele><time>2026-03-28T17:51:28.305Z</time></trkpt><trkpt lat="45.83176023860652" lon="9.35946898576751"><ele>343.0</ele><time>2026-03-28T17:51:29.305Z</time></trkpt><trkpt lat="45.831435414715514" lon="9.358413146085276"><ele>319.0</ele><time>2026-03-28T17:51:30.301Z</time></trkpt><trkpt lat="45.83110477459599" lon="9.357350790531353"><ele>275.0</ele><time>2026-03-28T17:51:31.305Z</time></trkpt><trkpt lat="45.830756913798446" lon="9.356305012384304"><ele>270.0</ele><time>2026-03-28T17:51:32.305Z</time></trkpt><trkpt lat="45.83035680733221" lon="9.355298755950876"><ele>244.0</ele><time>2026-03-28T17:51:33.305Z</time></trkpt><trkpt lat="45.82984403711355" lon="9.354113414892325"><ele>241.5</ele><time>2026-03-28T17:52:40.998Z</time></trkpt><trkpt lat="45.829666990665736" lon="9.353780552250772"><ele>239.0</ele><time>2026-03-28T17:52:41.998Z</time></trkpt><trkpt lat="45.82929008616357" lon="9.353365126427974"><ele>239.0</ele><time>2026-03-28T17:52:42.998Z</time></trkpt><trkpt lat="45.82904788723063" lon="9.353051502134159"><ele>239.0</ele><time>2026-03-28T17:52:43.998Z</time></trkpt><trkpt lat="45.828808935481696" lon="9.35274820465517"><ele>236.5</ele><time>2026-03-28T17:52:44.998Z</time></trkpt><trkpt lat="45.828557828875866" lon="9.35244515005236"><ele>234.0</ele><time>2026-03-28T17:52:45.998Z</time></trkpt><trkpt lat="45.828295089564556" lon="9.352155036035649"><ele>232.0</ele><time>2026-03-28T17:52:47Z</time></trkpt><trkpt lat="45.828026224802656" lon="9.351884036265838"><ele>230.0</ele><time>2026-03-28T17:52:48Z</time></trkpt><trkpt lat="45.82774051974282" lon="9.351622297058451"><ele>231.5</ele><time>2026-03-28T17:52:49Z</time></trkpt><trkpt lat="45.82745144989616" lon="9.351359419134775"><ele>233.0</ele><time>2026-03-28T17:52:50Z</time></trkpt><trkpt lat="45.82715939655814" lon="9.35110544010048"><ele>233.0</ele><time>2026-03-28T17:52:51Z</time></trkpt><trkpt lat="45.82687810431611" lon="9.350869212396024"><ele>233.0</ele><time>2026-03-28T17:52:52Z</time></trkpt><trkpt lat="45.82660502017041" lon="9.350639972806073"><ele>231.5</ele><time>2026-03-28T17:52:53Z</time></trkpt><trkpt lat="45.826337024087444" lon="9.350410766436111"><ele>230.0</ele><time>2026-03-28T17:52:54Z</time></trkpt><trkpt lat="45.82608552882323" lon="9.350183821489265"><ele>231.5</ele><time>2026-03-28T17:52:55Z</time></trkpt><trkpt lat="45.825841304412535" lon="9.349966925402821"><ele>233.0</ele><time>2026-03-28T17:52:56Z</time></trkpt><trkpt lat="45.825601084916045" lon="9.349740221722625"><ele>229.5</ele><time>2026-03-28T17:52:57Z</time></trkpt><trkpt lat="45.825382907193514" lon="9.349487006545338"><ele>226.0</ele><time>2026-03-28T17:52:58Z</time></trkpt><trkpt lat="45.82517175521434" lon="9.349195108165018"><ele>226.5</ele><time>2026-03-28T17:52:59Z</time></trkpt><trkpt lat="45.82497625458396" lon="9.34885202095054"><ele>227.0</ele><time>2026-03-28T17:53:00Z</time></trkpt><trkpt lat="45.824817800612294" lon="9.348475730442285"><ele>227.0</ele><time>2026-03-28T17:53:01Z</time></trkpt><trkpt lat="45.82468726536256" lon="9.348060205628537"><ele>227.0</ele><time>2026-03-28T17:53:02Z</time></trkpt><trkpt lat="45.824521569120314" lon="9.3480350473328"><ele>229.0</ele><time>2026-03-28T17:53:03Z</time></trkpt><trkpt lat="45.82442856151059" lon="9.347682292122041"><ele>231.0</ele><time>2026-03-28T17:53:04Z</time></trkpt><trkpt lat="45.82435707281193" lon="9.347302066540378"><ele>228.5</ele><time>2026-03-28T17:53:05Z</time></trkpt><trkpt lat="45.82431300652843" lon="9.346904505381627"><ele>226.0</ele><time>2026-03-28T17:53:06Z</time></trkpt><trkpt lat="45.82428705016499" lon="9.34648452103747"><ele>225.5</ele><time>2026-03-28T17:53:07Z</time></trkpt><trkpt lat="45.824281054093255" lon="9.346049308318008"><ele>225.0</ele><time>2026-03-28T17:53:08Z</time></trkpt><trkpt lat="45.82430347616307" lon="9.345598149218421"><ele>227.5</ele><time>2026-03-28T17:53:09Z</time></trkpt><trkpt lat="45.82433897989927" lon="9.345150078697149"><ele>230.0</ele><time>2026-03-28T17:53:10Z</time></trkpt><trkpt lat="45.824375313602346" lon="9.34472992137373"><ele>229.5</ele><time>2026-03-28T17:53:11Z</time></trkpt><trkpt lat="45.82440885417299" lon="9.344356387329652"><ele>229.0</ele><time>2026-03-28T17:53:12Z</time></trkpt><trkpt lat="45.824432351996286" lon="9.343992136881578"><ele>232.5</ele><time>2026-03-28T17:53:13Z</time></trkpt><trkpt lat="45.8244569494824" lon="9.343620713142325"><ele>236.0</ele><time>2026-03-28T17:53:14Z</time></trkpt><trkpt lat="45.82448060465277" lon="9.343249750637378"><ele>239.5</ele><time>2026-03-28T17:53:15Z</time></trkpt><trkpt lat="45.824508700191984" lon="9.342856298872166"><ele>243.0</ele><time>2026-03-28T17:53:16Z</time></trkpt><trkpt lat="45.82453630755251" lon="9.342450298905424"><ele>243.5</ele><time>2026-03-28T17:53:17Z</time></trkpt><trkpt lat="45.824565807289986" lon="9.342042955936234"><ele>244.0</ele><time>2026-03-28T17:53:18Z</time></trkpt><trkpt lat="45.82458815307121" lon="9.34162875519945"><ele>241.0</ele><time>2026-03-28T17:53:19Z</time></trkpt><trkpt lat="45.82462474097295" lon="9.341223262556785"><ele>238.0</ele><time>2026-03-28T17:53:20Z</time></trkpt><trkpt lat="45.824657212482585" lon="9.340802505259367"><ele>235.5</ele><time>2026-03-28T17:53:21Z</time></trkpt><trkpt lat="45.824690873097964" lon="9.34037189848607"><ele>233.0</ele><time>2026-03-28T17:53:22Z</time></trkpt><trkpt lat="45.824718940530005" lon="9.339973710509584"><ele>234.5</ele><time>2026-03-28T17:53:23Z</time></trkpt><trkpt lat="45.824742873199334" lon="9.339591042740256"><ele>236.0</ele><time>2026-03-28T17:53:24Z</time></trkpt><trkpt lat="45.82476693304918" lon="9.33920901394896"><ele>237.0</ele><time>2026-03-28T17:53:25Z</time></trkpt><trkpt lat="45.82476403602077" lon="9.338823169309117"><ele>238.0</ele><time>2026-03-28T17:53:26Z</time></trkpt><trkpt lat="45.824747560773915" lon="9.338434375548585"><ele>239.5</ele><time>2026-03-28T17:53:27Z</time></trkpt><trkpt lat="45.82471271579297" lon="9.338049476803564"><ele>241.0</ele><time>2026-03-28T17:53:28Z</time></trkpt><trkpt lat="45.82467673942495" lon="9.337624153272207"><ele>242.5</ele><time>2026-03-28T17:53:29Z</time></trkpt><trkpt lat="45.824645843253315" lon="9.337165170833911"><ele>244.0</ele><time>2026-03-28T17:53:30Z</time></trkpt><trkpt lat="45.824617232060156" lon="9.336695977558595"><ele>245.5</ele><time>2026-03-28T17:53:31Z</time></trkpt><trkpt lat="45.82460359771135" lon="9.336263145275735"><ele>247.0</ele><time>2026-03-28T17:53:32Z</time></trkpt><trkpt lat="45.82459718147023" lon="9.335854281684934"><ele>247.0</ele><time>2026-03-28T17:53:33Z</time></trkpt><trkpt lat="45.824593213271456" lon="9.33545098721101"><ele>247.0</ele><time>2026-03-28T17:53:34Z</time></trkpt><trkpt lat="45.82459838007992" lon="9.33505303908746"><ele>247.0</ele><time>2026-03-28T17:53:35Z</time></trkpt><trkpt lat="45.82460410403691" lon="9.334677159152223"><ele>247.0</ele><time>2026-03-28T17:53:36Z</time></trkpt><trkpt lat="45.824601645587045" lon="9.334306554665652"><ele>247.0</ele><time>2026-03-28T17:53:37Z</time></trkpt><trkpt lat="45.8245974586772" lon="9.333947846378322"><ele>247.0</ele><time>2026-03-28T17:53:38Z</time></trkpt><trkpt lat="45.82458991672046" lon="9.333607906764085"><ele>247.5</ele><time>2026-03-28T17:53:39Z</time></trkpt><trkpt lat="45.824583924855354" lon="9.333270463138522"><ele>248.0</ele><time>2026-03-28T17:53:40Z</time></trkpt><trkpt lat="45.82456507978051" lon="9.33295136141915"><ele>249.5</ele><time>2026-03-28T17:53:40.999Z</time></trkpt><trkpt lat="45.824546732128496" lon="9.332625067688873"><ele>251.0</ele><time>2026-03-28T17:53:41.999Z</time></trkpt><trkpt lat="45.82451889740242" lon="9.332296302630333"><ele>252.5</ele><time>2026-03-28T17:53:42.999Z</time></trkpt><trkpt lat="45.824488152948355" lon="9.33196421765981"><ele>254.0</ele><time>2026-03-28T17:53:43.999Z</time></trkpt><trkpt lat="45.82446106231839" lon="9.33163404142351"><ele>255.0</ele><time>2026-03-28T17:53:44.999Z</time></trkpt><trkpt lat="45.82443686774389" lon="9.331303570976543"><ele>256.0</ele><time>2026-03-28T17:53:45.999Z</time></trkpt><trkpt lat="45.824409517728654" lon="9.33096502109638"><ele>256.0</ele><time>2026-03-28T17:53:46.999Z</time></trkpt><trkpt lat="45.824381906898985" lon="9.330630468801177"><ele>256.0</ele><time>2026-03-28T17:53:47.999Z</time></trkpt><trkpt lat="45.82435146186779" lon="9.330286433103842"><ele>260.0</ele><time>2026-03-28T17:53:48.999Z</time></trkpt><trkpt lat="45.82431903386577" lon="9.329944771723547"><ele>264.0</ele><time>2026-03-28T17:53:49.999Z</time></trkpt><trkpt lat="45.824290625733816" lon="9.329605437565807"><ele>250.0</ele><time>2026-03-28T17:53:50.999Z</time></trkpt><trkpt lat="45.82426531922727" lon="9.329267831096848"><ele>236.0</ele><time>2026-03-28T17:53:51.999Z</time></trkpt><trkpt lat="45.82423805509594" lon="9.328935121320212"><ele>237.5</ele><time>2026-03-28T17:53:52.999Z</time></trkpt><trkpt lat="45.824211663307224" lon="9.328606423372138"><ele>239.0</ele><time>2026-03-28T17:53:53.999Z</time></trkpt><trkpt lat="45.82418616595572" lon="9.328271583667213"><ele>239.5</ele><time>2026-03-28T17:53:54.999Z</time></trkpt><trkpt lat="45.82415281643877" lon="9.327930830390875"><ele>240.0</ele><time>2026-03-28T17:53:55.999Z</time></trkpt><trkpt lat="45.824113719072024" lon="9.327603267431767"><ele>240.0</ele><time>2026-03-28T17:53:56.999Z</time></trkpt><trkpt lat="45.82406083844293" lon="9.32728320688648"><ele>240.0</ele><time>2026-03-28T17:53:57.999Z</time></trkpt><trkpt lat="45.82398855847326" lon="9.326969429209349"><ele>241.5</ele><time>2026-03-28T17:53:58.999Z</time></trkpt><trkpt lat="45.82389970384326" lon="9.32667587055142"><ele>243.0</ele><time>2026-03-28T17:53:59.999Z</time></trkpt><trkpt lat="45.82379267312725" lon="9.32638536996417"><ele>243.0</ele><time>2026-03-28T17:54:00.999Z</time></trkpt><trkpt lat="45.823681689954256" lon="9.326107173037288"><ele>243.0</ele><time>2026-03-28T17:54:01.999Z</time></trkpt><trkpt lat="45.82356077332724" lon="9.325848388592972"><ele>243.0</ele><time>2026-03-28T17:54:02.999Z</time></trkpt><trkpt lat="45.8234265572694" lon="9.325605532402397"><ele>237.33333333333331</ele><time>2026-03-28T17:54:03.999Z</time></trkpt><trkpt lat="45.82327354045161" lon="9.325374717115855"><ele>231.66666666666666</ele><time>2026-03-28T17:54:04.999Z</time></trkpt><trkpt lat="45.8231108200026" lon="9.325152184703141"><ele>226.0</ele><time>2026-03-28T17:54:05.999Z</time></trkpt><trkpt lat="45.822949668361325" lon="9.32493133331398"><ele>226.5</ele><time>2026-03-28T17:54:06.999Z</time></trkpt><trkpt lat="45.822782574054706" lon="9.32471975400128"><ele>227.0</ele><time>2026-03-28T17:54:07.999Z</time></trkpt><trkpt lat="45.82259862244906" lon="9.324521145066635"><ele>226.0</ele><time>2026-03-28T17:54:08.999Z</time></trkpt><trkpt lat="45.82239744020076" lon="9.324325674132998"><ele>225.0</ele><time>2026-03-28T17:54:09.999Z</time></trkpt><trkpt lat="45.82217465847268" lon="9.32413707358943"><ele>225.0</ele><time>2026-03-28T17:54:10.999Z</time></trkpt><trkpt lat="45.82193500900186" lon="9.32396702287366"><ele>225.0</ele><time>2026-03-28T17:54:11.999Z</time></trkpt><trkpt lat="45.82168091230146" lon="9.323824543313721"><ele>226.0</ele><time>2026-03-28T17:54:12.999Z</time></trkpt><trkpt lat="45.82142648100907" lon="9.323696007272098"><ele>227.0</ele><time>2026-03-28T17:54:13.999Z</time></trkpt><trkpt lat="45.82118558204721" lon="9.323571116383558"><ele>226.5</ele><time>2026-03-28T17:54:14.999Z</time></trkpt><trkpt lat="45.82095733771937" lon="9.323452769190789"><ele>226.0</ele><time>2026-03-28T17:54:15.999Z</time></trkpt><trkpt lat="45.82073580613086" lon="9.323339651314406"><ele>226.0</ele><time>2026-03-28T17:54:16.999Z</time></trkpt><trkpt lat="45.82052351891457" lon="9.323232873617899"><ele>226.0</ele><time>2026-03-28T17:54:17.999Z</time></trkpt><trkpt lat="45.820318165568985" lon="9.323123666229714"><ele>226.0</ele><time>2026-03-28T17:54:18.999Z</time></trkpt><trkpt lat="45.82012535061426" lon="9.323020889325896"><ele>228.0</ele><time>2026-03-28T17:54:19.999Z</time></trkpt><trkpt lat="45.81993603273099" lon="9.322928137450532"><ele>230.0</ele><time>2026-03-28T17:54:20.999Z</time></trkpt><trkpt lat="45.81975115927316" lon="9.322844603581943"><ele>232.0</ele><time>2026-03-28T17:54:21.999Z</time></trkpt><trkpt lat="45.81956811236213" lon="9.322754849187753"><ele>232.0</ele><time>2026-03-28T17:54:22.999Z</time></trkpt><trkpt lat="45.81939992632999" lon="9.322642722748865"><ele>232.0</ele><time>2026-03-28T17:54:23.999Z</time></trkpt><trkpt lat="45.81923071186807" lon="9.322544380848274"><ele>232.0</ele><time>2026-03-28T17:54:24.999Z</time></trkpt><trkpt lat="45.81907627650322" lon="9.322455804526381"><ele>231.75</ele><time>2026-03-28T17:54:25.999Z</time></trkpt><trkpt lat="45.81892860866004" lon="9.322377442491359"><ele>231.5</ele><time>2026-03-28T17:54:26.999Z</time></trkpt><trkpt lat="45.818789739262925" lon="9.322308063036255"><ele>231.25</ele><time>2026-03-28T17:54:27.999Z</time></trkpt><trkpt lat="45.818655038867846" lon="9.32224041279216"><ele>231.0</ele><time>2026-03-28T17:54:28.999Z</time></trkpt><trkpt lat="45.81851885162211" lon="9.322174059881844"><ele>230.33333333333331</ele><time>2026-03-28T17:54:29.999Z</time></trkpt><trkpt lat="45.818373857338706" lon="9.322094642649684"><ele>229.66666666666666</ele><time>2026-03-28T17:54:30.999Z</time></trkpt><trkpt lat="45.818231412039545" lon="9.322005909022428"><ele>229.0</ele><time>2026-03-28T17:54:31.999Z</time></trkpt><trkpt lat="45.818089418537916" lon="9.321929730568876"><ele>229.0</ele><time>2026-03-28T17:54:32.999Z</time></trkpt><trkpt lat="45.81796054002192" lon="9.321858719435927"><ele>229.0</ele><time>2026-03-28T17:54:33.999Z</time></trkpt><trkpt lat="45.81782903669228" lon="9.321791010267575"><ele>229.0</ele><time>2026-03-28T17:54:34.999Z</time></trkpt><trkpt lat="45.81770011359903" lon="9.321721218950806"><ele>229.0</ele><time>2026-03-28T17:54:35.999Z</time></trkpt><trkpt lat="45.817561437177" lon="9.321652199823502"><ele>228.0</ele><time>2026-03-28T17:54:36.999Z</time></trkpt><trkpt lat="45.81740989106899" lon="9.321571764938142"><ele>227.0</ele><time>2026-03-28T17:54:37.999Z</time></trkpt><trkpt lat="45.81725509516468" lon="9.32148290924935"><ele>226.0</ele><time>2026-03-28T17:54:38.999Z</time></trkpt><trkpt lat="45.81710153061637" lon="9.321400361035934"><ele>226.0</ele><time>2026-03-28T17:54:39.999Z</time></trkpt><trkpt lat="45.81694984692745" lon="9.321330370402528"><ele>226.0</ele><time>2026-03-28T17:54:40.999Z</time></trkpt><trkpt lat="45.81680777651233" lon="9.321253154886714"><ele>226.0</ele><time>2026-03-28T17:54:41.999Z</time></trkpt><trkpt lat="45.81666548879392" lon="9.321175123030368"><ele>226.75</ele><time>2026-03-28T17:54:42.999Z</time></trkpt><trkpt lat="45.81653377442966" lon="9.321103672021056"><ele>227.5</ele><time>2026-03-28T17:54:43.999Z</time></trkpt><trkpt lat="45.81641541980777" lon="9.321042686622059"><ele>228.25</ele><time>2026-03-28T17:54:44.999Z</time></trkpt><trkpt lat="45.81631120817737" lon="9.320981809126744"><ele>229.0</ele><time>2026-03-28T17:54:45.999Z</time></trkpt><trkpt lat="45.81621123412969" lon="9.320927123024482"><ele>229.0</ele><time>2026-03-28T17:54:46.999Z</time></trkpt><trkpt lat="45.81610484477561" lon="9.320872332573597"><ele>229.0</ele><time>2026-03-28T17:54:47.999Z</time></trkpt><trkpt lat="45.81598889568167" lon="9.320808124842062"><ele>229.0</ele><time>2026-03-28T17:54:48.999Z</time></trkpt><trkpt lat="45.81586717922375" lon="9.32074128208246"><ele>229.0</ele><time>2026-03-28T17:54:49.999Z</time></trkpt><trkpt lat="45.81574550703632" lon="9.32066727471466"><ele>229.0</ele><time>2026-03-28T17:54:50.999Z</time></trkpt><trkpt lat="45.815627383812675" lon="9.320604663939235"><ele>229.0</ele><time>2026-03-28T17:54:51.999Z</time></trkpt><trkpt lat="45.81550636788666" lon="9.320544170275161"><ele>229.0</ele><time>2026-03-28T17:54:53Z</time></trkpt><trkpt lat="45.81537988361269" lon="9.320471893255649"><ele>229.0</ele><time>2026-03-28T17:54:54Z</time></trkpt><trkpt lat="45.815243003711196" lon="9.320393121273767"><ele>230.75</ele><time>2026-03-28T17:54:55Z</time></trkpt><trkpt lat="45.815106668037785" lon="9.320307097539587"><ele>232.5</ele><time>2026-03-28T17:54:56Z</time></trkpt><trkpt lat="45.81497971893804" lon="9.32023367354256"><ele>234.25</ele><time>2026-03-28T17:54:57Z</time></trkpt><trkpt lat="45.81486928760852" lon="9.320165443761194"><ele>236.0</ele><time>2026-03-28T17:54:58Z</time></trkpt><trkpt lat="45.814756820292764" lon="9.32009591271447"><ele>236.0</ele><time>2026-03-28T17:54:59Z</time></trkpt><trkpt lat="45.8146397640888" lon="9.320013847321103"><ele>236.0</ele><time>2026-03-28T17:55:00Z</time></trkpt><trkpt lat="45.81452071924005" lon="9.319924074428704"><ele>236.0</ele><time>2026-03-28T17:55:01Z</time></trkpt><trkpt lat="45.814402558314214" lon="9.319838635237907"><ele>236.0</ele><time>2026-03-28T17:55:02Z</time></trkpt><trkpt lat="45.81429061434705" lon="9.31975726903664"><ele>237.25</ele><time>2026-03-28T17:55:03Z</time></trkpt><trkpt lat="45.81418015797659" lon="9.319679146985669"><ele>238.5</ele><time>2026-03-28T17:55:04Z</time></trkpt><trkpt lat="45.81407052686878" lon="9.319588037105788"><ele>239.75</ele><time>2026-03-28T17:55:05Z</time></trkpt><trkpt lat="45.8139534131617" lon="9.319484617534199"><ele>241.0</ele><time>2026-03-28T17:55:06Z</time></trkpt><trkpt lat="45.81383358380478" lon="9.319385051979443"><ele>241.0</ele><time>2026-03-28T17:55:07Z</time></trkpt><trkpt lat="45.81372198050196" lon="9.319291070679938"><ele>241.0</ele><time>2026-03-28T17:55:08Z</time></trkpt><trkpt lat="45.813612019094755" lon="9.31920316042835"><ele>241.0</ele><time>2026-03-28T17:55:09Z</time></trkpt><trkpt lat="45.81350800362907" lon="9.319114874325699"><ele>241.0</ele><time>2026-03-28T17:55:10Z</time></trkpt><trkpt lat="45.81340690921869" lon="9.319030307763327"><ele>240.75</ele><time>2026-03-28T17:55:11Z</time></trkpt><trkpt lat="45.81330253652727" lon="9.318936287870649"><ele>240.5</ele><time>2026-03-28T17:55:12Z</time></trkpt><trkpt lat="45.81317293346563" lon="9.318819811491712"><ele>240.25</ele><time>2026-03-28T17:55:13Z</time></trkpt><trkpt lat="45.813033117892026" lon="9.318689331943727"><ele>240.0</ele><time>2026-03-28T17:55:14Z</time></trkpt><trkpt lat="45.812886346452714" lon="9.31854930331228"><ele>239.33333333333331</ele><time>2026-03-28T17:55:15Z</time></trkpt><trkpt lat="45.812748250708026" lon="9.318416681583376"><ele>238.66666666666666</ele><time>2026-03-28T17:55:16Z</time></trkpt><trkpt lat="45.81262068308361" lon="9.318295967108213"><ele>238.0</ele><time>2026-03-28T17:55:17Z</time></trkpt><trkpt lat="45.81251044735522" lon="9.318177704064228"><ele>238.0</ele><time>2026-03-28T17:55:18Z</time></trkpt><trkpt lat="45.812398532360405" lon="9.318074538968448"><ele>238.0</ele><time>2026-03-28T17:55:19Z</time></trkpt><trkpt lat="45.81228886642604" lon="9.317976053754302"><ele>238.0</ele><time>2026-03-28T17:55:20Z</time></trkpt><trkpt lat="45.81218316398983" lon="9.317884083773443"><ele>238.0</ele><time>2026-03-28T17:55:21Z</time></trkpt><trkpt lat="45.812083003072104" lon="9.317793847131899"><ele>238.2</ele><time>2026-03-28T17:55:22Z</time></trkpt><trkpt lat="45.81198735451817" lon="9.317708085246453"><ele>238.4</ele><time>2026-03-28T17:55:23Z</time></trkpt><trkpt lat="45.811909757027934" lon="9.317640707459478"><ele>238.59999999999997</ele><time>2026-03-28T17:55:24Z</time></trkpt><trkpt lat="45.811838959109146" lon="9.31756656513234"><ele>238.79999999999998</ele><time>2026-03-28T17:55:25Z</time></trkpt><trkpt lat="45.81178265200396" lon="9.317475792091393"><ele>239.0</ele><time>2026-03-28T17:55:26Z</time></trkpt><trkpt lat="45.811749498486336" lon="9.317352820604267"><ele>239.0</ele><time>2026-03-28T17:55:27Z</time></trkpt><trkpt lat="45.81170134103084" lon="9.31727166927611"><ele>238.99999999999997</ele><time>2026-03-28T17:55:28Z</time></trkpt><trkpt lat="45.81163511397635" lon="9.31715843299428"><ele>238.99999999999997</ele><time>2026-03-28T17:55:30Z</time></trkpt><trkpt lat="45.81175350236763" lon="9.317024747620627"><ele>239.0</ele><time>2026-03-28T17:55:31Z</time></trkpt><trkpt lat="45.81180198281962" lon="9.316905883690954"><ele>239.0</ele><time>2026-03-28T17:55:33Z</time></trkpt><trkpt lat="45.81165808985037" lon="9.316779683456838"><ele>239.83333333333334</ele><time>2026-03-28T17:55:35Z</time></trkpt><trkpt lat="45.81160414247415" lon="9.31671709936646"><ele>240.66666666666669</ele><time>2026-03-28T17:55:37Z</time></trkpt><trkpt lat="45.81151652502236" lon="9.316627537198663"><ele>241.5</ele><time>2026-03-28T18:08:18Z</time></trkpt><trkpt lat="45.81144751495927" lon="9.316669807622105"><ele>242.33333333333331</ele><time>2026-03-28T18:08:39.999Z</time></trkpt><trkpt lat="45.81141183125625" lon="9.316784564997487"><ele>243.16666666666666</ele><time>2026-03-28T18:08:41.999Z</time></trkpt><trkpt lat="45.811336870475245" lon="9.316890578408872"><ele>244.0</ele><time>2026-03-28T18:08:43.999Z</time></trkpt><trkpt lat="45.81122470577272" lon="9.316939048045676"><ele>244.0</ele><time>2026-03-28T18:08:45.999Z</time></trkpt><trkpt lat="45.8110942398101" lon="9.316858331752238"><ele>244.0</ele><time>2026-03-28T18:08:47.999Z</time></trkpt><trkpt lat="45.8110048247793" lon="9.316816627059321"><ele>244.0</ele><time>2026-03-28T18:08:48.999Z</time></trkpt><trkpt lat="45.81089942305488" lon="9.316746758639912"><ele>244.0</ele><time>2026-03-28T18:08:49.999Z</time></trkpt><trkpt lat="45.81077017004448" lon="9.316650052536536"><ele>243.33333333333331</ele><time>2026-03-28T18:08:50.999Z</time></trkpt><trkpt lat="45.81061491431522" lon="9.316519775462732"><ele>242.66666666666669</ele><time>2026-03-28T18:08:51.999Z</time></trkpt><trkpt lat="45.81042817973366" lon="9.316366652174745"><ele>242.0</ele><time>2026-03-28T18:08:52.999Z</time></trkpt><trkpt lat="45.8102142647782" lon="9.31618919284647"><ele>245.0</ele><time>2026-03-28T18:08:53.999Z</time></trkpt><trkpt lat="45.80998113670041" lon="9.316001265853675"><ele>248.0</ele><time>2026-03-28T18:08:54.999Z</time></trkpt><trkpt lat="45.80973567814521" lon="9.315790281554579"><ele>250.0</ele><time>2026-03-28T18:08:55.999Z</time></trkpt><trkpt lat="45.80948179801027" lon="9.315563789835906"><ele>252.0</ele><time>2026-03-28T18:08:56.999Z</time></trkpt><trkpt lat="45.80923832761226" lon="9.315347144589248"><ele>256.0</ele><time>2026-03-28T18:08:57.999Z</time></trkpt><trkpt lat="45.80902621044443" lon="9.315154763480596"><ele>260.0</ele><time>2026-03-28T18:08:58.999Z</time></trkpt><trkpt lat="45.80882400135426" lon="9.314974588093797"><ele>260.0</ele><time>2026-03-28T18:08:59.999Z</time></trkpt><trkpt lat="45.80862734504327" lon="9.314806355056623"><ele>260.0</ele><time>2026-03-28T18:09:00.999Z</time></trkpt><trkpt lat="45.80844368074919" lon="9.314638812706624"><ele>260.0</ele><time>2026-03-28T18:09:01.999Z</time></trkpt><trkpt lat="45.8082761423464" lon="9.314494562690268"><ele>261.33333333333337</ele><time>2026-03-28T18:09:02.999Z</time></trkpt><trkpt lat="45.80812178780262" lon="9.31435262489832"><ele>262.6666666666667</ele><time>2026-03-28T18:09:03.999Z</time></trkpt><trkpt lat="45.807987111453095" lon="9.31424028765341"><ele>264.0</ele><time>2026-03-28T18:09:04.999Z</time></trkpt><trkpt lat="45.807850527183255" lon="9.314125775913453"><ele>264.0</ele><time>2026-03-28T18:09:05.999Z</time></trkpt><trkpt lat="45.80771488089728" lon="9.313999433914692"><ele>264.0</ele><time>2026-03-28T18:09:06.999Z</time></trkpt><trkpt lat="45.807586044392906" lon="9.313874713484598"><ele>264.0</ele><time>2026-03-28T18:09:07.999Z</time></trkpt><trkpt lat="45.80743790804661" lon="9.31376647960669"><ele>264.0</ele><time>2026-03-28T18:09:08.999Z</time></trkpt><trkpt lat="45.807266913619706" lon="9.313673287201096"><ele>264.0</ele><time>2026-03-28T18:09:09.999Z</time></trkpt><trkpt lat="45.80709367719437" lon="9.313576104733144"><ele>264.0</ele><time>2026-03-28T18:09:10.999Z</time></trkpt><trkpt lat="45.80694187076484" lon="9.31345972399214"><ele>264.0</ele><time>2026-03-28T18:09:11.999Z</time></trkpt><trkpt lat="45.80696112820006" lon="9.313364249328991"><ele>264.0</ele><time>2026-03-28T18:09:12.999Z</time></trkpt><trkpt lat="45.80684801250266" lon="9.313259403229756"><ele>264.0</ele><time>2026-03-28T18:09:13.999Z</time></trkpt><trkpt lat="45.80674091287464" lon="9.313153734807498"><ele>264.0</ele><time>2026-03-28T18:09:14.999Z</time></trkpt><trkpt lat="45.806636236485126" lon="9.313058726088933"><ele>263.75</ele><time>2026-03-28T18:09:15.999Z</time></trkpt><trkpt lat="45.806539222961035" lon="9.31295825228083"><ele>263.5</ele><time>2026-03-28T18:09:16.999Z</time></trkpt><trkpt lat="45.80643062457187" lon="9.31285001170492"><ele>263.25</ele><time>2026-03-28T18:09:17.999Z</time></trkpt><trkpt lat="45.80631530866211" lon="9.312740569405829"><ele>263.0</ele><time>2026-03-28T18:09:18.999Z</time></trkpt><trkpt lat="45.806190874929634" lon="9.312625121204757"><ele>263.0</ele><time>2026-03-28T18:09:19.999Z</time></trkpt><trkpt lat="45.8060714589069" lon="9.312506698886208"><ele>263.0</ele><time>2026-03-28T18:09:20.999Z</time></trkpt><trkpt lat="45.80595297396838" lon="9.312402554351362"><ele>263.0</ele><time>2026-03-28T18:09:21.999Z</time></trkpt><trkpt lat="45.805841487163725" lon="9.312298653372938"><ele>263.0</ele><time>2026-03-28T18:09:22.999Z</time></trkpt><trkpt lat="45.80572829968646" lon="9.312206581294793"><ele>263.5</ele><time>2026-03-28T18:09:23.999Z</time></trkpt><trkpt lat="45.80561646955755" lon="9.312119245622037"><ele>264.0</ele><time>2026-03-28T18:09:24.999Z</time></trkpt><trkpt lat="45.80551108796605" lon="9.312043467589154"><ele>264.5</ele><time>2026-03-28T18:09:25.999Z</time></trkpt><trkpt lat="45.8054071560753" lon="9.311950093277579"><ele>265.0</ele><time>2026-03-28T18:09:26.999Z</time></trkpt><trkpt lat="45.80531143606953" lon="9.311857589247497"><ele>265.0</ele><time>2026-03-28T18:09:27.999Z</time></trkpt><trkpt lat="45.80522297831004" lon="9.311771885470623"><ele>265.0</ele><time>2026-03-28T18:09:28.999Z</time></trkpt><trkpt lat="45.805142006350174" lon="9.311696096124559"><ele>265.0</ele><time>2026-03-28T18:09:29.999Z</time></trkpt><trkpt lat="45.80505780883498" lon="9.311613540360776"><ele>265.0</ele><time>2026-03-28T18:09:30.999Z</time></trkpt><trkpt lat="45.80496052043115" lon="9.311521402130001"><ele>265.0</ele><time>2026-03-28T18:09:31.999Z</time></trkpt><trkpt lat="45.80484734686478" lon="9.31140635749007"><ele>265.66666666666663</ele><time>2026-03-28T18:09:32.999Z</time></trkpt><trkpt lat="45.80471903114931" lon="9.311275129993827"><ele>266.3333333333333</ele><time>2026-03-28T18:09:34Z</time></trkpt><trkpt lat="45.804568121023216" lon="9.311137921812"><ele>267.0</ele><time>2026-03-28T18:09:35Z</time></trkpt><trkpt lat="45.804397744980406" lon="9.310987477459221"><ele>267.0</ele><time>2026-03-28T18:09:36Z</time></trkpt><trkpt lat="45.804253738775095" lon="9.310841287893192"><ele>267.0</ele><time>2026-03-28T18:09:37Z</time></trkpt><trkpt lat="45.80411005254763" lon="9.31069971059416"><ele>267.0</ele><time>2026-03-28T18:09:38Z</time></trkpt><trkpt lat="45.8039703859686" lon="9.310565176990462"><ele>267.0</ele><time>2026-03-28T18:09:39Z</time></trkpt><trkpt lat="45.80383924907043" lon="9.310441104219306"><ele>267.0</ele><time>2026-03-28T18:09:40Z</time></trkpt><trkpt lat="45.80371005795458" lon="9.310322003062137"><ele>267.0</ele><time>2026-03-28T18:09:41Z</time></trkpt><trkpt lat="45.80359153095551" lon="9.310211654865567"><ele>266.5</ele><time>2026-03-28T18:09:42Z</time></trkpt><trkpt lat="45.803475006061305" lon="9.310096253914558"><ele>266.0</ele><time>2026-03-28T18:09:43Z</time></trkpt><trkpt lat="45.80335115408309" lon="9.309983544146299"><ele>265.5</ele><time>2026-03-28T18:09:44Z</time></trkpt><trkpt lat="45.803225078285436" lon="9.309861445710355"><ele>265.0</ele><time>2026-03-28T18:09:45Z</time></trkpt><trkpt lat="45.803093694227044" lon="9.30973501607424"><ele>264.75</ele><time>2026-03-28T18:09:46Z</time></trkpt><trkpt lat="45.80296430087729" lon="9.309614939447906"><ele>264.5</ele><time>2026-03-28T18:09:47Z</time></trkpt><trkpt lat="45.80285530307174" lon="9.309488320716227"><ele>264.25</ele><time>2026-03-28T18:09:48Z</time></trkpt><trkpt lat="45.802755736527956" lon="9.309377065061922"><ele>264.0</ele><time>2026-03-28T18:09:49Z</time></trkpt><trkpt lat="45.8026582592279" lon="9.30927124342219"><ele>264.0</ele><time>2026-03-28T18:09:50Z</time></trkpt><trkpt lat="45.802550528192064" lon="9.309159419873557"><ele>264.0</ele><time>2026-03-28T18:09:51Z</time></trkpt><trkpt lat="45.802432977493254" lon="9.309039137719326"><ele>264.0</ele><time>2026-03-28T18:09:52Z</time></trkpt><trkpt lat="45.802304709151734" lon="9.308915538943271"><ele>264.0</ele><time>2026-03-28T18:09:53Z</time></trkpt><trkpt lat="45.80217893742112" lon="9.308786885587411"><ele>264.25</ele><time>2026-03-28T18:09:54Z</time></trkpt><trkpt lat="45.80206673508603" lon="9.308679022008569"><ele>264.5</ele><time>2026-03-28T18:09:55Z</time></trkpt><trkpt lat="45.801958268763975" lon="9.308576807973406"><ele>264.75</ele><time>2026-03-28T18:09:56Z</time></trkpt><trkpt lat="45.801849174208265" lon="9.308474388743525"><ele>265.0</ele><time>2026-03-28T18:09:57Z</time></trkpt><trkpt lat="45.801738027364486" lon="9.308372177182402"><ele>264.5</ele><time>2026-03-28T18:09:58Z</time></trkpt><trkpt lat="45.80163321139121" lon="9.308276724799518"><ele>264.0</ele><time>2026-03-28T18:09:59Z</time></trkpt><trkpt lat="45.80153640232026" lon="9.308182551259243"><ele>263.5</ele><time>2026-03-28T18:10:00Z</time></trkpt><trkpt lat="45.801449514464274" lon="9.308089023048097"><ele>263.0</ele><time>2026-03-28T18:10:01Z</time></trkpt><trkpt lat="45.8013578858701" lon="9.308000249450957"><ele>263.0</ele><time>2026-03-28T18:10:02Z</time></trkpt><trkpt lat="45.80126224732956" lon="9.307915326109725"><ele>263.0</ele><time>2026-03-28T18:10:03Z</time></trkpt><trkpt lat="45.80116299420617" lon="9.307824041164869"><ele>263.0</ele><time>2026-03-28T18:10:04Z</time></trkpt><trkpt lat="45.80105975687715" lon="9.30772214396105"><ele>263.0</ele><time>2026-03-28T18:10:05Z</time></trkpt><trkpt lat="45.800954748928625" lon="9.307614198320405"><ele>263.0</ele><time>2026-03-28T18:10:06Z</time></trkpt><trkpt lat="45.80084567233977" lon="9.307502490819981"><ele>263.0</ele><time>2026-03-28T18:10:07Z</time></trkpt><trkpt lat="45.80072982931903" lon="9.307387854829217"><ele>263.0</ele><time>2026-03-28T18:10:08Z</time></trkpt><trkpt lat="45.80061338342481" lon="9.307279885575454"><ele>263.0</ele><time>2026-03-28T18:10:09Z</time></trkpt><trkpt lat="45.800494445148736" lon="9.307182869011003"><ele>262.75</ele><time>2026-03-28T18:10:10Z</time></trkpt><trkpt lat="45.80038242193919" lon="9.307090882123768"><ele>262.5</ele><time>2026-03-28T18:10:11Z</time></trkpt><trkpt lat="45.8002774868057" lon="9.306998292694482"><ele>262.25</ele><time>2026-03-28T18:10:12Z</time></trkpt><trkpt lat="45.80017141327076" lon="9.306898913265519"><ele>262.0</ele><time>2026-03-28T18:10:13Z</time></trkpt><trkpt lat="45.80006460391607" lon="9.30678958347344"><ele>262.25</ele><time>2026-03-28T18:10:14Z</time></trkpt><trkpt lat="45.79995471781633" lon="9.306683109006412"><ele>262.5</ele><time>2026-03-28T18:10:15Z</time></trkpt><trkpt lat="45.799849759788025" lon="9.306584903896447"><ele>262.75</ele><time>2026-03-28T18:10:16Z</time></trkpt><trkpt lat="45.79974458369759" lon="9.306494166510982"><ele>263.0</ele><time>2026-03-28T18:10:17Z</time></trkpt><trkpt lat="45.799639351726974" lon="9.306401588704277"><ele>263.0</ele><time>2026-03-28T18:10:18Z</time></trkpt><trkpt lat="45.79953625832813" lon="9.306311718565306"><ele>263.0</ele><time>2026-03-28T18:10:19Z</time></trkpt><trkpt lat="45.79944861737656" lon="9.306218659380747"><ele>263.0</ele><time>2026-03-28T18:10:20Z</time></trkpt><trkpt lat="45.7993511010444" lon="9.306141812292509"><ele>263.0</ele><time>2026-03-28T18:10:21Z</time></trkpt><trkpt lat="45.79926674631162" lon="9.306066046206816"><ele>263.0</ele><time>2026-03-28T18:10:22Z</time></trkpt><trkpt lat="45.79916803928618" lon="9.305979624986954"><ele>263.4</ele><time>2026-03-28T18:10:24Z</time></trkpt><trkpt lat="45.799069139851" lon="9.305886884834052"><ele>263.8</ele><time>2026-03-28T18:10:26Z</time></trkpt><trkpt lat="45.798964675001535" lon="9.305789357201794"><ele>264.2</ele><time>2026-03-28T18:10:27.999Z</time></trkpt><trkpt lat="45.79890260497341" lon="9.305731524723738"><ele>264.6</ele><time>2026-03-28T18:10:28.999Z</time></trkpt><trkpt lat="45.798834138778254" lon="9.305666505262266"><ele>265.0</ele><time>2026-03-28T18:10:29.999Z</time></trkpt><trkpt lat="45.798756460390756" lon="9.305598519148132"><ele>264.75</ele><time>2026-03-28T18:10:30.999Z</time></trkpt><trkpt lat="45.79866480449297" lon="9.305511142338599"><ele>264.5</ele><time>2026-03-28T18:10:31.999Z</time></trkpt><trkpt lat="45.79855573103835" lon="9.305406734748853"><ele>264.25</ele><time>2026-03-28T18:10:32.999Z</time></trkpt><trkpt lat="45.79844831099378" lon="9.305296024343852"><ele>264.0</ele><time>2026-03-28T18:10:33.999Z</time></trkpt><trkpt lat="45.798346056292495" lon="9.305186920224454"><ele>264.0</ele><time>2026-03-28T18:10:34.999Z</time></trkpt><trkpt lat="45.79824826207122" lon="9.305091648543184"><ele>264.0</ele><time>2026-03-28T18:10:35.999Z</time></trkpt><trkpt lat="45.79816017459884" lon="9.305014496123231"><ele>264.0</ele><time>2026-03-28T18:10:36.999Z</time></trkpt><trkpt lat="45.79807257328205" lon="9.304937055971637"><ele>264.0</ele><time>2026-03-28T18:10:37.999Z</time></trkpt><trkpt lat="45.79797633542304" lon="9.304846160238288"><ele>264.0</ele><time>2026-03-28T18:10:38.999Z</time></trkpt><trkpt lat="45.797879134337975" lon="9.304745116558502"><ele>264.25</ele><time>2026-03-28T18:10:39.999Z</time></trkpt><trkpt lat="45.79777601705355" lon="9.304644035189156"><ele>264.5</ele><time>2026-03-28T18:10:40.999Z</time></trkpt><trkpt lat="45.79767095013911" lon="9.304549703281028"><ele>264.75</ele><time>2026-03-28T18:10:41.999Z</time></trkpt><trkpt lat="45.79757206381731" lon="9.304449292147478"><ele>265.0</ele><time>2026-03-28T18:10:42.999Z</time></trkpt><trkpt lat="45.79747009564075" lon="9.304357490763593"><ele>265.5</ele><time>2026-03-28T18:10:43.999Z</time></trkpt><trkpt lat="45.79736883397417" lon="9.30425644369962"><ele>266.0</ele><time>2026-03-28T18:10:44.999Z</time></trkpt><trkpt lat="45.797263838130135" lon="9.304156210175941"><ele>266.5</ele><time>2026-03-28T18:10:45.999Z</time></trkpt><trkpt lat="45.797166707636514" lon="9.304066187553097"><ele>267.0</ele><time>2026-03-28T18:10:46.999Z</time></trkpt><trkpt lat="45.79707612944498" lon="9.303984435913026"><ele>267.5</ele><time>2026-03-28T18:10:47.999Z</time></trkpt><trkpt lat="45.7969908578456" lon="9.303898456220901"><ele>268.0</ele><time>2026-03-28T18:10:48.999Z</time></trkpt><trkpt lat="45.796897583282856" lon="9.303803046729184"><ele>268.5</ele><time>2026-03-28T18:10:49.999Z</time></trkpt><trkpt lat="45.79680019865073" lon="9.303700613276227"><ele>269.0</ele><time>2026-03-28T18:10:50.999Z</time></trkpt><trkpt lat="45.79670026863491" lon="9.303606980806395"><ele>269.0</ele><time>2026-03-28T18:10:51.999Z</time></trkpt><trkpt lat="45.79660002760846" lon="9.303522970284561"><ele>269.0</ele><time>2026-03-28T18:10:52.999Z</time></trkpt><trkpt lat="45.79650569766488" lon="9.303439682447282"><ele>269.0</ele><time>2026-03-28T18:10:53.999Z</time></trkpt><trkpt lat="45.79641383920132" lon="9.303348522385233"><ele>269.0</ele><time>2026-03-28T18:10:54.999Z</time></trkpt><trkpt lat="45.79632040440802" lon="9.30325968245051"><ele>269.0</ele><time>2026-03-28T18:10:55.999Z</time></trkpt><trkpt lat="45.796229967524454" lon="9.30316877055428"><ele>269.0</ele><time>2026-03-28T18:10:56.999Z</time></trkpt><trkpt lat="45.79613761743862" lon="9.303084089583232"><ele>269.0</ele><time>2026-03-28T18:10:57.999Z</time></trkpt><trkpt lat="45.79605104437256" lon="9.303003258452476"><ele>269.0</ele><time>2026-03-28T18:10:58.999Z</time></trkpt><trkpt lat="45.79597769726283" lon="9.30293491680363"><ele>269.0</ele><time>2026-03-28T18:10:59.999Z</time></trkpt><trkpt lat="45.795908718780574" lon="9.302864736943853"><ele>270.2</ele><time>2026-03-28T18:11:00.999Z</time></trkpt><trkpt lat="45.79584618799599" lon="9.302800882654962"><ele>271.4</ele><time>2026-03-28T18:11:01.999Z</time></trkpt><trkpt lat="45.79577410430276" lon="9.302736495686007"><ele>272.6</ele><time>2026-03-28T18:11:02.999Z</time></trkpt><trkpt lat="45.795694335415845" lon="9.302665152253395"><ele>273.8</ele><time>2026-03-28T18:11:03.999Z</time></trkpt><trkpt lat="45.795607427718096" lon="9.302591485249463"><ele>275.0</ele><time>2026-03-28T18:11:04.999Z</time></trkpt><trkpt lat="45.79551948145968" lon="9.3025045011046"><ele>275.0</ele><time>2026-03-28T18:11:05.999Z</time></trkpt><trkpt lat="45.79542830985886" lon="9.302409011646562"><ele>275.0</ele><time>2026-03-28T18:11:06.999Z</time></trkpt><trkpt lat="45.79533500951809" lon="9.3023260009168"><ele>275.0</ele><time>2026-03-28T18:11:07.999Z</time></trkpt><trkpt lat="45.79525479295325" lon="9.302244687748646"><ele>275.0</ele><time>2026-03-28T18:11:08.999Z</time></trkpt><trkpt lat="45.7951664670144" lon="9.302174490278041"><ele>275.0</ele><time>2026-03-28T18:11:09.999Z</time></trkpt><trkpt lat="45.79508323074965" lon="9.302089476878438"><ele>275.0</ele><time>2026-03-28T18:11:10.999Z</time></trkpt><trkpt lat="45.795005012730044" lon="9.302008262722515"><ele>275.0</ele><time>2026-03-28T18:11:11.999Z</time></trkpt><trkpt lat="45.79492184424188" lon="9.30193889146997"><ele>275.0</ele><time>2026-03-28T18:11:12.999Z</time></trkpt><trkpt lat="45.794851618888856" lon="9.301867637415967"><ele>275.0</ele><time>2026-03-28T18:11:13.999Z</time></trkpt><trkpt lat="45.794786219639704" lon="9.301807920199503"><ele>275.0</ele><time>2026-03-28T18:11:14.999Z</time></trkpt><trkpt lat="45.79472420172451" lon="9.301744019398082"><ele>275.0</ele><time>2026-03-28T18:11:15.999Z</time></trkpt><trkpt lat="45.79465341832197" lon="9.301668149840122"><ele>275.0</ele><time>2026-03-28T18:11:16.999Z</time></trkpt><trkpt lat="45.79459362123518" lon="9.301603936294187"><ele>275.0</ele><time>2026-03-28T18:11:17.999Z</time></trkpt><trkpt lat="45.794483735062045" lon="9.301497887142142"><ele>275.0</ele><time>2026-03-28T18:11:19.999Z</time></trkpt><trkpt lat="45.794422214242175" lon="9.301441347073757"><ele>275.0</ele><time>2026-03-28T18:11:20.999Z</time></trkpt><trkpt lat="45.79436249283023" lon="9.301386511381683"><ele>275.0</ele><time>2026-03-28T18:11:21.999Z</time></trkpt><trkpt lat="45.794303124907415" lon="9.301329781041593"><ele>275.0</ele><time>2026-03-28T18:11:22.999Z</time></trkpt><trkpt lat="45.79424514251269" lon="9.30127341729287"><ele>275.1666666666667</ele><time>2026-03-28T18:11:23.999Z</time></trkpt><trkpt lat="45.794182790468625" lon="9.301215858396663"><ele>275.33333333333337</ele><time>2026-03-28T18:11:24.999Z</time></trkpt><trkpt lat="45.79412314697142" lon="9.301166521688735"><ele>275.5</ele><time>2026-03-28T18:11:25.999Z</time></trkpt><trkpt lat="45.79407001564424" lon="9.301112544162347"><ele>275.6666666666667</ele><time>2026-03-28T18:11:26.999Z</time></trkpt><trkpt lat="45.79397143572229" lon="9.30101616713364"><ele>275.8333333333333</ele><time>2026-03-28T18:11:28.999Z</time></trkpt><trkpt lat="45.793911789351306" lon="9.30097322738382"><ele>276.0</ele><time>2026-03-28T18:11:29.999Z</time></trkpt><trkpt lat="45.79384062097711" lon="9.300901296351713"><ele>276.0</ele><time>2026-03-28T18:11:30.999Z</time></trkpt><trkpt lat="45.79375116855363" lon="9.300827833852368"><ele>276.0</ele><time>2026-03-28T18:11:31.999Z</time></trkpt><trkpt lat="45.79366038152349" lon="9.300752669520842"><ele>276.0</ele><time>2026-03-28T18:11:32.999Z</time></trkpt><trkpt lat="45.793580510685835" lon="9.300673553057583"><ele>276.0</ele><time>2026-03-28T18:11:33.999Z</time></trkpt><trkpt lat="45.7935093617416" lon="9.300598546245578"><ele>276.0</ele><time>2026-03-28T18:11:34.999Z</time></trkpt><trkpt lat="45.79344327829636" lon="9.300532460864911"><ele>276.0</ele><time>2026-03-28T18:11:35.999Z</time></trkpt><trkpt lat="45.793387624682985" lon="9.300481905589074"><ele>276.0</ele><time>2026-03-28T18:11:36.999Z</time></trkpt><trkpt lat="45.79327743748627" lon="9.300380096682945"><ele>276.0</ele><time>2026-03-28T18:11:38.999Z</time></trkpt><trkpt lat="45.79320898076695" lon="9.300321653652516"><ele>276.0</ele><time>2026-03-28T18:11:40Z</time></trkpt><trkpt lat="45.793128457617996" lon="9.300254464236598"><ele>276.0</ele><time>2026-03-28T18:11:41Z</time></trkpt><trkpt lat="45.79305743447939" lon="9.30018958884741"><ele>276.0</ele><time>2026-03-28T18:11:42Z</time></trkpt><trkpt lat="45.79299766284842" lon="9.300135970199328"><ele>276.0</ele><time>2026-03-28T18:11:43Z</time></trkpt><trkpt lat="45.79293424922706" lon="9.300093847308256"><ele>276.0</ele><time>2026-03-28T18:11:44Z</time></trkpt><trkpt lat="45.79283575377572" lon="9.300020906317332"><ele>276.0</ele><time>2026-03-28T18:11:46Z</time></trkpt><trkpt lat="45.79277859022773" lon="9.299972612821326"><ele>276.0</ele><time>2026-03-28T18:11:47Z</time></trkpt><trkpt lat="45.79270912279037" lon="9.299925783357404"><ele>276.0</ele><time>2026-03-28T18:11:48Z</time></trkpt><trkpt lat="45.79265196966433" lon="9.299882463493717"><ele>275.6666666666667</ele><time>2026-03-28T18:11:49Z</time></trkpt><trkpt lat="45.79259375221714" lon="9.299846775305971"><ele>275.3333333333333</ele><time>2026-03-28T18:11:50Z</time></trkpt><trkpt lat="45.79253362466065" lon="9.299807784293181"><ele>275.0</ele><time>2026-03-28T18:11:51Z</time></trkpt><trkpt lat="45.79242849400357" lon="9.299727511284676"><ele>274.66666666666663</ele><time>2026-03-28T18:11:53Z</time></trkpt><trkpt lat="45.79236442512532" lon="9.299684816658075"><ele>274.3333333333333</ele><time>2026-03-28T18:11:54Z</time></trkpt><trkpt lat="45.792296361824626" lon="9.299634191029053"><ele>274.0</ele><time>2026-03-28T18:11:55Z</time></trkpt><trkpt lat="45.79221188139299" lon="9.2995839646602"><ele>274.0</ele><time>2026-03-28T18:11:56Z</time></trkpt><trkpt lat="45.792139762056756" lon="9.29953771514051"><ele>274.0</ele><time>2026-03-28T18:11:57Z</time></trkpt><trkpt lat="45.79207481380728" lon="9.299497128781471"><ele>274.0</ele><time>2026-03-28T18:11:58Z</time></trkpt><trkpt lat="45.792011861010906" lon="9.299451145296926"><ele>274.0</ele><time>2026-03-28T18:11:59Z</time></trkpt><trkpt lat="45.79194738267533" lon="9.299411100527207"><ele>274.0</ele><time>2026-03-28T18:12:00Z</time></trkpt><trkpt lat="45.79188056495051" lon="9.299367647268785"><ele>274.0</ele><time>2026-03-28T18:12:01Z</time></trkpt><trkpt lat="45.79179969055688" lon="9.299310910106984"><ele>273.0</ele><time>2026-03-28T18:12:02Z</time></trkpt><trkpt lat="45.79171726994502" lon="9.299252166468795"><ele>272.0</ele><time>2026-03-28T18:12:03Z</time></trkpt><trkpt lat="45.79162406268242" lon="9.299187641562177"><ele>271.0</ele><time>2026-03-28T18:12:04Z</time></trkpt><trkpt lat="45.791499537983725" lon="9.299107682776013"><ele>270.0</ele><time>2026-03-28T18:12:05Z</time></trkpt><trkpt lat="45.79139306507517" lon="9.29902951484163"><ele>270.0</ele><time>2026-03-28T18:12:06Z</time></trkpt><trkpt lat="45.79129739309889" lon="9.298959353478823"><ele>270.0</ele><time>2026-03-28T18:12:07Z</time></trkpt><trkpt lat="45.79120510374911" lon="9.298905846974073"><ele>270.0</ele><time>2026-03-28T18:12:08Z</time></trkpt><trkpt lat="45.79110802575054" lon="9.298842626550698"><ele>270.0</ele><time>2026-03-28T18:12:09Z</time></trkpt><trkpt lat="45.79100341209662" lon="9.29877255469654"><ele>270.0</ele><time>2026-03-28T18:12:10Z</time></trkpt><trkpt lat="45.790900404995" lon="9.298705013072711"><ele>270.6</ele><time>2026-03-28T18:12:11Z</time></trkpt><trkpt lat="45.7908032172801" lon="9.298642200674978"><ele>271.2</ele><time>2026-03-28T18:12:12Z</time></trkpt><trkpt lat="45.790700864508125" lon="9.298582904921298"><ele>271.8</ele><time>2026-03-28T18:12:13Z</time></trkpt><trkpt lat="45.79060832263732" lon="9.298524238058665"><ele>272.4</ele><time>2026-03-28T18:12:14Z</time></trkpt><trkpt lat="45.79052350018396" lon="9.298470163898825"><ele>273.0</ele><time>2026-03-28T18:12:15Z</time></trkpt><trkpt lat="45.79045408954588" lon="9.298423353421242"><ele>273.0</ele><time>2026-03-28T18:12:16Z</time></trkpt><trkpt lat="45.79039105720068" lon="9.298384951278447"><ele>273.0</ele><time>2026-03-28T18:12:17Z</time></trkpt><trkpt lat="45.790334534341234" lon="9.298342760678771"><ele>273.0</ele><time>2026-03-28T18:12:18Z</time></trkpt><trkpt lat="45.7902689697102" lon="9.298298645393315"><ele>273.0</ele><time>2026-03-28T18:12:19Z</time></trkpt><trkpt lat="45.79019633418526" lon="9.298251694860431"><ele>273.0</ele><time>2026-03-28T18:12:20Z</time></trkpt><trkpt lat="45.79011908281326" lon="9.298200189670009"><ele>273.0</ele><time>2026-03-28T18:12:20.999Z</time></trkpt><trkpt lat="45.790047272742754" lon="9.298150335281647"><ele>273.0</ele><time>2026-03-28T18:12:21.999Z</time></trkpt><trkpt lat="45.78998059342258" lon="9.298107711657314"><ele>273.5</ele><time>2026-03-28T18:12:22.999Z</time></trkpt><trkpt lat="45.78991856498115" lon="9.298066435778406"><ele>274.0</ele><time>2026-03-28T18:12:23.999Z</time></trkpt><trkpt lat="45.78981173380328" lon="9.297989021991034"><ele>274.5</ele><time>2026-03-28T18:12:25.999Z</time></trkpt><trkpt lat="45.78975212952126" lon="9.297956753870046"><ele>275.0</ele><time>2026-03-28T18:12:26.999Z</time></trkpt><trkpt lat="45.789686639170164" lon="9.297908337463467"><ele>275.5</ele><time>2026-03-28T18:12:27.999Z</time></trkpt><trkpt lat="45.78961295568072" lon="9.29784812637546"><ele>276.0</ele><time>2026-03-28T18:12:28.999Z</time></trkpt><trkpt lat="45.78953390955926" lon="9.297795823211766"><ele>276.0</ele><time>2026-03-28T18:12:29.999Z</time></trkpt><trkpt lat="45.78945777255167" lon="9.297747182829998"><ele>276.0</ele><time>2026-03-28T18:12:30.999Z</time></trkpt><trkpt lat="45.789387627427736" lon="9.297692684298493"><ele>276.0</ele><time>2026-03-28T18:12:31.999Z</time></trkpt><trkpt lat="45.78932877290488" lon="9.297636748654957"><ele>276.0</ele><time>2026-03-28T18:12:32.999Z</time></trkpt><trkpt lat="45.78927114538061" lon="9.297593733698614"><ele>276.0</ele><time>2026-03-28T18:12:33.999Z</time></trkpt><trkpt lat="45.78919835375866" lon="9.29755742478327"><ele>276.0</ele><time>2026-03-28T18:12:34.999Z</time></trkpt><trkpt lat="45.789124064855145" lon="9.297504220122894"><ele>276.5</ele><time>2026-03-28T18:12:35.999Z</time></trkpt><trkpt lat="45.78904814153698" lon="9.297452987154497"><ele>277.0</ele><time>2026-03-28T18:12:36.999Z</time></trkpt><trkpt lat="45.78897060398944" lon="9.297406220261507"><ele>277.5</ele><time>2026-03-28T18:12:37.999Z</time></trkpt><trkpt lat="45.78889289056291" lon="9.29735505410572"><ele>278.0</ele><time>2026-03-28T18:12:38.999Z</time></trkpt><trkpt lat="45.788806214971466" lon="9.297298727875132"><ele>278.5</ele><time>2026-03-28T18:12:39.999Z</time></trkpt><trkpt lat="45.78871526089074" lon="9.29723837824078"><ele>279.0</ele><time>2026-03-28T18:12:40.999Z</time></trkpt><trkpt lat="45.78862196944617" lon="9.297177032786497"><ele>279.0</ele><time>2026-03-28T18:12:41.999Z</time></trkpt><trkpt lat="45.78853770748623" lon="9.297121363692908"><ele>279.0</ele><time>2026-03-28T18:12:42.999Z</time></trkpt><trkpt lat="45.78845936648218" lon="9.297062971405976"><ele>279.0</ele><time>2026-03-28T18:12:43.999Z</time></trkpt><trkpt lat="45.78838603030347" lon="9.297005622835902"><ele>279.0</ele><time>2026-03-28T18:12:44.999Z</time></trkpt><trkpt lat="45.7883128118355" lon="9.296951349135906"><ele>279.0</ele><time>2026-03-28T18:12:45.999Z</time></trkpt><trkpt lat="45.78822328434178" lon="9.296901144673797"><ele>279.0</ele><time>2026-03-28T18:12:46.999Z</time></trkpt><trkpt lat="45.78813776976477" lon="9.2968483941922"><ele>277.8333333333333</ele><time>2026-03-28T18:12:47.999Z</time></trkpt><trkpt lat="45.788057241931035" lon="9.296794484076104"><ele>276.6666666666667</ele><time>2026-03-28T18:12:48.999Z</time></trkpt><trkpt lat="45.78797557760554" lon="9.296754795361725"><ele>275.5</ele><time>2026-03-28T18:12:49.999Z</time></trkpt><trkpt lat="45.78789512099568" lon="9.296712888147802"><ele>274.33333333333337</ele><time>2026-03-28T18:12:50.999Z</time></trkpt><trkpt lat="45.78781409237342" lon="9.296660618272231"><ele>273.1666666666667</ele><time>2026-03-28T18:12:51.999Z</time></trkpt><trkpt lat="45.78772598466394" lon="9.296605243427884"><ele>272.0</ele><time>2026-03-28T18:12:52.999Z</time></trkpt><trkpt lat="45.78763342252903" lon="9.296539525178975"><ele>271.0</ele><time>2026-03-28T18:12:53.999Z</time></trkpt><trkpt lat="45.78754924142987" lon="9.29647959885264"><ele>270.0</ele><time>2026-03-28T18:12:54.999Z</time></trkpt><trkpt lat="45.78746547293436" lon="9.296422607317464"><ele>269.0</ele><time>2026-03-28T18:12:55.999Z</time></trkpt><trkpt lat="45.78738654432921" lon="9.296369460011997"><ele>268.0</ele><time>2026-03-28T18:12:56.999Z</time></trkpt><trkpt lat="45.78730733486084" lon="9.29631063316833"><ele>267.0</ele><time>2026-03-28T18:12:57.999Z</time></trkpt><trkpt lat="45.78722277422431" lon="9.296255742236838"><ele>267.0</ele><time>2026-03-28T18:12:58.999Z</time></trkpt><trkpt lat="45.78714049198231" lon="9.296206463591611"><ele>267.0</ele><time>2026-03-28T18:12:59.999Z</time></trkpt><trkpt lat="45.78706619619838" lon="9.2961495486362"><ele>267.0</ele><time>2026-03-28T18:13:00.999Z</time></trkpt><trkpt lat="45.786995347228775" lon="9.296093546038842"><ele>267.0</ele><time>2026-03-28T18:13:01.999Z</time></trkpt><trkpt lat="45.78693304268735" lon="9.296053091329087"><ele>267.0</ele><time>2026-03-28T18:13:02.999Z</time></trkpt><trkpt lat="45.78683265574936" lon="9.295999996993514"><ele>267.0</ele><time>2026-03-28T18:13:04.999Z</time></trkpt><trkpt lat="45.78672902101331" lon="9.295926381011604"><ele>266.8</ele><time>2026-03-28T18:13:06.999Z</time></trkpt><trkpt lat="45.78665917200067" lon="9.295875090531492"><ele>266.6</ele><time>2026-03-28T18:13:07.999Z</time></trkpt><trkpt lat="45.786576166058126" lon="9.29582751300944"><ele>266.40000000000003</ele><time>2026-03-28T18:13:08.999Z</time></trkpt><trkpt lat="45.78649197051997" lon="9.29577461013453"><ele>266.2</ele><time>2026-03-28T18:13:09.999Z</time></trkpt><trkpt lat="45.78640208669015" lon="9.295723104127305"><ele>266.0</ele><time>2026-03-28T18:13:10.999Z</time></trkpt><trkpt lat="45.78631085932912" lon="9.295675194794727"><ele>266.0</ele><time>2026-03-28T18:13:11.999Z</time></trkpt><trkpt lat="45.78622179323118" lon="9.295620080256004"><ele>266.0</ele><time>2026-03-28T18:13:12.999Z</time></trkpt><trkpt lat="45.78613396718648" lon="9.295571507719252"><ele>266.0</ele><time>2026-03-28T18:13:13.999Z</time></trkpt><trkpt lat="45.7860574473444" lon="9.295529152233712"><ele>266.0</ele><time>2026-03-28T18:13:14.999Z</time></trkpt><trkpt lat="45.78599869934472" lon="9.29547308660592"><ele>266.0</ele><time>2026-03-28T18:13:15.999Z</time></trkpt><trkpt lat="45.78593878883837" lon="9.295419335907159"><ele>266.0</ele><time>2026-03-28T18:13:16.999Z</time></trkpt><trkpt lat="45.78587921863614" lon="9.295373677154217"><ele>265.83333333333337</ele><time>2026-03-28T18:13:17.999Z</time></trkpt><trkpt lat="45.78582017155318" lon="9.295338904459841"><ele>265.6666666666667</ele><time>2026-03-28T18:13:18.999Z</time></trkpt><trkpt lat="45.785710605972774" lon="9.29526197688424"><ele>265.5</ele><time>2026-03-28T18:13:20.999Z</time></trkpt><trkpt lat="45.785643622674336" lon="9.295226592993645"><ele>265.3333333333333</ele><time>2026-03-28T18:13:21.999Z</time></trkpt><trkpt lat="45.78556708632009" lon="9.29517693697973"><ele>265.16666666666663</ele><time>2026-03-28T18:13:22.999Z</time></trkpt><trkpt lat="45.78548421946112" lon="9.295127555551465"><ele>265.0</ele><time>2026-03-28T18:13:23.999Z</time></trkpt><trkpt lat="45.78539358236289" lon="9.295068176093883"><ele>265.0</ele><time>2026-03-28T18:13:24.999Z</time></trkpt><trkpt lat="45.78530047463379" lon="9.295004286749604"><ele>265.0</ele><time>2026-03-28T18:13:25.999Z</time></trkpt><trkpt lat="45.78520829916807" lon="9.294939995420757"><ele>265.0</ele><time>2026-03-28T18:13:26.999Z</time></trkpt><trkpt lat="45.78512105822024" lon="9.294880366943856"><ele>265.0</ele><time>2026-03-28T18:13:27.999Z</time></trkpt><trkpt lat="45.785039025986684" lon="9.294840991146717"><ele>265.0</ele><time>2026-03-28T18:13:28.999Z</time></trkpt><trkpt lat="45.784965127338104" lon="9.294798491465402"><ele>265.0</ele><time>2026-03-28T18:13:29.999Z</time></trkpt><trkpt lat="45.78489281553899" lon="9.294755651944394"><ele>265.0</ele><time>2026-03-28T18:13:30.999Z</time></trkpt><trkpt lat="45.784815129972586" lon="9.294711905930313"><ele>265.0</ele><time>2026-03-28T18:13:31.999Z</time></trkpt><trkpt lat="45.78473360979472" lon="9.294655701391594"><ele>265.0</ele><time>2026-03-28T18:13:32.999Z</time></trkpt><trkpt lat="45.784654570709286" lon="9.29460324916046"><ele>265.0</ele><time>2026-03-28T18:13:33.999Z</time></trkpt><trkpt lat="45.78458546797525" lon="9.294551008478136"><ele>265.0</ele><time>2026-03-28T18:13:34.999Z</time></trkpt><trkpt lat="45.78452154944932" lon="9.29450173384996"><ele>266.0</ele><time>2026-03-28T18:13:35.999Z</time></trkpt><trkpt lat="45.78445664712142" lon="9.294452601777728"><ele>267.0</ele><time>2026-03-28T18:13:36.999Z</time></trkpt><trkpt lat="45.7843882723146" lon="9.29440671316729"><ele>268.0</ele><time>2026-03-28T18:13:37.999Z</time></trkpt><trkpt lat="45.78430796756102" lon="9.294343776272864"><ele>269.0</ele><time>2026-03-28T18:13:38.999Z</time></trkpt><trkpt lat="45.78420704782326" lon="9.294272000602984"><ele>270.0</ele><time>2026-03-28T18:13:39.999Z</time></trkpt><trkpt lat="45.78411311536647" lon="9.294179476368027"><ele>270.2</ele><time>2026-03-28T18:13:40.999Z</time></trkpt><trkpt lat="45.7840277315115" lon="9.294102550989098"><ele>270.4</ele><time>2026-03-28T18:13:41.999Z</time></trkpt><trkpt lat="45.78394330257063" lon="9.294034542067951"><ele>270.6</ele><time>2026-03-28T18:13:42.999Z</time></trkpt><trkpt lat="45.783851925161244" lon="9.293977395292234"><ele>270.8</ele><time>2026-03-28T18:13:43.999Z</time></trkpt><trkpt lat="45.78375715455598" lon="9.293915024117403"><ele>271.0</ele><time>2026-03-28T18:13:44.999Z</time></trkpt><trkpt lat="45.783663838625046" lon="9.293855670582442"><ele>271.40000000000003</ele><time>2026-03-28T18:13:46Z</time></trkpt><trkpt lat="45.783568894862675" lon="9.29379855742317"><ele>271.8</ele><time>2026-03-28T18:13:47Z</time></trkpt><trkpt lat="45.78347248860122" lon="9.293731316120468"><ele>272.20000000000005</ele><time>2026-03-28T18:13:48Z</time></trkpt><trkpt lat="45.783371716081" lon="9.293659655814816"><ele>272.6</ele><time>2026-03-28T18:13:49Z</time></trkpt><trkpt lat="45.783270366228464" lon="9.293592172894858"><ele>273.0</ele><time>2026-03-28T18:13:50Z</time></trkpt><trkpt lat="45.78316935303746" lon="9.293524526423614"><ele>273.0</ele><time>2026-03-28T18:13:51Z</time></trkpt><trkpt lat="45.783070115314004" lon="9.293456738914342"><ele>273.0</ele><time>2026-03-28T18:13:52Z</time></trkpt><trkpt lat="45.78297340370372" lon="9.293395136855263"><ele>273.0</ele><time>2026-03-28T18:13:53Z</time></trkpt><trkpt lat="45.78288009048317" lon="9.293334640885332"><ele>273.0</ele><time>2026-03-28T18:13:54Z</time></trkpt><trkpt lat="45.78279118222642" lon="9.293276479284934"><ele>273.0</ele><time>2026-03-28T18:13:55Z</time></trkpt><trkpt lat="45.78270510941808" lon="9.293221296409085"><ele>272.5</ele><time>2026-03-28T18:13:56Z</time></trkpt><trkpt lat="45.78262464510804" lon="9.29317132849898"><ele>272.0</ele><time>2026-03-28T18:13:57Z</time></trkpt><trkpt lat="45.78256044724039" lon="9.293134524509197"><ele>271.5</ele><time>2026-03-28T18:13:58Z</time></trkpt><trkpt lat="45.78250165140786" lon="9.293099025474445"><ele>271.0</ele><time>2026-03-28T18:13:59Z</time></trkpt><trkpt lat="45.782378240709875" lon="9.293021768981493"><ele>270.5</ele><time>2026-03-28T18:14:01Z</time></trkpt><trkpt lat="45.7823000091952" lon="9.292959848366433"><ele>270.0</ele><time>2026-03-28T18:14:02Z</time></trkpt><trkpt lat="45.78221667651063" lon="9.292899418634462"><ele>270.0</ele><time>2026-03-28T18:14:03Z</time></trkpt><trkpt lat="45.78213663672722" lon="9.292846170187675"><ele>270.0</ele><time>2026-03-28T18:14:04Z</time></trkpt><trkpt lat="45.78205824209319" lon="9.292790719531844"><ele>270.0</ele><time>2026-03-28T18:14:05Z</time></trkpt><trkpt lat="45.78197292594425" lon="9.292736876517186"><ele>270.0</ele><time>2026-03-28T18:14:06Z</time></trkpt><trkpt lat="45.781888520807286" lon="9.29269232545226"><ele>270.0</ele><time>2026-03-28T18:14:07Z</time></trkpt><trkpt lat="45.781808202836814" lon="9.29264980458113"><ele>270.0</ele><time>2026-03-28T18:14:08Z</time></trkpt><trkpt lat="45.78173044790844" lon="9.292589590423477"><ele>269.8</ele><time>2026-03-28T18:14:09Z</time></trkpt><trkpt lat="45.78165101703866" lon="9.292527665163487"><ele>269.6</ele><time>2026-03-28T18:14:10Z</time></trkpt><trkpt lat="45.78156855813753" lon="9.292468732755733"><ele>269.4</ele><time>2026-03-28T18:14:11Z</time></trkpt><trkpt lat="45.7814817047916" lon="9.292402799476452"><ele>269.2</ele><time>2026-03-28T18:14:12Z</time></trkpt><trkpt lat="45.781388433618076" lon="9.292340933957329"><ele>269.0</ele><time>2026-03-28T18:14:13Z</time></trkpt><trkpt lat="45.78129822133199" lon="9.292281881346367"><ele>269.0</ele><time>2026-03-28T18:14:14Z</time></trkpt><trkpt lat="45.78121208733236" lon="9.292225171640895"><ele>269.0</ele><time>2026-03-28T18:14:15Z</time></trkpt><trkpt lat="45.78112347433382" lon="9.292164172205402"><ele>269.0</ele><time>2026-03-28T18:14:16Z</time></trkpt><trkpt lat="45.781031461728354" lon="9.292099540161178"><ele>269.0</ele><time>2026-03-28T18:14:17Z</time></trkpt><trkpt lat="45.78094271274993" lon="9.29203844436008"><ele>269.0</ele><time>2026-03-28T18:14:18Z</time></trkpt><trkpt lat="45.78085831728303" lon="9.291981443213286"><ele>268.33333333333337</ele><time>2026-03-28T18:14:19Z</time></trkpt><trkpt lat="45.78078267053717" lon="9.2919329588129"><ele>267.6666666666667</ele><time>2026-03-28T18:14:20Z</time></trkpt><trkpt lat="45.780711184495146" lon="9.291890486557037"><ele>267.0</ele><time>2026-03-28T18:14:21Z</time></trkpt><trkpt lat="45.780639311760545" lon="9.291841514366569"><ele>266.3333333333333</ele><time>2026-03-28T18:14:22Z</time></trkpt><trkpt lat="45.78055812324686" lon="9.291794727077242"><ele>265.66666666666663</ele><time>2026-03-28T18:14:23Z</time></trkpt><trkpt lat="45.78046679963773" lon="9.291743078769539"><ele>265.0</ele><time>2026-03-28T18:14:24Z</time></trkpt><trkpt lat="45.780376401172745" lon="9.29168197626299"><ele>265.0</ele><time>2026-03-28T18:14:25Z</time></trkpt><trkpt lat="45.780285664939406" lon="9.291626719162942"><ele>265.0</ele><time>2026-03-28T18:14:26Z</time></trkpt><trkpt lat="45.78020431858681" lon="9.291568907049996"><ele>265.0</ele><time>2026-03-28T18:14:27Z</time></trkpt><trkpt lat="45.78011860094894" lon="9.291507601652567"><ele>265.0</ele><time>2026-03-28T18:14:28Z</time></trkpt><trkpt lat="45.78002832458344" lon="9.29144651529408"><ele>265.0</ele><time>2026-03-28T18:14:29Z</time></trkpt><trkpt lat="45.77994626345632" lon="9.29139227975736"><ele>264.3333333333333</ele><time>2026-03-28T18:14:30Z</time></trkpt><trkpt lat="45.77987080141963" lon="9.291343860243998"><ele>263.66666666666663</ele><time>2026-03-28T18:14:31Z</time></trkpt><trkpt lat="45.77980701384162" lon="9.291308846643233"><ele>263.0</ele><time>2026-03-28T18:14:32Z</time></trkpt><trkpt lat="45.77973971314251" lon="9.291261571833065"><ele>262.3333333333333</ele><time>2026-03-28T18:14:34Z</time></trkpt><trkpt lat="45.77965511265952" lon="9.291202736877473"><ele>261.6666666666667</ele><time>2026-03-28T18:14:37Z</time></trkpt><trkpt lat="45.77958021970131" lon="9.291150103541641"><ele>261.0</ele><time>2026-03-28T18:14:39Z</time></trkpt><trkpt lat="45.77951433047317" lon="9.291102349922355"><ele>261.0</ele><time>2026-03-28T18:14:40.999Z</time></trkpt><trkpt lat="45.77943510230554" lon="9.29104535789553"><ele>261.0</ele><time>2026-03-28T18:14:42.999Z</time></trkpt><trkpt lat="45.77930796272203" lon="9.290966729564765"><ele>261.0</ele><time>2026-03-28T18:14:44.999Z</time></trkpt><trkpt lat="45.779224758455406" lon="9.290911252955382"><ele>261.0</ele><time>2026-03-28T18:14:45.999Z</time></trkpt><trkpt lat="45.77915786030964" lon="9.290865413771197"><ele>261.0</ele><time>2026-03-28T18:14:46.999Z</time></trkpt><trkpt lat="45.77909406478487" lon="9.29082089074977"><ele>261.14285714285717</ele><time>2026-03-28T18:14:47.999Z</time></trkpt><trkpt lat="45.779026645903926" lon="9.290776432460158"><ele>261.2857142857143</ele><time>2026-03-28T18:14:48.999Z</time></trkpt><trkpt lat="45.77896606647111" lon="9.29073659649806"><ele>261.42857142857144</ele><time>2026-03-28T18:14:49.999Z</time></trkpt><trkpt lat="45.77889933726149" lon="9.290691339518508"><ele>261.57142857142856</ele><time>2026-03-28T18:14:50.999Z</time></trkpt><trkpt lat="45.778826849462206" lon="9.290640559824636"><ele>261.7142857142857</ele><time>2026-03-28T18:14:51.999Z</time></trkpt><trkpt lat="45.778758478799574" lon="9.29059531277962"><ele>261.8571428571429</ele><time>2026-03-28T18:14:52.999Z</time></trkpt><trkpt lat="45.77868829039354" lon="9.290550088309192"><ele>262.0</ele><time>2026-03-28T18:14:53.999Z</time></trkpt><trkpt lat="45.778607287290235" lon="9.290496329182586"><ele>262.0</ele><time>2026-03-28T18:14:54.999Z</time></trkpt><trkpt lat="45.77852781313519" lon="9.290434511201338"><ele>262.0</ele><time>2026-03-28T18:14:55.999Z</time></trkpt><trkpt lat="45.77847264893667" lon="9.29037572943142"><ele>262.0</ele><time>2026-03-28T18:14:56.999Z</time></trkpt><trkpt lat="45.778345690217584" lon="9.290322437764015"><ele>262.0</ele><time>2026-03-28T18:14:58.999Z</time></trkpt><trkpt lat="45.778259363845635" lon="9.290263085846366"><ele>262.0</ele><time>2026-03-28T18:14:59.999Z</time></trkpt><trkpt lat="45.778193165532606" lon="9.29022253392198"><ele>262.3333333333333</ele><time>2026-03-28T18:15:00.999Z</time></trkpt><trkpt lat="45.778112290042195" lon="9.290165953116158"><ele>262.66666666666663</ele><time>2026-03-28T18:15:02.999Z</time></trkpt><trkpt lat="45.778013922432834" lon="9.290105561784666"><ele>263.0</ele><time>2026-03-28T18:15:04.999Z</time></trkpt><trkpt lat="45.77794407936297" lon="9.290058502145108"><ele>263.3333333333333</ele><time>2026-03-28T18:15:05.999Z</time></trkpt><trkpt lat="45.77787556594919" lon="9.290017493407428"><ele>263.6666666666667</ele><time>2026-03-28T18:15:06.999Z</time></trkpt><trkpt lat="45.77780498445234" lon="9.289972843854207"><ele>264.0</ele><time>2026-03-28T18:15:07.999Z</time></trkpt><trkpt lat="45.77772737639954" lon="9.289903749412115"><ele>264.0</ele><time>2026-03-28T18:15:08.999Z</time></trkpt><trkpt lat="45.77765082044053" lon="9.289843412098808"><ele>264.0</ele><time>2026-03-28T18:15:09.999Z</time></trkpt><trkpt lat="45.77758579034005" lon="9.289809593865233"><ele>264.0</ele><time>2026-03-28T18:15:10.999Z</time></trkpt><trkpt lat="45.77751782193714" lon="9.289776196684377"><ele>264.0</ele><time>2026-03-28T18:15:11.999Z</time></trkpt><trkpt lat="45.777444928092976" lon="9.289716868362511"><ele>264.0</ele><time>2026-03-28T18:15:12.999Z</time></trkpt><trkpt lat="45.77736382728746" lon="9.289644911420384"><ele>264.0</ele><time>2026-03-28T18:15:13.999Z</time></trkpt><trkpt lat="45.77727946688243" lon="9.289577816438682"><ele>264.0</ele><time>2026-03-28T18:15:14.999Z</time></trkpt><trkpt lat="45.77719670142004" lon="9.289513578139179"><ele>264.0</ele><time>2026-03-28T18:15:15.999Z</time></trkpt><trkpt lat="45.77709836361096" lon="9.28949839854525"><ele>264.0</ele><time>2026-03-28T18:15:16.999Z</time></trkpt><trkpt lat="45.77701101476304" lon="9.289444216287153"><ele>264.0</ele><time>2026-03-28T18:15:17.999Z</time></trkpt><trkpt lat="45.77691815953352" lon="9.289387368340456"><ele>264.0</ele><time>2026-03-28T18:15:18.999Z</time></trkpt><trkpt lat="45.776825829533436" lon="9.28932241292139"><ele>263.5</ele><time>2026-03-28T18:15:19.999Z</time></trkpt><trkpt lat="45.77673816976095" lon="9.289260117377715"><ele>263.0</ele><time>2026-03-28T18:15:20.999Z</time></trkpt><trkpt lat="45.77665251483657" lon="9.289204183482537"><ele>262.5</ele><time>2026-03-28T18:15:21.999Z</time></trkpt><trkpt lat="45.77659517121741" lon="9.28915941825828"><ele>262.0</ele><time>2026-03-28T18:15:22.999Z</time></trkpt><trkpt lat="45.77650540552503" lon="9.289103856796984"><ele>261.5</ele><time>2026-03-28T18:15:24.999Z</time></trkpt><trkpt lat="45.7764282585732" lon="9.289056555335545"><ele>261.0</ele><time>2026-03-28T18:15:26.999Z</time></trkpt><trkpt lat="45.77637024881533" lon="9.289015301612732"><ele>261.0</ele><time>2026-03-28T18:15:28.999Z</time></trkpt><trkpt lat="45.776307629604325" lon="9.288987027803119"><ele>261.0</ele><time>2026-03-28T18:15:33.999Z</time></trkpt><trkpt lat="45.776229384086676" lon="9.288936850548886"><ele>261.0</ele><time>2026-03-28T18:15:35.999Z</time></trkpt><trkpt lat="45.7761406215007" lon="9.288882521379882"><ele>261.0</ele><time>2026-03-28T18:15:37.999Z</time></trkpt><trkpt lat="45.77603085195861" lon="9.288816102283112"><ele>261.0</ele><time>2026-03-28T18:15:39.999Z</time></trkpt><trkpt lat="45.77596376287066" lon="9.288782137441887"><ele>261.0</ele><time>2026-03-28T18:15:40.999Z</time></trkpt><trkpt lat="45.775893423734985" lon="9.288756437702958"><ele>261.6666666666667</ele><time>2026-03-28T18:15:41.999Z</time></trkpt><trkpt lat="45.775818338187655" lon="9.288719527384762"><ele>262.3333333333333</ele><time>2026-03-28T18:15:42.999Z</time></trkpt><trkpt lat="45.775743859001906" lon="9.288678187882365"><ele>263.0</ele><time>2026-03-28T18:15:43.999Z</time></trkpt><trkpt lat="45.77567018437772" lon="9.288644314125444"><ele>263.66666666666663</ele><time>2026-03-28T18:15:44.999Z</time></trkpt><trkpt lat="45.77559473520683" lon="9.288615237669537"><ele>264.3333333333333</ele><time>2026-03-28T18:15:45.999Z</time></trkpt><trkpt lat="45.775517657668146" lon="9.288584347196986"><ele>265.0</ele><time>2026-03-28T18:15:46.999Z</time></trkpt><trkpt lat="45.775437170749385" lon="9.288566753344243"><ele>265.0</ele><time>2026-03-28T18:15:47.999Z</time></trkpt><trkpt lat="45.77533500696899" lon="9.288516163261733"><ele>265.0</ele><time>2026-03-28T18:15:49.999Z</time></trkpt><trkpt lat="45.77526029598547" lon="9.288493797785726"><ele>265.0</ele><time>2026-03-28T18:15:52Z</time></trkpt><trkpt lat="45.7751640677525" lon="9.288470806227103"><ele>265.0</ele><time>2026-03-28T18:15:54Z</time></trkpt><trkpt lat="45.77509638128332" lon="9.288457148900768"><ele>265.0</ele><time>2026-03-28T18:15:55Z</time></trkpt><trkpt lat="45.77501638576428" lon="9.288442881285105"><ele>265.0</ele><time>2026-03-28T18:15:56Z</time></trkpt><trkpt lat="45.77492867119379" lon="9.288422892232196"><ele>265.3333333333333</ele><time>2026-03-28T18:15:57Z</time></trkpt><trkpt lat="45.77484602757685" lon="9.288400354107223"><ele>265.66666666666663</ele><time>2026-03-28T18:15:58Z</time></trkpt><trkpt lat="45.77476853844479" lon="9.288382501451894"><ele>266.0</ele><time>2026-03-28T18:15:59Z</time></trkpt><trkpt lat="45.77468258728731" lon="9.288366071656634"><ele>266.3333333333333</ele><time>2026-03-28T18:16:00Z</time></trkpt><trkpt lat="45.77460229925222" lon="9.288348251603802"><ele>266.6666666666667</ele><time>2026-03-28T18:16:01Z</time></trkpt><trkpt lat="45.77452046699148" lon="9.288335663227793"><ele>267.0</ele><time>2026-03-28T18:16:02Z</time></trkpt><trkpt lat="45.774437830615405" lon="9.288324652859872"><ele>267.0</ele><time>2026-03-28T18:16:03Z</time></trkpt><trkpt lat="45.77436039592261" lon="9.288317475364794"><ele>267.0</ele><time>2026-03-28T18:16:04Z</time></trkpt><trkpt lat="45.7742890475475" lon="9.288307883791179"><ele>267.0</ele><time>2026-03-28T18:16:05Z</time></trkpt><trkpt lat="45.77421631026744" lon="9.28829538497311"><ele>267.0</ele><time>2026-03-28T18:16:06Z</time></trkpt><trkpt lat="45.77414556768888" lon="9.288287576887196"><ele>267.0</ele><time>2026-03-28T18:16:07Z</time></trkpt><trkpt lat="45.774057079520325" lon="9.28828712869224"><ele>267.0</ele><time>2026-03-28T18:16:09Z</time></trkpt><trkpt lat="45.773969789877206" lon="9.288283839727189"><ele>267.0</ele><time>2026-03-28T18:16:11Z</time></trkpt><trkpt lat="45.77387102827553" lon="9.288259291288506"><ele>267.0</ele><time>2026-03-28T18:16:13Z</time></trkpt><trkpt lat="45.77380125916325" lon="9.288241685047431"><ele>267.0</ele><time>2026-03-28T18:16:14Z</time></trkpt><trkpt lat="45.77371649419766" lon="9.288232880076661"><ele>267.0</ele><time>2026-03-28T18:16:15Z</time></trkpt><trkpt lat="45.773619436137544" lon="9.288225407913336"><ele>267.0</ele><time>2026-03-28T18:16:16Z</time></trkpt><trkpt lat="45.77350575994052" lon="9.288213854736874"><ele>267.0</ele><time>2026-03-28T18:16:17Z</time></trkpt><trkpt lat="45.7733792352007" lon="9.288203525134538"><ele>267.0</ele><time>2026-03-28T18:16:18Z</time></trkpt><trkpt lat="45.77324759848703" lon="9.288190394253968"><ele>267.0</ele><time>2026-03-28T18:16:19Z</time></trkpt><trkpt lat="45.77310313990326" lon="9.28818656417788"><ele>267.0</ele><time>2026-03-28T18:16:20Z</time></trkpt><trkpt lat="45.77295944389016" lon="9.288176151036827"><ele>267.0</ele><time>2026-03-28T18:16:21Z</time></trkpt><trkpt lat="45.77281900736617" lon="9.288163384446356"><ele>267.0</ele><time>2026-03-28T18:16:22Z</time></trkpt><trkpt lat="45.772691570076724" lon="9.2881578054443"><ele>267.0</ele><time>2026-03-28T18:16:23Z</time></trkpt><trkpt lat="45.772564619676" lon="9.288148159582418"><ele>267.0</ele><time>2026-03-28T18:16:24Z</time></trkpt><trkpt lat="45.772442405868446" lon="9.288140438791006"><ele>267.0</ele><time>2026-03-28T18:16:25Z</time></trkpt><trkpt lat="45.772326129718685" lon="9.288132316391525"><ele>267.0</ele><time>2026-03-28T18:16:26Z</time></trkpt><trkpt lat="45.77221428481817" lon="9.288126872602662"><ele>267.0</ele><time>2026-03-28T18:16:27Z</time></trkpt><trkpt lat="45.77210672795046" lon="9.288124996804298"><ele>267.0</ele><time>2026-03-28T18:16:28Z</time></trkpt><trkpt lat="45.77199744743628" lon="9.288124068489996"><ele>267.0</ele><time>2026-03-28T18:16:29Z</time></trkpt><trkpt lat="45.77189379039091" lon="9.288116014063005"><ele>267.4</ele><time>2026-03-28T18:16:30Z</time></trkpt><trkpt lat="45.77179290621805" lon="9.288106186568157"><ele>267.79999999999995</ele><time>2026-03-28T18:16:31Z</time></trkpt><trkpt lat="45.77169817842965" lon="9.288094508572877"><ele>268.2</ele><time>2026-03-28T18:16:32Z</time></trkpt><trkpt lat="45.77160354888304" lon="9.288088784749153"><ele>268.59999999999997</ele><time>2026-03-28T18:16:33Z</time></trkpt><trkpt lat="45.77151022864641" lon="9.288082451024588"><ele>269.0</ele><time>2026-03-28T18:16:34Z</time></trkpt><trkpt lat="45.77141382355197" lon="9.288075973612514"><ele>269.0</ele><time>2026-03-28T18:16:35Z</time></trkpt><trkpt lat="45.77131000415946" lon="9.288061961513355"><ele>269.0</ele><time>2026-03-28T18:16:36Z</time></trkpt><trkpt lat="45.77118385713153" lon="9.288050650994842"><ele>269.0</ele><time>2026-03-28T18:16:37Z</time></trkpt><trkpt lat="45.77103440263122" lon="9.288040152744015"><ele>269.0</ele><time>2026-03-28T18:16:38Z</time></trkpt><trkpt lat="45.77086745354678" lon="9.288030738788835"><ele>269.0</ele><time>2026-03-28T18:16:39Z</time></trkpt><trkpt lat="45.770684929017044" lon="9.288023593628688"><ele>269.0</ele><time>2026-03-28T18:16:40Z</time></trkpt><trkpt lat="45.7704778905201" lon="9.288007669040878"><ele>269.0</ele><time>2026-03-28T18:16:41Z</time></trkpt><trkpt lat="45.77025395866404" lon="9.287999845094156"><ele>270.0</ele><time>2026-03-28T18:16:42Z</time></trkpt><trkpt lat="45.77002193919605" lon="9.288005457000336"><ele>271.0</ele><time>2026-03-28T18:16:43Z</time></trkpt><trkpt lat="45.76980135559307" lon="9.288000841660892"><ele>271.0</ele><time>2026-03-28T18:16:44Z</time></trkpt><trkpt lat="45.76958880496751" lon="9.28798880791668"><ele>271.0</ele><time>2026-03-28T18:16:45Z</time></trkpt><trkpt lat="45.76940694594847" lon="9.287982987903776"><ele>271.0</ele><time>2026-03-28T18:16:46Z</time></trkpt><trkpt lat="45.76923655361961" lon="9.287976129287973"><ele>272.0</ele><time>2026-03-28T18:16:47Z</time></trkpt><trkpt lat="45.76906910064337" lon="9.287972195164489"><ele>273.0</ele><time>2026-03-28T18:16:48Z</time></trkpt><trkpt lat="45.768918684590524" lon="9.287964088720786"><ele>274.0</ele><time>2026-03-28T18:16:49Z</time></trkpt><trkpt lat="45.7687613730694" lon="9.28796316342976"><ele>274.0</ele><time>2026-03-28T18:16:50Z</time></trkpt><trkpt lat="45.76860056308702" lon="9.287971398430138"><ele>274.0</ele><time>2026-03-28T18:16:51Z</time></trkpt><trkpt lat="45.76843187515675" lon="9.28794884732553"><ele>274.0</ele><time>2026-03-28T18:16:52Z</time></trkpt><trkpt lat="45.76826095332983" lon="9.287930555328778"><ele>275.3333333333333</ele><time>2026-03-28T18:16:53Z</time></trkpt><trkpt lat="45.768078345827604" lon="9.287910373679408"><ele>276.6666666666667</ele><time>2026-03-28T18:16:54Z</time></trkpt><trkpt lat="45.76789206945211" lon="9.28789053560346"><ele>278.0</ele><time>2026-03-28T18:16:55Z</time></trkpt><trkpt lat="45.76769749912624" lon="9.287879784118124"><ele>279.0</ele><time>2026-03-28T18:16:56Z</time></trkpt><trkpt lat="45.7674999845077" lon="9.287869940984146"><ele>280.0</ele><time>2026-03-28T18:16:56.999Z</time></trkpt><trkpt lat="45.76729716997616" lon="9.287859811625957"><ele>281.0</ele><time>2026-03-28T18:16:57.999Z</time></trkpt><trkpt lat="45.7670925867388" lon="9.28784173064317"><ele>281.0</ele><time>2026-03-28T18:16:58.999Z</time></trkpt><trkpt lat="45.76688242070487" lon="9.287826662866808"><ele>281.0</ele><time>2026-03-28T18:16:59.999Z</time></trkpt><trkpt lat="45.76665282902663" lon="9.28781301433986"><ele>281.0</ele><time>2026-03-28T18:17:00.999Z</time></trkpt><trkpt lat="45.766413682356315" lon="9.287803365755112"><ele>285.5</ele><time>2026-03-28T18:17:01.999Z</time></trkpt><trkpt lat="45.76616852556844" lon="9.28779268529395"><ele>290.0</ele><time>2026-03-28T18:17:02.999Z</time></trkpt><trkpt lat="45.76592871698232" lon="9.287785026034332"><ele>290.6666666666667</ele><time>2026-03-28T18:17:03.999Z</time></trkpt><trkpt lat="45.76569947474519" lon="9.287768208337859"><ele>291.3333333333333</ele><time>2026-03-28T18:17:04.999Z</time></trkpt><trkpt lat="45.765491530125054" lon="9.287761501239812"><ele>292.0</ele><time>2026-03-28T18:17:05.999Z</time></trkpt><trkpt lat="45.76528306453524" lon="9.287741185673843"><ele>292.0</ele><time>2026-03-28T18:17:06.999Z</time></trkpt><trkpt lat="45.76507846647502" lon="9.28770200229772"><ele>292.0</ele><time>2026-03-28T18:17:07.999Z</time></trkpt><trkpt lat="45.76487773822073" lon="9.287650437526198"><ele>292.0</ele><time>2026-03-28T18:17:08.999Z</time></trkpt><trkpt lat="45.76466776455862" lon="9.287589575259107"><ele>292.0</ele><time>2026-03-28T18:17:09.999Z</time></trkpt><trkpt lat="45.76444911211112" lon="9.287509699130615"><ele>292.0</ele><time>2026-03-28T18:17:10.999Z</time></trkpt><trkpt lat="45.76423209741257" lon="9.28740367178636"><ele>293.0</ele><time>2026-03-28T18:17:11.999Z</time></trkpt><trkpt lat="45.76401542816838" lon="9.287308615871076"><ele>294.0</ele><time>2026-03-28T18:17:12.999Z</time></trkpt><trkpt lat="45.763810103427325" lon="9.287199125431677"><ele>295.0</ele><time>2026-03-28T18:17:13.999Z</time></trkpt><trkpt lat="45.76361557855429" lon="9.287049528678725"><ele>295.0</ele><time>2026-03-28T18:17:14.999Z</time></trkpt><trkpt lat="45.763418050007665" lon="9.286881527605667"><ele>295.0</ele><time>2026-03-28T18:17:15.999Z</time></trkpt><trkpt lat="45.76322149142793" lon="9.286700971314096"><ele>295.0</ele><time>2026-03-28T18:17:16.999Z</time></trkpt><trkpt lat="45.76303761169075" lon="9.286508326413792"><ele>295.0</ele><time>2026-03-28T18:17:17.999Z</time></trkpt><trkpt lat="45.762863137676185" lon="9.286303889103575"><ele>296.5</ele><time>2026-03-28T18:17:18.999Z</time></trkpt><trkpt lat="45.76269182429527" lon="9.286084227416346"><ele>298.0</ele><time>2026-03-28T18:17:19.999Z</time></trkpt><trkpt lat="45.76253486704429" lon="9.28585643084895"><ele>298.0</ele><time>2026-03-28T18:17:20.999Z</time></trkpt><trkpt lat="45.76237811698126" lon="9.2856184435702"><ele>298.0</ele><time>2026-03-28T18:17:21.999Z</time></trkpt><trkpt lat="45.76223601545021" lon="9.285375912056667"><ele>298.0</ele><time>2026-03-28T18:17:22.999Z</time></trkpt><trkpt lat="45.76210136878574" lon="9.285128707169932"><ele>296.66666666666663</ele><time>2026-03-28T18:17:23.999Z</time></trkpt><trkpt lat="45.76197965184141" lon="9.284878265361323"><ele>295.3333333333333</ele><time>2026-03-28T18:17:24.999Z</time></trkpt><trkpt lat="45.76186031781521" lon="9.284607897137723"><ele>294.0</ele><time>2026-03-28T18:17:25.999Z</time></trkpt><trkpt lat="45.761741903396185" lon="9.284320918568016"><ele>296.0</ele><time>2026-03-28T18:17:26.999Z</time></trkpt><trkpt lat="45.76160822753867" lon="9.284003988145999"><ele>298.0</ele><time>2026-03-28T18:17:27.999Z</time></trkpt><trkpt lat="45.76146652967539" lon="9.283663514136245"><ele>298.0</ele><time>2026-03-28T18:17:28.999Z</time></trkpt><trkpt lat="45.76133879741266" lon="9.283366116211067"><ele>298.0</ele><time>2026-03-28T18:17:29.999Z</time></trkpt><trkpt lat="45.761214353328654" lon="9.283076672725342"><ele>299.5</ele><time>2026-03-28T18:17:30.999Z</time></trkpt><trkpt lat="45.76109587335328" lon="9.282784137756773"><ele>301.0</ele><time>2026-03-28T18:17:31.999Z</time></trkpt><trkpt lat="45.76097473167869" lon="9.28248453576898"><ele>301.5</ele><time>2026-03-28T18:17:32.999Z</time></trkpt><trkpt lat="45.760842410520986" lon="9.282167881456212"><ele>302.0</ele><time>2026-03-28T18:17:33.999Z</time></trkpt><trkpt lat="45.76071042553019" lon="9.28184570293578"><ele>302.0</ele><time>2026-03-28T18:17:34.999Z</time></trkpt><trkpt lat="45.76056792113241" lon="9.281513331717502"><ele>302.0</ele><time>2026-03-28T18:17:35.999Z</time></trkpt><trkpt lat="45.76042019258906" lon="9.281158221810136"><ele>299.0</ele><time>2026-03-28T18:17:36.999Z</time></trkpt><trkpt lat="45.76028223262434" lon="9.280824404587973"><ele>296.0</ele><time>2026-03-28T18:17:37.999Z</time></trkpt><trkpt lat="45.76015240126185" lon="9.28050342937453"><ele>295.5</ele><time>2026-03-28T18:17:38.999Z</time></trkpt><trkpt lat="45.76001583618542" lon="9.2801751997384"><ele>295.0</ele><time>2026-03-28T18:17:39.999Z</time></trkpt><trkpt lat="45.759875120883166" lon="9.279836778670786"><ele>294.0</ele><time>2026-03-28T18:17:40.999Z</time></trkpt><trkpt lat="45.75973966229801" lon="9.279509474413882"><ele>293.0</ele><time>2026-03-28T18:17:41.999Z</time></trkpt><trkpt lat="45.75960351876436" lon="9.279193560479534"><ele>292.5</ele><time>2026-03-28T18:17:42.999Z</time></trkpt><trkpt lat="45.759477087944994" lon="9.278895872694696"><ele>292.0</ele><time>2026-03-28T18:17:43.999Z</time></trkpt><trkpt lat="45.75935121825727" lon="9.278604041510137"><ele>292.0</ele><time>2026-03-28T18:17:44.999Z</time></trkpt><trkpt lat="45.75922254111739" lon="9.278303636172714"><ele>292.0</ele><time>2026-03-28T18:17:45.999Z</time></trkpt><trkpt lat="45.75908974921547" lon="9.277981523595024"><ele>291.0</ele><time>2026-03-28T18:17:46.999Z</time></trkpt><trkpt lat="45.75895291567548" lon="9.277652497864553"><ele>290.0</ele><time>2026-03-28T18:17:47.999Z</time></trkpt><trkpt lat="45.75881351632465" lon="9.27732733848259"><ele>290.5</ele><time>2026-03-28T18:17:48.999Z</time></trkpt><trkpt lat="45.758667388650395" lon="9.277011688734982"><ele>291.0</ele><time>2026-03-28T18:17:49.999Z</time></trkpt><trkpt lat="45.758511929941" lon="9.2767095414421"><ele>288.5</ele><time>2026-03-28T18:17:50.999Z</time></trkpt><trkpt lat="45.75835206816525" lon="9.276431164983705"><ele>286.0</ele><time>2026-03-28T18:17:51.999Z</time></trkpt><trkpt lat="45.7581841895516" lon="9.276163564057205"><ele>286.0</ele><time>2026-03-28T18:17:52.999Z</time></trkpt><trkpt lat="45.7580110795682" lon="9.275900170842926"><ele>286.0</ele><time>2026-03-28T18:17:53.999Z</time></trkpt><trkpt lat="45.757837469441654" lon="9.275643999354951"><ele>284.0</ele><time>2026-03-28T18:17:54.999Z</time></trkpt><trkpt lat="45.757661657354205" lon="9.275377756236015"><ele>282.0</ele><time>2026-03-28T18:17:55.999Z</time></trkpt><trkpt lat="45.75748530543521" lon="9.275097959622242"><ele>282.0</ele><time>2026-03-28T18:17:56.999Z</time></trkpt><trkpt lat="45.75732888334297" lon="9.274821631010386"><ele>282.0</ele><time>2026-03-28T18:17:58Z</time></trkpt><trkpt lat="45.75717122470051" lon="9.274533957523966"><ele>281.0</ele><time>2026-03-28T18:17:59Z</time></trkpt><trkpt lat="45.757091246458145" lon="9.274121346772555"><ele>280.0</ele><time>2026-03-28T18:18:00Z</time></trkpt><trkpt lat="45.75689617555873" lon="9.273822708626653"><ele>279.5</ele><time>2026-03-28T18:18:01Z</time></trkpt><trkpt lat="45.75667623529016" lon="9.273489670153305"><ele>279.0</ele><time>2026-03-28T18:18:02Z</time></trkpt><trkpt lat="45.75642917996469" lon="9.273119705267074"><ele>279.5</ele><time>2026-03-28T18:18:03Z</time></trkpt><trkpt lat="45.756169859757044" lon="9.272743599254275"><ele>280.0</ele><time>2026-03-28T18:18:04Z</time></trkpt><trkpt lat="45.75585397409773" lon="9.2725281474637"><ele>279.0</ele><time>2026-03-28T18:18:05Z</time></trkpt><trkpt lat="45.75564978062969" lon="9.272219813788345"><ele>278.0</ele><time>2026-03-28T18:18:06Z</time></trkpt><trkpt lat="45.75545230486678" lon="9.271934987001073"><ele>278.0</ele><time>2026-03-28T18:18:07Z</time></trkpt><trkpt lat="45.755249101218034" lon="9.271657148522765"><ele>278.0</ele><time>2026-03-28T18:18:08Z</time></trkpt><trkpt lat="45.75505100929818" lon="9.271375479941652"><ele>276.5</ele><time>2026-03-28T18:18:09Z</time></trkpt><trkpt lat="45.75484197594522" lon="9.271080568592843"><ele>275.0</ele><time>2026-03-28T18:18:10Z</time></trkpt><trkpt lat="45.754628223051164" lon="9.270757271135686"><ele>275.5</ele><time>2026-03-28T18:18:11Z</time></trkpt><trkpt lat="45.75440353779347" lon="9.270439203489282"><ele>276.0</ele><time>2026-03-28T18:18:12Z</time></trkpt><trkpt lat="45.75418672906405" lon="9.270126619888345"><ele>276.0</ele><time>2026-03-28T18:18:13Z</time></trkpt><trkpt lat="45.753975266769785" lon="9.269816736074162"><ele>276.0</ele><time>2026-03-28T18:18:14Z</time></trkpt><trkpt lat="45.753778872075834" lon="9.269523810395754"><ele>276.5</ele><time>2026-03-28T18:18:15Z</time></trkpt><trkpt lat="45.75358785056612" lon="9.269234133440083"><ele>277.0</ele><time>2026-03-28T18:18:16Z</time></trkpt><trkpt lat="45.7533906885607" lon="9.268946851974805"><ele>276.5</ele><time>2026-03-28T18:18:17Z</time></trkpt><trkpt lat="45.75319053489616" lon="9.268661860198293"><ele>276.0</ele><time>2026-03-28T18:18:18Z</time></trkpt><trkpt lat="45.75299789667382" lon="9.268358027313694"><ele>276.5</ele><time>2026-03-28T18:18:19Z</time></trkpt><trkpt lat="45.75280282291653" lon="9.268043959157506"><ele>277.0</ele><time>2026-03-28T18:18:20Z</time></trkpt><trkpt lat="45.75260855796392" lon="9.267742416768622"><ele>276.0</ele><time>2026-03-28T18:18:21Z</time></trkpt><trkpt lat="45.75240625131865" lon="9.267447524143666"><ele>275.0</ele><time>2026-03-28T18:18:22Z</time></trkpt><trkpt lat="45.752198443218454" lon="9.26714973556928"><ele>275.0</ele><time>2026-03-28T18:18:23Z</time></trkpt><trkpt lat="45.75199240782535" lon="9.266853773191288"><ele>275.0</ele><time>2026-03-28T18:18:24Z</time></trkpt><trkpt lat="45.75177596363172" lon="9.266558733910214"><ele>280.0</ele><time>2026-03-28T18:18:25Z</time></trkpt><trkpt lat="45.75154217390259" lon="9.266273999663127"><ele>285.0</ele><time>2026-03-28T18:18:26Z</time></trkpt><trkpt lat="45.751294830815375" lon="9.265989656339881"><ele>285.0</ele><time>2026-03-28T18:18:27Z</time></trkpt><trkpt lat="45.75104221513199" lon="9.265698777637361"><ele>285.0</ele><time>2026-03-28T18:18:28Z</time></trkpt><trkpt lat="45.750787774134025" lon="9.265408347656814"><ele>283.0</ele><time>2026-03-28T18:18:29Z</time></trkpt><trkpt lat="45.75053957579955" lon="9.265120273329186"><ele>281.0</ele><time>2026-03-28T18:18:30Z</time></trkpt><trkpt lat="45.750298549609" lon="9.26484271059886"><ele>272.5</ele><time>2026-03-28T18:18:31Z</time></trkpt><trkpt lat="45.75006255977855" lon="9.264573589880165"><ele>264.0</ele><time>2026-03-28T18:18:32Z</time></trkpt><trkpt lat="45.749833955881755" lon="9.26431421773191"><ele>264.0</ele><time>2026-03-28T18:18:33Z</time></trkpt><trkpt lat="45.74960197128304" lon="9.26406454148492"><ele>264.0</ele><time>2026-03-28T18:18:34Z</time></trkpt><trkpt lat="45.74937948704492" lon="9.263816441734667"><ele>262.5</ele><time>2026-03-28T18:18:35Z</time></trkpt><trkpt lat="45.74916157290178" lon="9.26357741056998"><ele>261.0</ele><time>2026-03-28T18:18:36Z</time></trkpt><trkpt lat="45.748951615771354" lon="9.263350317395929"><ele>261.0</ele><time>2026-03-28T18:18:37Z</time></trkpt><trkpt lat="45.74875755987895" lon="9.263136209589293"><ele>261.0</ele><time>2026-03-28T18:18:38Z</time></trkpt><trkpt lat="45.74857527645932" lon="9.262925802884983"><ele>261.0</ele><time>2026-03-28T18:18:39Z</time></trkpt><trkpt lat="45.74839587207396" lon="9.262726673929206"><ele>261.0</ele><time>2026-03-28T18:18:40Z</time></trkpt><trkpt lat="45.74822213988716" lon="9.26253293185208"><ele>261.0</ele><time>2026-03-28T18:18:41Z</time></trkpt><trkpt lat="45.74805803185376" lon="9.262343685151873"><ele>261.3333333333333</ele><time>2026-03-28T18:18:42Z</time></trkpt><trkpt lat="45.747895350626244" lon="9.262156788535979"><ele>261.66666666666663</ele><time>2026-03-28T18:18:43Z</time></trkpt><trkpt lat="45.74773466302182" lon="9.261974783474875"><ele>262.0</ele><time>2026-03-28T18:18:44Z</time></trkpt><trkpt lat="45.74757124521078" lon="9.261798723698472"><ele>262.0</ele><time>2026-03-28T18:18:45Z</time></trkpt><trkpt lat="45.74741316468094" lon="9.261626844638847"><ele>262.0</ele><time>2026-03-28T18:18:46Z</time></trkpt><trkpt lat="45.747253411047105" lon="9.26144894321376"><ele>262.0</ele><time>2026-03-28T18:18:47Z</time></trkpt><trkpt lat="45.74709677679447" lon="9.261266230670524"><ele>260.66666666666663</ele><time>2026-03-28T18:18:48Z</time></trkpt><trkpt lat="45.7469432584181" lon="9.261085171350107"><ele>259.3333333333333</ele><time>2026-03-28T18:18:49Z</time></trkpt><trkpt lat="45.746790869874346" lon="9.260914270271643"><ele>258.0</ele><time>2026-03-28T18:18:50Z</time></trkpt><trkpt lat="45.74664851689885" lon="9.260761732635181"><ele>257.3333333333333</ele><time>2026-03-28T18:18:51Z</time></trkpt><trkpt lat="45.74651534191863" lon="9.260612278954545"><ele>256.66666666666663</ele><time>2026-03-28T18:18:52Z</time></trkpt><trkpt lat="45.74637407291514" lon="9.260452576201011"><ele>256.0</ele><time>2026-03-28T18:18:53Z</time></trkpt><trkpt lat="45.74620757384651" lon="9.260264239107018"><ele>256.0</ele><time>2026-03-28T18:18:54Z</time></trkpt><trkpt lat="45.746024100806494" lon="9.26006463782242"><ele>256.0</ele><time>2026-03-28T18:18:55Z</time></trkpt><trkpt lat="45.74582914957308" lon="9.259852836157592"><ele>256.0</ele><time>2026-03-28T18:18:56Z</time></trkpt><trkpt lat="45.74563410763625" lon="9.259634677249458"><ele>256.0</ele><time>2026-03-28T18:18:57Z</time></trkpt><trkpt lat="45.74544508038881" lon="9.259422757568647"><ele>256.0</ele><time>2026-03-28T18:18:58Z</time></trkpt><trkpt lat="45.7452594282959" lon="9.259218769488875"><ele>256.0</ele><time>2026-03-28T18:18:59Z</time></trkpt><trkpt lat="45.745081283610446" lon="9.25902479947209"><ele>256.66666666666663</ele><time>2026-03-28T18:19:00Z</time></trkpt><trkpt lat="45.74490991394408" lon="9.258843113707327"><ele>257.3333333333333</ele><time>2026-03-28T18:19:01Z</time></trkpt><trkpt lat="45.74474533239581" lon="9.258667240567052"><ele>258.0</ele><time>2026-03-28T18:19:02Z</time></trkpt><trkpt lat="45.74458708817329" lon="9.258485662697197"><ele>258.0</ele><time>2026-03-28T18:19:03Z</time></trkpt><trkpt lat="45.74443097298629" lon="9.258321582834707"><ele>258.0</ele><time>2026-03-28T18:19:04Z</time></trkpt><trkpt lat="45.744282604714606" lon="9.258156937084793"><ele>258.0</ele><time>2026-03-28T18:19:05Z</time></trkpt><trkpt lat="45.74413660617603" lon="9.257997590107117"><ele>257.6666666666667</ele><time>2026-03-28T18:19:06Z</time></trkpt><trkpt lat="45.7439988881789" lon="9.257841257161791"><ele>257.33333333333337</ele><time>2026-03-28T18:19:06.999Z</time></trkpt><trkpt lat="45.74385770713571" lon="9.257690162519566"><ele>257.0</ele><time>2026-03-28T18:19:07.999Z</time></trkpt><trkpt lat="45.743718546542866" lon="9.257537029838357"><ele>257.0</ele><time>2026-03-28T18:19:08.999Z</time></trkpt><trkpt lat="45.743568748420046" lon="9.257374591880719"><ele>257.0</ele><time>2026-03-28T18:19:09.999Z</time></trkpt><trkpt lat="45.74340903589367" lon="9.257190341010451"><ele>257.0</ele><time>2026-03-28T18:19:10.999Z</time></trkpt><trkpt lat="45.74324907835519" lon="9.257003667166398"><ele>256.6666666666667</ele><time>2026-03-28T18:19:11.999Z</time></trkpt><trkpt lat="45.74308485208429" lon="9.256824177089603"><ele>256.3333333333333</ele><time>2026-03-28T18:19:12.999Z</time></trkpt><trkpt lat="45.74291484160151" lon="9.25664517497916"><ele>256.0</ele><time>2026-03-28T18:19:13.999Z</time></trkpt><trkpt lat="45.74274903034191" lon="9.256463749276268"><ele>255.33333333333331</ele><time>2026-03-28T18:19:14.999Z</time></trkpt><trkpt lat="45.74258506869006" lon="9.256278196794783"><ele>254.66666666666669</ele><time>2026-03-28T18:19:15.999Z</time></trkpt><trkpt lat="45.742417205321466" lon="9.25608723453188"><ele>254.0</ele><time>2026-03-28T18:19:16.999Z</time></trkpt><trkpt lat="45.74224391275467" lon="9.255885409709832"><ele>254.0</ele><time>2026-03-28T18:19:17.999Z</time></trkpt><trkpt lat="45.74207292320703" lon="9.255676499267901"><ele>254.0</ele><time>2026-03-28T18:19:18.999Z</time></trkpt><trkpt lat="45.74189390945972" lon="9.255474408900454"><ele>254.5</ele><time>2026-03-28T18:19:19.999Z</time></trkpt><trkpt lat="45.74171006174837" lon="9.255284124557168"><ele>255.0</ele><time>2026-03-28T18:19:20.999Z</time></trkpt><trkpt lat="45.74153127062133" lon="9.255093629922237"><ele>255.0</ele><time>2026-03-28T18:19:21.999Z</time></trkpt><trkpt lat="45.7413559169706" lon="9.254902072146075"><ele>255.0</ele><time>2026-03-28T18:19:22.999Z</time></trkpt><trkpt lat="45.74118240864564" lon="9.254709477115213"><ele>255.0</ele><time>2026-03-28T18:19:23.999Z</time></trkpt><trkpt lat="45.741012631045855" lon="9.254517290620916"><ele>255.66666666666669</ele><time>2026-03-28T18:19:24.999Z</time></trkpt><trkpt lat="45.740838866077674" lon="9.25432703100705"><ele>256.33333333333337</ele><time>2026-03-28T18:19:25.999Z</time></trkpt><trkpt lat="45.74066796049115" lon="9.254135074846122"><ele>257.0</ele><time>2026-03-28T18:19:26.999Z</time></trkpt><trkpt lat="45.74049660520489" lon="9.253938478151504"><ele>257.0</ele><time>2026-03-28T18:19:27.999Z</time></trkpt><trkpt lat="45.740322262064055" lon="9.253735263189677"><ele>257.0</ele><time>2026-03-28T18:19:28.999Z</time></trkpt><trkpt lat="45.740141942472405" lon="9.253537431614374"><ele>257.0</ele><time>2026-03-28T18:19:29.999Z</time></trkpt><trkpt lat="45.73996108507843" lon="9.253338994313104"><ele>257.0</ele><time>2026-03-28T18:19:30.999Z</time></trkpt><trkpt lat="45.739779940046375" lon="9.25314266488632"><ele>256.6666666666667</ele><time>2026-03-28T18:19:31.999Z</time></trkpt><trkpt lat="45.73960248751001" lon="9.25294516655535"><ele>256.3333333333333</ele><time>2026-03-28T18:19:32.999Z</time></trkpt><trkpt lat="45.7394304779083" lon="9.252747984021253"><ele>256.0</ele><time>2026-03-28T18:19:33.999Z</time></trkpt><trkpt lat="45.739259605511236" lon="9.252556334945947"><ele>254.66666666666666</ele><time>2026-03-28T18:19:34.999Z</time></trkpt><trkpt lat="45.73909042564207" lon="9.252365875781704"><ele>253.33333333333331</ele><time>2026-03-28T18:19:35.999Z</time></trkpt><trkpt lat="45.73891785581152" lon="9.252170080293048"><ele>252.0</ele><time>2026-03-28T18:19:36.999Z</time></trkpt><trkpt lat="45.73873433142685" lon="9.25196508204584"><ele>250.5</ele><time>2026-03-28T18:19:37.999Z</time></trkpt><trkpt lat="45.738537142554534" lon="9.251733917582674"><ele>249.0</ele><time>2026-03-28T18:19:38.999Z</time></trkpt><trkpt lat="45.73833876404268" lon="9.25151404828029"><ele>248.0</ele><time>2026-03-28T18:19:39.999Z</time></trkpt><trkpt lat="45.738143008040865" lon="9.25130850280705"><ele>247.0</ele><time>2026-03-28T18:19:40.999Z</time></trkpt><trkpt lat="45.73794980707213" lon="9.251102485292092"><ele>247.0</ele><time>2026-03-28T18:19:41.999Z</time></trkpt><trkpt lat="45.73776256751063" lon="9.250894686724319"><ele>247.0</ele><time>2026-03-28T18:19:42.999Z</time></trkpt><trkpt lat="45.73758316911609" lon="9.250697658515342"><ele>245.66666666666666</ele><time>2026-03-28T18:19:43.999Z</time></trkpt><trkpt lat="45.737410114957875" lon="9.25051590901793"><ele>244.33333333333331</ele><time>2026-03-28T18:19:44.999Z</time></trkpt><trkpt lat="45.73724187294653" lon="9.250343204497748"><ele>243.0</ele><time>2026-03-28T18:19:45.999Z</time></trkpt><trkpt lat="45.73707306768226" lon="9.250193158484164"><ele>243.0</ele><time>2026-03-28T18:19:46.999Z</time></trkpt><trkpt lat="45.736896506301626" lon="9.25005803550982"><ele>243.0</ele><time>2026-03-28T18:19:47.999Z</time></trkpt><trkpt lat="45.73671403594991" lon="9.249933348369606"><ele>243.0</ele><time>2026-03-28T18:19:48.999Z</time></trkpt><trkpt lat="45.73653244549144" lon="9.249821225240375"><ele>242.66666666666669</ele><time>2026-03-28T18:19:49.999Z</time></trkpt><trkpt lat="45.736348057376695" lon="9.249727120739447"><ele>242.33333333333334</ele><time>2026-03-28T18:19:50.999Z</time></trkpt><trkpt lat="45.736161216880134" lon="9.249642451493795"><ele>242.0</ele><time>2026-03-28T18:19:51.999Z</time></trkpt><trkpt lat="45.73597007516014" lon="9.249573689959899"><ele>241.66666666666669</ele><time>2026-03-28T18:19:52.999Z</time></trkpt><trkpt lat="45.735770218008874" lon="9.249509407846254"><ele>241.33333333333331</ele><time>2026-03-28T18:19:53.999Z</time></trkpt><trkpt lat="45.73556881689688" lon="9.249466850701314"><ele>241.0</ele><time>2026-03-28T18:19:54.999Z</time></trkpt><trkpt lat="45.7353667687997" lon="9.249436078067879"><ele>241.33333333333331</ele><time>2026-03-28T18:19:55.999Z</time></trkpt><trkpt lat="45.73516040121927" lon="9.249409798787832"><ele>241.66666666666669</ele><time>2026-03-28T18:19:56.999Z</time></trkpt><trkpt lat="45.73495854285592" lon="9.249389623546952"><ele>242.0</ele><time>2026-03-28T18:19:57.999Z</time></trkpt><trkpt lat="45.734758374493126" lon="9.249368361211795"><ele>242.0</ele><time>2026-03-28T18:19:58.999Z</time></trkpt><trkpt lat="45.73454958609404" lon="9.249342335526661"><ele>242.0</ele><time>2026-03-28T18:19:59.999Z</time></trkpt><trkpt lat="45.73433531525521" lon="9.249312779997993"><ele>242.0</ele><time>2026-03-28T18:20:00.999Z</time></trkpt><trkpt lat="45.7341173228409" lon="9.249280846314463"><ele>242.33333333333334</ele><time>2026-03-28T18:20:01.999Z</time></trkpt><trkpt lat="45.73389783311967" lon="9.249243213624256"><ele>242.66666666666669</ele><time>2026-03-28T18:20:02.999Z</time></trkpt><trkpt lat="45.73367680774056" lon="9.249209583926987"><ele>243.0</ele><time>2026-03-28T18:20:04Z</time></trkpt><trkpt lat="45.73345734077316" lon="9.24917536633123"><ele>243.0</ele><time>2026-03-28T18:20:05Z</time></trkpt><trkpt lat="45.733243218573406" lon="9.249147343106998"><ele>243.0</ele><time>2026-03-28T18:20:06Z</time></trkpt><trkpt lat="45.733030760097996" lon="9.24912209896442"><ele>243.0</ele><time>2026-03-28T18:20:07Z</time></trkpt><trkpt lat="45.732820749403956" lon="9.249092531081923"><ele>243.0</ele><time>2026-03-28T18:20:08Z</time></trkpt><trkpt lat="45.73261440984776" lon="9.249063899996314"><ele>243.0</ele><time>2026-03-28T18:20:09Z</time></trkpt><trkpt lat="45.73242457323737" lon="9.249036913622811"><ele>243.0</ele><time>2026-03-28T18:20:10Z</time></trkpt><trkpt lat="45.732241561152314" lon="9.249008532549203"><ele>243.0</ele><time>2026-03-28T18:20:11Z</time></trkpt><trkpt lat="45.73205401364474" lon="9.248937268684639"><ele>243.0</ele><time>2026-03-28T18:20:12Z</time></trkpt><trkpt lat="45.7318588449614" lon="9.248832281704411"><ele>243.0</ele><time>2026-03-28T18:20:13Z</time></trkpt><trkpt lat="45.7316570863427" lon="9.248804138172563"><ele>243.0</ele><time>2026-03-28T18:20:14Z</time></trkpt><trkpt lat="45.731428557669304" lon="9.24887843435263"><ele>243.0</ele><time>2026-03-28T18:20:15Z</time></trkpt><trkpt lat="45.731197568139756" lon="9.24883058835209"><ele>245.0</ele><time>2026-03-28T18:20:16Z</time></trkpt><trkpt lat="45.73095416089491" lon="9.248788956873478"><ele>247.0</ele><time>2026-03-28T18:20:17Z</time></trkpt><trkpt lat="45.730703233685574" lon="9.2487516037211"><ele>247.0</ele><time>2026-03-28T18:20:18Z</time></trkpt><trkpt lat="45.730444217173094" lon="9.24871437854618"><ele>247.0</ele><time>2026-03-28T18:20:19Z</time></trkpt><trkpt lat="45.73018580077391" lon="9.248675508442885"><ele>250.0</ele><time>2026-03-28T18:20:20Z</time></trkpt><trkpt lat="45.72993560019638" lon="9.248631941396482"><ele>253.0</ele><time>2026-03-28T18:20:21Z</time></trkpt><trkpt lat="45.72970883517702" lon="9.248589003338337"><ele>253.0</ele><time>2026-03-28T18:20:22Z</time></trkpt><trkpt lat="45.729499680176794" lon="9.248523987621615"><ele>253.0</ele><time>2026-03-28T18:20:23Z</time></trkpt><trkpt lat="45.72929680496593" lon="9.248438179504898"><ele>253.0</ele><time>2026-03-28T18:20:24Z</time></trkpt><trkpt lat="45.72909892133088" lon="9.248338055479733"><ele>253.0</ele><time>2026-03-28T18:20:25Z</time></trkpt><trkpt lat="45.72890573037308" lon="9.24821910544963"><ele>253.0</ele><time>2026-03-28T18:20:26Z</time></trkpt><trkpt lat="45.72871575147102" lon="9.248084968228802"><ele>253.0</ele><time>2026-03-28T18:20:27Z</time></trkpt><trkpt lat="45.72853314267164" lon="9.247931339404456"><ele>254.0</ele><time>2026-03-28T18:20:28Z</time></trkpt><trkpt lat="45.728358469783494" lon="9.247761363822464"><ele>255.0</ele><time>2026-03-28T18:20:29Z</time></trkpt><trkpt lat="45.72818944618862" lon="9.247584639962293"><ele>256.0</ele><time>2026-03-28T18:20:30Z</time></trkpt><trkpt lat="45.72802763683569" lon="9.247408811621678"><ele>256.0</ele><time>2026-03-28T18:20:31Z</time></trkpt><trkpt lat="45.72785856202353" lon="9.247232600394184"><ele>256.0</ele><time>2026-03-28T18:20:32Z</time></trkpt><trkpt lat="45.72768847726321" lon="9.247048794445535"><ele>256.0</ele><time>2026-03-28T18:20:33Z</time></trkpt><trkpt lat="45.72752572734836" lon="9.246878576134488"><ele>256.3333333333333</ele><time>2026-03-28T18:20:34Z</time></trkpt><trkpt lat="45.72736506369763" lon="9.246713736302631"><ele>256.6666666666667</ele><time>2026-03-28T18:20:35Z</time></trkpt><trkpt lat="45.727207074734075" lon="9.246554938626161"><ele>257.0</ele><time>2026-03-28T18:20:36Z</time></trkpt><trkpt lat="45.72704517852569" lon="9.246396019439814"><ele>259.33333333333337</ele><time>2026-03-28T18:20:37Z</time></trkpt><trkpt lat="45.72688432640104" lon="9.24624173727006"><ele>261.6666666666667</ele><time>2026-03-28T18:20:38Z</time></trkpt><trkpt lat="45.726716404625385" lon="9.246073820406876"><ele>264.0</ele><time>2026-03-28T18:20:39Z</time></trkpt><trkpt lat="45.72654964430482" lon="9.245900941090648"><ele>264.0</ele><time>2026-03-28T18:20:40Z</time></trkpt><trkpt lat="45.726381986784546" lon="9.245732334048508"><ele>264.0</ele><time>2026-03-28T18:20:41Z</time></trkpt><trkpt lat="45.72621297611838" lon="9.245565301891135"><ele>264.0</ele><time>2026-03-28T18:20:42Z</time></trkpt><trkpt lat="45.72603194536428" lon="9.245377455183219"><ele>267.0</ele><time>2026-03-28T18:20:43Z</time></trkpt><trkpt lat="45.725830003341436" lon="9.24516742166346"><ele>270.0</ele><time>2026-03-28T18:20:44Z</time></trkpt><trkpt lat="45.725606110699985" lon="9.244947920026828"><ele>270.5</ele><time>2026-03-28T18:20:45Z</time></trkpt><trkpt lat="45.72535992141949" lon="9.244720086150599"><ele>271.0</ele><time>2026-03-28T18:20:46Z</time></trkpt><trkpt lat="45.725118455765184" lon="9.244498054926117"><ele>271.0</ele><time>2026-03-28T18:20:47Z</time></trkpt><trkpt lat="45.72490642090609" lon="9.24429265526001"><ele>271.0</ele><time>2026-03-28T18:20:48Z</time></trkpt><trkpt lat="45.72471055904719" lon="9.244094798293121"><ele>269.0</ele><time>2026-03-28T18:20:49Z</time></trkpt><trkpt lat="45.724542743725735" lon="9.243926355530563"><ele>267.0</ele><time>2026-03-28T18:20:50Z</time></trkpt><trkpt lat="45.72437944067038" lon="9.243772805992352"><ele>265.0</ele><time>2026-03-28T18:20:51Z</time></trkpt><trkpt lat="45.72422339293713" lon="9.243612422473813"><ele>265.0</ele><time>2026-03-28T18:20:52Z</time></trkpt><trkpt lat="45.72406955870369" lon="9.24344056493219"><ele>265.0</ele><time>2026-03-28T18:20:53Z</time></trkpt><trkpt lat="45.723912764219264" lon="9.243261029245216"><ele>265.0</ele><time>2026-03-28T18:20:54Z</time></trkpt><trkpt lat="45.723756320056026" lon="9.24307264337061"><ele>263.66666666666663</ele><time>2026-03-28T18:20:55Z</time></trkpt><trkpt lat="45.723607533066215" lon="9.242871634352017"><ele>262.3333333333333</ele><time>2026-03-28T18:20:56Z</time></trkpt><trkpt lat="45.72345847007909" lon="9.242647287066449"><ele>261.0</ele><time>2026-03-28T18:20:57Z</time></trkpt><trkpt lat="45.72331268339648" lon="9.242405184214931"><ele>259.0</ele><time>2026-03-28T18:20:58Z</time></trkpt><trkpt lat="45.723168661160116" lon="9.242150955440783"><ele>257.0</ele><time>2026-03-28T18:20:58.999Z</time></trkpt><trkpt lat="45.72301259780683" lon="9.241872390135292"><ele>257.0</ele><time>2026-03-28T18:20:59.999Z</time></trkpt><trkpt lat="45.72284449926109" lon="9.241563803186104"><ele>257.0</ele><time>2026-03-28T18:21:00.999Z</time></trkpt><trkpt lat="45.72265938932383" lon="9.241217562898695"><ele>256.0</ele><time>2026-03-28T18:21:01.999Z</time></trkpt><trkpt lat="45.72247985495043" lon="9.240865070850754"><ele>255.0</ele><time>2026-03-28T18:21:02.999Z</time></trkpt><trkpt lat="45.722317471693" lon="9.240538861143525"><ele>249.5</ele><time>2026-03-28T18:21:03.999Z</time></trkpt><trkpt lat="45.72215133753438" lon="9.240220654058566"><ele>244.0</ele><time>2026-03-28T18:21:04.999Z</time></trkpt><trkpt lat="45.721982857481756" lon="9.2399016662651"><ele>243.0</ele><time>2026-03-28T18:21:05.999Z</time></trkpt><trkpt lat="45.721823325180985" lon="9.239590312188787"><ele>242.0</ele><time>2026-03-28T18:21:06.999Z</time></trkpt><trkpt lat="45.72166640855015" lon="9.239293852162085"><ele>242.0</ele><time>2026-03-28T18:21:07.999Z</time></trkpt><trkpt lat="45.72151969127999" lon="9.239006516933548"><ele>242.0</ele><time>2026-03-28T18:21:08.999Z</time></trkpt><trkpt lat="45.72137517596379" lon="9.238731553486241"><ele>241.5</ele><time>2026-03-28T18:21:09.999Z</time></trkpt><trkpt lat="45.72123589690272" lon="9.2384717644782"><ele>241.0</ele><time>2026-03-28T18:21:10.999Z</time></trkpt><trkpt lat="45.72109933599029" lon="9.238213192816797"><ele>245.0</ele><time>2026-03-28T18:21:11.999Z</time></trkpt><trkpt lat="45.720947017292985" lon="9.237919718731552"><ele>249.0</ele><time>2026-03-28T18:21:12.999Z</time></trkpt><trkpt lat="45.72078416472892" lon="9.23759991962279"><ele>250.0</ele><time>2026-03-28T18:21:13.999Z</time></trkpt><trkpt lat="45.72063044188129" lon="9.237298237476503"><ele>251.0</ele><time>2026-03-28T18:21:14.999Z</time></trkpt><trkpt lat="45.720471837516165" lon="9.23699828174152"><ele>251.0</ele><time>2026-03-28T18:21:15.999Z</time></trkpt><trkpt lat="45.72031842641354" lon="9.236720384807748"><ele>251.0</ele><time>2026-03-28T18:21:16.999Z</time></trkpt><trkpt lat="45.72017021495989" lon="9.23646556740266"><ele>252.33333333333334</ele><time>2026-03-28T18:21:17.999Z</time></trkpt><trkpt lat="45.720031078957575" lon="9.236221893751468"><ele>253.66666666666669</ele><time>2026-03-28T18:21:18.999Z</time></trkpt><trkpt lat="45.71989617356159" lon="9.235985643613455"><ele>255.0</ele><time>2026-03-28T18:21:19.999Z</time></trkpt><trkpt lat="45.71975323866376" lon="9.235748379129642"><ele>255.5</ele><time>2026-03-28T18:21:20.999Z</time></trkpt><trkpt lat="45.71962955899654" lon="9.23546707700092"><ele>256.0</ele><time>2026-03-28T18:21:21.999Z</time></trkpt><trkpt lat="45.719476602700766" lon="9.235172428083445"><ele>255.0</ele><time>2026-03-28T18:21:22.999Z</time></trkpt><trkpt lat="45.71930704633262" lon="9.234865602224723"><ele>254.0</ele><time>2026-03-28T18:21:23.999Z</time></trkpt><trkpt lat="45.719124777433585" lon="9.234542967240154"><ele>250.0</ele><time>2026-03-28T18:21:24.999Z</time></trkpt><trkpt lat="45.718951326831295" lon="9.234224134838556"><ele>246.0</ele><time>2026-03-28T18:21:25.999Z</time></trkpt><trkpt lat="45.71879220573673" lon="9.233923486978052"><ele>243.0</ele><time>2026-03-28T18:21:26.999Z</time></trkpt><trkpt lat="45.718641992435636" lon="9.233645235113013"><ele>240.0</ele><time>2026-03-28T18:21:27.999Z</time></trkpt><trkpt lat="45.71849266199837" lon="9.233375205854175"><ele>241.66666666666669</ele><time>2026-03-28T18:21:28.999Z</time></trkpt><trkpt lat="45.71835192083056" lon="9.233121021946504"><ele>243.33333333333334</ele><time>2026-03-28T18:21:29.999Z</time></trkpt><trkpt lat="45.71822006131183" lon="9.232875837923885"><ele>245.0</ele><time>2026-03-28T18:21:30.999Z</time></trkpt><trkpt lat="45.71809283207247" lon="9.23263647807935"><ele>245.0</ele><time>2026-03-28T18:21:31.999Z</time></trkpt><trkpt lat="45.71797011065018" lon="9.232415017769165"><ele>245.0</ele><time>2026-03-28T18:21:32.999Z</time></trkpt><trkpt lat="45.717851395261064" lon="9.232191079645089"><ele>245.0</ele><time>2026-03-28T18:21:33.999Z</time></trkpt><trkpt lat="45.71773264498821" lon="9.231967670384043"><ele>245.66666666666669</ele><time>2026-03-28T18:21:34.999Z</time></trkpt><trkpt lat="45.717612739801574" lon="9.231738447915214"><ele>246.33333333333331</ele><time>2026-03-28T18:21:35.999Z</time></trkpt><trkpt lat="45.71748714333079" lon="9.231502609254926"><ele>247.0</ele><time>2026-03-28T18:21:36.999Z</time></trkpt><trkpt lat="45.717362770261275" lon="9.2312711082785"><ele>249.0</ele><time>2026-03-28T18:21:37.999Z</time></trkpt><trkpt lat="45.71724249314128" lon="9.231044441620604"><ele>251.0</ele><time>2026-03-28T18:21:38.999Z</time></trkpt><trkpt lat="45.71712286472312" lon="9.230813583017976"><ele>253.0</ele><time>2026-03-28T18:21:39.999Z</time></trkpt><trkpt lat="45.71700022960648" lon="9.230559998907154"><ele>255.0</ele><time>2026-03-28T18:21:40.999Z</time></trkpt><trkpt lat="45.716868836009276" lon="9.23029357941758"><ele>257.0</ele><time>2026-03-28T18:21:41.999Z</time></trkpt><trkpt lat="45.71672745041019" lon="9.230018721716917"><ele>256.5</ele><time>2026-03-28T18:21:42.999Z</time></trkpt><trkpt lat="45.71657953113151" lon="9.229744735961448"><ele>256.0</ele><time>2026-03-28T18:21:43.999Z</time></trkpt><trkpt lat="45.716426207162804" lon="9.229477883931459"><ele>256.0</ele><time>2026-03-28T18:21:44.999Z</time></trkpt><trkpt lat="45.71627081247481" lon="9.229206067975984"><ele>256.0</ele><time>2026-03-28T18:21:45.999Z</time></trkpt><trkpt lat="45.716116374522684" lon="9.228937493148798"><ele>257.5</ele><time>2026-03-28T18:21:46.999Z</time></trkpt><trkpt lat="45.71597104436595" lon="9.228680140248187"><ele>259.0</ele><time>2026-03-28T18:21:47.999Z</time></trkpt><trkpt lat="45.71582183753864" lon="9.228432344377099"><ele>259.0</ele><time>2026-03-28T18:21:48.999Z</time></trkpt><trkpt lat="45.71566677301905" lon="9.22819673697474"><ele>259.0</ele><time>2026-03-28T18:21:49.999Z</time></trkpt><trkpt lat="45.71548877196455" lon="9.227970158314891"><ele>261.0</ele><time>2026-03-28T18:21:50.999Z</time></trkpt><trkpt lat="45.715297462443345" lon="9.227767472314515"><ele>263.0</ele><time>2026-03-28T18:21:51.999Z</time></trkpt><trkpt lat="45.71510176823695" lon="9.227597282056895"><ele>264.33333333333337</ele><time>2026-03-28T18:21:52.999Z</time></trkpt><trkpt lat="45.714905139281726" lon="9.227472622027111"><ele>265.6666666666667</ele><time>2026-03-28T18:21:53.999Z</time></trkpt><trkpt lat="45.71470636930731" lon="9.227378287930842"><ele>267.0</ele><time>2026-03-28T18:21:54.999Z</time></trkpt><trkpt lat="45.714502256447005" lon="9.227305915291106"><ele>274.0</ele><time>2026-03-28T18:21:55.999Z</time></trkpt><trkpt lat="45.71429634597903" lon="9.227254926551339"><ele>281.0</ele><time>2026-03-28T18:21:56.999Z</time></trkpt><trkpt lat="45.71409487942762" lon="9.227228510798405"><ele>288.0</ele><time>2026-03-28T18:21:57.999Z</time></trkpt><trkpt lat="45.71389606918624" lon="9.227224263591433"><ele>288.0</ele><time>2026-03-28T18:21:58.999Z</time></trkpt><trkpt lat="45.71369729653748" lon="9.227245116223859"><ele>288.0</ele><time>2026-03-28T18:21:59.999Z</time></trkpt><trkpt lat="45.71350076293994" lon="9.227272501228894"><ele>288.0</ele><time>2026-03-28T18:22:00.999Z</time></trkpt><trkpt lat="45.71331024833266" lon="9.227299085025079"><ele>285.3333333333333</ele><time>2026-03-28T18:22:01.999Z</time></trkpt><trkpt lat="45.7131274218068" lon="9.227319144885088"><ele>282.66666666666663</ele><time>2026-03-28T18:22:02.999Z</time></trkpt><trkpt lat="45.71295638485851" lon="9.227337856279348"><ele>280.0</ele><time>2026-03-28T18:22:03.999Z</time></trkpt><trkpt lat="45.71278741553803" lon="9.227357576577024"><ele>281.0</ele><time>2026-03-28T18:22:04.999Z</time></trkpt><trkpt lat="45.712620842731624" lon="9.227380785703406"><ele>282.0</ele><time>2026-03-28T18:22:05.999Z</time></trkpt><trkpt lat="45.712442766640756" lon="9.22740315775496"><ele>283.0</ele><time>2026-03-28T18:22:06.999Z</time></trkpt><trkpt lat="45.71224136110904" lon="9.22742761918193"><ele>283.0</ele><time>2026-03-28T18:22:07.999Z</time></trkpt><trkpt lat="45.712047156964005" lon="9.227449915776194"><ele>283.0</ele><time>2026-03-28T18:22:08.999Z</time></trkpt><trkpt lat="45.711851396611586" lon="9.227481636536808"><ele>283.0</ele><time>2026-03-28T18:22:10Z</time></trkpt><trkpt lat="45.711646020080195" lon="9.227511068047326"><ele>284.3333333333333</ele><time>2026-03-28T18:22:11Z</time></trkpt><trkpt lat="45.71142916224794" lon="9.22753141094546"><ele>285.6666666666667</ele><time>2026-03-28T18:22:12Z</time></trkpt><trkpt lat="45.71121789383799" lon="9.227559672116584"><ele>287.0</ele><time>2026-03-28T18:22:13Z</time></trkpt><trkpt lat="45.71101239081217" lon="9.227586559941265"><ele>287.6666666666667</ele><time>2026-03-28T18:22:14Z</time></trkpt><trkpt lat="45.710815680028624" lon="9.22761287930835"><ele>288.3333333333333</ele><time>2026-03-28T18:22:15Z</time></trkpt><trkpt lat="45.7106199018661" lon="9.227639854968109"><ele>289.0</ele><time>2026-03-28T18:22:16Z</time></trkpt><trkpt lat="45.710421720363804" lon="9.227671820990894"><ele>290.3333333333333</ele><time>2026-03-28T18:22:17Z</time></trkpt><trkpt lat="45.710214068366554" lon="9.22770108436871"><ele>291.6666666666667</ele><time>2026-03-28T18:22:18Z</time></trkpt><trkpt lat="45.709992735512046" lon="9.227730992730176"><ele>293.0</ele><time>2026-03-28T18:22:19Z</time></trkpt><trkpt lat="45.70976053824801" lon="9.227757352012176"><ele>293.0</ele><time>2026-03-28T18:22:20Z</time></trkpt><trkpt lat="45.7095327986869" lon="9.227787972624796"><ele>293.0</ele><time>2026-03-28T18:22:21Z</time></trkpt><trkpt lat="45.709318392188834" lon="9.227828646273686"><ele>293.0</ele><time>2026-03-28T18:22:22Z</time></trkpt><trkpt lat="45.70909396959006" lon="9.227861230732044"><ele>294.0</ele><time>2026-03-28T18:22:23Z</time></trkpt><trkpt lat="45.708871016575124" lon="9.227880244662654"><ele>295.0</ele><time>2026-03-28T18:22:24Z</time></trkpt><trkpt lat="45.708643607438944" lon="9.227904310680037"><ele>296.3333333333333</ele><time>2026-03-28T18:22:25Z</time></trkpt><trkpt lat="45.7084271091556" lon="9.22792845970331"><ele>297.6666666666667</ele><time>2026-03-28T18:22:26Z</time></trkpt><trkpt lat="45.70822045628996" lon="9.227952513648889"><ele>299.0</ele><time>2026-03-28T18:22:27Z</time></trkpt><trkpt lat="45.70801764781404" lon="9.227969738747195"><ele>299.0</ele><time>2026-03-28T18:22:28Z</time></trkpt><trkpt lat="45.707805132758004" lon="9.227996881112617"><ele>299.0</ele><time>2026-03-28T18:22:29Z</time></trkpt><trkpt lat="45.707588829177745" lon="9.228035055675862"><ele>299.0</ele><time>2026-03-28T18:22:30Z</time></trkpt><trkpt lat="45.70736659884337" lon="9.228077979539524"><ele>300.5</ele><time>2026-03-28T18:22:31Z</time></trkpt><trkpt lat="45.707146327748404" lon="9.22813958826445"><ele>302.0</ele><time>2026-03-28T18:22:32Z</time></trkpt><trkpt lat="45.706923521511875" lon="9.228202650212555"><ele>301.5</ele><time>2026-03-28T18:22:33Z</time></trkpt><trkpt lat="45.706699600067694" lon="9.22828394473092"><ele>301.0</ele><time>2026-03-28T18:22:34Z</time></trkpt><trkpt lat="45.706484727390006" lon="9.228389872985368"><ele>301.0</ele><time>2026-03-28T18:22:35Z</time></trkpt><trkpt lat="45.70626564218478" lon="9.228526147179137"><ele>301.0</ele><time>2026-03-28T18:22:36Z</time></trkpt><trkpt lat="45.70605810144447" lon="9.22867329157707"><ele>301.3333333333333</ele><time>2026-03-28T18:22:37Z</time></trkpt><trkpt lat="45.705872280151375" lon="9.228823925017508"><ele>301.6666666666667</ele><time>2026-03-28T18:22:38Z</time></trkpt><trkpt lat="45.70568789343499" lon="9.228983602485352"><ele>302.0</ele><time>2026-03-28T18:22:39Z</time></trkpt><trkpt lat="45.70551107999378" lon="9.229155946083491"><ele>301.0</ele><time>2026-03-28T18:22:40Z</time></trkpt><trkpt lat="45.70533721865918" lon="9.229328853698464"><ele>300.0</ele><time>2026-03-28T18:22:41Z</time></trkpt><trkpt lat="45.70517033090149" lon="9.229525460684739"><ele>299.0</ele><time>2026-03-28T18:22:42Z</time></trkpt><trkpt lat="45.70501206745392" lon="9.229726621156878"><ele>297.6666666666667</ele><time>2026-03-28T18:22:43Z</time></trkpt><trkpt lat="45.704856628107656" lon="9.229928502859625"><ele>296.3333333333333</ele><time>2026-03-28T18:22:44Z</time></trkpt><trkpt lat="45.7047122483956" lon="9.230121074451235"><ele>295.0</ele><time>2026-03-28T18:22:45Z</time></trkpt><trkpt lat="45.704556671759335" lon="9.230313937153975"><ele>295.66666666666663</ele><time>2026-03-28T18:22:46Z</time></trkpt><trkpt lat="45.70439663569427" lon="9.230517260413054"><ele>296.3333333333333</ele><time>2026-03-28T18:22:47Z</time></trkpt><trkpt lat="45.70423287024029" lon="9.23071833161404"><ele>297.0</ele><time>2026-03-28T18:22:48Z</time></trkpt><trkpt lat="45.70406847081733" lon="9.230908567510218"><ele>295.3333333333333</ele><time>2026-03-28T18:22:49Z</time></trkpt><trkpt lat="45.70389320058268" lon="9.231068725659783"><ele>293.66666666666663</ele><time>2026-03-28T18:22:50Z</time></trkpt><trkpt lat="45.70371652723667" lon="9.231208214572122"><ele>292.0</ele><time>2026-03-28T18:22:51Z</time></trkpt><trkpt lat="45.70352619655099" lon="9.231326501581757"><ele>291.66666666666663</ele><time>2026-03-28T18:22:52Z</time></trkpt><trkpt lat="45.70332784150965" lon="9.23141607137048"><ele>291.3333333333333</ele><time>2026-03-28T18:22:53Z</time></trkpt><trkpt lat="45.70311873829979" lon="9.231493577022405"><ele>291.0</ele><time>2026-03-28T18:22:54Z</time></trkpt><trkpt lat="45.70291003747338" lon="9.231551471829034"><ele>288.3333333333333</ele><time>2026-03-28T18:22:55Z</time></trkpt><trkpt lat="45.70270739692337" lon="9.231584958241301"><ele>285.66666666666663</ele><time>2026-03-28T18:22:56Z</time></trkpt><trkpt lat="45.70254355527192" lon="9.231592795180104"><ele>283.0</ele><time>2026-03-28T18:22:57Z</time></trkpt><trkpt lat="45.702390104091144" lon="9.231592840749029"><ele>283.0</ele><time>2026-03-28T18:22:58Z</time></trkpt><trkpt lat="45.702239463939975" lon="9.23156632440305"><ele>283.0</ele><time>2026-03-28T18:22:59Z</time></trkpt><trkpt lat="45.70207058720389" lon="9.231530450482913"><ele>283.0</ele><time>2026-03-28T18:23:00Z</time></trkpt><trkpt lat="45.70190114301044" lon="9.231480596735985"><ele>283.3333333333333</ele><time>2026-03-28T18:23:01Z</time></trkpt><trkpt lat="45.70172909062423" lon="9.231406590690797"><ele>283.6666666666667</ele><time>2026-03-28T18:23:02Z</time></trkpt><trkpt lat="45.70155194889446" lon="9.23132070225988"><ele>284.0</ele><time>2026-03-28T18:23:03Z</time></trkpt><trkpt lat="45.70137756055326" lon="9.231216746413882"><ele>284.0</ele><time>2026-03-28T18:23:04Z</time></trkpt><trkpt lat="45.70122105540644" lon="9.231093369638268"><ele>284.0</ele><time>2026-03-28T18:23:05Z</time></trkpt><trkpt lat="45.701066030068546" lon="9.2309627951039"><ele>284.0</ele><time>2026-03-28T18:23:06Z</time></trkpt><trkpt lat="45.700917768449116" lon="9.230828574005184"><ele>285.33333333333337</ele><time>2026-03-28T18:23:07Z</time></trkpt><trkpt lat="45.700758140288016" lon="9.23069365177023"><ele>286.6666666666667</ele><time>2026-03-28T18:23:08Z</time></trkpt><trkpt lat="45.70057942984242" lon="9.230568381088688"><ele>288.0</ele><time>2026-03-28T18:23:09Z</time></trkpt><trkpt lat="45.700386511141254" lon="9.2304000375074"><ele>288.0</ele><time>2026-03-28T18:23:09.999Z</time></trkpt><trkpt lat="45.70019362941097" lon="9.230223016011387"><ele>288.0</ele><time>2026-03-28T18:23:10.999Z</time></trkpt><trkpt lat="45.700068285524914" lon="9.23004756176837"><ele>288.0</ele><time>2026-03-28T18:23:11.999Z</time></trkpt><trkpt lat="45.69990001475814" lon="9.229888635032001"><ele>289.0</ele><time>2026-03-28T18:23:12.999Z</time></trkpt><trkpt lat="45.69974680640058" lon="9.229737444120767"><ele>290.0</ele><time>2026-03-28T18:23:13.999Z</time></trkpt><trkpt lat="45.6996004432186" lon="9.229605662005312"><ele>291.0</ele><time>2026-03-28T18:23:14.999Z</time></trkpt><trkpt lat="45.69946486468613" lon="9.229473628966751"><ele>290.5</ele><time>2026-03-28T18:23:15.999Z</time></trkpt><trkpt lat="45.69933668176743" lon="9.22935206291398"><ele>290.0</ele><time>2026-03-28T18:23:16.999Z</time></trkpt><trkpt lat="45.69921453688357" lon="9.229240663676753"><ele>289.5</ele><time>2026-03-28T18:23:17.999Z</time></trkpt><trkpt lat="45.699092968063916" lon="9.229123062000228"><ele>289.0</ele><time>2026-03-28T18:23:18.999Z</time></trkpt><trkpt lat="45.69896673449365" lon="9.229010232069568"><ele>289.0</ele><time>2026-03-28T18:23:19.999Z</time></trkpt><trkpt lat="45.69883946577294" lon="9.228884548216675"><ele>289.0</ele><time>2026-03-28T18:23:20.999Z</time></trkpt><trkpt lat="45.69870915534542" lon="9.228757005293861"><ele>289.0</ele><time>2026-03-28T18:23:21.999Z</time></trkpt><trkpt lat="45.69857076448779" lon="9.228635245736344"><ele>290.0</ele><time>2026-03-28T18:23:22.999Z</time></trkpt><trkpt lat="45.698424311054005" lon="9.228499209131122"><ele>291.0</ele><time>2026-03-28T18:23:23.999Z</time></trkpt><trkpt lat="45.69826816997731" lon="9.228347946954429"><ele>292.0</ele><time>2026-03-28T18:23:24.999Z</time></trkpt><trkpt lat="45.69810930534886" lon="9.228204309330849"><ele>292.3333333333333</ele><time>2026-03-28T18:23:25.999Z</time></trkpt><trkpt lat="45.697938902551385" lon="9.228051380200146"><ele>292.6666666666667</ele><time>2026-03-28T18:23:26.999Z</time></trkpt><trkpt lat="45.69776133976134" lon="9.22789122893874"><ele>293.0</ele><time>2026-03-28T18:23:27.999Z</time></trkpt><trkpt lat="45.69758598044654" lon="9.227726567243712"><ele>293.0</ele><time>2026-03-28T18:23:28.999Z</time></trkpt><trkpt lat="45.69741779384389" lon="9.22757258857813"><ele>293.0</ele><time>2026-03-28T18:23:29.999Z</time></trkpt><trkpt lat="45.69725236987986" lon="9.227412623972429"><ele>293.0</ele><time>2026-03-28T18:23:30.999Z</time></trkpt><trkpt lat="45.69708882174132" lon="9.227250060952969"><ele>293.0</ele><time>2026-03-28T18:23:31.999Z</time></trkpt><trkpt lat="45.69692393598986" lon="9.227107558488452"><ele>293.0</ele><time>2026-03-28T18:23:32.999Z</time></trkpt><trkpt lat="45.69676211392612" lon="9.226960798638448"><ele>293.0</ele><time>2026-03-28T18:23:33.999Z</time></trkpt><trkpt lat="45.696593767505945" lon="9.226810120432383"><ele>292.33333333333337</ele><time>2026-03-28T18:23:34.999Z</time></trkpt><trkpt lat="45.69642429139712" lon="9.226654891256421"><ele>291.6666666666667</ele><time>2026-03-28T18:23:35.999Z</time></trkpt><trkpt lat="45.69625190672473" lon="9.226492646840951"><ele>291.0</ele><time>2026-03-28T18:23:36.999Z</time></trkpt><trkpt lat="45.69607204074672" lon="9.226321657129873"><ele>289.0</ele><time>2026-03-28T18:23:37.999Z</time></trkpt><trkpt lat="45.695880803406546" lon="9.226144531191759"><ele>287.0</ele><time>2026-03-28T18:23:38.999Z</time></trkpt><trkpt lat="45.695676853993724" lon="9.225953270998106"><ele>287.0</ele><time>2026-03-28T18:23:39.999Z</time></trkpt><trkpt lat="45.69547175766348" lon="9.225766404944775"><ele>287.0</ele><time>2026-03-28T18:23:40.999Z</time></trkpt><trkpt lat="45.69527865460648" lon="9.225595077994177"><ele>283.5</ele><time>2026-03-28T18:23:41.999Z</time></trkpt><trkpt lat="45.69508845556633" lon="9.225428885741648"><ele>280.0</ele><time>2026-03-28T18:23:42.999Z</time></trkpt><trkpt lat="45.69489727161542" lon="9.225254305523308"><ele>280.0</ele><time>2026-03-28T18:23:43.999Z</time></trkpt><trkpt lat="45.694707551490424" lon="9.225081159927003"><ele>280.0</ele><time>2026-03-28T18:23:44.999Z</time></trkpt><trkpt lat="45.694522488007756" lon="9.22490754752731"><ele>280.0</ele><time>2026-03-28T18:23:45.999Z</time></trkpt><trkpt lat="45.69434748456559" lon="9.22474029068971"><ele>279.66666666666663</ele><time>2026-03-28T18:23:46.999Z</time></trkpt><trkpt lat="45.69417633769528" lon="9.224579253414273"><ele>279.3333333333333</ele><time>2026-03-28T18:23:47.999Z</time></trkpt><trkpt lat="45.694002022460424" lon="9.224423214355475"><ele>279.0</ele><time>2026-03-28T18:23:48.999Z</time></trkpt><trkpt lat="45.69382564402621" lon="9.224264556911628"><ele>279.0</ele><time>2026-03-28T18:23:49.999Z</time></trkpt><trkpt lat="45.69364311156333" lon="9.22408795302685"><ele>279.0</ele><time>2026-03-28T18:23:50.999Z</time></trkpt><trkpt lat="45.69345611266434" lon="9.22391207421768"><ele>279.0</ele><time>2026-03-28T18:23:51.999Z</time></trkpt><trkpt lat="45.69327352430609" lon="9.22373975131095"><ele>277.6666666666667</ele><time>2026-03-28T18:23:52.999Z</time></trkpt><trkpt lat="45.69309587033305" lon="9.223562078506296"><ele>276.33333333333337</ele><time>2026-03-28T18:23:53.999Z</time></trkpt><trkpt lat="45.69292210822206" lon="9.223384823736678"><ele>275.0</ele><time>2026-03-28T18:23:54.999Z</time></trkpt><trkpt lat="45.692746364495164" lon="9.22320845028948"><ele>272.6666666666667</ele><time>2026-03-28T18:23:55.999Z</time></trkpt><trkpt lat="45.6925666920924" lon="9.223026267449276"><ele>270.3333333333333</ele><time>2026-03-28T18:23:56.999Z</time></trkpt><trkpt lat="45.69238581971353" lon="9.222835950299014"><ele>268.0</ele><time>2026-03-28T18:23:57.999Z</time></trkpt><trkpt lat="45.69219778449177" lon="9.2226244976515"><ele>268.0</ele><time>2026-03-28T18:23:58.999Z</time></trkpt><trkpt lat="45.69200822219452" lon="9.222405957431997"><ele>268.0</ele><time>2026-03-28T18:23:59.999Z</time></trkpt><trkpt lat="45.691820308271765" lon="9.222192011711993"><ele>267.3333333333333</ele><time>2026-03-28T18:24:00.999Z</time></trkpt><trkpt lat="45.691645184494405" lon="9.221995458802414"><ele>266.6666666666667</ele><time>2026-03-28T18:24:01.999Z</time></trkpt><trkpt lat="45.6914822760617" lon="9.221813321143522"><ele>266.0</ele><time>2026-03-28T18:24:02.999Z</time></trkpt><trkpt lat="45.69135113707219" lon="9.221650024944884"><ele>266.0</ele><time>2026-03-28T18:24:03.999Z</time></trkpt><trkpt lat="45.6912193385382" lon="9.22150195406584"><ele>266.0</ele><time>2026-03-28T18:24:04.999Z</time></trkpt><trkpt lat="45.69110588530765" lon="9.22137544986318"><ele>266.0</ele><time>2026-03-28T18:24:05.999Z</time></trkpt><trkpt lat="45.69100227508884" lon="9.221268580319538"><ele>266.0</ele><time>2026-03-28T18:24:06.999Z</time></trkpt><trkpt lat="45.69091487596683" lon="9.221177060325187"><ele>265.8</ele><time>2026-03-28T18:24:07.999Z</time></trkpt><trkpt lat="45.69084244894007" lon="9.221080024476375"><ele>265.6</ele><time>2026-03-28T18:24:08.999Z</time></trkpt><trkpt lat="45.69078793496569" lon="9.220972361915095"><ele>265.4</ele><time>2026-03-28T18:24:09.999Z</time></trkpt><trkpt lat="45.690720027324836" lon="9.220921993956136"><ele>265.2</ele><time>2026-03-28T18:24:10.999Z</time></trkpt><trkpt lat="45.69078472645172" lon="9.220735729553413"><ele>265.0</ele><time>2026-03-28T18:24:11.999Z</time></trkpt><trkpt lat="45.69081604104784" lon="9.220632065326246"><ele>265.0</ele><time>2026-03-28T18:24:12.999Z</time></trkpt><trkpt lat="45.69091853329066" lon="9.2205591307185"><ele>265.0</ele><time>2026-03-28T18:24:13.999Z</time></trkpt><trkpt lat="45.69100212686798" lon="9.220415221861796"><ele>265.0</ele><time>2026-03-28T18:24:14.999Z</time></trkpt><trkpt lat="45.69110183662588" lon="9.220243558250086"><ele>265.0</ele><time>2026-03-28T18:24:16Z</time></trkpt><trkpt lat="45.691203376984234" lon="9.22006667623706"><ele>264.75</ele><time>2026-03-28T18:24:17Z</time></trkpt><trkpt lat="45.69129223916047" lon="9.219911230057496"><ele>264.5</ele><time>2026-03-28T18:24:18Z</time></trkpt><trkpt lat="45.691355389056795" lon="9.219766266506713"><ele>264.25</ele><time>2026-03-28T18:24:19Z</time></trkpt><trkpt lat="45.69144376495207" lon="9.219679101123031"><ele>264.0</ele><time>2026-03-28T18:24:20Z</time></trkpt><trkpt lat="45.69151495012517" lon="9.219594658344086"><ele>264.0</ele><time>2026-03-28T18:24:21Z</time></trkpt><trkpt lat="45.69163001974987" lon="9.21960382121803"><ele>264.0</ele><time>2026-03-28T18:24:22Z</time></trkpt><trkpt lat="45.69169122577861" lon="9.219541900339927"><ele>264.0</ele><time>2026-03-28T18:24:23Z</time></trkpt><trkpt lat="45.69171291621183" lon="9.219426662604702"><ele>264.0</ele><time>2026-03-28T18:24:24Z</time></trkpt><trkpt lat="45.69171302871356" lon="9.219278678110449"><ele>264.0</ele><time>2026-03-28T18:24:25Z</time></trkpt><trkpt lat="45.691722221569776" lon="9.219104725177898"><ele>264.0</ele><time>2026-03-28T18:24:26Z</time></trkpt><trkpt lat="45.691792553272705" lon="9.21892782282647"><ele>264.0</ele><time>2026-03-28T18:24:27Z</time></trkpt><trkpt lat="45.69191279386446" lon="9.218756441996133"><ele>264.0</ele><time>2026-03-28T18:24:28Z</time></trkpt><trkpt lat="45.69198936904992" lon="9.218552220100266"><ele>264.3333333333333</ele><time>2026-03-28T18:24:29Z</time></trkpt><trkpt lat="45.69204878809565" lon="9.218327334957118"><ele>264.66666666666663</ele><time>2026-03-28T18:24:30Z</time></trkpt><trkpt lat="45.69206272272608" lon="9.218087879181013"><ele>265.0</ele><time>2026-03-28T18:24:31Z</time></trkpt><trkpt lat="45.692041690572125" lon="9.217830348070029"><ele>265.3333333333333</ele><time>2026-03-28T18:24:32Z</time></trkpt><trkpt lat="45.691986364490404" lon="9.217580880756593"><ele>265.6666666666667</ele><time>2026-03-28T18:24:33Z</time></trkpt><trkpt lat="45.69189836682711" lon="9.217337729733593"><ele>266.0</ele><time>2026-03-28T18:24:34Z</time></trkpt><trkpt lat="45.691801687595564" lon="9.21705251266118"><ele>264.0</ele><time>2026-03-28T18:24:35Z</time></trkpt><trkpt lat="45.691711992580736" lon="9.21674049451578"><ele>262.0</ele><time>2026-03-28T18:24:36Z</time></trkpt><trkpt lat="45.691634018537734" lon="9.21645211803326"><ele>262.0</ele><time>2026-03-28T18:24:37Z</time></trkpt><trkpt lat="45.69156525113778" lon="9.2161914777126"><ele>262.0</ele><time>2026-03-28T18:24:38Z</time></trkpt><trkpt lat="45.69152984417517" lon="9.215934841546607"><ele>262.0</ele><time>2026-03-28T18:24:39Z</time></trkpt><trkpt lat="45.69151143166323" lon="9.215676410089467"><ele>262.3333333333333</ele><time>2026-03-28T18:24:40Z</time></trkpt><trkpt lat="45.69150714418215" lon="9.215410023499158"><ele>262.6666666666667</ele><time>2026-03-28T18:24:41Z</time></trkpt><trkpt lat="45.69150714417998" lon="9.21514795290806"><ele>263.0</ele><time>2026-03-28T18:24:42Z</time></trkpt><trkpt lat="45.691491991912514" lon="9.21493155889325"><ele>262.75</ele><time>2026-03-28T18:24:43Z</time></trkpt><trkpt lat="45.691499095734166" lon="9.214724097275878"><ele>262.5</ele><time>2026-03-28T18:24:44Z</time></trkpt><trkpt lat="45.69149698092409" lon="9.214526875150753"><ele>262.25</ele><time>2026-03-28T18:24:45Z</time></trkpt><trkpt lat="45.69149266586274" lon="9.214347689487854"><ele>262.0</ele><time>2026-03-28T18:24:46Z</time></trkpt><trkpt lat="45.69148921677174" lon="9.214201510971456"><ele>262.0</ele><time>2026-03-28T18:24:47Z</time></trkpt><trkpt lat="45.69150280407792" lon="9.214091354804715"><ele>262.0</ele><time>2026-03-28T18:24:48Z</time></trkpt><trkpt lat="45.69152106057874" lon="9.214005024305735"><ele>262.0</ele><time>2026-03-28T18:24:49Z</time></trkpt><trkpt lat="45.691569585414186" lon="9.213850817102443"><ele>262.0</ele><time>2026-03-28T18:24:51Z</time></trkpt><trkpt lat="45.69162876195988" lon="9.213745701866342"><ele>262.0</ele><time>2026-03-28T18:24:52Z</time></trkpt><trkpt lat="45.69170172627697" lon="9.213651350958655"><ele>261.5</ele><time>2026-03-28T18:24:53Z</time></trkpt><trkpt lat="45.69178466842584" lon="9.213575426545"><ele>261.0</ele><time>2026-03-28T18:24:54Z</time></trkpt><trkpt lat="45.69187531889219" lon="9.213539237340623"><ele>260.5</ele><time>2026-03-28T18:24:55Z</time></trkpt><trkpt lat="45.69199544683414" lon="9.213525441379279"><ele>260.0</ele><time>2026-03-28T18:24:56Z</time></trkpt><trkpt lat="45.692164057581564" lon="9.213508406813004"><ele>262.0</ele><time>2026-03-28T18:24:57Z</time></trkpt><trkpt lat="45.69237650463455" lon="9.213471287650242"><ele>264.0</ele><time>2026-03-28T18:24:58Z</time></trkpt><trkpt lat="45.692624048037686" lon="9.213429000188322"><ele>264.3333333333333</ele><time>2026-03-28T18:24:59Z</time></trkpt><trkpt lat="45.69285493323191" lon="9.213422571490945"><ele>264.66666666666663</ele><time>2026-03-28T18:25:00Z</time></trkpt><trkpt lat="45.693047511991075" lon="9.21345585464658"><ele>265.0</ele><time>2026-03-28T18:25:01Z</time></trkpt><trkpt lat="45.69322113890336" lon="9.213496927556367"><ele>265.0</ele><time>2026-03-28T18:25:02Z</time></trkpt><trkpt lat="45.693393106951376" lon="9.213542122555682"><ele>265.0</ele><time>2026-03-28T18:25:03Z</time></trkpt><trkpt lat="45.693590649209725" lon="9.21359699107281"><ele>265.0</ele><time>2026-03-28T18:25:04Z</time></trkpt><trkpt lat="45.69383613441669" lon="9.213672751483248"><ele>266.5</ele><time>2026-03-28T18:25:05Z</time></trkpt><trkpt lat="45.694119453988264" lon="9.213794259113326"><ele>268.0</ele><time>2026-03-28T18:25:06Z</time></trkpt><trkpt lat="45.69440950662486" lon="9.213925011145655"><ele>268.5</ele><time>2026-03-28T18:25:07Z</time></trkpt><trkpt lat="45.69466291788087" lon="9.214054326990302"><ele>269.0</ele><time>2026-03-28T18:25:08Z</time></trkpt><trkpt lat="45.69488862390234" lon="9.21416931586493"><ele>269.0</ele><time>2026-03-28T18:25:09Z</time></trkpt><trkpt lat="45.69508786772231" lon="9.21426624864606"><ele>269.0</ele><time>2026-03-28T18:25:10Z</time></trkpt><trkpt lat="45.69525736482468" lon="9.214355098400517"><ele>269.0</ele><time>2026-03-28T18:25:11Z</time></trkpt><trkpt lat="45.695393807411406" lon="9.214425005118018"><ele>269.0</ele><time>2026-03-28T18:25:12Z</time></trkpt><trkpt lat="45.695517604177496" lon="9.214484917646448"><ele>269.0</ele><time>2026-03-28T18:25:13Z</time></trkpt><trkpt lat="45.69561400779413" lon="9.214530013836104"><ele>269.0</ele><time>2026-03-28T18:25:14Z</time></trkpt><trkpt lat="45.69569290840313" lon="9.214568525511588"><ele>269.0</ele><time>2026-03-28T18:25:15Z</time></trkpt><trkpt lat="45.695787641394695" lon="9.21462545494942"><ele>269.0</ele><time>2026-03-28T18:25:17Z</time></trkpt><trkpt lat="45.69580406969771" lon="9.214744868311943"><ele>268.8</ele><time>2026-03-28T18:25:19Z</time></trkpt><trkpt lat="45.69572679486799" lon="9.214906266936183"><ele>268.59999999999997</ele><time>2026-03-28T18:25:20.999Z</time></trkpt><trkpt lat="45.69565648851677" lon="9.214985424391868"><ele>268.4</ele><time>2026-03-28T18:25:21.999Z</time></trkpt><trkpt lat="45.69558717712617" lon="9.215083780093913"><ele>268.2</ele><time>2026-03-28T18:25:22.999Z</time></trkpt><trkpt lat="45.69552166124701" lon="9.215164521404306"><ele>268.0</ele><time>2026-03-28T18:25:23.999Z</time></trkpt><trkpt lat="45.695469465694806" lon="9.215253495168675"><ele>268.0</ele><time>2026-03-28T18:25:24.999Z</time></trkpt><trkpt lat="45.695423398227376" lon="9.21531536020811"><ele>268.0</ele><time>2026-03-28T18:25:25.999Z</time></trkpt><trkpt lat="45.69535261005584" lon="9.215393387504207"><ele>268.0</ele><time>2026-03-28T18:25:27.999Z</time></trkpt><trkpt lat="45.695285619064805" lon="9.21528093872616"><ele>268.0</ele><time>2026-03-28T18:26:07.999Z</time></trkpt><trkpt lat="45.69522980242628" lon="9.215196232265264"><ele>268.0</ele><time>2026-03-28T18:26:10.999Z</time></trkpt><trkpt lat="45.6952920102919" lon="9.21529008437637"><ele>268.0</ele><time>2026-03-28T18:27:43.999Z</time></trkpt><trkpt lat="45.69533202910272" lon="9.215363739515048"><ele>269.0</ele><time>2026-03-28T18:27:45.999Z</time></trkpt><trkpt lat="45.69595824680822" lon="9.214651283826795"><ele>269.0</ele><time>2026-03-28T18:28:02.999Z</time></trkpt><trkpt lat="45.69607070932826" lon="9.214727596715177"><ele>269.0</ele><time>2026-03-28T18:28:04.999Z</time></trkpt><trkpt lat="45.69616494465657" lon="9.214790766009605"><ele>269.0</ele><time>2026-03-28T18:28:06.999Z</time></trkpt><trkpt lat="45.69621691036747" lon="9.21485232882946"><ele>269.0</ele><time>2026-03-28T18:28:08.999Z</time></trkpt><trkpt lat="45.69626440152017" lon="9.214998905856813"><ele>269.0</ele><time>2026-03-28T18:28:10.999Z</time></trkpt><trkpt lat="45.69626071175854" lon="9.215102473764537"><ele>269.1666666666667</ele><time>2026-03-28T18:28:11.999Z</time></trkpt><trkpt lat="45.696235343190075" lon="9.21519613212666"><ele>269.33333333333337</ele><time>2026-03-28T18:28:12.999Z</time></trkpt><trkpt lat="45.69619206645764" lon="9.215283258465494"><ele>269.5</ele><time>2026-03-28T18:28:13.999Z</time></trkpt><trkpt lat="45.69614756409403" lon="9.215357387703298"><ele>269.6666666666667</ele><time>2026-03-28T18:28:14.999Z</time></trkpt><trkpt lat="45.69607825687219" lon="9.215481668239994"><ele>269.8333333333333</ele><time>2026-03-28T18:28:16.999Z</time></trkpt><trkpt lat="45.69602107362255" lon="9.215600408581691"><ele>270.0</ele><time>2026-03-28T18:28:18.999Z</time></trkpt><trkpt lat="45.695979812232665" lon="9.215702346975345"><ele>269.6</ele><time>2026-03-28T18:28:20.999Z</time></trkpt><trkpt lat="45.695944323418075" lon="9.215784986489094"><ele>269.2</ele><time>2026-03-28T18:28:22.999Z</time></trkpt><trkpt lat="45.69587527873285" lon="9.215955221149976"><ele>268.8</ele><time>2026-03-28T18:28:24.999Z</time></trkpt><trkpt lat="45.69580414365209" lon="9.216089142896266"><ele>268.4</ele><time>2026-03-28T18:28:25.999Z</time></trkpt><trkpt lat="45.695744534977244" lon="9.216210033003438"><ele>268.0</ele><time>2026-03-28T18:28:27Z</time></trkpt><trkpt lat="45.6956924942611" lon="9.216315294444609"><ele>268.0</ele><time>2026-03-28T18:28:28Z</time></trkpt><trkpt lat="45.69563345477165" lon="9.216436045091049"><ele>268.0</ele><time>2026-03-28T18:28:29Z</time></trkpt><trkpt lat="45.6955702407856" lon="9.216572158201496"><ele>268.0</ele><time>2026-03-28T18:28:30Z</time></trkpt><trkpt lat="45.695515154233995" lon="9.216711177172904"><ele>268.0</ele><time>2026-03-28T18:28:31Z</time></trkpt><trkpt lat="45.6954631619045" lon="9.216842915849785"><ele>268.0</ele><time>2026-03-28T18:28:32Z</time></trkpt><trkpt lat="45.69541574832236" lon="9.21697651586442"><ele>268.4</ele><time>2026-03-28T18:28:33Z</time></trkpt><trkpt lat="45.695362850895776" lon="9.217116694735374"><ele>268.8</ele><time>2026-03-28T18:28:34Z</time></trkpt><trkpt lat="45.69530605754421" lon="9.21725376770514"><ele>269.2</ele><time>2026-03-28T18:28:35Z</time></trkpt><trkpt lat="45.69525341245116" lon="9.217387491024349"><ele>269.6</ele><time>2026-03-28T18:28:36Z</time></trkpt><trkpt lat="45.695201591564874" lon="9.21751702372237"><ele>270.0</ele><time>2026-03-28T18:28:37Z</time></trkpt><trkpt lat="45.695137042832584" lon="9.217653362046303"><ele>270.0</ele><time>2026-03-28T18:28:38Z</time></trkpt><trkpt lat="45.695067480074535" lon="9.217806056808794"><ele>270.0</ele><time>2026-03-28T18:28:39Z</time></trkpt><trkpt lat="45.69497929301547" lon="9.217975292900874"><ele>270.0</ele><time>2026-03-28T18:28:40Z</time></trkpt><trkpt lat="45.69486549206359" lon="9.218165980475602"><ele>270.3333333333333</ele><time>2026-03-28T18:28:41Z</time></trkpt><trkpt lat="45.69473786529478" lon="9.218357878130396"><ele>270.66666666666663</ele><time>2026-03-28T18:28:42Z</time></trkpt><trkpt lat="45.694629270785974" lon="9.218553632132176"><ele>271.0</ele><time>2026-03-28T18:28:43Z</time></trkpt><trkpt lat="45.69452178530852" lon="9.2187286132434"><ele>270.66666666666663</ele><time>2026-03-28T18:28:44Z</time></trkpt><trkpt lat="45.69441932884811" lon="9.218886593547536"><ele>270.3333333333333</ele><time>2026-03-28T18:28:45Z</time></trkpt><trkpt lat="45.69432140501086" lon="9.219048766646585"><ele>270.0</ele><time>2026-03-28T18:28:46Z</time></trkpt><trkpt lat="45.694219689168264" lon="9.21922133166452"><ele>269.75</ele><time>2026-03-28T18:28:47Z</time></trkpt><trkpt lat="45.69413177531483" lon="9.219388280099514"><ele>269.5</ele><time>2026-03-28T18:28:48Z</time></trkpt><trkpt lat="45.69405863917823" lon="9.21952968995919"><ele>269.25</ele><time>2026-03-28T18:28:49Z</time></trkpt><trkpt lat="45.69399191784738" lon="9.219671189288269"><ele>269.0</ele><time>2026-03-28T18:28:50Z</time></trkpt><trkpt lat="45.6939257466258" lon="9.219806219284425"><ele>268.59999999999997</ele><time>2026-03-28T18:28:51Z</time></trkpt><trkpt lat="45.693859752773626" lon="9.219947738594609"><ele>268.2</ele><time>2026-03-28T18:28:52Z</time></trkpt><trkpt lat="45.69379345487731" lon="9.220082129316014"><ele>267.79999999999995</ele><time>2026-03-28T18:28:53Z</time></trkpt><trkpt lat="45.693736791466016" lon="9.220215373753371"><ele>267.4</ele><time>2026-03-28T18:28:54Z</time></trkpt><trkpt lat="45.69368356688855" lon="9.220341496871825"><ele>267.0</ele><time>2026-03-28T18:28:55Z</time></trkpt><trkpt lat="45.69363634930035" lon="9.220444334740733"><ele>267.0</ele><time>2026-03-28T18:28:56Z</time></trkpt><trkpt lat="45.69359663027345" lon="9.22054041862442"><ele>267.0</ele><time>2026-03-28T18:28:57Z</time></trkpt><trkpt lat="45.69355493777432" lon="9.22062340180823"><ele>267.0</ele><time>2026-03-28T18:28:58Z</time></trkpt><trkpt lat="45.69350263026832" lon="9.220748951470405"><ele>267.0</ele><time>2026-03-28T18:29:00Z</time></trkpt><trkpt lat="45.693460855621616" lon="9.220839363720026"><ele>267.0</ele><time>2026-03-28T18:29:02Z</time></trkpt><trkpt lat="45.693401583875406" lon="9.220977543251998"><ele>267.0</ele><time>2026-03-28T18:29:54.999Z</time></trkpt><trkpt lat="45.69335496955828" lon="9.221086971385413"><ele>267.0</ele><time>2026-03-28T18:29:55.999Z</time></trkpt><trkpt lat="45.69328286570243" lon="9.221222394073191"><ele>267.0</ele><time>2026-03-28T18:29:56.999Z</time></trkpt><trkpt lat="45.69319140098458" lon="9.221403024333616"><ele>267.0</ele><time>2026-03-28T18:29:57.999Z</time></trkpt><trkpt lat="45.69310262440447" lon="9.221549167685083"><ele>267.0</ele><time>2026-03-28T18:29:58.999Z</time></trkpt><trkpt lat="45.693008798711396" lon="9.221686201474167"><ele>267.0</ele><time>2026-03-28T18:29:59.999Z</time></trkpt><trkpt lat="45.69291536534674" lon="9.221847208530475"><ele>267.0</ele><time>2026-03-28T18:30:00.999Z</time></trkpt><trkpt lat="45.692784794230455" lon="9.222030563661617"><ele>267.0</ele><time>2026-03-28T18:30:01.999Z</time></trkpt><trkpt lat="45.69263922715762" lon="9.222215711330824"><ele>267.3333333333333</ele><time>2026-03-28T18:30:02.999Z</time></trkpt><trkpt lat="45.692514727929904" lon="9.222381720723225"><ele>267.66666666666663</ele><time>2026-03-28T18:30:03.999Z</time></trkpt><trkpt lat="45.69239940988624" lon="9.222539841508997"><ele>268.0</ele><time>2026-03-28T18:30:04.999Z</time></trkpt><trkpt lat="45.69228795281837" lon="9.222682809380771"><ele>268.0</ele><time>2026-03-28T18:30:05.999Z</time></trkpt><trkpt lat="45.692189780767585" lon="9.222814588675238"><ele>268.0</ele><time>2026-03-28T18:30:06.999Z</time></trkpt><trkpt lat="45.69209139220461" lon="9.222957431271771"><ele>268.0</ele><time>2026-03-28T18:30:07.999Z</time></trkpt><trkpt lat="45.6919914947659" lon="9.22309348455593"><ele>268.0</ele><time>2026-03-28T18:30:08.999Z</time></trkpt><trkpt lat="45.691901880207716" lon="9.223193614131072"><ele>268.5</ele><time>2026-03-28T18:30:09.999Z</time></trkpt><trkpt lat="45.69182052293443" lon="9.223305261756686"><ele>269.0</ele><time>2026-03-28T18:30:10.999Z</time></trkpt><trkpt lat="45.691729404255845" lon="9.22341336387112"><ele>269.5</ele><time>2026-03-28T18:30:11.999Z</time></trkpt><trkpt lat="45.6916387791478" lon="9.223533635584849"><ele>270.0</ele><time>2026-03-28T18:30:12.999Z</time></trkpt><trkpt lat="45.691551372716305" lon="9.223653213160373"><ele>270.0</ele><time>2026-03-28T18:30:13.999Z</time></trkpt><trkpt lat="45.69146921508246" lon="9.223757420829223"><ele>270.0</ele><time>2026-03-28T18:30:14.999Z</time></trkpt><trkpt lat="45.69139035195774" lon="9.223860615672054"><ele>270.0</ele><time>2026-03-28T18:30:15.999Z</time></trkpt><trkpt lat="45.69132067918969" lon="9.223960534288837"><ele>270.0</ele><time>2026-03-28T18:30:16.999Z</time></trkpt><trkpt lat="45.691261007224774" lon="9.22404842526942"><ele>270.0</ele><time>2026-03-28T18:30:17.999Z</time></trkpt><trkpt lat="45.69119748380912" lon="9.224128713537503"><ele>270.1666666666667</ele><time>2026-03-28T18:30:18.999Z</time></trkpt><trkpt lat="45.69112636221846" lon="9.224210377650447"><ele>270.3333333333333</ele><time>2026-03-28T18:30:19.999Z</time></trkpt><trkpt lat="45.691053590471604" lon="9.22428607528211"><ele>270.5</ele><time>2026-03-28T18:30:20.999Z</time></trkpt><trkpt lat="45.69098197222551" lon="9.224351959506803"><ele>270.66666666666663</ele><time>2026-03-28T18:30:21.999Z</time></trkpt><trkpt lat="45.69091336434408" lon="9.22441609336933"><ele>270.8333333333333</ele><time>2026-03-28T18:30:22.999Z</time></trkpt><trkpt lat="45.690845591913664" lon="9.22447311797133"><ele>271.0</ele><time>2026-03-28T18:30:23.999Z</time></trkpt><trkpt lat="45.690778155162974" lon="9.224529472034407"><ele>271.0</ele><time>2026-03-28T18:30:24.999Z</time></trkpt><trkpt lat="45.69072059350841" lon="9.224582610105202"><ele>271.0</ele><time>2026-03-28T18:30:25.999Z</time></trkpt><trkpt lat="45.690629062388496" lon="9.224638613179302"><ele>271.0</ele><time>2026-03-28T18:30:27.999Z</time></trkpt><trkpt lat="45.69073484025721" lon="9.224790751250556"><ele>271.0</ele><time>2026-03-28T18:30:29.999Z</time></trkpt><trkpt lat="45.69081142517257" lon="9.224770187927088"><ele>271.0</ele><time>2026-03-28T18:30:33Z</time></trkpt><trkpt lat="45.69078201054066" lon="9.224864939472251"><ele>271.0</ele><time>2026-03-28T18:30:53Z</time></trkpt><trkpt lat="45.6907085300392" lon="9.224876243079589"><ele>271.0</ele><time>2026-03-28T18:30:55Z</time></trkpt><trkpt lat="45.69062052871045" lon="9.224913326016795"><ele>271.0</ele><time>2026-03-28T18:30:57Z</time></trkpt><trkpt lat="45.690544100478746" lon="9.225011571671455"><ele>271.0</ele><time>2026-03-28T18:30:59Z</time></trkpt><trkpt lat="45.690454245363405" lon="9.225074439563576"><ele>271.0</ele><time>2026-03-28T18:31:00Z</time></trkpt><trkpt lat="45.690389776579096" lon="9.225218952471993"><ele>271.0</ele><time>2026-03-28T18:31:02Z</time></trkpt><trkpt lat="45.690335593339505" lon="9.225362752357919"><ele>271.0</ele><time>2026-03-28T18:31:04Z</time></trkpt><trkpt lat="45.69028662180537" lon="9.225443465014086"><ele>271.0</ele><time>2026-03-28T18:31:06Z</time></trkpt><trkpt lat="45.690247266793484" lon="9.225531508291864"><ele>271.0</ele><time>2026-03-28T18:31:08Z</time></trkpt><trkpt lat="45.690241183446325" lon="9.22564922929748"><ele>271.0</ele><time>2026-03-28T18:31:10Z</time></trkpt><trkpt lat="45.69019461480033" lon="9.225722743740954"><ele>271.0</ele><time>2026-03-28T18:32:11.999Z</time></trkpt><trkpt lat="45.69032421488461" lon="9.225867781344446"><ele>271.16666666666663</ele><time>2026-03-28T18:32:14.999Z</time></trkpt><trkpt lat="45.69025037678412" lon="9.225903237932243"><ele>271.3333333333333</ele><time>2026-03-28T18:32:42Z</time></trkpt><trkpt lat="45.69021885522754" lon="9.225988218320223"><ele>271.5</ele><time>2026-03-28T18:32:44Z</time></trkpt><trkpt lat="45.69030188900541" lon="9.225985911742674"><ele>271.6666666666667</ele><time>2026-03-28T18:32:55Z</time></trkpt><trkpt lat="45.69034722184626" lon="9.225907633714037"><ele>271.83333333333337</ele><time>2026-03-28T18:32:59Z</time></trkpt><trkpt lat="45.69043111433286" lon="9.225812999345258"><ele>272.0</ele><time>2026-03-28T18:33:14Z</time></trkpt><trkpt lat="45.69037614465175" lon="9.225702985311608"><ele>272.0</ele><time>2026-03-28T18:40:55.999Z</time></trkpt><trkpt lat="45.690301106070564" lon="9.22567590805252"><ele>272.0</ele><time>2026-03-28T18:40:57.999Z</time></trkpt><trkpt lat="45.69036588873723" lon="9.225601762067766"><ele>272.0</ele><time>2026-03-28T18:46:37.999Z</time></trkpt><trkpt lat="45.690395334887654" lon="9.22551906991941"><ele>272.0</ele><time>2026-03-28T18:46:39.999Z</time></trkpt><trkpt lat="45.69041794281908" lon="9.225411287292292"><ele>272.0</ele><time>2026-03-28T18:46:41.999Z</time></trkpt><trkpt lat="45.69045341157952" lon="9.225276571343178"><ele>272.0</ele><time>2026-03-28T18:46:43.999Z</time></trkpt><trkpt lat="45.690490136705556" lon="9.225178420462393"><ele>271.85714285714283</ele><time>2026-03-28T18:46:45.999Z</time></trkpt><trkpt lat="45.69052608893333" lon="9.225082458228247"><ele>271.7142857142857</ele><time>2026-03-28T18:46:47.999Z</time></trkpt><trkpt lat="45.690585107505015" lon="9.225019556839339"><ele>271.57142857142856</ele><time>2026-03-28T18:46:49.999Z</time></trkpt><trkpt lat="45.69064824197962" lon="9.22495429372335"><ele>271.42857142857144</ele><time>2026-03-28T18:46:51.999Z</time></trkpt><trkpt lat="45.690714275942206" lon="9.224891136726026"><ele>271.2857142857143</ele><time>2026-03-28T18:46:53.999Z</time></trkpt><trkpt lat="45.69073204263145" lon="9.224794666799246"><ele>271.1428571428571</ele><time>2026-03-28T18:46:55.999Z</time></trkpt><trkpt lat="45.69072709956842" lon="9.224703722231197"><ele>271.0</ele><time>2026-03-28T18:46:57.999Z</time></trkpt><trkpt lat="45.690774687263314" lon="9.224569906062918"><ele>271.0</ele><time>2026-03-28T18:47:00.999Z</time></trkpt><trkpt lat="45.69088562849144" lon="9.224501000505676"><ele>271.0</ele><time>2026-03-28T18:47:02.999Z</time></trkpt><trkpt lat="45.69094379756741" lon="9.22446336403218"><ele>271.0</ele><time>2026-03-28T18:47:03.999Z</time></trkpt><trkpt lat="45.69104938962074" lon="9.224422514398032"><ele>271.0</ele><time>2026-03-28T18:47:05.999Z</time></trkpt><trkpt lat="45.69115666010792" lon="9.224402261876788"><ele>271.0</ele><time>2026-03-28T18:47:07.999Z</time></trkpt><trkpt lat="45.691216585191455" lon="9.224356437795151"><ele>271.0</ele><time>2026-03-28T18:47:08.999Z</time></trkpt><trkpt lat="45.69127068114807" lon="9.224276363217106"><ele>271.0</ele><time>2026-03-28T18:47:09.999Z</time></trkpt><trkpt lat="45.69130691027063" lon="9.224175275888435"><ele>271.0</ele><time>2026-03-28T18:47:10.999Z</time></trkpt><trkpt lat="45.691343488141065" lon="9.22406331981405"><ele>271.0</ele><time>2026-03-28T18:47:11.999Z</time></trkpt><trkpt lat="45.69138140274349" lon="9.223956677874773"><ele>271.0</ele><time>2026-03-28T18:47:12.999Z</time></trkpt><trkpt lat="45.69144048134571" lon="9.223855998589112"><ele>271.0</ele><time>2026-03-28T18:47:13.999Z</time></trkpt><trkpt lat="45.691527530473884" lon="9.223752998969838"><ele>270.75</ele><time>2026-03-28T18:47:14.999Z</time></trkpt><trkpt lat="45.691623987845155" lon="9.223633959453732"><ele>270.5</ele><time>2026-03-28T18:47:15.999Z</time></trkpt><trkpt lat="45.69172241254833" lon="9.22351109411884"><ele>270.25</ele><time>2026-03-28T18:47:16.999Z</time></trkpt><trkpt lat="45.69181988634" lon="9.22338296298686"><ele>270.0</ele><time>2026-03-28T18:47:17.999Z</time></trkpt><trkpt lat="45.69191872853058" lon="9.22324909689777"><ele>269.5</ele><time>2026-03-28T18:47:18.999Z</time></trkpt><trkpt lat="45.6920226697411" lon="9.22311691731244"><ele>269.0</ele><time>2026-03-28T18:47:19.999Z</time></trkpt><trkpt lat="45.69212285852745" lon="9.222982406003053"><ele>268.5</ele><time>2026-03-28T18:47:20.999Z</time></trkpt><trkpt lat="45.6922204257301" lon="9.222850152318074"><ele>268.0</ele><time>2026-03-28T18:47:21.999Z</time></trkpt><trkpt lat="45.692324692186794" lon="9.222724477455712"><ele>268.0</ele><time>2026-03-28T18:47:22.999Z</time></trkpt><trkpt lat="45.692422488442844" lon="9.222598403555057"><ele>268.0</ele><time>2026-03-28T18:47:23.999Z</time></trkpt><trkpt lat="45.692520562708225" lon="9.222469220794205"><ele>268.0</ele><time>2026-03-28T18:47:24.999Z</time></trkpt><trkpt lat="45.692623883527" lon="9.222332535571992"><ele>268.0</ele><time>2026-03-28T18:47:25.999Z</time></trkpt><trkpt lat="45.69272484326465" lon="9.222191195352176"><ele>267.25</ele><time>2026-03-28T18:47:26.999Z</time></trkpt><trkpt lat="45.69282893764381" lon="9.22205789936108"><ele>266.5</ele><time>2026-03-28T18:47:27.999Z</time></trkpt><trkpt lat="45.692928259084965" lon="9.221918023740708"><ele>265.75</ele><time>2026-03-28T18:47:28.999Z</time></trkpt><trkpt lat="45.69301632560967" lon="9.221790424533019"><ele>265.0</ele><time>2026-03-28T18:47:29.999Z</time></trkpt><trkpt lat="45.69310495741235" lon="9.221664114540753"><ele>265.0</ele><time>2026-03-28T18:47:30.999Z</time></trkpt><trkpt lat="45.69319311270112" lon="9.221533294884113"><ele>265.0</ele><time>2026-03-28T18:47:31.999Z</time></trkpt><trkpt lat="45.69327667362895" lon="9.221398263207579"><ele>265.0</ele><time>2026-03-28T18:47:32.999Z</time></trkpt><trkpt lat="45.69335472880204" lon="9.221261582644212"><ele>265.0</ele><time>2026-03-28T18:47:33.999Z</time></trkpt><trkpt lat="45.6934329644795" lon="9.221103123260834"><ele>265.66666666666663</ele><time>2026-03-28T18:47:34.999Z</time></trkpt><trkpt lat="45.69350698131418" lon="9.2209255747207"><ele>266.3333333333333</ele><time>2026-03-28T18:47:35.999Z</time></trkpt><trkpt lat="45.6935814966408" lon="9.220735411356683"><ele>267.0</ele><time>2026-03-28T18:47:37Z</time></trkpt><trkpt lat="45.69366422722656" lon="9.220536153503861"><ele>267.0</ele><time>2026-03-28T18:47:38Z</time></trkpt><trkpt lat="45.69374684806299" lon="9.220339648687002"><ele>267.0</ele><time>2026-03-28T18:47:39Z</time></trkpt><trkpt lat="45.69382928496707" lon="9.22014339168569"><ele>267.0</ele><time>2026-03-28T18:47:40Z</time></trkpt><trkpt lat="45.693912977112454" lon="9.219955695824218"><ele>267.6666666666667</ele><time>2026-03-28T18:47:41Z</time></trkpt><trkpt lat="45.694008766949715" lon="9.219767369310343"><ele>268.33333333333337</ele><time>2026-03-28T18:47:42Z</time></trkpt><trkpt lat="45.69410218896472" lon="9.219586193544568"><ele>269.0</ele><time>2026-03-28T18:47:43Z</time></trkpt><trkpt lat="45.694188719820595" lon="9.219409522879388"><ele>269.0</ele><time>2026-03-28T18:47:44Z</time></trkpt><trkpt lat="45.694280904643996" lon="9.21924399317989"><ele>269.0</ele><time>2026-03-28T18:47:45Z</time></trkpt><trkpt lat="45.694368242944904" lon="9.219087132640563"><ele>269.0</ele><time>2026-03-28T18:47:46Z</time></trkpt><trkpt lat="45.69445869368017" lon="9.218935791252385"><ele>269.0</ele><time>2026-03-28T18:47:47Z</time></trkpt><trkpt lat="45.69455130955317" lon="9.218789715891118"><ele>269.5</ele><time>2026-03-28T18:47:48Z</time></trkpt><trkpt lat="45.69464223788036" lon="9.218644083417736"><ele>270.0</ele><time>2026-03-28T18:47:49Z</time></trkpt><trkpt lat="45.694724995350086" lon="9.21850336554804"><ele>270.5</ele><time>2026-03-28T18:47:50Z</time></trkpt><trkpt lat="45.69480329778978" lon="9.218374564120039"><ele>271.0</ele><time>2026-03-28T18:47:51Z</time></trkpt><trkpt lat="45.694869975046444" lon="9.218262007827805"><ele>271.0</ele><time>2026-03-28T18:47:52Z</time></trkpt><trkpt lat="45.69493060752005" lon="9.21816233594169"><ele>271.0</ele><time>2026-03-28T18:47:53Z</time></trkpt><trkpt lat="45.69499064301263" lon="9.218071229105773"><ele>271.0</ele><time>2026-03-28T18:47:54Z</time></trkpt><trkpt lat="45.6950371327489" lon="9.217987708038057"><ele>271.0</ele><time>2026-03-28T18:47:55Z</time></trkpt><trkpt lat="45.6950754759458" lon="9.217906136596655"><ele>271.0</ele><time>2026-03-28T18:47:56Z</time></trkpt><trkpt lat="45.69512801936931" lon="9.217802929282882"><ele>271.0</ele><time>2026-03-28T18:47:58Z</time></trkpt><trkpt lat="45.69495301691298" lon="9.217736134663994"><ele>270.8333333333333</ele><time>2026-03-28T18:48:01Z</time></trkpt><trkpt lat="45.69490829171169" lon="9.217656069092197"><ele>270.66666666666663</ele><time>2026-03-28T18:48:06Z</time></trkpt><trkpt lat="45.694824972810814" lon="9.217606614894219"><ele>270.5</ele><time>2026-03-28T18:48:09Z</time></trkpt><trkpt lat="45.69475206116696" lon="9.217539332868048"><ele>270.3333333333333</ele><time>2026-03-28T18:48:10.999Z</time></trkpt><trkpt lat="45.69466631148994" lon="9.217477550681531"><ele>270.1666666666667</ele><time>2026-03-28T18:48:13.999Z</time></trkpt><trkpt lat="45.69456980846042" lon="9.217419305330752"><ele>270.0</ele><time>2026-03-28T18:48:15.999Z</time></trkpt><trkpt lat="45.69438245167973" lon="9.217276826755086"><ele>269.75</ele><time>2026-03-28T18:48:17.999Z</time></trkpt><trkpt lat="45.694299891843905" lon="9.21710420129852"><ele>269.5</ele><time>2026-03-28T18:48:18.999Z</time></trkpt><trkpt lat="45.694258175736124" lon="9.217013853710416"><ele>269.25</ele><time>2026-03-28T18:48:21.999Z</time></trkpt><trkpt lat="45.69427477953725" lon="9.216868061346762"><ele>269.0</ele><time>2026-03-28T18:48:23.999Z</time></trkpt><trkpt lat="45.69469023059075" lon="9.216489540440744"><ele>268.59999999999997</ele><time>2026-03-28T18:48:24.999Z</time></trkpt><trkpt lat="45.694741759355054" lon="9.216386632718939"><ele>268.2</ele><time>2026-03-28T18:48:25.999Z</time></trkpt><trkpt lat="45.69481259159071" lon="9.216272807473716"><ele>267.79999999999995</ele><time>2026-03-28T18:48:26.999Z</time></trkpt><trkpt lat="45.69486744253253" lon="9.216180261445558"><ele>267.4</ele><time>2026-03-28T18:48:27.999Z</time></trkpt><trkpt lat="45.694930435112326" lon="9.216074934995815"><ele>267.0</ele><time>2026-03-28T18:48:28.999Z</time></trkpt><trkpt lat="45.69501803635402" lon="9.21593744810767"><ele>267.0</ele><time>2026-03-28T18:48:29.999Z</time></trkpt><trkpt lat="45.69511164707224" lon="9.21581743875279"><ele>267.0</ele><time>2026-03-28T18:48:30.999Z</time></trkpt><trkpt lat="45.69517325621364" lon="9.215721989047081"><ele>267.0</ele><time>2026-03-28T18:48:31.999Z</time></trkpt><trkpt lat="45.695244091863245" lon="9.215638327706353"><ele>267.0</ele><time>2026-03-28T18:48:32.999Z</time></trkpt><trkpt lat="45.69529620428293" lon="9.215573095639202"><ele>267.0</ele><time>2026-03-28T18:48:33.999Z</time></trkpt><trkpt lat="45.69536526092765" lon="9.215466956961917"><ele>267.1666666666667</ele><time>2026-03-28T18:48:35.999Z</time></trkpt><trkpt lat="45.69528792640463" lon="9.215276313862413"><ele>267.3333333333333</ele><time>2026-03-28T18:49:09.999Z</time></trkpt><trkpt lat="45.69523482447439" lon="9.21520824650538"><ele>267.5</ele><time>2026-03-28T18:49:11.999Z</time></trkpt><trkpt lat="45.69517872076208" lon="9.215154445778792"><ele>267.66666666666663</ele><time>2026-03-28T18:49:14.999Z</time></trkpt><trkpt lat="45.69520623935009" lon="9.21523576982158"><ele>267.8333333333333</ele><time>2026-03-28T18:51:15Z</time></trkpt><trkpt lat="45.695162258304144" lon="9.215322276899547"><ele>268.0</ele><time>2026-03-28T18:51:34Z</time></trkpt><trkpt lat="45.695153355204496" lon="9.215419884517884"><ele>268.0</ele><time>2026-03-28T18:51:41Z</time></trkpt><trkpt lat="45.69512319374828" lon="9.215500156992547"><ele>268.0</ele><time>2026-03-28T18:51:46Z</time></trkpt><trkpt lat="45.695067364903416" lon="9.215574542839827"><ele>268.0</ele><time>2026-03-28T18:52:51Z</time></trkpt><trkpt lat="45.695162298006906" lon="9.215576572620773"><ele>268.0</ele><time>2026-03-28T18:53:12Z</time></trkpt><trkpt lat="45.6951090284805" lon="9.215635116008563"><ele>268.0</ele><time>2026-03-28T18:53:38.999Z</time></trkpt><trkpt lat="45.69517516593723" lon="9.215508676819182"><ele>268.0</ele><time>2026-03-28T18:53:58Z</time></trkpt><trkpt lat="45.695277187522166" lon="9.215426412979829"><ele>268.0</ele><time>2026-03-28T18:53:59Z</time></trkpt><trkpt lat="45.69510899662441" lon="9.215601323987169"><ele>268.0</ele><time>2026-03-28T18:54:03Z</time></trkpt><trkpt lat="45.695631117673926" lon="9.215644220266213"><ele>268.0</ele><time>2026-03-28T18:54:12Z</time></trkpt><trkpt lat="45.69520381211467" lon="9.215503515448987"><ele>268.0</ele><time>2026-03-28T18:54:16Z</time></trkpt><trkpt lat="45.69515903403372" lon="9.21542770914996"><ele>268.0</ele><time>2026-03-28T18:54:50Z</time></trkpt><trkpt lat="45.6951313429168" lon="9.21533823551424"><ele>268.0</ele><time>2026-03-28T18:55:02Z</time></trkpt><trkpt lat="45.69515670393953" lon="9.215249365285073"><ele>268.0</ele><time>2026-03-28T18:55:15Z</time></trkpt><trkpt lat="45.69511553827753" lon="9.215152251902188"><ele>268.0</ele><time>2026-03-28T18:55:19Z</time></trkpt><trkpt lat="45.69519387226948" lon="9.215067144383026"><ele>268.0</ele><time>2026-03-28T18:55:34.999Z</time></trkpt><trkpt lat="45.69517739733346" lon="9.215214073347319"><ele>268.0</ele><time>2026-03-28T18:55:39.999Z</time></trkpt><trkpt lat="45.695192035106835" lon="9.215100271628184"><ele>268.0</ele><time>2026-03-28T18:56:03Z</time></trkpt><trkpt lat="45.695190463076834" lon="9.215191230219357"><ele>268.0</ele><time>2026-03-28T18:56:30Z</time></trkpt><trkpt lat="45.69519407898918" lon="9.21528985840786"><ele>268.0</ele><time>2026-03-28T18:57:03Z</time></trkpt><trkpt lat="45.6951495558799" lon="9.21535733264516"><ele>268.0</ele><time>2026-03-28T18:57:16Z</time></trkpt><trkpt lat="45.69514170144918" lon="9.215455508940623"><ele>268.0</ele><time>2026-03-28T18:57:30.999Z</time></trkpt><trkpt lat="45.69508902360525" lon="9.21554915881129"><ele>268.0</ele><time>2026-03-28T18:57:41.999Z</time></trkpt><trkpt lat="45.69507496084539" lon="9.215650937102343"><ele>268.0</ele><time>2026-03-28T19:05:29.999Z</time></trkpt><trkpt lat="45.695015432124414" lon="9.215719351103486"><ele>268.0</ele><time>2026-03-28T19:05:38Z</time></trkpt><trkpt lat="45.69504113926363" lon="9.215626365192245"><ele>268.0</ele><time>2026-03-28T19:05:59Z</time></trkpt><trkpt lat="45.69496878153857" lon="9.215588064853648"><ele>268.0</ele><time>2026-03-28T19:07:46Z</time></trkpt><trkpt lat="45.69490173497089" lon="9.215566074512047"><ele>268.0</ele><time>2026-03-28T19:07:49Z</time></trkpt><trkpt lat="45.695021831001064" lon="9.215564295440855"><ele>268.0</ele><time>2026-03-28T19:07:58Z</time></trkpt><trkpt lat="45.695077893352845" lon="9.215501149946732"><ele>268.0</ele><time>2026-03-28T19:08:00Z</time></trkpt><trkpt lat="45.69514974685975" lon="9.215437501237693"><ele>268.0</ele><time>2026-03-28T19:08:31Z</time></trkpt><trkpt lat="45.69512008390115" lon="9.215345816529496"><ele>268.0</ele><time>2026-03-28T19:08:45Z</time></trkpt><trkpt lat="45.69517473244489" lon="9.215276763979737"><ele>268.0</ele><time>2026-03-28T19:09:04.999Z</time></trkpt><trkpt lat="45.695255641285634" lon="9.215290779428498"><ele>268.0</ele><time>2026-03-28T19:09:14.999Z</time></trkpt><trkpt lat="45.69530427751431" lon="9.215354579283815"><ele>268.0</ele><time>2026-03-28T19:09:19.999Z</time></trkpt><trkpt lat="45.69536099741431" lon="9.215398707575375"><ele>268.0</ele><time>2026-03-28T19:09:25.999Z</time></trkpt><trkpt lat="45.695409358862236" lon="9.215333762590818"><ele>268.0</ele><time>2026-03-28T19:09:33.999Z</time></trkpt><trkpt lat="45.695466994651696" lon="9.21527976961685"><ele>268.0</ele><time>2026-03-28T19:09:38.999Z</time></trkpt><trkpt lat="45.69552403961742" lon="9.215201406455504"><ele>268.0</ele><time>2026-03-28T19:09:44.999Z</time></trkpt><trkpt lat="45.695573897514016" lon="9.215144713135485"><ele>268.0</ele><time>2026-03-28T19:09:50Z</time></trkpt><trkpt lat="45.69560659762771" lon="9.215055091087043"><ele>268.0</ele><time>2026-03-28T19:09:57Z</time></trkpt><trkpt lat="45.695611817105956" lon="9.214961466585486"><ele>268.0</ele><time>2026-03-28T19:10:03Z</time></trkpt><trkpt lat="45.69558326597003" lon="9.214879119858132"><ele>268.0</ele><time>2026-03-28T19:10:08Z</time></trkpt><trkpt lat="45.695539784220855" lon="9.214798233107805"><ele>268.0</ele><time>2026-03-28T19:10:15Z</time></trkpt><trkpt lat="45.69559054049559" lon="9.214742409265142"><ele>268.25</ele><time>2026-03-28T19:10:26Z</time></trkpt><trkpt lat="45.69563701441376" lon="9.214806893155389"><ele>268.5</ele><time>2026-03-28T19:11:30.999Z</time></trkpt><trkpt lat="45.695508093736464" lon="9.214569803544219"><ele>268.75</ele><time>2026-03-28T19:12:43Z</time></trkpt><trkpt lat="45.69542277890792" lon="9.214489604113357"><ele>269.0</ele><time>2026-03-28T19:12:51.697Z</time></trkpt><trkpt lat="45.695507751008066" lon="9.214569467142141"><ele>269.0</ele><time>2026-03-28T19:12:57.703Z</time></trkpt><trkpt lat="45.69555464422993" lon="9.2147272631357"><ele>269.0</ele><time>2026-03-28T19:13:07Z</time></trkpt><trkpt lat="45.69549334288796" lon="9.214772842800224"><ele>269.0</ele><time>2026-03-28T19:13:19.999Z</time></trkpt><trkpt lat="45.69553628886124" lon="9.214850421286894"><ele>269.0</ele><time>2026-03-28T19:13:25.999Z</time></trkpt><trkpt lat="45.69557720654757" lon="9.214921807119802"><ele>269.0</ele><time>2026-03-28T19:13:30.999Z</time></trkpt><trkpt lat="45.69559789247605" lon="9.215019906459506"><ele>269.0</ele><time>2026-03-28T19:13:38.999Z</time></trkpt><trkpt lat="45.69556062940268" lon="9.215101707317393"><ele>268.8571428571429</ele><time>2026-03-28T19:13:45.999Z</time></trkpt><trkpt lat="45.69552323824229" lon="9.215174333650376"><ele>268.7142857142857</ele><time>2026-03-28T19:13:51.999Z</time></trkpt><trkpt lat="45.69548061454166" lon="9.215254505799374"><ele>268.57142857142856</ele><time>2026-03-28T19:13:57.999Z</time></trkpt><trkpt lat="45.695446762438266" lon="9.215347236184224"><ele>268.42857142857144</ele><time>2026-03-28T19:14:06.999Z</time></trkpt><trkpt lat="45.69537475773621" lon="9.215411953507179"><ele>268.2857142857143</ele><time>2026-03-28T19:14:13.999Z</time></trkpt><trkpt lat="45.695297981197626" lon="9.215371576763417"><ele>268.14285714285717</ele><time>2026-03-28T19:14:21.999Z</time></trkpt><trkpt lat="45.69523822163333" lon="9.215315425040663"><ele>268.0</ele><time>2026-03-28T19:14:27.999Z</time></trkpt><trkpt lat="45.695180025839534" lon="9.215271610969896"><ele>268.0</ele><time>2026-03-28T19:14:39.999Z</time></trkpt><trkpt lat="45.695101885704496" lon="9.215307636998455"><ele>268.0</ele><time>2026-03-28T19:14:48.999Z</time></trkpt><trkpt lat="45.6951486592149" lon="9.215379582534366"><ele>268.0</ele><time>2026-03-28T19:14:56.999Z</time></trkpt><trkpt lat="45.6951312742114" lon="9.215484479123855"><ele>268.0</ele><time>2026-03-28T19:15:04.999Z</time></trkpt><trkpt lat="45.695038020438254" lon="9.215545404544557"><ele>268.0</ele><time>2026-03-28T19:18:48.019Z</time></trkpt><trkpt lat="45.695203645258694" lon="9.21552800338353"><ele>268.0</ele><time>2026-03-28T19:19:51.999Z</time></trkpt><trkpt lat="45.69512088776448" lon="9.215538215082749"><ele>268.0</ele><time>2026-03-28T19:29:11Z</time></trkpt><trkpt lat="45.69533450245242" lon="9.215475521793968"><ele>268.0</ele><time>2026-03-28T19:33:36Z</time></trkpt><trkpt lat="45.69525269791689" lon="9.21551793945686"><ele>268.0</ele><time>2026-03-28T19:33:46Z</time></trkpt><trkpt lat="45.69515625544331" lon="9.215579449629265"><ele>268.0</ele><time>2026-03-28T19:34:03Z</time></trkpt><trkpt lat="45.695024774838316" lon="9.215695059689581"><ele>268.0</ele><time>2026-03-28T19:35:41.552Z</time></trkpt><trkpt lat="45.69513205815887" lon="9.215571053824638"><ele>268.0</ele><time>2026-03-28T19:41:15Z</time></trkpt><trkpt lat="45.69503552107139" lon="9.215677646689105"><ele>268.0</ele><time>2026-03-28T19:55:01.923Z</time></trkpt><trkpt lat="45.69507330798985" lon="9.215335351388864"><ele>268.0</ele><time>2026-03-28T20:03:19.508Z</time></trkpt><trkpt lat="45.694998326016595" lon="9.215657716081628"><ele>268.0</ele><time>2026-03-28T20:03:25.911Z</time></trkpt><trkpt lat="45.69508352267427" lon="9.215192105023913"><ele>268.0</ele><time>2026-03-28T20:05:34.225Z</time></trkpt><trkpt lat="45.69501848371551" lon="9.215535858024337"><ele>268.0</ele><time>2026-03-28T20:06:00.299Z</time></trkpt><trkpt lat="45.69499717539429" lon="9.215648741178311"><ele>268.0</ele><time>2026-03-28T20:06:07.563Z</time></trkpt><trkpt lat="45.69503451989386" lon="9.215523706178796"><ele>268.0</ele><time>2026-03-28T20:07:05.445Z</time></trkpt><trkpt lat="45.6950118399837" lon="9.215643045427345"><ele>268.0</ele><time>2026-03-28T20:07:22.942Z</time></trkpt><trkpt lat="45.69517072444317" lon="9.215556744925195"><ele>268.0</ele><time>2026-03-28T20:24:23Z</time></trkpt><trkpt lat="45.69520787340214" lon="9.215429881596208"><ele>268.0</ele><time>2026-03-28T20:54:04Z</time></trkpt><trkpt lat="45.6951115202522" lon="9.215564469508884"><ele>268.0</ele><time>2026-03-28T20:55:24.999Z</time></trkpt></trkseg></trk></gpx>